<?xml version='1.0' encoding='UTF-8'?><gpx version="1.1" creator="JPX - https://github.com/jenetics/jpx" xmlns="http://www.topografix.com/GPX/1/1"><trk><trkseg><trkpt lat="49.5220271" lon="15.3476933"><ele>592.1666666666666</ele><time>2026-04-06T10:06:17.818Z</time></trkpt><trkpt lat="49.5220939" lon="15.34755"><ele>591.3333333333333</ele><time>2026-04-06T10:08:01.817Z</time></trkpt><trkpt lat="49.5221718" lon="15.3474796"><ele>590.5</ele><time>2026-04-06T10:08:03.817Z</time></trkpt><trkpt lat="49.5221956" lon="15.3473873"><ele>589.6666666666666</ele><time>2026-04-06T10:08:05.818Z</time></trkpt><trkpt lat="49.5221542" lon="15.3472753"><ele>588.8333333333334</ele><time>2026-04-06T10:08:08.818Z</time></trkpt><trkpt lat="49.5220854" lon="15.3471889"><ele>588.0</ele><time>2026-04-06T10:08:11.818Z</time></trkpt><trkpt lat="49.5220228" lon="15.3470938"><ele>590.0</ele><time>2026-04-06T10:08:13.818Z</time></trkpt><trkpt lat="49.5219659" lon="15.347024"><ele>592.0</ele><time>2026-04-06T10:08:14.818Z</time></trkpt><trkpt lat="49.521895" lon="15.3469273"><ele>594.0</ele><time>2026-04-06T10:08:15.817Z</time></trkpt><trkpt lat="49.5218421" lon="15.3467962"><ele>596.0</ele><time>2026-04-06T10:08:16.817Z</time></trkpt><trkpt lat="49.5218005" lon="15.3466417"><ele>598.0</ele><time>2026-04-06T10:08:17.818Z</time></trkpt><trkpt lat="49.5217514" lon="15.346518"><ele>598.0</ele><time>2026-04-06T10:08:18.817Z</time></trkpt><trkpt lat="49.5216859" lon="15.3464287"><ele>598.0</ele><time>2026-04-06T10:08:19.817Z</time></trkpt><trkpt lat="49.5216239" lon="15.3463585"><ele>598.0</ele><time>2026-04-06T10:08:20.817Z</time></trkpt><trkpt lat="49.521561" lon="15.3463317"><ele>598.0</ele><time>2026-04-06T10:08:21.817Z</time></trkpt><trkpt lat="49.5214649" lon="15.3462695"><ele>598.0</ele><time>2026-04-06T10:08:23.817Z</time></trkpt><trkpt lat="49.5214243" lon="15.3461938"><ele>598.0</ele><time>2026-04-06T10:08:25.818Z</time></trkpt><trkpt lat="49.5213956" lon="15.3460926"><ele>597.0</ele><time>2026-04-06T10:08:29.817Z</time></trkpt><trkpt lat="49.5213182" lon="15.3460928"><ele>596.0</ele><time>2026-04-06T10:08:42.817Z</time></trkpt><trkpt lat="49.5212456" lon="15.3461409"><ele>595.0</ele><time>2026-04-06T10:08:45.817Z</time></trkpt><trkpt lat="49.5211809" lon="15.3461488"><ele>594.0</ele><time>2026-04-06T10:08:47.817Z</time></trkpt><trkpt lat="49.5211165" lon="15.346144"><ele>593.0</ele><time>2026-04-06T10:08:49.818Z</time></trkpt><trkpt lat="49.5210193" lon="15.3461774"><ele>592.0</ele><time>2026-04-06T10:08:51.818Z</time></trkpt><trkpt lat="49.5209148" lon="15.3462065"><ele>592.0</ele><time>2026-04-06T10:08:53.818Z</time></trkpt><trkpt lat="49.5207832" lon="15.3461888"><ele>592.0</ele><time>2026-04-06T10:08:55.817Z</time></trkpt><trkpt lat="49.5207137" lon="15.3461688"><ele>592.0</ele><time>2026-04-06T10:08:56.818Z</time></trkpt><trkpt lat="49.520648" lon="15.346155"><ele>592.0</ele><time>2026-04-06T10:08:57.817Z</time></trkpt><trkpt lat="49.5205478" lon="15.3461178"><ele>592.0</ele><time>2026-04-06T10:08:59.817Z</time></trkpt><trkpt lat="49.5204745" lon="15.3460483"><ele>592.0</ele><time>2026-04-06T10:09:01.817Z</time></trkpt><trkpt lat="49.520412" lon="15.3459812"><ele>592.0</ele><time>2026-04-06T10:09:03.817Z</time></trkpt><trkpt lat="49.5203586" lon="15.3459294"><ele>592.0</ele><time>2026-04-06T10:09:05.817Z</time></trkpt><trkpt lat="49.5203072" lon="15.3458404"><ele>592.0</ele><time>2026-04-06T10:09:08.818Z</time></trkpt><trkpt lat="49.5203217" lon="15.3456595"><ele>592.0</ele><time>2026-04-06T10:09:19.817Z</time></trkpt><trkpt lat="49.520355" lon="15.3455603"><ele>592.0</ele><time>2026-04-06T10:09:20.818Z</time></trkpt><trkpt lat="49.5203979" lon="15.3454419"><ele>591.25</ele><time>2026-04-06T10:09:21.818Z</time></trkpt><trkpt lat="49.5204294" lon="15.3452873"><ele>590.5</ele><time>2026-04-06T10:09:22.818Z</time></trkpt><trkpt lat="49.520438" lon="15.3451049"><ele>589.75</ele><time>2026-04-06T10:09:23.817Z</time></trkpt><trkpt lat="49.520445" lon="15.3449033"><ele>589.0</ele><time>2026-04-06T10:09:24.817Z</time></trkpt><trkpt lat="49.5204533" lon="15.3447246"><ele>588.6</ele><time>2026-04-06T10:09:25.817Z</time></trkpt><trkpt lat="49.5204773" lon="15.3445781"><ele>588.2</ele><time>2026-04-06T10:09:26.818Z</time></trkpt><trkpt lat="49.520519" lon="15.3444611"><ele>587.8000000000001</ele><time>2026-04-06T10:09:27.818Z</time></trkpt><trkpt lat="49.5205938" lon="15.3443556"><ele>587.4</ele><time>2026-04-06T10:09:28.818Z</time></trkpt><trkpt lat="49.520695" lon="15.3442696"><ele>587.0</ele><time>2026-04-06T10:09:29.818Z</time></trkpt><trkpt lat="49.5208089" lon="15.3441532"><ele>587.0</ele><time>2026-04-06T10:09:30.818Z</time></trkpt><trkpt lat="49.5209239" lon="15.3439891"><ele>587.0</ele><time>2026-04-06T10:09:31.817Z</time></trkpt><trkpt lat="49.5210556" lon="15.3438265"><ele>587.0</ele><time>2026-04-06T10:09:32.818Z</time></trkpt><trkpt lat="49.5211919" lon="15.3437051"><ele>587.0</ele><time>2026-04-06T10:09:33.817Z</time></trkpt><trkpt lat="49.5213331" lon="15.3436168"><ele>587.0</ele><time>2026-04-06T10:09:34.818Z</time></trkpt><trkpt lat="49.5214859" lon="15.3435529"><ele>587.0</ele><time>2026-04-06T10:09:35.818Z</time></trkpt><trkpt lat="49.5216464" lon="15.3435231"><ele>587.0</ele><time>2026-04-06T10:09:36.818Z</time></trkpt><trkpt lat="49.5218198" lon="15.3435327"><ele>587.0</ele><time>2026-04-06T10:09:37.818Z</time></trkpt><trkpt lat="49.5219863" lon="15.3435581"><ele>587.0</ele><time>2026-04-06T10:09:38.818Z</time></trkpt><trkpt lat="49.5221418" lon="15.3435866"><ele>585.25</ele><time>2026-04-06T10:09:39.817Z</time></trkpt><trkpt lat="49.5222843" lon="15.3436213"><ele>583.5</ele><time>2026-04-06T10:09:40.817Z</time></trkpt><trkpt lat="49.5224207" lon="15.3436581"><ele>581.75</ele><time>2026-04-06T10:09:41.817Z</time></trkpt><trkpt lat="49.52256" lon="15.3437059"><ele>580.0</ele><time>2026-04-06T10:09:42.817Z</time></trkpt><trkpt lat="49.5227014" lon="15.343771"><ele>580.0</ele><time>2026-04-06T10:09:43.817Z</time></trkpt><trkpt lat="49.5228472" lon="15.3438425"><ele>580.0</ele><time>2026-04-06T10:09:44.818Z</time></trkpt><trkpt lat="49.5229969" lon="15.3439057"><ele>580.0</ele><time>2026-04-06T10:09:45.817Z</time></trkpt><trkpt lat="49.5231476" lon="15.343971"><ele>580.25</ele><time>2026-04-06T10:09:46.819Z</time></trkpt><trkpt lat="49.5232847" lon="15.3440397"><ele>580.5</ele><time>2026-04-06T10:09:47.818Z</time></trkpt><trkpt lat="49.5234059" lon="15.344101"><ele>580.75</ele><time>2026-04-06T10:09:48.819Z</time></trkpt><trkpt lat="49.5235199" lon="15.3441569"><ele>581.0</ele><time>2026-04-06T10:09:49.819Z</time></trkpt><trkpt lat="49.5236241" lon="15.3442108"><ele>581.0</ele><time>2026-04-06T10:09:50.818Z</time></trkpt><trkpt lat="49.5237187" lon="15.3442714"><ele>581.0</ele><time>2026-04-06T10:09:51.819Z</time></trkpt><trkpt lat="49.5238057" lon="15.3443605"><ele>581.0</ele><time>2026-04-06T10:09:52.819Z</time></trkpt><trkpt lat="49.5238829" lon="15.3444667"><ele>581.0</ele><time>2026-04-06T10:09:53.819Z</time></trkpt><trkpt lat="49.5239586" lon="15.3445877"><ele>581.0</ele><time>2026-04-06T10:09:54.818Z</time></trkpt><trkpt lat="49.5240407" lon="15.3447142"><ele>581.25</ele><time>2026-04-06T10:09:55.819Z</time></trkpt><trkpt lat="49.5241289" lon="15.3448438"><ele>581.5</ele><time>2026-04-06T10:09:56.818Z</time></trkpt><trkpt lat="49.5242166" lon="15.3449743"><ele>581.75</ele><time>2026-04-06T10:09:57.819Z</time></trkpt><trkpt lat="49.5242969" lon="15.3451051"><ele>582.0</ele><time>2026-04-06T10:09:58.818Z</time></trkpt><trkpt lat="49.5243891" lon="15.34523"><ele>582.0</ele><time>2026-04-06T10:09:59.818Z</time></trkpt><trkpt lat="49.5244958" lon="15.3453515"><ele>582.0</ele><time>2026-04-06T10:10:00.818Z</time></trkpt><trkpt lat="49.5246069" lon="15.3454644"><ele>582.0</ele><time>2026-04-06T10:10:01.818Z</time></trkpt><trkpt lat="49.5247126" lon="15.3455797"><ele>582.0</ele><time>2026-04-06T10:10:02.818Z</time></trkpt><trkpt lat="49.5248203" lon="15.3456804"><ele>581.5</ele><time>2026-04-06T10:10:03.819Z</time></trkpt><trkpt lat="49.5249294" lon="15.3457754"><ele>581.0</ele><time>2026-04-06T10:10:04.818Z</time></trkpt><trkpt lat="49.5250364" lon="15.3458529"><ele>580.5</ele><time>2026-04-06T10:10:05.819Z</time></trkpt><trkpt lat="49.5251381" lon="15.3459211"><ele>580.0</ele><time>2026-04-06T10:10:06.818Z</time></trkpt><trkpt lat="49.5252316" lon="15.3459893"><ele>580.0</ele><time>2026-04-06T10:10:07.819Z</time></trkpt><trkpt lat="49.5253068" lon="15.346056"><ele>580.0</ele><time>2026-04-06T10:10:08.819Z</time></trkpt><trkpt lat="49.5253672" lon="15.3461181"><ele>580.0</ele><time>2026-04-06T10:10:09.818Z</time></trkpt><trkpt lat="49.5254259" lon="15.3462473"><ele>580.0</ele><time>2026-04-06T10:10:11.818Z</time></trkpt><trkpt lat="49.5255033" lon="15.3463377"><ele>580.0</ele><time>2026-04-06T10:10:13.818Z</time></trkpt><trkpt lat="49.525576" lon="15.3462725"><ele>580.0</ele><time>2026-04-06T10:10:15.818Z</time></trkpt><trkpt lat="49.5256313" lon="15.3461304"><ele>580.6</ele><time>2026-04-06T10:10:17.818Z</time></trkpt><trkpt lat="49.5256692" lon="15.3460282"><ele>581.2</ele><time>2026-04-06T10:10:18.818Z</time></trkpt><trkpt lat="49.5257155" lon="15.3459047"><ele>581.8</ele><time>2026-04-06T10:10:19.818Z</time></trkpt><trkpt lat="49.5257604" lon="15.3457663"><ele>582.4</ele><time>2026-04-06T10:10:20.818Z</time></trkpt><trkpt lat="49.525805" lon="15.3456191"><ele>583.0</ele><time>2026-04-06T10:10:21.819Z</time></trkpt><trkpt lat="49.5258498" lon="15.3454726"><ele>583.0</ele><time>2026-04-06T10:10:22.819Z</time></trkpt><trkpt lat="49.5258939" lon="15.3453356"><ele>583.0</ele><time>2026-04-06T10:10:23.819Z</time></trkpt><trkpt lat="49.5259312" lon="15.3452082"><ele>583.0</ele><time>2026-04-06T10:10:24.819Z</time></trkpt><trkpt lat="49.5259628" lon="15.3451009"><ele>583.0</ele><time>2026-04-06T10:10:25.818Z</time></trkpt><trkpt lat="49.5259841" lon="15.3449909"><ele>583.0</ele><time>2026-04-06T10:10:26.819Z</time></trkpt><trkpt lat="49.5259995" lon="15.3448785"><ele>583.0</ele><time>2026-04-06T10:10:27.819Z</time></trkpt><trkpt lat="49.526017" lon="15.3447487"><ele>582.8333333333334</ele><time>2026-04-06T10:10:28.818Z</time></trkpt><trkpt lat="49.5260414" lon="15.3446202"><ele>582.6666666666667</ele><time>2026-04-06T10:10:29.819Z</time></trkpt><trkpt lat="49.5260689" lon="15.3444942"><ele>582.5</ele><time>2026-04-06T10:10:30.819Z</time></trkpt><trkpt lat="49.5260892" lon="15.3443611"><ele>582.3333333333334</ele><time>2026-04-06T10:10:31.818Z</time></trkpt><trkpt lat="49.5260895" lon="15.3442261"><ele>582.1666666666666</ele><time>2026-04-06T10:10:32.819Z</time></trkpt><trkpt lat="49.526085" lon="15.3440817"><ele>582.0</ele><time>2026-04-06T10:10:33.819Z</time></trkpt><trkpt lat="49.5260904" lon="15.3439429"><ele>582.2</ele><time>2026-04-06T10:10:34.818Z</time></trkpt><trkpt lat="49.5260982" lon="15.343815"><ele>582.4000000000001</ele><time>2026-04-06T10:10:35.819Z</time></trkpt><trkpt lat="49.5261267" lon="15.3436865"><ele>582.5999999999999</ele><time>2026-04-06T10:10:36.819Z</time></trkpt><trkpt lat="49.5261703" lon="15.3435587"><ele>582.8</ele><time>2026-04-06T10:10:37.818Z</time></trkpt><trkpt lat="49.5262077" lon="15.3434131"><ele>583.0</ele><time>2026-04-06T10:10:38.818Z</time></trkpt><trkpt lat="49.5262343" lon="15.3432698"><ele>583.0</ele><time>2026-04-06T10:10:39.819Z</time></trkpt><trkpt lat="49.5262539" lon="15.3431227"><ele>583.0</ele><time>2026-04-06T10:10:40.819Z</time></trkpt><trkpt lat="49.526278" lon="15.3429816"><ele>583.0</ele><time>2026-04-06T10:10:41.818Z</time></trkpt><trkpt lat="49.5263103" lon="15.3428402"><ele>583.0</ele><time>2026-04-06T10:10:42.819Z</time></trkpt><trkpt lat="49.5263417" lon="15.3427003"><ele>583.0</ele><time>2026-04-06T10:10:43.819Z</time></trkpt><trkpt lat="49.526371" lon="15.342567"><ele>582.6666666666667</ele><time>2026-04-06T10:10:44.818Z</time></trkpt><trkpt lat="49.5263985" lon="15.3424588"><ele>582.3333333333334</ele><time>2026-04-06T10:10:45.818Z</time></trkpt><trkpt lat="49.5264285" lon="15.3423707"><ele>582.0</ele><time>2026-04-06T10:10:46.818Z</time></trkpt><trkpt lat="49.5265318" lon="15.3422678"><ele>581.6666666666666</ele><time>2026-04-06T10:10:48.819Z</time></trkpt><trkpt lat="49.5265991" lon="15.3422849"><ele>581.3333333333333</ele><time>2026-04-06T10:10:49.818Z</time></trkpt><trkpt lat="49.5266751" lon="15.3423169"><ele>581.0</ele><time>2026-04-06T10:10:50.819Z</time></trkpt><trkpt lat="49.5267558" lon="15.3423656"><ele>581.0</ele><time>2026-04-06T10:10:51.818Z</time></trkpt><trkpt lat="49.5268482" lon="15.3424293"><ele>581.0</ele><time>2026-04-06T10:10:52.819Z</time></trkpt><trkpt lat="49.5269568" lon="15.3425048"><ele>581.0</ele><time>2026-04-06T10:10:53.818Z</time></trkpt><trkpt lat="49.5270886" lon="15.3425803"><ele>581.0</ele><time>2026-04-06T10:10:54.818Z</time></trkpt><trkpt lat="49.5272296" lon="15.3426645"><ele>581.0</ele><time>2026-04-06T10:10:55.818Z</time></trkpt><trkpt lat="49.5273609" lon="15.3427537"><ele>581.0</ele><time>2026-04-06T10:10:56.819Z</time></trkpt><trkpt lat="49.5274771" lon="15.3428442"><ele>581.0</ele><time>2026-04-06T10:10:57.819Z</time></trkpt><trkpt lat="49.5275876" lon="15.3429216"><ele>581.0</ele><time>2026-04-06T10:10:58.819Z</time></trkpt><trkpt lat="49.5276857" lon="15.3429903"><ele>581.5</ele><time>2026-04-06T10:10:59.818Z</time></trkpt><trkpt lat="49.5277684" lon="15.3430514"><ele>582.0</ele><time>2026-04-06T10:11:00.818Z</time></trkpt><trkpt lat="49.5278375" lon="15.3431008"><ele>582.5</ele><time>2026-04-06T10:11:01.819Z</time></trkpt><trkpt lat="49.5278989" lon="15.3431287"><ele>583.0</ele><time>2026-04-06T10:11:02.818Z</time></trkpt><trkpt lat="49.5280031" lon="15.343094"><ele>583.5</ele><time>2026-04-06T10:11:04.818Z</time></trkpt><trkpt lat="49.5280491" lon="15.3430025"><ele>584.0</ele><time>2026-04-06T10:11:05.818Z</time></trkpt><trkpt lat="49.5281054" lon="15.3428694"><ele>584.0</ele><time>2026-04-06T10:11:06.818Z</time></trkpt><trkpt lat="49.5281709" lon="15.3427105"><ele>584.0</ele><time>2026-04-06T10:11:07.819Z</time></trkpt><trkpt lat="49.5282463" lon="15.3425314"><ele>584.0</ele><time>2026-04-06T10:11:08.819Z</time></trkpt><trkpt lat="49.5283363" lon="15.3423423"><ele>584.0</ele><time>2026-04-06T10:11:09.819Z</time></trkpt><trkpt lat="49.5284283" lon="15.3421425"><ele>584.6666666666666</ele><time>2026-04-06T10:11:10.818Z</time></trkpt><trkpt lat="49.5285233" lon="15.3419398"><ele>585.3333333333334</ele><time>2026-04-06T10:11:11.818Z</time></trkpt><trkpt lat="49.5286253" lon="15.3417331"><ele>586.0</ele><time>2026-04-06T10:11:12.818Z</time></trkpt><trkpt lat="49.5287378" lon="15.3415194"><ele>585.6666666666667</ele><time>2026-04-06T10:11:13.818Z</time></trkpt><trkpt lat="49.5288555" lon="15.3413049"><ele>585.3333333333334</ele><time>2026-04-06T10:11:14.819Z</time></trkpt><trkpt lat="49.5289764" lon="15.3410815"><ele>585.0</ele><time>2026-04-06T10:11:15.818Z</time></trkpt><trkpt lat="49.5291027" lon="15.3408577"><ele>585.0</ele><time>2026-04-06T10:11:16.819Z</time></trkpt><trkpt lat="49.529232" lon="15.3406391"><ele>585.0</ele><time>2026-04-06T10:11:17.818Z</time></trkpt><trkpt lat="49.5293617" lon="15.3404163"><ele>585.0</ele><time>2026-04-06T10:11:18.818Z</time></trkpt><trkpt lat="49.5294888" lon="15.3401859"><ele>586.3333333333334</ele><time>2026-04-06T10:11:19.818Z</time></trkpt><trkpt lat="49.5296146" lon="15.3399589"><ele>587.6666666666667</ele><time>2026-04-06T10:11:20.818Z</time></trkpt><trkpt lat="49.5297344" lon="15.3397399"><ele>589.0</ele><time>2026-04-06T10:11:21.818Z</time></trkpt><trkpt lat="49.5298605" lon="15.3395309"><ele>589.0</ele><time>2026-04-06T10:11:22.818Z</time></trkpt><trkpt lat="49.5299855" lon="15.3393339"><ele>589.0</ele><time>2026-04-06T10:11:23.819Z</time></trkpt><trkpt lat="49.530123" lon="15.3391448"><ele>589.0</ele><time>2026-04-06T10:11:24.818Z</time></trkpt><trkpt lat="49.5302613" lon="15.3389422"><ele>588.6666666666667</ele><time>2026-04-06T10:11:25.819Z</time></trkpt><trkpt lat="49.5304012" lon="15.3387406"><ele>588.3333333333334</ele><time>2026-04-06T10:11:26.818Z</time></trkpt><trkpt lat="49.5305393" lon="15.3385232"><ele>588.0</ele><time>2026-04-06T10:11:27.818Z</time></trkpt><trkpt lat="49.5306823" lon="15.3383076"><ele>588.0</ele><time>2026-04-06T10:11:28.818Z</time></trkpt><trkpt lat="49.5308263" lon="15.3381037"><ele>588.0</ele><time>2026-04-06T10:11:29.818Z</time></trkpt><trkpt lat="49.5309676" lon="15.3379108"><ele>588.0</ele><time>2026-04-06T10:11:30.819Z</time></trkpt><trkpt lat="49.5311056" lon="15.3377185"><ele>587.6666666666666</ele><time>2026-04-06T10:11:31.819Z</time></trkpt><trkpt lat="49.5312517" lon="15.3375307"><ele>587.3333333333333</ele><time>2026-04-06T10:11:32.818Z</time></trkpt><trkpt lat="49.5314009" lon="15.3373443"><ele>587.0</ele><time>2026-04-06T10:11:33.826Z</time></trkpt><trkpt lat="49.5315498" lon="15.3371529"><ele>587.6666666666666</ele><time>2026-04-06T10:11:34.825Z</time></trkpt><trkpt lat="49.531705" lon="15.3369622"><ele>588.3333333333334</ele><time>2026-04-06T10:11:35.825Z</time></trkpt><trkpt lat="49.5318627" lon="15.3367639"><ele>589.0</ele><time>2026-04-06T10:11:36.826Z</time></trkpt><trkpt lat="49.5320274" lon="15.3365671"><ele>589.0</ele><time>2026-04-06T10:11:37.825Z</time></trkpt><trkpt lat="49.5321854" lon="15.3363728"><ele>589.0</ele><time>2026-04-06T10:11:38.826Z</time></trkpt><trkpt lat="49.5323434" lon="15.3361921"><ele>589.0</ele><time>2026-04-06T10:11:39.826Z</time></trkpt><trkpt lat="49.5324877" lon="15.336018"><ele>589.0</ele><time>2026-04-06T10:11:40.825Z</time></trkpt><trkpt lat="49.5326234" lon="15.3358496"><ele>589.0</ele><time>2026-04-06T10:11:41.826Z</time></trkpt><trkpt lat="49.5327512" lon="15.3356809"><ele>589.0</ele><time>2026-04-06T10:11:42.825Z</time></trkpt><trkpt lat="49.5328824" lon="15.3355032"><ele>589.0</ele><time>2026-04-06T10:11:43.826Z</time></trkpt><trkpt lat="49.5329814" lon="15.3353098"><ele>589.0</ele><time>2026-04-06T10:11:44.825Z</time></trkpt><trkpt lat="49.5330668" lon="15.3351114"><ele>589.0</ele><time>2026-04-06T10:11:45.825Z</time></trkpt><trkpt lat="49.5331523" lon="15.3349351"><ele>589.0</ele><time>2026-04-06T10:11:46.826Z</time></trkpt><trkpt lat="49.5332377" lon="15.3347815"><ele>589.0</ele><time>2026-04-06T10:11:47.825Z</time></trkpt><trkpt lat="49.5332842" lon="15.3346731"><ele>589.0</ele><time>2026-04-06T10:11:48.826Z</time></trkpt><trkpt lat="49.5333492" lon="15.3345563"><ele>589.0</ele><time>2026-04-06T10:11:50.826Z</time></trkpt><trkpt lat="49.5333464" lon="15.3343511"><ele>589.0</ele><time>2026-04-06T10:12:01.826Z</time></trkpt><trkpt lat="49.5332986" lon="15.3341738"><ele>588.6666666666667</ele><time>2026-04-06T10:12:02.825Z</time></trkpt><trkpt lat="49.5332172" lon="15.3339392"><ele>588.3333333333334</ele><time>2026-04-06T10:12:03.826Z</time></trkpt><trkpt lat="49.5331239" lon="15.3336502"><ele>588.0</ele><time>2026-04-06T10:12:04.826Z</time></trkpt><trkpt lat="49.5330304" lon="15.3333084"><ele>587.5</ele><time>2026-04-06T10:12:05.826Z</time></trkpt><trkpt lat="49.5329359" lon="15.3329146"><ele>587.0</ele><time>2026-04-06T10:12:06.826Z</time></trkpt><trkpt lat="49.5328667" lon="15.3325289"><ele>584.5</ele><time>2026-04-06T10:12:07.825Z</time></trkpt><trkpt lat="49.5328052" lon="15.3321403"><ele>582.0</ele><time>2026-04-06T10:12:08.825Z</time></trkpt><trkpt lat="49.5327479" lon="15.3317843"><ele>582.0</ele><time>2026-04-06T10:12:09.825Z</time></trkpt><trkpt lat="49.5326917" lon="15.3314647"><ele>582.0</ele><time>2026-04-06T10:12:10.826Z</time></trkpt><trkpt lat="49.532639" lon="15.3311343"><ele>582.0</ele><time>2026-04-06T10:12:11.825Z</time></trkpt><trkpt lat="49.5325797" lon="15.330814"><ele>582.3333333333334</ele><time>2026-04-06T10:12:12.826Z</time></trkpt><trkpt lat="49.5325195" lon="15.3305012"><ele>582.6666666666667</ele><time>2026-04-06T10:12:13.826Z</time></trkpt><trkpt lat="49.5324603" lon="15.3301911"><ele>583.0</ele><time>2026-04-06T10:12:14.825Z</time></trkpt><trkpt lat="49.5324037" lon="15.3298845"><ele>583.3333333333334</ele><time>2026-04-06T10:12:15.825Z</time></trkpt><trkpt lat="49.5323526" lon="15.32959"><ele>583.6666666666666</ele><time>2026-04-06T10:12:16.825Z</time></trkpt><trkpt lat="49.5323027" lon="15.3293064"><ele>584.0</ele><time>2026-04-06T10:12:17.825Z</time></trkpt><trkpt lat="49.5322544" lon="15.3290349"><ele>584.0</ele><time>2026-04-06T10:12:18.826Z</time></trkpt><trkpt lat="49.5322065" lon="15.3287671"><ele>584.0</ele><time>2026-04-06T10:12:19.825Z</time></trkpt><trkpt lat="49.5321621" lon="15.3285155"><ele>584.0</ele><time>2026-04-06T10:12:20.825Z</time></trkpt><trkpt lat="49.5321089" lon="15.3282738"><ele>582.6666666666666</ele><time>2026-04-06T10:12:21.826Z</time></trkpt><trkpt lat="49.5320485" lon="15.3280379"><ele>581.3333333333334</ele><time>2026-04-06T10:12:22.825Z</time></trkpt><trkpt lat="49.5319741" lon="15.32781"><ele>580.0</ele><time>2026-04-06T10:12:23.825Z</time></trkpt><trkpt lat="49.5318886" lon="15.3275941"><ele>580.0</ele><time>2026-04-06T10:12:24.826Z</time></trkpt><trkpt lat="49.5318075" lon="15.3273519"><ele>580.0</ele><time>2026-04-06T10:12:25.825Z</time></trkpt><trkpt lat="49.5317132" lon="15.3271384"><ele>580.0</ele><time>2026-04-06T10:12:26.825Z</time></trkpt><trkpt lat="49.5316186" lon="15.3269362"><ele>580.6666666666667</ele><time>2026-04-06T10:12:27.826Z</time></trkpt><trkpt lat="49.5315208" lon="15.3267332"><ele>581.3333333333334</ele><time>2026-04-06T10:12:28.825Z</time></trkpt><trkpt lat="49.5314321" lon="15.3265264"><ele>582.0</ele><time>2026-04-06T10:12:29.826Z</time></trkpt><trkpt lat="49.5313491" lon="15.326315"><ele>581.6666666666666</ele><time>2026-04-06T10:12:30.825Z</time></trkpt><trkpt lat="49.5312581" lon="15.3261003"><ele>581.3333333333333</ele><time>2026-04-06T10:12:31.825Z</time></trkpt><trkpt lat="49.5311747" lon="15.325896"><ele>581.0</ele><time>2026-04-06T10:12:32.825Z</time></trkpt><trkpt lat="49.5310931" lon="15.3256977"><ele>581.5</ele><time>2026-04-06T10:12:33.825Z</time></trkpt><trkpt lat="49.5310103" lon="15.325492"><ele>582.0</ele><time>2026-04-06T10:12:34.825Z</time></trkpt><trkpt lat="49.5309506" lon="15.3252967"><ele>582.5</ele><time>2026-04-06T10:12:35.826Z</time></trkpt><trkpt lat="49.5308949" lon="15.3251137"><ele>583.0</ele><time>2026-04-06T10:12:36.826Z</time></trkpt><trkpt lat="49.5308392" lon="15.3249367"><ele>583.0</ele><time>2026-04-06T10:12:37.825Z</time></trkpt><trkpt lat="49.5307977" lon="15.3247989"><ele>583.0</ele><time>2026-04-06T10:12:38.826Z</time></trkpt><trkpt lat="49.5307736" lon="15.3246951"><ele>583.0</ele><time>2026-04-06T10:12:39.825Z</time></trkpt><trkpt lat="49.530784" lon="15.3245888"><ele>583.0</ele><time>2026-04-06T10:12:41.826Z</time></trkpt><trkpt lat="49.5308624" lon="15.3245042"><ele>583.0</ele><time>2026-04-06T10:12:43.826Z</time></trkpt><trkpt lat="49.5309239" lon="15.3244548"><ele>583.0</ele><time>2026-04-06T10:12:44.825Z</time></trkpt><trkpt lat="49.5309902" lon="15.3243969"><ele>583.1999999999999</ele><time>2026-04-06T10:12:45.825Z</time></trkpt><trkpt lat="49.5310474" lon="15.3243074"><ele>583.4</ele><time>2026-04-06T10:12:46.825Z</time></trkpt><trkpt lat="49.5310841" lon="15.3242196"><ele>583.5999999999999</ele><time>2026-04-06T10:12:47.825Z</time></trkpt><trkpt lat="49.5311065" lon="15.324065"><ele>583.8</ele><time>2026-04-06T10:12:49.826Z</time></trkpt><trkpt lat="49.5310802" lon="15.3238407"><ele>584.0</ele><time>2026-04-06T10:12:51.825Z</time></trkpt><trkpt lat="49.5310612" lon="15.3236961"><ele>584.0</ele><time>2026-04-06T10:12:52.826Z</time></trkpt><trkpt lat="49.5310582" lon="15.3235232"><ele>584.0</ele><time>2026-04-06T10:12:53.826Z</time></trkpt><trkpt lat="49.5310726" lon="15.3233241"><ele>584.0</ele><time>2026-04-06T10:12:54.826Z</time></trkpt><trkpt lat="49.5310981" lon="15.323121"><ele>584.0</ele><time>2026-04-06T10:12:55.825Z</time></trkpt><trkpt lat="49.5311199" lon="15.3229191"><ele>584.25</ele><time>2026-04-06T10:12:56.826Z</time></trkpt><trkpt lat="49.531139" lon="15.3227236"><ele>584.5</ele><time>2026-04-06T10:12:57.825Z</time></trkpt><trkpt lat="49.531156" lon="15.322544"><ele>584.75</ele><time>2026-04-06T10:12:58.825Z</time></trkpt><trkpt lat="49.5311699" lon="15.3223696"><ele>585.0</ele><time>2026-04-06T10:12:59.825Z</time></trkpt><trkpt lat="49.5311758" lon="15.3221924"><ele>585.2</ele><time>2026-04-06T10:13:00.825Z</time></trkpt><trkpt lat="49.5311647" lon="15.322038"><ele>585.4</ele><time>2026-04-06T10:13:01.826Z</time></trkpt><trkpt lat="49.5311591" lon="15.3218963"><ele>585.6</ele><time>2026-04-06T10:13:02.826Z</time></trkpt><trkpt lat="49.5311646" lon="15.3217454"><ele>585.8</ele><time>2026-04-06T10:13:03.826Z</time></trkpt><trkpt lat="49.5311599" lon="15.3215778"><ele>586.0</ele><time>2026-04-06T10:13:04.826Z</time></trkpt><trkpt lat="49.5311599" lon="15.3214141"><ele>586.2</ele><time>2026-04-06T10:13:05.825Z</time></trkpt><trkpt lat="49.5311757" lon="15.3212599"><ele>586.4000000000001</ele><time>2026-04-06T10:13:06.825Z</time></trkpt><trkpt lat="49.5312095" lon="15.3211017"><ele>586.6</ele><time>2026-04-06T10:13:07.826Z</time></trkpt><trkpt lat="49.5312383" lon="15.3209649"><ele>586.8000000000001</ele><time>2026-04-06T10:13:08.825Z</time></trkpt><trkpt lat="49.531273" lon="15.3208344"><ele>587.0</ele><time>2026-04-06T10:13:09.825Z</time></trkpt><trkpt lat="49.5313012" lon="15.3207236"><ele>587.25</ele><time>2026-04-06T10:13:10.826Z</time></trkpt><trkpt lat="49.5313677" lon="15.3206484"><ele>587.5</ele><time>2026-04-06T10:13:12.825Z</time></trkpt><trkpt lat="49.5314859" lon="15.3207165"><ele>587.75</ele><time>2026-04-06T10:13:14.826Z</time></trkpt><trkpt lat="49.5315959" lon="15.3207801"><ele>588.0</ele><time>2026-04-06T10:13:15.825Z</time></trkpt><trkpt lat="49.5317211" lon="15.3208429"><ele>588.0</ele><time>2026-04-06T10:13:16.826Z</time></trkpt><trkpt lat="49.5318614" lon="15.3209039"><ele>588.0</ele><time>2026-04-06T10:13:17.825Z</time></trkpt><trkpt lat="49.5320139" lon="15.3209638"><ele>588.0</ele><time>2026-04-06T10:13:18.825Z</time></trkpt><trkpt lat="49.5321709" lon="15.3210327"><ele>587.6666666666666</ele><time>2026-04-06T10:13:19.825Z</time></trkpt><trkpt lat="49.5323379" lon="15.3210972"><ele>587.3333333333333</ele><time>2026-04-06T10:13:20.825Z</time></trkpt><trkpt lat="49.5325141" lon="15.3211521"><ele>587.0</ele><time>2026-04-06T10:13:21.825Z</time></trkpt><trkpt lat="49.5327063" lon="15.3212043"><ele>586.6666666666666</ele><time>2026-04-06T10:13:22.826Z</time></trkpt><trkpt lat="49.5329049" lon="15.3212454"><ele>586.3333333333334</ele><time>2026-04-06T10:13:23.826Z</time></trkpt><trkpt lat="49.533102" lon="15.3212501"><ele>586.0</ele><time>2026-04-06T10:13:24.825Z</time></trkpt><trkpt lat="49.5332971" lon="15.3212098"><ele>586.0</ele><time>2026-04-06T10:13:25.825Z</time></trkpt><trkpt lat="49.5335002" lon="15.3211398"><ele>586.0</ele><time>2026-04-06T10:13:26.826Z</time></trkpt><trkpt lat="49.5337006" lon="15.3210516"><ele>586.0</ele><time>2026-04-06T10:13:27.826Z</time></trkpt><trkpt lat="49.5339056" lon="15.3209557"><ele>586.6666666666667</ele><time>2026-04-06T10:13:28.826Z</time></trkpt><trkpt lat="49.5341159" lon="15.3208603"><ele>587.3333333333334</ele><time>2026-04-06T10:13:29.826Z</time></trkpt><trkpt lat="49.5343229" lon="15.320766"><ele>588.0</ele><time>2026-04-06T10:13:30.825Z</time></trkpt><trkpt lat="49.5345241" lon="15.3206703"><ele>588.6666666666666</ele><time>2026-04-06T10:13:31.825Z</time></trkpt><trkpt lat="49.5347287" lon="15.3205693"><ele>589.3333333333333</ele><time>2026-04-06T10:13:32.825Z</time></trkpt><trkpt lat="49.5349305" lon="15.3204712"><ele>590.0</ele><time>2026-04-06T10:13:33.826Z</time></trkpt><trkpt lat="49.5351307" lon="15.3203818"><ele>589.6666666666666</ele><time>2026-04-06T10:13:34.825Z</time></trkpt><trkpt lat="49.5353343" lon="15.3202971"><ele>589.3333333333334</ele><time>2026-04-06T10:13:35.825Z</time></trkpt><trkpt lat="49.5355384" lon="15.3202113"><ele>589.0</ele><time>2026-04-06T10:13:36.825Z</time></trkpt><trkpt lat="49.5357481" lon="15.3201188"><ele>589.0</ele><time>2026-04-06T10:13:37.826Z</time></trkpt><trkpt lat="49.5359537" lon="15.3200254"><ele>589.0</ele><time>2026-04-06T10:13:38.826Z</time></trkpt><trkpt lat="49.536156" lon="15.3199365"><ele>589.0</ele><time>2026-04-06T10:13:39.825Z</time></trkpt><trkpt lat="49.5363494" lon="15.3198633"><ele>589.3333333333334</ele><time>2026-04-06T10:13:40.826Z</time></trkpt><trkpt lat="49.5365529" lon="15.3198177"><ele>589.6666666666666</ele><time>2026-04-06T10:13:41.826Z</time></trkpt><trkpt lat="49.5367631" lon="15.3198041"><ele>590.0</ele><time>2026-04-06T10:13:42.826Z</time></trkpt><trkpt lat="49.5369889" lon="15.3198216"><ele>588.0</ele><time>2026-04-06T10:13:43.826Z</time></trkpt><trkpt lat="49.537222" lon="15.3198509"><ele>586.0</ele><time>2026-04-06T10:13:44.825Z</time></trkpt><trkpt lat="49.5374599" lon="15.3198983"><ele>586.0</ele><time>2026-04-06T10:13:45.825Z</time></trkpt><trkpt lat="49.537678" lon="15.3199427"><ele>586.0</ele><time>2026-04-06T10:13:46.825Z</time></trkpt><trkpt lat="49.5378835" lon="15.3199817"><ele>586.0</ele><time>2026-04-06T10:13:47.826Z</time></trkpt><trkpt lat="49.5380796" lon="15.3200164"><ele>585.6666666666667</ele><time>2026-04-06T10:13:48.826Z</time></trkpt><trkpt lat="49.5382591" lon="15.320036"><ele>585.3333333333334</ele><time>2026-04-06T10:13:49.826Z</time></trkpt><trkpt lat="49.538415" lon="15.3200678"><ele>585.0</ele><time>2026-04-06T10:13:50.825Z</time></trkpt><trkpt lat="49.5385466" lon="15.3200944"><ele>585.0</ele><time>2026-04-06T10:13:51.825Z</time></trkpt><trkpt lat="49.5386254" lon="15.320098"><ele>585.0</ele><time>2026-04-06T10:13:52.825Z</time></trkpt><trkpt lat="49.538704" lon="15.3200633"><ele>585.0</ele><time>2026-04-06T10:13:54.826Z</time></trkpt><trkpt lat="49.5387864" lon="15.3199684"><ele>585.0</ele><time>2026-04-06T10:13:56.826Z</time></trkpt><trkpt lat="49.5388426" lon="15.3199042"><ele>585.0</ele><time>2026-04-06T10:13:57.825Z</time></trkpt><trkpt lat="49.5389042" lon="15.3198373"><ele>585.0</ele><time>2026-04-06T10:13:58.826Z</time></trkpt><trkpt lat="49.5389837" lon="15.3197525"><ele>584.4</ele><time>2026-04-06T10:13:59.825Z</time></trkpt><trkpt lat="49.5390554" lon="15.3196617"><ele>583.8</ele><time>2026-04-06T10:14:00.826Z</time></trkpt><trkpt lat="49.5391248" lon="15.3195675"><ele>583.2</ele><time>2026-04-06T10:14:01.826Z</time></trkpt><trkpt lat="49.5391917" lon="15.3194666"><ele>582.6</ele><time>2026-04-06T10:14:02.826Z</time></trkpt><trkpt lat="49.5392637" lon="15.3193768"><ele>582.0</ele><time>2026-04-06T10:14:03.825Z</time></trkpt><trkpt lat="49.5393385" lon="15.3192732"><ele>582.0</ele><time>2026-04-06T10:14:04.826Z</time></trkpt><trkpt lat="49.5394195" lon="15.3191641"><ele>582.0</ele><time>2026-04-06T10:14:05.825Z</time></trkpt><trkpt lat="49.5394997" lon="15.3190573"><ele>582.0</ele><time>2026-04-06T10:14:06.826Z</time></trkpt><trkpt lat="49.5395676" lon="15.3189505"><ele>582.0</ele><time>2026-04-06T10:14:07.826Z</time></trkpt><trkpt lat="49.5396227" lon="15.3188597"><ele>582.0</ele><time>2026-04-06T10:14:08.825Z</time></trkpt><trkpt lat="49.5396877" lon="15.3187898"><ele>583.1428571428571</ele><time>2026-04-06T10:14:09.825Z</time></trkpt><trkpt lat="49.5397599" lon="15.318732"><ele>584.2857142857142</ele><time>2026-04-06T10:14:10.826Z</time></trkpt><trkpt lat="49.5398281" lon="15.3186861"><ele>585.4285714285714</ele><time>2026-04-06T10:14:11.825Z</time></trkpt><trkpt lat="49.5398938" lon="15.3186347"><ele>586.5714285714286</ele><time>2026-04-06T10:14:12.826Z</time></trkpt><trkpt lat="49.539954" lon="15.3185552"><ele>587.7142857142858</ele><time>2026-04-06T10:14:13.826Z</time></trkpt><trkpt lat="49.5400105" lon="15.3184826"><ele>588.8571428571429</ele><time>2026-04-06T10:14:14.826Z</time></trkpt><trkpt lat="49.5400615" lon="15.3184171"><ele>590.0</ele><time>2026-04-06T10:14:15.826Z</time></trkpt><trkpt lat="49.5401827" lon="15.3184046"><ele>590.0</ele><time>2026-04-06T10:14:17.826Z</time></trkpt><trkpt lat="49.5402529" lon="15.3184294"><ele>590.0</ele><time>2026-04-06T10:14:18.826Z</time></trkpt><trkpt lat="49.5403402" lon="15.3184626"><ele>590.0</ele><time>2026-04-06T10:14:19.826Z</time></trkpt><trkpt lat="49.5404337" lon="15.3184813"><ele>590.0</ele><time>2026-04-06T10:14:20.826Z</time></trkpt><trkpt lat="49.5405318" lon="15.3184996"><ele>590.0</ele><time>2026-04-06T10:14:21.825Z</time></trkpt><trkpt lat="49.5406364" lon="15.318517"><ele>590.0</ele><time>2026-04-06T10:14:22.825Z</time></trkpt><trkpt lat="49.5407531" lon="15.3185341"><ele>590.0</ele><time>2026-04-06T10:14:23.825Z</time></trkpt><trkpt lat="49.540868" lon="15.3185449"><ele>590.0</ele><time>2026-04-06T10:14:24.825Z</time></trkpt><trkpt lat="49.5409827" lon="15.3185598"><ele>590.0</ele><time>2026-04-06T10:14:25.826Z</time></trkpt><trkpt lat="49.541092" lon="15.3185848"><ele>590.0</ele><time>2026-04-06T10:14:26.826Z</time></trkpt><trkpt lat="49.5412016" lon="15.3185987"><ele>590.0</ele><time>2026-04-06T10:14:27.826Z</time></trkpt><trkpt lat="49.5413183" lon="15.3186134"><ele>590.0</ele><time>2026-04-06T10:14:28.826Z</time></trkpt><trkpt lat="49.5414374" lon="15.3186236"><ele>590.0</ele><time>2026-04-06T10:14:29.825Z</time></trkpt><trkpt lat="49.5415545" lon="15.3186368"><ele>588.75</ele><time>2026-04-06T10:14:30.825Z</time></trkpt><trkpt lat="49.5416733" lon="15.3186527"><ele>587.5</ele><time>2026-04-06T10:14:31.826Z</time></trkpt><trkpt lat="49.5417891" lon="15.3186727"><ele>586.25</ele><time>2026-04-06T10:14:32.825Z</time></trkpt><trkpt lat="49.5419002" lon="15.3186966"><ele>585.0</ele><time>2026-04-06T10:14:33.826Z</time></trkpt><trkpt lat="49.5420072" lon="15.3187213"><ele>583.2</ele><time>2026-04-06T10:14:34.825Z</time></trkpt><trkpt lat="49.542111" lon="15.3187359"><ele>581.4</ele><time>2026-04-06T10:14:35.826Z</time></trkpt><trkpt lat="49.5422191" lon="15.3187537"><ele>579.6</ele><time>2026-04-06T10:14:36.826Z</time></trkpt><trkpt lat="49.5423208" lon="15.3187688"><ele>577.8</ele><time>2026-04-06T10:14:37.825Z</time></trkpt><trkpt lat="49.5424263" lon="15.3187969"><ele>576.0</ele><time>2026-04-06T10:14:38.825Z</time></trkpt><trkpt lat="49.5425354" lon="15.3188429"><ele>576.5</ele><time>2026-04-06T10:14:39.825Z</time></trkpt><trkpt lat="49.5426623" lon="15.3189055"><ele>577.0</ele><time>2026-04-06T10:14:40.826Z</time></trkpt><trkpt lat="49.5428008" lon="15.3189527"><ele>577.5</ele><time>2026-04-06T10:14:41.826Z</time></trkpt><trkpt lat="49.5429334" lon="15.3190008"><ele>578.0</ele><time>2026-04-06T10:14:42.826Z</time></trkpt><trkpt lat="49.5430675" lon="15.3190469"><ele>578.0</ele><time>2026-04-06T10:14:43.826Z</time></trkpt><trkpt lat="49.5431983" lon="15.3190602"><ele>578.0</ele><time>2026-04-06T10:14:44.825Z</time></trkpt><trkpt lat="49.543349" lon="15.3190534"><ele>578.0</ele><time>2026-04-06T10:14:45.826Z</time></trkpt><trkpt lat="49.5435135" lon="15.3190231"><ele>578.0</ele><time>2026-04-06T10:14:46.825Z</time></trkpt><trkpt lat="49.5436839" lon="15.3189753"><ele>574.3333333333333</ele><time>2026-04-06T10:14:47.826Z</time></trkpt><trkpt lat="49.5438572" lon="15.3189126"><ele>570.6666666666666</ele><time>2026-04-06T10:14:48.825Z</time></trkpt><trkpt lat="49.5440222" lon="15.3188422"><ele>567.0</ele><time>2026-04-06T10:14:49.825Z</time></trkpt><trkpt lat="49.5441947" lon="15.3188016"><ele>565.3333333333334</ele><time>2026-04-06T10:14:50.825Z</time></trkpt><trkpt lat="49.5443755" lon="15.3187713"><ele>563.6666666666667</ele><time>2026-04-06T10:14:51.826Z</time></trkpt><trkpt lat="49.5445684" lon="15.3187413"><ele>562.0</ele><time>2026-04-06T10:14:52.826Z</time></trkpt><trkpt lat="49.5447622" lon="15.3187147"><ele>562.0</ele><time>2026-04-06T10:14:53.826Z</time></trkpt><trkpt lat="49.5449563" lon="15.3186874"><ele>562.0</ele><time>2026-04-06T10:14:54.826Z</time></trkpt><trkpt lat="49.5451452" lon="15.3186644"><ele>562.0</ele><time>2026-04-06T10:14:55.825Z</time></trkpt><trkpt lat="49.5453419" lon="15.3186458"><ele>562.0</ele><time>2026-04-06T10:14:56.826Z</time></trkpt><trkpt lat="49.5455394" lon="15.318626"><ele>562.0</ele><time>2026-04-06T10:14:57.825Z</time></trkpt><trkpt lat="49.5457535" lon="15.3186041"><ele>562.0</ele><time>2026-04-06T10:14:58.825Z</time></trkpt><trkpt lat="49.5459668" lon="15.3185621"><ele>562.0</ele><time>2026-04-06T10:14:59.826Z</time></trkpt><trkpt lat="49.5461562" lon="15.3185254"><ele>562.0</ele><time>2026-04-06T10:15:00.825Z</time></trkpt><trkpt lat="49.5463228" lon="15.318502"><ele>562.0</ele><time>2026-04-06T10:15:01.825Z</time></trkpt><trkpt lat="49.5464744" lon="15.3184821"><ele>562.75</ele><time>2026-04-06T10:15:02.825Z</time></trkpt><trkpt lat="49.5466084" lon="15.3184678"><ele>563.5</ele><time>2026-04-06T10:15:03.825Z</time></trkpt><trkpt lat="49.5467301" lon="15.3184573"><ele>564.25</ele><time>2026-04-06T10:15:04.825Z</time></trkpt><trkpt lat="49.5468573" lon="15.3184652"><ele>565.0</ele><time>2026-04-06T10:15:05.825Z</time></trkpt><trkpt lat="49.5469829" lon="15.3184691"><ele>565.5</ele><time>2026-04-06T10:15:06.826Z</time></trkpt><trkpt lat="49.5471094" lon="15.3184683"><ele>566.0</ele><time>2026-04-06T10:15:07.826Z</time></trkpt><trkpt lat="49.5472434" lon="15.3184595"><ele>566.5</ele><time>2026-04-06T10:15:08.825Z</time></trkpt><trkpt lat="49.5473718" lon="15.3184325"><ele>567.0</ele><time>2026-04-06T10:15:09.826Z</time></trkpt><trkpt lat="49.5474989" lon="15.3184122"><ele>567.0</ele><time>2026-04-06T10:15:10.826Z</time></trkpt><trkpt lat="49.5476225" lon="15.3183856"><ele>567.0</ele><time>2026-04-06T10:15:11.825Z</time></trkpt><trkpt lat="49.5477453" lon="15.3183652"><ele>567.0</ele><time>2026-04-06T10:15:12.825Z</time></trkpt><trkpt lat="49.5478678" lon="15.3183535"><ele>567.0</ele><time>2026-04-06T10:15:13.825Z</time></trkpt><trkpt lat="49.5479874" lon="15.3183387"><ele>567.5</ele><time>2026-04-06T10:15:14.825Z</time></trkpt><trkpt lat="49.5481137" lon="15.3183246"><ele>568.0</ele><time>2026-04-06T10:15:15.825Z</time></trkpt><trkpt lat="49.5482298" lon="15.3183049"><ele>568.5</ele><time>2026-04-06T10:15:16.825Z</time></trkpt><trkpt lat="49.5483487" lon="15.3182989"><ele>569.0</ele><time>2026-04-06T10:15:17.826Z</time></trkpt><trkpt lat="49.5484646" lon="15.3182835"><ele>569.0</ele><time>2026-04-06T10:15:18.826Z</time></trkpt><trkpt lat="49.5485868" lon="15.318267"><ele>569.0</ele><time>2026-04-06T10:15:19.825Z</time></trkpt><trkpt lat="49.5487014" lon="15.3182493"><ele>569.0</ele><time>2026-04-06T10:15:20.826Z</time></trkpt><trkpt lat="49.5488156" lon="15.3182326"><ele>569.0</ele><time>2026-04-06T10:15:21.825Z</time></trkpt><trkpt lat="49.5489279" lon="15.3182145"><ele>569.6</ele><time>2026-04-06T10:15:22.826Z</time></trkpt><trkpt lat="49.5490424" lon="15.3182075"><ele>570.2</ele><time>2026-04-06T10:15:23.825Z</time></trkpt><trkpt lat="49.5491527" lon="15.3181896"><ele>570.8000000000001</ele><time>2026-04-06T10:15:24.825Z</time></trkpt><trkpt lat="49.5492636" lon="15.3181772"><ele>571.4</ele><time>2026-04-06T10:15:25.825Z</time></trkpt><trkpt lat="49.5493752" lon="15.3181646"><ele>572.0</ele><time>2026-04-06T10:15:26.825Z</time></trkpt><trkpt lat="49.5494848" lon="15.3181569"><ele>572.2</ele><time>2026-04-06T10:15:27.825Z</time></trkpt><trkpt lat="49.5495955" lon="15.3181425"><ele>572.4000000000001</ele><time>2026-04-06T10:15:28.826Z</time></trkpt><trkpt lat="49.5497045" lon="15.3181221"><ele>572.5999999999999</ele><time>2026-04-06T10:15:29.826Z</time></trkpt><trkpt lat="49.549813" lon="15.3181035"><ele>572.8</ele><time>2026-04-06T10:15:30.826Z</time></trkpt><trkpt lat="49.5499167" lon="15.3180871"><ele>573.0</ele><time>2026-04-06T10:15:31.825Z</time></trkpt><trkpt lat="49.5500246" lon="15.3180789"><ele>573.0</ele><time>2026-04-06T10:15:32.826Z</time></trkpt><trkpt lat="49.5501368" lon="15.3180698"><ele>573.0</ele><time>2026-04-06T10:15:33.826Z</time></trkpt><trkpt lat="49.5502493" lon="15.3180601"><ele>573.0</ele><time>2026-04-06T10:15:34.826Z</time></trkpt><trkpt lat="49.5503652" lon="15.3180441"><ele>573.0</ele><time>2026-04-06T10:15:35.826Z</time></trkpt><trkpt lat="49.5504769" lon="15.3180263"><ele>573.1999999999999</ele><time>2026-04-06T10:15:36.826Z</time></trkpt><trkpt lat="49.550589" lon="15.3180063"><ele>573.4</ele><time>2026-04-06T10:15:37.826Z</time></trkpt><trkpt lat="49.5507081" lon="15.3179883"><ele>573.5999999999999</ele><time>2026-04-06T10:15:38.825Z</time></trkpt><trkpt lat="49.550814" lon="15.3179692"><ele>573.8</ele><time>2026-04-06T10:15:39.825Z</time></trkpt><trkpt lat="49.5509107" lon="15.3179781"><ele>574.0</ele><time>2026-04-06T10:15:40.825Z</time></trkpt><trkpt lat="49.550999" lon="15.3179893"><ele>574.0</ele><time>2026-04-06T10:15:41.826Z</time></trkpt><trkpt lat="49.5510832" lon="15.3179888"><ele>574.0</ele><time>2026-04-06T10:15:42.826Z</time></trkpt><trkpt lat="49.5511641" lon="15.3179854"><ele>574.0</ele><time>2026-04-06T10:15:43.825Z</time></trkpt><trkpt lat="49.5512471" lon="15.317969"><ele>574.0</ele><time>2026-04-06T10:15:44.825Z</time></trkpt><trkpt lat="49.5513177" lon="15.3179751"><ele>574.0</ele><time>2026-04-06T10:15:45.825Z</time></trkpt><trkpt lat="49.5513829" lon="15.3179676"><ele>574.0</ele><time>2026-04-06T10:15:46.825Z</time></trkpt><trkpt lat="49.5514775" lon="15.3178409"><ele>573.6666666666667</ele><time>2026-04-06T10:15:48.826Z</time></trkpt><trkpt lat="49.5515098" lon="15.3177361"><ele>573.3333333333334</ele><time>2026-04-06T10:15:49.826Z</time></trkpt><trkpt lat="49.5515419" lon="15.3176136"><ele>573.0</ele><time>2026-04-06T10:15:50.826Z</time></trkpt><trkpt lat="49.551584" lon="15.3175043"><ele>572.6666666666666</ele><time>2026-04-06T10:15:51.826Z</time></trkpt><trkpt lat="49.5516296" lon="15.3173831"><ele>572.3333333333333</ele><time>2026-04-06T10:15:52.825Z</time></trkpt><trkpt lat="49.5516753" lon="15.3172752"><ele>572.0</ele><time>2026-04-06T10:15:53.826Z</time></trkpt><trkpt lat="49.5517214" lon="15.3171787"><ele>571.8333333333333</ele><time>2026-04-06T10:15:54.826Z</time></trkpt><trkpt lat="49.551757" lon="15.3170903"><ele>571.6666666666666</ele><time>2026-04-06T10:15:55.826Z</time></trkpt><trkpt lat="49.5518101" lon="15.3169298"><ele>571.5</ele><time>2026-04-06T10:15:57.826Z</time></trkpt><trkpt lat="49.5518569" lon="15.3168286"><ele>571.3333333333334</ele><time>2026-04-06T10:15:59.826Z</time></trkpt><trkpt lat="49.5519532" lon="15.3168596"><ele>571.1666666666667</ele><time>2026-04-06T10:16:01.825Z</time></trkpt><trkpt lat="49.5520056" lon="15.316935"><ele>571.0</ele><time>2026-04-06T10:16:02.826Z</time></trkpt><trkpt lat="49.5520655" lon="15.3169843"><ele>570.8333333333334</ele><time>2026-04-06T10:16:03.825Z</time></trkpt><trkpt lat="49.5521358" lon="15.3170446"><ele>570.6666666666667</ele><time>2026-04-06T10:16:04.825Z</time></trkpt><trkpt lat="49.5522078" lon="15.3170915"><ele>570.5</ele><time>2026-04-06T10:16:05.826Z</time></trkpt><trkpt lat="49.5522853" lon="15.3171302"><ele>570.3333333333334</ele><time>2026-04-06T10:16:06.826Z</time></trkpt><trkpt lat="49.5523817" lon="15.3171675"><ele>570.1666666666666</ele><time>2026-04-06T10:16:07.826Z</time></trkpt><trkpt lat="49.5524806" lon="15.3172043"><ele>570.0</ele><time>2026-04-06T10:16:08.825Z</time></trkpt><trkpt lat="49.5525695" lon="15.3172325"><ele>570.0</ele><time>2026-04-06T10:16:09.826Z</time></trkpt><trkpt lat="49.5526468" lon="15.3172586"><ele>570.0</ele><time>2026-04-06T10:16:10.825Z</time></trkpt><trkpt lat="49.552718" lon="15.3172665"><ele>570.0</ele><time>2026-04-06T10:16:11.826Z</time></trkpt><trkpt lat="49.5527874" lon="15.3172652"><ele>570.0</ele><time>2026-04-06T10:16:12.826Z</time></trkpt><trkpt lat="49.5528483" lon="15.3172234"><ele>570.0</ele><time>2026-04-06T10:16:13.826Z</time></trkpt><trkpt lat="49.552893" lon="15.3171321"><ele>570.0</ele><time>2026-04-06T10:16:14.826Z</time></trkpt><trkpt lat="49.5529195" lon="15.317018"><ele>570.0</ele><time>2026-04-06T10:16:15.825Z</time></trkpt><trkpt lat="49.5529483" lon="15.3169055"><ele>570.0</ele><time>2026-04-06T10:16:16.826Z</time></trkpt><trkpt lat="49.5529757" lon="15.3167858"><ele>570.0</ele><time>2026-04-06T10:16:17.826Z</time></trkpt><trkpt lat="49.553" lon="15.3166594"><ele>570.0</ele><time>2026-04-06T10:16:18.825Z</time></trkpt><trkpt lat="49.5530248" lon="15.3165304"><ele>570.0</ele><time>2026-04-06T10:16:19.825Z</time></trkpt><trkpt lat="49.5530516" lon="15.3164026"><ele>570.0</ele><time>2026-04-06T10:16:20.825Z</time></trkpt><trkpt lat="49.5530815" lon="15.3162784"><ele>570.0</ele><time>2026-04-06T10:16:21.825Z</time></trkpt><trkpt lat="49.5531219" lon="15.3161486"><ele>570.0</ele><time>2026-04-06T10:16:22.825Z</time></trkpt><trkpt lat="49.5531511" lon="15.3160014"><ele>570.0</ele><time>2026-04-06T10:16:23.825Z</time></trkpt><trkpt lat="49.553177" lon="15.3158672"><ele>570.0</ele><time>2026-04-06T10:16:24.826Z</time></trkpt><trkpt lat="49.5532026" lon="15.3157507"><ele>570.0</ele><time>2026-04-06T10:16:25.825Z</time></trkpt><trkpt lat="49.5532178" lon="15.3156446"><ele>570.0</ele><time>2026-04-06T10:16:26.826Z</time></trkpt><trkpt lat="49.553244" lon="15.3155457"><ele>570.0</ele><time>2026-04-06T10:16:27.825Z</time></trkpt><trkpt lat="49.5532654" lon="15.3154453"><ele>570.0</ele><time>2026-04-06T10:16:28.825Z</time></trkpt><trkpt lat="49.5532869" lon="15.3153521"><ele>570.0</ele><time>2026-04-06T10:16:29.825Z</time></trkpt><trkpt lat="49.553337" lon="15.3152277"><ele>570.0</ele><time>2026-04-06T10:16:31.826Z</time></trkpt><trkpt lat="49.5534061" lon="15.3150936"><ele>570.0</ele><time>2026-04-06T10:16:33.825Z</time></trkpt><trkpt lat="49.5534759" lon="15.3149087"><ele>570.0</ele><time>2026-04-06T10:16:35.826Z</time></trkpt><trkpt lat="49.5535456" lon="15.314834"><ele>570.0</ele><time>2026-04-06T10:16:36.826Z</time></trkpt><trkpt lat="49.5536368" lon="15.3147497"><ele>570.0</ele><time>2026-04-06T10:16:37.825Z</time></trkpt><trkpt lat="49.5537364" lon="15.3146596"><ele>570.0</ele><time>2026-04-06T10:16:38.826Z</time></trkpt><trkpt lat="49.5538434" lon="15.3145508"><ele>570.0</ele><time>2026-04-06T10:16:39.826Z</time></trkpt><trkpt lat="49.5539383" lon="15.3144373"><ele>569.75</ele><time>2026-04-06T10:16:40.825Z</time></trkpt><trkpt lat="49.5540366" lon="15.3143133"><ele>569.5</ele><time>2026-04-06T10:16:41.825Z</time></trkpt><trkpt lat="49.5541397" lon="15.3142121"><ele>569.25</ele><time>2026-04-06T10:16:42.825Z</time></trkpt><trkpt lat="49.5542606" lon="15.3140684"><ele>569.0</ele><time>2026-04-06T10:16:43.825Z</time></trkpt><trkpt lat="49.5543958" lon="15.3139304"><ele>568.6666666666666</ele><time>2026-04-06T10:16:44.826Z</time></trkpt><trkpt lat="49.5545265" lon="15.3138034"><ele>568.3333333333334</ele><time>2026-04-06T10:16:45.825Z</time></trkpt><trkpt lat="49.5546572" lon="15.3136649"><ele>568.0</ele><time>2026-04-06T10:16:46.826Z</time></trkpt><trkpt lat="49.5547914" lon="15.3135242"><ele>568.0</ele><time>2026-04-06T10:16:47.826Z</time></trkpt><trkpt lat="49.5549255" lon="15.3133805"><ele>568.0</ele><time>2026-04-06T10:16:48.826Z</time></trkpt><trkpt lat="49.5550594" lon="15.3132369"><ele>568.0</ele><time>2026-04-06T10:16:49.826Z</time></trkpt><trkpt lat="49.5551941" lon="15.3130905"><ele>568.0</ele><time>2026-04-06T10:16:50.826Z</time></trkpt><trkpt lat="49.5553323" lon="15.3129475"><ele>568.0</ele><time>2026-04-06T10:16:51.825Z</time></trkpt><trkpt lat="49.5554815" lon="15.3127837"><ele>568.0</ele><time>2026-04-06T10:16:52.826Z</time></trkpt><trkpt lat="49.5556292" lon="15.3126255"><ele>568.0</ele><time>2026-04-06T10:16:53.825Z</time></trkpt><trkpt lat="49.5557766" lon="15.312473"><ele>568.0</ele><time>2026-04-06T10:16:54.825Z</time></trkpt><trkpt lat="49.5559247" lon="15.3123232"><ele>568.0</ele><time>2026-04-06T10:16:55.825Z</time></trkpt><trkpt lat="49.5560727" lon="15.3121724"><ele>567.3333333333334</ele><time>2026-04-06T10:16:56.825Z</time></trkpt><trkpt lat="49.556216" lon="15.3120227"><ele>566.6666666666666</ele><time>2026-04-06T10:16:57.825Z</time></trkpt><trkpt lat="49.5563509" lon="15.3118778"><ele>566.0</ele><time>2026-04-06T10:16:58.826Z</time></trkpt><trkpt lat="49.5564699" lon="15.3117478"><ele>566.0</ele><time>2026-04-06T10:16:59.825Z</time></trkpt><trkpt lat="49.5565792" lon="15.3116244"><ele>566.0</ele><time>2026-04-06T10:17:00.825Z</time></trkpt><trkpt lat="49.5566799" lon="15.3115022"><ele>566.0</ele><time>2026-04-06T10:17:01.825Z</time></trkpt><trkpt lat="49.5567639" lon="15.3113608"><ele>566.0</ele><time>2026-04-06T10:17:02.825Z</time></trkpt><trkpt lat="49.5568284" lon="15.311192"><ele>566.5</ele><time>2026-04-06T10:17:03.825Z</time></trkpt><trkpt lat="49.5568916" lon="15.3110207"><ele>567.0</ele><time>2026-04-06T10:17:04.825Z</time></trkpt><trkpt lat="49.5569552" lon="15.3108308"><ele>567.5</ele><time>2026-04-06T10:17:05.825Z</time></trkpt><trkpt lat="49.5570216" lon="15.3106421"><ele>568.0</ele><time>2026-04-06T10:17:06.825Z</time></trkpt><trkpt lat="49.5570974" lon="15.3104541"><ele>568.3333333333334</ele><time>2026-04-06T10:17:07.825Z</time></trkpt><trkpt lat="49.5571787" lon="15.3102482"><ele>568.6666666666666</ele><time>2026-04-06T10:17:08.825Z</time></trkpt><trkpt lat="49.5572679" lon="15.3100201"><ele>569.0</ele><time>2026-04-06T10:17:09.826Z</time></trkpt><trkpt lat="49.5573739" lon="15.3097745"><ele>570.0</ele><time>2026-04-06T10:17:10.825Z</time></trkpt><trkpt lat="49.5574834" lon="15.3095166"><ele>571.0</ele><time>2026-04-06T10:17:11.826Z</time></trkpt><trkpt lat="49.5575816" lon="15.3092633"><ele>572.0</ele><time>2026-04-06T10:17:12.825Z</time></trkpt><trkpt lat="49.5576707" lon="15.3090181"><ele>573.0</ele><time>2026-04-06T10:17:13.825Z</time></trkpt><trkpt lat="49.5577637" lon="15.3087842"><ele>574.0</ele><time>2026-04-06T10:17:14.825Z</time></trkpt><trkpt lat="49.5578497" lon="15.3085568"><ele>575.0</ele><time>2026-04-06T10:17:15.825Z</time></trkpt><trkpt lat="49.5579341" lon="15.3083343"><ele>575.3333333333333</ele><time>2026-04-06T10:17:16.826Z</time></trkpt><trkpt lat="49.5580137" lon="15.3081047"><ele>575.6666666666666</ele><time>2026-04-06T10:17:17.825Z</time></trkpt><trkpt lat="49.5580892" lon="15.3078675"><ele>576.0</ele><time>2026-04-06T10:17:18.825Z</time></trkpt><trkpt lat="49.5581713" lon="15.3076243"><ele>576.6666666666666</ele><time>2026-04-06T10:17:19.825Z</time></trkpt><trkpt lat="49.5582462" lon="15.307378"><ele>577.3333333333333</ele><time>2026-04-06T10:17:20.826Z</time></trkpt><trkpt lat="49.558307" lon="15.3071365"><ele>578.0</ele><time>2026-04-06T10:17:21.826Z</time></trkpt><trkpt lat="49.5583597" lon="15.3068867"><ele>578.0</ele><time>2026-04-06T10:17:22.825Z</time></trkpt><trkpt lat="49.5584101" lon="15.3066201"><ele>578.0</ele><time>2026-04-06T10:17:23.825Z</time></trkpt><trkpt lat="49.5584561" lon="15.3063495"><ele>578.0</ele><time>2026-04-06T10:17:24.825Z</time></trkpt><trkpt lat="49.5584972" lon="15.3060857"><ele>578.0</ele><time>2026-04-06T10:17:25.825Z</time></trkpt><trkpt lat="49.5585347" lon="15.3058321"><ele>578.0</ele><time>2026-04-06T10:17:26.826Z</time></trkpt><trkpt lat="49.5585678" lon="15.3056007"><ele>578.0</ele><time>2026-04-06T10:17:27.825Z</time></trkpt><trkpt lat="49.5585873" lon="15.3053787"><ele>578.5</ele><time>2026-04-06T10:17:28.826Z</time></trkpt><trkpt lat="49.558598" lon="15.3051608"><ele>579.0</ele><time>2026-04-06T10:17:29.826Z</time></trkpt><trkpt lat="49.5585925" lon="15.3049536"><ele>579.5</ele><time>2026-04-06T10:17:30.825Z</time></trkpt><trkpt lat="49.5585694" lon="15.3047915"><ele>580.0</ele><time>2026-04-06T10:17:31.825Z</time></trkpt><trkpt lat="49.5585339" lon="15.3046846"><ele>581.2</ele><time>2026-04-06T10:17:32.825Z</time></trkpt><trkpt lat="49.5584756" lon="15.3045425"><ele>582.4</ele><time>2026-04-06T10:17:34.826Z</time></trkpt><trkpt lat="49.5584394" lon="15.3044569"><ele>583.6</ele><time>2026-04-06T10:17:36.826Z</time></trkpt><trkpt lat="49.5583875" lon="15.3043281"><ele>584.8</ele><time>2026-04-06T10:17:45.825Z</time></trkpt><trkpt lat="49.5583432" lon="15.304221"><ele>586.0</ele><time>2026-04-06T10:17:47.826Z</time></trkpt><trkpt lat="49.5583007" lon="15.3040671"><ele>586.0</ele><time>2026-04-06T10:17:49.825Z</time></trkpt><trkpt lat="49.5582664" lon="15.3039184"><ele>586.0</ele><time>2026-04-06T10:17:51.825Z</time></trkpt><trkpt lat="49.5582405" lon="15.3037678"><ele>586.0</ele><time>2026-04-06T10:17:53.826Z</time></trkpt><trkpt lat="49.5582338" lon="15.3036268"><ele>586.0</ele><time>2026-04-06T10:17:55.826Z</time></trkpt><trkpt lat="49.5582372" lon="15.3034755"><ele>586.0</ele><time>2026-04-06T10:17:57.826Z</time></trkpt><trkpt lat="49.5582322" lon="15.3032934"><ele>586.2</ele><time>2026-04-06T10:17:59.826Z</time></trkpt><trkpt lat="49.5582133" lon="15.303117"><ele>586.4000000000001</ele><time>2026-04-06T10:18:01.825Z</time></trkpt><trkpt lat="49.5582127" lon="15.3029382"><ele>586.6</ele><time>2026-04-06T10:18:03.825Z</time></trkpt><trkpt lat="49.558222" lon="15.3027366"><ele>586.8000000000001</ele><time>2026-04-06T10:18:05.826Z</time></trkpt><trkpt lat="49.5582179" lon="15.3026222"><ele>587.0</ele><time>2026-04-06T10:18:06.826Z</time></trkpt><trkpt lat="49.5582182" lon="15.3024521"><ele>586.3333333333333</ele><time>2026-04-06T10:18:08.826Z</time></trkpt><trkpt lat="49.5582244" lon="15.3022947"><ele>585.6666666666666</ele><time>2026-04-06T10:18:10.825Z</time></trkpt><trkpt lat="49.5582207" lon="15.3021567"><ele>585.0</ele><time>2026-04-06T10:18:12.825Z</time></trkpt><trkpt lat="49.5582103" lon="15.3020346"><ele>584.3333333333334</ele><time>2026-04-06T10:18:14.832Z</time></trkpt><trkpt lat="49.5582082" lon="15.3019313"><ele>583.6666666666667</ele><time>2026-04-06T10:18:16.833Z</time></trkpt><trkpt lat="49.5582055" lon="15.3018332"><ele>583.0</ele><time>2026-04-06T10:18:18.833Z</time></trkpt><trkpt lat="49.5581964" lon="15.3017186"><ele>582.8</ele><time>2026-04-06T10:18:21.832Z</time></trkpt><trkpt lat="49.5581754" lon="15.3015233"><ele>582.5999999999999</ele><time>2026-04-06T10:18:42.832Z</time></trkpt><trkpt lat="49.5581664" lon="15.3013888"><ele>582.4000000000001</ele><time>2026-04-06T10:18:43.832Z</time></trkpt><trkpt lat="49.5581587" lon="15.3012319"><ele>582.2</ele><time>2026-04-06T10:18:44.832Z</time></trkpt><trkpt lat="49.5581485" lon="15.3010633"><ele>582.0</ele><time>2026-04-06T10:18:45.832Z</time></trkpt><trkpt lat="49.5581438" lon="15.3008937"><ele>581.5</ele><time>2026-04-06T10:18:46.832Z</time></trkpt><trkpt lat="49.5581366" lon="15.3007213"><ele>581.0</ele><time>2026-04-06T10:18:47.832Z</time></trkpt><trkpt lat="49.5581281" lon="15.3005479"><ele>580.5</ele><time>2026-04-06T10:18:48.832Z</time></trkpt><trkpt lat="49.558123" lon="15.3003693"><ele>580.0</ele><time>2026-04-06T10:18:49.832Z</time></trkpt><trkpt lat="49.5581252" lon="15.3001936"><ele>579.75</ele><time>2026-04-06T10:18:50.832Z</time></trkpt><trkpt lat="49.5581248" lon="15.3000103"><ele>579.5</ele><time>2026-04-06T10:18:51.833Z</time></trkpt><trkpt lat="49.5581289" lon="15.2998237"><ele>579.25</ele><time>2026-04-06T10:18:52.832Z</time></trkpt><trkpt lat="49.5581354" lon="15.2996359"><ele>579.0</ele><time>2026-04-06T10:18:53.832Z</time></trkpt><trkpt lat="49.5581476" lon="15.2994566"><ele>578.75</ele><time>2026-04-06T10:18:54.832Z</time></trkpt><trkpt lat="49.5581512" lon="15.2992737"><ele>578.5</ele><time>2026-04-06T10:18:55.833Z</time></trkpt><trkpt lat="49.5581472" lon="15.2990849"><ele>578.25</ele><time>2026-04-06T10:18:56.833Z</time></trkpt><trkpt lat="49.5581422" lon="15.2988764"><ele>578.0</ele><time>2026-04-06T10:18:57.833Z</time></trkpt><trkpt lat="49.558139" lon="15.2986862"><ele>577.25</ele><time>2026-04-06T10:18:58.832Z</time></trkpt><trkpt lat="49.5581385" lon="15.2985004"><ele>576.5</ele><time>2026-04-06T10:18:59.833Z</time></trkpt><trkpt lat="49.558135" lon="15.2982949"><ele>575.75</ele><time>2026-04-06T10:19:00.833Z</time></trkpt><trkpt lat="49.5581351" lon="15.2980843"><ele>575.0</ele><time>2026-04-06T10:19:01.832Z</time></trkpt><trkpt lat="49.5581241" lon="15.2978557"><ele>574.0</ele><time>2026-04-06T10:19:02.833Z</time></trkpt><trkpt lat="49.5581006" lon="15.2976106"><ele>573.0</ele><time>2026-04-06T10:19:03.832Z</time></trkpt><trkpt lat="49.5580751" lon="15.2973579"><ele>572.0</ele><time>2026-04-06T10:19:04.833Z</time></trkpt><trkpt lat="49.5580556" lon="15.2971025"><ele>571.0</ele><time>2026-04-06T10:19:05.832Z</time></trkpt><trkpt lat="49.5580338" lon="15.2968673"><ele>570.0</ele><time>2026-04-06T10:19:06.832Z</time></trkpt><trkpt lat="49.558019" lon="15.2966608"><ele>569.0</ele><time>2026-04-06T10:19:07.833Z</time></trkpt><trkpt lat="49.5580067" lon="15.2964685"><ele>568.0</ele><time>2026-04-06T10:19:08.833Z</time></trkpt><trkpt lat="49.557989" lon="15.2962802"><ele>568.1999999999999</ele><time>2026-04-06T10:19:09.833Z</time></trkpt><trkpt lat="49.5579626" lon="15.296087"><ele>568.4</ele><time>2026-04-06T10:19:10.833Z</time></trkpt><trkpt lat="49.557953" lon="15.2959183"><ele>568.5999999999999</ele><time>2026-04-06T10:19:11.832Z</time></trkpt><trkpt lat="49.5579743" lon="15.2957863"><ele>568.8</ele><time>2026-04-06T10:19:12.833Z</time></trkpt><trkpt lat="49.5579963" lon="15.2956605"><ele>569.0</ele><time>2026-04-06T10:19:13.832Z</time></trkpt><trkpt lat="49.5580113" lon="15.2955071"><ele>569.0</ele><time>2026-04-06T10:19:14.832Z</time></trkpt><trkpt lat="49.5580289" lon="15.2953788"><ele>569.0</ele><time>2026-04-06T10:19:15.832Z</time></trkpt><trkpt lat="49.5580511" lon="15.2952662"><ele>569.0</ele><time>2026-04-06T10:19:16.832Z</time></trkpt><trkpt lat="49.5581024" lon="15.2950876"><ele>569.0</ele><time>2026-04-06T10:19:18.832Z</time></trkpt><trkpt lat="49.558138" lon="15.2949792"><ele>569.0</ele><time>2026-04-06T10:19:19.832Z</time></trkpt><trkpt lat="49.5581737" lon="15.2948701"><ele>569.0</ele><time>2026-04-06T10:19:20.833Z</time></trkpt><trkpt lat="49.558207" lon="15.2947639"><ele>569.6</ele><time>2026-04-06T10:19:21.833Z</time></trkpt><trkpt lat="49.5582407" lon="15.2946481"><ele>570.2</ele><time>2026-04-06T10:19:22.832Z</time></trkpt><trkpt lat="49.5582758" lon="15.2945181"><ele>570.8000000000001</ele><time>2026-04-06T10:19:23.833Z</time></trkpt><trkpt lat="49.5583097" lon="15.2943691"><ele>571.4</ele><time>2026-04-06T10:19:24.833Z</time></trkpt><trkpt lat="49.5583398" lon="15.2942008"><ele>572.0</ele><time>2026-04-06T10:19:25.832Z</time></trkpt><trkpt lat="49.5583651" lon="15.2940492"><ele>571.5</ele><time>2026-04-06T10:19:26.832Z</time></trkpt><trkpt lat="49.5583937" lon="15.2939189"><ele>571.0</ele><time>2026-04-06T10:19:27.832Z</time></trkpt><trkpt lat="49.558425" lon="15.2938034"><ele>570.5</ele><time>2026-04-06T10:19:28.833Z</time></trkpt><trkpt lat="49.5584535" lon="15.2936976"><ele>570.0</ele><time>2026-04-06T10:19:29.832Z</time></trkpt><trkpt lat="49.5584837" lon="15.2936039"><ele>569.5</ele><time>2026-04-06T10:19:30.832Z</time></trkpt><trkpt lat="49.5585144" lon="15.293471"><ele>569.0</ele><time>2026-04-06T10:19:32.833Z</time></trkpt><trkpt lat="49.5585729" lon="15.2934313"><ele>569.0</ele><time>2026-04-06T10:19:34.833Z</time></trkpt><trkpt lat="49.5586411" lon="15.293477"><ele>569.0</ele><time>2026-04-06T10:19:36.833Z</time></trkpt><trkpt lat="49.5587588" lon="15.2934843"><ele>569.0</ele><time>2026-04-06T10:19:38.833Z</time></trkpt><trkpt lat="49.5588323" lon="15.2934757"><ele>569.0</ele><time>2026-04-06T10:19:39.832Z</time></trkpt><trkpt lat="49.5589107" lon="15.2934535"><ele>569.0</ele><time>2026-04-06T10:19:40.833Z</time></trkpt><trkpt lat="49.5589992" lon="15.2934341"><ele>569.0</ele><time>2026-04-06T10:19:41.832Z</time></trkpt><trkpt lat="49.5590947" lon="15.2934075"><ele>569.5</ele><time>2026-04-06T10:19:42.833Z</time></trkpt><trkpt lat="49.5591909" lon="15.2933785"><ele>570.0</ele><time>2026-04-06T10:19:43.833Z</time></trkpt><trkpt lat="49.5592987" lon="15.2933453"><ele>570.5</ele><time>2026-04-06T10:19:44.833Z</time></trkpt><trkpt lat="49.5594283" lon="15.2933221"><ele>571.0</ele><time>2026-04-06T10:19:45.833Z</time></trkpt><trkpt lat="49.5595793" lon="15.2933123"><ele>569.3333333333334</ele><time>2026-04-06T10:19:46.832Z</time></trkpt><trkpt lat="49.5597385" lon="15.2933131"><ele>567.6666666666666</ele><time>2026-04-06T10:19:47.832Z</time></trkpt><trkpt lat="49.5598922" lon="15.2933159"><ele>566.0</ele><time>2026-04-06T10:19:48.832Z</time></trkpt><trkpt lat="49.5600588" lon="15.2932936"><ele>566.0</ele><time>2026-04-06T10:19:49.832Z</time></trkpt><trkpt lat="49.5602367" lon="15.2932146"><ele>566.0</ele><time>2026-04-06T10:19:50.832Z</time></trkpt><trkpt lat="49.5604136" lon="15.2930931"><ele>566.0</ele><time>2026-04-06T10:19:51.833Z</time></trkpt><trkpt lat="49.5606143" lon="15.2929404"><ele>563.0</ele><time>2026-04-06T10:19:52.832Z</time></trkpt><trkpt lat="49.5608428" lon="15.29278"><ele>560.0</ele><time>2026-04-06T10:19:53.832Z</time></trkpt><trkpt lat="49.5610783" lon="15.2926324"><ele>559.0</ele><time>2026-04-06T10:19:54.832Z</time></trkpt><trkpt lat="49.5613046" lon="15.2925141"><ele>558.0</ele><time>2026-04-06T10:19:55.833Z</time></trkpt><trkpt lat="49.5615053" lon="15.2924173"><ele>557.0</ele><time>2026-04-06T10:19:56.832Z</time></trkpt><trkpt lat="49.5616522" lon="15.2923167"><ele>557.0</ele><time>2026-04-06T10:19:57.832Z</time></trkpt><trkpt lat="49.5617529" lon="15.2922263"><ele>557.0</ele><time>2026-04-06T10:19:58.833Z</time></trkpt><trkpt lat="49.5618352" lon="15.2921481"><ele>557.0</ele><time>2026-04-06T10:19:59.833Z</time></trkpt><trkpt lat="49.5619027" lon="15.2920648"><ele>557.0</ele><time>2026-04-06T10:20:00.833Z</time></trkpt><trkpt lat="49.5619481" lon="15.2919913"><ele>557.0</ele><time>2026-04-06T10:20:01.833Z</time></trkpt><trkpt lat="49.5619745" lon="15.2918204"><ele>557.0</ele><time>2026-04-06T10:20:03.832Z</time></trkpt><trkpt lat="49.5619322" lon="15.2916732"><ele>557.0</ele><time>2026-04-06T10:20:05.832Z</time></trkpt><trkpt lat="49.5618653" lon="15.2916217"><ele>557.0</ele><time>2026-04-06T10:20:06.833Z</time></trkpt><trkpt lat="49.5617998" lon="15.2915826"><ele>557.0</ele><time>2026-04-06T10:20:07.833Z</time></trkpt><trkpt lat="49.561736" lon="15.2915355"><ele>557.0</ele><time>2026-04-06T10:20:08.832Z</time></trkpt><trkpt lat="49.5616267" lon="15.2914481"><ele>557.0</ele><time>2026-04-06T10:20:10.833Z</time></trkpt><trkpt lat="49.5615743" lon="15.2913754"><ele>556.6666666666666</ele><time>2026-04-06T10:20:11.832Z</time></trkpt><trkpt lat="49.5615437" lon="15.2912842"><ele>556.3333333333333</ele><time>2026-04-06T10:20:12.833Z</time></trkpt><trkpt lat="49.5615223" lon="15.2911758"><ele>556.0</ele><time>2026-04-06T10:20:13.832Z</time></trkpt><trkpt lat="49.5614999" lon="15.2910546"><ele>555.6666666666666</ele><time>2026-04-06T10:20:14.832Z</time></trkpt><trkpt lat="49.5614792" lon="15.2909269"><ele>555.3333333333334</ele><time>2026-04-06T10:20:15.833Z</time></trkpt><trkpt lat="49.5614593" lon="15.2908065"><ele>555.0</ele><time>2026-04-06T10:20:16.833Z</time></trkpt><trkpt lat="49.5614383" lon="15.2906485"><ele>555.0</ele><time>2026-04-06T10:20:18.832Z</time></trkpt><trkpt lat="49.5614119" lon="15.2905559"><ele>555.0</ele><time>2026-04-06T10:20:21.832Z</time></trkpt><trkpt lat="49.5613596" lon="15.2906452"><ele>555.0</ele><time>2026-04-06T10:20:26.833Z</time></trkpt><trkpt lat="49.5614061" lon="15.2907737"><ele>555.0</ele><time>2026-04-06T10:20:28.832Z</time></trkpt><trkpt lat="49.5614737" lon="15.2908847"><ele>555.0</ele><time>2026-04-06T10:20:30.833Z</time></trkpt><trkpt lat="49.5615129" lon="15.2910003"><ele>555.0</ele><time>2026-04-06T10:20:32.832Z</time></trkpt><trkpt lat="49.5615618" lon="15.2910714"><ele>555.0</ele><time>2026-04-06T10:20:34.833Z</time></trkpt><trkpt lat="49.5616265" lon="15.2909981"><ele>555.0</ele><time>2026-04-06T10:20:36.832Z</time></trkpt><trkpt lat="49.5617048" lon="15.2908959"><ele>555.0</ele><time>2026-04-06T10:20:39.832Z</time></trkpt><trkpt lat="49.5618013" lon="15.2908853"><ele>555.0</ele><time>2026-04-06T10:20:40.833Z</time></trkpt><trkpt lat="49.5618743" lon="15.2908523"><ele>555.0</ele><time>2026-04-06T10:20:41.833Z</time></trkpt><trkpt lat="49.5619428" lon="15.2908303"><ele>555.0</ele><time>2026-04-06T10:20:42.833Z</time></trkpt><trkpt lat="49.562008" lon="15.2908088"><ele>553.8333333333334</ele><time>2026-04-06T10:20:43.832Z</time></trkpt><trkpt lat="49.5620764" lon="15.2907843"><ele>552.6666666666666</ele><time>2026-04-06T10:20:44.833Z</time></trkpt><trkpt lat="49.5621415" lon="15.2907683"><ele>551.5</ele><time>2026-04-06T10:20:45.832Z</time></trkpt><trkpt lat="49.5622583" lon="15.2907307"><ele>550.3333333333333</ele><time>2026-04-06T10:20:47.832Z</time></trkpt><trkpt lat="49.562321" lon="15.2906893"><ele>549.1666666666666</ele><time>2026-04-06T10:20:48.833Z</time></trkpt><trkpt lat="49.5623879" lon="15.29063"><ele>548.0</ele><time>2026-04-06T10:20:49.832Z</time></trkpt><trkpt lat="49.562455" lon="15.2905505"><ele>547.5</ele><time>2026-04-06T10:20:50.832Z</time></trkpt><trkpt lat="49.5625206" lon="15.2904569"><ele>547.0</ele><time>2026-04-06T10:20:51.832Z</time></trkpt><trkpt lat="49.5625822" lon="15.2903621"><ele>546.5</ele><time>2026-04-06T10:20:52.833Z</time></trkpt><trkpt lat="49.5626409" lon="15.2902639"><ele>546.0</ele><time>2026-04-06T10:20:53.833Z</time></trkpt><trkpt lat="49.5626984" lon="15.2901631"><ele>545.5</ele><time>2026-04-06T10:20:54.832Z</time></trkpt><trkpt lat="49.5627541" lon="15.290065"><ele>545.0</ele><time>2026-04-06T10:20:55.832Z</time></trkpt><trkpt lat="49.5628104" lon="15.28997"><ele>545.0</ele><time>2026-04-06T10:20:56.833Z</time></trkpt><trkpt lat="49.5628687" lon="15.2898804"><ele>545.0</ele><time>2026-04-06T10:20:57.832Z</time></trkpt><trkpt lat="49.562927" lon="15.2897875"><ele>545.0</ele><time>2026-04-06T10:20:58.833Z</time></trkpt><trkpt lat="49.5629809" lon="15.2896894"><ele>545.0</ele><time>2026-04-06T10:20:59.832Z</time></trkpt><trkpt lat="49.5630277" lon="15.2895913"><ele>545.0</ele><time>2026-04-06T10:21:00.833Z</time></trkpt><trkpt lat="49.5630731" lon="15.2894922"><ele>545.0</ele><time>2026-04-06T10:21:01.833Z</time></trkpt><trkpt lat="49.5631205" lon="15.2893965"><ele>545.0</ele><time>2026-04-06T10:21:02.833Z</time></trkpt><trkpt lat="49.5631692" lon="15.2893062"><ele>545.0</ele><time>2026-04-06T10:21:03.832Z</time></trkpt><trkpt lat="49.5632174" lon="15.2892141"><ele>545.0</ele><time>2026-04-06T10:21:04.833Z</time></trkpt><trkpt lat="49.5632655" lon="15.2891168"><ele>545.0</ele><time>2026-04-06T10:21:05.832Z</time></trkpt><trkpt lat="49.5633092" lon="15.2890084"><ele>545.0</ele><time>2026-04-06T10:21:06.833Z</time></trkpt><trkpt lat="49.5633543" lon="15.288903"><ele>545.0</ele><time>2026-04-06T10:21:07.833Z</time></trkpt><trkpt lat="49.5633981" lon="15.2887945"><ele>546.0</ele><time>2026-04-06T10:21:08.833Z</time></trkpt><trkpt lat="49.5634442" lon="15.2886867"><ele>547.0</ele><time>2026-04-06T10:21:09.833Z</time></trkpt><trkpt lat="49.563488" lon="15.2885714"><ele>548.0</ele><time>2026-04-06T10:21:10.832Z</time></trkpt><trkpt lat="49.5635297" lon="15.2884636"><ele>549.0</ele><time>2026-04-06T10:21:11.833Z</time></trkpt><trkpt lat="49.5635752" lon="15.2883662"><ele>550.0</ele><time>2026-04-06T10:21:12.832Z</time></trkpt><trkpt lat="49.5636166" lon="15.2882765"><ele>551.0</ele><time>2026-04-06T10:21:13.832Z</time></trkpt><trkpt lat="49.5636554" lon="15.2881932"><ele>551.0</ele><time>2026-04-06T10:21:14.833Z</time></trkpt><trkpt lat="49.5636908" lon="15.288102"><ele>551.0</ele><time>2026-04-06T10:21:15.832Z</time></trkpt><trkpt lat="49.5637243" lon="15.288009"><ele>551.0</ele><time>2026-04-06T10:21:16.833Z</time></trkpt><trkpt lat="49.5637459" lon="15.2878998"><ele>551.0</ele><time>2026-04-06T10:21:17.833Z</time></trkpt><trkpt lat="49.5637552" lon="15.2877613"><ele>551.0</ele><time>2026-04-06T10:21:18.832Z</time></trkpt><trkpt lat="49.5637731" lon="15.2876123"><ele>551.0</ele><time>2026-04-06T10:21:19.832Z</time></trkpt><trkpt lat="49.5637942" lon="15.2874713"><ele>548.6</ele><time>2026-04-06T10:21:20.832Z</time></trkpt><trkpt lat="49.5638112" lon="15.287334"><ele>546.2</ele><time>2026-04-06T10:21:21.832Z</time></trkpt><trkpt lat="49.5638309" lon="15.2872002"><ele>543.8</ele><time>2026-04-06T10:21:22.833Z</time></trkpt><trkpt lat="49.5638538" lon="15.2870645"><ele>541.4</ele><time>2026-04-06T10:21:23.833Z</time></trkpt><trkpt lat="49.5638682" lon="15.286928"><ele>539.0</ele><time>2026-04-06T10:21:24.833Z</time></trkpt><trkpt lat="49.5638769" lon="15.2867842"><ele>538.5</ele><time>2026-04-06T10:21:25.832Z</time></trkpt><trkpt lat="49.5638742" lon="15.2866387"><ele>538.0</ele><time>2026-04-06T10:21:26.833Z</time></trkpt><trkpt lat="49.5638806" lon="15.2864892"><ele>537.5</ele><time>2026-04-06T10:21:27.833Z</time></trkpt><trkpt lat="49.5638994" lon="15.2863682"><ele>537.0</ele><time>2026-04-06T10:21:28.833Z</time></trkpt><trkpt lat="49.5639165" lon="15.2862665"><ele>536.5</ele><time>2026-04-06T10:21:29.833Z</time></trkpt><trkpt lat="49.563974" lon="15.2861949"><ele>536.0</ele><time>2026-04-06T10:21:31.833Z</time></trkpt><trkpt lat="49.5640699" lon="15.2861896"><ele>534.0</ele><time>2026-04-06T10:21:33.832Z</time></trkpt><trkpt lat="49.564176" lon="15.2861513"><ele>532.0</ele><time>2026-04-06T10:21:35.833Z</time></trkpt><trkpt lat="49.5642393" lon="15.2860882"><ele>530.0</ele><time>2026-04-06T10:21:36.833Z</time></trkpt><trkpt lat="49.5643061" lon="15.2860243"><ele>528.0</ele><time>2026-04-06T10:21:37.832Z</time></trkpt><trkpt lat="49.5643857" lon="15.2859707"><ele>526.0</ele><time>2026-04-06T10:21:38.833Z</time></trkpt><trkpt lat="49.5644679" lon="15.2859166"><ele>524.0</ele><time>2026-04-06T10:21:39.832Z</time></trkpt><trkpt lat="49.5645536" lon="15.2858807"><ele>521.0</ele><time>2026-04-06T10:21:40.832Z</time></trkpt><trkpt lat="49.5646351" lon="15.2858481"><ele>518.0</ele><time>2026-04-06T10:21:41.832Z</time></trkpt><trkpt lat="49.564715" lon="15.2858258"><ele>515.0</ele><time>2026-04-06T10:21:42.833Z</time></trkpt><trkpt lat="49.5647981" lon="15.2858079"><ele>512.0</ele><time>2026-04-06T10:21:43.833Z</time></trkpt><trkpt lat="49.5648763" lon="15.2858021"><ele>508.99999999999994</ele><time>2026-04-06T10:21:44.832Z</time></trkpt><trkpt lat="49.5649517" lon="15.2858105"><ele>506.0</ele><time>2026-04-06T10:21:45.832Z</time></trkpt><trkpt lat="49.5650607" lon="15.2857485"><ele>506.0</ele><time>2026-04-06T10:21:47.833Z</time></trkpt><trkpt lat="49.5651236" lon="15.2856657"><ele>506.0</ele><time>2026-04-06T10:21:48.833Z</time></trkpt><trkpt lat="49.5651795" lon="15.2855163"><ele>506.0</ele><time>2026-04-06T10:21:49.832Z</time></trkpt><trkpt lat="49.5652345" lon="15.285347"><ele>506.0</ele><time>2026-04-06T10:21:50.832Z</time></trkpt><trkpt lat="49.565311" lon="15.2851925"><ele>506.0</ele><time>2026-04-06T10:21:51.833Z</time></trkpt><trkpt lat="49.5654004" lon="15.285037"><ele>505.66666666666663</ele><time>2026-04-06T10:21:52.833Z</time></trkpt><trkpt lat="49.5655092" lon="15.2848644"><ele>505.33333333333337</ele><time>2026-04-06T10:21:53.832Z</time></trkpt><trkpt lat="49.5656262" lon="15.2846824"><ele>505.0</ele><time>2026-04-06T10:21:54.833Z</time></trkpt><trkpt lat="49.5657467" lon="15.2845185"><ele>505.0</ele><time>2026-04-06T10:21:55.833Z</time></trkpt><trkpt lat="49.5658703" lon="15.2843599"><ele>505.0</ele><time>2026-04-06T10:21:56.832Z</time></trkpt><trkpt lat="49.5659914" lon="15.2841995"><ele>505.0</ele><time>2026-04-06T10:21:57.833Z</time></trkpt><trkpt lat="49.5661147" lon="15.2840362"><ele>507.6666666666667</ele><time>2026-04-06T10:21:58.833Z</time></trkpt><trkpt lat="49.5662433" lon="15.2838748"><ele>510.33333333333337</ele><time>2026-04-06T10:21:59.833Z</time></trkpt><trkpt lat="49.5663773" lon="15.283714"><ele>513.0</ele><time>2026-04-06T10:22:00.833Z</time></trkpt><trkpt lat="49.5665079" lon="15.2835623"><ele>513.0</ele><time>2026-04-06T10:22:01.833Z</time></trkpt><trkpt lat="49.5666279" lon="15.2834008"><ele>513.0</ele><time>2026-04-06T10:22:02.832Z</time></trkpt><trkpt lat="49.566738" lon="15.2832497"><ele>513.0</ele><time>2026-04-06T10:22:03.833Z</time></trkpt><trkpt lat="49.5668295" lon="15.2830799"><ele>512.25</ele><time>2026-04-06T10:22:04.833Z</time></trkpt><trkpt lat="49.5668911" lon="15.2828783"><ele>511.5</ele><time>2026-04-06T10:22:05.833Z</time></trkpt><trkpt lat="49.5669384" lon="15.2826725"><ele>510.75</ele><time>2026-04-06T10:22:06.833Z</time></trkpt><trkpt lat="49.5669905" lon="15.2824853"><ele>510.0</ele><time>2026-04-06T10:22:07.832Z</time></trkpt><trkpt lat="49.567068" lon="15.2823382"><ele>510.25</ele><time>2026-04-06T10:22:08.832Z</time></trkpt><trkpt lat="49.5671683" lon="15.2822568"><ele>510.5</ele><time>2026-04-06T10:22:09.832Z</time></trkpt><trkpt lat="49.5673026" lon="15.2822171"><ele>510.75</ele><time>2026-04-06T10:22:10.833Z</time></trkpt><trkpt lat="49.5674463" lon="15.2821826"><ele>511.0</ele><time>2026-04-06T10:22:11.833Z</time></trkpt><trkpt lat="49.5675813" lon="15.2821392"><ele>511.0</ele><time>2026-04-06T10:22:12.833Z</time></trkpt><trkpt lat="49.5677027" lon="15.2820905"><ele>511.0</ele><time>2026-04-06T10:22:13.832Z</time></trkpt><trkpt lat="49.5678315" lon="15.2820338"><ele>511.0</ele><time>2026-04-06T10:22:14.833Z</time></trkpt><trkpt lat="49.567971" lon="15.281945"><ele>511.0</ele><time>2026-04-06T10:22:15.833Z</time></trkpt><trkpt lat="49.5681076" lon="15.2818239"><ele>511.25</ele><time>2026-04-06T10:22:16.833Z</time></trkpt><trkpt lat="49.5682326" lon="15.2817046"><ele>511.5</ele><time>2026-04-06T10:22:17.832Z</time></trkpt><trkpt lat="49.5683482" lon="15.2815764"><ele>511.75</ele><time>2026-04-06T10:22:18.832Z</time></trkpt><trkpt lat="49.5684642" lon="15.2814207"><ele>512.0</ele><time>2026-04-06T10:22:19.833Z</time></trkpt><trkpt lat="49.5685647" lon="15.2812201"><ele>511.3333333333333</ele><time>2026-04-06T10:22:20.832Z</time></trkpt><trkpt lat="49.5686572" lon="15.2809963"><ele>510.66666666666663</ele><time>2026-04-06T10:22:21.833Z</time></trkpt><trkpt lat="49.5687349" lon="15.2807645"><ele>510.0</ele><time>2026-04-06T10:22:22.832Z</time></trkpt><trkpt lat="49.5687701" lon="15.2805395"><ele>510.8</ele><time>2026-04-06T10:22:23.832Z</time></trkpt><trkpt lat="49.5687721" lon="15.2803428"><ele>511.6</ele><time>2026-04-06T10:22:24.832Z</time></trkpt><trkpt lat="49.5687717" lon="15.2801787"><ele>512.4</ele><time>2026-04-06T10:22:25.832Z</time></trkpt><trkpt lat="49.5687748" lon="15.2800594"><ele>513.2</ele><time>2026-04-06T10:22:26.833Z</time></trkpt><trkpt lat="49.5687668" lon="15.2799023"><ele>514.0</ele><time>2026-04-06T10:22:29.832Z</time></trkpt><trkpt lat="49.5687116" lon="15.2798025"><ele>514.0</ele><time>2026-04-06T10:22:30.832Z</time></trkpt><trkpt lat="49.5686364" lon="15.2796673"><ele>514.0</ele><time>2026-04-06T10:22:31.832Z</time></trkpt><trkpt lat="49.5685468" lon="15.2795017"><ele>514.0</ele><time>2026-04-06T10:22:32.833Z</time></trkpt><trkpt lat="49.5684432" lon="15.2793039"><ele>514.0</ele><time>2026-04-06T10:22:33.833Z</time></trkpt><trkpt lat="49.568344" lon="15.2791078"><ele>515.0</ele><time>2026-04-06T10:22:34.833Z</time></trkpt><trkpt lat="49.568247" lon="15.278918"><ele>516.0</ele><time>2026-04-06T10:22:35.832Z</time></trkpt><trkpt lat="49.5681563" lon="15.2787326"><ele>517.0</ele><time>2026-04-06T10:22:36.833Z</time></trkpt><trkpt lat="49.5680699" lon="15.2785506"><ele>517.0</ele><time>2026-04-06T10:22:37.833Z</time></trkpt><trkpt lat="49.5680003" lon="15.278376"><ele>517.0</ele><time>2026-04-06T10:22:38.833Z</time></trkpt><trkpt lat="49.5679474" lon="15.2781958"><ele>517.0</ele><time>2026-04-06T10:22:39.833Z</time></trkpt><trkpt lat="49.5679059" lon="15.2779941"><ele>517.0</ele><time>2026-04-06T10:22:40.833Z</time></trkpt><trkpt lat="49.5678705" lon="15.2777781"><ele>514.6666666666667</ele><time>2026-04-06T10:22:41.832Z</time></trkpt><trkpt lat="49.5678402" lon="15.2775563"><ele>512.3333333333334</ele><time>2026-04-06T10:22:42.833Z</time></trkpt><trkpt lat="49.5678188" lon="15.2773264"><ele>510.0</ele><time>2026-04-06T10:22:43.833Z</time></trkpt><trkpt lat="49.5678031" lon="15.2770923"><ele>510.0</ele><time>2026-04-06T10:22:44.833Z</time></trkpt><trkpt lat="49.567788" lon="15.2768601"><ele>510.0</ele><time>2026-04-06T10:22:45.833Z</time></trkpt><trkpt lat="49.5677768" lon="15.276625"><ele>510.0</ele><time>2026-04-06T10:22:46.833Z</time></trkpt><trkpt lat="49.567768" lon="15.2763929"><ele>509.75</ele><time>2026-04-06T10:22:47.833Z</time></trkpt><trkpt lat="49.5677553" lon="15.2761684"><ele>509.5</ele><time>2026-04-06T10:22:48.833Z</time></trkpt><trkpt lat="49.5677302" lon="15.2759476"><ele>509.25</ele><time>2026-04-06T10:22:49.833Z</time></trkpt><trkpt lat="49.5676977" lon="15.2757354"><ele>509.0</ele><time>2026-04-06T10:22:50.832Z</time></trkpt><trkpt lat="49.5676366" lon="15.2755079"><ele>508.25</ele><time>2026-04-06T10:22:51.833Z</time></trkpt><trkpt lat="49.5675774" lon="15.2752877"><ele>507.5</ele><time>2026-04-06T10:22:52.832Z</time></trkpt><trkpt lat="49.5675103" lon="15.2750812"><ele>506.75</ele><time>2026-04-06T10:22:53.833Z</time></trkpt><trkpt lat="49.567448" lon="15.2748824"><ele>506.0</ele><time>2026-04-06T10:22:54.832Z</time></trkpt><trkpt lat="49.5674031" lon="15.2746962"><ele>504.75</ele><time>2026-04-06T10:22:55.832Z</time></trkpt><trkpt lat="49.5673578" lon="15.2745105"><ele>503.5</ele><time>2026-04-06T10:22:56.832Z</time></trkpt><trkpt lat="49.5673156" lon="15.2743282"><ele>502.25</ele><time>2026-04-06T10:22:57.832Z</time></trkpt><trkpt lat="49.5672729" lon="15.274144"><ele>501.0</ele><time>2026-04-06T10:22:58.833Z</time></trkpt><trkpt lat="49.5672354" lon="15.2739448"><ele>500.25</ele><time>2026-04-06T10:22:59.832Z</time></trkpt><trkpt lat="49.5672055" lon="15.2737441"><ele>499.5</ele><time>2026-04-06T10:23:00.833Z</time></trkpt><trkpt lat="49.5671903" lon="15.273533"><ele>498.75</ele><time>2026-04-06T10:23:01.833Z</time></trkpt><trkpt lat="49.5671987" lon="15.2733321"><ele>498.0</ele><time>2026-04-06T10:23:02.832Z</time></trkpt><trkpt lat="49.567234" lon="15.2731289"><ele>496.0</ele><time>2026-04-06T10:23:03.832Z</time></trkpt><trkpt lat="49.5672891" lon="15.2728902"><ele>494.0</ele><time>2026-04-06T10:23:04.832Z</time></trkpt><trkpt lat="49.567352" lon="15.2726523"><ele>492.0</ele><time>2026-04-06T10:23:05.833Z</time></trkpt><trkpt lat="49.5674056" lon="15.2724084"><ele>490.66666666666663</ele><time>2026-04-06T10:23:06.832Z</time></trkpt><trkpt lat="49.5674595" lon="15.2721705"><ele>489.3333333333333</ele><time>2026-04-06T10:23:07.833Z</time></trkpt><trkpt lat="49.5675001" lon="15.2719486"><ele>488.0</ele><time>2026-04-06T10:23:08.833Z</time></trkpt><trkpt lat="49.567523" lon="15.2717195"><ele>488.0</ele><time>2026-04-06T10:23:09.833Z</time></trkpt><trkpt lat="49.5675197" lon="15.2714805"><ele>488.0</ele><time>2026-04-06T10:23:10.832Z</time></trkpt><trkpt lat="49.5675037" lon="15.2712543"><ele>488.0</ele><time>2026-04-06T10:23:11.833Z</time></trkpt><trkpt lat="49.5674941" lon="15.2710615"><ele>488.0</ele><time>2026-04-06T10:23:12.833Z</time></trkpt><trkpt lat="49.5674581" lon="15.2708895"><ele>487.25</ele><time>2026-04-06T10:23:13.832Z</time></trkpt><trkpt lat="49.5673871" lon="15.2707396"><ele>486.5</ele><time>2026-04-06T10:23:14.833Z</time></trkpt><trkpt lat="49.5673077" lon="15.270579"><ele>485.75</ele><time>2026-04-06T10:23:15.833Z</time></trkpt><trkpt lat="49.5672285" lon="15.2703913"><ele>485.0</ele><time>2026-04-06T10:23:16.832Z</time></trkpt><trkpt lat="49.567157" lon="15.2701972"><ele>483.75</ele><time>2026-04-06T10:23:17.832Z</time></trkpt><trkpt lat="49.5670973" lon="15.270002"><ele>482.5</ele><time>2026-04-06T10:23:18.832Z</time></trkpt><trkpt lat="49.5670408" lon="15.2698423"><ele>481.25</ele><time>2026-04-06T10:23:19.832Z</time></trkpt><trkpt lat="49.5669872" lon="15.2697035"><ele>480.0</ele><time>2026-04-06T10:23:20.832Z</time></trkpt><trkpt lat="49.5669575" lon="15.2695712"><ele>478.8333333333333</ele><time>2026-04-06T10:23:21.833Z</time></trkpt><trkpt lat="49.566932" lon="15.2694676"><ele>477.66666666666663</ele><time>2026-04-06T10:23:22.832Z</time></trkpt><trkpt lat="49.5669248" lon="15.269355"><ele>476.5</ele><time>2026-04-06T10:23:23.832Z</time></trkpt><trkpt lat="49.5669377" lon="15.269226"><ele>475.3333333333333</ele><time>2026-04-06T10:23:24.832Z</time></trkpt><trkpt lat="49.5669691" lon="15.2690921"><ele>474.16666666666663</ele><time>2026-04-06T10:23:25.832Z</time></trkpt><trkpt lat="49.567" lon="15.2689388"><ele>473.0</ele><time>2026-04-06T10:23:26.833Z</time></trkpt><trkpt lat="49.5670081" lon="15.2687681"><ele>472.59999999999997</ele><time>2026-04-06T10:23:27.833Z</time></trkpt><trkpt lat="49.5670139" lon="15.2685917"><ele>472.19999999999993</ele><time>2026-04-06T10:23:28.833Z</time></trkpt><trkpt lat="49.5670196" lon="15.2684322"><ele>471.8</ele><time>2026-04-06T10:23:29.832Z</time></trkpt><trkpt lat="49.5670418" lon="15.2682768"><ele>471.4</ele><time>2026-04-06T10:23:30.832Z</time></trkpt><trkpt lat="49.5670813" lon="15.2681239"><ele>471.0</ele><time>2026-04-06T10:23:31.833Z</time></trkpt><trkpt lat="49.5671349" lon="15.2679615"><ele>469.66666666666663</ele><time>2026-04-06T10:23:32.832Z</time></trkpt><trkpt lat="49.5671936" lon="15.267764"><ele>468.3333333333333</ele><time>2026-04-06T10:23:33.833Z</time></trkpt><trkpt lat="49.5672549" lon="15.267538"><ele>467.0</ele><time>2026-04-06T10:23:34.832Z</time></trkpt><trkpt lat="49.5673239" lon="15.2672797"><ele>466.3333333333333</ele><time>2026-04-06T10:23:35.833Z</time></trkpt><trkpt lat="49.567393" lon="15.2670113"><ele>465.66666666666663</ele><time>2026-04-06T10:23:36.832Z</time></trkpt><trkpt lat="49.5674461" lon="15.2667568"><ele>465.0</ele><time>2026-04-06T10:23:37.833Z</time></trkpt><trkpt lat="49.5674887" lon="15.2665164"><ele>463.66666666666663</ele><time>2026-04-06T10:23:38.832Z</time></trkpt><trkpt lat="49.5675365" lon="15.2662788"><ele>462.3333333333333</ele><time>2026-04-06T10:23:39.832Z</time></trkpt><trkpt lat="49.5675759" lon="15.2660264"><ele>461.0</ele><time>2026-04-06T10:23:40.833Z</time></trkpt><trkpt lat="49.5676132" lon="15.2657722"><ele>458.3333333333333</ele><time>2026-04-06T10:23:41.832Z</time></trkpt><trkpt lat="49.5676497" lon="15.2655238"><ele>455.66666666666663</ele><time>2026-04-06T10:23:42.833Z</time></trkpt><trkpt lat="49.567686" lon="15.2652598"><ele>453.0</ele><time>2026-04-06T10:23:43.832Z</time></trkpt><trkpt lat="49.567724" lon="15.264989"><ele>450.66666666666663</ele><time>2026-04-06T10:23:44.833Z</time></trkpt><trkpt lat="49.567761" lon="15.2647283"><ele>448.3333333333333</ele><time>2026-04-06T10:23:45.832Z</time></trkpt><trkpt lat="49.5677996" lon="15.2644703"><ele>446.0</ele><time>2026-04-06T10:23:46.833Z</time></trkpt><trkpt lat="49.5678421" lon="15.2642027"><ele>446.0</ele><time>2026-04-06T10:23:47.833Z</time></trkpt><trkpt lat="49.5678793" lon="15.2639419"><ele>446.0</ele><time>2026-04-06T10:23:48.833Z</time></trkpt><trkpt lat="49.5679071" lon="15.2636968"><ele>446.0</ele><time>2026-04-06T10:23:49.832Z</time></trkpt><trkpt lat="49.5679291" lon="15.2634686"><ele>446.0</ele><time>2026-04-06T10:23:50.832Z</time></trkpt><trkpt lat="49.5679496" lon="15.2632772"><ele>446.0</ele><time>2026-04-06T10:23:51.832Z</time></trkpt><trkpt lat="49.5679688" lon="15.2631129"><ele>446.0</ele><time>2026-04-06T10:23:52.832Z</time></trkpt><trkpt lat="49.5679851" lon="15.2629558"><ele>446.0</ele><time>2026-04-06T10:23:53.833Z</time></trkpt><trkpt lat="49.5680011" lon="15.2628189"><ele>446.0</ele><time>2026-04-06T10:23:54.832Z</time></trkpt><trkpt lat="49.5680212" lon="15.2626992"><ele>445.99999999999994</ele><time>2026-04-06T10:23:55.832Z</time></trkpt><trkpt lat="49.5680523" lon="15.2625888"><ele>446.0</ele><time>2026-04-06T10:23:56.832Z</time></trkpt><trkpt lat="49.5680962" lon="15.2625088"><ele>446.0</ele><time>2026-04-06T10:23:57.833Z</time></trkpt><trkpt lat="49.5681561" lon="15.2624627"><ele>446.0</ele><time>2026-04-06T10:23:58.833Z</time></trkpt><trkpt lat="49.568228" lon="15.26243"><ele>445.99999999999994</ele><time>2026-04-06T10:23:59.832Z</time></trkpt><trkpt lat="49.5683154" lon="15.26242"><ele>446.0</ele><time>2026-04-06T10:24:00.832Z</time></trkpt><trkpt lat="49.5684012" lon="15.262429"><ele>446.0</ele><time>2026-04-06T10:24:01.833Z</time></trkpt><trkpt lat="49.5684857" lon="15.2624263"><ele>446.0</ele><time>2026-04-06T10:24:02.832Z</time></trkpt><trkpt lat="49.5685748" lon="15.2624305"><ele>446.0</ele><time>2026-04-06T10:24:03.832Z</time></trkpt><trkpt lat="49.5686647" lon="15.2624218"><ele>446.0</ele><time>2026-04-06T10:24:04.832Z</time></trkpt><trkpt lat="49.5687638" lon="15.2624348"><ele>446.0</ele><time>2026-04-06T10:24:05.833Z</time></trkpt><trkpt lat="49.568851" lon="15.2624665"><ele>445.66666666666663</ele><time>2026-04-06T10:24:06.832Z</time></trkpt><trkpt lat="49.5689292" lon="15.2624994"><ele>445.3333333333333</ele><time>2026-04-06T10:24:07.833Z</time></trkpt><trkpt lat="49.5690337" lon="15.2625281"><ele>445.0</ele><time>2026-04-06T10:24:09.833Z</time></trkpt><trkpt lat="49.569103" lon="15.2625219"><ele>444.66666666666663</ele><time>2026-04-06T10:24:11.832Z</time></trkpt><trkpt lat="49.5691933" lon="15.2625521"><ele>444.3333333333333</ele><time>2026-04-06T10:24:13.832Z</time></trkpt><trkpt lat="49.5692539" lon="15.2626079"><ele>444.0</ele><time>2026-04-06T10:24:14.833Z</time></trkpt><trkpt lat="49.5693178" lon="15.2626937"><ele>444.0</ele><time>2026-04-06T10:24:15.832Z</time></trkpt><trkpt lat="49.5694017" lon="15.2628122"><ele>444.0</ele><time>2026-04-06T10:24:16.832Z</time></trkpt><trkpt lat="49.5694965" lon="15.2629272"><ele>444.0</ele><time>2026-04-06T10:24:17.833Z</time></trkpt><trkpt lat="49.5696074" lon="15.2630421"><ele>444.0</ele><time>2026-04-06T10:24:18.832Z</time></trkpt><trkpt lat="49.5696974" lon="15.2631443"><ele>443.8333333333333</ele><time>2026-04-06T10:24:19.832Z</time></trkpt><trkpt lat="49.5697717" lon="15.2631762"><ele>443.66666666666663</ele><time>2026-04-06T10:24:20.832Z</time></trkpt><trkpt lat="49.5698412" lon="15.2631386"><ele>443.5</ele><time>2026-04-06T10:24:21.833Z</time></trkpt><trkpt lat="49.5698974" lon="15.2630816"><ele>443.3333333333333</ele><time>2026-04-06T10:24:22.833Z</time></trkpt><trkpt lat="49.5699526" lon="15.2629778"><ele>443.16666666666663</ele><time>2026-04-06T10:24:23.833Z</time></trkpt><trkpt lat="49.5700338" lon="15.2628316"><ele>443.0</ele><time>2026-04-06T10:24:24.832Z</time></trkpt><trkpt lat="49.5701337" lon="15.2626669"><ele>443.0</ele><time>2026-04-06T10:24:25.833Z</time></trkpt><trkpt lat="49.5702434" lon="15.2624853"><ele>443.0</ele><time>2026-04-06T10:24:26.833Z</time></trkpt><trkpt lat="49.570338" lon="15.2622975"><ele>443.0</ele><time>2026-04-06T10:24:27.833Z</time></trkpt><trkpt lat="49.5704277" lon="15.2621334"><ele>443.0</ele><time>2026-04-06T10:24:28.833Z</time></trkpt><trkpt lat="49.5705189" lon="15.2619909"><ele>443.0</ele><time>2026-04-06T10:24:29.832Z</time></trkpt><trkpt lat="49.5706189" lon="15.261876"><ele>443.0</ele><time>2026-04-06T10:24:30.832Z</time></trkpt><trkpt lat="49.5707248" lon="15.2617938"><ele>443.0</ele><time>2026-04-06T10:24:31.833Z</time></trkpt><trkpt lat="49.5708528" lon="15.2617275"><ele>443.0</ele><time>2026-04-06T10:24:32.833Z</time></trkpt><trkpt lat="49.5710015" lon="15.2616584"><ele>443.0</ele><time>2026-04-06T10:24:33.833Z</time></trkpt><trkpt lat="49.5711414" lon="15.2615693"><ele>443.0</ele><time>2026-04-06T10:24:34.833Z</time></trkpt><trkpt lat="49.5712716" lon="15.2614917"><ele>443.0</ele><time>2026-04-06T10:24:35.832Z</time></trkpt><trkpt lat="49.5713972" lon="15.2614308"><ele>441.75</ele><time>2026-04-06T10:24:36.832Z</time></trkpt><trkpt lat="49.5715225" lon="15.261374"><ele>440.5</ele><time>2026-04-06T10:24:37.832Z</time></trkpt><trkpt lat="49.5716399" lon="15.2613292"><ele>439.25</ele><time>2026-04-06T10:24:38.832Z</time></trkpt><trkpt lat="49.5717462" lon="15.261277"><ele>438.0</ele><time>2026-04-06T10:24:39.833Z</time></trkpt><trkpt lat="49.5718572" lon="15.2612259"><ele>438.0</ele><time>2026-04-06T10:24:40.833Z</time></trkpt><trkpt lat="49.5719605" lon="15.2611651"><ele>438.0</ele><time>2026-04-06T10:24:41.832Z</time></trkpt><trkpt lat="49.572064" lon="15.2610871"><ele>438.0</ele><time>2026-04-06T10:24:42.833Z</time></trkpt><trkpt lat="49.5721687" lon="15.2609944"><ele>438.0</ele><time>2026-04-06T10:24:43.832Z</time></trkpt><trkpt lat="49.5722702" lon="15.2608928"><ele>437.59999999999997</ele><time>2026-04-06T10:24:44.832Z</time></trkpt><trkpt lat="49.5723605" lon="15.260789"><ele>437.19999999999993</ele><time>2026-04-06T10:24:45.833Z</time></trkpt><trkpt lat="49.57245" lon="15.2606966"><ele>436.8</ele><time>2026-04-06T10:24:46.832Z</time></trkpt><trkpt lat="49.5725378" lon="15.2606186"><ele>436.4</ele><time>2026-04-06T10:24:47.832Z</time></trkpt><trkpt lat="49.5726361" lon="15.260561"><ele>436.0</ele><time>2026-04-06T10:24:48.833Z</time></trkpt><trkpt lat="49.572732" lon="15.2605323"><ele>435.6666666666667</ele><time>2026-04-06T10:24:49.832Z</time></trkpt><trkpt lat="49.5728197" lon="15.2605166"><ele>435.33333333333337</ele><time>2026-04-06T10:24:50.832Z</time></trkpt><trkpt lat="49.572885" lon="15.2605247"><ele>435.0</ele><time>2026-04-06T10:24:51.832Z</time></trkpt><trkpt lat="49.5729734" lon="15.2605722"><ele>434.66666666666663</ele><time>2026-04-06T10:24:53.833Z</time></trkpt><trkpt lat="49.5730964" lon="15.2606437"><ele>434.3333333333333</ele><time>2026-04-06T10:24:55.839Z</time></trkpt><trkpt lat="49.5731591" lon="15.2606543"><ele>434.0</ele><time>2026-04-06T10:24:56.84Z</time></trkpt><trkpt lat="49.5731025" lon="15.2605883"><ele>432.8333333333333</ele><time>2026-04-06T10:25:14.84Z</time></trkpt><trkpt lat="49.5730467" lon="15.2604856"><ele>431.66666666666663</ele><time>2026-04-06T10:25:17.84Z</time></trkpt><trkpt lat="49.5729882" lon="15.2604125"><ele>430.5</ele><time>2026-04-06T10:25:19.839Z</time></trkpt><trkpt lat="49.5729581" lon="15.2602984"><ele>429.33333333333337</ele><time>2026-04-06T10:25:21.84Z</time></trkpt><trkpt lat="49.5729948" lon="15.2601304"><ele>428.1666666666667</ele><time>2026-04-06T10:25:23.839Z</time></trkpt><trkpt lat="49.5730444" lon="15.2600539"><ele>427.0</ele><time>2026-04-06T10:25:24.839Z</time></trkpt><trkpt lat="49.5731037" lon="15.2600026"><ele>427.0</ele><time>2026-04-06T10:25:25.84Z</time></trkpt><trkpt lat="49.5731647" lon="15.2599648"><ele>427.0</ele><time>2026-04-06T10:25:26.839Z</time></trkpt><trkpt lat="49.5732262" lon="15.25993"><ele>427.0</ele><time>2026-04-06T10:25:27.839Z</time></trkpt><trkpt lat="49.5732906" lon="15.2598845"><ele>427.0</ele><time>2026-04-06T10:25:28.839Z</time></trkpt><trkpt lat="49.5733525" lon="15.2598348"><ele>427.0</ele><time>2026-04-06T10:25:29.839Z</time></trkpt><trkpt lat="49.5734125" lon="15.2597868"><ele>427.0</ele><time>2026-04-06T10:25:30.84Z</time></trkpt><trkpt lat="49.5734703" lon="15.2597395"><ele>427.0</ele><time>2026-04-06T10:25:31.84Z</time></trkpt><trkpt lat="49.5735361" lon="15.2596913"><ele>425.6</ele><time>2026-04-06T10:25:32.839Z</time></trkpt><trkpt lat="49.5736105" lon="15.2596493"><ele>424.20000000000005</ele><time>2026-04-06T10:25:33.84Z</time></trkpt><trkpt lat="49.5736902" lon="15.2596051"><ele>422.8</ele><time>2026-04-06T10:25:34.839Z</time></trkpt><trkpt lat="49.5737741" lon="15.2595549"><ele>421.4</ele><time>2026-04-06T10:25:35.839Z</time></trkpt><trkpt lat="49.5738606" lon="15.2594891"><ele>420.0</ele><time>2026-04-06T10:25:36.84Z</time></trkpt><trkpt lat="49.5739515" lon="15.2594011"><ele>419.75</ele><time>2026-04-06T10:25:37.84Z</time></trkpt><trkpt lat="49.5740504" lon="15.2593006"><ele>419.5</ele><time>2026-04-06T10:25:38.84Z</time></trkpt><trkpt lat="49.574162" lon="15.2591919"><ele>419.25</ele><time>2026-04-06T10:25:39.84Z</time></trkpt><trkpt lat="49.5742968" lon="15.2590716"><ele>419.0</ele><time>2026-04-06T10:25:40.839Z</time></trkpt><trkpt lat="49.5744561" lon="15.2589424"><ele>419.0</ele><time>2026-04-06T10:25:41.839Z</time></trkpt><trkpt lat="49.574628" lon="15.2588251"><ele>419.0</ele><time>2026-04-06T10:25:42.84Z</time></trkpt><trkpt lat="49.5747977" lon="15.2587082"><ele>419.0</ele><time>2026-04-06T10:25:43.84Z</time></trkpt><trkpt lat="49.5749472" lon="15.2585838"><ele>419.0</ele><time>2026-04-06T10:25:44.839Z</time></trkpt><trkpt lat="49.5750803" lon="15.2584629"><ele>419.0</ele><time>2026-04-06T10:25:45.839Z</time></trkpt><trkpt lat="49.5751988" lon="15.2583285"><ele>419.0</ele><time>2026-04-06T10:25:46.84Z</time></trkpt><trkpt lat="49.575316" lon="15.2582189"><ele>419.0</ele><time>2026-04-06T10:25:47.839Z</time></trkpt><trkpt lat="49.5754362" lon="15.2581276"><ele>418.5</ele><time>2026-04-06T10:25:48.84Z</time></trkpt><trkpt lat="49.5755595" lon="15.2580501"><ele>418.0</ele><time>2026-04-06T10:25:49.839Z</time></trkpt><trkpt lat="49.5756808" lon="15.2579882"><ele>417.5</ele><time>2026-04-06T10:25:50.84Z</time></trkpt><trkpt lat="49.5758038" lon="15.2579179"><ele>417.0</ele><time>2026-04-06T10:25:51.84Z</time></trkpt><trkpt lat="49.5759322" lon="15.2578505"><ele>417.0</ele><time>2026-04-06T10:25:52.839Z</time></trkpt><trkpt lat="49.5760632" lon="15.2577777"><ele>417.0</ele><time>2026-04-06T10:25:53.839Z</time></trkpt><trkpt lat="49.5761835" lon="15.2576806"><ele>417.0</ele><time>2026-04-06T10:25:54.839Z</time></trkpt><trkpt lat="49.5763016" lon="15.2575773"><ele>417.0</ele><time>2026-04-06T10:25:55.84Z</time></trkpt><trkpt lat="49.5764118" lon="15.2574555"><ele>416.75</ele><time>2026-04-06T10:25:56.839Z</time></trkpt><trkpt lat="49.5765131" lon="15.2573329"><ele>416.5</ele><time>2026-04-06T10:25:57.839Z</time></trkpt><trkpt lat="49.5766143" lon="15.2572167"><ele>416.25</ele><time>2026-04-06T10:25:58.84Z</time></trkpt><trkpt lat="49.5767226" lon="15.2571236"><ele>416.0</ele><time>2026-04-06T10:25:59.84Z</time></trkpt><trkpt lat="49.5768435" lon="15.2570451"><ele>416.0</ele><time>2026-04-06T10:26:00.839Z</time></trkpt><trkpt lat="49.5769728" lon="15.2569704"><ele>416.0</ele><time>2026-04-06T10:26:01.84Z</time></trkpt><trkpt lat="49.5771131" lon="15.2569021"><ele>416.0</ele><time>2026-04-06T10:26:02.84Z</time></trkpt><trkpt lat="49.5772548" lon="15.2568345"><ele>416.0</ele><time>2026-04-06T10:26:03.839Z</time></trkpt><trkpt lat="49.577388" lon="15.2567664"><ele>416.0</ele><time>2026-04-06T10:26:04.839Z</time></trkpt><trkpt lat="49.5775216" lon="15.2567084"><ele>416.0</ele><time>2026-04-06T10:26:05.839Z</time></trkpt><trkpt lat="49.5776398" lon="15.2566414"><ele>416.0</ele><time>2026-04-06T10:26:06.84Z</time></trkpt><trkpt lat="49.5777421" lon="15.2565721"><ele>416.0</ele><time>2026-04-06T10:26:07.84Z</time></trkpt><trkpt lat="49.5778218" lon="15.2564784"><ele>414.5</ele><time>2026-04-06T10:26:08.84Z</time></trkpt><trkpt lat="49.5778943" lon="15.2563654"><ele>413.0</ele><time>2026-04-06T10:26:09.84Z</time></trkpt><trkpt lat="49.5779772" lon="15.2562366"><ele>411.5</ele><time>2026-04-06T10:26:10.84Z</time></trkpt><trkpt lat="49.5780704" lon="15.2561185"><ele>410.0</ele><time>2026-04-06T10:26:11.839Z</time></trkpt><trkpt lat="49.5781588" lon="15.2560074"><ele>410.0</ele><time>2026-04-06T10:26:12.839Z</time></trkpt><trkpt lat="49.5782406" lon="15.2558953"><ele>410.0</ele><time>2026-04-06T10:26:13.84Z</time></trkpt><trkpt lat="49.5783229" lon="15.2557961"><ele>410.0</ele><time>2026-04-06T10:26:14.84Z</time></trkpt><trkpt lat="49.5784046" lon="15.2557041"><ele>410.0</ele><time>2026-04-06T10:26:15.84Z</time></trkpt><trkpt lat="49.5784813" lon="15.2556251"><ele>410.0</ele><time>2026-04-06T10:26:16.839Z</time></trkpt><trkpt lat="49.5785505" lon="15.2555424"><ele>408.66666666666663</ele><time>2026-04-06T10:26:17.84Z</time></trkpt><trkpt lat="49.578614" lon="15.2554586"><ele>407.3333333333333</ele><time>2026-04-06T10:26:18.84Z</time></trkpt><trkpt lat="49.5786664" lon="15.2553663"><ele>406.0</ele><time>2026-04-06T10:26:19.839Z</time></trkpt><trkpt lat="49.5787154" lon="15.2552705"><ele>404.66666666666663</ele><time>2026-04-06T10:26:20.84Z</time></trkpt><trkpt lat="49.5787619" lon="15.2551865"><ele>403.3333333333333</ele><time>2026-04-06T10:26:21.839Z</time></trkpt><trkpt lat="49.5788479" lon="15.2550648"><ele>402.0</ele><time>2026-04-06T10:26:23.84Z</time></trkpt><trkpt lat="49.5789459" lon="15.2550427"><ele>402.0</ele><time>2026-04-06T10:26:25.839Z</time></trkpt><trkpt lat="49.5790361" lon="15.2551423"><ele>402.0</ele><time>2026-04-06T10:26:27.84Z</time></trkpt><trkpt lat="49.5791113" lon="15.2552931"><ele>402.0</ele><time>2026-04-06T10:26:29.839Z</time></trkpt><trkpt lat="49.5791698" lon="15.2553488"><ele>402.0</ele><time>2026-04-06T10:26:30.84Z</time></trkpt><trkpt lat="49.5792305" lon="15.2553896"><ele>402.0</ele><time>2026-04-06T10:26:31.84Z</time></trkpt><trkpt lat="49.5792899" lon="15.2554349"><ele>402.0</ele><time>2026-04-06T10:26:32.839Z</time></trkpt><trkpt lat="49.5793714" lon="15.2554484"><ele>402.0</ele><time>2026-04-06T10:26:33.839Z</time></trkpt><trkpt lat="49.5794419" lon="15.2554016"><ele>402.0</ele><time>2026-04-06T10:26:34.84Z</time></trkpt><trkpt lat="49.5794997" lon="15.2552386"><ele>402.0</ele><time>2026-04-06T10:26:36.839Z</time></trkpt><trkpt lat="49.5795053" lon="15.2551357"><ele>402.0</ele><time>2026-04-06T10:26:37.84Z</time></trkpt><trkpt lat="49.5795027" lon="15.2550261"><ele>402.0</ele><time>2026-04-06T10:26:38.839Z</time></trkpt><trkpt lat="49.5795005" lon="15.2549202"><ele>402.0</ele><time>2026-04-06T10:26:39.839Z</time></trkpt><trkpt lat="49.5795039" lon="15.2548058"><ele>400.0</ele><time>2026-04-06T10:26:40.839Z</time></trkpt><trkpt lat="49.5795084" lon="15.2547041"><ele>398.0</ele><time>2026-04-06T10:26:41.84Z</time></trkpt><trkpt lat="49.5795033" lon="15.2545802"><ele>396.0</ele><time>2026-04-06T10:26:42.839Z</time></trkpt><trkpt lat="49.5794968" lon="15.2544706"><ele>394.0</ele><time>2026-04-06T10:26:43.839Z</time></trkpt><trkpt lat="49.5795119" lon="15.2543531"><ele>392.0</ele><time>2026-04-06T10:26:44.84Z</time></trkpt><trkpt lat="49.57953" lon="15.2542197"><ele>390.0</ele><time>2026-04-06T10:26:45.839Z</time></trkpt><trkpt lat="49.5795629" lon="15.2540983"><ele>395.6</ele><time>2026-04-06T10:26:46.84Z</time></trkpt><trkpt lat="49.5796007" lon="15.2539932"><ele>401.2</ele><time>2026-04-06T10:26:47.84Z</time></trkpt><trkpt lat="49.5796264" lon="15.2538706"><ele>406.79999999999995</ele><time>2026-04-06T10:26:48.84Z</time></trkpt><trkpt lat="49.5796467" lon="15.2537083"><ele>412.4</ele><time>2026-04-06T10:26:49.839Z</time></trkpt><trkpt lat="49.5796812" lon="15.2535174"><ele>418.0</ele><time>2026-04-06T10:26:50.84Z</time></trkpt><trkpt lat="49.5797009" lon="15.253326"><ele>418.0</ele><time>2026-04-06T10:26:51.839Z</time></trkpt><trkpt lat="49.5797398" lon="15.2531252"><ele>418.0</ele><time>2026-04-06T10:26:52.839Z</time></trkpt><trkpt lat="49.5797658" lon="15.2529423"><ele>418.0</ele><time>2026-04-06T10:26:53.839Z</time></trkpt><trkpt lat="49.579776" lon="15.2527721"><ele>418.0</ele><time>2026-04-06T10:26:54.839Z</time></trkpt><trkpt lat="49.5797823" lon="15.2526151"><ele>418.2</ele><time>2026-04-06T10:26:55.841Z</time></trkpt><trkpt lat="49.579781" lon="15.2524406"><ele>418.4</ele><time>2026-04-06T10:26:56.841Z</time></trkpt><trkpt lat="49.5797812" lon="15.2522701"><ele>418.59999999999997</ele><time>2026-04-06T10:26:57.84Z</time></trkpt><trkpt lat="49.5797875" lon="15.2520879"><ele>418.79999999999995</ele><time>2026-04-06T10:26:58.841Z</time></trkpt><trkpt lat="49.5798148" lon="15.2519325"><ele>419.0</ele><time>2026-04-06T10:26:59.841Z</time></trkpt><trkpt lat="49.5798354" lon="15.2517944"><ele>419.2</ele><time>2026-04-06T10:27:00.84Z</time></trkpt><trkpt lat="49.5798236" lon="15.2516385"><ele>419.4</ele><time>2026-04-06T10:27:01.84Z</time></trkpt><trkpt lat="49.5797843" lon="15.2514853"><ele>419.6</ele><time>2026-04-06T10:27:02.84Z</time></trkpt><trkpt lat="49.5797622" lon="15.2513508"><ele>419.8</ele><time>2026-04-06T10:27:03.84Z</time></trkpt><trkpt lat="49.5797636" lon="15.2511742"><ele>420.0</ele><time>2026-04-06T10:27:05.841Z</time></trkpt><trkpt lat="49.5797877" lon="15.2510799"><ele>420.0</ele><time>2026-04-06T10:27:06.84Z</time></trkpt><trkpt lat="49.5798194" lon="15.2509641"><ele>420.0</ele><time>2026-04-06T10:27:07.84Z</time></trkpt><trkpt lat="49.5798387" lon="15.2508135"><ele>420.0</ele><time>2026-04-06T10:27:08.841Z</time></trkpt><trkpt lat="49.5798453" lon="15.2506675"><ele>420.0</ele><time>2026-04-06T10:27:09.841Z</time></trkpt><trkpt lat="49.5798439" lon="15.2505567"><ele>420.0</ele><time>2026-04-06T10:27:10.841Z</time></trkpt><trkpt lat="49.5798476" lon="15.2503671"><ele>420.0</ele><time>2026-04-06T10:27:12.84Z</time></trkpt><trkpt lat="49.5798324" lon="15.2502666"><ele>420.0</ele><time>2026-04-06T10:27:13.841Z</time></trkpt><trkpt lat="49.5798066" lon="15.2501758"><ele>420.0</ele><time>2026-04-06T10:27:14.84Z</time></trkpt><trkpt lat="49.579769" lon="15.2500639"><ele>420.0</ele><time>2026-04-06T10:27:15.841Z</time></trkpt><trkpt lat="49.5797527" lon="15.2499505"><ele>420.0</ele><time>2026-04-06T10:27:16.84Z</time></trkpt><trkpt lat="49.579736" lon="15.2498463"><ele>420.0</ele><time>2026-04-06T10:27:17.841Z</time></trkpt><trkpt lat="49.5797234" lon="15.2497336"><ele>420.0</ele><time>2026-04-06T10:27:18.84Z</time></trkpt><trkpt lat="49.5797121" lon="15.2495551"><ele>420.8</ele><time>2026-04-06T10:27:19.841Z</time></trkpt><trkpt lat="49.5796842" lon="15.2493865"><ele>421.6</ele><time>2026-04-06T10:27:20.84Z</time></trkpt><trkpt lat="49.5796777" lon="15.2492719"><ele>422.4</ele><time>2026-04-06T10:27:21.841Z</time></trkpt><trkpt lat="49.5796616" lon="15.2491754"><ele>423.2</ele><time>2026-04-06T10:27:23.841Z</time></trkpt><trkpt lat="49.5796539" lon="15.2490079"><ele>424.0</ele><time>2026-04-06T10:27:26.84Z</time></trkpt><trkpt lat="49.5796776" lon="15.2488592"><ele>425.0</ele><time>2026-04-06T10:27:57.84Z</time></trkpt><trkpt lat="49.5797082" lon="15.248683"><ele>426.0</ele><time>2026-04-06T10:27:59.841Z</time></trkpt><trkpt lat="49.5797574" lon="15.2484987"><ele>427.0</ele><time>2026-04-06T10:28:01.84Z</time></trkpt><trkpt lat="49.5797853" lon="15.2484041"><ele>428.0</ele><time>2026-04-06T10:28:02.841Z</time></trkpt><trkpt lat="49.5798078" lon="15.2482964"><ele>429.0</ele><time>2026-04-06T10:28:03.84Z</time></trkpt><trkpt lat="49.5798222" lon="15.2481785"><ele>429.0</ele><time>2026-04-06T10:28:04.841Z</time></trkpt><trkpt lat="49.5798243" lon="15.2480747"><ele>429.0</ele><time>2026-04-06T10:28:05.841Z</time></trkpt><trkpt lat="49.5798047" lon="15.24797"><ele>429.0</ele><time>2026-04-06T10:28:06.84Z</time></trkpt><trkpt lat="49.5798281" lon="15.2478138"><ele>429.0</ele><time>2026-04-06T10:28:08.84Z</time></trkpt><trkpt lat="49.579882" lon="15.2477081"><ele>429.0</ele><time>2026-04-06T10:28:10.841Z</time></trkpt><trkpt lat="49.5799451" lon="15.2476713"><ele>429.0</ele><time>2026-04-06T10:28:12.841Z</time></trkpt><trkpt lat="49.5800653" lon="15.2476727"><ele>429.0</ele><time>2026-04-06T10:28:14.841Z</time></trkpt><trkpt lat="49.5801619" lon="15.2476873"><ele>429.0</ele><time>2026-04-06T10:28:15.84Z</time></trkpt><trkpt lat="49.5802502" lon="15.2477275"><ele>429.0</ele><time>2026-04-06T10:28:16.84Z</time></trkpt><trkpt lat="49.580338" lon="15.2477779"><ele>429.0</ele><time>2026-04-06T10:28:17.84Z</time></trkpt><trkpt lat="49.5804253" lon="15.2478415"><ele>429.0</ele><time>2026-04-06T10:28:18.84Z</time></trkpt><trkpt lat="49.580517" lon="15.2479296"><ele>430.0</ele><time>2026-04-06T10:28:19.841Z</time></trkpt><trkpt lat="49.5805969" lon="15.2480475"><ele>431.0</ele><time>2026-04-06T10:28:20.84Z</time></trkpt><trkpt lat="49.5806561" lon="15.2481645"><ele>432.0</ele><time>2026-04-06T10:28:21.84Z</time></trkpt><trkpt lat="49.580696" lon="15.248252"><ele>433.0</ele><time>2026-04-06T10:28:22.841Z</time></trkpt><trkpt lat="49.5807212" lon="15.2483918"><ele>434.0</ele><time>2026-04-06T10:28:24.841Z</time></trkpt><trkpt lat="49.580729" lon="15.2485426"><ele>434.6</ele><time>2026-04-06T10:28:26.84Z</time></trkpt><trkpt lat="49.5807559" lon="15.2487103"><ele>435.2</ele><time>2026-04-06T10:28:28.84Z</time></trkpt><trkpt lat="49.580776" lon="15.2488568"><ele>435.80000000000007</ele><time>2026-04-06T10:28:30.84Z</time></trkpt><trkpt lat="49.5808346" lon="15.2489278"><ele>436.40000000000003</ele><time>2026-04-06T10:28:32.841Z</time></trkpt><trkpt lat="49.580934" lon="15.2488409"><ele>437.0</ele><time>2026-04-06T10:28:34.84Z</time></trkpt><trkpt lat="49.5810081" lon="15.2487419"><ele>437.0</ele><time>2026-04-06T10:28:35.841Z</time></trkpt><trkpt lat="49.5811122" lon="15.2486077"><ele>437.0</ele><time>2026-04-06T10:28:36.84Z</time></trkpt><trkpt lat="49.581229" lon="15.2484694"><ele>437.0</ele><time>2026-04-06T10:28:37.84Z</time></trkpt><trkpt lat="49.5813399" lon="15.2483131"><ele>437.0</ele><time>2026-04-06T10:28:38.84Z</time></trkpt><trkpt lat="49.5814496" lon="15.2481596"><ele>437.75</ele><time>2026-04-06T10:28:39.84Z</time></trkpt><trkpt lat="49.5815466" lon="15.2479934"><ele>438.5</ele><time>2026-04-06T10:28:40.841Z</time></trkpt><trkpt lat="49.5816266" lon="15.2478069"><ele>439.25</ele><time>2026-04-06T10:28:41.841Z</time></trkpt><trkpt lat="49.5816934" lon="15.2476141"><ele>440.0</ele><time>2026-04-06T10:28:42.84Z</time></trkpt><trkpt lat="49.5817535" lon="15.2474158"><ele>437.5</ele><time>2026-04-06T10:28:43.84Z</time></trkpt><trkpt lat="49.581816" lon="15.2472116"><ele>435.0</ele><time>2026-04-06T10:28:44.841Z</time></trkpt><trkpt lat="49.5818786" lon="15.2470159"><ele>432.5</ele><time>2026-04-06T10:28:45.84Z</time></trkpt><trkpt lat="49.5819392" lon="15.246827"><ele>430.0</ele><time>2026-04-06T10:28:46.841Z</time></trkpt><trkpt lat="49.5820001" lon="15.2466617"><ele>430.6</ele><time>2026-04-06T10:28:47.84Z</time></trkpt><trkpt lat="49.5820529" lon="15.2464996"><ele>431.2</ele><time>2026-04-06T10:28:48.841Z</time></trkpt><trkpt lat="49.5820998" lon="15.2463422"><ele>431.79999999999995</ele><time>2026-04-06T10:28:49.84Z</time></trkpt><trkpt lat="49.5821328" lon="15.2461878"><ele>432.4</ele><time>2026-04-06T10:28:50.84Z</time></trkpt><trkpt lat="49.5821523" lon="15.2460412"><ele>433.0</ele><time>2026-04-06T10:28:51.84Z</time></trkpt><trkpt lat="49.5821622" lon="15.2459015"><ele>431.79999999999995</ele><time>2026-04-06T10:28:52.841Z</time></trkpt><trkpt lat="49.5821806" lon="15.2457676"><ele>430.59999999999997</ele><time>2026-04-06T10:28:53.841Z</time></trkpt><trkpt lat="49.5822051" lon="15.245631"><ele>429.40000000000003</ele><time>2026-04-06T10:28:54.841Z</time></trkpt><trkpt lat="49.5822246" lon="15.2454767"><ele>428.20000000000005</ele><time>2026-04-06T10:28:55.84Z</time></trkpt><trkpt lat="49.5822263" lon="15.2452948"><ele>427.0</ele><time>2026-04-06T10:28:56.84Z</time></trkpt><trkpt lat="49.5822143" lon="15.2450949"><ele>425.25</ele><time>2026-04-06T10:28:57.84Z</time></trkpt><trkpt lat="49.5821819" lon="15.2448565"><ele>423.5</ele><time>2026-04-06T10:28:58.84Z</time></trkpt><trkpt lat="49.5821485" lon="15.2446352"><ele>421.75</ele><time>2026-04-06T10:28:59.841Z</time></trkpt><trkpt lat="49.5821188" lon="15.2444519"><ele>420.0</ele><time>2026-04-06T10:29:00.841Z</time></trkpt><trkpt lat="49.5820996" lon="15.2443078"><ele>418.8</ele><time>2026-04-06T10:29:01.84Z</time></trkpt><trkpt lat="49.5820937" lon="15.2441563"><ele>417.6</ele><time>2026-04-06T10:29:03.84Z</time></trkpt><trkpt lat="49.5821742" lon="15.244216"><ele>416.4</ele><time>2026-04-06T10:29:07.84Z</time></trkpt><trkpt lat="49.5822134" lon="15.244335"><ele>415.2</ele><time>2026-04-06T10:29:08.84Z</time></trkpt><trkpt lat="49.5822388" lon="15.2444964"><ele>414.0</ele><time>2026-04-06T10:29:09.84Z</time></trkpt><trkpt lat="49.5822541" lon="15.2447006"><ele>415.5</ele><time>2026-04-06T10:29:10.841Z</time></trkpt><trkpt lat="49.582256" lon="15.2449251"><ele>417.0</ele><time>2026-04-06T10:29:11.84Z</time></trkpt><trkpt lat="49.5822479" lon="15.245115"><ele>418.5</ele><time>2026-04-06T10:29:12.841Z</time></trkpt><trkpt lat="49.5822395" lon="15.2452942"><ele>420.0</ele><time>2026-04-06T10:29:13.84Z</time></trkpt><trkpt lat="49.5822258" lon="15.2454878"><ele>421.75</ele><time>2026-04-06T10:29:14.84Z</time></trkpt><trkpt lat="49.5822034" lon="15.2456796"><ele>423.5</ele><time>2026-04-06T10:29:15.841Z</time></trkpt><trkpt lat="49.5821788" lon="15.2458904"><ele>425.25</ele><time>2026-04-06T10:29:16.841Z</time></trkpt><trkpt lat="49.5821517" lon="15.2460966"><ele>427.0</ele><time>2026-04-06T10:29:17.84Z</time></trkpt><trkpt lat="49.5821161" lon="15.2462885"><ele>428.0</ele><time>2026-04-06T10:29:18.84Z</time></trkpt><trkpt lat="49.5820664" lon="15.2464909"><ele>429.0</ele><time>2026-04-06T10:29:19.841Z</time></trkpt><trkpt lat="49.5819947" lon="15.2467287"><ele>430.0</ele><time>2026-04-06T10:29:20.841Z</time></trkpt><trkpt lat="49.5819107" lon="15.2469814"><ele>430.0</ele><time>2026-04-06T10:29:21.841Z</time></trkpt><trkpt lat="49.5818316" lon="15.2472158"><ele>430.0</ele><time>2026-04-06T10:29:22.841Z</time></trkpt><trkpt lat="49.5817692" lon="15.247409"><ele>430.0</ele><time>2026-04-06T10:29:23.841Z</time></trkpt><trkpt lat="49.5817163" lon="15.2475784"><ele>430.0</ele><time>2026-04-06T10:29:24.84Z</time></trkpt><trkpt lat="49.5816576" lon="15.2477428"><ele>432.5</ele><time>2026-04-06T10:29:25.84Z</time></trkpt><trkpt lat="49.5815889" lon="15.2479051"><ele>435.0</ele><time>2026-04-06T10:29:26.84Z</time></trkpt><trkpt lat="49.5815161" lon="15.2480562"><ele>437.5</ele><time>2026-04-06T10:29:27.84Z</time></trkpt><trkpt lat="49.5814279" lon="15.248195"><ele>440.0</ele><time>2026-04-06T10:29:28.84Z</time></trkpt><trkpt lat="49.5813284" lon="15.2483309"><ele>440.5</ele><time>2026-04-06T10:29:29.84Z</time></trkpt><trkpt lat="49.5812281" lon="15.2484457"><ele>441.0</ele><time>2026-04-06T10:29:30.841Z</time></trkpt><trkpt lat="49.5811399" lon="15.2485629"><ele>441.5</ele><time>2026-04-06T10:29:31.841Z</time></trkpt><trkpt lat="49.5810526" lon="15.2486644"><ele>442.0</ele><time>2026-04-06T10:29:32.84Z</time></trkpt><trkpt lat="49.5809648" lon="15.248755"><ele>441.20000000000005</ele><time>2026-04-06T10:29:33.841Z</time></trkpt><trkpt lat="49.5809056" lon="15.2488714"><ele>440.40000000000003</ele><time>2026-04-06T10:29:34.841Z</time></trkpt><trkpt lat="49.5808628" lon="15.2489983"><ele>439.59999999999997</ele><time>2026-04-06T10:29:35.841Z</time></trkpt><trkpt lat="49.5808524" lon="15.2491265"><ele>438.79999999999995</ele><time>2026-04-06T10:29:36.84Z</time></trkpt><trkpt lat="49.5808564" lon="15.2492875"><ele>438.0</ele><time>2026-04-06T10:29:37.841Z</time></trkpt><trkpt lat="49.5808596" lon="15.2494418"><ele>438.0</ele><time>2026-04-06T10:29:38.84Z</time></trkpt><trkpt lat="49.5808688" lon="15.2495993"><ele>437.99999999999994</ele><time>2026-04-06T10:29:39.841Z</time></trkpt><trkpt lat="49.5808766" lon="15.2497297"><ele>437.99999999999994</ele><time>2026-04-06T10:29:40.841Z</time></trkpt><trkpt lat="49.5809015" lon="15.2498431"><ele>438.0</ele><time>2026-04-06T10:29:41.84Z</time></trkpt><trkpt lat="49.5809423" lon="15.249943"><ele>438.0</ele><time>2026-04-06T10:29:42.84Z</time></trkpt><trkpt lat="49.5810654" lon="15.2499913"><ele>438.2</ele><time>2026-04-06T10:29:44.841Z</time></trkpt><trkpt lat="49.5811312" lon="15.2499366"><ele>438.4</ele><time>2026-04-06T10:29:45.84Z</time></trkpt><trkpt lat="49.5812091" lon="15.2498771"><ele>438.59999999999997</ele><time>2026-04-06T10:29:46.84Z</time></trkpt><trkpt lat="49.5812832" lon="15.2498144"><ele>438.79999999999995</ele><time>2026-04-06T10:29:47.841Z</time></trkpt><trkpt lat="49.5813791" lon="15.2497096"><ele>439.0</ele><time>2026-04-06T10:29:48.84Z</time></trkpt><trkpt lat="49.5814864" lon="15.2495383"><ele>441.0</ele><time>2026-04-06T10:29:49.841Z</time></trkpt><trkpt lat="49.5815928" lon="15.2493467"><ele>443.0</ele><time>2026-04-06T10:29:50.84Z</time></trkpt><trkpt lat="49.5817066" lon="15.2491673"><ele>445.0</ele><time>2026-04-06T10:29:51.84Z</time></trkpt><trkpt lat="49.5818134" lon="15.2490238"><ele>445.0</ele><time>2026-04-06T10:29:52.841Z</time></trkpt><trkpt lat="49.5819209" lon="15.248915"><ele>445.0</ele><time>2026-04-06T10:29:53.84Z</time></trkpt><trkpt lat="49.5820476" lon="15.2488336"><ele>445.0</ele><time>2026-04-06T10:29:54.841Z</time></trkpt><trkpt lat="49.5822017" lon="15.2487502"><ele>445.0</ele><time>2026-04-06T10:29:55.841Z</time></trkpt><trkpt lat="49.582387" lon="15.2486676"><ele>445.0</ele><time>2026-04-06T10:29:56.841Z</time></trkpt><trkpt lat="49.5825901" lon="15.2485932"><ele>445.0</ele><time>2026-04-06T10:29:57.84Z</time></trkpt><trkpt lat="49.5827912" lon="15.2485204"><ele>445.0</ele><time>2026-04-06T10:29:58.841Z</time></trkpt><trkpt lat="49.5829897" lon="15.2484379"><ele>446.33333333333337</ele><time>2026-04-06T10:29:59.841Z</time></trkpt><trkpt lat="49.5831802" lon="15.2483513"><ele>447.66666666666663</ele><time>2026-04-06T10:30:00.84Z</time></trkpt><trkpt lat="49.5833777" lon="15.2482613"><ele>449.0</ele><time>2026-04-06T10:30:01.841Z</time></trkpt><trkpt lat="49.5835833" lon="15.2481842"><ele>447.66666666666663</ele><time>2026-04-06T10:30:02.84Z</time></trkpt><trkpt lat="49.5837863" lon="15.2481021"><ele>446.33333333333337</ele><time>2026-04-06T10:30:03.84Z</time></trkpt><trkpt lat="49.583994" lon="15.248012"><ele>445.0</ele><time>2026-04-06T10:30:04.84Z</time></trkpt><trkpt lat="49.5842053" lon="15.2479154"><ele>445.0</ele><time>2026-04-06T10:30:05.84Z</time></trkpt><trkpt lat="49.584423" lon="15.2478189"><ele>445.0</ele><time>2026-04-06T10:30:06.841Z</time></trkpt><trkpt lat="49.5846432" lon="15.2477297"><ele>446.0</ele><time>2026-04-06T10:30:07.84Z</time></trkpt><trkpt lat="49.5848691" lon="15.24763"><ele>447.0</ele><time>2026-04-06T10:30:08.841Z</time></trkpt><trkpt lat="49.5850908" lon="15.2475336"><ele>447.0</ele><time>2026-04-06T10:30:09.841Z</time></trkpt><trkpt lat="49.5853013" lon="15.2474431"><ele>447.0</ele><time>2026-04-06T10:30:10.841Z</time></trkpt><trkpt lat="49.5854995" lon="15.2473578"><ele>447.0</ele><time>2026-04-06T10:30:11.84Z</time></trkpt><trkpt lat="49.5856863" lon="15.2472844"><ele>445.66666666666663</ele><time>2026-04-06T10:30:12.841Z</time></trkpt><trkpt lat="49.5858602" lon="15.2472064"><ele>444.3333333333333</ele><time>2026-04-06T10:30:13.841Z</time></trkpt><trkpt lat="49.5860199" lon="15.247131"><ele>443.0</ele><time>2026-04-06T10:30:14.841Z</time></trkpt><trkpt lat="49.5861688" lon="15.2470667"><ele>445.25</ele><time>2026-04-06T10:30:15.841Z</time></trkpt><trkpt lat="49.5863045" lon="15.2470137"><ele>447.5</ele><time>2026-04-06T10:30:16.841Z</time></trkpt><trkpt lat="49.5864236" lon="15.24697"><ele>449.75</ele><time>2026-04-06T10:30:17.841Z</time></trkpt><trkpt lat="49.5865309" lon="15.2469505"><ele>452.0</ele><time>2026-04-06T10:30:18.84Z</time></trkpt><trkpt lat="49.5866366" lon="15.2469466"><ele>452.0</ele><time>2026-04-06T10:30:19.84Z</time></trkpt><trkpt lat="49.5867363" lon="15.2469544"><ele>452.00000000000006</ele><time>2026-04-06T10:30:20.84Z</time></trkpt><trkpt lat="49.5868283" lon="15.2469538"><ele>452.00000000000006</ele><time>2026-04-06T10:30:21.841Z</time></trkpt><trkpt lat="49.5869165" lon="15.2469156"><ele>452.0</ele><time>2026-04-06T10:30:22.84Z</time></trkpt><trkpt lat="49.5869892" lon="15.2468436"><ele>452.0</ele><time>2026-04-06T10:30:23.84Z</time></trkpt><trkpt lat="49.5870626" lon="15.2467447"><ele>453.0</ele><time>2026-04-06T10:30:24.84Z</time></trkpt><trkpt lat="49.5871395" lon="15.2465772"><ele>454.0</ele><time>2026-04-06T10:30:25.84Z</time></trkpt><trkpt lat="49.5872188" lon="15.2463815"><ele>455.0</ele><time>2026-04-06T10:30:26.84Z</time></trkpt><trkpt lat="49.5873009" lon="15.2461831"><ele>456.0</ele><time>2026-04-06T10:30:27.841Z</time></trkpt><trkpt lat="49.5873924" lon="15.2459918"><ele>457.0</ele><time>2026-04-06T10:30:28.84Z</time></trkpt><trkpt lat="49.587487" lon="15.2458073"><ele>458.0</ele><time>2026-04-06T10:30:29.84Z</time></trkpt><trkpt lat="49.5875909" lon="15.2456318"><ele>459.0</ele><time>2026-04-06T10:30:30.841Z</time></trkpt><trkpt lat="49.5876982" lon="15.2454774"><ele>457.0</ele><time>2026-04-06T10:30:31.84Z</time></trkpt><trkpt lat="49.5878197" lon="15.2453449"><ele>455.0</ele><time>2026-04-06T10:30:32.84Z</time></trkpt><trkpt lat="49.5879666" lon="15.2452116"><ele>453.0</ele><time>2026-04-06T10:30:33.841Z</time></trkpt><trkpt lat="49.5881168" lon="15.2450642"><ele>451.75</ele><time>2026-04-06T10:30:34.841Z</time></trkpt><trkpt lat="49.58825" lon="15.2449206"><ele>450.5</ele><time>2026-04-06T10:30:35.84Z</time></trkpt><trkpt lat="49.5883582" lon="15.2447839"><ele>449.25</ele><time>2026-04-06T10:30:36.841Z</time></trkpt><trkpt lat="49.5884469" lon="15.2446499"><ele>448.0</ele><time>2026-04-06T10:30:37.841Z</time></trkpt><trkpt lat="49.5885033" lon="15.2445059"><ele>448.0</ele><time>2026-04-06T10:30:38.841Z</time></trkpt><trkpt lat="49.5885517" lon="15.2443525"><ele>448.0</ele><time>2026-04-06T10:30:39.84Z</time></trkpt><trkpt lat="49.588621" lon="15.2442375"><ele>448.0</ele><time>2026-04-06T10:30:40.841Z</time></trkpt><trkpt lat="49.5887067" lon="15.2441075"><ele>448.0</ele><time>2026-04-06T10:30:41.841Z</time></trkpt><trkpt lat="49.5888217" lon="15.2439728"><ele>447.0</ele><time>2026-04-06T10:30:42.841Z</time></trkpt><trkpt lat="49.5889335" lon="15.2438645"><ele>445.99999999999994</ele><time>2026-04-06T10:30:43.841Z</time></trkpt><trkpt lat="49.5890295" lon="15.2438111"><ele>444.99999999999994</ele><time>2026-04-06T10:30:44.84Z</time></trkpt><trkpt lat="49.5891038" lon="15.2438097"><ele>444.0</ele><time>2026-04-06T10:30:45.841Z</time></trkpt><trkpt lat="49.5891758" lon="15.2438392"><ele>443.0</ele><time>2026-04-06T10:30:46.84Z</time></trkpt><trkpt lat="49.589254" lon="15.2439074"><ele>444.25</ele><time>2026-04-06T10:30:47.84Z</time></trkpt><trkpt lat="49.5893535" lon="15.2440054"><ele>445.5</ele><time>2026-04-06T10:30:48.841Z</time></trkpt><trkpt lat="49.5894621" lon="15.2441063"><ele>446.75</ele><time>2026-04-06T10:30:49.84Z</time></trkpt><trkpt lat="49.5895733" lon="15.2442124"><ele>448.0</ele><time>2026-04-06T10:30:50.841Z</time></trkpt><trkpt lat="49.5896748" lon="15.2442973"><ele>449.0</ele><time>2026-04-06T10:30:51.841Z</time></trkpt><trkpt lat="49.5897568" lon="15.2443541"><ele>449.99999999999994</ele><time>2026-04-06T10:30:52.84Z</time></trkpt><trkpt lat="49.5898342" lon="15.2443838"><ele>450.99999999999994</ele><time>2026-04-06T10:30:53.84Z</time></trkpt><trkpt lat="49.5899368" lon="15.2443732"><ele>452.0</ele><time>2026-04-06T10:30:54.841Z</time></trkpt><trkpt lat="49.5900872" lon="15.2443292"><ele>453.0</ele><time>2026-04-06T10:30:55.841Z</time></trkpt><trkpt lat="49.5902518" lon="15.2442691"><ele>453.75</ele><time>2026-04-06T10:30:56.841Z</time></trkpt><trkpt lat="49.5904006" lon="15.2442058"><ele>454.5</ele><time>2026-04-06T10:30:57.841Z</time></trkpt><trkpt lat="49.5905266" lon="15.2441107"><ele>455.25</ele><time>2026-04-06T10:30:58.841Z</time></trkpt><trkpt lat="49.5906334" lon="15.2439855"><ele>456.0</ele><time>2026-04-06T10:30:59.84Z</time></trkpt><trkpt lat="49.5907294" lon="15.2438254"><ele>456.0</ele><time>2026-04-06T10:31:00.841Z</time></trkpt><trkpt lat="49.5908299" lon="15.2436229"><ele>456.0</ele><time>2026-04-06T10:31:01.841Z</time></trkpt><trkpt lat="49.5909309" lon="15.2434395"><ele>456.0</ele><time>2026-04-06T10:31:02.84Z</time></trkpt><trkpt lat="49.5910321" lon="15.2433045"><ele>456.0</ele><time>2026-04-06T10:31:03.84Z</time></trkpt><trkpt lat="49.591133" lon="15.2432018"><ele>456.0</ele><time>2026-04-06T10:31:04.84Z</time></trkpt><trkpt lat="49.5912659" lon="15.2431041"><ele>456.0</ele><time>2026-04-06T10:31:05.841Z</time></trkpt><trkpt lat="49.5913845" lon="15.2429823"><ele>456.0</ele><time>2026-04-06T10:31:06.841Z</time></trkpt><trkpt lat="49.5914984" lon="15.242812"><ele>456.66666666666663</ele><time>2026-04-06T10:31:07.841Z</time></trkpt><trkpt lat="49.591599" lon="15.2426232"><ele>457.3333333333333</ele><time>2026-04-06T10:31:08.84Z</time></trkpt><trkpt lat="49.5916904" lon="15.2424261"><ele>458.0</ele><time>2026-04-06T10:31:09.841Z</time></trkpt><trkpt lat="49.591798" lon="15.2422162"><ele>459.66666666666663</ele><time>2026-04-06T10:31:10.841Z</time></trkpt><trkpt lat="49.5919244" lon="15.2419847"><ele>461.33333333333337</ele><time>2026-04-06T10:31:11.841Z</time></trkpt><trkpt lat="49.592059" lon="15.2417543"><ele>463.0</ele><time>2026-04-06T10:31:12.84Z</time></trkpt><trkpt lat="49.5921895" lon="15.2415446"><ele>460.33333333333337</ele><time>2026-04-06T10:31:13.841Z</time></trkpt><trkpt lat="49.5923185" lon="15.2413231"><ele>457.66666666666663</ele><time>2026-04-06T10:31:14.84Z</time></trkpt><trkpt lat="49.5924419" lon="15.2410955"><ele>455.0</ele><time>2026-04-06T10:31:15.841Z</time></trkpt><trkpt lat="49.59256" lon="15.2408833"><ele>455.0</ele><time>2026-04-06T10:31:16.84Z</time></trkpt><trkpt lat="49.5926776" lon="15.2406893"><ele>455.0</ele><time>2026-04-06T10:31:17.841Z</time></trkpt><trkpt lat="49.5927924" lon="15.2405004"><ele>455.0</ele><time>2026-04-06T10:31:18.84Z</time></trkpt><trkpt lat="49.5929013" lon="15.2403134"><ele>455.5</ele><time>2026-04-06T10:31:19.841Z</time></trkpt><trkpt lat="49.5929851" lon="15.2401331"><ele>456.0</ele><time>2026-04-06T10:31:20.84Z</time></trkpt><trkpt lat="49.5930415" lon="15.2399422"><ele>456.5</ele><time>2026-04-06T10:31:21.84Z</time></trkpt><trkpt lat="49.5930787" lon="15.2397551"><ele>457.0</ele><time>2026-04-06T10:31:22.84Z</time></trkpt><trkpt lat="49.5930979" lon="15.2395647"><ele>457.0</ele><time>2026-04-06T10:31:23.84Z</time></trkpt><trkpt lat="49.5930951" lon="15.2393644"><ele>457.0</ele><time>2026-04-06T10:31:24.84Z</time></trkpt><trkpt lat="49.5930751" lon="15.239148"><ele>457.0</ele><time>2026-04-06T10:31:25.841Z</time></trkpt><trkpt lat="49.5930649" lon="15.2389068"><ele>457.0</ele><time>2026-04-06T10:31:26.84Z</time></trkpt><trkpt lat="49.5930585" lon="15.2386649"><ele>456.8</ele><time>2026-04-06T10:31:27.84Z</time></trkpt><trkpt lat="49.5930502" lon="15.2384437"><ele>456.6</ele><time>2026-04-06T10:31:28.841Z</time></trkpt><trkpt lat="49.5930555" lon="15.2382524"><ele>456.40000000000003</ele><time>2026-04-06T10:31:29.84Z</time></trkpt><trkpt lat="49.5930898" lon="15.2381113"><ele>456.20000000000005</ele><time>2026-04-06T10:31:30.84Z</time></trkpt><trkpt lat="49.5931238" lon="15.2380162"><ele>456.0</ele><time>2026-04-06T10:31:31.84Z</time></trkpt><trkpt lat="49.5932015" lon="15.2379609"><ele>456.0</ele><time>2026-04-06T10:31:33.84Z</time></trkpt><trkpt lat="49.5932496" lon="15.2380507"><ele>456.0</ele><time>2026-04-06T10:31:35.847Z</time></trkpt><trkpt lat="49.5932428" lon="15.2382643"><ele>456.0</ele><time>2026-04-06T10:31:37.846Z</time></trkpt><trkpt lat="49.5932421" lon="15.2384032"><ele>456.0</ele><time>2026-04-06T10:31:38.847Z</time></trkpt><trkpt lat="49.5932594" lon="15.2385429"><ele>456.0</ele><time>2026-04-06T10:31:39.847Z</time></trkpt><trkpt lat="49.5932856" lon="15.2386528"><ele>456.0</ele><time>2026-04-06T10:31:40.846Z</time></trkpt><trkpt lat="49.593373" lon="15.2387626"><ele>456.0</ele><time>2026-04-06T10:31:42.847Z</time></trkpt><trkpt lat="49.5934854" lon="15.2386936"><ele>456.0</ele><time>2026-04-06T10:31:44.847Z</time></trkpt><trkpt lat="49.5935442" lon="15.2385927"><ele>456.0</ele><time>2026-04-06T10:31:45.846Z</time></trkpt><trkpt lat="49.593618" lon="15.2384555"><ele>456.0</ele><time>2026-04-06T10:31:46.846Z</time></trkpt><trkpt lat="49.5937164" lon="15.2383072"><ele>457.66666666666663</ele><time>2026-04-06T10:31:47.847Z</time></trkpt><trkpt lat="49.5938286" lon="15.2381536"><ele>459.3333333333333</ele><time>2026-04-06T10:31:48.846Z</time></trkpt><trkpt lat="49.5939565" lon="15.238002"><ele>461.0</ele><time>2026-04-06T10:31:49.847Z</time></trkpt><trkpt lat="49.5940919" lon="15.2378421"><ele>461.0</ele><time>2026-04-06T10:31:50.847Z</time></trkpt><trkpt lat="49.5942305" lon="15.2376748"><ele>461.0</ele><time>2026-04-06T10:31:51.847Z</time></trkpt><trkpt lat="49.5943735" lon="15.2374985"><ele>461.0</ele><time>2026-04-06T10:31:52.847Z</time></trkpt><trkpt lat="49.594522" lon="15.2373158"><ele>460.66666666666663</ele><time>2026-04-06T10:31:53.847Z</time></trkpt><trkpt lat="49.594675" lon="15.2371165"><ele>460.33333333333337</ele><time>2026-04-06T10:31:54.846Z</time></trkpt><trkpt lat="49.5948328" lon="15.236905"><ele>460.0</ele><time>2026-04-06T10:31:55.847Z</time></trkpt><trkpt lat="49.59499" lon="15.2366796"><ele>460.0</ele><time>2026-04-06T10:31:56.846Z</time></trkpt><trkpt lat="49.5951483" lon="15.2364469"><ele>460.0</ele><time>2026-04-06T10:31:57.847Z</time></trkpt><trkpt lat="49.595307" lon="15.2362059"><ele>460.0</ele><time>2026-04-06T10:31:58.846Z</time></trkpt><trkpt lat="49.5954603" lon="15.2359601"><ele>460.0</ele><time>2026-04-06T10:31:59.847Z</time></trkpt><trkpt lat="49.5956086" lon="15.2357173"><ele>460.0</ele><time>2026-04-06T10:32:00.846Z</time></trkpt><trkpt lat="49.5957527" lon="15.2354634"><ele>460.0</ele><time>2026-04-06T10:32:01.847Z</time></trkpt><trkpt lat="49.5958859" lon="15.235202"><ele>459.33333333333337</ele><time>2026-04-06T10:32:02.847Z</time></trkpt><trkpt lat="49.5960129" lon="15.2349413"><ele>458.66666666666663</ele><time>2026-04-06T10:32:03.846Z</time></trkpt><trkpt lat="49.5961375" lon="15.2346838"><ele>458.0</ele><time>2026-04-06T10:32:04.846Z</time></trkpt><trkpt lat="49.5962582" lon="15.2344189"><ele>458.0</ele><time>2026-04-06T10:32:05.846Z</time></trkpt><trkpt lat="49.5963797" lon="15.2341531"><ele>458.0</ele><time>2026-04-06T10:32:06.847Z</time></trkpt><trkpt lat="49.5965006" lon="15.2338831"><ele>458.0</ele><time>2026-04-06T10:32:07.846Z</time></trkpt><trkpt lat="49.5966202" lon="15.2336135"><ele>456.66666666666663</ele><time>2026-04-06T10:32:08.847Z</time></trkpt><trkpt lat="49.5967344" lon="15.2333432"><ele>455.33333333333337</ele><time>2026-04-06T10:32:09.847Z</time></trkpt><trkpt lat="49.5968437" lon="15.2330729"><ele>454.0</ele><time>2026-04-06T10:32:10.847Z</time></trkpt><trkpt lat="49.5969537" lon="15.2328095"><ele>454.33333333333337</ele><time>2026-04-06T10:32:11.847Z</time></trkpt><trkpt lat="49.5970585" lon="15.2325435"><ele>454.66666666666663</ele><time>2026-04-06T10:32:12.847Z</time></trkpt><trkpt lat="49.5971546" lon="15.232275"><ele>455.0</ele><time>2026-04-06T10:32:13.847Z</time></trkpt><trkpt lat="49.5972482" lon="15.2320076"><ele>455.0</ele><time>2026-04-06T10:32:14.846Z</time></trkpt><trkpt lat="49.597341" lon="15.2317405"><ele>455.0</ele><time>2026-04-06T10:32:15.846Z</time></trkpt><trkpt lat="49.5974363" lon="15.2314713"><ele>455.0</ele><time>2026-04-06T10:32:16.847Z</time></trkpt><trkpt lat="49.5975285" lon="15.2311983"><ele>454.66666666666663</ele><time>2026-04-06T10:32:17.847Z</time></trkpt><trkpt lat="49.5976145" lon="15.2309179"><ele>454.33333333333337</ele><time>2026-04-06T10:32:18.846Z</time></trkpt><trkpt lat="49.5976998" lon="15.2306268"><ele>454.0</ele><time>2026-04-06T10:32:19.846Z</time></trkpt><trkpt lat="49.5977874" lon="15.2303305"><ele>453.0</ele><time>2026-04-06T10:32:20.846Z</time></trkpt><trkpt lat="49.5978776" lon="15.2300219"><ele>452.0</ele><time>2026-04-06T10:32:21.847Z</time></trkpt><trkpt lat="49.5979667" lon="15.2297072"><ele>451.0</ele><time>2026-04-06T10:32:22.846Z</time></trkpt><trkpt lat="49.598054" lon="15.2293823"><ele>451.0</ele><time>2026-04-06T10:32:23.846Z</time></trkpt><trkpt lat="49.598138" lon="15.2290477"><ele>451.0</ele><time>2026-04-06T10:32:24.846Z</time></trkpt><trkpt lat="49.5982188" lon="15.2287065"><ele>450.0</ele><time>2026-04-06T10:32:25.847Z</time></trkpt><trkpt lat="49.5982967" lon="15.2283615"><ele>449.0</ele><time>2026-04-06T10:32:26.847Z</time></trkpt><trkpt lat="49.5983794" lon="15.2280173"><ele>449.0</ele><time>2026-04-06T10:32:27.846Z</time></trkpt><trkpt lat="49.5984578" lon="15.2276733"><ele>449.0</ele><time>2026-04-06T10:32:28.846Z</time></trkpt><trkpt lat="49.5985332" lon="15.2273251"><ele>450.5</ele><time>2026-04-06T10:32:29.846Z</time></trkpt><trkpt lat="49.5986005" lon="15.2269762"><ele>452.0</ele><time>2026-04-06T10:32:30.846Z</time></trkpt><trkpt lat="49.5986577" lon="15.226622"><ele>448.5</ele><time>2026-04-06T10:32:31.847Z</time></trkpt><trkpt lat="49.5987033" lon="15.2262651"><ele>445.0</ele><time>2026-04-06T10:32:32.846Z</time></trkpt><trkpt lat="49.5987435" lon="15.2259073"><ele>445.5</ele><time>2026-04-06T10:32:33.846Z</time></trkpt><trkpt lat="49.5987757" lon="15.2255508"><ele>446.0</ele><time>2026-04-06T10:32:34.846Z</time></trkpt><trkpt lat="49.5987949" lon="15.22519"><ele>446.0</ele><time>2026-04-06T10:32:35.846Z</time></trkpt><trkpt lat="49.5987782" lon="15.2248154"><ele>446.0</ele><time>2026-04-06T10:32:36.846Z</time></trkpt><trkpt lat="49.5987381" lon="15.2244345"><ele>447.0</ele><time>2026-04-06T10:32:37.846Z</time></trkpt><trkpt lat="49.5986865" lon="15.2240461"><ele>448.0</ele><time>2026-04-06T10:32:38.846Z</time></trkpt><trkpt lat="49.5986297" lon="15.2236565"><ele>450.0</ele><time>2026-04-06T10:32:39.846Z</time></trkpt><trkpt lat="49.5985678" lon="15.2232703"><ele>452.0</ele><time>2026-04-06T10:32:40.846Z</time></trkpt><trkpt lat="49.5985293" lon="15.2228888"><ele>452.0</ele><time>2026-04-06T10:32:41.846Z</time></trkpt><trkpt lat="49.5985084" lon="15.2224888"><ele>452.0</ele><time>2026-04-06T10:32:42.847Z</time></trkpt><trkpt lat="49.5985035" lon="15.2220842"><ele>452.0</ele><time>2026-04-06T10:32:43.847Z</time></trkpt><trkpt lat="49.5985159" lon="15.2216788"><ele>452.0</ele><time>2026-04-06T10:32:44.846Z</time></trkpt><trkpt lat="49.5985261" lon="15.2212944"><ele>451.5</ele><time>2026-04-06T10:32:45.846Z</time></trkpt><trkpt lat="49.598534" lon="15.2209245"><ele>451.0</ele><time>2026-04-06T10:32:46.846Z</time></trkpt><trkpt lat="49.5985312" lon="15.2205803"><ele>450.33333333333337</ele><time>2026-04-06T10:32:47.846Z</time></trkpt><trkpt lat="49.5985183" lon="15.2202402"><ele>449.66666666666663</ele><time>2026-04-06T10:32:48.846Z</time></trkpt><trkpt lat="49.5984872" lon="15.2198992"><ele>449.0</ele><time>2026-04-06T10:32:49.846Z</time></trkpt><trkpt lat="49.5984448" lon="15.21955"><ele>447.5</ele><time>2026-04-06T10:32:50.846Z</time></trkpt><trkpt lat="49.5984011" lon="15.2191979"><ele>446.0</ele><time>2026-04-06T10:32:51.847Z</time></trkpt><trkpt lat="49.5983545" lon="15.2188486"><ele>443.5</ele><time>2026-04-06T10:32:52.846Z</time></trkpt><trkpt lat="49.598298" lon="15.2185006"><ele>441.0</ele><time>2026-04-06T10:32:53.847Z</time></trkpt><trkpt lat="49.5982293" lon="15.2181504"><ele>438.0</ele><time>2026-04-06T10:32:54.846Z</time></trkpt><trkpt lat="49.5981515" lon="15.2178008"><ele>435.0</ele><time>2026-04-06T10:32:55.846Z</time></trkpt><trkpt lat="49.5980669" lon="15.2174381"><ele>433.0</ele><time>2026-04-06T10:32:56.847Z</time></trkpt><trkpt lat="49.5979848" lon="15.2170823"><ele>431.0</ele><time>2026-04-06T10:32:57.846Z</time></trkpt><trkpt lat="49.597893" lon="15.2167208"><ele>423.5</ele><time>2026-04-06T10:32:58.847Z</time></trkpt><trkpt lat="49.5977888" lon="15.2163654"><ele>416.0</ele><time>2026-04-06T10:32:59.847Z</time></trkpt><trkpt lat="49.5976771" lon="15.2160186"><ele>416.0</ele><time>2026-04-06T10:33:00.847Z</time></trkpt><trkpt lat="49.5975638" lon="15.2156747"><ele>416.0</ele><time>2026-04-06T10:33:01.846Z</time></trkpt><trkpt lat="49.5974457" lon="15.2153317"><ele>416.5</ele><time>2026-04-06T10:33:02.847Z</time></trkpt><trkpt lat="49.5973295" lon="15.2149997"><ele>417.0</ele><time>2026-04-06T10:33:03.847Z</time></trkpt><trkpt lat="49.5972139" lon="15.214679"><ele>417.0</ele><time>2026-04-06T10:33:04.846Z</time></trkpt><trkpt lat="49.5970977" lon="15.2143668"><ele>417.0</ele><time>2026-04-06T10:33:05.846Z</time></trkpt><trkpt lat="49.5969809" lon="15.2140649"><ele>409.5</ele><time>2026-04-06T10:33:06.846Z</time></trkpt><trkpt lat="49.5968631" lon="15.2137598"><ele>402.0</ele><time>2026-04-06T10:33:07.847Z</time></trkpt><trkpt lat="49.5967512" lon="15.2134574"><ele>403.5</ele><time>2026-04-06T10:33:08.847Z</time></trkpt><trkpt lat="49.596645" lon="15.2131481"><ele>405.0</ele><time>2026-04-06T10:33:09.847Z</time></trkpt><trkpt lat="49.5965393" lon="15.2128389"><ele>405.0</ele><time>2026-04-06T10:33:10.846Z</time></trkpt><trkpt lat="49.5964359" lon="15.2125355"><ele>405.0</ele><time>2026-04-06T10:33:11.847Z</time></trkpt><trkpt lat="49.5963314" lon="15.2122341"><ele>405.0</ele><time>2026-04-06T10:33:12.847Z</time></trkpt><trkpt lat="49.5962375" lon="15.2119353"><ele>402.33333333333337</ele><time>2026-04-06T10:33:13.846Z</time></trkpt><trkpt lat="49.5961437" lon="15.2116452"><ele>399.6666666666667</ele><time>2026-04-06T10:33:14.847Z</time></trkpt><trkpt lat="49.5960623" lon="15.211357"><ele>397.0</ele><time>2026-04-06T10:33:15.846Z</time></trkpt><trkpt lat="49.5959947" lon="15.2110816"><ele>397.0</ele><time>2026-04-06T10:33:16.846Z</time></trkpt><trkpt lat="49.5959366" lon="15.2108258"><ele>397.0</ele><time>2026-04-06T10:33:17.847Z</time></trkpt><trkpt lat="49.5958929" lon="15.2106329"><ele>397.0</ele><time>2026-04-06T10:33:18.846Z</time></trkpt><trkpt lat="49.5958656" lon="15.2105187"><ele>397.0</ele><time>2026-04-06T10:33:19.846Z</time></trkpt><trkpt lat="49.5958226" lon="15.2104097"><ele>396.83333333333337</ele><time>2026-04-06T10:33:21.846Z</time></trkpt><trkpt lat="49.5957848" lon="15.210331"><ele>396.6666666666667</ele><time>2026-04-06T10:33:25.846Z</time></trkpt><trkpt lat="49.5958066" lon="15.2102141"><ele>396.5</ele><time>2026-04-06T10:33:38.846Z</time></trkpt><trkpt lat="49.5958366" lon="15.2100903"><ele>396.33333333333337</ele><time>2026-04-06T10:33:41.847Z</time></trkpt><trkpt lat="49.5958299" lon="15.2099766"><ele>396.1666666666667</ele><time>2026-04-06T10:33:42.846Z</time></trkpt><trkpt lat="49.5958304" lon="15.2098028"><ele>396.0</ele><time>2026-04-06T10:33:43.846Z</time></trkpt><trkpt lat="49.5958323" lon="15.2096318"><ele>395.5</ele><time>2026-04-06T10:33:44.846Z</time></trkpt><trkpt lat="49.5958291" lon="15.209444"><ele>395.0</ele><time>2026-04-06T10:33:45.847Z</time></trkpt><trkpt lat="49.5958196" lon="15.2092706"><ele>394.5</ele><time>2026-04-06T10:33:46.846Z</time></trkpt><trkpt lat="49.5958262" lon="15.2090936"><ele>394.0</ele><time>2026-04-06T10:33:47.847Z</time></trkpt><trkpt lat="49.5958546" lon="15.208936"><ele>392.0</ele><time>2026-04-06T10:33:48.846Z</time></trkpt><trkpt lat="49.5959093" lon="15.2087789"><ele>390.0</ele><time>2026-04-06T10:33:49.846Z</time></trkpt><trkpt lat="49.5959641" lon="15.20864"><ele>388.0</ele><time>2026-04-06T10:33:50.847Z</time></trkpt><trkpt lat="49.5960045" lon="15.2085367"><ele>386.0</ele><time>2026-04-06T10:33:51.847Z</time></trkpt><trkpt lat="49.5960741" lon="15.2084583"><ele>384.0</ele><time>2026-04-06T10:33:53.846Z</time></trkpt><trkpt lat="49.5961718" lon="15.2085185"><ele>384.0</ele><time>2026-04-06T10:33:55.846Z</time></trkpt><trkpt lat="49.5962893" lon="15.2086193"><ele>384.0</ele><time>2026-04-06T10:33:57.847Z</time></trkpt><trkpt lat="49.5962443" lon="15.2086907"><ele>384.0</ele><time>2026-04-06T10:37:22.846Z</time></trkpt><trkpt lat="49.5961527" lon="15.2086859"><ele>384.0</ele><time>2026-04-06T10:37:25.846Z</time></trkpt><trkpt lat="49.5960664" lon="15.2086966"><ele>384.0</ele><time>2026-04-06T10:37:27.846Z</time></trkpt><trkpt lat="49.5959826" lon="15.2087118"><ele>384.0</ele><time>2026-04-06T10:37:30.848Z</time></trkpt><trkpt lat="49.5959524" lon="15.2084036"><ele>384.0</ele><time>2026-04-06T10:37:32.848Z</time></trkpt><trkpt lat="49.5959348" lon="15.2081062"><ele>384.0</ele><time>2026-04-06T10:37:33.848Z</time></trkpt><trkpt lat="49.5959151" lon="15.2077468"><ele>386.0</ele><time>2026-04-06T10:37:34.847Z</time></trkpt><trkpt lat="49.5959367" lon="15.2072494"><ele>388.0</ele><time>2026-04-06T10:37:35.847Z</time></trkpt><trkpt lat="49.5959447" lon="15.2068853"><ele>388.0</ele><time>2026-04-06T10:37:36.847Z</time></trkpt><trkpt lat="49.5959666" lon="15.2066844"><ele>388.0</ele><time>2026-04-06T10:37:37.847Z</time></trkpt><trkpt lat="49.5959626" lon="15.2065004"><ele>388.0</ele><time>2026-04-06T10:37:38.848Z</time></trkpt><trkpt lat="49.5959907" lon="15.2063395"><ele>388.0</ele><time>2026-04-06T10:37:39.848Z</time></trkpt><trkpt lat="49.5960374" lon="15.2061762"><ele>389.25</ele><time>2026-04-06T10:37:40.848Z</time></trkpt><trkpt lat="49.596106" lon="15.2059999"><ele>390.5</ele><time>2026-04-06T10:37:41.848Z</time></trkpt><trkpt lat="49.596188" lon="15.2058051"><ele>391.75</ele><time>2026-04-06T10:37:42.847Z</time></trkpt><trkpt lat="49.5962716" lon="15.2056046"><ele>393.0</ele><time>2026-04-06T10:37:43.847Z</time></trkpt><trkpt lat="49.5963811" lon="15.2054089"><ele>395.0</ele><time>2026-04-06T10:37:44.848Z</time></trkpt><trkpt lat="49.5964688" lon="15.2051733"><ele>397.0</ele><time>2026-04-06T10:37:45.847Z</time></trkpt><trkpt lat="49.5965392" lon="15.2049415"><ele>399.0</ele><time>2026-04-06T10:37:46.847Z</time></trkpt><trkpt lat="49.5965823" lon="15.2046939"><ele>401.66666666666663</ele><time>2026-04-06T10:37:47.847Z</time></trkpt><trkpt lat="49.5966244" lon="15.2044326"><ele>404.3333333333333</ele><time>2026-04-06T10:37:48.848Z</time></trkpt><trkpt lat="49.5966711" lon="15.204177"><ele>407.0</ele><time>2026-04-06T10:37:49.848Z</time></trkpt><trkpt lat="49.596716" lon="15.2039073"><ele>409.3333333333333</ele><time>2026-04-06T10:37:50.847Z</time></trkpt><trkpt lat="49.596761" lon="15.2036286"><ele>411.66666666666663</ele><time>2026-04-06T10:37:51.847Z</time></trkpt><trkpt lat="49.5968066" lon="15.2033326"><ele>414.0</ele><time>2026-04-06T10:37:52.848Z</time></trkpt><trkpt lat="49.5968526" lon="15.203035"><ele>415.0</ele><time>2026-04-06T10:37:53.848Z</time></trkpt><trkpt lat="49.5969057" lon="15.2027391"><ele>416.0</ele><time>2026-04-06T10:37:54.848Z</time></trkpt><trkpt lat="49.5969559" lon="15.2024431"><ele>417.0</ele><time>2026-04-06T10:37:55.847Z</time></trkpt><trkpt lat="49.5970052" lon="15.2021577"><ele>418.33333333333337</ele><time>2026-04-06T10:37:56.848Z</time></trkpt><trkpt lat="49.5970605" lon="15.2018767"><ele>419.6666666666667</ele><time>2026-04-06T10:37:57.847Z</time></trkpt><trkpt lat="49.5971296" lon="15.2016118"><ele>421.0</ele><time>2026-04-06T10:37:58.847Z</time></trkpt><trkpt lat="49.5972072" lon="15.2013578"><ele>421.6666666666667</ele><time>2026-04-06T10:37:59.848Z</time></trkpt><trkpt lat="49.597291" lon="15.2011049"><ele>422.33333333333337</ele><time>2026-04-06T10:38:00.847Z</time></trkpt><trkpt lat="49.5973849" lon="15.2008581"><ele>423.0</ele><time>2026-04-06T10:38:01.847Z</time></trkpt><trkpt lat="49.5974864" lon="15.2006222"><ele>424.66666666666663</ele><time>2026-04-06T10:38:02.847Z</time></trkpt><trkpt lat="49.5975942" lon="15.2003934"><ele>426.3333333333333</ele><time>2026-04-06T10:38:03.848Z</time></trkpt><trkpt lat="49.5977052" lon="15.2001654"><ele>428.0</ele><time>2026-04-06T10:38:04.848Z</time></trkpt><trkpt lat="49.5978215" lon="15.1999394"><ele>429.0</ele><time>2026-04-06T10:38:05.847Z</time></trkpt><trkpt lat="49.5979432" lon="15.1997201"><ele>430.0</ele><time>2026-04-06T10:38:06.847Z</time></trkpt><trkpt lat="49.5980609" lon="15.1995065"><ele>431.0</ele><time>2026-04-06T10:38:07.847Z</time></trkpt><trkpt lat="49.5981734" lon="15.1992889"><ele>431.0</ele><time>2026-04-06T10:38:08.847Z</time></trkpt><trkpt lat="49.598284" lon="15.1990741"><ele>431.0</ele><time>2026-04-06T10:38:09.847Z</time></trkpt><trkpt lat="49.5983934" lon="15.1988612"><ele>431.0</ele><time>2026-04-06T10:38:10.848Z</time></trkpt><trkpt lat="49.5985001" lon="15.1986506"><ele>431.66666666666663</ele><time>2026-04-06T10:38:11.848Z</time></trkpt><trkpt lat="49.5986022" lon="15.198435"><ele>432.33333333333337</ele><time>2026-04-06T10:38:12.847Z</time></trkpt><trkpt lat="49.5987014" lon="15.1982118"><ele>433.0</ele><time>2026-04-06T10:38:13.847Z</time></trkpt><trkpt lat="49.5988018" lon="15.1979865"><ele>434.33333333333337</ele><time>2026-04-06T10:38:14.853Z</time></trkpt><trkpt lat="49.5988977" lon="15.19775"><ele>435.66666666666663</ele><time>2026-04-06T10:38:15.853Z</time></trkpt><trkpt lat="49.5989926" lon="15.1975037"><ele>437.0</ele><time>2026-04-06T10:38:16.854Z</time></trkpt><trkpt lat="49.5990835" lon="15.1972435"><ele>438.3333333333333</ele><time>2026-04-06T10:38:17.854Z</time></trkpt><trkpt lat="49.5991707" lon="15.1969661"><ele>439.66666666666663</ele><time>2026-04-06T10:38:18.854Z</time></trkpt><trkpt lat="49.5992601" lon="15.1966762"><ele>441.0</ele><time>2026-04-06T10:38:19.853Z</time></trkpt><trkpt lat="49.5993513" lon="15.1963926"><ele>442.66666666666663</ele><time>2026-04-06T10:38:20.854Z</time></trkpt><trkpt lat="49.5994484" lon="15.1961136"><ele>444.3333333333333</ele><time>2026-04-06T10:38:21.854Z</time></trkpt><trkpt lat="49.5995417" lon="15.1958237"><ele>446.0</ele><time>2026-04-06T10:38:22.853Z</time></trkpt><trkpt lat="49.5996363" lon="15.1955285"><ele>448.0</ele><time>2026-04-06T10:38:23.854Z</time></trkpt><trkpt lat="49.5997335" lon="15.1952279"><ele>450.0</ele><time>2026-04-06T10:38:24.853Z</time></trkpt><trkpt lat="49.5998348" lon="15.1949281"><ele>452.0</ele><time>2026-04-06T10:38:25.855Z</time></trkpt><trkpt lat="49.599928" lon="15.1946336"><ele>453.0</ele><time>2026-04-06T10:38:26.854Z</time></trkpt><trkpt lat="49.6000157" lon="15.19436"><ele>454.0</ele><time>2026-04-06T10:38:27.854Z</time></trkpt><trkpt lat="49.6001023" lon="15.1941075"><ele>455.0</ele><time>2026-04-06T10:38:28.855Z</time></trkpt><trkpt lat="49.6001891" lon="15.193863"><ele>456.0</ele><time>2026-04-06T10:38:29.855Z</time></trkpt><trkpt lat="49.600274" lon="15.1936173"><ele>457.0</ele><time>2026-04-06T10:38:30.855Z</time></trkpt><trkpt lat="49.600366" lon="15.1933753"><ele>458.0</ele><time>2026-04-06T10:38:31.854Z</time></trkpt><trkpt lat="49.6004721" lon="15.1931457"><ele>460.0</ele><time>2026-04-06T10:38:32.854Z</time></trkpt><trkpt lat="49.6005947" lon="15.192927"><ele>462.0</ele><time>2026-04-06T10:38:33.854Z</time></trkpt><trkpt lat="49.6007272" lon="15.1927141"><ele>464.0</ele><time>2026-04-06T10:38:34.855Z</time></trkpt><trkpt lat="49.6008771" lon="15.1925203"><ele>464.0</ele><time>2026-04-06T10:38:35.855Z</time></trkpt><trkpt lat="49.6010297" lon="15.1923568"><ele>464.0</ele><time>2026-04-06T10:38:36.854Z</time></trkpt><trkpt lat="49.6011736" lon="15.1922208"><ele>464.0</ele><time>2026-04-06T10:38:37.855Z</time></trkpt><trkpt lat="49.6013066" lon="15.1921081"><ele>465.5</ele><time>2026-04-06T10:38:38.855Z</time></trkpt><trkpt lat="49.6014332" lon="15.192007"><ele>467.0</ele><time>2026-04-06T10:38:39.855Z</time></trkpt><trkpt lat="49.6015467" lon="15.1919266"><ele>468.5</ele><time>2026-04-06T10:38:40.854Z</time></trkpt><trkpt lat="49.6016459" lon="15.1918574"><ele>470.0</ele><time>2026-04-06T10:38:41.854Z</time></trkpt><trkpt lat="49.6017325" lon="15.1917912"><ele>469.99999999999994</ele><time>2026-04-06T10:38:42.854Z</time></trkpt><trkpt lat="49.601798" lon="15.1917148"><ele>470.0</ele><time>2026-04-06T10:38:43.854Z</time></trkpt><trkpt lat="49.6018395" lon="15.1916132"><ele>470.0</ele><time>2026-04-06T10:38:44.855Z</time></trkpt><trkpt lat="49.6018578" lon="15.1914937"><ele>470.0</ele><time>2026-04-06T10:38:45.854Z</time></trkpt><trkpt lat="49.6018426" lon="15.1913584"><ele>469.99999999999994</ele><time>2026-04-06T10:38:46.855Z</time></trkpt><trkpt lat="49.601805" lon="15.1912129"><ele>470.0</ele><time>2026-04-06T10:38:47.855Z</time></trkpt><trkpt lat="49.6017633" lon="15.1910604"><ele>470.0</ele><time>2026-04-06T10:38:48.855Z</time></trkpt><trkpt lat="49.6017179" lon="15.1908985"><ele>470.0</ele><time>2026-04-06T10:38:49.855Z</time></trkpt><trkpt lat="49.6016729" lon="15.1907269"><ele>470.0</ele><time>2026-04-06T10:38:50.854Z</time></trkpt><trkpt lat="49.6016333" lon="15.1905487"><ele>470.0</ele><time>2026-04-06T10:38:51.854Z</time></trkpt><trkpt lat="49.6015938" lon="15.1903878"><ele>469.99999999999994</ele><time>2026-04-06T10:38:52.854Z</time></trkpt><trkpt lat="49.6015651" lon="15.1902399"><ele>470.0</ele><time>2026-04-06T10:38:53.855Z</time></trkpt><trkpt lat="49.6015467" lon="15.190106"><ele>470.0</ele><time>2026-04-06T10:38:54.855Z</time></trkpt><trkpt lat="49.6015403" lon="15.1900007"><ele>470.0</ele><time>2026-04-06T10:38:55.855Z</time></trkpt><trkpt lat="49.6016021" lon="15.1898505"><ele>469.99999999999994</ele><time>2026-04-06T10:38:57.855Z</time></trkpt><trkpt lat="49.6016477" lon="15.1897571"><ele>470.0</ele><time>2026-04-06T10:38:58.854Z</time></trkpt><trkpt lat="49.6016769" lon="15.1896428"><ele>469.99999999999994</ele><time>2026-04-06T10:38:59.854Z</time></trkpt><trkpt lat="49.6016793" lon="15.1895355"><ele>470.0</ele><time>2026-04-06T10:39:00.855Z</time></trkpt><trkpt lat="49.6016695" lon="15.1894264"><ele>470.0</ele><time>2026-04-06T10:39:01.854Z</time></trkpt><trkpt lat="49.6016571" lon="15.1892927"><ele>470.0</ele><time>2026-04-06T10:39:02.855Z</time></trkpt><trkpt lat="49.6016472" lon="15.1891545"><ele>469.99999999999994</ele><time>2026-04-06T10:39:03.855Z</time></trkpt><trkpt lat="49.6016381" lon="15.1890041"><ele>470.0</ele><time>2026-04-06T10:39:04.854Z</time></trkpt><trkpt lat="49.6016378" lon="15.1888261"><ele>469.25</ele><time>2026-04-06T10:39:05.854Z</time></trkpt><trkpt lat="49.6016461" lon="15.1886289"><ele>468.5</ele><time>2026-04-06T10:39:06.854Z</time></trkpt><trkpt lat="49.6016534" lon="15.1884136"><ele>467.75</ele><time>2026-04-06T10:39:07.855Z</time></trkpt><trkpt lat="49.6016974" lon="15.1881911"><ele>467.0</ele><time>2026-04-06T10:39:08.854Z</time></trkpt><trkpt lat="49.6017655" lon="15.1879513"><ele>466.0</ele><time>2026-04-06T10:39:09.855Z</time></trkpt><trkpt lat="49.601842" lon="15.187707"><ele>465.0</ele><time>2026-04-06T10:39:10.854Z</time></trkpt><trkpt lat="49.60192" lon="15.1874382"><ele>464.0</ele><time>2026-04-06T10:39:11.854Z</time></trkpt><trkpt lat="49.6019952" lon="15.1871551"><ele>464.0</ele><time>2026-04-06T10:39:12.855Z</time></trkpt><trkpt lat="49.6020636" lon="15.1868693"><ele>464.0</ele><time>2026-04-06T10:39:13.855Z</time></trkpt><trkpt lat="49.6021336" lon="15.1865897"><ele>464.0</ele><time>2026-04-06T10:39:14.855Z</time></trkpt><trkpt lat="49.6022039" lon="15.1863213"><ele>464.0</ele><time>2026-04-06T10:39:15.855Z</time></trkpt><trkpt lat="49.6022675" lon="15.1860671"><ele>464.0</ele><time>2026-04-06T10:39:16.855Z</time></trkpt><trkpt lat="49.6023308" lon="15.1858177"><ele>464.0</ele><time>2026-04-06T10:39:17.854Z</time></trkpt><trkpt lat="49.6024009" lon="15.1855785"><ele>463.0</ele><time>2026-04-06T10:39:18.854Z</time></trkpt><trkpt lat="49.6024699" lon="15.1853285"><ele>462.0</ele><time>2026-04-06T10:39:19.854Z</time></trkpt><trkpt lat="49.6025405" lon="15.1850749"><ele>461.0</ele><time>2026-04-06T10:39:20.855Z</time></trkpt><trkpt lat="49.6026063" lon="15.1848181"><ele>459.66666666666663</ele><time>2026-04-06T10:39:21.855Z</time></trkpt><trkpt lat="49.6026756" lon="15.184549"><ele>458.33333333333337</ele><time>2026-04-06T10:39:22.855Z</time></trkpt><trkpt lat="49.60275" lon="15.1842714"><ele>457.0</ele><time>2026-04-06T10:39:23.854Z</time></trkpt><trkpt lat="49.6028311" lon="15.1839872"><ele>456.33333333333337</ele><time>2026-04-06T10:39:24.855Z</time></trkpt><trkpt lat="49.6029271" lon="15.183708"><ele>455.66666666666663</ele><time>2026-04-06T10:39:25.854Z</time></trkpt><trkpt lat="49.6030379" lon="15.1834386"><ele>455.0</ele><time>2026-04-06T10:39:26.855Z</time></trkpt><trkpt lat="49.6031491" lon="15.1831716"><ele>454.0</ele><time>2026-04-06T10:39:27.854Z</time></trkpt><trkpt lat="49.6032593" lon="15.1829136"><ele>453.0</ele><time>2026-04-06T10:39:28.855Z</time></trkpt><trkpt lat="49.603368" lon="15.1826589"><ele>452.0</ele><time>2026-04-06T10:39:29.854Z</time></trkpt><trkpt lat="49.6034758" lon="15.182414"><ele>451.0</ele><time>2026-04-06T10:39:30.854Z</time></trkpt><trkpt lat="49.6035779" lon="15.1821731"><ele>450.0</ele><time>2026-04-06T10:39:31.854Z</time></trkpt><trkpt lat="49.6036711" lon="15.1819338"><ele>449.0</ele><time>2026-04-06T10:39:32.855Z</time></trkpt><trkpt lat="49.603756" lon="15.1816891"><ele>447.66666666666663</ele><time>2026-04-06T10:39:33.855Z</time></trkpt><trkpt lat="49.6038395" lon="15.1814433"><ele>446.33333333333337</ele><time>2026-04-06T10:39:34.855Z</time></trkpt><trkpt lat="49.6039282" lon="15.1811959"><ele>445.0</ele><time>2026-04-06T10:39:35.854Z</time></trkpt><trkpt lat="49.6040136" lon="15.1809502"><ele>445.0</ele><time>2026-04-06T10:39:36.854Z</time></trkpt><trkpt lat="49.6040963" lon="15.1807188"><ele>445.0</ele><time>2026-04-06T10:39:37.854Z</time></trkpt><trkpt lat="49.6041752" lon="15.1805006"><ele>445.0</ele><time>2026-04-06T10:39:38.854Z</time></trkpt><trkpt lat="49.6042567" lon="15.1802989"><ele>445.25</ele><time>2026-04-06T10:39:39.855Z</time></trkpt><trkpt lat="49.6043389" lon="15.1801137"><ele>445.5</ele><time>2026-04-06T10:39:40.854Z</time></trkpt><trkpt lat="49.6044168" lon="15.1799364"><ele>445.75</ele><time>2026-04-06T10:39:41.854Z</time></trkpt><trkpt lat="49.6044823" lon="15.1797591"><ele>446.0</ele><time>2026-04-06T10:39:42.854Z</time></trkpt><trkpt lat="49.6045442" lon="15.1796094"><ele>446.0</ele><time>2026-04-06T10:39:43.854Z</time></trkpt><trkpt lat="49.6045913" lon="15.1795203"><ele>446.0</ele><time>2026-04-06T10:39:44.855Z</time></trkpt><trkpt lat="49.6046827" lon="15.1794323"><ele>446.0</ele><time>2026-04-06T10:39:46.854Z</time></trkpt><trkpt lat="49.6047681" lon="15.1794732"><ele>446.0</ele><time>2026-04-06T10:39:47.854Z</time></trkpt><trkpt lat="49.6048499" lon="15.1795572"><ele>446.0</ele><time>2026-04-06T10:39:48.855Z</time></trkpt><trkpt lat="49.6049265" lon="15.1796883"><ele>444.75</ele><time>2026-04-06T10:39:49.854Z</time></trkpt><trkpt lat="49.6049833" lon="15.1798552"><ele>443.5</ele><time>2026-04-06T10:39:50.854Z</time></trkpt><trkpt lat="49.6050534" lon="15.1799966"><ele>442.25</ele><time>2026-04-06T10:39:51.855Z</time></trkpt><trkpt lat="49.6051425" lon="15.1800896"><ele>441.0</ele><time>2026-04-06T10:39:52.855Z</time></trkpt><trkpt lat="49.6052435" lon="15.1801693"><ele>441.0</ele><time>2026-04-06T10:39:53.854Z</time></trkpt><trkpt lat="49.6053393" lon="15.1802503"><ele>441.0</ele><time>2026-04-06T10:39:54.854Z</time></trkpt><trkpt lat="49.6054266" lon="15.1802909"><ele>441.0</ele><time>2026-04-06T10:39:55.855Z</time></trkpt><trkpt lat="49.6054991" lon="15.1802798"><ele>441.0</ele><time>2026-04-06T10:39:56.855Z</time></trkpt><trkpt lat="49.6055548" lon="15.1802254"><ele>441.0</ele><time>2026-04-06T10:39:57.855Z</time></trkpt><trkpt lat="49.6055931" lon="15.1801385"><ele>441.0</ele><time>2026-04-06T10:39:58.854Z</time></trkpt><trkpt lat="49.6056158" lon="15.1800185"><ele>442.25</ele><time>2026-04-06T10:39:59.855Z</time></trkpt><trkpt lat="49.6056276" lon="15.1798364"><ele>443.5</ele><time>2026-04-06T10:40:00.855Z</time></trkpt><trkpt lat="49.605646" lon="15.1796212"><ele>444.75</ele><time>2026-04-06T10:40:01.854Z</time></trkpt><trkpt lat="49.6056758" lon="15.1793668"><ele>446.0</ele><time>2026-04-06T10:40:02.854Z</time></trkpt><trkpt lat="49.6057162" lon="15.1790883"><ele>447.66666666666663</ele><time>2026-04-06T10:40:03.855Z</time></trkpt><trkpt lat="49.6057612" lon="15.1788105"><ele>449.33333333333337</ele><time>2026-04-06T10:40:04.854Z</time></trkpt><trkpt lat="49.6058125" lon="15.1785303"><ele>451.0</ele><time>2026-04-06T10:40:05.854Z</time></trkpt><trkpt lat="49.6058755" lon="15.17825"><ele>452.6666666666667</ele><time>2026-04-06T10:40:06.855Z</time></trkpt><trkpt lat="49.6059488" lon="15.1779706"><ele>454.33333333333337</ele><time>2026-04-06T10:40:07.854Z</time></trkpt><trkpt lat="49.6060247" lon="15.1776919"><ele>456.0</ele><time>2026-04-06T10:40:08.855Z</time></trkpt><trkpt lat="49.6061071" lon="15.1774173"><ele>453.33333333333337</ele><time>2026-04-06T10:40:09.854Z</time></trkpt><trkpt lat="49.6062027" lon="15.1771407"><ele>450.6666666666667</ele><time>2026-04-06T10:40:10.855Z</time></trkpt><trkpt lat="49.6063033" lon="15.1768564"><ele>448.0</ele><time>2026-04-06T10:40:11.855Z</time></trkpt><trkpt lat="49.6064022" lon="15.1765586"><ele>451.0</ele><time>2026-04-06T10:40:12.854Z</time></trkpt><trkpt lat="49.6065033" lon="15.1762522"><ele>454.0</ele><time>2026-04-06T10:40:13.855Z</time></trkpt><trkpt lat="49.6066005" lon="15.175956"><ele>457.0</ele><time>2026-04-06T10:40:14.854Z</time></trkpt><trkpt lat="49.6067059" lon="15.175678"><ele>455.6666666666667</ele><time>2026-04-06T10:40:15.855Z</time></trkpt><trkpt lat="49.6068164" lon="15.1754129"><ele>454.33333333333337</ele><time>2026-04-06T10:40:16.855Z</time></trkpt><trkpt lat="49.6069296" lon="15.1751624"><ele>453.0</ele><time>2026-04-06T10:40:17.855Z</time></trkpt><trkpt lat="49.6070554" lon="15.1749274"><ele>455.66666666666663</ele><time>2026-04-06T10:40:18.854Z</time></trkpt><trkpt lat="49.6071963" lon="15.1747079"><ele>458.3333333333333</ele><time>2026-04-06T10:40:19.855Z</time></trkpt><trkpt lat="49.6073531" lon="15.1745041"><ele>461.0</ele><time>2026-04-06T10:40:20.854Z</time></trkpt><trkpt lat="49.6075126" lon="15.174308"><ele>461.0</ele><time>2026-04-06T10:40:21.854Z</time></trkpt><trkpt lat="49.6076551" lon="15.1741156"><ele>461.0</ele><time>2026-04-06T10:40:22.854Z</time></trkpt><trkpt lat="49.6077664" lon="15.1738912"><ele>461.0</ele><time>2026-04-06T10:40:23.854Z</time></trkpt><trkpt lat="49.6078512" lon="15.1736321"><ele>461.0</ele><time>2026-04-06T10:40:24.854Z</time></trkpt><trkpt lat="49.6079355" lon="15.1733868"><ele>461.0</ele><time>2026-04-06T10:40:25.855Z</time></trkpt><trkpt lat="49.6080309" lon="15.1731725"><ele>461.0</ele><time>2026-04-06T10:40:26.855Z</time></trkpt><trkpt lat="49.6081558" lon="15.1729685"><ele>463.0</ele><time>2026-04-06T10:40:27.854Z</time></trkpt><trkpt lat="49.6083033" lon="15.1727594"><ele>465.0</ele><time>2026-04-06T10:40:28.855Z</time></trkpt><trkpt lat="49.6084429" lon="15.1725243"><ele>467.0</ele><time>2026-04-06T10:40:29.854Z</time></trkpt><trkpt lat="49.6085774" lon="15.1722678"><ele>467.0</ele><time>2026-04-06T10:40:30.855Z</time></trkpt><trkpt lat="49.608708" lon="15.1720067"><ele>467.0</ele><time>2026-04-06T10:40:31.855Z</time></trkpt><trkpt lat="49.6088384" lon="15.1717541"><ele>467.0</ele><time>2026-04-06T10:40:32.854Z</time></trkpt><trkpt lat="49.6089651" lon="15.1714884"><ele>467.0</ele><time>2026-04-06T10:40:33.854Z</time></trkpt><trkpt lat="49.6090928" lon="15.1712392"><ele>467.0</ele><time>2026-04-06T10:40:34.854Z</time></trkpt><trkpt lat="49.6092158" lon="15.1710067"><ele>467.0</ele><time>2026-04-06T10:40:35.855Z</time></trkpt><trkpt lat="49.609329" lon="15.1707878"><ele>468.3333333333333</ele><time>2026-04-06T10:40:36.855Z</time></trkpt><trkpt lat="49.6094348" lon="15.170574"><ele>469.66666666666663</ele><time>2026-04-06T10:40:37.855Z</time></trkpt><trkpt lat="49.6095442" lon="15.1703631"><ele>471.0</ele><time>2026-04-06T10:40:38.854Z</time></trkpt><trkpt lat="49.6096766" lon="15.1701682"><ele>469.0</ele><time>2026-04-06T10:40:39.855Z</time></trkpt><trkpt lat="49.6098178" lon="15.1699841"><ele>467.0</ele><time>2026-04-06T10:40:40.855Z</time></trkpt><trkpt lat="49.6099339" lon="15.169783"><ele>465.0</ele><time>2026-04-06T10:40:41.855Z</time></trkpt><trkpt lat="49.6100132" lon="15.1695849"><ele>465.0</ele><time>2026-04-06T10:40:42.854Z</time></trkpt><trkpt lat="49.6100679" lon="15.1693878"><ele>465.0</ele><time>2026-04-06T10:40:43.855Z</time></trkpt><trkpt lat="49.6101162" lon="15.1691758"><ele>465.0</ele><time>2026-04-06T10:40:44.855Z</time></trkpt><trkpt lat="49.6101652" lon="15.1689605"><ele>465.0</ele><time>2026-04-06T10:40:45.854Z</time></trkpt><trkpt lat="49.6102227" lon="15.1687482"><ele>464.0</ele><time>2026-04-06T10:40:46.854Z</time></trkpt><trkpt lat="49.6102934" lon="15.1685461"><ele>463.0</ele><time>2026-04-06T10:40:47.854Z</time></trkpt><trkpt lat="49.6103705" lon="15.1683379"><ele>462.0</ele><time>2026-04-06T10:40:48.854Z</time></trkpt><trkpt lat="49.6104615" lon="15.1681211"><ele>462.0</ele><time>2026-04-06T10:40:49.854Z</time></trkpt><trkpt lat="49.6105605" lon="15.1679009"><ele>462.0</ele><time>2026-04-06T10:40:50.854Z</time></trkpt><trkpt lat="49.6106686" lon="15.1676787"><ele>462.0</ele><time>2026-04-06T10:40:51.855Z</time></trkpt><trkpt lat="49.6107943" lon="15.1674461"><ele>464.66666666666663</ele><time>2026-04-06T10:40:52.855Z</time></trkpt><trkpt lat="49.6109144" lon="15.1672158"><ele>467.3333333333333</ele><time>2026-04-06T10:40:53.855Z</time></trkpt><trkpt lat="49.6110311" lon="15.1670022"><ele>470.0</ele><time>2026-04-06T10:40:54.855Z</time></trkpt><trkpt lat="49.6111436" lon="15.1668056"><ele>468.66666666666663</ele><time>2026-04-06T10:40:55.854Z</time></trkpt><trkpt lat="49.6112604" lon="15.1666021"><ele>467.33333333333337</ele><time>2026-04-06T10:40:56.854Z</time></trkpt><trkpt lat="49.6113917" lon="15.1664039"><ele>466.0</ele><time>2026-04-06T10:40:57.854Z</time></trkpt><trkpt lat="49.611536" lon="15.1662019"><ele>466.0</ele><time>2026-04-06T10:40:58.854Z</time></trkpt><trkpt lat="49.6116914" lon="15.1660034"><ele>466.0</ele><time>2026-04-06T10:40:59.854Z</time></trkpt><trkpt lat="49.6118368" lon="15.1657813"><ele>466.0</ele><time>2026-04-06T10:41:00.855Z</time></trkpt><trkpt lat="49.6119782" lon="15.1655867"><ele>462.0</ele><time>2026-04-06T10:41:01.854Z</time></trkpt><trkpt lat="49.6121068" lon="15.1654021"><ele>458.0</ele><time>2026-04-06T10:41:02.855Z</time></trkpt><trkpt lat="49.6122246" lon="15.1652304"><ele>454.0</ele><time>2026-04-06T10:41:03.855Z</time></trkpt><trkpt lat="49.6123225" lon="15.1650775"><ele>454.0</ele><time>2026-04-06T10:41:04.854Z</time></trkpt><trkpt lat="49.612405" lon="15.1649399"><ele>454.0</ele><time>2026-04-06T10:41:05.855Z</time></trkpt><trkpt lat="49.6124836" lon="15.1648041"><ele>454.0</ele><time>2026-04-06T10:41:06.855Z</time></trkpt><trkpt lat="49.612553" lon="15.164661"><ele>454.0</ele><time>2026-04-06T10:41:07.854Z</time></trkpt><trkpt lat="49.61262" lon="15.1645165"><ele>454.79999999999995</ele><time>2026-04-06T10:41:08.854Z</time></trkpt><trkpt lat="49.612693" lon="15.1643984"><ele>455.59999999999997</ele><time>2026-04-06T10:41:09.854Z</time></trkpt><trkpt lat="49.612748" lon="15.1642716"><ele>456.4</ele><time>2026-04-06T10:41:10.854Z</time></trkpt><trkpt lat="49.612801" lon="15.1641355"><ele>457.2</ele><time>2026-04-06T10:41:11.854Z</time></trkpt><trkpt lat="49.6128486" lon="15.1639891"><ele>458.0</ele><time>2026-04-06T10:41:12.854Z</time></trkpt><trkpt lat="49.6129136" lon="15.1638496"><ele>458.0</ele><time>2026-04-06T10:41:13.855Z</time></trkpt><trkpt lat="49.6129704" lon="15.1637071"><ele>458.0</ele><time>2026-04-06T10:41:14.854Z</time></trkpt><trkpt lat="49.6130329" lon="15.1635726"><ele>458.0</ele><time>2026-04-06T10:41:15.854Z</time></trkpt><trkpt lat="49.6130991" lon="15.1634041"><ele>458.0</ele><time>2026-04-06T10:41:16.854Z</time></trkpt><trkpt lat="49.6131814" lon="15.1632724"><ele>458.2</ele><time>2026-04-06T10:41:17.855Z</time></trkpt><trkpt lat="49.6132501" lon="15.1631632"><ele>458.4</ele><time>2026-04-06T10:41:18.855Z</time></trkpt><trkpt lat="49.6132974" lon="15.1630369"><ele>458.59999999999997</ele><time>2026-04-06T10:41:19.854Z</time></trkpt><trkpt lat="49.6133426" lon="15.1629127"><ele>458.79999999999995</ele><time>2026-04-06T10:41:20.854Z</time></trkpt><trkpt lat="49.6133896" lon="15.1627737"><ele>459.0</ele><time>2026-04-06T10:41:21.855Z</time></trkpt><trkpt lat="49.6134574" lon="15.1626348"><ele>459.0</ele><time>2026-04-06T10:41:22.855Z</time></trkpt><trkpt lat="49.6135469" lon="15.1625028"><ele>459.0</ele><time>2026-04-06T10:41:23.854Z</time></trkpt><trkpt lat="49.6136534" lon="15.1623287"><ele>459.0</ele><time>2026-04-06T10:41:24.854Z</time></trkpt><trkpt lat="49.6137338" lon="15.1621736"><ele>459.0</ele><time>2026-04-06T10:41:25.855Z</time></trkpt><trkpt lat="49.6138078" lon="15.1620389"><ele>458.4</ele><time>2026-04-06T10:41:26.855Z</time></trkpt><trkpt lat="49.613874" lon="15.1619279"><ele>457.79999999999995</ele><time>2026-04-06T10:41:27.855Z</time></trkpt><trkpt lat="49.6139282" lon="15.1618246"><ele>457.20000000000005</ele><time>2026-04-06T10:41:28.855Z</time></trkpt><trkpt lat="49.6139772" lon="15.1617056"><ele>456.6</ele><time>2026-04-06T10:41:29.854Z</time></trkpt><trkpt lat="49.6140353" lon="15.1615495"><ele>456.0</ele><time>2026-04-06T10:41:31.855Z</time></trkpt><trkpt lat="49.6140833" lon="15.1614362"><ele>456.0</ele><time>2026-04-06T10:41:33.855Z</time></trkpt><trkpt lat="49.6141398" lon="15.1612595"><ele>456.0</ele><time>2026-04-06T10:41:35.855Z</time></trkpt><trkpt lat="49.6141882" lon="15.161168"><ele>456.0</ele><time>2026-04-06T10:41:36.855Z</time></trkpt><trkpt lat="49.6142405" lon="15.1610706"><ele>456.0</ele><time>2026-04-06T10:41:37.854Z</time></trkpt><trkpt lat="49.614291" lon="15.1609749"><ele>456.0</ele><time>2026-04-06T10:41:38.854Z</time></trkpt><trkpt lat="49.6143475" lon="15.1608865"><ele>456.0</ele><time>2026-04-06T10:41:39.854Z</time></trkpt><trkpt lat="49.614405" lon="15.1608027"><ele>456.0</ele><time>2026-04-06T10:41:40.855Z</time></trkpt><trkpt lat="49.6144591" lon="15.1607055"><ele>456.0</ele><time>2026-04-06T10:41:41.854Z</time></trkpt><trkpt lat="49.614504" lon="15.1606011"><ele>456.0</ele><time>2026-04-06T10:41:42.855Z</time></trkpt><trkpt lat="49.6145472" lon="15.1604735"><ele>456.0</ele><time>2026-04-06T10:41:43.854Z</time></trkpt><trkpt lat="49.6145862" lon="15.1603213"><ele>456.0</ele><time>2026-04-06T10:41:44.854Z</time></trkpt><trkpt lat="49.614627" lon="15.1601607"><ele>456.0</ele><time>2026-04-06T10:41:45.854Z</time></trkpt><trkpt lat="49.6146807" lon="15.1600085"><ele>456.0</ele><time>2026-04-06T10:41:46.855Z</time></trkpt><trkpt lat="49.614726" lon="15.1598651"><ele>456.0</ele><time>2026-04-06T10:41:47.855Z</time></trkpt><trkpt lat="49.6147677" lon="15.1597249"><ele>456.0</ele><time>2026-04-06T10:41:48.854Z</time></trkpt><trkpt lat="49.6148064" lon="15.1595728"><ele>456.0</ele><time>2026-04-06T10:41:49.854Z</time></trkpt><trkpt lat="49.6148311" lon="15.1594361"><ele>456.75</ele><time>2026-04-06T10:41:50.854Z</time></trkpt><trkpt lat="49.6148572" lon="15.1592484"><ele>457.5</ele><time>2026-04-06T10:41:51.854Z</time></trkpt><trkpt lat="49.6148695" lon="15.1590533"><ele>458.25</ele><time>2026-04-06T10:41:52.855Z</time></trkpt><trkpt lat="49.6149039" lon="15.1588213"><ele>459.0</ele><time>2026-04-06T10:41:53.854Z</time></trkpt><trkpt lat="49.6149396" lon="15.158598"><ele>459.5</ele><time>2026-04-06T10:41:54.855Z</time></trkpt><trkpt lat="49.6149665" lon="15.1583894"><ele>460.0</ele><time>2026-04-06T10:41:55.854Z</time></trkpt><trkpt lat="49.6150044" lon="15.1582045"><ele>460.5</ele><time>2026-04-06T10:41:56.854Z</time></trkpt><trkpt lat="49.6150559" lon="15.1580075"><ele>461.0</ele><time>2026-04-06T10:41:57.854Z</time></trkpt><trkpt lat="49.6151001" lon="15.1578063"><ele>461.5</ele><time>2026-04-06T10:41:58.855Z</time></trkpt><trkpt lat="49.6151478" lon="15.1576159"><ele>462.0</ele><time>2026-04-06T10:41:59.855Z</time></trkpt><trkpt lat="49.6151952" lon="15.1574314"><ele>462.5</ele><time>2026-04-06T10:42:00.854Z</time></trkpt><trkpt lat="49.615248" lon="15.1572434"><ele>463.0</ele><time>2026-04-06T10:42:01.855Z</time></trkpt><trkpt lat="49.6153059" lon="15.1570566"><ele>461.75</ele><time>2026-04-06T10:42:02.854Z</time></trkpt><trkpt lat="49.615367" lon="15.1568687"><ele>460.5</ele><time>2026-04-06T10:42:03.855Z</time></trkpt><trkpt lat="49.6154283" lon="15.15668"><ele>459.25</ele><time>2026-04-06T10:42:04.855Z</time></trkpt><trkpt lat="49.6154881" lon="15.1564952"><ele>458.0</ele><time>2026-04-06T10:42:05.855Z</time></trkpt><trkpt lat="49.6155339" lon="15.156306"><ele>458.0</ele><time>2026-04-06T10:42:06.854Z</time></trkpt><trkpt lat="49.6155982" lon="15.1561266"><ele>458.0</ele><time>2026-04-06T10:42:07.855Z</time></trkpt><trkpt lat="49.6156594" lon="15.1559458"><ele>458.0</ele><time>2026-04-06T10:42:08.854Z</time></trkpt><trkpt lat="49.6157238" lon="15.1557586"><ele>458.0</ele><time>2026-04-06T10:42:09.855Z</time></trkpt><trkpt lat="49.61578" lon="15.1555761"><ele>458.5</ele><time>2026-04-06T10:42:10.855Z</time></trkpt><trkpt lat="49.6158404" lon="15.1553891"><ele>459.0</ele><time>2026-04-06T10:42:11.854Z</time></trkpt><trkpt lat="49.6159067" lon="15.1551997"><ele>459.5</ele><time>2026-04-06T10:42:12.854Z</time></trkpt><trkpt lat="49.6159797" lon="15.1550138"><ele>460.0</ele><time>2026-04-06T10:42:13.855Z</time></trkpt><trkpt lat="49.6160534" lon="15.1548265"><ele>460.0</ele><time>2026-04-06T10:42:14.854Z</time></trkpt><trkpt lat="49.6161299" lon="15.1546469"><ele>460.0</ele><time>2026-04-06T10:42:15.855Z</time></trkpt><trkpt lat="49.616208" lon="15.1544773"><ele>460.0</ele><time>2026-04-06T10:42:16.855Z</time></trkpt><trkpt lat="49.6162874" lon="15.1543094"><ele>460.0</ele><time>2026-04-06T10:42:17.855Z</time></trkpt><trkpt lat="49.6163551" lon="15.1541374"><ele>460.25</ele><time>2026-04-06T10:42:18.854Z</time></trkpt><trkpt lat="49.6164206" lon="15.1539595"><ele>460.5</ele><time>2026-04-06T10:42:19.855Z</time></trkpt><trkpt lat="49.6164865" lon="15.1537878"><ele>460.75</ele><time>2026-04-06T10:42:20.854Z</time></trkpt><trkpt lat="49.6165724" lon="15.1536551"><ele>461.0</ele><time>2026-04-06T10:42:21.855Z</time></trkpt><trkpt lat="49.6166528" lon="15.1535388"><ele>461.0</ele><time>2026-04-06T10:42:22.855Z</time></trkpt><trkpt lat="49.6167246" lon="15.1534274"><ele>461.0</ele><time>2026-04-06T10:42:23.855Z</time></trkpt><trkpt lat="49.6168044" lon="15.1533244"><ele>461.0</ele><time>2026-04-06T10:42:24.855Z</time></trkpt><trkpt lat="49.6168732" lon="15.1532155"><ele>461.0</ele><time>2026-04-06T10:42:25.854Z</time></trkpt><trkpt lat="49.6169383" lon="15.1531338"><ele>461.0</ele><time>2026-04-06T10:42:26.855Z</time></trkpt><trkpt lat="49.6169902" lon="15.1530614"><ele>461.4</ele><time>2026-04-06T10:42:27.855Z</time></trkpt><trkpt lat="49.6170626" lon="15.1529446"><ele>461.8</ele><time>2026-04-06T10:42:29.854Z</time></trkpt><trkpt lat="49.6170854" lon="15.1530574"><ele>462.19999999999993</ele><time>2026-04-06T10:42:33.854Z</time></trkpt><trkpt lat="49.6169953" lon="15.1531069"><ele>462.59999999999997</ele><time>2026-04-06T10:42:36.854Z</time></trkpt><trkpt lat="49.6169391" lon="15.1530212"><ele>463.0</ele><time>2026-04-06T10:42:38.855Z</time></trkpt><trkpt lat="49.616907" lon="15.1528748"><ele>463.00000000000006</ele><time>2026-04-06T10:42:40.854Z</time></trkpt><trkpt lat="49.6169093" lon="15.1527773"><ele>463.0</ele><time>2026-04-06T10:42:41.854Z</time></trkpt><trkpt lat="49.6169577" lon="15.152655"><ele>463.0</ele><time>2026-04-06T10:42:43.854Z</time></trkpt><trkpt lat="49.617016" lon="15.1525853"><ele>463.0</ele><time>2026-04-06T10:42:44.855Z</time></trkpt><trkpt lat="49.6170773" lon="15.152494"><ele>463.00000000000006</ele><time>2026-04-06T10:42:45.854Z</time></trkpt><trkpt lat="49.6171381" lon="15.1523837"><ele>463.0</ele><time>2026-04-06T10:42:46.855Z</time></trkpt><trkpt lat="49.6171961" lon="15.1522539"><ele>463.5</ele><time>2026-04-06T10:42:47.855Z</time></trkpt><trkpt lat="49.6172614" lon="15.1521275"><ele>464.0</ele><time>2026-04-06T10:42:48.854Z</time></trkpt><trkpt lat="49.6173398" lon="15.1519829"><ele>464.5</ele><time>2026-04-06T10:42:49.854Z</time></trkpt><trkpt lat="49.6174014" lon="15.1518352"><ele>465.0</ele><time>2026-04-06T10:42:50.855Z</time></trkpt><trkpt lat="49.6174522" lon="15.151666"><ele>465.6</ele><time>2026-04-06T10:42:51.854Z</time></trkpt><trkpt lat="49.6174983" lon="15.1514698"><ele>466.2</ele><time>2026-04-06T10:42:52.855Z</time></trkpt><trkpt lat="49.6175287" lon="15.1512968"><ele>466.79999999999995</ele><time>2026-04-06T10:42:53.854Z</time></trkpt><trkpt lat="49.6175663" lon="15.151166"><ele>467.4</ele><time>2026-04-06T10:42:54.855Z</time></trkpt><trkpt lat="49.6175949" lon="15.1510734"><ele>468.0</ele><time>2026-04-06T10:42:55.855Z</time></trkpt><trkpt lat="49.6177034" lon="15.1510589"><ele>468.0</ele><time>2026-04-06T10:42:58.855Z</time></trkpt><trkpt lat="49.6177679" lon="15.1510845"><ele>468.00000000000006</ele><time>2026-04-06T10:42:59.855Z</time></trkpt><trkpt lat="49.6178378" lon="15.1511125"><ele>468.0</ele><time>2026-04-06T10:43:00.854Z</time></trkpt><trkpt lat="49.6179086" lon="15.1511273"><ele>468.0</ele><time>2026-04-06T10:43:01.855Z</time></trkpt><trkpt lat="49.6179773" lon="15.1511345"><ele>468.00000000000006</ele><time>2026-04-06T10:43:02.855Z</time></trkpt><trkpt lat="49.6180536" lon="15.1511314"><ele>468.0</ele><time>2026-04-06T10:43:03.854Z</time></trkpt><trkpt lat="49.6181303" lon="15.1511078"><ele>468.0</ele><time>2026-04-06T10:43:04.854Z</time></trkpt><trkpt lat="49.6181896" lon="15.1510374"><ele>468.0</ele><time>2026-04-06T10:43:05.854Z</time></trkpt><trkpt lat="49.6182276" lon="15.150959"><ele>468.00000000000006</ele><time>2026-04-06T10:43:06.854Z</time></trkpt><trkpt lat="49.6182437" lon="15.150855"><ele>468.0</ele><time>2026-04-06T10:43:07.854Z</time></trkpt><trkpt lat="49.6182455" lon="15.1507383"><ele>468.0</ele><time>2026-04-06T10:43:08.854Z</time></trkpt><trkpt lat="49.618243" lon="15.1506277"><ele>468.00000000000006</ele><time>2026-04-06T10:43:09.855Z</time></trkpt><trkpt lat="49.6182385" lon="15.1505131"><ele>468.0</ele><time>2026-04-06T10:43:10.854Z</time></trkpt><trkpt lat="49.6182331" lon="15.1503903"><ele>468.0</ele><time>2026-04-06T10:43:11.854Z</time></trkpt><trkpt lat="49.6182238" lon="15.1502622"><ele>468.3333333333333</ele><time>2026-04-06T10:43:12.855Z</time></trkpt><trkpt lat="49.6182291" lon="15.1501307"><ele>468.66666666666663</ele><time>2026-04-06T10:43:13.855Z</time></trkpt><trkpt lat="49.6182349" lon="15.1500162"><ele>469.0</ele><time>2026-04-06T10:43:14.854Z</time></trkpt><trkpt lat="49.6182367" lon="15.1498895"><ele>469.3333333333333</ele><time>2026-04-06T10:43:15.854Z</time></trkpt><trkpt lat="49.6182322" lon="15.1497434"><ele>469.66666666666663</ele><time>2026-04-06T10:43:16.855Z</time></trkpt><trkpt lat="49.6182371" lon="15.149596"><ele>470.0</ele><time>2026-04-06T10:43:17.855Z</time></trkpt><trkpt lat="49.6182441" lon="15.1494541"><ele>469.99999999999994</ele><time>2026-04-06T10:43:18.855Z</time></trkpt><trkpt lat="49.6182577" lon="15.1493189"><ele>470.0</ele><time>2026-04-06T10:43:19.855Z</time></trkpt><trkpt lat="49.6182832" lon="15.1491997"><ele>470.0</ele><time>2026-04-06T10:43:20.855Z</time></trkpt><trkpt lat="49.618332" lon="15.1491174"><ele>470.0</ele><time>2026-04-06T10:43:21.854Z</time></trkpt><trkpt lat="49.6183958" lon="15.1490547"><ele>469.99999999999994</ele><time>2026-04-06T10:43:22.854Z</time></trkpt><trkpt lat="49.6184598" lon="15.148996"><ele>470.0</ele><time>2026-04-06T10:43:23.855Z</time></trkpt><trkpt lat="49.6185357" lon="15.1489226"><ele>470.3333333333333</ele><time>2026-04-06T10:43:24.854Z</time></trkpt><trkpt lat="49.6186103" lon="15.1488369"><ele>470.66666666666663</ele><time>2026-04-06T10:43:25.854Z</time></trkpt><trkpt lat="49.618676" lon="15.1487306"><ele>471.0</ele><time>2026-04-06T10:43:26.854Z</time></trkpt><trkpt lat="49.6187211" lon="15.1486128"><ele>471.33333333333337</ele><time>2026-04-06T10:43:27.855Z</time></trkpt><trkpt lat="49.6187635" lon="15.1485027"><ele>471.6666666666667</ele><time>2026-04-06T10:43:28.854Z</time></trkpt><trkpt lat="49.6187947" lon="15.1483863"><ele>472.0</ele><time>2026-04-06T10:43:29.855Z</time></trkpt><trkpt lat="49.6188303" lon="15.148254"><ele>472.6</ele><time>2026-04-06T10:43:30.854Z</time></trkpt><trkpt lat="49.6188433" lon="15.1481111"><ele>473.20000000000005</ele><time>2026-04-06T10:43:31.855Z</time></trkpt><trkpt lat="49.6188558" lon="15.1479621"><ele>473.8</ele><time>2026-04-06T10:43:32.854Z</time></trkpt><trkpt lat="49.6188854" lon="15.1478286"><ele>474.4</ele><time>2026-04-06T10:43:33.854Z</time></trkpt><trkpt lat="49.6189437" lon="15.1477044"><ele>475.0</ele><time>2026-04-06T10:43:34.855Z</time></trkpt><trkpt lat="49.6190199" lon="15.1476114"><ele>475.0</ele><time>2026-04-06T10:43:35.855Z</time></trkpt><trkpt lat="49.6191107" lon="15.1475224"><ele>475.0</ele><time>2026-04-06T10:43:36.854Z</time></trkpt><trkpt lat="49.6192073" lon="15.1474268"><ele>475.0</ele><time>2026-04-06T10:43:37.854Z</time></trkpt><trkpt lat="49.6193012" lon="15.1473141"><ele>475.0</ele><time>2026-04-06T10:43:38.855Z</time></trkpt><trkpt lat="49.6193921" lon="15.1471546"><ele>476.0</ele><time>2026-04-06T10:43:39.854Z</time></trkpt><trkpt lat="49.6194813" lon="15.1469666"><ele>477.0</ele><time>2026-04-06T10:43:40.854Z</time></trkpt><trkpt lat="49.6195791" lon="15.1467627"><ele>478.0</ele><time>2026-04-06T10:43:41.855Z</time></trkpt><trkpt lat="49.61967" lon="15.1465384"><ele>478.33333333333337</ele><time>2026-04-06T10:43:42.855Z</time></trkpt><trkpt lat="49.6197517" lon="15.1462886"><ele>478.66666666666663</ele><time>2026-04-06T10:43:43.854Z</time></trkpt><trkpt lat="49.6198421" lon="15.1459939"><ele>479.0</ele><time>2026-04-06T10:43:44.855Z</time></trkpt><trkpt lat="49.6199348" lon="15.1456876"><ele>480.0</ele><time>2026-04-06T10:43:45.854Z</time></trkpt><trkpt lat="49.62003" lon="15.1453826"><ele>481.0</ele><time>2026-04-06T10:43:46.854Z</time></trkpt><trkpt lat="49.6201285" lon="15.145079"><ele>482.0</ele><time>2026-04-06T10:43:47.855Z</time></trkpt><trkpt lat="49.6202255" lon="15.1447934"><ele>482.66666666666663</ele><time>2026-04-06T10:43:48.854Z</time></trkpt><trkpt lat="49.620311" lon="15.1445303"><ele>483.33333333333337</ele><time>2026-04-06T10:43:49.854Z</time></trkpt><trkpt lat="49.6203937" lon="15.1442662"><ele>484.0</ele><time>2026-04-06T10:43:50.855Z</time></trkpt><trkpt lat="49.6204761" lon="15.143999"><ele>485.0</ele><time>2026-04-06T10:43:51.854Z</time></trkpt><trkpt lat="49.6205615" lon="15.1437206"><ele>486.0</ele><time>2026-04-06T10:43:52.855Z</time></trkpt><trkpt lat="49.6206526" lon="15.1434477"><ele>487.0</ele><time>2026-04-06T10:43:53.855Z</time></trkpt><trkpt lat="49.6207444" lon="15.1431681"><ele>488.0</ele><time>2026-04-06T10:43:54.854Z</time></trkpt><trkpt lat="49.620835" lon="15.1428932"><ele>489.0</ele><time>2026-04-06T10:43:55.854Z</time></trkpt><trkpt lat="49.6209237" lon="15.1426159"><ele>490.0</ele><time>2026-04-06T10:43:56.855Z</time></trkpt><trkpt lat="49.6210095" lon="15.1423348"><ele>490.33333333333337</ele><time>2026-04-06T10:43:57.854Z</time></trkpt><trkpt lat="49.6210993" lon="15.1420417"><ele>490.66666666666663</ele><time>2026-04-06T10:43:58.855Z</time></trkpt><trkpt lat="49.621187" lon="15.141741"><ele>491.0</ele><time>2026-04-06T10:43:59.855Z</time></trkpt><trkpt lat="49.6212681" lon="15.1414303"><ele>492.66666666666663</ele><time>2026-04-06T10:44:00.854Z</time></trkpt><trkpt lat="49.6213396" lon="15.141131"><ele>494.33333333333337</ele><time>2026-04-06T10:44:01.855Z</time></trkpt><trkpt lat="49.6214152" lon="15.14085"><ele>496.0</ele><time>2026-04-06T10:44:02.855Z</time></trkpt><trkpt lat="49.6215129" lon="15.1405645"><ele>497.0</ele><time>2026-04-06T10:44:03.854Z</time></trkpt><trkpt lat="49.6216142" lon="15.1402654"><ele>498.0</ele><time>2026-04-06T10:44:04.854Z</time></trkpt><trkpt lat="49.6217177" lon="15.1399777"><ele>499.0</ele><time>2026-04-06T10:44:05.855Z</time></trkpt><trkpt lat="49.6218263" lon="15.1397094"><ele>499.0</ele><time>2026-04-06T10:44:06.854Z</time></trkpt><trkpt lat="49.6219431" lon="15.1394364"><ele>499.0</ele><time>2026-04-06T10:44:07.855Z</time></trkpt><trkpt lat="49.6220651" lon="15.1391676"><ele>499.0</ele><time>2026-04-06T10:44:08.855Z</time></trkpt><trkpt lat="49.6221874" lon="15.1388978"><ele>499.6666666666667</ele><time>2026-04-06T10:44:09.855Z</time></trkpt><trkpt lat="49.6223084" lon="15.1386118"><ele>500.33333333333337</ele><time>2026-04-06T10:44:10.854Z</time></trkpt><trkpt lat="49.6224249" lon="15.1383423"><ele>501.0</ele><time>2026-04-06T10:44:11.854Z</time></trkpt><trkpt lat="49.6225333" lon="15.138104"><ele>502.66666666666663</ele><time>2026-04-06T10:44:12.854Z</time></trkpt><trkpt lat="49.6226303" lon="15.1378803"><ele>504.3333333333333</ele><time>2026-04-06T10:44:13.855Z</time></trkpt><trkpt lat="49.6227139" lon="15.1376724"><ele>506.0</ele><time>2026-04-06T10:44:14.855Z</time></trkpt><trkpt lat="49.6227946" lon="15.1374898"><ele>507.75</ele><time>2026-04-06T10:44:15.854Z</time></trkpt><trkpt lat="49.6228868" lon="15.1373251"><ele>509.5</ele><time>2026-04-06T10:44:16.854Z</time></trkpt><trkpt lat="49.6229877" lon="15.1371671"><ele>511.25</ele><time>2026-04-06T10:44:17.855Z</time></trkpt><trkpt lat="49.6230899" lon="15.1370013"><ele>513.0</ele><time>2026-04-06T10:44:18.854Z</time></trkpt><trkpt lat="49.6231922" lon="15.136832"><ele>513.0</ele><time>2026-04-06T10:44:19.854Z</time></trkpt><trkpt lat="49.6233069" lon="15.1366682"><ele>513.0</ele><time>2026-04-06T10:44:20.855Z</time></trkpt><trkpt lat="49.6234391" lon="15.1365278"><ele>513.0</ele><time>2026-04-06T10:44:21.855Z</time></trkpt><trkpt lat="49.6235751" lon="15.136393"><ele>513.3333333333334</ele><time>2026-04-06T10:44:22.854Z</time></trkpt><trkpt lat="49.623717" lon="15.1362676"><ele>513.6666666666667</ele><time>2026-04-06T10:44:23.855Z</time></trkpt><trkpt lat="49.6238591" lon="15.1361207"><ele>514.0</ele><time>2026-04-06T10:44:24.854Z</time></trkpt><trkpt lat="49.6240065" lon="15.1359638"><ele>514.0</ele><time>2026-04-06T10:44:25.854Z</time></trkpt><trkpt lat="49.6241463" lon="15.1357689"><ele>514.0</ele><time>2026-04-06T10:44:26.854Z</time></trkpt><trkpt lat="49.6243009" lon="15.135554"><ele>514.0</ele><time>2026-04-06T10:44:27.854Z</time></trkpt><trkpt lat="49.6244582" lon="15.1353077"><ele>511.5</ele><time>2026-04-06T10:44:28.855Z</time></trkpt><trkpt lat="49.6246344" lon="15.1350689"><ele>509.0</ele><time>2026-04-06T10:44:29.855Z</time></trkpt><trkpt lat="49.6248138" lon="15.1348331"><ele>509.0</ele><time>2026-04-06T10:44:30.855Z</time></trkpt><trkpt lat="49.6249782" lon="15.1345871"><ele>509.0</ele><time>2026-04-06T10:44:31.854Z</time></trkpt><trkpt lat="49.62514" lon="15.1343422"><ele>509.0</ele><time>2026-04-06T10:44:32.855Z</time></trkpt><trkpt lat="49.6252996" lon="15.1341073"><ele>509.0</ele><time>2026-04-06T10:44:33.854Z</time></trkpt><trkpt lat="49.6254602" lon="15.133881"><ele>509.0</ele><time>2026-04-06T10:44:34.855Z</time></trkpt><trkpt lat="49.6256137" lon="15.1336608"><ele>510.0</ele><time>2026-04-06T10:44:35.854Z</time></trkpt><trkpt lat="49.6257594" lon="15.1334579"><ele>511.0</ele><time>2026-04-06T10:44:36.855Z</time></trkpt><trkpt lat="49.6258934" lon="15.1332599"><ele>512.0</ele><time>2026-04-06T10:44:37.854Z</time></trkpt><trkpt lat="49.6260117" lon="15.133071"><ele>512.0</ele><time>2026-04-06T10:44:38.855Z</time></trkpt><trkpt lat="49.6261089" lon="15.1328845"><ele>512.0</ele><time>2026-04-06T10:44:39.855Z</time></trkpt><trkpt lat="49.626189" lon="15.1327136"><ele>512.0</ele><time>2026-04-06T10:44:40.854Z</time></trkpt><trkpt lat="49.6262468" lon="15.1325478"><ele>512.0</ele><time>2026-04-06T10:44:41.854Z</time></trkpt><trkpt lat="49.6262887" lon="15.1323773"><ele>512.75</ele><time>2026-04-06T10:44:42.854Z</time></trkpt><trkpt lat="49.6263171" lon="15.1321852"><ele>513.5</ele><time>2026-04-06T10:44:43.855Z</time></trkpt><trkpt lat="49.6263314" lon="15.1319666"><ele>514.25</ele><time>2026-04-06T10:44:44.854Z</time></trkpt><trkpt lat="49.6263507" lon="15.131748"><ele>515.0</ele><time>2026-04-06T10:44:45.854Z</time></trkpt><trkpt lat="49.6263734" lon="15.1315408"><ele>515.75</ele><time>2026-04-06T10:44:46.855Z</time></trkpt><trkpt lat="49.6263969" lon="15.1313502"><ele>516.5</ele><time>2026-04-06T10:44:47.855Z</time></trkpt><trkpt lat="49.6264236" lon="15.1311776"><ele>517.25</ele><time>2026-04-06T10:44:48.855Z</time></trkpt><trkpt lat="49.6264778" lon="15.131006"><ele>518.0</ele><time>2026-04-06T10:44:49.854Z</time></trkpt><trkpt lat="49.6265547" lon="15.1308291"><ele>518.75</ele><time>2026-04-06T10:44:50.854Z</time></trkpt><trkpt lat="49.6266441" lon="15.1306445"><ele>519.5</ele><time>2026-04-06T10:44:51.855Z</time></trkpt><trkpt lat="49.6267362" lon="15.130462"><ele>520.25</ele><time>2026-04-06T10:44:52.854Z</time></trkpt><trkpt lat="49.6268285" lon="15.1302914"><ele>521.0</ele><time>2026-04-06T10:44:53.854Z</time></trkpt><trkpt lat="49.6269098" lon="15.1301267"><ele>522.0</ele><time>2026-04-06T10:44:54.854Z</time></trkpt><trkpt lat="49.6269843" lon="15.1299665"><ele>523.0</ele><time>2026-04-06T10:44:55.861Z</time></trkpt><trkpt lat="49.6270522" lon="15.1298218"><ele>524.0</ele><time>2026-04-06T10:44:56.861Z</time></trkpt><trkpt lat="49.6271108" lon="15.1296923"><ele>525.0</ele><time>2026-04-06T10:44:57.862Z</time></trkpt><trkpt lat="49.6271708" lon="15.129588"><ele>526.0</ele><time>2026-04-06T10:44:58.861Z</time></trkpt><trkpt lat="49.6272323" lon="15.1294965"><ele>527.0</ele><time>2026-04-06T10:44:59.862Z</time></trkpt><trkpt lat="49.6272717" lon="15.1294022"><ele>528.0</ele><time>2026-04-06T10:45:00.861Z</time></trkpt><trkpt lat="49.6273194" lon="15.1293215"><ele>529.0</ele><time>2026-04-06T10:45:01.862Z</time></trkpt><trkpt lat="49.6273701" lon="15.1292557"><ele>530.0</ele><time>2026-04-06T10:45:02.861Z</time></trkpt><trkpt lat="49.6274451" lon="15.1291757"><ele>531.0</ele><time>2026-04-06T10:45:04.862Z</time></trkpt><trkpt lat="49.6273815" lon="15.1292421"><ele>532.0</ele><time>2026-04-06T10:45:11.862Z</time></trkpt><trkpt lat="49.6273266" lon="15.1293356"><ele>532.0</ele><time>2026-04-06T10:45:12.862Z</time></trkpt><trkpt lat="49.6272634" lon="15.1294321"><ele>532.0</ele><time>2026-04-06T10:45:13.862Z</time></trkpt><trkpt lat="49.6271974" lon="15.1295459"><ele>532.0</ele><time>2026-04-06T10:45:14.861Z</time></trkpt><trkpt lat="49.627124" lon="15.1296896"><ele>532.0</ele><time>2026-04-06T10:45:15.861Z</time></trkpt><trkpt lat="49.6270503" lon="15.1298452"><ele>532.0</ele><time>2026-04-06T10:45:16.862Z</time></trkpt><trkpt lat="49.6269621" lon="15.1300235"><ele>529.25</ele><time>2026-04-06T10:45:17.861Z</time></trkpt><trkpt lat="49.626873" lon="15.1301679"><ele>526.5</ele><time>2026-04-06T10:45:18.862Z</time></trkpt><trkpt lat="49.6267943" lon="15.1303157"><ele>523.75</ele><time>2026-04-06T10:45:19.861Z</time></trkpt><trkpt lat="49.6267177" lon="15.1304665"><ele>521.0</ele><time>2026-04-06T10:45:20.862Z</time></trkpt><trkpt lat="49.6266459" lon="15.1306185"><ele>520.5</ele><time>2026-04-06T10:45:21.861Z</time></trkpt><trkpt lat="49.6265874" lon="15.1307539"><ele>520.0</ele><time>2026-04-06T10:45:22.861Z</time></trkpt><trkpt lat="49.6265321" lon="15.1308634"><ele>519.5</ele><time>2026-04-06T10:45:23.862Z</time></trkpt><trkpt lat="49.6264751" lon="15.1309421"><ele>519.0</ele><time>2026-04-06T10:45:24.862Z</time></trkpt><trkpt lat="49.62641" lon="15.1309757"><ele>518.5</ele><time>2026-04-06T10:45:25.862Z</time></trkpt><trkpt lat="49.6263418" lon="15.1309529"><ele>518.0</ele><time>2026-04-06T10:45:26.861Z</time></trkpt><trkpt lat="49.6262591" lon="15.1308902"><ele>518.0</ele><time>2026-04-06T10:45:27.862Z</time></trkpt><trkpt lat="49.626155" lon="15.1307871"><ele>518.0</ele><time>2026-04-06T10:45:28.861Z</time></trkpt><trkpt lat="49.6260348" lon="15.1306672"><ele>518.0</ele><time>2026-04-06T10:45:29.861Z</time></trkpt><trkpt lat="49.6258882" lon="15.1305204"><ele>518.0</ele><time>2026-04-06T10:45:30.861Z</time></trkpt><trkpt lat="49.6257419" lon="15.1303545"><ele>516.6666666666666</ele><time>2026-04-06T10:45:31.861Z</time></trkpt><trkpt lat="49.6255816" lon="15.1301752"><ele>515.3333333333334</ele><time>2026-04-06T10:45:32.862Z</time></trkpt><trkpt lat="49.6254263" lon="15.1299935"><ele>514.0</ele><time>2026-04-06T10:45:33.861Z</time></trkpt><trkpt lat="49.6252711" lon="15.1298138"><ele>512.0</ele><time>2026-04-06T10:45:34.861Z</time></trkpt><trkpt lat="49.6251239" lon="15.1296502"><ele>510.0</ele><time>2026-04-06T10:45:35.862Z</time></trkpt><trkpt lat="49.6249733" lon="15.1294838"><ele>508.0</ele><time>2026-04-06T10:45:36.861Z</time></trkpt><trkpt lat="49.6248216" lon="15.1293209"><ele>508.0</ele><time>2026-04-06T10:45:37.861Z</time></trkpt><trkpt lat="49.62467" lon="15.1291667"><ele>508.0</ele><time>2026-04-06T10:45:38.861Z</time></trkpt><trkpt lat="49.6245341" lon="15.1290227"><ele>508.0</ele><time>2026-04-06T10:45:39.861Z</time></trkpt><trkpt lat="49.6244057" lon="15.1288851"><ele>509.25</ele><time>2026-04-06T10:45:40.861Z</time></trkpt><trkpt lat="49.6242895" lon="15.1287567"><ele>510.5</ele><time>2026-04-06T10:45:41.862Z</time></trkpt><trkpt lat="49.6241917" lon="15.1286415"><ele>511.75</ele><time>2026-04-06T10:45:42.862Z</time></trkpt><trkpt lat="49.6241017" lon="15.128536"><ele>513.0</ele><time>2026-04-06T10:45:43.862Z</time></trkpt><trkpt lat="49.6240229" lon="15.1284452"><ele>513.0</ele><time>2026-04-06T10:45:44.861Z</time></trkpt><trkpt lat="49.6239526" lon="15.1283621"><ele>513.0</ele><time>2026-04-06T10:45:45.861Z</time></trkpt><trkpt lat="49.6238876" lon="15.1282893"><ele>513.0</ele><time>2026-04-06T10:45:46.862Z</time></trkpt><trkpt lat="49.623822" lon="15.1282209"><ele>513.0</ele><time>2026-04-06T10:45:47.862Z</time></trkpt><trkpt lat="49.6237605" lon="15.1281523"><ele>513.0</ele><time>2026-04-06T10:45:48.862Z</time></trkpt><trkpt lat="49.6237069" lon="15.1280918"><ele>513.0</ele><time>2026-04-06T10:45:49.861Z</time></trkpt><trkpt lat="49.6236559" lon="15.1280346"><ele>514.3333333333334</ele><time>2026-04-06T10:45:50.862Z</time></trkpt><trkpt lat="49.6235997" lon="15.1279688"><ele>515.6666666666666</ele><time>2026-04-06T10:45:51.861Z</time></trkpt><trkpt lat="49.6235373" lon="15.1279041"><ele>517.0</ele><time>2026-04-06T10:45:52.861Z</time></trkpt><trkpt lat="49.6234804" lon="15.127848"><ele>518.3333333333333</ele><time>2026-04-06T10:45:53.861Z</time></trkpt><trkpt lat="49.623374" lon="15.127744"><ele>519.6666666666666</ele><time>2026-04-06T10:45:55.861Z</time></trkpt><trkpt lat="49.62332" lon="15.127689"><ele>521.0</ele><time>2026-04-06T10:45:56.861Z</time></trkpt><trkpt lat="49.6232673" lon="15.1276339"><ele>521.0</ele><time>2026-04-06T10:45:57.862Z</time></trkpt><trkpt lat="49.6232115" lon="15.1275775"><ele>521.0</ele><time>2026-04-06T10:45:58.862Z</time></trkpt><trkpt lat="49.6231504" lon="15.127515"><ele>521.0</ele><time>2026-04-06T10:45:59.861Z</time></trkpt><trkpt lat="49.6230774" lon="15.1274395"><ele>521.0</ele><time>2026-04-06T10:46:00.862Z</time></trkpt><trkpt lat="49.6229844" lon="15.1273504"><ele>521.0</ele><time>2026-04-06T10:46:01.862Z</time></trkpt><trkpt lat="49.6228923" lon="15.1272606"><ele>521.0</ele><time>2026-04-06T10:46:02.861Z</time></trkpt><trkpt lat="49.622806" lon="15.1271799"><ele>520.3333333333333</ele><time>2026-04-06T10:46:03.862Z</time></trkpt><trkpt lat="49.6227286" lon="15.1270979"><ele>519.6666666666666</ele><time>2026-04-06T10:46:04.862Z</time></trkpt><trkpt lat="49.6226587" lon="15.1270357"><ele>519.0</ele><time>2026-04-06T10:46:05.861Z</time></trkpt><trkpt lat="49.622586" lon="15.1269854"><ele>518.3333333333334</ele><time>2026-04-06T10:46:06.862Z</time></trkpt><trkpt lat="49.6225199" lon="15.1269216"><ele>517.6666666666667</ele><time>2026-04-06T10:46:07.861Z</time></trkpt><trkpt lat="49.6224573" lon="15.1268496"><ele>517.0</ele><time>2026-04-06T10:46:08.861Z</time></trkpt><trkpt lat="49.6223922" lon="15.1267617"><ele>517.0</ele><time>2026-04-06T10:46:09.862Z</time></trkpt><trkpt lat="49.6223273" lon="15.1266679"><ele>517.0</ele><time>2026-04-06T10:46:10.861Z</time></trkpt><trkpt lat="49.6222697" lon="15.1265427"><ele>517.0</ele><time>2026-04-06T10:46:11.862Z</time></trkpt><trkpt lat="49.6222285" lon="15.1264114"><ele>517.0</ele><time>2026-04-06T10:46:12.862Z</time></trkpt><trkpt lat="49.6221998" lon="15.1262776"><ele>517.0</ele><time>2026-04-06T10:46:13.861Z</time></trkpt><trkpt lat="49.6221873" lon="15.126149"><ele>517.0</ele><time>2026-04-06T10:46:14.862Z</time></trkpt><trkpt lat="49.622191" lon="15.1260357"><ele>517.0</ele><time>2026-04-06T10:46:15.862Z</time></trkpt><trkpt lat="49.6222142" lon="15.125929"><ele>517.0</ele><time>2026-04-06T10:46:16.861Z</time></trkpt><trkpt lat="49.6222491" lon="15.1257799"><ele>517.0</ele><time>2026-04-06T10:46:17.861Z</time></trkpt><trkpt lat="49.6223011" lon="15.1255704"><ele>517.0</ele><time>2026-04-06T10:46:18.861Z</time></trkpt><trkpt lat="49.6223688" lon="15.1253238"><ele>517.0</ele><time>2026-04-06T10:46:19.861Z</time></trkpt><trkpt lat="49.622439" lon="15.1250394"><ele>517.0</ele><time>2026-04-06T10:46:20.862Z</time></trkpt><trkpt lat="49.6225183" lon="15.1247422"><ele>517.0</ele><time>2026-04-06T10:46:21.862Z</time></trkpt><trkpt lat="49.6225924" lon="15.1244287"><ele>518.3333333333334</ele><time>2026-04-06T10:46:22.862Z</time></trkpt><trkpt lat="49.6226706" lon="15.124109"><ele>519.6666666666666</ele><time>2026-04-06T10:46:23.861Z</time></trkpt><trkpt lat="49.6227477" lon="15.123781"><ele>521.0</ele><time>2026-04-06T10:46:24.861Z</time></trkpt><trkpt lat="49.6228276" lon="15.1234528"><ele>525.0</ele><time>2026-04-06T10:46:25.862Z</time></trkpt><trkpt lat="49.6229103" lon="15.1231245"><ele>529.0</ele><time>2026-04-06T10:46:26.861Z</time></trkpt><trkpt lat="49.6229915" lon="15.1227952"><ele>529.0</ele><time>2026-04-06T10:46:27.862Z</time></trkpt><trkpt lat="49.6230643" lon="15.1224764"><ele>529.0</ele><time>2026-04-06T10:46:28.862Z</time></trkpt><trkpt lat="49.6231403" lon="15.122167"><ele>529.0</ele><time>2026-04-06T10:46:29.861Z</time></trkpt><trkpt lat="49.6232162" lon="15.1218576"><ele>528.3333333333334</ele><time>2026-04-06T10:46:30.862Z</time></trkpt><trkpt lat="49.6232974" lon="15.1215422"><ele>527.6666666666666</ele><time>2026-04-06T10:46:31.862Z</time></trkpt><trkpt lat="49.6233733" lon="15.1212143"><ele>527.0</ele><time>2026-04-06T10:46:32.861Z</time></trkpt><trkpt lat="49.6234485" lon="15.1208883"><ele>529.0</ele><time>2026-04-06T10:46:33.862Z</time></trkpt><trkpt lat="49.6235224" lon="15.1205675"><ele>531.0</ele><time>2026-04-06T10:46:34.861Z</time></trkpt><trkpt lat="49.6235952" lon="15.1202497"><ele>533.0</ele><time>2026-04-06T10:46:35.861Z</time></trkpt><trkpt lat="49.623666" lon="15.1199461"><ele>533.6666666666666</ele><time>2026-04-06T10:46:36.861Z</time></trkpt><trkpt lat="49.623735" lon="15.1196581"><ele>534.3333333333334</ele><time>2026-04-06T10:46:37.861Z</time></trkpt><trkpt lat="49.623793" lon="15.119396"><ele>535.0</ele><time>2026-04-06T10:46:38.862Z</time></trkpt><trkpt lat="49.6238392" lon="15.1191494"><ele>535.6666666666667</ele><time>2026-04-06T10:46:39.861Z</time></trkpt><trkpt lat="49.6238664" lon="15.1189236"><ele>536.3333333333334</ele><time>2026-04-06T10:46:40.861Z</time></trkpt><trkpt lat="49.623877" lon="15.1186872"><ele>537.0</ele><time>2026-04-06T10:46:41.861Z</time></trkpt><trkpt lat="49.6238775" lon="15.1184238"><ele>535.6666666666666</ele><time>2026-04-06T10:46:42.861Z</time></trkpt><trkpt lat="49.6238763" lon="15.1181398"><ele>534.3333333333333</ele><time>2026-04-06T10:46:43.862Z</time></trkpt><trkpt lat="49.6238732" lon="15.1178353"><ele>533.0</ele><time>2026-04-06T10:46:44.861Z</time></trkpt><trkpt lat="49.6238722" lon="15.117513"><ele>533.6666666666666</ele><time>2026-04-06T10:46:45.862Z</time></trkpt><trkpt lat="49.6238724" lon="15.1171752"><ele>534.3333333333334</ele><time>2026-04-06T10:46:46.862Z</time></trkpt><trkpt lat="49.6238736" lon="15.1168339"><ele>535.0</ele><time>2026-04-06T10:46:47.861Z</time></trkpt><trkpt lat="49.6238757" lon="15.1165018"><ele>535.0</ele><time>2026-04-06T10:46:48.861Z</time></trkpt><trkpt lat="49.6238745" lon="15.1161704"><ele>535.0</ele><time>2026-04-06T10:46:49.862Z</time></trkpt><trkpt lat="49.6238747" lon="15.1158588"><ele>535.0</ele><time>2026-04-06T10:46:50.861Z</time></trkpt><trkpt lat="49.6238715" lon="15.1155742"><ele>534.3333333333334</ele><time>2026-04-06T10:46:51.862Z</time></trkpt><trkpt lat="49.6238756" lon="15.1152924"><ele>533.6666666666666</ele><time>2026-04-06T10:46:52.862Z</time></trkpt><trkpt lat="49.6238787" lon="15.1150282"><ele>533.0</ele><time>2026-04-06T10:46:53.861Z</time></trkpt><trkpt lat="49.6238846" lon="15.1148137"><ele>533.0</ele><time>2026-04-06T10:46:54.861Z</time></trkpt><trkpt lat="49.6238815" lon="15.1146507"><ele>533.0</ele><time>2026-04-06T10:46:55.862Z</time></trkpt><trkpt lat="49.623885" lon="15.1145501"><ele>533.0</ele><time>2026-04-06T10:46:56.861Z</time></trkpt><trkpt lat="49.6239554" lon="15.1144311"><ele>533.0</ele><time>2026-04-06T10:46:58.862Z</time></trkpt><trkpt lat="49.6240293" lon="15.1144268"><ele>533.0</ele><time>2026-04-06T10:46:59.861Z</time></trkpt><trkpt lat="49.6241322" lon="15.1144667"><ele>533.0</ele><time>2026-04-06T10:47:00.862Z</time></trkpt><trkpt lat="49.6242471" lon="15.1145311"><ele>533.0</ele><time>2026-04-06T10:47:01.861Z</time></trkpt><trkpt lat="49.6243788" lon="15.1145869"><ele>533.0</ele><time>2026-04-06T10:47:02.861Z</time></trkpt><trkpt lat="49.6245355" lon="15.1146136"><ele>533.0</ele><time>2026-04-06T10:47:03.861Z</time></trkpt><trkpt lat="49.6247061" lon="15.1145999"><ele>533.3333333333333</ele><time>2026-04-06T10:47:04.861Z</time></trkpt><trkpt lat="49.624879" lon="15.1145699"><ele>533.6666666666666</ele><time>2026-04-06T10:47:05.861Z</time></trkpt><trkpt lat="49.6250476" lon="15.114554"><ele>534.0</ele><time>2026-04-06T10:47:06.862Z</time></trkpt><trkpt lat="49.6252152" lon="15.1145843"><ele>534.6666666666666</ele><time>2026-04-06T10:47:07.862Z</time></trkpt><trkpt lat="49.6253778" lon="15.1146806"><ele>535.3333333333333</ele><time>2026-04-06T10:47:08.861Z</time></trkpt><trkpt lat="49.6255288" lon="15.1148023"><ele>536.0</ele><time>2026-04-06T10:47:09.861Z</time></trkpt><trkpt lat="49.625643" lon="15.114909"><ele>536.0</ele><time>2026-04-06T10:47:10.862Z</time></trkpt><trkpt lat="49.6257314" lon="15.1149888"><ele>536.0</ele><time>2026-04-06T10:47:11.861Z</time></trkpt><trkpt lat="49.6258025" lon="15.1150427"><ele>536.0</ele><time>2026-04-06T10:47:12.862Z</time></trkpt><trkpt lat="49.6258667" lon="15.1150485"><ele>536.0</ele><time>2026-04-06T10:47:13.861Z</time></trkpt><trkpt lat="49.6259662" lon="15.1149049"><ele>536.0</ele><time>2026-04-06T10:47:15.861Z</time></trkpt><trkpt lat="49.6260017" lon="15.1147694"><ele>536.0</ele><time>2026-04-06T10:47:16.862Z</time></trkpt><trkpt lat="49.6260352" lon="15.1145924"><ele>536.0</ele><time>2026-04-06T10:47:17.861Z</time></trkpt><trkpt lat="49.6260685" lon="15.1143721"><ele>536.0</ele><time>2026-04-06T10:47:18.861Z</time></trkpt><trkpt lat="49.6260996" lon="15.1141235"><ele>536.0</ele><time>2026-04-06T10:47:19.862Z</time></trkpt><trkpt lat="49.6261285" lon="15.1138793"><ele>533.5</ele><time>2026-04-06T10:47:20.862Z</time></trkpt><trkpt lat="49.6261534" lon="15.1136462"><ele>531.0</ele><time>2026-04-06T10:47:21.862Z</time></trkpt><trkpt lat="49.626185" lon="15.1134289"><ele>528.5</ele><time>2026-04-06T10:47:22.861Z</time></trkpt><trkpt lat="49.626217" lon="15.1132188"><ele>526.0</ele><time>2026-04-06T10:47:23.862Z</time></trkpt><trkpt lat="49.6262446" lon="15.1130108"><ele>526.0</ele><time>2026-04-06T10:47:24.861Z</time></trkpt><trkpt lat="49.6262665" lon="15.1128191"><ele>526.0</ele><time>2026-04-06T10:47:25.862Z</time></trkpt><trkpt lat="49.6262836" lon="15.1126445"><ele>526.0</ele><time>2026-04-06T10:47:26.861Z</time></trkpt><trkpt lat="49.6263067" lon="15.1124801"><ele>526.0</ele><time>2026-04-06T10:47:27.862Z</time></trkpt><trkpt lat="49.6263398" lon="15.1123222"><ele>525.8</ele><time>2026-04-06T10:47:28.862Z</time></trkpt><trkpt lat="49.6263759" lon="15.1121677"><ele>525.6</ele><time>2026-04-06T10:47:29.862Z</time></trkpt><trkpt lat="49.6264104" lon="15.1120196"><ele>525.4</ele><time>2026-04-06T10:47:30.861Z</time></trkpt><trkpt lat="49.6264313" lon="15.111872"><ele>525.2</ele><time>2026-04-06T10:47:31.861Z</time></trkpt><trkpt lat="49.6264584" lon="15.1117186"><ele>525.0</ele><time>2026-04-06T10:47:32.862Z</time></trkpt><trkpt lat="49.6264992" lon="15.1115872"><ele>524.4</ele><time>2026-04-06T10:47:33.861Z</time></trkpt><trkpt lat="49.6265429" lon="15.1114667"><ele>523.8</ele><time>2026-04-06T10:47:34.862Z</time></trkpt><trkpt lat="49.6265982" lon="15.1113479"><ele>523.2</ele><time>2026-04-06T10:47:35.862Z</time></trkpt><trkpt lat="49.626656" lon="15.111213"><ele>522.6</ele><time>2026-04-06T10:47:36.861Z</time></trkpt><trkpt lat="49.626731" lon="15.111076"><ele>522.0</ele><time>2026-04-06T10:47:37.862Z</time></trkpt><trkpt lat="49.6268051" lon="15.1109352"><ele>522.0</ele><time>2026-04-06T10:47:38.861Z</time></trkpt><trkpt lat="49.6268636" lon="15.1107473"><ele>522.0</ele><time>2026-04-06T10:47:39.862Z</time></trkpt><trkpt lat="49.6269135" lon="15.1105669"><ele>522.0</ele><time>2026-04-06T10:47:40.862Z</time></trkpt><trkpt lat="49.6269424" lon="15.1103971"><ele>522.0</ele><time>2026-04-06T10:47:41.861Z</time></trkpt><trkpt lat="49.6269711" lon="15.1102199"><ele>521.5</ele><time>2026-04-06T10:47:42.862Z</time></trkpt><trkpt lat="49.6269926" lon="15.1100224"><ele>521.0</ele><time>2026-04-06T10:47:43.862Z</time></trkpt><trkpt lat="49.6270445" lon="15.1098159"><ele>520.5</ele><time>2026-04-06T10:47:44.862Z</time></trkpt><trkpt lat="49.6271092" lon="15.1096082"><ele>520.0</ele><time>2026-04-06T10:47:45.861Z</time></trkpt><trkpt lat="49.6271781" lon="15.1094171"><ele>519.75</ele><time>2026-04-06T10:47:46.862Z</time></trkpt><trkpt lat="49.6272489" lon="15.1092236"><ele>519.5</ele><time>2026-04-06T10:47:47.861Z</time></trkpt><trkpt lat="49.6273198" lon="15.10904"><ele>519.25</ele><time>2026-04-06T10:47:48.861Z</time></trkpt><trkpt lat="49.6274003" lon="15.1088748"><ele>519.0</ele><time>2026-04-06T10:47:49.861Z</time></trkpt><trkpt lat="49.6274744" lon="15.1087241"><ele>519.25</ele><time>2026-04-06T10:47:50.862Z</time></trkpt><trkpt lat="49.6275631" lon="15.1085889"><ele>519.5</ele><time>2026-04-06T10:47:51.861Z</time></trkpt><trkpt lat="49.6276641" lon="15.1084749"><ele>519.75</ele><time>2026-04-06T10:47:52.862Z</time></trkpt><trkpt lat="49.627767" lon="15.1083749"><ele>520.0</ele><time>2026-04-06T10:47:53.861Z</time></trkpt><trkpt lat="49.6278654" lon="15.1082763"><ele>519.4</ele><time>2026-04-06T10:47:54.862Z</time></trkpt><trkpt lat="49.627953" lon="15.108183"><ele>518.8</ele><time>2026-04-06T10:47:55.862Z</time></trkpt><trkpt lat="49.6280284" lon="15.1081309"><ele>518.2</ele><time>2026-04-06T10:47:56.862Z</time></trkpt><trkpt lat="49.6281001" lon="15.1081004"><ele>517.6</ele><time>2026-04-06T10:47:57.861Z</time></trkpt><trkpt lat="49.6281887" lon="15.1081166"><ele>517.0</ele><time>2026-04-06T10:47:58.861Z</time></trkpt><trkpt lat="49.628284" lon="15.1081546"><ele>517.0</ele><time>2026-04-06T10:47:59.862Z</time></trkpt><trkpt lat="49.6283755" lon="15.1082065"><ele>517.0</ele><time>2026-04-06T10:48:00.862Z</time></trkpt><trkpt lat="49.628473" lon="15.1082748"><ele>517.0</ele><time>2026-04-06T10:48:01.862Z</time></trkpt><trkpt lat="49.6285653" lon="15.1083515"><ele>517.0</ele><time>2026-04-06T10:48:02.862Z</time></trkpt><trkpt lat="49.6286431" lon="15.1084272"><ele>517.0</ele><time>2026-04-06T10:48:03.861Z</time></trkpt><trkpt lat="49.6286991" lon="15.1084899"><ele>517.25</ele><time>2026-04-06T10:48:04.862Z</time></trkpt><trkpt lat="49.6287939" lon="15.1085043"><ele>517.5</ele><time>2026-04-06T10:48:06.861Z</time></trkpt><trkpt lat="49.6288702" lon="15.1083562"><ele>517.75</ele><time>2026-04-06T10:48:08.861Z</time></trkpt><trkpt lat="49.6288908" lon="15.1081901"><ele>518.0</ele><time>2026-04-06T10:48:09.862Z</time></trkpt><trkpt lat="49.6289428" lon="15.1079913"><ele>518.25</ele><time>2026-04-06T10:48:10.861Z</time></trkpt><trkpt lat="49.6290034" lon="15.107818"><ele>518.5</ele><time>2026-04-06T10:48:11.861Z</time></trkpt><trkpt lat="49.6290697" lon="15.1076428"><ele>518.75</ele><time>2026-04-06T10:48:12.861Z</time></trkpt><trkpt lat="49.6291432" lon="15.1074965"><ele>519.0</ele><time>2026-04-06T10:48:13.862Z</time></trkpt><trkpt lat="49.6291898" lon="15.1073479"><ele>519.0</ele><time>2026-04-06T10:48:14.861Z</time></trkpt><trkpt lat="49.6292318" lon="15.1072189"><ele>519.0</ele><time>2026-04-06T10:48:15.862Z</time></trkpt><trkpt lat="49.6292689" lon="15.1070617"><ele>519.0</ele><time>2026-04-06T10:48:16.862Z</time></trkpt><trkpt lat="49.6293047" lon="15.1068705"><ele>519.0</ele><time>2026-04-06T10:48:17.862Z</time></trkpt><trkpt lat="49.6293417" lon="15.1066888"><ele>518.25</ele><time>2026-04-06T10:48:18.861Z</time></trkpt><trkpt lat="49.6293756" lon="15.1065154"><ele>517.5</ele><time>2026-04-06T10:48:19.861Z</time></trkpt><trkpt lat="49.6294065" lon="15.1063425"><ele>516.75</ele><time>2026-04-06T10:48:20.861Z</time></trkpt><trkpt lat="49.6294379" lon="15.1061756"><ele>516.0</ele><time>2026-04-06T10:48:21.861Z</time></trkpt><trkpt lat="49.629471" lon="15.1060115"><ele>516.75</ele><time>2026-04-06T10:48:22.862Z</time></trkpt><trkpt lat="49.6294972" lon="15.1058246"><ele>517.5</ele><time>2026-04-06T10:48:23.862Z</time></trkpt><trkpt lat="49.6295187" lon="15.1056412"><ele>518.25</ele><time>2026-04-06T10:48:24.862Z</time></trkpt><trkpt lat="49.6295586" lon="15.1054646"><ele>519.0</ele><time>2026-04-06T10:48:25.861Z</time></trkpt><trkpt lat="49.6296026" lon="15.1052899"><ele>515.3333333333334</ele><time>2026-04-06T10:48:26.862Z</time></trkpt><trkpt lat="49.6296513" lon="15.1050878"><ele>511.6666666666667</ele><time>2026-04-06T10:48:27.861Z</time></trkpt><trkpt lat="49.6297111" lon="15.1048562"><ele>508.0</ele><time>2026-04-06T10:48:28.861Z</time></trkpt><trkpt lat="49.6297826" lon="15.1046004"><ele>506.6666666666667</ele><time>2026-04-06T10:48:29.861Z</time></trkpt><trkpt lat="49.629859" lon="15.1043199"><ele>505.33333333333337</ele><time>2026-04-06T10:48:30.862Z</time></trkpt><trkpt lat="49.629937" lon="15.1040353"><ele>504.0</ele><time>2026-04-06T10:48:31.861Z</time></trkpt><trkpt lat="49.6300091" lon="15.1037547"><ele>504.0</ele><time>2026-04-06T10:48:32.862Z</time></trkpt><trkpt lat="49.6300788" lon="15.1034847"><ele>504.0</ele><time>2026-04-06T10:48:33.862Z</time></trkpt><trkpt lat="49.630148" lon="15.1032268"><ele>504.0</ele><time>2026-04-06T10:48:34.861Z</time></trkpt><trkpt lat="49.6302159" lon="15.1029767"><ele>504.33333333333337</ele><time>2026-04-06T10:48:35.861Z</time></trkpt><trkpt lat="49.6302838" lon="15.1027292"><ele>504.6666666666667</ele><time>2026-04-06T10:48:36.861Z</time></trkpt><trkpt lat="49.6303514" lon="15.1024856"><ele>505.0</ele><time>2026-04-06T10:48:37.862Z</time></trkpt><trkpt lat="49.6304195" lon="15.1022503"><ele>504.6666666666667</ele><time>2026-04-06T10:48:38.862Z</time></trkpt><trkpt lat="49.6304874" lon="15.1020136"><ele>504.33333333333337</ele><time>2026-04-06T10:48:39.861Z</time></trkpt><trkpt lat="49.630555" lon="15.1017841"><ele>504.0</ele><time>2026-04-06T10:48:40.862Z</time></trkpt><trkpt lat="49.6306206" lon="15.1015577"><ele>504.0</ele><time>2026-04-06T10:48:41.861Z</time></trkpt><trkpt lat="49.6306851" lon="15.1013266"><ele>504.0</ele><time>2026-04-06T10:48:42.861Z</time></trkpt><trkpt lat="49.6307493" lon="15.1010947"><ele>504.0</ele><time>2026-04-06T10:48:43.861Z</time></trkpt><trkpt lat="49.6308124" lon="15.1008624"><ele>504.33333333333337</ele><time>2026-04-06T10:48:44.861Z</time></trkpt><trkpt lat="49.6308686" lon="15.1006259"><ele>504.6666666666667</ele><time>2026-04-06T10:48:45.862Z</time></trkpt><trkpt lat="49.6309143" lon="15.1003789"><ele>505.0</ele><time>2026-04-06T10:48:46.861Z</time></trkpt><trkpt lat="49.630955" lon="15.1001331"><ele>504.33333333333337</ele><time>2026-04-06T10:48:47.862Z</time></trkpt><trkpt lat="49.6309941" lon="15.0998945"><ele>503.66666666666663</ele><time>2026-04-06T10:48:48.862Z</time></trkpt><trkpt lat="49.6310238" lon="15.0996613"><ele>503.0</ele><time>2026-04-06T10:48:49.862Z</time></trkpt><trkpt lat="49.6310487" lon="15.099441"><ele>503.0</ele><time>2026-04-06T10:48:50.862Z</time></trkpt><trkpt lat="49.631072" lon="15.0992346"><ele>503.0</ele><time>2026-04-06T10:48:51.861Z</time></trkpt><trkpt lat="49.6310912" lon="15.0990228"><ele>503.0</ele><time>2026-04-06T10:48:52.861Z</time></trkpt><trkpt lat="49.6311171" lon="15.0988011"><ele>503.0</ele><time>2026-04-06T10:48:53.861Z</time></trkpt><trkpt lat="49.6311508" lon="15.0985776"><ele>501.0</ele><time>2026-04-06T10:48:54.862Z</time></trkpt><trkpt lat="49.6311766" lon="15.0983367"><ele>499.0</ele><time>2026-04-06T10:48:55.861Z</time></trkpt><trkpt lat="49.6312007" lon="15.0980842"><ele>497.0</ele><time>2026-04-06T10:48:56.862Z</time></trkpt><trkpt lat="49.6312336" lon="15.0978185"><ele>497.0</ele><time>2026-04-06T10:48:57.862Z</time></trkpt><trkpt lat="49.6312721" lon="15.0975406"><ele>497.0</ele><time>2026-04-06T10:48:58.861Z</time></trkpt><trkpt lat="49.6313067" lon="15.0972489"><ele>497.0</ele><time>2026-04-06T10:48:59.861Z</time></trkpt><trkpt lat="49.6313403" lon="15.0969579"><ele>496.66666666666663</ele><time>2026-04-06T10:49:00.861Z</time></trkpt><trkpt lat="49.6313734" lon="15.0966797"><ele>496.33333333333337</ele><time>2026-04-06T10:49:01.861Z</time></trkpt><trkpt lat="49.6314041" lon="15.0964066"><ele>496.0</ele><time>2026-04-06T10:49:02.862Z</time></trkpt><trkpt lat="49.6314413" lon="15.0961292"><ele>496.0</ele><time>2026-04-06T10:49:03.861Z</time></trkpt><trkpt lat="49.6314804" lon="15.0958494"><ele>496.0</ele><time>2026-04-06T10:49:04.861Z</time></trkpt><trkpt lat="49.6315193" lon="15.0955679"><ele>496.0</ele><time>2026-04-06T10:49:05.862Z</time></trkpt><trkpt lat="49.6315565" lon="15.0952828"><ele>495.6666666666667</ele><time>2026-04-06T10:49:06.862Z</time></trkpt><trkpt lat="49.6315901" lon="15.0949911"><ele>495.33333333333337</ele><time>2026-04-06T10:49:07.862Z</time></trkpt><trkpt lat="49.6316288" lon="15.0946979"><ele>495.0</ele><time>2026-04-06T10:49:08.861Z</time></trkpt><trkpt lat="49.6316702" lon="15.0944093"><ele>493.66666666666663</ele><time>2026-04-06T10:49:09.861Z</time></trkpt><trkpt lat="49.631714" lon="15.0941275"><ele>492.3333333333333</ele><time>2026-04-06T10:49:10.861Z</time></trkpt><trkpt lat="49.6317647" lon="15.0938429"><ele>491.0</ele><time>2026-04-06T10:49:11.862Z</time></trkpt><trkpt lat="49.6318166" lon="15.0935729"><ele>490.0</ele><time>2026-04-06T10:49:12.861Z</time></trkpt><trkpt lat="49.6318666" lon="15.0933225"><ele>489.0</ele><time>2026-04-06T10:49:13.861Z</time></trkpt><trkpt lat="49.6319112" lon="15.0930927"><ele>488.0</ele><time>2026-04-06T10:49:14.861Z</time></trkpt><trkpt lat="49.6319526" lon="15.0928907"><ele>486.25</ele><time>2026-04-06T10:49:15.861Z</time></trkpt><trkpt lat="49.6319993" lon="15.09271"><ele>484.5</ele><time>2026-04-06T10:49:16.861Z</time></trkpt><trkpt lat="49.6320573" lon="15.0925468"><ele>482.75</ele><time>2026-04-06T10:49:17.862Z</time></trkpt><trkpt lat="49.6321354" lon="15.0924014"><ele>481.0</ele><time>2026-04-06T10:49:18.861Z</time></trkpt><trkpt lat="49.6322228" lon="15.0922539"><ele>480.0</ele><time>2026-04-06T10:49:19.861Z</time></trkpt><trkpt lat="49.632301" lon="15.0920975"><ele>479.0</ele><time>2026-04-06T10:49:20.861Z</time></trkpt><trkpt lat="49.6323612" lon="15.0919346"><ele>478.0</ele><time>2026-04-06T10:49:21.862Z</time></trkpt><trkpt lat="49.6323994" lon="15.0917901"><ele>477.0</ele><time>2026-04-06T10:49:22.862Z</time></trkpt><trkpt lat="49.6324265" lon="15.0916928"><ele>476.0</ele><time>2026-04-06T10:49:23.861Z</time></trkpt><trkpt lat="49.6324776" lon="15.0915735"><ele>476.0</ele><time>2026-04-06T10:49:25.861Z</time></trkpt><trkpt lat="49.6325511" lon="15.0915891"><ele>476.0</ele><time>2026-04-06T10:49:27.862Z</time></trkpt><trkpt lat="49.6325878" lon="15.0917105"><ele>476.0</ele><time>2026-04-06T10:49:29.861Z</time></trkpt><trkpt lat="49.6325382" lon="15.0917923"><ele>476.0</ele><time>2026-04-06T10:49:31.862Z</time></trkpt><trkpt lat="49.632432" lon="15.0917781"><ele>476.0</ele><time>2026-04-06T10:49:33.862Z</time></trkpt><trkpt lat="49.6323449" lon="15.0916634"><ele>475.4</ele><time>2026-04-06T10:49:35.861Z</time></trkpt><trkpt lat="49.6322687" lon="15.0915207"><ele>474.8</ele><time>2026-04-06T10:49:37.862Z</time></trkpt><trkpt lat="49.6322339" lon="15.0914032"><ele>474.19999999999993</ele><time>2026-04-06T10:49:38.862Z</time></trkpt><trkpt lat="49.6322173" lon="15.0912679"><ele>473.59999999999997</ele><time>2026-04-06T10:49:39.861Z</time></trkpt><trkpt lat="49.632221" lon="15.0911245"><ele>473.0</ele><time>2026-04-06T10:49:40.862Z</time></trkpt><trkpt lat="49.6322262" lon="15.090985"><ele>472.99999999999994</ele><time>2026-04-06T10:49:41.861Z</time></trkpt><trkpt lat="49.6322295" lon="15.0908568"><ele>473.0</ele><time>2026-04-06T10:49:42.861Z</time></trkpt><trkpt lat="49.632225" lon="15.0907345"><ele>473.0</ele><time>2026-04-06T10:49:43.861Z</time></trkpt><trkpt lat="49.6322134" lon="15.0906283"><ele>473.0</ele><time>2026-04-06T10:49:44.862Z</time></trkpt><trkpt lat="49.6321953" lon="15.0905211"><ele>472.99999999999994</ele><time>2026-04-06T10:49:45.862Z</time></trkpt><trkpt lat="49.6321733" lon="15.0904093"><ele>473.0</ele><time>2026-04-06T10:49:46.862Z</time></trkpt><trkpt lat="49.6321427" lon="15.0903098"><ele>472.0</ele><time>2026-04-06T10:49:47.862Z</time></trkpt><trkpt lat="49.6321002" lon="15.0902133"><ele>470.99999999999994</ele><time>2026-04-06T10:49:48.861Z</time></trkpt><trkpt lat="49.6320518" lon="15.0901316"><ele>469.99999999999994</ele><time>2026-04-06T10:49:49.861Z</time></trkpt><trkpt lat="49.6320056" lon="15.0900557"><ele>469.0</ele><time>2026-04-06T10:49:50.862Z</time></trkpt><trkpt lat="49.6319231" lon="15.0899228"><ele>468.0</ele><time>2026-04-06T10:49:52.862Z</time></trkpt><trkpt lat="49.6318354" lon="15.0898007"><ele>467.0</ele><time>2026-04-06T10:49:54.862Z</time></trkpt><trkpt lat="49.6317358" lon="15.0896488"><ele>466.0</ele><time>2026-04-06T10:49:56.861Z</time></trkpt><trkpt lat="49.6316945" lon="15.0895359"><ele>465.0</ele><time>2026-04-06T10:49:57.862Z</time></trkpt><trkpt lat="49.6316535" lon="15.089429"><ele>464.0</ele><time>2026-04-06T10:49:58.861Z</time></trkpt><trkpt lat="49.631601" lon="15.0893553"><ele>463.0</ele><time>2026-04-06T10:49:59.862Z</time></trkpt><trkpt lat="49.6315334" lon="15.0893098"><ele>462.0</ele><time>2026-04-06T10:50:00.861Z</time></trkpt><trkpt lat="49.6314524" lon="15.0892899"><ele>462.0</ele><time>2026-04-06T10:50:01.862Z</time></trkpt><trkpt lat="49.6313669" lon="15.0893082"><ele>462.0</ele><time>2026-04-06T10:50:02.862Z</time></trkpt><trkpt lat="49.6312763" lon="15.0893457"><ele>462.0</ele><time>2026-04-06T10:50:03.861Z</time></trkpt><trkpt lat="49.6311929" lon="15.0893811"><ele>462.0</ele><time>2026-04-06T10:50:04.861Z</time></trkpt><trkpt lat="49.6311134" lon="15.0893913"><ele>462.0</ele><time>2026-04-06T10:50:05.861Z</time></trkpt><trkpt lat="49.6310416" lon="15.0893678"><ele>462.0</ele><time>2026-04-06T10:50:06.861Z</time></trkpt><trkpt lat="49.6309841" lon="15.0893216"><ele>462.0</ele><time>2026-04-06T10:50:07.861Z</time></trkpt><trkpt lat="49.6309348" lon="15.0891962"><ele>462.00000000000006</ele><time>2026-04-06T10:50:09.862Z</time></trkpt><trkpt lat="49.6309394" lon="15.0890972"><ele>462.00000000000006</ele><time>2026-04-06T10:50:10.861Z</time></trkpt><trkpt lat="49.6309513" lon="15.0889642"><ele>462.0</ele><time>2026-04-06T10:50:11.862Z</time></trkpt><trkpt lat="49.6309772" lon="15.088802"><ele>462.0</ele><time>2026-04-06T10:50:12.861Z</time></trkpt><trkpt lat="49.6310119" lon="15.0886273"><ele>462.20000000000005</ele><time>2026-04-06T10:50:13.861Z</time></trkpt><trkpt lat="49.6310513" lon="15.0884631"><ele>462.40000000000003</ele><time>2026-04-06T10:50:14.862Z</time></trkpt><trkpt lat="49.6310872" lon="15.088318"><ele>462.59999999999997</ele><time>2026-04-06T10:50:15.861Z</time></trkpt><trkpt lat="49.6311161" lon="15.0881787"><ele>462.79999999999995</ele><time>2026-04-06T10:50:16.862Z</time></trkpt><trkpt lat="49.631139" lon="15.0880507"><ele>463.0</ele><time>2026-04-06T10:50:17.862Z</time></trkpt><trkpt lat="49.6311575" lon="15.0879427"><ele>462.4</ele><time>2026-04-06T10:50:18.861Z</time></trkpt><trkpt lat="49.6311807" lon="15.0878408"><ele>461.79999999999995</ele><time>2026-04-06T10:50:19.861Z</time></trkpt><trkpt lat="49.6312677" lon="15.0877307"><ele>461.2</ele><time>2026-04-06T10:50:21.861Z</time></trkpt><trkpt lat="49.6313461" lon="15.087718"><ele>460.6</ele><time>2026-04-06T10:50:22.862Z</time></trkpt><trkpt lat="49.6314439" lon="15.0877244"><ele>460.0</ele><time>2026-04-06T10:50:23.862Z</time></trkpt><trkpt lat="49.6315638" lon="15.0877158"><ele>460.0</ele><time>2026-04-06T10:50:24.861Z</time></trkpt><trkpt lat="49.6316958" lon="15.0876865"><ele>460.0</ele><time>2026-04-06T10:50:25.862Z</time></trkpt><trkpt lat="49.6318369" lon="15.0876402"><ele>460.0</ele><time>2026-04-06T10:50:26.861Z</time></trkpt><trkpt lat="49.6319852" lon="15.0875964"><ele>460.0</ele><time>2026-04-06T10:50:27.862Z</time></trkpt><trkpt lat="49.6321391" lon="15.0875431"><ele>458.6666666666667</ele><time>2026-04-06T10:50:28.861Z</time></trkpt><trkpt lat="49.6323045" lon="15.0874891"><ele>457.33333333333337</ele><time>2026-04-06T10:50:29.861Z</time></trkpt><trkpt lat="49.6324669" lon="15.0874365"><ele>456.0</ele><time>2026-04-06T10:50:30.862Z</time></trkpt><trkpt lat="49.6326236" lon="15.0873908"><ele>456.0</ele><time>2026-04-06T10:50:31.861Z</time></trkpt><trkpt lat="49.6327756" lon="15.0873452"><ele>456.0</ele><time>2026-04-06T10:50:32.862Z</time></trkpt><trkpt lat="49.6329194" lon="15.0873003"><ele>456.0</ele><time>2026-04-06T10:50:33.862Z</time></trkpt><trkpt lat="49.633062" lon="15.0872468"><ele>456.0</ele><time>2026-04-06T10:50:34.861Z</time></trkpt><trkpt lat="49.6332104" lon="15.0871584"><ele>454.0</ele><time>2026-04-06T10:50:35.861Z</time></trkpt><trkpt lat="49.63336" lon="15.0870427"><ele>452.0</ele><time>2026-04-06T10:50:36.861Z</time></trkpt><trkpt lat="49.6335141" lon="15.0869259"><ele>450.0</ele><time>2026-04-06T10:50:37.862Z</time></trkpt><trkpt lat="49.633673" lon="15.0868028"><ele>447.33333333333337</ele><time>2026-04-06T10:50:38.861Z</time></trkpt><trkpt lat="49.6338338" lon="15.0866884"><ele>444.6666666666667</ele><time>2026-04-06T10:50:39.861Z</time></trkpt><trkpt lat="49.6339953" lon="15.0865868"><ele>442.0</ele><time>2026-04-06T10:50:40.861Z</time></trkpt><trkpt lat="49.6341596" lon="15.0865219"><ele>441.6666666666667</ele><time>2026-04-06T10:50:41.862Z</time></trkpt><trkpt lat="49.6343245" lon="15.0864933"><ele>441.33333333333337</ele><time>2026-04-06T10:50:42.861Z</time></trkpt><trkpt lat="49.63449" lon="15.086481"><ele>441.0</ele><time>2026-04-06T10:50:43.861Z</time></trkpt><trkpt lat="49.6346395" lon="15.0864645"><ele>442.0</ele><time>2026-04-06T10:50:44.862Z</time></trkpt><trkpt lat="49.6347796" lon="15.0864636"><ele>443.0</ele><time>2026-04-06T10:50:45.862Z</time></trkpt><trkpt lat="49.6349025" lon="15.0865112"><ele>444.0</ele><time>2026-04-06T10:50:46.862Z</time></trkpt><trkpt lat="49.6350029" lon="15.0866135"><ele>445.0</ele><time>2026-04-06T10:50:47.861Z</time></trkpt><trkpt lat="49.6350699" lon="15.086765"><ele>445.0</ele><time>2026-04-06T10:50:48.862Z</time></trkpt><trkpt lat="49.6351282" lon="15.0869474"><ele>445.0</ele><time>2026-04-06T10:50:49.861Z</time></trkpt><trkpt lat="49.6351692" lon="15.0871642"><ele>445.0</ele><time>2026-04-06T10:50:50.861Z</time></trkpt><trkpt lat="49.6352233" lon="15.0873846"><ele>445.0</ele><time>2026-04-06T10:50:51.862Z</time></trkpt><trkpt lat="49.6352823" lon="15.0876083"><ele>449.0</ele><time>2026-04-06T10:50:52.862Z</time></trkpt><trkpt lat="49.6353479" lon="15.0878404"><ele>453.0</ele><time>2026-04-06T10:50:53.861Z</time></trkpt><trkpt lat="49.635422" lon="15.0880883"><ele>457.0</ele><time>2026-04-06T10:50:54.861Z</time></trkpt><trkpt lat="49.6355035" lon="15.0883528"><ele>457.0</ele><time>2026-04-06T10:50:55.862Z</time></trkpt><trkpt lat="49.6356017" lon="15.0886338"><ele>457.0</ele><time>2026-04-06T10:50:56.862Z</time></trkpt><trkpt lat="49.6357174" lon="15.088921"><ele>457.0</ele><time>2026-04-06T10:50:57.862Z</time></trkpt><trkpt lat="49.6358361" lon="15.0892091"><ele>456.33333333333337</ele><time>2026-04-06T10:50:58.861Z</time></trkpt><trkpt lat="49.6359556" lon="15.0894926"><ele>455.66666666666663</ele><time>2026-04-06T10:50:59.862Z</time></trkpt><trkpt lat="49.6360729" lon="15.0897648"><ele>455.0</ele><time>2026-04-06T10:51:00.862Z</time></trkpt><trkpt lat="49.6361856" lon="15.0900371"><ele>458.3333333333333</ele><time>2026-04-06T10:51:01.861Z</time></trkpt><trkpt lat="49.6363014" lon="15.0903117"><ele>461.66666666666663</ele><time>2026-04-06T10:51:02.861Z</time></trkpt><trkpt lat="49.6364186" lon="15.0905925"><ele>465.0</ele><time>2026-04-06T10:51:03.862Z</time></trkpt><trkpt lat="49.6365333" lon="15.0908704"><ele>465.0</ele><time>2026-04-06T10:51:04.862Z</time></trkpt><trkpt lat="49.6366444" lon="15.0911242"><ele>465.0</ele><time>2026-04-06T10:51:05.861Z</time></trkpt><trkpt lat="49.6367424" lon="15.0913572"><ele>465.0</ele><time>2026-04-06T10:51:06.861Z</time></trkpt><trkpt lat="49.6368304" lon="15.0915686"><ele>464.75</ele><time>2026-04-06T10:51:07.862Z</time></trkpt><trkpt lat="49.6369105" lon="15.091762"><ele>464.5</ele><time>2026-04-06T10:51:08.861Z</time></trkpt><trkpt lat="49.6369832" lon="15.0919353"><ele>464.25</ele><time>2026-04-06T10:51:09.861Z</time></trkpt><trkpt lat="49.6370433" lon="15.0920995"><ele>464.0</ele><time>2026-04-06T10:51:10.861Z</time></trkpt><trkpt lat="49.6371008" lon="15.0922552"><ele>465.79999999999995</ele><time>2026-04-06T10:51:11.861Z</time></trkpt><trkpt lat="49.6371743" lon="15.0923608"><ele>467.59999999999997</ele><time>2026-04-06T10:51:12.861Z</time></trkpt><trkpt lat="49.6372617" lon="15.0923961"><ele>469.4</ele><time>2026-04-06T10:51:13.861Z</time></trkpt><trkpt lat="49.6373536" lon="15.0923881"><ele>471.2</ele><time>2026-04-06T10:51:14.861Z</time></trkpt><trkpt lat="49.6374477" lon="15.0923626"><ele>473.0</ele><time>2026-04-06T10:51:15.861Z</time></trkpt><trkpt lat="49.6375868" lon="15.0923476"><ele>473.0</ele><time>2026-04-06T10:51:16.862Z</time></trkpt><trkpt lat="49.6377565" lon="15.0923274"><ele>473.0</ele><time>2026-04-06T10:51:17.862Z</time></trkpt><trkpt lat="49.6379395" lon="15.092305"><ele>473.0</ele><time>2026-04-06T10:51:18.862Z</time></trkpt><trkpt lat="49.6381399" lon="15.0922842"><ele>475.0</ele><time>2026-04-06T10:51:19.861Z</time></trkpt><trkpt lat="49.6383374" lon="15.0922722"><ele>477.0</ele><time>2026-04-06T10:51:20.862Z</time></trkpt><trkpt lat="49.6385178" lon="15.0922742"><ele>479.0</ele><time>2026-04-06T10:51:21.862Z</time></trkpt><trkpt lat="49.6386888" lon="15.0922826"><ele>479.0</ele><time>2026-04-06T10:51:22.861Z</time></trkpt><trkpt lat="49.6388621" lon="15.0922806"><ele>479.0</ele><time>2026-04-06T10:51:23.861Z</time></trkpt><trkpt lat="49.6390406" lon="15.0922647"><ele>479.0</ele><time>2026-04-06T10:51:24.861Z</time></trkpt><trkpt lat="49.6392207" lon="15.0922357"><ele>479.0</ele><time>2026-04-06T10:51:25.862Z</time></trkpt><trkpt lat="49.6394001" lon="15.0922044"><ele>479.0</ele><time>2026-04-06T10:51:26.861Z</time></trkpt><trkpt lat="49.6395756" lon="15.0921674"><ele>479.0</ele><time>2026-04-06T10:51:27.862Z</time></trkpt><trkpt lat="49.6397448" lon="15.0921363"><ele>478.66666666666663</ele><time>2026-04-06T10:51:28.862Z</time></trkpt><trkpt lat="49.6399154" lon="15.0921022"><ele>478.33333333333337</ele><time>2026-04-06T10:51:29.862Z</time></trkpt><trkpt lat="49.6400807" lon="15.0920705"><ele>478.0</ele><time>2026-04-06T10:51:30.861Z</time></trkpt><trkpt lat="49.6402457" lon="15.0920302"><ele>477.6666666666667</ele><time>2026-04-06T10:51:31.862Z</time></trkpt><trkpt lat="49.6404052" lon="15.0919911"><ele>477.33333333333337</ele><time>2026-04-06T10:51:32.862Z</time></trkpt><trkpt lat="49.6405587" lon="15.0919481"><ele>477.0</ele><time>2026-04-06T10:51:33.862Z</time></trkpt><trkpt lat="49.6407193" lon="15.0918967"><ele>477.0</ele><time>2026-04-06T10:51:34.861Z</time></trkpt><trkpt lat="49.6408849" lon="15.0918397"><ele>477.0</ele><time>2026-04-06T10:51:35.868Z</time></trkpt><trkpt lat="49.6410518" lon="15.0917607"><ele>477.0</ele><time>2026-04-06T10:51:36.869Z</time></trkpt><trkpt lat="49.6412168" lon="15.0916637"><ele>472.66666666666663</ele><time>2026-04-06T10:51:37.869Z</time></trkpt><trkpt lat="49.6413834" lon="15.0915864"><ele>468.3333333333333</ele><time>2026-04-06T10:51:38.868Z</time></trkpt><trkpt lat="49.641553" lon="15.0915437"><ele>464.0</ele><time>2026-04-06T10:51:39.868Z</time></trkpt><trkpt lat="49.6417265" lon="15.0915436"><ele>464.0</ele><time>2026-04-06T10:51:40.869Z</time></trkpt><trkpt lat="49.6418893" lon="15.0915495"><ele>464.0</ele><time>2026-04-06T10:51:41.869Z</time></trkpt><trkpt lat="49.6420546" lon="15.0915765"><ele>464.0</ele><time>2026-04-06T10:51:42.868Z</time></trkpt><trkpt lat="49.6422297" lon="15.0916346"><ele>463.0</ele><time>2026-04-06T10:51:43.869Z</time></trkpt><trkpt lat="49.642401" lon="15.0917347"><ele>462.0</ele><time>2026-04-06T10:51:44.868Z</time></trkpt><trkpt lat="49.6425636" lon="15.0918623"><ele>461.0</ele><time>2026-04-06T10:51:45.868Z</time></trkpt><trkpt lat="49.6427202" lon="15.0920031"><ele>459.3333333333333</ele><time>2026-04-06T10:51:46.869Z</time></trkpt><trkpt lat="49.6428819" lon="15.0921479"><ele>457.66666666666663</ele><time>2026-04-06T10:51:47.869Z</time></trkpt><trkpt lat="49.6430508" lon="15.0922814"><ele>456.0</ele><time>2026-04-06T10:51:48.868Z</time></trkpt><trkpt lat="49.6432201" lon="15.092407"><ele>456.33333333333337</ele><time>2026-04-06T10:51:49.868Z</time></trkpt><trkpt lat="49.6433835" lon="15.0925267"><ele>456.6666666666667</ele><time>2026-04-06T10:51:50.869Z</time></trkpt><trkpt lat="49.643536" lon="15.0926413"><ele>457.0</ele><time>2026-04-06T10:51:51.868Z</time></trkpt><trkpt lat="49.6436781" lon="15.0927491"><ele>457.0</ele><time>2026-04-06T10:51:52.868Z</time></trkpt><trkpt lat="49.6438113" lon="15.092828"><ele>457.0</ele><time>2026-04-06T10:51:53.869Z</time></trkpt><trkpt lat="49.6439339" lon="15.0928653"><ele>457.0</ele><time>2026-04-06T10:51:54.868Z</time></trkpt><trkpt lat="49.6440464" lon="15.092862"><ele>457.0</ele><time>2026-04-06T10:51:55.869Z</time></trkpt><trkpt lat="49.6441536" lon="15.0928295"><ele>457.0</ele><time>2026-04-06T10:51:56.869Z</time></trkpt><trkpt lat="49.6442705" lon="15.0927625"><ele>457.0</ele><time>2026-04-06T10:51:57.868Z</time></trkpt><trkpt lat="49.6443939" lon="15.0926666"><ele>457.0</ele><time>2026-04-06T10:51:58.869Z</time></trkpt><trkpt lat="49.6445265" lon="15.0925288"><ele>457.0</ele><time>2026-04-06T10:51:59.869Z</time></trkpt><trkpt lat="49.6446707" lon="15.0923638"><ele>458.0</ele><time>2026-04-06T10:52:00.869Z</time></trkpt><trkpt lat="49.6448197" lon="15.0922234"><ele>459.0</ele><time>2026-04-06T10:52:01.868Z</time></trkpt><trkpt lat="49.6449924" lon="15.0921146"><ele>460.0</ele><time>2026-04-06T10:52:02.869Z</time></trkpt><trkpt lat="49.6451969" lon="15.092013"><ele>463.0</ele><time>2026-04-06T10:52:03.869Z</time></trkpt><trkpt lat="49.6454183" lon="15.0919121"><ele>466.0</ele><time>2026-04-06T10:52:04.869Z</time></trkpt><trkpt lat="49.6456523" lon="15.0918112"><ele>466.0</ele><time>2026-04-06T10:52:05.869Z</time></trkpt><trkpt lat="49.6458997" lon="15.0916885"><ele>466.0</ele><time>2026-04-06T10:52:06.868Z</time></trkpt><trkpt lat="49.6461429" lon="15.0915567"><ele>467.33333333333337</ele><time>2026-04-06T10:52:07.869Z</time></trkpt><trkpt lat="49.6463632" lon="15.091437"><ele>468.66666666666663</ele><time>2026-04-06T10:52:08.868Z</time></trkpt><trkpt lat="49.6465631" lon="15.091344"><ele>470.0</ele><time>2026-04-06T10:52:09.869Z</time></trkpt><trkpt lat="49.6467621" lon="15.0912622"><ele>471.0</ele><time>2026-04-06T10:52:10.869Z</time></trkpt><trkpt lat="49.6469751" lon="15.0911819"><ele>472.0</ele><time>2026-04-06T10:52:11.869Z</time></trkpt><trkpt lat="49.647204" lon="15.0910954"><ele>472.0</ele><time>2026-04-06T10:52:12.868Z</time></trkpt><trkpt lat="49.6474325" lon="15.0910038"><ele>472.0</ele><time>2026-04-06T10:52:13.868Z</time></trkpt><trkpt lat="49.6476493" lon="15.090907"><ele>472.0</ele><time>2026-04-06T10:52:14.868Z</time></trkpt><trkpt lat="49.6478576" lon="15.0908093"><ele>472.0</ele><time>2026-04-06T10:52:15.868Z</time></trkpt><trkpt lat="49.6480651" lon="15.090715"><ele>472.0</ele><time>2026-04-06T10:52:16.869Z</time></trkpt><trkpt lat="49.6482811" lon="15.0906076"><ele>472.5</ele><time>2026-04-06T10:52:17.868Z</time></trkpt><trkpt lat="49.6485125" lon="15.0904853"><ele>473.0</ele><time>2026-04-06T10:52:18.869Z</time></trkpt><trkpt lat="49.6487516" lon="15.0903514"><ele>473.0</ele><time>2026-04-06T10:52:19.869Z</time></trkpt><trkpt lat="49.6489769" lon="15.0902304"><ele>473.0</ele><time>2026-04-06T10:52:20.868Z</time></trkpt><trkpt lat="49.6491795" lon="15.0901249"><ele>473.0</ele><time>2026-04-06T10:52:21.868Z</time></trkpt><trkpt lat="49.6493653" lon="15.0900268"><ele>473.0</ele><time>2026-04-06T10:52:22.868Z</time></trkpt><trkpt lat="49.6495495" lon="15.0899332"><ele>473.0</ele><time>2026-04-06T10:52:23.868Z</time></trkpt><trkpt lat="49.6497009" lon="15.0898386"><ele>475.5</ele><time>2026-04-06T10:52:24.868Z</time></trkpt><trkpt lat="49.6498348" lon="15.0897541"><ele>478.0</ele><time>2026-04-06T10:52:25.869Z</time></trkpt><trkpt lat="49.6499238" lon="15.0896307"><ele>480.5</ele><time>2026-04-06T10:52:26.869Z</time></trkpt><trkpt lat="49.6499886" lon="15.0894859"><ele>483.0</ele><time>2026-04-06T10:52:27.868Z</time></trkpt><trkpt lat="49.6500372" lon="15.0893399"><ele>483.0</ele><time>2026-04-06T10:52:28.868Z</time></trkpt><trkpt lat="49.6500976" lon="15.0891884"><ele>483.0</ele><time>2026-04-06T10:52:29.868Z</time></trkpt><trkpt lat="49.6501728" lon="15.0890369"><ele>483.0</ele><time>2026-04-06T10:52:30.868Z</time></trkpt><trkpt lat="49.6502609" lon="15.0888868"><ele>483.0</ele><time>2026-04-06T10:52:31.869Z</time></trkpt><trkpt lat="49.6503433" lon="15.0886985"><ele>482.75</ele><time>2026-04-06T10:52:32.868Z</time></trkpt><trkpt lat="49.6504103" lon="15.0885077"><ele>482.5</ele><time>2026-04-06T10:52:33.869Z</time></trkpt><trkpt lat="49.6504778" lon="15.0883377"><ele>482.25</ele><time>2026-04-06T10:52:34.869Z</time></trkpt><trkpt lat="49.650573" lon="15.0881771"><ele>482.0</ele><time>2026-04-06T10:52:35.868Z</time></trkpt><trkpt lat="49.6506947" lon="15.0880173"><ele>482.0</ele><time>2026-04-06T10:52:36.868Z</time></trkpt><trkpt lat="49.6508349" lon="15.087831"><ele>482.0</ele><time>2026-04-06T10:52:37.868Z</time></trkpt><trkpt lat="49.6509763" lon="15.0876439"><ele>482.0</ele><time>2026-04-06T10:52:38.868Z</time></trkpt><trkpt lat="49.6511021" lon="15.0874851"><ele>482.25</ele><time>2026-04-06T10:52:39.869Z</time></trkpt><trkpt lat="49.651212" lon="15.0873343"><ele>482.5</ele><time>2026-04-06T10:52:40.869Z</time></trkpt><trkpt lat="49.6513095" lon="15.0871968"><ele>482.75</ele><time>2026-04-06T10:52:41.868Z</time></trkpt><trkpt lat="49.6513881" lon="15.0871014"><ele>483.0</ele><time>2026-04-06T10:52:42.869Z</time></trkpt><trkpt lat="49.6514742" lon="15.0870025"><ele>483.0</ele><time>2026-04-06T10:52:44.868Z</time></trkpt><trkpt lat="49.6515559" lon="15.0870223"><ele>482.99999999999994</ele><time>2026-04-06T10:52:46.868Z</time></trkpt><trkpt lat="49.6516199" lon="15.0870713"><ele>482.99999999999994</ele><time>2026-04-06T10:52:47.868Z</time></trkpt><trkpt lat="49.6516954" lon="15.0871328"><ele>483.0</ele><time>2026-04-06T10:52:48.869Z</time></trkpt><trkpt lat="49.6517864" lon="15.0872128"><ele>483.0</ele><time>2026-04-06T10:52:49.869Z</time></trkpt><trkpt lat="49.6518861" lon="15.0873062"><ele>483.0</ele><time>2026-04-06T10:52:50.869Z</time></trkpt><trkpt lat="49.6519913" lon="15.0874108"><ele>483.0</ele><time>2026-04-06T10:52:51.868Z</time></trkpt><trkpt lat="49.6521055" lon="15.0875295"><ele>483.0</ele><time>2026-04-06T10:52:52.869Z</time></trkpt><trkpt lat="49.6522198" lon="15.0876342"><ele>483.0</ele><time>2026-04-06T10:52:53.869Z</time></trkpt><trkpt lat="49.6523337" lon="15.0877164"><ele>483.0</ele><time>2026-04-06T10:52:54.869Z</time></trkpt><trkpt lat="49.6524406" lon="15.0877681"><ele>482.99999999999994</ele><time>2026-04-06T10:52:55.869Z</time></trkpt><trkpt lat="49.6525491" lon="15.0877886"><ele>482.99999999999994</ele><time>2026-04-06T10:52:56.868Z</time></trkpt><trkpt lat="49.6526543" lon="15.0878034"><ele>483.0</ele><time>2026-04-06T10:52:57.868Z</time></trkpt><trkpt lat="49.6527616" lon="15.0878109"><ele>483.0</ele><time>2026-04-06T10:52:58.868Z</time></trkpt><trkpt lat="49.6528578" lon="15.0878247"><ele>482.0</ele><time>2026-04-06T10:52:59.869Z</time></trkpt><trkpt lat="49.652948" lon="15.0878437"><ele>481.0</ele><time>2026-04-06T10:53:00.869Z</time></trkpt><trkpt lat="49.6530301" lon="15.0878651"><ele>480.0</ele><time>2026-04-06T10:53:01.868Z</time></trkpt><trkpt lat="49.6531063" lon="15.087886"><ele>479.0</ele><time>2026-04-06T10:53:02.869Z</time></trkpt><trkpt lat="49.6531957" lon="15.0878788"><ele>478.0</ele><time>2026-04-06T10:53:03.869Z</time></trkpt><trkpt lat="49.6532987" lon="15.0878724"><ele>477.0</ele><time>2026-04-06T10:53:04.868Z</time></trkpt><trkpt lat="49.6534003" lon="15.0878588"><ele>477.0</ele><time>2026-04-06T10:53:05.869Z</time></trkpt><trkpt lat="49.6535061" lon="15.0878418"><ele>477.0</ele><time>2026-04-06T10:53:06.869Z</time></trkpt><trkpt lat="49.6536172" lon="15.0878154"><ele>477.0</ele><time>2026-04-06T10:53:07.868Z</time></trkpt><trkpt lat="49.6537347" lon="15.0877713"><ele>477.0</ele><time>2026-04-06T10:53:08.868Z</time></trkpt><trkpt lat="49.653851" lon="15.087719"><ele>475.8</ele><time>2026-04-06T10:53:09.868Z</time></trkpt><trkpt lat="49.6539609" lon="15.0876589"><ele>474.6</ele><time>2026-04-06T10:53:10.869Z</time></trkpt><trkpt lat="49.6540598" lon="15.0875893"><ele>473.40000000000003</ele><time>2026-04-06T10:53:11.869Z</time></trkpt><trkpt lat="49.6541496" lon="15.0875079"><ele>472.20000000000005</ele><time>2026-04-06T10:53:12.869Z</time></trkpt><trkpt lat="49.6542403" lon="15.0874247"><ele>471.0</ele><time>2026-04-06T10:53:13.868Z</time></trkpt><trkpt lat="49.6543398" lon="15.0873503"><ele>469.0</ele><time>2026-04-06T10:53:14.869Z</time></trkpt><trkpt lat="49.6544429" lon="15.0873069"><ele>467.0</ele><time>2026-04-06T10:53:15.868Z</time></trkpt><trkpt lat="49.6545432" lon="15.0872948"><ele>465.0</ele><time>2026-04-06T10:53:16.868Z</time></trkpt><trkpt lat="49.6546581" lon="15.0873111"><ele>463.0</ele><time>2026-04-06T10:53:17.869Z</time></trkpt><trkpt lat="49.6547861" lon="15.0873286"><ele>462.0</ele><time>2026-04-06T10:53:18.868Z</time></trkpt><trkpt lat="49.6549214" lon="15.0873447"><ele>461.0</ele><time>2026-04-06T10:53:19.869Z</time></trkpt><trkpt lat="49.6550659" lon="15.0873701"><ele>460.0</ele><time>2026-04-06T10:53:20.869Z</time></trkpt><trkpt lat="49.6552111" lon="15.0873926"><ele>459.0</ele><time>2026-04-06T10:53:21.868Z</time></trkpt><trkpt lat="49.6553598" lon="15.0874193"><ele>460.0</ele><time>2026-04-06T10:53:22.868Z</time></trkpt><trkpt lat="49.655512" lon="15.0874472"><ele>461.0</ele><time>2026-04-06T10:53:23.868Z</time></trkpt><trkpt lat="49.6556581" lon="15.0874747"><ele>462.0</ele><time>2026-04-06T10:53:24.868Z</time></trkpt><trkpt lat="49.6557963" lon="15.087502"><ele>463.0</ele><time>2026-04-06T10:53:25.869Z</time></trkpt><trkpt lat="49.6559317" lon="15.087533"><ele>463.0</ele><time>2026-04-06T10:53:26.868Z</time></trkpt><trkpt lat="49.656058" lon="15.0875768"><ele>463.0</ele><time>2026-04-06T10:53:27.868Z</time></trkpt><trkpt lat="49.6561787" lon="15.087643"><ele>463.0</ele><time>2026-04-06T10:53:28.869Z</time></trkpt><trkpt lat="49.6562883" lon="15.0877411"><ele>463.0</ele><time>2026-04-06T10:53:29.869Z</time></trkpt><trkpt lat="49.6563971" lon="15.0878661"><ele>462.33333333333337</ele><time>2026-04-06T10:53:30.868Z</time></trkpt><trkpt lat="49.6565359" lon="15.0880072"><ele>461.66666666666663</ele><time>2026-04-06T10:53:31.869Z</time></trkpt><trkpt lat="49.6566756" lon="15.0881595"><ele>461.0</ele><time>2026-04-06T10:53:32.869Z</time></trkpt><trkpt lat="49.6568033" lon="15.0882931"><ele>461.0</ele><time>2026-04-06T10:53:33.868Z</time></trkpt><trkpt lat="49.6569067" lon="15.0884398"><ele>461.0</ele><time>2026-04-06T10:53:34.869Z</time></trkpt><trkpt lat="49.6570123" lon="15.0885635"><ele>461.0</ele><time>2026-04-06T10:53:35.869Z</time></trkpt><trkpt lat="49.6571153" lon="15.0886652"><ele>461.0</ele><time>2026-04-06T10:53:36.869Z</time></trkpt><trkpt lat="49.6572232" lon="15.0887341"><ele>459.0</ele><time>2026-04-06T10:53:37.868Z</time></trkpt><trkpt lat="49.657333" lon="15.0887684"><ele>457.0</ele><time>2026-04-06T10:53:38.868Z</time></trkpt><trkpt lat="49.6574545" lon="15.0887827"><ele>455.0</ele><time>2026-04-06T10:53:39.868Z</time></trkpt><trkpt lat="49.6575914" lon="15.0887961"><ele>453.0</ele><time>2026-04-06T10:53:40.869Z</time></trkpt><trkpt lat="49.6577294" lon="15.0888116"><ele>450.75</ele><time>2026-04-06T10:53:41.869Z</time></trkpt><trkpt lat="49.6578603" lon="15.0888195"><ele>448.5</ele><time>2026-04-06T10:53:42.869Z</time></trkpt><trkpt lat="49.6579818" lon="15.0888158"><ele>446.25</ele><time>2026-04-06T10:53:43.869Z</time></trkpt><trkpt lat="49.6580997" lon="15.0888031"><ele>444.0</ele><time>2026-04-06T10:53:44.868Z</time></trkpt><trkpt lat="49.6582126" lon="15.0887775"><ele>444.0</ele><time>2026-04-06T10:53:45.869Z</time></trkpt><trkpt lat="49.6583267" lon="15.0887768"><ele>444.0</ele><time>2026-04-06T10:53:46.869Z</time></trkpt><trkpt lat="49.6584537" lon="15.0887763"><ele>444.0</ele><time>2026-04-06T10:53:47.869Z</time></trkpt><trkpt lat="49.65856" lon="15.0887885"><ele>444.0</ele><time>2026-04-06T10:53:48.869Z</time></trkpt><trkpt lat="49.658663" lon="15.0888144"><ele>440.25</ele><time>2026-04-06T10:53:49.869Z</time></trkpt><trkpt lat="49.6587629" lon="15.0888463"><ele>436.5</ele><time>2026-04-06T10:53:50.869Z</time></trkpt><trkpt lat="49.6588696" lon="15.088894"><ele>432.75</ele><time>2026-04-06T10:53:51.868Z</time></trkpt><trkpt lat="49.6589878" lon="15.0889456"><ele>429.0</ele><time>2026-04-06T10:53:52.868Z</time></trkpt><trkpt lat="49.6591033" lon="15.0889872"><ele>429.0</ele><time>2026-04-06T10:53:53.869Z</time></trkpt><trkpt lat="49.6592223" lon="15.0890348"><ele>429.0</ele><time>2026-04-06T10:53:54.868Z</time></trkpt><trkpt lat="49.6593395" lon="15.0890766"><ele>429.0</ele><time>2026-04-06T10:53:55.869Z</time></trkpt><trkpt lat="49.6594445" lon="15.0891336"><ele>429.0</ele><time>2026-04-06T10:53:56.869Z</time></trkpt><trkpt lat="49.6595418" lon="15.0891852"><ele>428.79999999999995</ele><time>2026-04-06T10:53:57.868Z</time></trkpt><trkpt lat="49.6596414" lon="15.0892431"><ele>428.59999999999997</ele><time>2026-04-06T10:53:58.869Z</time></trkpt><trkpt lat="49.6597443" lon="15.0892769"><ele>428.4</ele><time>2026-04-06T10:53:59.869Z</time></trkpt><trkpt lat="49.6598391" lon="15.08932"><ele>428.2</ele><time>2026-04-06T10:54:00.868Z</time></trkpt><trkpt lat="49.6599319" lon="15.0893488"><ele>428.0</ele><time>2026-04-06T10:54:01.868Z</time></trkpt><trkpt lat="49.6600039" lon="15.0893899"><ele>427.99999999999994</ele><time>2026-04-06T10:54:02.868Z</time></trkpt><trkpt lat="49.660072" lon="15.0894356"><ele>428.0</ele><time>2026-04-06T10:54:03.869Z</time></trkpt><trkpt lat="49.6601332" lon="15.0894864"><ele>428.0</ele><time>2026-04-06T10:54:04.868Z</time></trkpt><trkpt lat="49.6601954" lon="15.0895296"><ele>428.0</ele><time>2026-04-06T10:54:05.869Z</time></trkpt><trkpt lat="49.6602462" lon="15.0895873"><ele>427.99999999999994</ele><time>2026-04-06T10:54:06.869Z</time></trkpt><trkpt lat="49.6603463" lon="15.0896677"><ele>428.0</ele><time>2026-04-06T10:54:08.868Z</time></trkpt><trkpt lat="49.6604602" lon="15.0897322"><ele>424.79999999999995</ele><time>2026-04-06T10:54:10.868Z</time></trkpt><trkpt lat="49.6605774" lon="15.0897493"><ele>421.59999999999997</ele><time>2026-04-06T10:54:12.868Z</time></trkpt><trkpt lat="49.6606435" lon="15.0897463"><ele>418.4</ele><time>2026-04-06T10:54:13.869Z</time></trkpt><trkpt lat="49.660779" lon="15.0897176"><ele>415.20000000000005</ele><time>2026-04-06T10:54:15.87Z</time></trkpt><trkpt lat="49.6608694" lon="15.0896651"><ele>412.0</ele><time>2026-04-06T10:54:16.869Z</time></trkpt><trkpt lat="49.6609645" lon="15.0896441"><ele>412.0</ele><time>2026-04-06T10:54:17.87Z</time></trkpt><trkpt lat="49.6610597" lon="15.0895731"><ele>412.0</ele><time>2026-04-06T10:54:19.87Z</time></trkpt><trkpt lat="49.6611712" lon="15.0894812"><ele>412.0</ele><time>2026-04-06T10:54:21.869Z</time></trkpt><trkpt lat="49.6612339" lon="15.0894133"><ele>412.0</ele><time>2026-04-06T10:54:22.87Z</time></trkpt><trkpt lat="49.6613206" lon="15.0893523"><ele>412.0</ele><time>2026-04-06T10:54:23.869Z</time></trkpt><trkpt lat="49.6614096" lon="15.0892841"><ele>411.50000000000006</ele><time>2026-04-06T10:54:24.87Z</time></trkpt><trkpt lat="49.6614791" lon="15.0892186"><ele>411.0</ele><time>2026-04-06T10:54:25.87Z</time></trkpt><trkpt lat="49.6615369" lon="15.0891798"><ele>410.5</ele><time>2026-04-06T10:54:26.87Z</time></trkpt><trkpt lat="49.6615967" lon="15.0891369"><ele>410.0</ele><time>2026-04-06T10:54:27.87Z</time></trkpt><trkpt lat="49.6616887" lon="15.0890989"><ele>409.50000000000006</ele><time>2026-04-06T10:54:28.87Z</time></trkpt><trkpt lat="49.6617724" lon="15.0890309"><ele>409.0</ele><time>2026-04-06T10:54:29.87Z</time></trkpt><trkpt lat="49.6618489" lon="15.0889453"><ele>408.00000000000006</ele><time>2026-04-06T10:54:30.87Z</time></trkpt><trkpt lat="49.6619303" lon="15.0888671"><ele>407.0</ele><time>2026-04-06T10:54:31.869Z</time></trkpt><trkpt lat="49.6620174" lon="15.088784"><ele>406.0</ele><time>2026-04-06T10:54:32.869Z</time></trkpt><trkpt lat="49.6620924" lon="15.0887338"><ele>405.0</ele><time>2026-04-06T10:54:33.869Z</time></trkpt><trkpt lat="49.6621678" lon="15.0886817"><ele>404.00000000000006</ele><time>2026-04-06T10:54:34.87Z</time></trkpt><trkpt lat="49.6622381" lon="15.0886257"><ele>403.0</ele><time>2026-04-06T10:54:35.87Z</time></trkpt><trkpt lat="49.6622993" lon="15.0885434"><ele>401.59999999999997</ele><time>2026-04-06T10:54:36.869Z</time></trkpt><trkpt lat="49.6623662" lon="15.0884729"><ele>400.2</ele><time>2026-04-06T10:54:37.869Z</time></trkpt><trkpt lat="49.6624248" lon="15.0884062"><ele>398.8</ele><time>2026-04-06T10:54:38.869Z</time></trkpt><trkpt lat="49.6625213" lon="15.0883049"><ele>397.4</ele><time>2026-04-06T10:54:40.87Z</time></trkpt><trkpt lat="49.6626164" lon="15.0881909"><ele>396.0</ele><time>2026-04-06T10:54:42.87Z</time></trkpt><trkpt lat="49.6627246" lon="15.0881"><ele>396.20000000000005</ele><time>2026-04-06T10:54:44.869Z</time></trkpt><trkpt lat="49.6628309" lon="15.0880374"><ele>396.40000000000003</ele><time>2026-04-06T10:54:46.869Z</time></trkpt><trkpt lat="49.6629326" lon="15.0880261"><ele>396.6</ele><time>2026-04-06T10:54:48.87Z</time></trkpt><trkpt lat="49.6630272" lon="15.0880907"><ele>396.8</ele><time>2026-04-06T10:54:50.87Z</time></trkpt><trkpt lat="49.6630777" lon="15.0881726"><ele>397.0</ele><time>2026-04-06T10:54:51.87Z</time></trkpt><trkpt lat="49.6631372" lon="15.0882755"><ele>397.0</ele><time>2026-04-06T10:54:52.869Z</time></trkpt><trkpt lat="49.66319" lon="15.0884086"><ele>397.0</ele><time>2026-04-06T10:54:53.87Z</time></trkpt><trkpt lat="49.663238" lon="15.0885527"><ele>397.0</ele><time>2026-04-06T10:54:54.869Z</time></trkpt><trkpt lat="49.6632633" lon="15.0887084"><ele>397.0</ele><time>2026-04-06T10:54:55.869Z</time></trkpt><trkpt lat="49.6632719" lon="15.0888594"><ele>397.0</ele><time>2026-04-06T10:54:56.87Z</time></trkpt><trkpt lat="49.6632771" lon="15.0889927"><ele>397.00000000000006</ele><time>2026-04-06T10:54:57.869Z</time></trkpt><trkpt lat="49.663306" lon="15.089095"><ele>397.0</ele><time>2026-04-06T10:54:58.87Z</time></trkpt><trkpt lat="49.6633527" lon="15.0891971"><ele>397.0</ele><time>2026-04-06T10:54:59.87Z</time></trkpt><trkpt lat="49.6634188" lon="15.0892754"><ele>397.0</ele><time>2026-04-06T10:55:00.87Z</time></trkpt><trkpt lat="49.6634968" lon="15.0893318"><ele>397.00000000000006</ele><time>2026-04-06T10:55:01.869Z</time></trkpt><trkpt lat="49.6635728" lon="15.0893415"><ele>397.0</ele><time>2026-04-06T10:55:02.87Z</time></trkpt><trkpt lat="49.6636591" lon="15.0893654"><ele>397.00000000000006</ele><time>2026-04-06T10:55:03.869Z</time></trkpt><trkpt lat="49.6637399" lon="15.0893957"><ele>397.0</ele><time>2026-04-06T10:55:04.87Z</time></trkpt><trkpt lat="49.66381" lon="15.0894347"><ele>397.0</ele><time>2026-04-06T10:55:05.87Z</time></trkpt><trkpt lat="49.6638749" lon="15.089506"><ele>397.0</ele><time>2026-04-06T10:55:06.869Z</time></trkpt><trkpt lat="49.6639407" lon="15.0895978"><ele>397.00000000000006</ele><time>2026-04-06T10:55:07.869Z</time></trkpt><trkpt lat="49.6640102" lon="15.0897031"><ele>397.0</ele><time>2026-04-06T10:55:08.869Z</time></trkpt><trkpt lat="49.664081" lon="15.0898121"><ele>397.00000000000006</ele><time>2026-04-06T10:55:09.869Z</time></trkpt><trkpt lat="49.6641514" lon="15.089914"><ele>397.0</ele><time>2026-04-06T10:55:10.87Z</time></trkpt><trkpt lat="49.6642271" lon="15.0900073"><ele>397.0</ele><time>2026-04-06T10:55:11.869Z</time></trkpt><trkpt lat="49.6642929" lon="15.0901017"><ele>397.0</ele><time>2026-04-06T10:55:12.869Z</time></trkpt><trkpt lat="49.6643468" lon="15.0901598"><ele>397.00000000000006</ele><time>2026-04-06T10:55:13.869Z</time></trkpt><trkpt lat="49.6643999" lon="15.090214"><ele>397.0</ele><time>2026-04-06T10:55:14.869Z</time></trkpt><trkpt lat="49.6644576" lon="15.090301"><ele>396.8</ele><time>2026-04-06T10:55:15.87Z</time></trkpt><trkpt lat="49.6645248" lon="15.0904263"><ele>396.6</ele><time>2026-04-06T10:55:16.87Z</time></trkpt><trkpt lat="49.6646035" lon="15.0905486"><ele>396.40000000000003</ele><time>2026-04-06T10:55:17.87Z</time></trkpt><trkpt lat="49.6646861" lon="15.0906672"><ele>396.20000000000005</ele><time>2026-04-06T10:55:18.869Z</time></trkpt><trkpt lat="49.6647736" lon="15.0907781"><ele>396.0</ele><time>2026-04-06T10:55:19.869Z</time></trkpt><trkpt lat="49.6648589" lon="15.0908791"><ele>396.0</ele><time>2026-04-06T10:55:20.87Z</time></trkpt><trkpt lat="49.6649464" lon="15.0909607"><ele>396.0</ele><time>2026-04-06T10:55:21.87Z</time></trkpt><trkpt lat="49.6650353" lon="15.091051"><ele>396.0</ele><time>2026-04-06T10:55:22.869Z</time></trkpt><trkpt lat="49.6651007" lon="15.0911951"><ele>396.0</ele><time>2026-04-06T10:55:23.87Z</time></trkpt><trkpt lat="49.6651684" lon="15.0913216"><ele>396.0</ele><time>2026-04-06T10:55:24.869Z</time></trkpt><trkpt lat="49.6652409" lon="15.091429"><ele>396.1666666666667</ele><time>2026-04-06T10:55:25.869Z</time></trkpt><trkpt lat="49.6653142" lon="15.0915076"><ele>396.33333333333337</ele><time>2026-04-06T10:55:26.87Z</time></trkpt><trkpt lat="49.6654005" lon="15.0915271"><ele>396.5</ele><time>2026-04-06T10:55:27.869Z</time></trkpt><trkpt lat="49.6654849" lon="15.0914746"><ele>396.6666666666667</ele><time>2026-04-06T10:55:28.869Z</time></trkpt><trkpt lat="49.6655519" lon="15.091405"><ele>396.83333333333337</ele><time>2026-04-06T10:55:29.87Z</time></trkpt><trkpt lat="49.6656061" lon="15.0913377"><ele>397.0</ele><time>2026-04-06T10:55:30.869Z</time></trkpt><trkpt lat="49.665673" lon="15.0912695"><ele>397.0</ele><time>2026-04-06T10:55:31.869Z</time></trkpt><trkpt lat="49.665783" lon="15.0912226"><ele>397.0</ele><time>2026-04-06T10:55:32.869Z</time></trkpt><trkpt lat="49.6658892" lon="15.0911607"><ele>397.0</ele><time>2026-04-06T10:55:33.87Z</time></trkpt><trkpt lat="49.6659774" lon="15.091083"><ele>397.0</ele><time>2026-04-06T10:55:34.87Z</time></trkpt><trkpt lat="49.666048" lon="15.0910154"><ele>397.0</ele><time>2026-04-06T10:55:35.87Z</time></trkpt><trkpt lat="49.6661379" lon="15.0909256"><ele>398.6</ele><time>2026-04-06T10:55:37.87Z</time></trkpt><trkpt lat="49.6662718" lon="15.0909129"><ele>400.20000000000005</ele><time>2026-04-06T10:55:39.87Z</time></trkpt><trkpt lat="49.6663464" lon="15.0908162"><ele>401.8</ele><time>2026-04-06T10:55:41.869Z</time></trkpt><trkpt lat="49.6664193" lon="15.0907658"><ele>403.4</ele><time>2026-04-06T10:55:42.87Z</time></trkpt><trkpt lat="49.6664821" lon="15.0906978"><ele>405.0</ele><time>2026-04-06T10:55:43.869Z</time></trkpt><trkpt lat="49.6665072" lon="15.0905567"><ele>406.2</ele><time>2026-04-06T10:55:45.87Z</time></trkpt><trkpt lat="49.6664509" lon="15.0904262"><ele>407.4</ele><time>2026-04-06T10:55:47.869Z</time></trkpt><trkpt lat="49.6663855" lon="15.0903538"><ele>408.6</ele><time>2026-04-06T10:55:48.87Z</time></trkpt><trkpt lat="49.6662945" lon="15.0902564"><ele>409.8</ele><time>2026-04-06T10:55:49.869Z</time></trkpt><trkpt lat="49.666178" lon="15.0901425"><ele>411.0</ele><time>2026-04-06T10:55:50.87Z</time></trkpt><trkpt lat="49.6660466" lon="15.0900005"><ele>414.0</ele><time>2026-04-06T10:55:51.87Z</time></trkpt><trkpt lat="49.6658991" lon="15.0898233"><ele>417.0</ele><time>2026-04-06T10:55:52.87Z</time></trkpt><trkpt lat="49.6657501" lon="15.0896615"><ele>420.0</ele><time>2026-04-06T10:55:53.869Z</time></trkpt><trkpt lat="49.6656183" lon="15.0895157"><ele>420.0</ele><time>2026-04-06T10:55:54.87Z</time></trkpt><trkpt lat="49.6655028" lon="15.0893711"><ele>420.0</ele><time>2026-04-06T10:55:55.87Z</time></trkpt><trkpt lat="49.6654182" lon="15.0892322"><ele>420.0</ele><time>2026-04-06T10:55:56.869Z</time></trkpt><trkpt lat="49.665353" lon="15.0890763"><ele>420.0</ele><time>2026-04-06T10:55:57.87Z</time></trkpt><trkpt lat="49.6653131" lon="15.0889008"><ele>420.0</ele><time>2026-04-06T10:55:58.869Z</time></trkpt><trkpt lat="49.6652843" lon="15.0887149"><ele>420.0</ele><time>2026-04-06T10:55:59.869Z</time></trkpt><trkpt lat="49.6652577" lon="15.0885211"><ele>420.0</ele><time>2026-04-06T10:56:00.869Z</time></trkpt><trkpt lat="49.6652205" lon="15.0883407"><ele>420.0</ele><time>2026-04-06T10:56:01.869Z</time></trkpt><trkpt lat="49.6651682" lon="15.0881866"><ele>421.6</ele><time>2026-04-06T10:56:02.869Z</time></trkpt><trkpt lat="49.665097" lon="15.0880682"><ele>423.2</ele><time>2026-04-06T10:56:03.87Z</time></trkpt><trkpt lat="49.6649935" lon="15.0879944"><ele>424.79999999999995</ele><time>2026-04-06T10:56:04.869Z</time></trkpt><trkpt lat="49.6648868" lon="15.0879454"><ele>426.4</ele><time>2026-04-06T10:56:05.869Z</time></trkpt><trkpt lat="49.6647877" lon="15.0879057"><ele>428.0</ele><time>2026-04-06T10:56:06.869Z</time></trkpt><trkpt lat="49.6646842" lon="15.0878724"><ele>428.0</ele><time>2026-04-06T10:56:07.869Z</time></trkpt><trkpt lat="49.6645966" lon="15.0878045"><ele>427.99999999999994</ele><time>2026-04-06T10:56:08.87Z</time></trkpt><trkpt lat="49.664525" lon="15.0877059"><ele>427.99999999999994</ele><time>2026-04-06T10:56:09.869Z</time></trkpt><trkpt lat="49.6644587" lon="15.0875995"><ele>428.0</ele><time>2026-04-06T10:56:10.869Z</time></trkpt><trkpt lat="49.6643934" lon="15.0874938"><ele>428.0</ele><time>2026-04-06T10:56:11.87Z</time></trkpt><trkpt lat="49.6643319" lon="15.0873741"><ele>428.5</ele><time>2026-04-06T10:56:12.87Z</time></trkpt><trkpt lat="49.664265" lon="15.0872304"><ele>429.0</ele><time>2026-04-06T10:56:13.87Z</time></trkpt><trkpt lat="49.6641989" lon="15.0870781"><ele>429.5</ele><time>2026-04-06T10:56:14.869Z</time></trkpt><trkpt lat="49.6641327" lon="15.0869167"><ele>430.0</ele><time>2026-04-06T10:56:15.869Z</time></trkpt><trkpt lat="49.6640763" lon="15.0867453"><ele>430.5</ele><time>2026-04-06T10:56:16.869Z</time></trkpt><trkpt lat="49.6640081" lon="15.0865803"><ele>431.0</ele><time>2026-04-06T10:56:17.869Z</time></trkpt><trkpt lat="49.6639537" lon="15.0864107"><ele>431.5</ele><time>2026-04-06T10:56:18.87Z</time></trkpt><trkpt lat="49.6638867" lon="15.0862545"><ele>432.0</ele><time>2026-04-06T10:56:19.869Z</time></trkpt><trkpt lat="49.663821" lon="15.0860999"><ele>432.0</ele><time>2026-04-06T10:56:20.87Z</time></trkpt><trkpt lat="49.6637676" lon="15.0859222"><ele>432.0</ele><time>2026-04-06T10:56:21.87Z</time></trkpt><trkpt lat="49.6637301" lon="15.0857344"><ele>432.0</ele><time>2026-04-06T10:56:22.87Z</time></trkpt><trkpt lat="49.6637212" lon="15.0855399"><ele>432.0</ele><time>2026-04-06T10:56:23.869Z</time></trkpt><trkpt lat="49.6637417" lon="15.0853396"><ele>433.0</ele><time>2026-04-06T10:56:24.869Z</time></trkpt><trkpt lat="49.6637899" lon="15.0851271"><ele>434.0</ele><time>2026-04-06T10:56:25.87Z</time></trkpt><trkpt lat="49.6638534" lon="15.0849064"><ele>435.0</ele><time>2026-04-06T10:56:26.87Z</time></trkpt><trkpt lat="49.6639354" lon="15.0846868"><ele>436.33333333333337</ele><time>2026-04-06T10:56:27.87Z</time></trkpt><trkpt lat="49.6640153" lon="15.084462"><ele>437.6666666666667</ele><time>2026-04-06T10:56:28.87Z</time></trkpt><trkpt lat="49.6640647" lon="15.0842351"><ele>439.0</ele><time>2026-04-06T10:56:29.87Z</time></trkpt><trkpt lat="49.6641263" lon="15.0840595"><ele>439.1666666666667</ele><time>2026-04-06T10:56:30.87Z</time></trkpt><trkpt lat="49.6641576" lon="15.0839097"><ele>439.33333333333337</ele><time>2026-04-06T10:56:31.869Z</time></trkpt><trkpt lat="49.6641931" lon="15.0837955"><ele>439.5</ele><time>2026-04-06T10:56:32.87Z</time></trkpt><trkpt lat="49.6642229" lon="15.0837004"><ele>439.66666666666663</ele><time>2026-04-06T10:56:33.869Z</time></trkpt><trkpt lat="49.6642864" lon="15.0836133"><ele>439.8333333333333</ele><time>2026-04-06T10:56:34.869Z</time></trkpt><trkpt lat="49.6643712" lon="15.0835256"><ele>440.0</ele><time>2026-04-06T10:56:35.869Z</time></trkpt><trkpt lat="49.6644869" lon="15.0834394"><ele>440.0</ele><time>2026-04-06T10:56:36.869Z</time></trkpt><trkpt lat="49.6646289" lon="15.0833393"><ele>440.0</ele><time>2026-04-06T10:56:37.87Z</time></trkpt><trkpt lat="49.6647704" lon="15.0832661"><ele>440.0</ele><time>2026-04-06T10:56:38.869Z</time></trkpt><trkpt lat="49.6649115" lon="15.0832289"><ele>440.0</ele><time>2026-04-06T10:56:39.869Z</time></trkpt><trkpt lat="49.6650457" lon="15.0832213"><ele>439.3333333333333</ele><time>2026-04-06T10:56:40.87Z</time></trkpt><trkpt lat="49.665215" lon="15.0832615"><ele>438.66666666666663</ele><time>2026-04-06T10:56:41.869Z</time></trkpt><trkpt lat="49.6654006" lon="15.0832758"><ele>438.0</ele><time>2026-04-06T10:56:42.87Z</time></trkpt><trkpt lat="49.6655729" lon="15.0832766"><ele>439.5</ele><time>2026-04-06T10:56:43.869Z</time></trkpt><trkpt lat="49.6657221" lon="15.0832721"><ele>441.0</ele><time>2026-04-06T10:56:44.87Z</time></trkpt><trkpt lat="49.6658572" lon="15.0832583"><ele>442.5</ele><time>2026-04-06T10:56:45.87Z</time></trkpt><trkpt lat="49.6660155" lon="15.0832278"><ele>444.0</ele><time>2026-04-06T10:56:46.869Z</time></trkpt><trkpt lat="49.6662113" lon="15.0831917"><ele>446.66666666666663</ele><time>2026-04-06T10:56:47.87Z</time></trkpt><trkpt lat="49.6663988" lon="15.0831538"><ele>449.3333333333333</ele><time>2026-04-06T10:56:48.87Z</time></trkpt><trkpt lat="49.6665756" lon="15.0831136"><ele>452.0</ele><time>2026-04-06T10:56:49.869Z</time></trkpt><trkpt lat="49.6667629" lon="15.0830602"><ele>453.3333333333333</ele><time>2026-04-06T10:56:50.869Z</time></trkpt><trkpt lat="49.6669529" lon="15.0829846"><ele>454.66666666666663</ele><time>2026-04-06T10:56:51.87Z</time></trkpt><trkpt lat="49.6671306" lon="15.0828888"><ele>456.0</ele><time>2026-04-06T10:56:52.87Z</time></trkpt><trkpt lat="49.6672914" lon="15.0827955"><ele>456.0</ele><time>2026-04-06T10:56:53.869Z</time></trkpt><trkpt lat="49.6674363" lon="15.0826836"><ele>456.0</ele><time>2026-04-06T10:56:54.87Z</time></trkpt><trkpt lat="49.6675722" lon="15.0825417"><ele>456.0</ele><time>2026-04-06T10:56:55.87Z</time></trkpt><trkpt lat="49.6676827" lon="15.0824111"><ele>456.5</ele><time>2026-04-06T10:56:56.87Z</time></trkpt><trkpt lat="49.6677579" lon="15.0822741"><ele>457.0</ele><time>2026-04-06T10:56:57.869Z</time></trkpt><trkpt lat="49.6678039" lon="15.0821427"><ele>457.5</ele><time>2026-04-06T10:56:58.869Z</time></trkpt><trkpt lat="49.6678486" lon="15.0819553"><ele>458.0</ele><time>2026-04-06T10:56:59.87Z</time></trkpt><trkpt lat="49.6679089" lon="15.0817305"><ele>458.5</ele><time>2026-04-06T10:57:00.869Z</time></trkpt><trkpt lat="49.6679622" lon="15.0815399"><ele>459.0</ele><time>2026-04-06T10:57:01.87Z</time></trkpt><trkpt lat="49.6680176" lon="15.0813543"><ele>459.5</ele><time>2026-04-06T10:57:02.869Z</time></trkpt><trkpt lat="49.6680929" lon="15.0811779"><ele>460.0</ele><time>2026-04-06T10:57:03.869Z</time></trkpt><trkpt lat="49.6682019" lon="15.081021"><ele>460.0</ele><time>2026-04-06T10:57:04.87Z</time></trkpt><trkpt lat="49.6683359" lon="15.0808411"><ele>460.0</ele><time>2026-04-06T10:57:05.869Z</time></trkpt><trkpt lat="49.6684631" lon="15.0806515"><ele>460.0</ele><time>2026-04-06T10:57:06.87Z</time></trkpt><trkpt lat="49.6685769" lon="15.0804707"><ele>459.6666666666667</ele><time>2026-04-06T10:57:07.869Z</time></trkpt><trkpt lat="49.6686961" lon="15.0803125"><ele>459.33333333333337</ele><time>2026-04-06T10:57:08.869Z</time></trkpt><trkpt lat="49.6688234" lon="15.0801693"><ele>459.0</ele><time>2026-04-06T10:57:09.87Z</time></trkpt><trkpt lat="49.66899" lon="15.0800417"><ele>460.0</ele><time>2026-04-06T10:57:10.87Z</time></trkpt><trkpt lat="49.6691874" lon="15.0799061"><ele>461.0</ele><time>2026-04-06T10:57:11.87Z</time></trkpt><trkpt lat="49.6693969" lon="15.0797538"><ele>462.0</ele><time>2026-04-06T10:57:12.87Z</time></trkpt><trkpt lat="49.6696098" lon="15.0795921"><ele>462.0</ele><time>2026-04-06T10:57:13.869Z</time></trkpt><trkpt lat="49.6698034" lon="15.0794592"><ele>462.0</ele><time>2026-04-06T10:57:14.869Z</time></trkpt><trkpt lat="49.6699615" lon="15.0793508"><ele>462.0</ele><time>2026-04-06T10:57:15.87Z</time></trkpt><trkpt lat="49.6700976" lon="15.0792521"><ele>462.0</ele><time>2026-04-06T10:57:16.869Z</time></trkpt><trkpt lat="49.6702249" lon="15.0791579"><ele>462.00000000000006</ele><time>2026-04-06T10:57:17.87Z</time></trkpt><trkpt lat="49.6703289" lon="15.0790925"><ele>462.00000000000006</ele><time>2026-04-06T10:57:18.869Z</time></trkpt><trkpt lat="49.6704065" lon="15.0790372"><ele>462.0</ele><time>2026-04-06T10:57:19.869Z</time></trkpt><trkpt lat="49.6704848" lon="15.07899"><ele>462.0</ele><time>2026-04-06T10:57:20.87Z</time></trkpt><trkpt lat="49.670568" lon="15.0789555"><ele>461.8</ele><time>2026-04-06T10:57:21.87Z</time></trkpt><trkpt lat="49.670656" lon="15.078932"><ele>461.6</ele><time>2026-04-06T10:57:22.87Z</time></trkpt><trkpt lat="49.6707487" lon="15.078915"><ele>461.40000000000003</ele><time>2026-04-06T10:57:23.87Z</time></trkpt><trkpt lat="49.6708476" lon="15.0788913"><ele>461.20000000000005</ele><time>2026-04-06T10:57:24.869Z</time></trkpt><trkpt lat="49.6709541" lon="15.0789013"><ele>461.0</ele><time>2026-04-06T10:57:25.869Z</time></trkpt><trkpt lat="49.6710729" lon="15.0789017"><ele>457.75</ele><time>2026-04-06T10:57:26.87Z</time></trkpt><trkpt lat="49.6712039" lon="15.0788967"><ele>454.5</ele><time>2026-04-06T10:57:27.87Z</time></trkpt><trkpt lat="49.6713395" lon="15.0789084"><ele>451.25</ele><time>2026-04-06T10:57:28.87Z</time></trkpt><trkpt lat="49.6714942" lon="15.0789286"><ele>448.0</ele><time>2026-04-06T10:57:29.869Z</time></trkpt><trkpt lat="49.6716565" lon="15.0789506"><ele>448.0</ele><time>2026-04-06T10:57:30.87Z</time></trkpt><trkpt lat="49.6718134" lon="15.0789547"><ele>448.0</ele><time>2026-04-06T10:57:31.87Z</time></trkpt><trkpt lat="49.6719674" lon="15.0789679"><ele>448.0</ele><time>2026-04-06T10:57:32.869Z</time></trkpt><trkpt lat="49.6721186" lon="15.0790003"><ele>446.0</ele><time>2026-04-06T10:57:33.87Z</time></trkpt><trkpt lat="49.6722588" lon="15.0790235"><ele>444.0</ele><time>2026-04-06T10:57:34.869Z</time></trkpt><trkpt lat="49.6723913" lon="15.0790328"><ele>442.0</ele><time>2026-04-06T10:57:35.87Z</time></trkpt><trkpt lat="49.6725212" lon="15.0790263"><ele>440.0</ele><time>2026-04-06T10:57:36.869Z</time></trkpt><trkpt lat="49.672647" lon="15.0790323"><ele>440.0</ele><time>2026-04-06T10:57:37.869Z</time></trkpt><trkpt lat="49.6727717" lon="15.0790302"><ele>440.0</ele><time>2026-04-06T10:57:38.869Z</time></trkpt><trkpt lat="49.672902" lon="15.0790293"><ele>440.0</ele><time>2026-04-06T10:57:39.87Z</time></trkpt><trkpt lat="49.6730355" lon="15.0790224"><ele>440.0</ele><time>2026-04-06T10:57:40.87Z</time></trkpt><trkpt lat="49.6731666" lon="15.0790077"><ele>439.5</ele><time>2026-04-06T10:57:41.869Z</time></trkpt><trkpt lat="49.6732968" lon="15.0789965"><ele>439.0</ele><time>2026-04-06T10:57:42.869Z</time></trkpt><trkpt lat="49.6734317" lon="15.0789906"><ele>438.5</ele><time>2026-04-06T10:57:43.87Z</time></trkpt><trkpt lat="49.673566" lon="15.0789894"><ele>438.0</ele><time>2026-04-06T10:57:44.869Z</time></trkpt><trkpt lat="49.6736968" lon="15.078985"><ele>437.0</ele><time>2026-04-06T10:57:45.87Z</time></trkpt><trkpt lat="49.673829" lon="15.0789743"><ele>436.0</ele><time>2026-04-06T10:57:46.869Z</time></trkpt><trkpt lat="49.6739686" lon="15.0789582"><ele>435.0</ele><time>2026-04-06T10:57:47.869Z</time></trkpt><trkpt lat="49.6741171" lon="15.0789366"><ele>434.0</ele><time>2026-04-06T10:57:48.87Z</time></trkpt><trkpt lat="49.6742756" lon="15.0789191"><ele>432.3333333333333</ele><time>2026-04-06T10:57:49.87Z</time></trkpt><trkpt lat="49.6744434" lon="15.0788804"><ele>430.66666666666663</ele><time>2026-04-06T10:57:50.869Z</time></trkpt><trkpt lat="49.674611" lon="15.0788084"><ele>429.0</ele><time>2026-04-06T10:57:51.87Z</time></trkpt><trkpt lat="49.6747916" lon="15.0787195"><ele>429.0</ele><time>2026-04-06T10:57:52.87Z</time></trkpt><trkpt lat="49.6749561" lon="15.0786064"><ele>429.0</ele><time>2026-04-06T10:57:53.87Z</time></trkpt><trkpt lat="49.6751184" lon="15.0785053"><ele>429.0</ele><time>2026-04-06T10:57:54.869Z</time></trkpt><trkpt lat="49.6752591" lon="15.0784073"><ele>428.25</ele><time>2026-04-06T10:57:55.869Z</time></trkpt><trkpt lat="49.6753816" lon="15.0783365"><ele>427.5</ele><time>2026-04-06T10:57:56.869Z</time></trkpt><trkpt lat="49.6755001" lon="15.0782769"><ele>426.75</ele><time>2026-04-06T10:57:57.87Z</time></trkpt><trkpt lat="49.6756071" lon="15.0782333"><ele>426.0</ele><time>2026-04-06T10:57:58.869Z</time></trkpt><trkpt lat="49.6756985" lon="15.0781973"><ele>425.5</ele><time>2026-04-06T10:57:59.87Z</time></trkpt><trkpt lat="49.6757653" lon="15.0781676"><ele>425.0</ele><time>2026-04-06T10:58:00.869Z</time></trkpt><trkpt lat="49.6758462" lon="15.0781478"><ele>424.5</ele><time>2026-04-06T10:58:02.869Z</time></trkpt><trkpt lat="49.6759244" lon="15.0780816"><ele>424.0</ele><time>2026-04-06T10:58:05.87Z</time></trkpt><trkpt lat="49.6759586" lon="15.0779832"><ele>423.5</ele><time>2026-04-06T10:58:06.87Z</time></trkpt><trkpt lat="49.6759896" lon="15.0778445"><ele>423.0</ele><time>2026-04-06T10:58:07.869Z</time></trkpt><trkpt lat="49.6760246" lon="15.0776891"><ele>423.0</ele><time>2026-04-06T10:58:08.87Z</time></trkpt><trkpt lat="49.6760707" lon="15.0775299"><ele>423.0</ele><time>2026-04-06T10:58:09.869Z</time></trkpt><trkpt lat="49.6761305" lon="15.0773595"><ele>423.0</ele><time>2026-04-06T10:58:10.869Z</time></trkpt><trkpt lat="49.6761952" lon="15.0771839"><ele>423.0</ele><time>2026-04-06T10:58:11.869Z</time></trkpt><trkpt lat="49.6762647" lon="15.0769938"><ele>422.33333333333337</ele><time>2026-04-06T10:58:12.87Z</time></trkpt><trkpt lat="49.6763376" lon="15.0767946"><ele>421.6666666666667</ele><time>2026-04-06T10:58:13.869Z</time></trkpt><trkpt lat="49.6764118" lon="15.0765811"><ele>421.0</ele><time>2026-04-06T10:58:14.869Z</time></trkpt><trkpt lat="49.6764965" lon="15.076365"><ele>421.0</ele><time>2026-04-06T10:58:15.876Z</time></trkpt><trkpt lat="49.6765834" lon="15.0761435"><ele>421.0</ele><time>2026-04-06T10:58:16.876Z</time></trkpt><trkpt lat="49.676666" lon="15.0759204"><ele>421.0</ele><time>2026-04-06T10:58:17.877Z</time></trkpt><trkpt lat="49.6767487" lon="15.075702"><ele>420.6666666666667</ele><time>2026-04-06T10:58:18.877Z</time></trkpt><trkpt lat="49.6768338" lon="15.0754886"><ele>420.33333333333337</ele><time>2026-04-06T10:58:19.877Z</time></trkpt><trkpt lat="49.6769158" lon="15.0752759"><ele>420.0</ele><time>2026-04-06T10:58:20.877Z</time></trkpt><trkpt lat="49.6769884" lon="15.075057"><ele>421.33333333333337</ele><time>2026-04-06T10:58:21.876Z</time></trkpt><trkpt lat="49.677035" lon="15.0748108"><ele>422.6666666666667</ele><time>2026-04-06T10:58:22.876Z</time></trkpt><trkpt lat="49.677051" lon="15.0745335"><ele>424.0</ele><time>2026-04-06T10:58:23.876Z</time></trkpt><trkpt lat="49.6770362" lon="15.0742373"><ele>425.0</ele><time>2026-04-06T10:58:24.877Z</time></trkpt><trkpt lat="49.6770221" lon="15.0739555"><ele>426.0</ele><time>2026-04-06T10:58:25.876Z</time></trkpt><trkpt lat="49.6770281" lon="15.0736913"><ele>427.0</ele><time>2026-04-06T10:58:26.876Z</time></trkpt><trkpt lat="49.6770547" lon="15.0734346"><ele>427.0</ele><time>2026-04-06T10:58:27.877Z</time></trkpt><trkpt lat="49.67709" lon="15.073189"><ele>427.0</ele><time>2026-04-06T10:58:28.876Z</time></trkpt><trkpt lat="49.6771265" lon="15.0729666"><ele>427.0</ele><time>2026-04-06T10:58:29.876Z</time></trkpt><trkpt lat="49.6771655" lon="15.0727551"><ele>427.0</ele><time>2026-04-06T10:58:30.877Z</time></trkpt><trkpt lat="49.6772097" lon="15.0725493"><ele>427.0</ele><time>2026-04-06T10:58:31.877Z</time></trkpt><trkpt lat="49.6772616" lon="15.0723405"><ele>427.0</ele><time>2026-04-06T10:58:32.876Z</time></trkpt><trkpt lat="49.6773017" lon="15.0721561"><ele>427.0</ele><time>2026-04-06T10:58:33.876Z</time></trkpt><trkpt lat="49.6773369" lon="15.0720025"><ele>427.1666666666667</ele><time>2026-04-06T10:58:34.876Z</time></trkpt><trkpt lat="49.6773798" lon="15.0718641"><ele>427.33333333333337</ele><time>2026-04-06T10:58:35.876Z</time></trkpt><trkpt lat="49.6774262" lon="15.0717403"><ele>427.5</ele><time>2026-04-06T10:58:36.876Z</time></trkpt><trkpt lat="49.6774838" lon="15.0716569"><ele>427.66666666666663</ele><time>2026-04-06T10:58:37.877Z</time></trkpt><trkpt lat="49.6775502" lon="15.0716084"><ele>427.8333333333333</ele><time>2026-04-06T10:58:38.876Z</time></trkpt><trkpt lat="49.6776244" lon="15.0716009"><ele>428.0</ele><time>2026-04-06T10:58:39.877Z</time></trkpt><trkpt lat="49.6776975" lon="15.0716089"><ele>429.0</ele><time>2026-04-06T10:58:40.876Z</time></trkpt><trkpt lat="49.6777727" lon="15.0716046"><ele>429.99999999999994</ele><time>2026-04-06T10:58:41.877Z</time></trkpt><trkpt lat="49.6778862" lon="15.0715997"><ele>430.99999999999994</ele><time>2026-04-06T10:58:42.876Z</time></trkpt><trkpt lat="49.6780044" lon="15.071595"><ele>432.0</ele><time>2026-04-06T10:58:43.877Z</time></trkpt><trkpt lat="49.6781305" lon="15.0715983"><ele>433.0</ele><time>2026-04-06T10:58:44.877Z</time></trkpt><trkpt lat="49.6782589" lon="15.0716031"><ele>433.0</ele><time>2026-04-06T10:58:45.876Z</time></trkpt><trkpt lat="49.6783802" lon="15.071599"><ele>432.99999999999994</ele><time>2026-04-06T10:58:46.877Z</time></trkpt><trkpt lat="49.6784991" lon="15.0716339"><ele>432.99999999999994</ele><time>2026-04-06T10:58:47.876Z</time></trkpt><trkpt lat="49.678596" lon="15.0716789"><ele>433.0</ele><time>2026-04-06T10:58:48.876Z</time></trkpt><trkpt lat="49.6786727" lon="15.0717375"><ele>433.0</ele><time>2026-04-06T10:58:49.876Z</time></trkpt><trkpt lat="49.6787698" lon="15.071819"><ele>433.25</ele><time>2026-04-06T10:58:50.876Z</time></trkpt><trkpt lat="49.6788781" lon="15.0719092"><ele>433.5</ele><time>2026-04-06T10:58:51.877Z</time></trkpt><trkpt lat="49.6789804" lon="15.0719895"><ele>433.75</ele><time>2026-04-06T10:58:52.876Z</time></trkpt><trkpt lat="49.6790863" lon="15.0720457"><ele>434.0</ele><time>2026-04-06T10:58:53.876Z</time></trkpt><trkpt lat="49.6791895" lon="15.072112"><ele>434.0</ele><time>2026-04-06T10:58:54.876Z</time></trkpt><trkpt lat="49.6792878" lon="15.0721833"><ele>434.0</ele><time>2026-04-06T10:58:55.877Z</time></trkpt><trkpt lat="49.6793555" lon="15.0722572"><ele>434.0</ele><time>2026-04-06T10:58:56.876Z</time></trkpt><trkpt lat="49.6794102" lon="15.0723581"><ele>434.0</ele><time>2026-04-06T10:58:57.877Z</time></trkpt><trkpt lat="49.6794575" lon="15.0724965"><ele>434.0</ele><time>2026-04-06T10:58:58.877Z</time></trkpt><trkpt lat="49.6795102" lon="15.0726646"><ele>433.3333333333333</ele><time>2026-04-06T10:58:59.876Z</time></trkpt><trkpt lat="49.6795773" lon="15.0728621"><ele>432.66666666666663</ele><time>2026-04-06T10:59:00.877Z</time></trkpt><trkpt lat="49.6796608" lon="15.0730714"><ele>432.0</ele><time>2026-04-06T10:59:01.876Z</time></trkpt><trkpt lat="49.6797455" lon="15.0732982"><ele>431.0</ele><time>2026-04-06T10:59:02.877Z</time></trkpt><trkpt lat="49.6798403" lon="15.0735533"><ele>430.0</ele><time>2026-04-06T10:59:03.876Z</time></trkpt><trkpt lat="49.6799428" lon="15.0738151"><ele>429.0</ele><time>2026-04-06T10:59:04.877Z</time></trkpt><trkpt lat="49.6800486" lon="15.0740803"><ele>428.0</ele><time>2026-04-06T10:59:05.876Z</time></trkpt><trkpt lat="49.6801524" lon="15.074348"><ele>427.0</ele><time>2026-04-06T10:59:06.876Z</time></trkpt><trkpt lat="49.6802575" lon="15.074621"><ele>426.0</ele><time>2026-04-06T10:59:07.877Z</time></trkpt><trkpt lat="49.6803612" lon="15.0748846"><ele>425.33333333333337</ele><time>2026-04-06T10:59:08.877Z</time></trkpt><trkpt lat="49.680463" lon="15.0751468"><ele>424.6666666666667</ele><time>2026-04-06T10:59:09.877Z</time></trkpt><trkpt lat="49.6805665" lon="15.0754191"><ele>424.0</ele><time>2026-04-06T10:59:10.877Z</time></trkpt><trkpt lat="49.6806696" lon="15.0756677"><ele>423.6666666666667</ele><time>2026-04-06T10:59:11.876Z</time></trkpt><trkpt lat="49.6807768" lon="15.0758866"><ele>423.33333333333337</ele><time>2026-04-06T10:59:12.876Z</time></trkpt><trkpt lat="49.6808996" lon="15.0760779"><ele>423.0</ele><time>2026-04-06T10:59:13.876Z</time></trkpt><trkpt lat="49.6810356" lon="15.0762594"><ele>423.66666666666663</ele><time>2026-04-06T10:59:14.876Z</time></trkpt><trkpt lat="49.6811853" lon="15.0764483"><ele>424.3333333333333</ele><time>2026-04-06T10:59:15.876Z</time></trkpt><trkpt lat="49.6813331" lon="15.0766236"><ele>425.0</ele><time>2026-04-06T10:59:16.876Z</time></trkpt><trkpt lat="49.6814993" lon="15.0767769"><ele>425.3333333333333</ele><time>2026-04-06T10:59:17.877Z</time></trkpt><trkpt lat="49.6816828" lon="15.076887"><ele>425.66666666666663</ele><time>2026-04-06T10:59:18.876Z</time></trkpt><trkpt lat="49.6818643" lon="15.0769522"><ele>426.0</ele><time>2026-04-06T10:59:19.876Z</time></trkpt><trkpt lat="49.682028" lon="15.0769937"><ele>426.0</ele><time>2026-04-06T10:59:20.877Z</time></trkpt><trkpt lat="49.6821764" lon="15.0770403"><ele>426.0</ele><time>2026-04-06T10:59:21.876Z</time></trkpt><trkpt lat="49.682298" lon="15.0770929"><ele>426.0</ele><time>2026-04-06T10:59:22.877Z</time></trkpt><trkpt lat="49.6823741" lon="15.0771751"><ele>426.0</ele><time>2026-04-06T10:59:23.877Z</time></trkpt><trkpt lat="49.6824212" lon="15.077282"><ele>426.0</ele><time>2026-04-06T10:59:24.876Z</time></trkpt><trkpt lat="49.6824481" lon="15.0774128"><ele>426.0</ele><time>2026-04-06T10:59:25.876Z</time></trkpt><trkpt lat="49.6824648" lon="15.0775672"><ele>426.0</ele><time>2026-04-06T10:59:26.877Z</time></trkpt><trkpt lat="49.6824764" lon="15.0777417"><ele>426.0</ele><time>2026-04-06T10:59:27.877Z</time></trkpt><trkpt lat="49.6824935" lon="15.077933"><ele>426.0</ele><time>2026-04-06T10:59:28.876Z</time></trkpt><trkpt lat="49.6825119" lon="15.0781393"><ele>426.33333333333337</ele><time>2026-04-06T10:59:29.876Z</time></trkpt><trkpt lat="49.6825384" lon="15.0783597"><ele>426.6666666666667</ele><time>2026-04-06T10:59:30.876Z</time></trkpt><trkpt lat="49.6825699" lon="15.0785965"><ele>427.0</ele><time>2026-04-06T10:59:31.876Z</time></trkpt><trkpt lat="49.6826007" lon="15.0788434"><ele>426.6666666666667</ele><time>2026-04-06T10:59:32.876Z</time></trkpt><trkpt lat="49.6826323" lon="15.079112"><ele>426.33333333333337</ele><time>2026-04-06T10:59:33.877Z</time></trkpt><trkpt lat="49.6826663" lon="15.079396"><ele>426.0</ele><time>2026-04-06T10:59:34.876Z</time></trkpt><trkpt lat="49.682708" lon="15.0796798"><ele>425.33333333333337</ele><time>2026-04-06T10:59:35.877Z</time></trkpt><trkpt lat="49.6827573" lon="15.0799579"><ele>424.6666666666667</ele><time>2026-04-06T10:59:36.876Z</time></trkpt><trkpt lat="49.6828131" lon="15.0802418"><ele>424.0</ele><time>2026-04-06T10:59:37.877Z</time></trkpt><trkpt lat="49.6828813" lon="15.0805232"><ele>425.0</ele><time>2026-04-06T10:59:38.876Z</time></trkpt><trkpt lat="49.6829582" lon="15.0808106"><ele>426.0</ele><time>2026-04-06T10:59:39.877Z</time></trkpt><trkpt lat="49.6830329" lon="15.0811072"><ele>427.0</ele><time>2026-04-06T10:59:40.877Z</time></trkpt><trkpt lat="49.6831011" lon="15.0814073"><ele>426.33333333333337</ele><time>2026-04-06T10:59:41.876Z</time></trkpt><trkpt lat="49.6831624" lon="15.0817108"><ele>425.66666666666663</ele><time>2026-04-06T10:59:42.877Z</time></trkpt><trkpt lat="49.6832194" lon="15.0820124"><ele>425.0</ele><time>2026-04-06T10:59:43.876Z</time></trkpt><trkpt lat="49.683276" lon="15.0823133"><ele>424.0</ele><time>2026-04-06T10:59:44.877Z</time></trkpt><trkpt lat="49.6833343" lon="15.0826147"><ele>423.0</ele><time>2026-04-06T10:59:45.877Z</time></trkpt><trkpt lat="49.683391" lon="15.0829188"><ele>422.0</ele><time>2026-04-06T10:59:46.877Z</time></trkpt><trkpt lat="49.6834489" lon="15.0832259"><ele>421.3333333333333</ele><time>2026-04-06T10:59:47.877Z</time></trkpt><trkpt lat="49.6835054" lon="15.0835394"><ele>420.66666666666663</ele><time>2026-04-06T10:59:48.877Z</time></trkpt><trkpt lat="49.6835588" lon="15.0838366"><ele>420.0</ele><time>2026-04-06T10:59:49.876Z</time></trkpt><trkpt lat="49.6836106" lon="15.0841067"><ele>421.6</ele><time>2026-04-06T10:59:50.876Z</time></trkpt><trkpt lat="49.6836474" lon="15.0843325"><ele>423.2</ele><time>2026-04-06T10:59:51.876Z</time></trkpt><trkpt lat="49.6836722" lon="15.0845018"><ele>424.79999999999995</ele><time>2026-04-06T10:59:52.876Z</time></trkpt><trkpt lat="49.6836985" lon="15.0846272"><ele>426.4</ele><time>2026-04-06T10:59:53.876Z</time></trkpt><trkpt lat="49.6837477" lon="15.0847461"><ele>428.0</ele><time>2026-04-06T10:59:54.876Z</time></trkpt><trkpt lat="49.6838112" lon="15.084865"><ele>427.75</ele><time>2026-04-06T10:59:55.876Z</time></trkpt><trkpt lat="49.6838852" lon="15.0849938"><ele>427.5</ele><time>2026-04-06T10:59:56.877Z</time></trkpt><trkpt lat="49.6839807" lon="15.0851505"><ele>427.25</ele><time>2026-04-06T10:59:57.876Z</time></trkpt><trkpt lat="49.684082" lon="15.0853262"><ele>427.0</ele><time>2026-04-06T10:59:58.877Z</time></trkpt><trkpt lat="49.6841906" lon="15.0855234"><ele>427.0</ele><time>2026-04-06T10:59:59.876Z</time></trkpt><trkpt lat="49.6843025" lon="15.0857272"><ele>427.0</ele><time>2026-04-06T11:00:00.877Z</time></trkpt><trkpt lat="49.684415" lon="15.0859312"><ele>427.0</ele><time>2026-04-06T11:00:01.877Z</time></trkpt><trkpt lat="49.6845323" lon="15.0861289"><ele>428.0</ele><time>2026-04-06T11:00:02.877Z</time></trkpt><trkpt lat="49.684643" lon="15.0863152"><ele>429.0</ele><time>2026-04-06T11:00:03.877Z</time></trkpt><trkpt lat="49.6847453" lon="15.0864889"><ele>430.0</ele><time>2026-04-06T11:00:04.876Z</time></trkpt><trkpt lat="49.6848345" lon="15.0866537"><ele>430.0</ele><time>2026-04-06T11:00:05.877Z</time></trkpt><trkpt lat="49.6849074" lon="15.0867985"><ele>430.0</ele><time>2026-04-06T11:00:06.876Z</time></trkpt><trkpt lat="49.6849748" lon="15.0869218"><ele>430.0</ele><time>2026-04-06T11:00:07.876Z</time></trkpt><trkpt lat="49.6850475" lon="15.0870274"><ele>430.0</ele><time>2026-04-06T11:00:08.877Z</time></trkpt><trkpt lat="49.6851331" lon="15.0870924"><ele>430.0</ele><time>2026-04-06T11:00:09.876Z</time></trkpt><trkpt lat="49.6852366" lon="15.0871236"><ele>433.0</ele><time>2026-04-06T11:00:10.876Z</time></trkpt><trkpt lat="49.6853557" lon="15.0871338"><ele>436.0</ele><time>2026-04-06T11:00:11.877Z</time></trkpt><trkpt lat="49.6854773" lon="15.0871306"><ele>439.0</ele><time>2026-04-06T11:00:12.877Z</time></trkpt><trkpt lat="49.6856072" lon="15.0871151"><ele>442.0</ele><time>2026-04-06T11:00:13.877Z</time></trkpt><trkpt lat="49.6857435" lon="15.0870831"><ele>442.0</ele><time>2026-04-06T11:00:14.877Z</time></trkpt><trkpt lat="49.6858844" lon="15.0870357"><ele>442.0</ele><time>2026-04-06T11:00:15.876Z</time></trkpt><trkpt lat="49.6860303" lon="15.0869622"><ele>442.0</ele><time>2026-04-06T11:00:16.877Z</time></trkpt><trkpt lat="49.6861779" lon="15.0868634"><ele>442.6666666666667</ele><time>2026-04-06T11:00:17.877Z</time></trkpt><trkpt lat="49.6863354" lon="15.0867391"><ele>443.33333333333337</ele><time>2026-04-06T11:00:18.877Z</time></trkpt><trkpt lat="49.6864878" lon="15.0865899"><ele>444.0</ele><time>2026-04-06T11:00:19.876Z</time></trkpt><trkpt lat="49.686623" lon="15.0864345"><ele>444.0</ele><time>2026-04-06T11:00:20.877Z</time></trkpt><trkpt lat="49.6867415" lon="15.0862761"><ele>444.0</ele><time>2026-04-06T11:00:21.876Z</time></trkpt><trkpt lat="49.6868374" lon="15.0861097"><ele>444.0</ele><time>2026-04-06T11:00:22.877Z</time></trkpt><trkpt lat="49.6869257" lon="15.0859345"><ele>444.0</ele><time>2026-04-06T11:00:23.876Z</time></trkpt><trkpt lat="49.6870095" lon="15.0857212"><ele>443.33333333333337</ele><time>2026-04-06T11:00:24.877Z</time></trkpt><trkpt lat="49.6870849" lon="15.0854826"><ele>442.6666666666667</ele><time>2026-04-06T11:00:25.876Z</time></trkpt><trkpt lat="49.6871572" lon="15.0852375"><ele>442.0</ele><time>2026-04-06T11:00:26.877Z</time></trkpt><trkpt lat="49.6872379" lon="15.0849891"><ele>443.0</ele><time>2026-04-06T11:00:27.877Z</time></trkpt><trkpt lat="49.6873259" lon="15.0847223"><ele>444.0</ele><time>2026-04-06T11:00:28.876Z</time></trkpt><trkpt lat="49.6874074" lon="15.0844604"><ele>445.0</ele><time>2026-04-06T11:00:29.876Z</time></trkpt><trkpt lat="49.6874756" lon="15.0842346"><ele>446.0</ele><time>2026-04-06T11:00:30.877Z</time></trkpt><trkpt lat="49.68753" lon="15.0840355"><ele>447.0</ele><time>2026-04-06T11:00:31.877Z</time></trkpt><trkpt lat="49.6875793" lon="15.0838641"><ele>448.0</ele><time>2026-04-06T11:00:32.877Z</time></trkpt><trkpt lat="49.6876226" lon="15.0837267"><ele>449.0</ele><time>2026-04-06T11:00:33.876Z</time></trkpt><trkpt lat="49.687656" lon="15.0836036"><ele>450.0</ele><time>2026-04-06T11:00:34.877Z</time></trkpt><trkpt lat="49.6876885" lon="15.0834871"><ele>450.0</ele><time>2026-04-06T11:00:35.877Z</time></trkpt><trkpt lat="49.687724" lon="15.0833773"><ele>450.0</ele><time>2026-04-06T11:00:36.877Z</time></trkpt><trkpt lat="49.68777" lon="15.0832699"><ele>450.0</ele><time>2026-04-06T11:00:37.877Z</time></trkpt><trkpt lat="49.6878174" lon="15.0831554"><ele>450.0</ele><time>2026-04-06T11:00:38.877Z</time></trkpt><trkpt lat="49.6878635" lon="15.0830265"><ele>450.0</ele><time>2026-04-06T11:00:39.876Z</time></trkpt><trkpt lat="49.6879234" lon="15.0828524"><ele>449.0</ele><time>2026-04-06T11:00:40.876Z</time></trkpt><trkpt lat="49.6880181" lon="15.0826386"><ele>448.0</ele><time>2026-04-06T11:00:41.877Z</time></trkpt><trkpt lat="49.6881207" lon="15.0824211"><ele>447.0</ele><time>2026-04-06T11:00:42.876Z</time></trkpt><trkpt lat="49.6882187" lon="15.0822187"><ele>447.0</ele><time>2026-04-06T11:00:43.877Z</time></trkpt><trkpt lat="49.6883131" lon="15.0820385"><ele>447.0</ele><time>2026-04-06T11:00:44.876Z</time></trkpt><trkpt lat="49.6884049" lon="15.0818823"><ele>447.0</ele><time>2026-04-06T11:00:45.876Z</time></trkpt><trkpt lat="49.6884915" lon="15.0817507"><ele>447.0</ele><time>2026-04-06T11:00:46.877Z</time></trkpt><trkpt lat="49.6885724" lon="15.0816362"><ele>447.75</ele><time>2026-04-06T11:00:47.876Z</time></trkpt><trkpt lat="49.6886461" lon="15.0815193"><ele>448.5</ele><time>2026-04-06T11:00:48.876Z</time></trkpt><trkpt lat="49.6887241" lon="15.0813937"><ele>449.25</ele><time>2026-04-06T11:00:49.876Z</time></trkpt><trkpt lat="49.6888101" lon="15.0812616"><ele>450.0</ele><time>2026-04-06T11:00:50.876Z</time></trkpt><trkpt lat="49.6888978" lon="15.0811156"><ele>450.0</ele><time>2026-04-06T11:00:51.877Z</time></trkpt><trkpt lat="49.6890001" lon="15.0809467"><ele>450.0</ele><time>2026-04-06T11:00:52.877Z</time></trkpt><trkpt lat="49.6891271" lon="15.0807343"><ele>450.0</ele><time>2026-04-06T11:00:53.876Z</time></trkpt><trkpt lat="49.6892729" lon="15.0804998"><ele>452.33333333333337</ele><time>2026-04-06T11:00:54.877Z</time></trkpt><trkpt lat="49.6894215" lon="15.0802651"><ele>454.6666666666667</ele><time>2026-04-06T11:00:55.876Z</time></trkpt><trkpt lat="49.6895605" lon="15.0800402"><ele>457.0</ele><time>2026-04-06T11:00:56.877Z</time></trkpt><trkpt lat="49.6896873" lon="15.0798328"><ele>458.0</ele><time>2026-04-06T11:00:57.876Z</time></trkpt><trkpt lat="49.6898077" lon="15.0796507"><ele>459.0</ele><time>2026-04-06T11:00:58.876Z</time></trkpt><trkpt lat="49.689924" lon="15.0794761"><ele>460.0</ele><time>2026-04-06T11:00:59.876Z</time></trkpt><trkpt lat="49.6900295" lon="15.0792844"><ele>460.33333333333337</ele><time>2026-04-06T11:01:00.877Z</time></trkpt><trkpt lat="49.6901318" lon="15.0790647"><ele>460.66666666666663</ele><time>2026-04-06T11:01:01.876Z</time></trkpt><trkpt lat="49.6902435" lon="15.0788392"><ele>461.0</ele><time>2026-04-06T11:01:02.877Z</time></trkpt><trkpt lat="49.69034" lon="15.078601"><ele>460.66666666666663</ele><time>2026-04-06T11:01:03.877Z</time></trkpt><trkpt lat="49.6904195" lon="15.0783608"><ele>460.33333333333337</ele><time>2026-04-06T11:01:04.877Z</time></trkpt><trkpt lat="49.6904844" lon="15.0781234"><ele>460.0</ele><time>2026-04-06T11:01:05.877Z</time></trkpt><trkpt lat="49.6905399" lon="15.0778734"><ele>460.0</ele><time>2026-04-06T11:01:06.876Z</time></trkpt><trkpt lat="49.6905867" lon="15.0776193"><ele>460.0</ele><time>2026-04-06T11:01:07.877Z</time></trkpt><trkpt lat="49.6906258" lon="15.0773673"><ele>460.0</ele><time>2026-04-06T11:01:08.876Z</time></trkpt><trkpt lat="49.6906555" lon="15.0771163"><ele>460.0</ele><time>2026-04-06T11:01:09.876Z</time></trkpt><trkpt lat="49.6906823" lon="15.0768658"><ele>460.0</ele><time>2026-04-06T11:01:10.876Z</time></trkpt><trkpt lat="49.6907082" lon="15.0766133"><ele>460.0</ele><time>2026-04-06T11:01:11.877Z</time></trkpt><trkpt lat="49.6907361" lon="15.0763651"><ele>460.0</ele><time>2026-04-06T11:01:12.876Z</time></trkpt><trkpt lat="49.6907624" lon="15.0761155"><ele>460.0</ele><time>2026-04-06T11:01:13.876Z</time></trkpt><trkpt lat="49.6907823" lon="15.0758614"><ele>460.0</ele><time>2026-04-06T11:01:14.876Z</time></trkpt><trkpt lat="49.690802" lon="15.0756041"><ele>460.33333333333337</ele><time>2026-04-06T11:01:15.877Z</time></trkpt><trkpt lat="49.6908279" lon="15.0753396"><ele>460.66666666666663</ele><time>2026-04-06T11:01:16.877Z</time></trkpt><trkpt lat="49.6908549" lon="15.075071"><ele>461.0</ele><time>2026-04-06T11:01:17.876Z</time></trkpt><trkpt lat="49.6908792" lon="15.0748014"><ele>462.3333333333333</ele><time>2026-04-06T11:01:18.876Z</time></trkpt><trkpt lat="49.6908944" lon="15.0745374"><ele>463.66666666666663</ele><time>2026-04-06T11:01:19.876Z</time></trkpt><trkpt lat="49.6909158" lon="15.0742827"><ele>465.0</ele><time>2026-04-06T11:01:20.876Z</time></trkpt><trkpt lat="49.6909423" lon="15.074036"><ele>465.33333333333337</ele><time>2026-04-06T11:01:21.877Z</time></trkpt><trkpt lat="49.6909641" lon="15.0738048"><ele>465.6666666666667</ele><time>2026-04-06T11:01:22.876Z</time></trkpt><trkpt lat="49.6909908" lon="15.073575"><ele>466.0</ele><time>2026-04-06T11:01:23.877Z</time></trkpt><trkpt lat="49.6910226" lon="15.0733475"><ele>466.25</ele><time>2026-04-06T11:01:24.877Z</time></trkpt><trkpt lat="49.6910604" lon="15.0731243"><ele>466.5</ele><time>2026-04-06T11:01:25.876Z</time></trkpt><trkpt lat="49.6911079" lon="15.0729083"><ele>466.75</ele><time>2026-04-06T11:01:26.876Z</time></trkpt><trkpt lat="49.691165" lon="15.0726994"><ele>467.0</ele><time>2026-04-06T11:01:27.877Z</time></trkpt><trkpt lat="49.6912289" lon="15.072491"><ele>464.75</ele><time>2026-04-06T11:01:28.877Z</time></trkpt><trkpt lat="49.6912896" lon="15.0722851"><ele>462.5</ele><time>2026-04-06T11:01:29.876Z</time></trkpt><trkpt lat="49.6913533" lon="15.072093"><ele>460.25</ele><time>2026-04-06T11:01:30.877Z</time></trkpt><trkpt lat="49.6914215" lon="15.0719285"><ele>458.0</ele><time>2026-04-06T11:01:31.877Z</time></trkpt><trkpt lat="49.6915019" lon="15.0717768"><ele>458.0</ele><time>2026-04-06T11:01:32.876Z</time></trkpt><trkpt lat="49.6915832" lon="15.0716277"><ele>458.0</ele><time>2026-04-06T11:01:33.877Z</time></trkpt><trkpt lat="49.6916617" lon="15.0714671"><ele>458.0</ele><time>2026-04-06T11:01:34.876Z</time></trkpt><trkpt lat="49.6917492" lon="15.0713096"><ele>458.0</ele><time>2026-04-06T11:01:35.876Z</time></trkpt><trkpt lat="49.6918544" lon="15.0711451"><ele>454.25</ele><time>2026-04-06T11:01:36.876Z</time></trkpt><trkpt lat="49.6919581" lon="15.0710017"><ele>450.5</ele><time>2026-04-06T11:01:37.876Z</time></trkpt><trkpt lat="49.6920391" lon="15.0708447"><ele>446.75</ele><time>2026-04-06T11:01:38.876Z</time></trkpt><trkpt lat="49.6920985" lon="15.0707003"><ele>443.0</ele><time>2026-04-06T11:01:39.876Z</time></trkpt><trkpt lat="49.6921569" lon="15.0705695"><ele>443.0</ele><time>2026-04-06T11:01:40.877Z</time></trkpt><trkpt lat="49.6922129" lon="15.0704079"><ele>443.0</ele><time>2026-04-06T11:01:41.877Z</time></trkpt><trkpt lat="49.6922775" lon="15.0702177"><ele>443.0</ele><time>2026-04-06T11:01:42.877Z</time></trkpt><trkpt lat="49.6923403" lon="15.0700032"><ele>443.0</ele><time>2026-04-06T11:01:43.876Z</time></trkpt><trkpt lat="49.6924027" lon="15.0697977"><ele>442.66666666666663</ele><time>2026-04-06T11:01:44.877Z</time></trkpt><trkpt lat="49.6924676" lon="15.0695623"><ele>442.33333333333337</ele><time>2026-04-06T11:01:45.876Z</time></trkpt><trkpt lat="49.6925154" lon="15.0693242"><ele>442.0</ele><time>2026-04-06T11:01:46.877Z</time></trkpt><trkpt lat="49.6925675" lon="15.0690566"><ele>443.0</ele><time>2026-04-06T11:01:47.876Z</time></trkpt><trkpt lat="49.6926027" lon="15.0687934"><ele>444.0</ele><time>2026-04-06T11:01:48.877Z</time></trkpt><trkpt lat="49.6926237" lon="15.0685517"><ele>445.0</ele><time>2026-04-06T11:01:49.876Z</time></trkpt><trkpt lat="49.6926491" lon="15.0683389"><ele>445.33333333333337</ele><time>2026-04-06T11:01:50.876Z</time></trkpt><trkpt lat="49.6926671" lon="15.0681725"><ele>445.6666666666667</ele><time>2026-04-06T11:01:51.876Z</time></trkpt><trkpt lat="49.6926844" lon="15.0680783"><ele>446.0</ele><time>2026-04-06T11:01:52.876Z</time></trkpt><trkpt lat="49.6926754" lon="15.0679582"><ele>446.33333333333337</ele><time>2026-04-06T11:01:57.876Z</time></trkpt><trkpt lat="49.6926135" lon="15.0677893"><ele>446.6666666666667</ele><time>2026-04-06T11:01:59.876Z</time></trkpt><trkpt lat="49.6925675" lon="15.0677025"><ele>447.0</ele><time>2026-04-06T11:02:00.876Z</time></trkpt><trkpt lat="49.6925464" lon="15.0676038"><ele>447.0</ele><time>2026-04-06T11:02:01.877Z</time></trkpt><trkpt lat="49.6925524" lon="15.0674977"><ele>447.00000000000006</ele><time>2026-04-06T11:02:02.877Z</time></trkpt><trkpt lat="49.6925851" lon="15.0673871"><ele>447.00000000000006</ele><time>2026-04-06T11:02:03.876Z</time></trkpt><trkpt lat="49.6926375" lon="15.0672666"><ele>447.0</ele><time>2026-04-06T11:02:04.876Z</time></trkpt><trkpt lat="49.6927038" lon="15.0671157"><ele>447.0</ele><time>2026-04-06T11:02:05.877Z</time></trkpt><trkpt lat="49.6927683" lon="15.0669386"><ele>446.5</ele><time>2026-04-06T11:02:06.877Z</time></trkpt><trkpt lat="49.6928276" lon="15.0667396"><ele>446.0</ele><time>2026-04-06T11:02:07.876Z</time></trkpt><trkpt lat="49.6928778" lon="15.0665315"><ele>445.5</ele><time>2026-04-06T11:02:08.877Z</time></trkpt><trkpt lat="49.6929164" lon="15.0662935"><ele>445.0</ele><time>2026-04-06T11:02:09.876Z</time></trkpt><trkpt lat="49.6929552" lon="15.0660409"><ele>445.0</ele><time>2026-04-06T11:02:10.876Z</time></trkpt><trkpt lat="49.6929915" lon="15.0657883"><ele>445.0</ele><time>2026-04-06T11:02:11.877Z</time></trkpt><trkpt lat="49.6930254" lon="15.0655334"><ele>445.0</ele><time>2026-04-06T11:02:12.876Z</time></trkpt><trkpt lat="49.6930552" lon="15.0652746"><ele>445.0</ele><time>2026-04-06T11:02:13.876Z</time></trkpt><trkpt lat="49.6930862" lon="15.0650071"><ele>445.0</ele><time>2026-04-06T11:02:14.876Z</time></trkpt><trkpt lat="49.6931203" lon="15.064737"><ele>445.0</ele><time>2026-04-06T11:02:15.877Z</time></trkpt><trkpt lat="49.6931572" lon="15.0644622"><ele>444.6666666666667</ele><time>2026-04-06T11:02:16.877Z</time></trkpt><trkpt lat="49.693195" lon="15.0641845"><ele>444.33333333333337</ele><time>2026-04-06T11:02:17.876Z</time></trkpt><trkpt lat="49.6932333" lon="15.0639102"><ele>444.0</ele><time>2026-04-06T11:02:18.877Z</time></trkpt><trkpt lat="49.6932694" lon="15.0636471"><ele>444.0</ele><time>2026-04-06T11:02:19.877Z</time></trkpt><trkpt lat="49.6933062" lon="15.0633942"><ele>444.0</ele><time>2026-04-06T11:02:20.876Z</time></trkpt><trkpt lat="49.6933425" lon="15.0631387"><ele>444.0</ele><time>2026-04-06T11:02:21.876Z</time></trkpt><trkpt lat="49.6933755" lon="15.0628872"><ele>444.0</ele><time>2026-04-06T11:02:22.876Z</time></trkpt><trkpt lat="49.6934051" lon="15.0626309"><ele>444.0</ele><time>2026-04-06T11:02:23.877Z</time></trkpt><trkpt lat="49.6934351" lon="15.0623814"><ele>444.0</ele><time>2026-04-06T11:02:24.877Z</time></trkpt><trkpt lat="49.6934694" lon="15.0621077"><ele>444.0</ele><time>2026-04-06T11:02:25.876Z</time></trkpt><trkpt lat="49.6935141" lon="15.0618326"><ele>444.0</ele><time>2026-04-06T11:02:26.876Z</time></trkpt><trkpt lat="49.6935564" lon="15.0615383"><ele>444.0</ele><time>2026-04-06T11:02:27.877Z</time></trkpt><trkpt lat="49.6935963" lon="15.0612379"><ele>442.0</ele><time>2026-04-06T11:02:28.876Z</time></trkpt><trkpt lat="49.6936339" lon="15.0609282"><ele>440.0</ele><time>2026-04-06T11:02:29.876Z</time></trkpt><trkpt lat="49.6936768" lon="15.0606152"><ele>438.0</ele><time>2026-04-06T11:02:30.876Z</time></trkpt><trkpt lat="49.693717" lon="15.0602905"><ele>437.66666666666663</ele><time>2026-04-06T11:02:31.876Z</time></trkpt><trkpt lat="49.6937585" lon="15.059969"><ele>437.3333333333333</ele><time>2026-04-06T11:02:32.877Z</time></trkpt><trkpt lat="49.6937984" lon="15.0596452"><ele>437.0</ele><time>2026-04-06T11:02:33.877Z</time></trkpt><trkpt lat="49.693829" lon="15.0593137"><ele>436.3333333333333</ele><time>2026-04-06T11:02:34.877Z</time></trkpt><trkpt lat="49.6938488" lon="15.0589745"><ele>435.66666666666663</ele><time>2026-04-06T11:02:35.876Z</time></trkpt><trkpt lat="49.69386" lon="15.0586252"><ele>435.0</ele><time>2026-04-06T11:02:36.877Z</time></trkpt><trkpt lat="49.6938615" lon="15.0582703"><ele>434.5</ele><time>2026-04-06T11:02:37.877Z</time></trkpt><trkpt lat="49.6938672" lon="15.0579193"><ele>434.0</ele><time>2026-04-06T11:02:38.876Z</time></trkpt><trkpt lat="49.6938745" lon="15.0575706"><ele>433.3333333333333</ele><time>2026-04-06T11:02:39.877Z</time></trkpt><trkpt lat="49.6938798" lon="15.0572241"><ele>432.66666666666663</ele><time>2026-04-06T11:02:40.876Z</time></trkpt><trkpt lat="49.69388" lon="15.0568936"><ele>432.0</ele><time>2026-04-06T11:02:41.877Z</time></trkpt><trkpt lat="49.6938816" lon="15.0565585"><ele>431.33333333333337</ele><time>2026-04-06T11:02:42.876Z</time></trkpt><trkpt lat="49.6938827" lon="15.0562304"><ele>430.6666666666667</ele><time>2026-04-06T11:02:43.877Z</time></trkpt><trkpt lat="49.6938812" lon="15.0559153"><ele>430.0</ele><time>2026-04-06T11:02:44.876Z</time></trkpt><trkpt lat="49.6938878" lon="15.0555982"><ele>429.6666666666667</ele><time>2026-04-06T11:02:45.876Z</time></trkpt><trkpt lat="49.6938914" lon="15.0552663"><ele>429.33333333333337</ele><time>2026-04-06T11:02:46.876Z</time></trkpt><trkpt lat="49.6938981" lon="15.0549432"><ele>429.0</ele><time>2026-04-06T11:02:47.876Z</time></trkpt><trkpt lat="49.6939007" lon="15.0546257"><ele>428.66666666666663</ele><time>2026-04-06T11:02:48.876Z</time></trkpt><trkpt lat="49.6938987" lon="15.0543127"><ele>428.3333333333333</ele><time>2026-04-06T11:02:49.876Z</time></trkpt><trkpt lat="49.693898" lon="15.0540076"><ele>428.0</ele><time>2026-04-06T11:02:50.876Z</time></trkpt><trkpt lat="49.6939016" lon="15.0537299"><ele>427.66666666666663</ele><time>2026-04-06T11:02:51.876Z</time></trkpt><trkpt lat="49.6939038" lon="15.0534647"><ele>427.33333333333337</ele><time>2026-04-06T11:02:52.877Z</time></trkpt><trkpt lat="49.6939072" lon="15.0532135"><ele>427.0</ele><time>2026-04-06T11:02:53.877Z</time></trkpt><trkpt lat="49.6939102" lon="15.05296"><ele>426.33333333333337</ele><time>2026-04-06T11:02:54.877Z</time></trkpt><trkpt lat="49.6939182" lon="15.0527219"><ele>425.66666666666663</ele><time>2026-04-06T11:02:55.876Z</time></trkpt><trkpt lat="49.6939399" lon="15.052488"><ele>425.0</ele><time>2026-04-06T11:02:56.876Z</time></trkpt><trkpt lat="49.693968" lon="15.0522705"><ele>424.5</ele><time>2026-04-06T11:02:57.876Z</time></trkpt><trkpt lat="49.6939939" lon="15.0520673"><ele>424.0</ele><time>2026-04-06T11:02:58.877Z</time></trkpt><trkpt lat="49.694016" lon="15.0518771"><ele>423.5</ele><time>2026-04-06T11:02:59.877Z</time></trkpt><trkpt lat="49.6940387" lon="15.0517068"><ele>423.0</ele><time>2026-04-06T11:03:00.876Z</time></trkpt><trkpt lat="49.6940694" lon="15.0515766"><ele>422.59999999999997</ele><time>2026-04-06T11:03:01.876Z</time></trkpt><trkpt lat="49.6941448" lon="15.0514526"><ele>422.2</ele><time>2026-04-06T11:03:03.877Z</time></trkpt><trkpt lat="49.6942506" lon="15.0514448"><ele>421.8</ele><time>2026-04-06T11:03:05.877Z</time></trkpt><trkpt lat="49.6943138" lon="15.0514159"><ele>421.4</ele><time>2026-04-06T11:03:06.876Z</time></trkpt><trkpt lat="49.6943801" lon="15.0513451"><ele>421.0</ele><time>2026-04-06T11:03:07.876Z</time></trkpt><trkpt lat="49.6944627" lon="15.0512275"><ele>422.0</ele><time>2026-04-06T11:03:08.877Z</time></trkpt><trkpt lat="49.6945518" lon="15.0511226"><ele>423.0</ele><time>2026-04-06T11:03:09.876Z</time></trkpt><trkpt lat="49.6946394" lon="15.0510499"><ele>424.0</ele><time>2026-04-06T11:03:10.877Z</time></trkpt><trkpt lat="49.6947396" lon="15.0510142"><ele>425.0</ele><time>2026-04-06T11:03:11.877Z</time></trkpt><trkpt lat="49.694861" lon="15.0509802"><ele>426.0</ele><time>2026-04-06T11:03:12.877Z</time></trkpt><trkpt lat="49.6950133" lon="15.0509179"><ele>426.0</ele><time>2026-04-06T11:03:13.877Z</time></trkpt><trkpt lat="49.6951853" lon="15.0508297"><ele>426.0</ele><time>2026-04-06T11:03:14.876Z</time></trkpt><trkpt lat="49.6953654" lon="15.0507217"><ele>426.0</ele><time>2026-04-06T11:03:15.877Z</time></trkpt><trkpt lat="49.6955494" lon="15.0506128"><ele>425.66666666666663</ele><time>2026-04-06T11:03:16.876Z</time></trkpt><trkpt lat="49.6957296" lon="15.0504997"><ele>425.3333333333333</ele><time>2026-04-06T11:03:17.876Z</time></trkpt><trkpt lat="49.6959092" lon="15.050392"><ele>425.0</ele><time>2026-04-06T11:03:18.877Z</time></trkpt><trkpt lat="49.6960789" lon="15.0502865"><ele>426.3333333333333</ele><time>2026-04-06T11:03:19.876Z</time></trkpt><trkpt lat="49.6962437" lon="15.0501902"><ele>427.66666666666663</ele><time>2026-04-06T11:03:20.877Z</time></trkpt><trkpt lat="49.6964158" lon="15.0501001"><ele>429.0</ele><time>2026-04-06T11:03:21.876Z</time></trkpt><trkpt lat="49.6965952" lon="15.0500224"><ele>428.0</ele><time>2026-04-06T11:03:22.876Z</time></trkpt><trkpt lat="49.6967769" lon="15.0499578"><ele>427.0</ele><time>2026-04-06T11:03:23.876Z</time></trkpt><trkpt lat="49.696957" lon="15.0499003"><ele>426.0</ele><time>2026-04-06T11:03:24.876Z</time></trkpt><trkpt lat="49.6971417" lon="15.0498462"><ele>426.0</ele><time>2026-04-06T11:03:25.877Z</time></trkpt><trkpt lat="49.6973208" lon="15.0497989"><ele>426.0</ele><time>2026-04-06T11:03:26.876Z</time></trkpt><trkpt lat="49.6974989" lon="15.0497807"><ele>426.0</ele><time>2026-04-06T11:03:27.876Z</time></trkpt><trkpt lat="49.6976896" lon="15.0498069"><ele>427.0</ele><time>2026-04-06T11:03:28.877Z</time></trkpt><trkpt lat="49.6978947" lon="15.0498491"><ele>428.0</ele><time>2026-04-06T11:03:29.876Z</time></trkpt><trkpt lat="49.6981046" lon="15.0499123"><ele>429.0</ele><time>2026-04-06T11:03:30.876Z</time></trkpt><trkpt lat="49.6983011" lon="15.0499612"><ele>430.0</ele><time>2026-04-06T11:03:31.877Z</time></trkpt><trkpt lat="49.6984504" lon="15.0499995"><ele>431.0</ele><time>2026-04-06T11:03:32.877Z</time></trkpt><trkpt lat="49.6985943" lon="15.0500143"><ele>432.0</ele><time>2026-04-06T11:03:33.876Z</time></trkpt><trkpt lat="49.6987366" lon="15.0499941"><ele>433.0</ele><time>2026-04-06T11:03:34.876Z</time></trkpt><trkpt lat="49.6988788" lon="15.0499244"><ele>433.0</ele><time>2026-04-06T11:03:35.876Z</time></trkpt><trkpt lat="49.6990327" lon="15.0498328"><ele>433.0</ele><time>2026-04-06T11:03:36.876Z</time></trkpt><trkpt lat="49.6991851" lon="15.0497649"><ele>433.0</ele><time>2026-04-06T11:03:37.877Z</time></trkpt><trkpt lat="49.6993288" lon="15.0497372"><ele>432.75</ele><time>2026-04-06T11:03:38.876Z</time></trkpt><trkpt lat="49.6994653" lon="15.0497244"><ele>432.5</ele><time>2026-04-06T11:03:39.876Z</time></trkpt><trkpt lat="49.6995958" lon="15.0497322"><ele>432.25</ele><time>2026-04-06T11:03:40.877Z</time></trkpt><trkpt lat="49.6997131" lon="15.0497558"><ele>432.0</ele><time>2026-04-06T11:03:41.877Z</time></trkpt><trkpt lat="49.6998202" lon="15.0497848"><ele>432.0</ele><time>2026-04-06T11:03:42.876Z</time></trkpt><trkpt lat="49.6999192" lon="15.0498065"><ele>432.00000000000006</ele><time>2026-04-06T11:03:43.876Z</time></trkpt><trkpt lat="49.7000042" lon="15.0498216"><ele>432.00000000000006</ele><time>2026-04-06T11:03:44.877Z</time></trkpt><trkpt lat="49.700073" lon="15.0498382"><ele>432.0</ele><time>2026-04-06T11:03:45.876Z</time></trkpt><trkpt lat="49.7001709" lon="15.0498786"><ele>432.0</ele><time>2026-04-06T11:03:47.877Z</time></trkpt><trkpt lat="49.7002776" lon="15.0498977"><ele>431.6</ele><time>2026-04-06T11:03:50.877Z</time></trkpt><trkpt lat="49.7003619" lon="15.0499006"><ele>431.20000000000005</ele><time>2026-04-06T11:03:51.876Z</time></trkpt><trkpt lat="49.7004576" lon="15.0499026"><ele>430.8</ele><time>2026-04-06T11:03:52.877Z</time></trkpt><trkpt lat="49.7005588" lon="15.0498962"><ele>430.4</ele><time>2026-04-06T11:03:53.876Z</time></trkpt><trkpt lat="49.7006662" lon="15.0498848"><ele>430.0</ele><time>2026-04-06T11:03:54.876Z</time></trkpt><trkpt lat="49.7007744" lon="15.0498836"><ele>430.0</ele><time>2026-04-06T11:03:55.876Z</time></trkpt><trkpt lat="49.7008768" lon="15.0498986"><ele>430.0</ele><time>2026-04-06T11:03:56.876Z</time></trkpt><trkpt lat="49.7009706" lon="15.049915"><ele>430.0</ele><time>2026-04-06T11:03:57.877Z</time></trkpt><trkpt lat="49.7010601" lon="15.049934"><ele>430.0</ele><time>2026-04-06T11:03:58.877Z</time></trkpt><trkpt lat="49.701144" lon="15.0499532"><ele>430.0</ele><time>2026-04-06T11:03:59.876Z</time></trkpt><trkpt lat="49.7012262" lon="15.0499563"><ele>430.33333333333337</ele><time>2026-04-06T11:04:00.877Z</time></trkpt><trkpt lat="49.7013076" lon="15.0499295"><ele>430.6666666666667</ele><time>2026-04-06T11:04:01.876Z</time></trkpt><trkpt lat="49.7013852" lon="15.0498895"><ele>431.0</ele><time>2026-04-06T11:04:02.876Z</time></trkpt><trkpt lat="49.7014553" lon="15.0498193"><ele>431.33333333333337</ele><time>2026-04-06T11:04:03.877Z</time></trkpt><trkpt lat="49.7014844" lon="15.0497178"><ele>431.6666666666667</ele><time>2026-04-06T11:04:04.877Z</time></trkpt><trkpt lat="49.7014883" lon="15.0495859"><ele>432.0</ele><time>2026-04-06T11:04:05.877Z</time></trkpt><trkpt lat="49.7015089" lon="15.0494274"><ele>432.0</ele><time>2026-04-06T11:04:06.876Z</time></trkpt><trkpt lat="49.7015749" lon="15.0493099"><ele>432.0</ele><time>2026-04-06T11:04:07.876Z</time></trkpt><trkpt lat="49.7016361" lon="15.0492284"><ele>432.0</ele><time>2026-04-06T11:04:08.877Z</time></trkpt><trkpt lat="49.7017078" lon="15.0491882"><ele>432.0</ele><time>2026-04-06T11:04:09.876Z</time></trkpt><trkpt lat="49.7017792" lon="15.0491707"><ele>432.0</ele><time>2026-04-06T11:04:10.876Z</time></trkpt><trkpt lat="49.7018543" lon="15.0491859"><ele>432.0</ele><time>2026-04-06T11:04:11.877Z</time></trkpt><trkpt lat="49.701965" lon="15.0492098"><ele>432.6</ele><time>2026-04-06T11:04:13.876Z</time></trkpt><trkpt lat="49.7020464" lon="15.0492002"><ele>433.20000000000005</ele><time>2026-04-06T11:04:16.877Z</time></trkpt><trkpt lat="49.7021361" lon="15.0491062"><ele>433.8</ele><time>2026-04-06T11:04:18.877Z</time></trkpt><trkpt lat="49.7021785" lon="15.049003"><ele>434.4</ele><time>2026-04-06T11:04:19.877Z</time></trkpt><trkpt lat="49.7022114" lon="15.0488683"><ele>435.0</ele><time>2026-04-06T11:04:20.877Z</time></trkpt><trkpt lat="49.7022298" lon="15.048734"><ele>435.0</ele><time>2026-04-06T11:04:21.876Z</time></trkpt><trkpt lat="49.7022442" lon="15.0486247"><ele>435.0</ele><time>2026-04-06T11:04:22.877Z</time></trkpt><trkpt lat="49.7022756" lon="15.0485353"><ele>435.0</ele><time>2026-04-06T11:04:23.876Z</time></trkpt><trkpt lat="49.7023311" lon="15.0484612"><ele>435.0</ele><time>2026-04-06T11:04:24.876Z</time></trkpt><trkpt lat="49.7024043" lon="15.0483811"><ele>435.0</ele><time>2026-04-06T11:04:25.877Z</time></trkpt><trkpt lat="49.7024917" lon="15.0482822"><ele>435.0</ele><time>2026-04-06T11:04:26.877Z</time></trkpt><trkpt lat="49.702584" lon="15.0481653"><ele>434.75</ele><time>2026-04-06T11:04:27.877Z</time></trkpt><trkpt lat="49.7026814" lon="15.0480474"><ele>434.5</ele><time>2026-04-06T11:04:28.877Z</time></trkpt><trkpt lat="49.7027828" lon="15.0479454"><ele>434.25</ele><time>2026-04-06T11:04:29.877Z</time></trkpt><trkpt lat="49.7028945" lon="15.0478751"><ele>434.0</ele><time>2026-04-06T11:04:30.876Z</time></trkpt><trkpt lat="49.7030262" lon="15.0478356"><ele>435.0</ele><time>2026-04-06T11:04:31.877Z</time></trkpt><trkpt lat="49.7031695" lon="15.0478258"><ele>436.0</ele><time>2026-04-06T11:04:32.876Z</time></trkpt><trkpt lat="49.7033282" lon="15.0478398"><ele>437.0</ele><time>2026-04-06T11:04:33.876Z</time></trkpt><trkpt lat="49.7034975" lon="15.0478691"><ele>437.66666666666663</ele><time>2026-04-06T11:04:34.877Z</time></trkpt><trkpt lat="49.7036788" lon="15.0479128"><ele>438.33333333333337</ele><time>2026-04-06T11:04:35.877Z</time></trkpt><trkpt lat="49.703863" lon="15.0479645"><ele>439.0</ele><time>2026-04-06T11:04:36.876Z</time></trkpt><trkpt lat="49.7040419" lon="15.0480215"><ele>439.0</ele><time>2026-04-06T11:04:37.877Z</time></trkpt><trkpt lat="49.7042189" lon="15.0481116"><ele>439.0</ele><time>2026-04-06T11:04:38.876Z</time></trkpt><trkpt lat="49.7043863" lon="15.0482511"><ele>439.0</ele><time>2026-04-06T11:04:39.876Z</time></trkpt><trkpt lat="49.704549" lon="15.0484014"><ele>440.33333333333337</ele><time>2026-04-06T11:04:40.876Z</time></trkpt><trkpt lat="49.7047195" lon="15.0485474"><ele>441.66666666666663</ele><time>2026-04-06T11:04:41.877Z</time></trkpt><trkpt lat="49.7049042" lon="15.0486658"><ele>443.0</ele><time>2026-04-06T11:04:42.876Z</time></trkpt><trkpt lat="49.7051001" lon="15.0487632"><ele>444.0</ele><time>2026-04-06T11:04:43.877Z</time></trkpt><trkpt lat="49.7052961" lon="15.0488441"><ele>445.0</ele><time>2026-04-06T11:04:44.877Z</time></trkpt><trkpt lat="49.7054945" lon="15.048915"><ele>446.0</ele><time>2026-04-06T11:04:45.877Z</time></trkpt><trkpt lat="49.7056932" lon="15.0489749"><ele>446.0</ele><time>2026-04-06T11:04:46.877Z</time></trkpt><trkpt lat="49.7058914" lon="15.0490393"><ele>446.0</ele><time>2026-04-06T11:04:47.876Z</time></trkpt><trkpt lat="49.7060863" lon="15.0491"><ele>446.0</ele><time>2026-04-06T11:04:48.876Z</time></trkpt><trkpt lat="49.7062828" lon="15.0491596"><ele>447.0</ele><time>2026-04-06T11:04:49.877Z</time></trkpt><trkpt lat="49.7064778" lon="15.0492228"><ele>448.0</ele><time>2026-04-06T11:04:50.876Z</time></trkpt><trkpt lat="49.70667" lon="15.0492801"><ele>449.0</ele><time>2026-04-06T11:04:51.876Z</time></trkpt><trkpt lat="49.7068656" lon="15.0493335"><ele>449.0</ele><time>2026-04-06T11:04:52.876Z</time></trkpt><trkpt lat="49.7070665" lon="15.0493879"><ele>449.0</ele><time>2026-04-06T11:04:53.876Z</time></trkpt><trkpt lat="49.7072702" lon="15.0494454"><ele>449.0</ele><time>2026-04-06T11:04:54.877Z</time></trkpt><trkpt lat="49.7074747" lon="15.0495043"><ele>449.0</ele><time>2026-04-06T11:04:55.876Z</time></trkpt><trkpt lat="49.7076783" lon="15.0495481"><ele>449.0</ele><time>2026-04-06T11:04:56.884Z</time></trkpt><trkpt lat="49.707883" lon="15.0495787"><ele>449.0</ele><time>2026-04-06T11:04:57.884Z</time></trkpt><trkpt lat="49.7080887" lon="15.0496049"><ele>449.0</ele><time>2026-04-06T11:04:58.883Z</time></trkpt><trkpt lat="49.7082973" lon="15.0496251"><ele>449.0</ele><time>2026-04-06T11:04:59.884Z</time></trkpt><trkpt lat="49.7085082" lon="15.0496435"><ele>449.0</ele><time>2026-04-06T11:05:00.883Z</time></trkpt><trkpt lat="49.7087288" lon="15.0496549"><ele>448.66666666666663</ele><time>2026-04-06T11:05:01.883Z</time></trkpt><trkpt lat="49.7089534" lon="15.0496869"><ele>448.33333333333337</ele><time>2026-04-06T11:05:02.884Z</time></trkpt><trkpt lat="49.7091743" lon="15.0497332"><ele>448.0</ele><time>2026-04-06T11:05:03.883Z</time></trkpt><trkpt lat="49.7093894" lon="15.0497782"><ele>448.0</ele><time>2026-04-06T11:05:04.884Z</time></trkpt><trkpt lat="49.7096091" lon="15.0498232"><ele>448.0</ele><time>2026-04-06T11:05:05.884Z</time></trkpt><trkpt lat="49.7098329" lon="15.0498782"><ele>448.0</ele><time>2026-04-06T11:05:06.883Z</time></trkpt><trkpt lat="49.7100559" lon="15.0499499"><ele>448.0</ele><time>2026-04-06T11:05:07.884Z</time></trkpt><trkpt lat="49.7102818" lon="15.0500232"><ele>448.0</ele><time>2026-04-06T11:05:08.884Z</time></trkpt><trkpt lat="49.7105098" lon="15.0500936"><ele>448.0</ele><time>2026-04-06T11:05:09.884Z</time></trkpt><trkpt lat="49.7107381" lon="15.0501683"><ele>448.0</ele><time>2026-04-06T11:05:10.884Z</time></trkpt><trkpt lat="49.7109645" lon="15.0502452"><ele>447.33333333333337</ele><time>2026-04-06T11:05:11.884Z</time></trkpt><trkpt lat="49.7111853" lon="15.0503246"><ele>446.66666666666663</ele><time>2026-04-06T11:05:12.884Z</time></trkpt><trkpt lat="49.7113947" lon="15.0504187"><ele>446.0</ele><time>2026-04-06T11:05:13.883Z</time></trkpt><trkpt lat="49.7115959" lon="15.050519"><ele>446.0</ele><time>2026-04-06T11:05:14.883Z</time></trkpt><trkpt lat="49.7117948" lon="15.0506036"><ele>446.0</ele><time>2026-04-06T11:05:15.883Z</time></trkpt><trkpt lat="49.7119989" lon="15.0506568"><ele>446.0</ele><time>2026-04-06T11:05:16.883Z</time></trkpt><trkpt lat="49.7121973" lon="15.0506872"><ele>445.3333333333333</ele><time>2026-04-06T11:05:17.883Z</time></trkpt><trkpt lat="49.7123938" lon="15.0507359"><ele>444.66666666666663</ele><time>2026-04-06T11:05:18.883Z</time></trkpt><trkpt lat="49.7125884" lon="15.0507986"><ele>444.0</ele><time>2026-04-06T11:05:19.884Z</time></trkpt><trkpt lat="49.712787" lon="15.0508532"><ele>442.66666666666663</ele><time>2026-04-06T11:05:20.884Z</time></trkpt><trkpt lat="49.7129907" lon="15.0508975"><ele>441.3333333333333</ele><time>2026-04-06T11:05:21.884Z</time></trkpt><trkpt lat="49.7131944" lon="15.0509399"><ele>440.0</ele><time>2026-04-06T11:05:22.884Z</time></trkpt><trkpt lat="49.7134016" lon="15.0509673"><ele>437.66666666666663</ele><time>2026-04-06T11:05:23.884Z</time></trkpt><trkpt lat="49.7136102" lon="15.0509792"><ele>435.33333333333337</ele><time>2026-04-06T11:05:24.883Z</time></trkpt><trkpt lat="49.7138226" lon="15.050996"><ele>433.0</ele><time>2026-04-06T11:05:25.884Z</time></trkpt><trkpt lat="49.7140442" lon="15.0510015"><ele>433.0</ele><time>2026-04-06T11:05:26.883Z</time></trkpt><trkpt lat="49.7142751" lon="15.0509911"><ele>433.0</ele><time>2026-04-06T11:05:27.884Z</time></trkpt><trkpt lat="49.7145019" lon="15.0509847"><ele>430.6666666666667</ele><time>2026-04-06T11:05:28.883Z</time></trkpt><trkpt lat="49.7147208" lon="15.0509852"><ele>428.33333333333337</ele><time>2026-04-06T11:05:29.884Z</time></trkpt><trkpt lat="49.7149417" lon="15.050988"><ele>426.0</ele><time>2026-04-06T11:05:30.884Z</time></trkpt><trkpt lat="49.7151693" lon="15.0509743"><ele>422.5</ele><time>2026-04-06T11:05:31.884Z</time></trkpt><trkpt lat="49.7154001" lon="15.0509098"><ele>419.0</ele><time>2026-04-06T11:05:32.883Z</time></trkpt><trkpt lat="49.7156306" lon="15.0508171"><ele>418.5</ele><time>2026-04-06T11:05:33.884Z</time></trkpt><trkpt lat="49.7158594" lon="15.0507053"><ele>418.0</ele><time>2026-04-06T11:05:34.883Z</time></trkpt><trkpt lat="49.7160924" lon="15.0506131"><ele>418.0</ele><time>2026-04-06T11:05:35.883Z</time></trkpt><trkpt lat="49.716325" lon="15.0505396"><ele>418.0</ele><time>2026-04-06T11:05:36.884Z</time></trkpt><trkpt lat="49.7165564" lon="15.0504795"><ele>418.0</ele><time>2026-04-06T11:05:37.883Z</time></trkpt><trkpt lat="49.7167889" lon="15.0504515"><ele>418.0</ele><time>2026-04-06T11:05:38.883Z</time></trkpt><trkpt lat="49.7170249" lon="15.0504331"><ele>417.0</ele><time>2026-04-06T11:05:39.883Z</time></trkpt><trkpt lat="49.7172641" lon="15.0503969"><ele>416.0</ele><time>2026-04-06T11:05:40.883Z</time></trkpt><trkpt lat="49.7175058" lon="15.0503603"><ele>416.0</ele><time>2026-04-06T11:05:41.884Z</time></trkpt><trkpt lat="49.717749" lon="15.0503248"><ele>416.0</ele><time>2026-04-06T11:05:42.884Z</time></trkpt><trkpt lat="49.7179947" lon="15.0502966"><ele>416.0</ele><time>2026-04-06T11:05:43.884Z</time></trkpt><trkpt lat="49.7182392" lon="15.0502671"><ele>416.0</ele><time>2026-04-06T11:05:44.883Z</time></trkpt><trkpt lat="49.7184788" lon="15.0502282"><ele>415.0</ele><time>2026-04-06T11:05:45.884Z</time></trkpt><trkpt lat="49.7187067" lon="15.0501871"><ele>414.0</ele><time>2026-04-06T11:05:46.884Z</time></trkpt><trkpt lat="49.7189274" lon="15.0501484"><ele>414.0</ele><time>2026-04-06T11:05:47.883Z</time></trkpt><trkpt lat="49.7191443" lon="15.0501011"><ele>414.0</ele><time>2026-04-06T11:05:48.883Z</time></trkpt><trkpt lat="49.7193593" lon="15.0500573"><ele>414.0</ele><time>2026-04-06T11:05:49.883Z</time></trkpt><trkpt lat="49.719567" lon="15.0500215"><ele>414.0</ele><time>2026-04-06T11:05:50.884Z</time></trkpt><trkpt lat="49.7197632" lon="15.0499845"><ele>414.0</ele><time>2026-04-06T11:05:51.883Z</time></trkpt><trkpt lat="49.71995" lon="15.0499516"><ele>414.0</ele><time>2026-04-06T11:05:52.884Z</time></trkpt><trkpt lat="49.7201257" lon="15.0499245"><ele>413.0</ele><time>2026-04-06T11:05:53.883Z</time></trkpt><trkpt lat="49.7202976" lon="15.0499004"><ele>412.0</ele><time>2026-04-06T11:05:54.883Z</time></trkpt><trkpt lat="49.7204691" lon="15.0498762"><ele>411.0</ele><time>2026-04-06T11:05:55.884Z</time></trkpt><trkpt lat="49.720638" lon="15.0498527"><ele>411.0</ele><time>2026-04-06T11:05:56.883Z</time></trkpt><trkpt lat="49.7207985" lon="15.0498289"><ele>411.0</ele><time>2026-04-06T11:05:57.883Z</time></trkpt><trkpt lat="49.7209392" lon="15.0498078"><ele>411.0</ele><time>2026-04-06T11:05:58.883Z</time></trkpt><trkpt lat="49.7210756" lon="15.0497851"><ele>411.0</ele><time>2026-04-06T11:05:59.883Z</time></trkpt><trkpt lat="49.7212244" lon="15.0497603"><ele>411.33333333333337</ele><time>2026-04-06T11:06:00.884Z</time></trkpt><trkpt lat="49.7213806" lon="15.049735"><ele>411.6666666666667</ele><time>2026-04-06T11:06:01.883Z</time></trkpt><trkpt lat="49.72154" lon="15.0497114"><ele>412.0</ele><time>2026-04-06T11:06:02.884Z</time></trkpt><trkpt lat="49.7216983" lon="15.0496638"><ele>412.0</ele><time>2026-04-06T11:06:03.883Z</time></trkpt><trkpt lat="49.7218641" lon="15.0495667"><ele>412.0</ele><time>2026-04-06T11:06:04.883Z</time></trkpt><trkpt lat="49.7220355" lon="15.0494121"><ele>412.0</ele><time>2026-04-06T11:06:05.883Z</time></trkpt><trkpt lat="49.7221929" lon="15.0492084"><ele>411.0</ele><time>2026-04-06T11:06:06.883Z</time></trkpt><trkpt lat="49.722326" lon="15.048972"><ele>410.0</ele><time>2026-04-06T11:06:07.884Z</time></trkpt><trkpt lat="49.7224281" lon="15.0487037"><ele>409.0</ele><time>2026-04-06T11:06:08.883Z</time></trkpt><trkpt lat="49.7224957" lon="15.0484191"><ele>408.6666666666667</ele><time>2026-04-06T11:06:09.883Z</time></trkpt><trkpt lat="49.722531" lon="15.0481118"><ele>408.33333333333337</ele><time>2026-04-06T11:06:10.884Z</time></trkpt><trkpt lat="49.722552" lon="15.0478071"><ele>408.0</ele><time>2026-04-06T11:06:11.883Z</time></trkpt><trkpt lat="49.7225747" lon="15.0475325"><ele>407.66666666666663</ele><time>2026-04-06T11:06:12.884Z</time></trkpt><trkpt lat="49.7225932" lon="15.0472745"><ele>407.3333333333333</ele><time>2026-04-06T11:06:13.884Z</time></trkpt><trkpt lat="49.7226125" lon="15.0470351"><ele>407.0</ele><time>2026-04-06T11:06:14.883Z</time></trkpt><trkpt lat="49.7226325" lon="15.0467988"><ele>407.3333333333333</ele><time>2026-04-06T11:06:15.884Z</time></trkpt><trkpt lat="49.7226647" lon="15.0465618"><ele>407.66666666666663</ele><time>2026-04-06T11:06:16.884Z</time></trkpt><trkpt lat="49.7227115" lon="15.0463259"><ele>408.0</ele><time>2026-04-06T11:06:17.883Z</time></trkpt><trkpt lat="49.7227773" lon="15.0461059"><ele>407.5</ele><time>2026-04-06T11:06:18.884Z</time></trkpt><trkpt lat="49.7228678" lon="15.0459132"><ele>407.0</ele><time>2026-04-06T11:06:19.884Z</time></trkpt><trkpt lat="49.7229723" lon="15.0457551"><ele>406.5</ele><time>2026-04-06T11:06:20.883Z</time></trkpt><trkpt lat="49.7230869" lon="15.0456346"><ele>406.0</ele><time>2026-04-06T11:06:21.884Z</time></trkpt><trkpt lat="49.7232028" lon="15.0455522"><ele>405.6666666666667</ele><time>2026-04-06T11:06:22.884Z</time></trkpt><trkpt lat="49.7233072" lon="15.045501"><ele>405.33333333333337</ele><time>2026-04-06T11:06:23.884Z</time></trkpt><trkpt lat="49.7233894" lon="15.0454693"><ele>405.0</ele><time>2026-04-06T11:06:24.884Z</time></trkpt><trkpt lat="49.7234728" lon="15.0454261"><ele>404.66666666666663</ele><time>2026-04-06T11:06:26.884Z</time></trkpt><trkpt lat="49.7235142" lon="15.0453082"><ele>404.3333333333333</ele><time>2026-04-06T11:06:28.884Z</time></trkpt><trkpt lat="49.7235261" lon="15.0451954"><ele>404.0</ele><time>2026-04-06T11:06:29.883Z</time></trkpt><trkpt lat="49.7235212" lon="15.0450365"><ele>403.5</ele><time>2026-04-06T11:06:30.884Z</time></trkpt><trkpt lat="49.7235154" lon="15.0448513"><ele>403.0</ele><time>2026-04-06T11:06:31.883Z</time></trkpt><trkpt lat="49.7235095" lon="15.044653"><ele>402.5</ele><time>2026-04-06T11:06:32.883Z</time></trkpt><trkpt lat="49.7234988" lon="15.0444551"><ele>402.0</ele><time>2026-04-06T11:06:33.883Z</time></trkpt><trkpt lat="49.7234772" lon="15.0442695"><ele>401.0</ele><time>2026-04-06T11:06:34.884Z</time></trkpt><trkpt lat="49.7234499" lon="15.0440971"><ele>400.0</ele><time>2026-04-06T11:06:35.884Z</time></trkpt><trkpt lat="49.7234115" lon="15.0439316"><ele>399.0</ele><time>2026-04-06T11:06:36.884Z</time></trkpt><trkpt lat="49.7233677" lon="15.0437681"><ele>398.0</ele><time>2026-04-06T11:06:37.884Z</time></trkpt><trkpt lat="49.7233225" lon="15.0436195"><ele>397.0</ele><time>2026-04-06T11:06:38.884Z</time></trkpt><trkpt lat="49.7232895" lon="15.0434843"><ele>397.00000000000006</ele><time>2026-04-06T11:06:39.884Z</time></trkpt><trkpt lat="49.7232739" lon="15.0433713"><ele>397.0</ele><time>2026-04-06T11:06:40.884Z</time></trkpt><trkpt lat="49.7232734" lon="15.0432593"><ele>397.0</ele><time>2026-04-06T11:06:41.884Z</time></trkpt><trkpt lat="49.723273" lon="15.043143"><ele>397.0</ele><time>2026-04-06T11:06:42.884Z</time></trkpt><trkpt lat="49.7232562" lon="15.0430067"><ele>397.00000000000006</ele><time>2026-04-06T11:06:43.883Z</time></trkpt><trkpt lat="49.7232409" lon="15.0428802"><ele>397.0</ele><time>2026-04-06T11:06:44.884Z</time></trkpt><trkpt lat="49.7232249" lon="15.0427482"><ele>396.20000000000005</ele><time>2026-04-06T11:06:45.883Z</time></trkpt><trkpt lat="49.7232125" lon="15.0426087"><ele>395.4</ele><time>2026-04-06T11:06:46.884Z</time></trkpt><trkpt lat="49.7231925" lon="15.042464"><ele>394.6</ele><time>2026-04-06T11:06:47.884Z</time></trkpt><trkpt lat="49.7231674" lon="15.0423212"><ele>393.79999999999995</ele><time>2026-04-06T11:06:48.884Z</time></trkpt><trkpt lat="49.7231464" lon="15.0421829"><ele>393.0</ele><time>2026-04-06T11:06:49.884Z</time></trkpt><trkpt lat="49.7231337" lon="15.0420398"><ele>393.0</ele><time>2026-04-06T11:06:50.884Z</time></trkpt><trkpt lat="49.723121" lon="15.0418852"><ele>393.0</ele><time>2026-04-06T11:06:51.884Z</time></trkpt><trkpt lat="49.7231075" lon="15.0417223"><ele>393.0</ele><time>2026-04-06T11:06:52.884Z</time></trkpt><trkpt lat="49.7230876" lon="15.0415634"><ele>393.0</ele><time>2026-04-06T11:06:53.883Z</time></trkpt><trkpt lat="49.7230657" lon="15.0413957"><ele>393.0</ele><time>2026-04-06T11:06:54.884Z</time></trkpt><trkpt lat="49.7230418" lon="15.0412275"><ele>392.4</ele><time>2026-04-06T11:06:55.884Z</time></trkpt><trkpt lat="49.7230169" lon="15.0410626"><ele>391.79999999999995</ele><time>2026-04-06T11:06:56.884Z</time></trkpt><trkpt lat="49.7229949" lon="15.0408984"><ele>391.2</ele><time>2026-04-06T11:06:57.883Z</time></trkpt><trkpt lat="49.7229742" lon="15.0407334"><ele>390.6</ele><time>2026-04-06T11:06:58.883Z</time></trkpt><trkpt lat="49.7229567" lon="15.0405708"><ele>390.0</ele><time>2026-04-06T11:06:59.884Z</time></trkpt><trkpt lat="49.7229412" lon="15.0404054"><ele>389.8</ele><time>2026-04-06T11:07:00.883Z</time></trkpt><trkpt lat="49.7229361" lon="15.0402462"><ele>389.6</ele><time>2026-04-06T11:07:01.884Z</time></trkpt><trkpt lat="49.7229397" lon="15.0400859"><ele>389.4</ele><time>2026-04-06T11:07:02.884Z</time></trkpt><trkpt lat="49.7229422" lon="15.0399219"><ele>389.2</ele><time>2026-04-06T11:07:03.883Z</time></trkpt><trkpt lat="49.7229466" lon="15.0397447"><ele>389.0</ele><time>2026-04-06T11:07:04.884Z</time></trkpt><trkpt lat="49.7229538" lon="15.0395746"><ele>387.79999999999995</ele><time>2026-04-06T11:07:05.883Z</time></trkpt><trkpt lat="49.7229613" lon="15.0394158"><ele>386.59999999999997</ele><time>2026-04-06T11:07:06.883Z</time></trkpt><trkpt lat="49.7229623" lon="15.0392981"><ele>385.4</ele><time>2026-04-06T11:07:07.883Z</time></trkpt><trkpt lat="49.7229786" lon="15.0391549"><ele>384.2</ele><time>2026-04-06T11:07:31.883Z</time></trkpt><trkpt lat="49.723001" lon="15.0389656"><ele>383.0</ele><time>2026-04-06T11:07:33.883Z</time></trkpt><trkpt lat="49.7230262" lon="15.0388709"><ele>379.83333333333337</ele><time>2026-04-06T11:07:34.884Z</time></trkpt><trkpt lat="49.7230673" lon="15.0387893"><ele>376.6666666666667</ele><time>2026-04-06T11:07:35.883Z</time></trkpt><trkpt lat="49.7231155" lon="15.0387012"><ele>373.5</ele><time>2026-04-06T11:07:36.883Z</time></trkpt><trkpt lat="49.7231757" lon="15.0386203"><ele>370.3333333333333</ele><time>2026-04-06T11:07:37.884Z</time></trkpt><trkpt lat="49.7232451" lon="15.0385424"><ele>367.16666666666663</ele><time>2026-04-06T11:07:38.883Z</time></trkpt><trkpt lat="49.723329" lon="15.0384749"><ele>364.0</ele><time>2026-04-06T11:07:39.883Z</time></trkpt><trkpt lat="49.7234242" lon="15.0384134"><ele>364.0</ele><time>2026-04-06T11:07:40.884Z</time></trkpt><trkpt lat="49.7235296" lon="15.0383523"><ele>364.0</ele><time>2026-04-06T11:07:41.884Z</time></trkpt><trkpt lat="49.7236396" lon="15.0382776"><ele>364.0</ele><time>2026-04-06T11:07:42.884Z</time></trkpt><trkpt lat="49.723753" lon="15.0381924"><ele>364.0</ele><time>2026-04-06T11:07:43.883Z</time></trkpt><trkpt lat="49.7238758" lon="15.0381068"><ele>362.5</ele><time>2026-04-06T11:07:44.883Z</time></trkpt><trkpt lat="49.7239967" lon="15.0380265"><ele>361.0</ele><time>2026-04-06T11:07:45.884Z</time></trkpt><trkpt lat="49.7241122" lon="15.0379521"><ele>359.5</ele><time>2026-04-06T11:07:46.883Z</time></trkpt><trkpt lat="49.7242252" lon="15.0378727"><ele>358.0</ele><time>2026-04-06T11:07:47.883Z</time></trkpt><trkpt lat="49.7243354" lon="15.0377944"><ele>358.79999999999995</ele><time>2026-04-06T11:07:48.884Z</time></trkpt><trkpt lat="49.7244392" lon="15.0377097"><ele>359.6</ele><time>2026-04-06T11:07:49.883Z</time></trkpt><trkpt lat="49.7245398" lon="15.0376271"><ele>360.4</ele><time>2026-04-06T11:07:50.884Z</time></trkpt><trkpt lat="49.7246368" lon="15.0375491"><ele>361.20000000000005</ele><time>2026-04-06T11:07:51.883Z</time></trkpt><trkpt lat="49.724728" lon="15.0374788"><ele>362.0</ele><time>2026-04-06T11:07:52.884Z</time></trkpt><trkpt lat="49.7248114" lon="15.0374146"><ele>362.0</ele><time>2026-04-06T11:07:53.883Z</time></trkpt><trkpt lat="49.7248847" lon="15.0373573"><ele>362.0</ele><time>2026-04-06T11:07:54.884Z</time></trkpt><trkpt lat="49.724953" lon="15.0372991"><ele>362.0</ele><time>2026-04-06T11:07:55.883Z</time></trkpt><trkpt lat="49.7250126" lon="15.0372448"><ele>362.0</ele><time>2026-04-06T11:07:56.884Z</time></trkpt><trkpt lat="49.7250682" lon="15.0371922"><ele>362.0</ele><time>2026-04-06T11:07:57.884Z</time></trkpt><trkpt lat="49.7251206" lon="15.0371356"><ele>362.0</ele><time>2026-04-06T11:07:58.883Z</time></trkpt><trkpt lat="49.7251835" lon="15.0370154"><ele>362.0</ele><time>2026-04-06T11:08:00.884Z</time></trkpt><trkpt lat="49.7252158" lon="15.0368921"><ele>362.0</ele><time>2026-04-06T11:08:02.884Z</time></trkpt><trkpt lat="49.7252135" lon="15.0367921"><ele>362.0</ele><time>2026-04-06T11:08:04.883Z</time></trkpt><trkpt lat="49.7251988" lon="15.0366574"><ele>362.0</ele><time>2026-04-06T11:08:07.883Z</time></trkpt><trkpt lat="49.7251923" lon="15.0365431"><ele>362.0</ele><time>2026-04-06T11:08:09.883Z</time></trkpt><trkpt lat="49.7252161" lon="15.0363991"><ele>362.0</ele><time>2026-04-06T11:08:11.884Z</time></trkpt><trkpt lat="49.725256" lon="15.0362184"><ele>361.1666666666667</ele><time>2026-04-06T11:08:13.884Z</time></trkpt><trkpt lat="49.7252787" lon="15.0361186"><ele>360.33333333333337</ele><time>2026-04-06T11:08:14.884Z</time></trkpt><trkpt lat="49.7253003" lon="15.0360083"><ele>359.5</ele><time>2026-04-06T11:08:15.883Z</time></trkpt><trkpt lat="49.7253322" lon="15.0359048"><ele>358.6666666666667</ele><time>2026-04-06T11:08:16.883Z</time></trkpt><trkpt lat="49.7253737" lon="15.0357732"><ele>357.8333333333333</ele><time>2026-04-06T11:08:17.883Z</time></trkpt><trkpt lat="49.7254204" lon="15.0356115"><ele>357.0</ele><time>2026-04-06T11:08:18.883Z</time></trkpt><trkpt lat="49.7254609" lon="15.0354586"><ele>357.0</ele><time>2026-04-06T11:08:19.883Z</time></trkpt><trkpt lat="49.7254946" lon="15.0353273"><ele>357.0</ele><time>2026-04-06T11:08:20.884Z</time></trkpt><trkpt lat="49.7255228" lon="15.0352133"><ele>357.0</ele><time>2026-04-06T11:08:21.884Z</time></trkpt><trkpt lat="49.7255508" lon="15.0351114"><ele>357.0</ele><time>2026-04-06T11:08:22.883Z</time></trkpt><trkpt lat="49.7255796" lon="15.0350219"><ele>357.0</ele><time>2026-04-06T11:08:23.883Z</time></trkpt><trkpt lat="49.7256571" lon="15.0349081"><ele>357.0</ele><time>2026-04-06T11:08:25.883Z</time></trkpt><trkpt lat="49.7257285" lon="15.0348593"><ele>356.0</ele><time>2026-04-06T11:08:27.884Z</time></trkpt><trkpt lat="49.72581" lon="15.0348321"><ele>355.0</ele><time>2026-04-06T11:08:30.883Z</time></trkpt><trkpt lat="49.7259169" lon="15.0347714"><ele>354.0</ele><time>2026-04-06T11:08:38.883Z</time></trkpt><trkpt lat="49.7259869" lon="15.0347167"><ele>353.0</ele><time>2026-04-06T11:08:39.884Z</time></trkpt><trkpt lat="49.7260612" lon="15.034647"><ele>352.0</ele><time>2026-04-06T11:08:40.883Z</time></trkpt><trkpt lat="49.7261421" lon="15.0345771"><ele>351.8</ele><time>2026-04-06T11:08:41.883Z</time></trkpt><trkpt lat="49.7262329" lon="15.0345238"><ele>351.6</ele><time>2026-04-06T11:08:42.883Z</time></trkpt><trkpt lat="49.7263329" lon="15.0344916"><ele>351.40000000000003</ele><time>2026-04-06T11:08:43.883Z</time></trkpt><trkpt lat="49.7264357" lon="15.034472"><ele>351.20000000000005</ele><time>2026-04-06T11:08:44.884Z</time></trkpt><trkpt lat="49.7265413" lon="15.0344631"><ele>351.0</ele><time>2026-04-06T11:08:45.883Z</time></trkpt><trkpt lat="49.7266484" lon="15.0344692"><ele>351.0</ele><time>2026-04-06T11:08:46.883Z</time></trkpt><trkpt lat="49.7267417" lon="15.0344776"><ele>351.0</ele><time>2026-04-06T11:08:47.883Z</time></trkpt><trkpt lat="49.7268274" lon="15.0344845"><ele>351.0</ele><time>2026-04-06T11:08:48.883Z</time></trkpt><trkpt lat="49.7269128" lon="15.0345147"><ele>351.0</ele><time>2026-04-06T11:08:49.883Z</time></trkpt><trkpt lat="49.7269885" lon="15.0345158"><ele>351.0</ele><time>2026-04-06T11:08:50.884Z</time></trkpt><trkpt lat="49.7270527" lon="15.0345092"><ele>351.0</ele><time>2026-04-06T11:08:51.883Z</time></trkpt><trkpt lat="49.7271664" lon="15.0344999"><ele>351.0</ele><time>2026-04-06T11:08:53.884Z</time></trkpt><trkpt lat="49.7272724" lon="15.0344367"><ele>351.0</ele><time>2026-04-06T11:08:55.884Z</time></trkpt><trkpt lat="49.7273607" lon="15.0343666"><ele>351.0</ele><time>2026-04-06T11:08:57.883Z</time></trkpt><trkpt lat="49.7274287" lon="15.0342904"><ele>351.0</ele><time>2026-04-06T11:08:59.883Z</time></trkpt><trkpt lat="49.7275157" lon="15.0342136"><ele>351.0</ele><time>2026-04-06T11:09:01.884Z</time></trkpt><trkpt lat="49.7275708" lon="15.0341319"><ele>351.20000000000005</ele><time>2026-04-06T11:09:03.883Z</time></trkpt><trkpt lat="49.7276067" lon="15.0340245"><ele>351.40000000000003</ele><time>2026-04-06T11:09:05.883Z</time></trkpt><trkpt lat="49.7277059" lon="15.0339777"><ele>351.6</ele><time>2026-04-06T11:09:07.884Z</time></trkpt><trkpt lat="49.7278513" lon="15.0340192"><ele>351.8</ele><time>2026-04-06T11:09:09.883Z</time></trkpt><trkpt lat="49.727965" lon="15.034054"><ele>352.0</ele><time>2026-04-06T11:09:10.883Z</time></trkpt><trkpt lat="49.7280861" lon="15.0340827"><ele>352.0</ele><time>2026-04-06T11:09:11.884Z</time></trkpt><trkpt lat="49.7281921" lon="15.0341075"><ele>352.0</ele><time>2026-04-06T11:09:12.884Z</time></trkpt><trkpt lat="49.7282829" lon="15.0341191"><ele>352.0</ele><time>2026-04-06T11:09:13.884Z</time></trkpt><trkpt lat="49.7283653" lon="15.0341229"><ele>352.0</ele><time>2026-04-06T11:09:14.883Z</time></trkpt><trkpt lat="49.72844" lon="15.0341252"><ele>352.0</ele><time>2026-04-06T11:09:15.883Z</time></trkpt><trkpt lat="49.7285088" lon="15.034127"><ele>352.0</ele><time>2026-04-06T11:09:16.884Z</time></trkpt><trkpt lat="49.728604" lon="15.0341153"><ele>353.20000000000005</ele><time>2026-04-06T11:09:18.884Z</time></trkpt><trkpt lat="49.7286922" lon="15.0340881"><ele>354.4</ele><time>2026-04-06T11:09:20.884Z</time></trkpt><trkpt lat="49.7287802" lon="15.034026"><ele>355.6</ele><time>2026-04-06T11:09:22.883Z</time></trkpt><trkpt lat="49.7288433" lon="15.0339065"><ele>356.79999999999995</ele><time>2026-04-06T11:09:24.884Z</time></trkpt><trkpt lat="49.7288987" lon="15.0337692"><ele>358.0</ele><time>2026-04-06T11:09:26.883Z</time></trkpt><trkpt lat="49.7289219" lon="15.033674"><ele>358.0</ele><time>2026-04-06T11:09:27.884Z</time></trkpt><trkpt lat="49.7289402" lon="15.033567"><ele>358.0</ele><time>2026-04-06T11:09:28.883Z</time></trkpt><trkpt lat="49.7289676" lon="15.0334509"><ele>358.0</ele><time>2026-04-06T11:09:29.883Z</time></trkpt><trkpt lat="49.7289987" lon="15.033327"><ele>358.0</ele><time>2026-04-06T11:09:30.884Z</time></trkpt><trkpt lat="49.729036" lon="15.0331916"><ele>358.0</ele><time>2026-04-06T11:09:31.884Z</time></trkpt><trkpt lat="49.7290803" lon="15.0330495"><ele>358.0</ele><time>2026-04-06T11:09:32.883Z</time></trkpt><trkpt lat="49.7291245" lon="15.0329079"><ele>358.2</ele><time>2026-04-06T11:09:33.883Z</time></trkpt><trkpt lat="49.72917" lon="15.0327623"><ele>358.4</ele><time>2026-04-06T11:09:34.884Z</time></trkpt><trkpt lat="49.7292234" lon="15.0326127"><ele>358.59999999999997</ele><time>2026-04-06T11:09:35.884Z</time></trkpt><trkpt lat="49.7292865" lon="15.0324711"><ele>358.79999999999995</ele><time>2026-04-06T11:09:36.884Z</time></trkpt><trkpt lat="49.7293486" lon="15.0323209"><ele>359.0</ele><time>2026-04-06T11:09:37.884Z</time></trkpt><trkpt lat="49.7294079" lon="15.0321677"><ele>359.0</ele><time>2026-04-06T11:09:38.884Z</time></trkpt><trkpt lat="49.7294689" lon="15.0320167"><ele>359.0</ele><time>2026-04-06T11:09:39.883Z</time></trkpt><trkpt lat="49.7295247" lon="15.0318656"><ele>359.0</ele><time>2026-04-06T11:09:40.883Z</time></trkpt><trkpt lat="49.7295964" lon="15.031737"><ele>359.0</ele><time>2026-04-06T11:09:41.884Z</time></trkpt><trkpt lat="49.729673" lon="15.0316167"><ele>359.0</ele><time>2026-04-06T11:09:42.883Z</time></trkpt><trkpt lat="49.7297548" lon="15.0315055"><ele>358.2</ele><time>2026-04-06T11:09:43.883Z</time></trkpt><trkpt lat="49.7298399" lon="15.0314133"><ele>357.4</ele><time>2026-04-06T11:09:44.883Z</time></trkpt><trkpt lat="49.7299296" lon="15.0313399"><ele>356.6</ele><time>2026-04-06T11:09:45.883Z</time></trkpt><trkpt lat="49.7300212" lon="15.0312895"><ele>355.8</ele><time>2026-04-06T11:09:46.883Z</time></trkpt><trkpt lat="49.7301188" lon="15.0312579"><ele>355.0</ele><time>2026-04-06T11:09:47.883Z</time></trkpt><trkpt lat="49.7302181" lon="15.0312288"><ele>354.2</ele><time>2026-04-06T11:09:48.884Z</time></trkpt><trkpt lat="49.7303213" lon="15.0312146"><ele>353.4</ele><time>2026-04-06T11:09:49.884Z</time></trkpt><trkpt lat="49.7304279" lon="15.0312034"><ele>352.6</ele><time>2026-04-06T11:09:50.883Z</time></trkpt><trkpt lat="49.7305374" lon="15.0311954"><ele>351.8</ele><time>2026-04-06T11:09:51.883Z</time></trkpt><trkpt lat="49.730641" lon="15.0311926"><ele>351.0</ele><time>2026-04-06T11:09:52.883Z</time></trkpt><trkpt lat="49.7307402" lon="15.0311815"><ele>351.0</ele><time>2026-04-06T11:09:53.884Z</time></trkpt><trkpt lat="49.7308459" lon="15.0311732"><ele>351.0</ele><time>2026-04-06T11:09:54.883Z</time></trkpt><trkpt lat="49.730957" lon="15.0311391"><ele>351.0</ele><time>2026-04-06T11:09:55.883Z</time></trkpt><trkpt lat="49.7310752" lon="15.0311026"><ele>351.0</ele><time>2026-04-06T11:09:56.884Z</time></trkpt><trkpt lat="49.7311923" lon="15.0310576"><ele>351.25</ele><time>2026-04-06T11:09:57.884Z</time></trkpt><trkpt lat="49.7313078" lon="15.0309963"><ele>351.5</ele><time>2026-04-06T11:09:58.883Z</time></trkpt><trkpt lat="49.7314168" lon="15.0309163"><ele>351.75</ele><time>2026-04-06T11:09:59.883Z</time></trkpt><trkpt lat="49.7315203" lon="15.0308331"><ele>352.0</ele><time>2026-04-06T11:10:00.884Z</time></trkpt><trkpt lat="49.7316073" lon="15.0307462"><ele>352.8</ele><time>2026-04-06T11:10:01.884Z</time></trkpt><trkpt lat="49.7316896" lon="15.0306545"><ele>353.6</ele><time>2026-04-06T11:10:02.883Z</time></trkpt><trkpt lat="49.731764" lon="15.0305603"><ele>354.40000000000003</ele><time>2026-04-06T11:10:03.883Z</time></trkpt><trkpt lat="49.7318367" lon="15.0304701"><ele>355.20000000000005</ele><time>2026-04-06T11:10:04.884Z</time></trkpt><trkpt lat="49.7319024" lon="15.0303766"><ele>356.0</ele><time>2026-04-06T11:10:05.884Z</time></trkpt><trkpt lat="49.7319648" lon="15.030289"><ele>358.6</ele><time>2026-04-06T11:10:06.884Z</time></trkpt><trkpt lat="49.7320219" lon="15.0302092"><ele>361.20000000000005</ele><time>2026-04-06T11:10:07.884Z</time></trkpt><trkpt lat="49.732073" lon="15.0301334"><ele>363.79999999999995</ele><time>2026-04-06T11:10:08.883Z</time></trkpt><trkpt lat="49.7321465" lon="15.0299833"><ele>366.4</ele><time>2026-04-06T11:10:10.883Z</time></trkpt><trkpt lat="49.7321958" lon="15.0298212"><ele>369.0</ele><time>2026-04-06T11:10:12.884Z</time></trkpt><trkpt lat="49.7321831" lon="15.0296697"><ele>369.0</ele><time>2026-04-06T11:10:14.884Z</time></trkpt><trkpt lat="49.7321454" lon="15.0295316"><ele>369.0</ele><time>2026-04-06T11:10:16.883Z</time></trkpt><trkpt lat="49.7321018" lon="15.0293991"><ele>369.0</ele><time>2026-04-06T11:10:18.884Z</time></trkpt><trkpt lat="49.7320668" lon="15.029239"><ele>369.0</ele><time>2026-04-06T11:10:20.884Z</time></trkpt><trkpt lat="49.7320437" lon="15.0290747"><ele>369.0</ele><time>2026-04-06T11:10:22.884Z</time></trkpt><trkpt lat="49.7320493" lon="15.0289053"><ele>368.2</ele><time>2026-04-06T11:10:24.884Z</time></trkpt><trkpt lat="49.7320575" lon="15.0287199"><ele>367.4</ele><time>2026-04-06T11:10:26.884Z</time></trkpt><trkpt lat="49.7320529" lon="15.0285524"><ele>366.6</ele><time>2026-04-06T11:10:28.884Z</time></trkpt><trkpt lat="49.7320717" lon="15.0284185"><ele>365.8</ele><time>2026-04-06T11:10:30.884Z</time></trkpt><trkpt lat="49.7321253" lon="15.0283127"><ele>365.0</ele><time>2026-04-06T11:10:32.883Z</time></trkpt><trkpt lat="49.7322427" lon="15.0282444"><ele>363.5</ele><time>2026-04-06T11:10:34.884Z</time></trkpt><trkpt lat="49.732314" lon="15.0282243"><ele>362.0</ele><time>2026-04-06T11:10:35.884Z</time></trkpt><trkpt lat="49.73239" lon="15.0282245"><ele>360.5</ele><time>2026-04-06T11:10:36.883Z</time></trkpt><trkpt lat="49.7324671" lon="15.0282207"><ele>359.0</ele><time>2026-04-06T11:10:37.884Z</time></trkpt><trkpt lat="49.7325492" lon="15.0282197"><ele>357.5</ele><time>2026-04-06T11:10:38.883Z</time></trkpt><trkpt lat="49.7326319" lon="15.0282113"><ele>356.0</ele><time>2026-04-06T11:10:39.883Z</time></trkpt><trkpt lat="49.7327101" lon="15.0282072"><ele>356.0</ele><time>2026-04-06T11:10:40.884Z</time></trkpt><trkpt lat="49.7327783" lon="15.028214"><ele>356.0</ele><time>2026-04-06T11:10:41.883Z</time></trkpt><trkpt lat="49.7328767" lon="15.0282982"><ele>356.0</ele><time>2026-04-06T11:10:43.884Z</time></trkpt><trkpt lat="49.7329239" lon="15.0284705"><ele>356.0</ele><time>2026-04-06T11:10:45.883Z</time></trkpt><trkpt lat="49.7329214" lon="15.0285809"><ele>356.0</ele><time>2026-04-06T11:10:46.883Z</time></trkpt><trkpt lat="49.7329176" lon="15.028703"><ele>358.5</ele><time>2026-04-06T11:10:47.884Z</time></trkpt><trkpt lat="49.7329122" lon="15.0288048"><ele>361.0</ele><time>2026-04-06T11:10:48.884Z</time></trkpt><trkpt lat="49.732942" lon="15.0289162"><ele>363.5</ele><time>2026-04-06T11:10:49.884Z</time></trkpt><trkpt lat="49.7329819" lon="15.0290353"><ele>366.0</ele><time>2026-04-06T11:10:50.884Z</time></trkpt><trkpt lat="49.7330355" lon="15.0291589"><ele>368.5</ele><time>2026-04-06T11:10:51.884Z</time></trkpt><trkpt lat="49.7330824" lon="15.0292721"><ele>371.0</ele><time>2026-04-06T11:10:52.884Z</time></trkpt><trkpt lat="49.7331227" lon="15.0293754"><ele>372.4</ele><time>2026-04-06T11:10:53.883Z</time></trkpt><trkpt lat="49.7331132" lon="15.0295627"><ele>373.8</ele><time>2026-04-06T11:10:55.883Z</time></trkpt><trkpt lat="49.733073" lon="15.0296686"><ele>375.2</ele><time>2026-04-06T11:10:56.883Z</time></trkpt><trkpt lat="49.7330182" lon="15.0297955"><ele>376.59999999999997</ele><time>2026-04-06T11:10:57.883Z</time></trkpt><trkpt lat="49.732956" lon="15.0299403"><ele>378.0</ele><time>2026-04-06T11:10:58.883Z</time></trkpt><trkpt lat="49.7329008" lon="15.0301082"><ele>378.4</ele><time>2026-04-06T11:10:59.883Z</time></trkpt><trkpt lat="49.7328598" lon="15.0302912"><ele>378.79999999999995</ele><time>2026-04-06T11:11:00.883Z</time></trkpt><trkpt lat="49.7328346" lon="15.0304485"><ele>379.2</ele><time>2026-04-06T11:11:01.884Z</time></trkpt><trkpt lat="49.7328052" lon="15.0305938"><ele>379.6</ele><time>2026-04-06T11:11:02.883Z</time></trkpt><trkpt lat="49.7327635" lon="15.0307531"><ele>380.0</ele><time>2026-04-06T11:11:03.883Z</time></trkpt><trkpt lat="49.7327272" lon="15.0309601"><ele>379.25</ele><time>2026-04-06T11:11:04.883Z</time></trkpt><trkpt lat="49.7326928" lon="15.0311843"><ele>378.5</ele><time>2026-04-06T11:11:05.884Z</time></trkpt><trkpt lat="49.7326553" lon="15.0313913"><ele>377.75</ele><time>2026-04-06T11:11:06.884Z</time></trkpt><trkpt lat="49.7326193" lon="15.0315825"><ele>377.0</ele><time>2026-04-06T11:11:07.883Z</time></trkpt><trkpt lat="49.7325967" lon="15.0317616"><ele>379.0</ele><time>2026-04-06T11:11:08.884Z</time></trkpt><trkpt lat="49.7325966" lon="15.03194"><ele>381.0</ele><time>2026-04-06T11:11:09.884Z</time></trkpt><trkpt lat="49.7326052" lon="15.0321058"><ele>383.0</ele><time>2026-04-06T11:11:10.884Z</time></trkpt><trkpt lat="49.7325885" lon="15.0322405"><ele>385.0</ele><time>2026-04-06T11:11:11.884Z</time></trkpt><trkpt lat="49.7325425" lon="15.0323595"><ele>387.0</ele><time>2026-04-06T11:11:12.883Z</time></trkpt><trkpt lat="49.7324905" lon="15.0324822"><ele>388.0</ele><time>2026-04-06T11:11:13.884Z</time></trkpt><trkpt lat="49.7324482" lon="15.0326398"><ele>389.0</ele><time>2026-04-06T11:11:14.883Z</time></trkpt><trkpt lat="49.7324154" lon="15.032804"><ele>390.0</ele><time>2026-04-06T11:11:15.884Z</time></trkpt><trkpt lat="49.7323786" lon="15.0329928"><ele>391.0</ele><time>2026-04-06T11:11:16.884Z</time></trkpt><trkpt lat="49.7323414" lon="15.0331654"><ele>391.6</ele><time>2026-04-06T11:11:17.883Z</time></trkpt><trkpt lat="49.7322966" lon="15.0333135"><ele>392.20000000000005</ele><time>2026-04-06T11:11:18.883Z</time></trkpt><trkpt lat="49.73223" lon="15.0334683"><ele>392.79999999999995</ele><time>2026-04-06T11:11:19.884Z</time></trkpt><trkpt lat="49.7321563" lon="15.0336082"><ele>393.4</ele><time>2026-04-06T11:11:20.884Z</time></trkpt><trkpt lat="49.732093" lon="15.0337179"><ele>394.0</ele><time>2026-04-06T11:11:21.884Z</time></trkpt><trkpt lat="49.7320387" lon="15.0338151"><ele>394.0</ele><time>2026-04-06T11:11:22.883Z</time></trkpt><trkpt lat="49.7319861" lon="15.0339145"><ele>394.0</ele><time>2026-04-06T11:11:23.884Z</time></trkpt><trkpt lat="49.7319243" lon="15.0340145"><ele>394.0</ele><time>2026-04-06T11:11:24.883Z</time></trkpt><trkpt lat="49.7318434" lon="15.0341009"><ele>394.0</ele><time>2026-04-06T11:11:25.884Z</time></trkpt><trkpt lat="49.731751" lon="15.0341836"><ele>394.0</ele><time>2026-04-06T11:11:26.884Z</time></trkpt><trkpt lat="49.7316561" lon="15.0342692"><ele>394.2</ele><time>2026-04-06T11:11:27.884Z</time></trkpt><trkpt lat="49.7315593" lon="15.0343592"><ele>394.4</ele><time>2026-04-06T11:11:28.883Z</time></trkpt><trkpt lat="49.7314811" lon="15.0344556"><ele>394.6</ele><time>2026-04-06T11:11:29.883Z</time></trkpt><trkpt lat="49.7314159" lon="15.0345667"><ele>394.8</ele><time>2026-04-06T11:11:30.884Z</time></trkpt><trkpt lat="49.7313554" lon="15.0346881"><ele>395.0</ele><time>2026-04-06T11:11:31.883Z</time></trkpt><trkpt lat="49.731307" lon="15.0348456"><ele>393.75</ele><time>2026-04-06T11:11:32.883Z</time></trkpt><trkpt lat="49.7312721" lon="15.0350371"><ele>392.5</ele><time>2026-04-06T11:11:33.884Z</time></trkpt><trkpt lat="49.7312606" lon="15.0352399"><ele>391.25</ele><time>2026-04-06T11:11:34.884Z</time></trkpt><trkpt lat="49.7312664" lon="15.03546"><ele>390.0</ele><time>2026-04-06T11:11:35.883Z</time></trkpt><trkpt lat="49.7312879" lon="15.0357004"><ele>390.33333333333337</ele><time>2026-04-06T11:11:36.89Z</time></trkpt><trkpt lat="49.7313164" lon="15.035956"><ele>390.6666666666667</ele><time>2026-04-06T11:11:37.89Z</time></trkpt><trkpt lat="49.7313426" lon="15.036215"><ele>391.0</ele><time>2026-04-06T11:11:38.89Z</time></trkpt><trkpt lat="49.731373" lon="15.0364827"><ele>391.33333333333337</ele><time>2026-04-06T11:11:39.89Z</time></trkpt><trkpt lat="49.7314046" lon="15.0367596"><ele>391.66666666666663</ele><time>2026-04-06T11:11:40.89Z</time></trkpt><trkpt lat="49.7314362" lon="15.0370554"><ele>392.0</ele><time>2026-04-06T11:11:41.89Z</time></trkpt><trkpt lat="49.7314778" lon="15.0373961"><ele>393.0</ele><time>2026-04-06T11:11:42.891Z</time></trkpt><trkpt lat="49.7315175" lon="15.0377755"><ele>394.0</ele><time>2026-04-06T11:11:43.891Z</time></trkpt><trkpt lat="49.7315612" lon="15.038157"><ele>394.33333333333337</ele><time>2026-04-06T11:11:44.89Z</time></trkpt><trkpt lat="49.7316024" lon="15.0385013"><ele>394.66666666666663</ele><time>2026-04-06T11:11:45.89Z</time></trkpt><trkpt lat="49.7316377" lon="15.038822"><ele>395.0</ele><time>2026-04-06T11:11:46.891Z</time></trkpt><trkpt lat="49.7316712" lon="15.0391337"><ele>395.66666666666663</ele><time>2026-04-06T11:11:47.891Z</time></trkpt><trkpt lat="49.7317034" lon="15.0394351"><ele>396.33333333333337</ele><time>2026-04-06T11:11:48.891Z</time></trkpt><trkpt lat="49.731735" lon="15.0397225"><ele>397.0</ele><time>2026-04-06T11:11:49.89Z</time></trkpt><trkpt lat="49.7317638" lon="15.0399973"><ele>397.0</ele><time>2026-04-06T11:11:50.891Z</time></trkpt><trkpt lat="49.7317862" lon="15.0402409"><ele>397.0</ele><time>2026-04-06T11:11:51.89Z</time></trkpt><trkpt lat="49.7318069" lon="15.040482"><ele>397.0</ele><time>2026-04-06T11:11:52.891Z</time></trkpt><trkpt lat="49.7318272" lon="15.0407176"><ele>396.75</ele><time>2026-04-06T11:11:53.89Z</time></trkpt><trkpt lat="49.7318487" lon="15.0409287"><ele>396.5</ele><time>2026-04-06T11:11:54.891Z</time></trkpt><trkpt lat="49.7318728" lon="15.0411229"><ele>396.25</ele><time>2026-04-06T11:11:55.891Z</time></trkpt><trkpt lat="49.7319032" lon="15.0413356"><ele>396.0</ele><time>2026-04-06T11:11:56.89Z</time></trkpt><trkpt lat="49.7319333" lon="15.0415462"><ele>395.75</ele><time>2026-04-06T11:11:57.89Z</time></trkpt><trkpt lat="49.7319617" lon="15.0417516"><ele>395.5</ele><time>2026-04-06T11:11:58.89Z</time></trkpt><trkpt lat="49.7319735" lon="15.0419494"><ele>395.25</ele><time>2026-04-06T11:11:59.89Z</time></trkpt><trkpt lat="49.7319755" lon="15.0421535"><ele>395.0</ele><time>2026-04-06T11:12:00.891Z</time></trkpt><trkpt lat="49.7319665" lon="15.0423541"><ele>394.25</ele><time>2026-04-06T11:12:01.89Z</time></trkpt><trkpt lat="49.7319477" lon="15.0425467"><ele>393.5</ele><time>2026-04-06T11:12:02.891Z</time></trkpt><trkpt lat="49.7319236" lon="15.0427383"><ele>392.75</ele><time>2026-04-06T11:12:03.89Z</time></trkpt><trkpt lat="49.7318798" lon="15.0429319"><ele>392.0</ele><time>2026-04-06T11:12:04.89Z</time></trkpt><trkpt lat="49.731821" lon="15.0431169"><ele>392.0</ele><time>2026-04-06T11:12:05.89Z</time></trkpt><trkpt lat="49.7317404" lon="15.0432894"><ele>392.0</ele><time>2026-04-06T11:12:06.89Z</time></trkpt><trkpt lat="49.731633" lon="15.0434409"><ele>392.0</ele><time>2026-04-06T11:12:07.891Z</time></trkpt><trkpt lat="49.7315011" lon="15.0435869"><ele>392.0</ele><time>2026-04-06T11:12:08.891Z</time></trkpt><trkpt lat="49.7313464" lon="15.0437358"><ele>391.66666666666663</ele><time>2026-04-06T11:12:09.891Z</time></trkpt><trkpt lat="49.7311809" lon="15.0438685"><ele>391.33333333333337</ele><time>2026-04-06T11:12:10.89Z</time></trkpt><trkpt lat="49.7310084" lon="15.0439858"><ele>391.0</ele><time>2026-04-06T11:12:11.891Z</time></trkpt><trkpt lat="49.7308175" lon="15.0441177"><ele>391.0</ele><time>2026-04-06T11:12:12.89Z</time></trkpt><trkpt lat="49.7305851" lon="15.0442614"><ele>391.0</ele><time>2026-04-06T11:12:13.89Z</time></trkpt><trkpt lat="49.730326" lon="15.0444167"><ele>392.5</ele><time>2026-04-06T11:12:14.89Z</time></trkpt><trkpt lat="49.7300632" lon="15.0445574"><ele>394.0</ele><time>2026-04-06T11:12:15.891Z</time></trkpt><trkpt lat="49.72983" lon="15.0446845"><ele>394.0</ele><time>2026-04-06T11:12:16.891Z</time></trkpt><trkpt lat="49.729617" lon="15.0447962"><ele>394.0</ele><time>2026-04-06T11:12:17.89Z</time></trkpt><trkpt lat="49.7294192" lon="15.0449046"><ele>394.0</ele><time>2026-04-06T11:12:18.89Z</time></trkpt><trkpt lat="49.7292374" lon="15.0450171"><ele>394.0</ele><time>2026-04-06T11:12:19.891Z</time></trkpt><trkpt lat="49.7290706" lon="15.0451183"><ele>394.0</ele><time>2026-04-06T11:12:20.89Z</time></trkpt><trkpt lat="49.72891" lon="15.0452056"><ele>394.0</ele><time>2026-04-06T11:12:21.89Z</time></trkpt><trkpt lat="49.7287559" lon="15.0452826"><ele>394.0</ele><time>2026-04-06T11:12:22.891Z</time></trkpt><trkpt lat="49.7286145" lon="15.0453521"><ele>394.0</ele><time>2026-04-06T11:12:23.891Z</time></trkpt><trkpt lat="49.7284848" lon="15.045418"><ele>394.0</ele><time>2026-04-06T11:12:24.891Z</time></trkpt><trkpt lat="49.7283648" lon="15.0454829"><ele>394.0</ele><time>2026-04-06T11:12:25.89Z</time></trkpt><trkpt lat="49.7282501" lon="15.0455657"><ele>394.0</ele><time>2026-04-06T11:12:26.89Z</time></trkpt><trkpt lat="49.7281356" lon="15.0456521"><ele>394.0</ele><time>2026-04-06T11:12:27.891Z</time></trkpt><trkpt lat="49.7280202" lon="15.0457308"><ele>394.0</ele><time>2026-04-06T11:12:28.89Z</time></trkpt><trkpt lat="49.7279005" lon="15.0457943"><ele>394.0</ele><time>2026-04-06T11:12:29.89Z</time></trkpt><trkpt lat="49.7277616" lon="15.0458571"><ele>394.6666666666667</ele><time>2026-04-06T11:12:30.89Z</time></trkpt><trkpt lat="49.7276071" lon="15.0459481"><ele>395.33333333333337</ele><time>2026-04-06T11:12:31.891Z</time></trkpt><trkpt lat="49.72745" lon="15.0460645"><ele>396.0</ele><time>2026-04-06T11:12:32.891Z</time></trkpt><trkpt lat="49.7272878" lon="15.0461753"><ele>396.0</ele><time>2026-04-06T11:12:33.89Z</time></trkpt><trkpt lat="49.7271457" lon="15.0462645"><ele>396.0</ele><time>2026-04-06T11:12:34.89Z</time></trkpt><trkpt lat="49.7270426" lon="15.0463214"><ele>396.0</ele><time>2026-04-06T11:12:35.891Z</time></trkpt><trkpt lat="49.7269649" lon="15.0463299"><ele>396.0</ele><time>2026-04-06T11:12:37.89Z</time></trkpt><trkpt lat="49.7269396" lon="15.046228"><ele>396.0</ele><time>2026-04-06T11:12:39.891Z</time></trkpt><trkpt lat="49.7269539" lon="15.0461066"><ele>396.0</ele><time>2026-04-06T11:12:41.89Z</time></trkpt><trkpt lat="49.7269554" lon="15.0459189"><ele>396.0</ele><time>2026-04-06T11:12:43.891Z</time></trkpt><trkpt lat="49.7269527" lon="15.0457894"><ele>396.0</ele><time>2026-04-06T11:12:44.89Z</time></trkpt><trkpt lat="49.7269465" lon="15.0456578"><ele>396.0</ele><time>2026-04-06T11:12:45.89Z</time></trkpt><trkpt lat="49.7269416" lon="15.0455304"><ele>396.0</ele><time>2026-04-06T11:12:46.89Z</time></trkpt><trkpt lat="49.7269378" lon="15.0454044"><ele>396.4</ele><time>2026-04-06T11:12:47.89Z</time></trkpt><trkpt lat="49.7269302" lon="15.0452632"><ele>396.8</ele><time>2026-04-06T11:12:48.891Z</time></trkpt><trkpt lat="49.7269193" lon="15.0451098"><ele>397.2</ele><time>2026-04-06T11:12:49.891Z</time></trkpt><trkpt lat="49.726909" lon="15.044953"><ele>397.59999999999997</ele><time>2026-04-06T11:12:50.891Z</time></trkpt><trkpt lat="49.7268961" lon="15.0447858"><ele>398.0</ele><time>2026-04-06T11:12:51.89Z</time></trkpt><trkpt lat="49.7268845" lon="15.0446185"><ele>398.75</ele><time>2026-04-06T11:12:52.89Z</time></trkpt><trkpt lat="49.7268752" lon="15.0444517"><ele>399.5</ele><time>2026-04-06T11:12:53.89Z</time></trkpt><trkpt lat="49.7268608" lon="15.0442831"><ele>400.25</ele><time>2026-04-06T11:12:54.89Z</time></trkpt><trkpt lat="49.7268414" lon="15.0441057"><ele>401.0</ele><time>2026-04-06T11:12:55.891Z</time></trkpt><trkpt lat="49.7268253" lon="15.0439218"><ele>401.0</ele><time>2026-04-06T11:12:56.89Z</time></trkpt><trkpt lat="49.7268145" lon="15.0437392"><ele>401.0</ele><time>2026-04-06T11:12:57.89Z</time></trkpt><trkpt lat="49.7268078" lon="15.0435591"><ele>401.0</ele><time>2026-04-06T11:12:58.89Z</time></trkpt><trkpt lat="49.726795" lon="15.0433963"><ele>401.0</ele><time>2026-04-06T11:12:59.891Z</time></trkpt><trkpt lat="49.7267835" lon="15.0432246"><ele>401.0</ele><time>2026-04-06T11:13:00.891Z</time></trkpt><trkpt lat="49.7267617" lon="15.0430363"><ele>401.0</ele><time>2026-04-06T11:13:01.89Z</time></trkpt><trkpt lat="49.7267337" lon="15.0428264"><ele>401.0</ele><time>2026-04-06T11:13:02.89Z</time></trkpt><trkpt lat="49.7267039" lon="15.0426197"><ele>401.0</ele><time>2026-04-06T11:13:03.891Z</time></trkpt><trkpt lat="49.7266666" lon="15.042428"><ele>400.75</ele><time>2026-04-06T11:13:04.89Z</time></trkpt><trkpt lat="49.7266337" lon="15.0422358"><ele>400.5</ele><time>2026-04-06T11:13:05.891Z</time></trkpt><trkpt lat="49.7266039" lon="15.0420491"><ele>400.25</ele><time>2026-04-06T11:13:06.891Z</time></trkpt><trkpt lat="49.7265615" lon="15.0418597"><ele>400.0</ele><time>2026-04-06T11:13:07.89Z</time></trkpt><trkpt lat="49.7265146" lon="15.0416655"><ele>399.5</ele><time>2026-04-06T11:13:08.891Z</time></trkpt><trkpt lat="49.7264699" lon="15.0414795"><ele>399.0</ele><time>2026-04-06T11:13:09.89Z</time></trkpt><trkpt lat="49.7264304" lon="15.0412922"><ele>398.5</ele><time>2026-04-06T11:13:10.891Z</time></trkpt><trkpt lat="49.7264008" lon="15.0410954"><ele>398.0</ele><time>2026-04-06T11:13:11.891Z</time></trkpt><trkpt lat="49.7263762" lon="15.0408945"><ele>397.25</ele><time>2026-04-06T11:13:12.891Z</time></trkpt><trkpt lat="49.7263603" lon="15.0406787"><ele>396.5</ele><time>2026-04-06T11:13:13.891Z</time></trkpt><trkpt lat="49.7263558" lon="15.0404711"><ele>395.75</ele><time>2026-04-06T11:13:14.891Z</time></trkpt><trkpt lat="49.7263564" lon="15.0402732"><ele>395.0</ele><time>2026-04-06T11:13:15.89Z</time></trkpt><trkpt lat="49.7263688" lon="15.0400897"><ele>393.75</ele><time>2026-04-06T11:13:16.891Z</time></trkpt><trkpt lat="49.7263781" lon="15.0399089"><ele>392.5</ele><time>2026-04-06T11:13:17.89Z</time></trkpt><trkpt lat="49.7263924" lon="15.0397235"><ele>391.25</ele><time>2026-04-06T11:13:18.89Z</time></trkpt><trkpt lat="49.7264193" lon="15.0395404"><ele>390.0</ele><time>2026-04-06T11:13:19.891Z</time></trkpt><trkpt lat="49.7264619" lon="15.0393685"><ele>390.0</ele><time>2026-04-06T11:13:20.891Z</time></trkpt><trkpt lat="49.726511" lon="15.0392019"><ele>390.0</ele><time>2026-04-06T11:13:21.89Z</time></trkpt><trkpt lat="49.7265639" lon="15.0390349"><ele>390.0</ele><time>2026-04-06T11:13:22.89Z</time></trkpt><trkpt lat="49.7266138" lon="15.0388683"><ele>390.0</ele><time>2026-04-06T11:13:23.891Z</time></trkpt><trkpt lat="49.7266592" lon="15.0387141"><ele>389.5</ele><time>2026-04-06T11:13:24.89Z</time></trkpt><trkpt lat="49.7267019" lon="15.0385827"><ele>389.0</ele><time>2026-04-06T11:13:25.891Z</time></trkpt><trkpt lat="49.7267308" lon="15.0384808"><ele>388.5</ele><time>2026-04-06T11:13:26.89Z</time></trkpt><trkpt lat="49.7267551" lon="15.0383643"><ele>388.0</ele><time>2026-04-06T11:13:28.891Z</time></trkpt><trkpt lat="49.7268186" lon="15.0383803"><ele>387.5</ele><time>2026-04-06T11:13:40.891Z</time></trkpt><trkpt lat="49.7267851" lon="15.0384979"><ele>387.0</ele><time>2026-04-06T11:13:42.891Z</time></trkpt><trkpt lat="49.7267384" lon="15.0386019"><ele>387.0</ele><time>2026-04-06T11:13:43.89Z</time></trkpt><trkpt lat="49.7266778" lon="15.0387324"><ele>387.0</ele><time>2026-04-06T11:13:44.89Z</time></trkpt><trkpt lat="49.7266201" lon="15.0388751"><ele>387.0</ele><time>2026-04-06T11:13:45.891Z</time></trkpt><trkpt lat="49.7265648" lon="15.039022"><ele>387.0</ele><time>2026-04-06T11:13:46.89Z</time></trkpt><trkpt lat="49.7265185" lon="15.0391749"><ele>387.0</ele><time>2026-04-06T11:13:47.89Z</time></trkpt><trkpt lat="49.7264796" lon="15.0393227"><ele>387.75</ele><time>2026-04-06T11:13:48.89Z</time></trkpt><trkpt lat="49.7264421" lon="15.0394834"><ele>388.5</ele><time>2026-04-06T11:13:49.891Z</time></trkpt><trkpt lat="49.7264099" lon="15.0396592"><ele>389.25</ele><time>2026-04-06T11:13:50.891Z</time></trkpt><trkpt lat="49.7263901" lon="15.0398469"><ele>390.0</ele><time>2026-04-06T11:13:51.891Z</time></trkpt><trkpt lat="49.7263801" lon="15.040053"><ele>391.25</ele><time>2026-04-06T11:13:52.891Z</time></trkpt><trkpt lat="49.7263726" lon="15.0402652"><ele>392.5</ele><time>2026-04-06T11:13:53.89Z</time></trkpt><trkpt lat="49.7263678" lon="15.0404653"><ele>393.75</ele><time>2026-04-06T11:13:54.891Z</time></trkpt><trkpt lat="49.7263734" lon="15.0406671"><ele>395.0</ele><time>2026-04-06T11:13:55.89Z</time></trkpt><trkpt lat="49.7263836" lon="15.0408739"><ele>395.75</ele><time>2026-04-06T11:13:56.89Z</time></trkpt><trkpt lat="49.7264093" lon="15.0410771"><ele>396.5</ele><time>2026-04-06T11:13:57.89Z</time></trkpt><trkpt lat="49.72644" lon="15.0412892"><ele>397.25</ele><time>2026-04-06T11:13:58.89Z</time></trkpt><trkpt lat="49.7264718" lon="15.0414968"><ele>398.0</ele><time>2026-04-06T11:13:59.89Z</time></trkpt><trkpt lat="49.7265187" lon="15.0417085"><ele>398.5</ele><time>2026-04-06T11:14:00.891Z</time></trkpt><trkpt lat="49.7265604" lon="15.0419181"><ele>399.0</ele><time>2026-04-06T11:14:01.891Z</time></trkpt><trkpt lat="49.7265938" lon="15.042118"><ele>399.5</ele><time>2026-04-06T11:14:02.89Z</time></trkpt><trkpt lat="49.7266281" lon="15.0423073"><ele>400.0</ele><time>2026-04-06T11:14:03.891Z</time></trkpt><trkpt lat="49.7266655" lon="15.0425021"><ele>400.25</ele><time>2026-04-06T11:14:04.89Z</time></trkpt><trkpt lat="49.7267107" lon="15.0427078"><ele>400.5</ele><time>2026-04-06T11:14:05.891Z</time></trkpt><trkpt lat="49.7267442" lon="15.0429049"><ele>400.75</ele><time>2026-04-06T11:14:06.89Z</time></trkpt><trkpt lat="49.7267573" lon="15.0430949"><ele>401.0</ele><time>2026-04-06T11:14:07.891Z</time></trkpt><trkpt lat="49.7267787" lon="15.0433069"><ele>401.0</ele><time>2026-04-06T11:14:08.891Z</time></trkpt><trkpt lat="49.7267987" lon="15.0435233"><ele>401.0</ele><time>2026-04-06T11:14:09.891Z</time></trkpt><trkpt lat="49.7268146" lon="15.0437363"><ele>401.0</ele><time>2026-04-06T11:14:10.89Z</time></trkpt><trkpt lat="49.7268287" lon="15.0439547"><ele>401.0</ele><time>2026-04-06T11:14:11.89Z</time></trkpt><trkpt lat="49.7268476" lon="15.0441743"><ele>401.25</ele><time>2026-04-06T11:14:12.89Z</time></trkpt><trkpt lat="49.7268672" lon="15.0444006"><ele>401.5</ele><time>2026-04-06T11:14:13.891Z</time></trkpt><trkpt lat="49.726885" lon="15.044608"><ele>401.75</ele><time>2026-04-06T11:14:14.89Z</time></trkpt><trkpt lat="49.7268949" lon="15.0448149"><ele>402.0</ele><time>2026-04-06T11:14:15.89Z</time></trkpt><trkpt lat="49.7269059" lon="15.0450463"><ele>401.0</ele><time>2026-04-06T11:14:16.891Z</time></trkpt><trkpt lat="49.726916" lon="15.0452813"><ele>400.0</ele><time>2026-04-06T11:14:17.89Z</time></trkpt><trkpt lat="49.7269247" lon="15.0454938"><ele>399.0</ele><time>2026-04-06T11:14:18.891Z</time></trkpt><trkpt lat="49.7269332" lon="15.0456859"><ele>398.0</ele><time>2026-04-06T11:14:19.89Z</time></trkpt><trkpt lat="49.7269365" lon="15.0458629"><ele>397.66666666666663</ele><time>2026-04-06T11:14:20.89Z</time></trkpt><trkpt lat="49.7269465" lon="15.0459982"><ele>397.3333333333333</ele><time>2026-04-06T11:14:21.89Z</time></trkpt><trkpt lat="49.7269469" lon="15.0461155"><ele>397.0</ele><time>2026-04-06T11:14:22.89Z</time></trkpt><trkpt lat="49.7269435" lon="15.0462194"><ele>396.66666666666663</ele><time>2026-04-06T11:14:23.89Z</time></trkpt><trkpt lat="49.7269238" lon="15.0463773"><ele>396.3333333333333</ele><time>2026-04-06T11:14:25.89Z</time></trkpt><trkpt lat="49.7268482" lon="15.0464689"><ele>396.0</ele><time>2026-04-06T11:14:27.89Z</time></trkpt><trkpt lat="49.7267165" lon="15.0465193"><ele>397.25</ele><time>2026-04-06T11:14:29.891Z</time></trkpt><trkpt lat="49.7266166" lon="15.0465603"><ele>398.5</ele><time>2026-04-06T11:14:30.891Z</time></trkpt><trkpt lat="49.7265088" lon="15.046618"><ele>399.75</ele><time>2026-04-06T11:14:31.891Z</time></trkpt><trkpt lat="49.7264013" lon="15.0466873"><ele>401.0</ele><time>2026-04-06T11:14:32.89Z</time></trkpt><trkpt lat="49.7262896" lon="15.0467617"><ele>401.0</ele><time>2026-04-06T11:14:33.89Z</time></trkpt><trkpt lat="49.7261655" lon="15.0468435"><ele>401.0</ele><time>2026-04-06T11:14:34.891Z</time></trkpt><trkpt lat="49.7260356" lon="15.0469193"><ele>401.0</ele><time>2026-04-06T11:14:35.89Z</time></trkpt><trkpt lat="49.7259038" lon="15.0469923"><ele>401.0</ele><time>2026-04-06T11:14:36.89Z</time></trkpt><trkpt lat="49.7257705" lon="15.0470727"><ele>401.5</ele><time>2026-04-06T11:14:37.89Z</time></trkpt><trkpt lat="49.7256399" lon="15.0471517"><ele>402.0</ele><time>2026-04-06T11:14:38.89Z</time></trkpt><trkpt lat="49.7255055" lon="15.0472264"><ele>402.5</ele><time>2026-04-06T11:14:39.89Z</time></trkpt><trkpt lat="49.7253728" lon="15.0473018"><ele>403.0</ele><time>2026-04-06T11:14:40.89Z</time></trkpt><trkpt lat="49.7252483" lon="15.047376"><ele>403.75</ele><time>2026-04-06T11:14:41.891Z</time></trkpt><trkpt lat="49.7251343" lon="15.0474533"><ele>404.5</ele><time>2026-04-06T11:14:42.891Z</time></trkpt><trkpt lat="49.7250254" lon="15.0475399"><ele>405.25</ele><time>2026-04-06T11:14:43.89Z</time></trkpt><trkpt lat="49.7249147" lon="15.047634"><ele>406.0</ele><time>2026-04-06T11:14:44.89Z</time></trkpt><trkpt lat="49.7248014" lon="15.0477232"><ele>406.0</ele><time>2026-04-06T11:14:45.89Z</time></trkpt><trkpt lat="49.7246891" lon="15.0477949"><ele>406.0</ele><time>2026-04-06T11:14:46.89Z</time></trkpt><trkpt lat="49.7245784" lon="15.0478687"><ele>406.0</ele><time>2026-04-06T11:14:47.891Z</time></trkpt><trkpt lat="49.7244629" lon="15.0479354"><ele>406.0</ele><time>2026-04-06T11:14:48.891Z</time></trkpt><trkpt lat="49.7243615" lon="15.0479597"><ele>406.4</ele><time>2026-04-06T11:14:49.89Z</time></trkpt><trkpt lat="49.724277" lon="15.0479296"><ele>406.8</ele><time>2026-04-06T11:14:50.891Z</time></trkpt><trkpt lat="49.7242147" lon="15.0478572"><ele>407.2</ele><time>2026-04-06T11:14:51.891Z</time></trkpt><trkpt lat="49.7241622" lon="15.0477517"><ele>407.59999999999997</ele><time>2026-04-06T11:14:52.891Z</time></trkpt><trkpt lat="49.7241167" lon="15.047621"><ele>408.0</ele><time>2026-04-06T11:14:53.89Z</time></trkpt><trkpt lat="49.7240809" lon="15.0474695"><ele>408.0</ele><time>2026-04-06T11:14:54.89Z</time></trkpt><trkpt lat="49.7240493" lon="15.0473143"><ele>408.0</ele><time>2026-04-06T11:14:55.89Z</time></trkpt><trkpt lat="49.7240194" lon="15.0471756"><ele>408.0</ele><time>2026-04-06T11:14:56.89Z</time></trkpt><trkpt lat="49.7239896" lon="15.0470394"><ele>408.0</ele><time>2026-04-06T11:14:57.891Z</time></trkpt><trkpt lat="49.7239591" lon="15.0468941"><ele>408.0</ele><time>2026-04-06T11:14:58.89Z</time></trkpt><trkpt lat="49.7239256" lon="15.0467342"><ele>407.59999999999997</ele><time>2026-04-06T11:14:59.891Z</time></trkpt><trkpt lat="49.7238989" lon="15.0465694"><ele>407.2</ele><time>2026-04-06T11:15:00.89Z</time></trkpt><trkpt lat="49.7238683" lon="15.046401"><ele>406.8</ele><time>2026-04-06T11:15:01.89Z</time></trkpt><trkpt lat="49.7238413" lon="15.046249"><ele>406.4</ele><time>2026-04-06T11:15:02.891Z</time></trkpt><trkpt lat="49.7238162" lon="15.0461171"><ele>406.0</ele><time>2026-04-06T11:15:03.89Z</time></trkpt><trkpt lat="49.7237924" lon="15.0459993"><ele>406.00000000000006</ele><time>2026-04-06T11:15:04.891Z</time></trkpt><trkpt lat="49.7237717" lon="15.0458961"><ele>406.0</ele><time>2026-04-06T11:15:05.891Z</time></trkpt><trkpt lat="49.7237455" lon="15.0458039"><ele>406.0</ele><time>2026-04-06T11:15:06.89Z</time></trkpt><trkpt lat="49.7237067" lon="15.0456977"><ele>406.0</ele><time>2026-04-06T11:15:07.89Z</time></trkpt><trkpt lat="49.7236634" lon="15.0455926"><ele>406.00000000000006</ele><time>2026-04-06T11:15:08.891Z</time></trkpt><trkpt lat="49.7236124" lon="15.0454761"><ele>406.0</ele><time>2026-04-06T11:15:09.891Z</time></trkpt><trkpt lat="49.7235663" lon="15.0453426"><ele>405.5</ele><time>2026-04-06T11:15:10.89Z</time></trkpt><trkpt lat="49.7235427" lon="15.0451833"><ele>405.0</ele><time>2026-04-06T11:15:11.89Z</time></trkpt><trkpt lat="49.723545" lon="15.0450034"><ele>404.5</ele><time>2026-04-06T11:15:12.89Z</time></trkpt><trkpt lat="49.7235396" lon="15.0447955"><ele>404.0</ele><time>2026-04-06T11:15:13.89Z</time></trkpt><trkpt lat="49.7235202" lon="15.0445669"><ele>403.5</ele><time>2026-04-06T11:15:14.891Z</time></trkpt><trkpt lat="49.7234973" lon="15.0443603"><ele>403.0</ele><time>2026-04-06T11:15:15.891Z</time></trkpt><trkpt lat="49.7234652" lon="15.044163"><ele>402.5</ele><time>2026-04-06T11:15:16.89Z</time></trkpt><trkpt lat="49.7234262" lon="15.0439874"><ele>402.0</ele><time>2026-04-06T11:15:17.891Z</time></trkpt><trkpt lat="49.723387" lon="15.0438222"><ele>401.1666666666667</ele><time>2026-04-06T11:15:18.89Z</time></trkpt><trkpt lat="49.7233461" lon="15.0436829"><ele>400.33333333333337</ele><time>2026-04-06T11:15:19.89Z</time></trkpt><trkpt lat="49.7233137" lon="15.0435748"><ele>399.5</ele><time>2026-04-06T11:15:20.891Z</time></trkpt><trkpt lat="49.7232938" lon="15.043476"><ele>398.6666666666667</ele><time>2026-04-06T11:15:21.89Z</time></trkpt><trkpt lat="49.7232872" lon="15.0433696"><ele>397.83333333333337</ele><time>2026-04-06T11:15:22.891Z</time></trkpt><trkpt lat="49.7232847" lon="15.0432504"><ele>397.0</ele><time>2026-04-06T11:15:23.89Z</time></trkpt><trkpt lat="49.7232733" lon="15.0431163"><ele>396.20000000000005</ele><time>2026-04-06T11:15:24.89Z</time></trkpt><trkpt lat="49.7232593" lon="15.0429761"><ele>395.4</ele><time>2026-04-06T11:15:25.891Z</time></trkpt><trkpt lat="49.7232414" lon="15.0428207"><ele>394.6</ele><time>2026-04-06T11:15:26.891Z</time></trkpt><trkpt lat="49.7232254" lon="15.04266"><ele>393.79999999999995</ele><time>2026-04-06T11:15:27.891Z</time></trkpt><trkpt lat="49.7232039" lon="15.0425092"><ele>393.0</ele><time>2026-04-06T11:15:28.891Z</time></trkpt><trkpt lat="49.7231857" lon="15.0423643"><ele>393.0</ele><time>2026-04-06T11:15:29.891Z</time></trkpt><trkpt lat="49.7231737" lon="15.0422273"><ele>393.0</ele><time>2026-04-06T11:15:30.891Z</time></trkpt><trkpt lat="49.7231769" lon="15.042059"><ele>393.0</ele><time>2026-04-06T11:15:31.89Z</time></trkpt><trkpt lat="49.7231568" lon="15.0419065"><ele>393.0</ele><time>2026-04-06T11:15:32.89Z</time></trkpt><trkpt lat="49.72314" lon="15.0417536"><ele>393.0</ele><time>2026-04-06T11:15:33.891Z</time></trkpt><trkpt lat="49.7231247" lon="15.0416114"><ele>392.5</ele><time>2026-04-06T11:15:34.89Z</time></trkpt><trkpt lat="49.7231099" lon="15.0414526"><ele>392.0</ele><time>2026-04-06T11:15:35.89Z</time></trkpt><trkpt lat="49.7230964" lon="15.0413212"><ele>391.5</ele><time>2026-04-06T11:15:36.89Z</time></trkpt><trkpt lat="49.7230814" lon="15.0412104"><ele>391.0</ele><time>2026-04-06T11:15:37.891Z</time></trkpt><trkpt lat="49.7230612" lon="15.041083"><ele>390.5</ele><time>2026-04-06T11:15:38.89Z</time></trkpt><trkpt lat="49.7230345" lon="15.0409463"><ele>390.0</ele><time>2026-04-06T11:15:39.89Z</time></trkpt><trkpt lat="49.7230234" lon="15.0408207"><ele>389.8</ele><time>2026-04-06T11:15:40.89Z</time></trkpt><trkpt lat="49.7230125" lon="15.0406826"><ele>389.6</ele><time>2026-04-06T11:15:41.89Z</time></trkpt><trkpt lat="49.7229994" lon="15.0405235"><ele>389.4</ele><time>2026-04-06T11:15:42.891Z</time></trkpt><trkpt lat="49.7229813" lon="15.0403585"><ele>389.2</ele><time>2026-04-06T11:15:43.891Z</time></trkpt><trkpt lat="49.7229669" lon="15.040198"><ele>389.0</ele><time>2026-04-06T11:15:44.891Z</time></trkpt><trkpt lat="49.7229561" lon="15.0400303"><ele>387.5</ele><time>2026-04-06T11:15:45.89Z</time></trkpt><trkpt lat="49.7229523" lon="15.0398554"><ele>386.0</ele><time>2026-04-06T11:15:46.89Z</time></trkpt><trkpt lat="49.7229584" lon="15.039687"><ele>384.5</ele><time>2026-04-06T11:15:47.891Z</time></trkpt><trkpt lat="49.7229721" lon="15.0395049"><ele>383.0</ele><time>2026-04-06T11:15:48.89Z</time></trkpt><trkpt lat="49.7229844" lon="15.0393305"><ele>383.0</ele><time>2026-04-06T11:15:49.89Z</time></trkpt><trkpt lat="49.722996" lon="15.0391651"><ele>383.0</ele><time>2026-04-06T11:15:50.891Z</time></trkpt><trkpt lat="49.7230163" lon="15.0390208"><ele>383.0</ele><time>2026-04-06T11:15:51.89Z</time></trkpt><trkpt lat="49.7230521" lon="15.0388923"><ele>383.0</ele><time>2026-04-06T11:15:52.89Z</time></trkpt><trkpt lat="49.7231071" lon="15.0387771"><ele>383.0</ele><time>2026-04-06T11:15:53.891Z</time></trkpt><trkpt lat="49.7231738" lon="15.0386713"><ele>378.75</ele><time>2026-04-06T11:15:54.891Z</time></trkpt><trkpt lat="49.7232516" lon="15.0385768"><ele>374.5</ele><time>2026-04-06T11:15:55.89Z</time></trkpt><trkpt lat="49.7233473" lon="15.0384948"><ele>370.25</ele><time>2026-04-06T11:15:56.891Z</time></trkpt><trkpt lat="49.7234612" lon="15.0384224"><ele>366.0</ele><time>2026-04-06T11:15:57.89Z</time></trkpt><trkpt lat="49.7235843" lon="15.0383468"><ele>363.3333333333333</ele><time>2026-04-06T11:15:58.89Z</time></trkpt><trkpt lat="49.7237143" lon="15.0382583"><ele>360.66666666666663</ele><time>2026-04-06T11:15:59.89Z</time></trkpt><trkpt lat="49.7238537" lon="15.0381576"><ele>358.0</ele><time>2026-04-06T11:16:00.89Z</time></trkpt><trkpt lat="49.7240047" lon="15.0380468"><ele>358.0</ele><time>2026-04-06T11:16:01.891Z</time></trkpt><trkpt lat="49.7241533" lon="15.0379316"><ele>358.0</ele><time>2026-04-06T11:16:02.891Z</time></trkpt><trkpt lat="49.7242855" lon="15.0378289"><ele>358.0</ele><time>2026-04-06T11:16:03.89Z</time></trkpt><trkpt lat="49.7244147" lon="15.037745"><ele>359.0</ele><time>2026-04-06T11:16:04.891Z</time></trkpt><trkpt lat="49.724536" lon="15.0376566"><ele>360.0</ele><time>2026-04-06T11:16:05.89Z</time></trkpt><trkpt lat="49.7246509" lon="15.0375694"><ele>361.0</ele><time>2026-04-06T11:16:06.891Z</time></trkpt><trkpt lat="49.7247504" lon="15.0374882"><ele>362.0</ele><time>2026-04-06T11:16:07.891Z</time></trkpt><trkpt lat="49.7248388" lon="15.0374119"><ele>362.0</ele><time>2026-04-06T11:16:08.891Z</time></trkpt><trkpt lat="49.7249185" lon="15.0373448"><ele>362.0</ele><time>2026-04-06T11:16:09.891Z</time></trkpt><trkpt lat="49.7249862" lon="15.0372779"><ele>362.0</ele><time>2026-04-06T11:16:10.89Z</time></trkpt><trkpt lat="49.7250515" lon="15.0372204"><ele>362.0</ele><time>2026-04-06T11:16:11.891Z</time></trkpt><trkpt lat="49.7251044" lon="15.0371538"><ele>362.0</ele><time>2026-04-06T11:16:12.89Z</time></trkpt><trkpt lat="49.7251766" lon="15.0370365"><ele>362.0</ele><time>2026-04-06T11:16:14.89Z</time></trkpt><trkpt lat="49.725208" lon="15.036916"><ele>362.0</ele><time>2026-04-06T11:16:16.89Z</time></trkpt><trkpt lat="49.7252143" lon="15.0367674"><ele>362.0</ele><time>2026-04-06T11:16:18.89Z</time></trkpt><trkpt lat="49.7252087" lon="15.0365968"><ele>362.0</ele><time>2026-04-06T11:16:20.89Z</time></trkpt><trkpt lat="49.7252028" lon="15.0364944"><ele>362.0</ele><time>2026-04-06T11:16:21.891Z</time></trkpt><trkpt lat="49.7252161" lon="15.0363953"><ele>362.0</ele><time>2026-04-06T11:16:22.891Z</time></trkpt><trkpt lat="49.7252477" lon="15.0362925"><ele>362.0</ele><time>2026-04-06T11:16:23.891Z</time></trkpt><trkpt lat="49.725282" lon="15.0361579"><ele>361.0</ele><time>2026-04-06T11:16:24.891Z</time></trkpt><trkpt lat="49.7253209" lon="15.0360181"><ele>360.0</ele><time>2026-04-06T11:16:25.891Z</time></trkpt><trkpt lat="49.7253635" lon="15.0358752"><ele>359.0</ele><time>2026-04-06T11:16:26.891Z</time></trkpt><trkpt lat="49.7254039" lon="15.0357204"><ele>358.0</ele><time>2026-04-06T11:16:27.891Z</time></trkpt><trkpt lat="49.725444" lon="15.0355656"><ele>357.0</ele><time>2026-04-06T11:16:28.891Z</time></trkpt><trkpt lat="49.7254814" lon="15.0354191"><ele>357.0</ele><time>2026-04-06T11:16:29.891Z</time></trkpt><trkpt lat="49.7255025" lon="15.0352836"><ele>357.0</ele><time>2026-04-06T11:16:30.891Z</time></trkpt><trkpt lat="49.7255259" lon="15.0351635"><ele>357.0</ele><time>2026-04-06T11:16:31.89Z</time></trkpt><trkpt lat="49.725556" lon="15.0350638"><ele>357.0</ele><time>2026-04-06T11:16:32.891Z</time></trkpt><trkpt lat="49.7256324" lon="15.0349311"><ele>357.0</ele><time>2026-04-06T11:16:34.891Z</time></trkpt><trkpt lat="49.7257187" lon="15.0348593"><ele>356.0</ele><time>2026-04-06T11:16:36.89Z</time></trkpt><trkpt lat="49.7257866" lon="15.034814"><ele>355.0</ele><time>2026-04-06T11:16:39.891Z</time></trkpt><trkpt lat="49.7258662" lon="15.0347603"><ele>354.0</ele><time>2026-04-06T11:16:42.891Z</time></trkpt><trkpt lat="49.7259773" lon="15.0346877"><ele>353.0</ele><time>2026-04-06T11:16:44.89Z</time></trkpt><trkpt lat="49.7260849" lon="15.0346086"><ele>352.0</ele><time>2026-04-06T11:16:46.891Z</time></trkpt><trkpt lat="49.7262025" lon="15.0345464"><ele>351.8</ele><time>2026-04-06T11:16:48.89Z</time></trkpt><trkpt lat="49.7262839" lon="15.0345139"><ele>351.6</ele><time>2026-04-06T11:16:49.89Z</time></trkpt><trkpt lat="49.7263757" lon="15.0344873"><ele>351.40000000000003</ele><time>2026-04-06T11:16:50.891Z</time></trkpt><trkpt lat="49.7264717" lon="15.0344719"><ele>351.20000000000005</ele><time>2026-04-06T11:16:51.89Z</time></trkpt><trkpt lat="49.726576" lon="15.0344639"><ele>351.0</ele><time>2026-04-06T11:16:52.891Z</time></trkpt><trkpt lat="49.7266795" lon="15.0344624"><ele>351.0</ele><time>2026-04-06T11:16:53.89Z</time></trkpt><trkpt lat="49.7267708" lon="15.0344753"><ele>351.0</ele><time>2026-04-06T11:16:54.89Z</time></trkpt><trkpt lat="49.7268494" lon="15.0344818"><ele>351.0</ele><time>2026-04-06T11:16:55.891Z</time></trkpt><trkpt lat="49.7269259" lon="15.0344954"><ele>351.0</ele><time>2026-04-06T11:16:56.89Z</time></trkpt><trkpt lat="49.7269957" lon="15.0344985"><ele>351.0</ele><time>2026-04-06T11:16:57.891Z</time></trkpt><trkpt lat="49.7271034" lon="15.0345024"><ele>351.0</ele><time>2026-04-06T11:16:59.89Z</time></trkpt><trkpt lat="49.7272063" lon="15.0344732"><ele>351.0</ele><time>2026-04-06T11:17:01.891Z</time></trkpt><trkpt lat="49.7273298" lon="15.0343876"><ele>351.0</ele><time>2026-04-06T11:17:03.89Z</time></trkpt><trkpt lat="49.7274242" lon="15.034309"><ele>351.0</ele><time>2026-04-06T11:17:04.89Z</time></trkpt><trkpt lat="49.7275239" lon="15.0342285"><ele>351.0</ele><time>2026-04-06T11:17:05.89Z</time></trkpt><trkpt lat="49.7276078" lon="15.0341631"><ele>351.0</ele><time>2026-04-06T11:17:06.89Z</time></trkpt><trkpt lat="49.7276617" lon="15.0340978"><ele>352.20000000000005</ele><time>2026-04-06T11:17:07.891Z</time></trkpt><trkpt lat="49.7276998" lon="15.0339657"><ele>353.40000000000003</ele><time>2026-04-06T11:17:09.89Z</time></trkpt><trkpt lat="49.7276572" lon="15.0338269"><ele>354.6</ele><time>2026-04-06T11:17:11.891Z</time></trkpt><trkpt lat="49.7275513" lon="15.0337043"><ele>355.8</ele><time>2026-04-06T11:17:13.891Z</time></trkpt><trkpt lat="49.7274897" lon="15.0336388"><ele>357.0</ele><time>2026-04-06T11:17:14.89Z</time></trkpt><trkpt lat="49.7274365" lon="15.0335593"><ele>357.0</ele><time>2026-04-06T11:17:15.891Z</time></trkpt><trkpt lat="49.7273787" lon="15.0334781"><ele>357.0</ele><time>2026-04-06T11:17:16.891Z</time></trkpt><trkpt lat="49.7273191" lon="15.0333839"><ele>357.0</ele><time>2026-04-06T11:17:17.891Z</time></trkpt><trkpt lat="49.7272649" lon="15.0332854"><ele>357.0</ele><time>2026-04-06T11:17:18.89Z</time></trkpt><trkpt lat="49.7272176" lon="15.0331849"><ele>357.0</ele><time>2026-04-06T11:17:19.891Z</time></trkpt><trkpt lat="49.7271791" lon="15.0331006"><ele>357.0</ele><time>2026-04-06T11:17:20.89Z</time></trkpt><trkpt lat="49.7271483" lon="15.0330094"><ele>359.0</ele><time>2026-04-06T11:17:21.891Z</time></trkpt><trkpt lat="49.7271181" lon="15.0329075"><ele>361.0</ele><time>2026-04-06T11:17:22.891Z</time></trkpt><trkpt lat="49.7270888" lon="15.0327878"><ele>363.0</ele><time>2026-04-06T11:17:23.891Z</time></trkpt><trkpt lat="49.7270645" lon="15.0326542"><ele>365.0</ele><time>2026-04-06T11:17:24.891Z</time></trkpt><trkpt lat="49.7270457" lon="15.0325162"><ele>367.0</ele><time>2026-04-06T11:17:25.891Z</time></trkpt><trkpt lat="49.7270331" lon="15.0323752"><ele>369.0</ele><time>2026-04-06T11:17:26.891Z</time></trkpt><trkpt lat="49.7270268" lon="15.0322214"><ele>371.25</ele><time>2026-04-06T11:17:27.89Z</time></trkpt><trkpt lat="49.7270282" lon="15.032042"><ele>373.5</ele><time>2026-04-06T11:17:28.891Z</time></trkpt><trkpt lat="49.7270137" lon="15.0318426"><ele>375.75</ele><time>2026-04-06T11:17:29.89Z</time></trkpt><trkpt lat="49.7269939" lon="15.0316536"><ele>378.0</ele><time>2026-04-06T11:17:30.891Z</time></trkpt><trkpt lat="49.7269672" lon="15.0314726"><ele>378.0</ele><time>2026-04-06T11:17:31.891Z</time></trkpt><trkpt lat="49.7269424" lon="15.0312981"><ele>378.0</ele><time>2026-04-06T11:17:32.891Z</time></trkpt><trkpt lat="49.7269222" lon="15.031134"><ele>378.0</ele><time>2026-04-06T11:17:33.89Z</time></trkpt><trkpt lat="49.7269102" lon="15.0309834"><ele>378.0</ele><time>2026-04-06T11:17:34.89Z</time></trkpt><trkpt lat="49.7269071" lon="15.0308337"><ele>378.0</ele><time>2026-04-06T11:17:35.891Z</time></trkpt><trkpt lat="49.7268801" lon="15.0306559"><ele>377.6666666666667</ele><time>2026-04-06T11:17:36.89Z</time></trkpt><trkpt lat="49.7268404" lon="15.0304485"><ele>377.33333333333337</ele><time>2026-04-06T11:17:37.89Z</time></trkpt><trkpt lat="49.7267835" lon="15.0302137"><ele>377.0</ele><time>2026-04-06T11:17:38.89Z</time></trkpt><trkpt lat="49.726715" lon="15.029937"><ele>378.0</ele><time>2026-04-06T11:17:39.89Z</time></trkpt><trkpt lat="49.7266604" lon="15.0297017"><ele>379.0</ele><time>2026-04-06T11:17:40.89Z</time></trkpt><trkpt lat="49.7266144" lon="15.029478"><ele>380.0</ele><time>2026-04-06T11:17:41.89Z</time></trkpt><trkpt lat="49.7265716" lon="15.0292725"><ele>381.75</ele><time>2026-04-06T11:17:42.89Z</time></trkpt><trkpt lat="49.7265204" lon="15.0290668"><ele>383.5</ele><time>2026-04-06T11:17:43.891Z</time></trkpt><trkpt lat="49.7264708" lon="15.0288663"><ele>385.25</ele><time>2026-04-06T11:17:44.89Z</time></trkpt><trkpt lat="49.726412" lon="15.0287085"><ele>387.0</ele><time>2026-04-06T11:17:45.891Z</time></trkpt><trkpt lat="49.726334" lon="15.0285849"><ele>387.0</ele><time>2026-04-06T11:17:46.89Z</time></trkpt><trkpt lat="49.7262345" lon="15.0284874"><ele>387.0</ele><time>2026-04-06T11:17:47.891Z</time></trkpt><trkpt lat="49.7261048" lon="15.0284141"><ele>387.0</ele><time>2026-04-06T11:17:48.891Z</time></trkpt><trkpt lat="49.725955" lon="15.0283567"><ele>387.0</ele><time>2026-04-06T11:17:49.89Z</time></trkpt><trkpt lat="49.7258198" lon="15.0282873"><ele>388.25</ele><time>2026-04-06T11:17:50.89Z</time></trkpt><trkpt lat="49.7257238" lon="15.0281973"><ele>389.5</ele><time>2026-04-06T11:17:51.891Z</time></trkpt><trkpt lat="49.7256357" lon="15.0280688"><ele>390.75</ele><time>2026-04-06T11:17:52.891Z</time></trkpt><trkpt lat="49.7255453" lon="15.0278979"><ele>392.0</ele><time>2026-04-06T11:17:53.891Z</time></trkpt><trkpt lat="49.7254508" lon="15.0276937"><ele>392.0</ele><time>2026-04-06T11:17:54.89Z</time></trkpt><trkpt lat="49.7253633" lon="15.0274844"><ele>392.0</ele><time>2026-04-06T11:17:55.891Z</time></trkpt><trkpt lat="49.7252899" lon="15.0273054"><ele>392.0</ele><time>2026-04-06T11:17:56.891Z</time></trkpt><trkpt lat="49.7252291" lon="15.0271232"><ele>392.0</ele><time>2026-04-06T11:17:57.891Z</time></trkpt><trkpt lat="49.7251967" lon="15.0269329"><ele>392.66666666666663</ele><time>2026-04-06T11:17:58.891Z</time></trkpt><trkpt lat="49.7251993" lon="15.0267208"><ele>393.33333333333337</ele><time>2026-04-06T11:17:59.89Z</time></trkpt><trkpt lat="49.7252183" lon="15.0264669"><ele>394.0</ele><time>2026-04-06T11:18:00.891Z</time></trkpt><trkpt lat="49.7252415" lon="15.0261628"><ele>396.0</ele><time>2026-04-06T11:18:01.891Z</time></trkpt><trkpt lat="49.7252709" lon="15.0258262"><ele>398.0</ele><time>2026-04-06T11:18:02.891Z</time></trkpt><trkpt lat="49.7253006" lon="15.0255015"><ele>400.0</ele><time>2026-04-06T11:18:03.891Z</time></trkpt><trkpt lat="49.7253169" lon="15.0252016"><ele>401.6666666666667</ele><time>2026-04-06T11:18:04.891Z</time></trkpt><trkpt lat="49.7253205" lon="15.0249212"><ele>403.33333333333337</ele><time>2026-04-06T11:18:05.89Z</time></trkpt><trkpt lat="49.7253214" lon="15.0246452"><ele>405.0</ele><time>2026-04-06T11:18:06.89Z</time></trkpt><trkpt lat="49.7253144" lon="15.0243621"><ele>406.33333333333337</ele><time>2026-04-06T11:18:07.891Z</time></trkpt><trkpt lat="49.7252985" lon="15.0240871"><ele>407.6666666666667</ele><time>2026-04-06T11:18:08.89Z</time></trkpt><trkpt lat="49.7252828" lon="15.0238241"><ele>409.0</ele><time>2026-04-06T11:18:09.89Z</time></trkpt><trkpt lat="49.7252725" lon="15.0235631"><ele>410.0</ele><time>2026-04-06T11:18:10.89Z</time></trkpt><trkpt lat="49.7252768" lon="15.0232819"><ele>411.0</ele><time>2026-04-06T11:18:11.89Z</time></trkpt><trkpt lat="49.7252951" lon="15.0229662"><ele>412.0</ele><time>2026-04-06T11:18:12.89Z</time></trkpt><trkpt lat="49.7253199" lon="15.0226477"><ele>413.33333333333337</ele><time>2026-04-06T11:18:13.891Z</time></trkpt><trkpt lat="49.7253398" lon="15.0223447"><ele>414.66666666666663</ele><time>2026-04-06T11:18:14.89Z</time></trkpt><trkpt lat="49.7253588" lon="15.022049"><ele>416.0</ele><time>2026-04-06T11:18:15.891Z</time></trkpt><trkpt lat="49.7253795" lon="15.0217621"><ele>417.0</ele><time>2026-04-06T11:18:16.903Z</time></trkpt><trkpt lat="49.7253978" lon="15.0214938"><ele>418.0</ele><time>2026-04-06T11:18:17.904Z</time></trkpt><trkpt lat="49.7254195" lon="15.021243"><ele>419.0</ele><time>2026-04-06T11:18:18.903Z</time></trkpt><trkpt lat="49.7254393" lon="15.0209851"><ele>420.3333333333333</ele><time>2026-04-06T11:18:19.904Z</time></trkpt><trkpt lat="49.7254561" lon="15.0207096"><ele>421.66666666666663</ele><time>2026-04-06T11:18:20.904Z</time></trkpt><trkpt lat="49.7254686" lon="15.0204216"><ele>423.0</ele><time>2026-04-06T11:18:21.903Z</time></trkpt><trkpt lat="49.7254788" lon="15.0201518"><ele>423.75</ele><time>2026-04-06T11:18:22.903Z</time></trkpt><trkpt lat="49.7254801" lon="15.0199158"><ele>424.5</ele><time>2026-04-06T11:18:23.903Z</time></trkpt><trkpt lat="49.7254672" lon="15.0197029"><ele>425.25</ele><time>2026-04-06T11:18:24.904Z</time></trkpt><trkpt lat="49.7254338" lon="15.0194991"><ele>426.0</ele><time>2026-04-06T11:18:25.903Z</time></trkpt><trkpt lat="49.725385" lon="15.0192912"><ele>426.66666666666663</ele><time>2026-04-06T11:18:26.903Z</time></trkpt><trkpt lat="49.7253322" lon="15.019067"><ele>427.3333333333333</ele><time>2026-04-06T11:18:27.903Z</time></trkpt><trkpt lat="49.72527" lon="15.0188394"><ele>428.0</ele><time>2026-04-06T11:18:28.904Z</time></trkpt><trkpt lat="49.7252098" lon="15.018644"><ele>428.0</ele><time>2026-04-06T11:18:29.904Z</time></trkpt><trkpt lat="49.7251677" lon="15.0185134"><ele>427.99999999999994</ele><time>2026-04-06T11:18:30.903Z</time></trkpt><trkpt lat="49.7251546" lon="15.018397"><ele>427.99999999999994</ele><time>2026-04-06T11:18:32.904Z</time></trkpt><trkpt lat="49.7252541" lon="15.0183984"><ele>428.0</ele><time>2026-04-06T11:18:35.903Z</time></trkpt><trkpt lat="49.7253352" lon="15.01841"><ele>428.0</ele><time>2026-04-06T11:18:36.903Z</time></trkpt><trkpt lat="49.725451" lon="15.018434"><ele>428.0</ele><time>2026-04-06T11:18:37.903Z</time></trkpt><trkpt lat="49.725599" lon="15.0184733"><ele>428.0</ele><time>2026-04-06T11:18:38.903Z</time></trkpt><trkpt lat="49.7257655" lon="15.0185182"><ele>428.0</ele><time>2026-04-06T11:18:39.903Z</time></trkpt><trkpt lat="49.7259394" lon="15.018569"><ele>427.3333333333333</ele><time>2026-04-06T11:18:40.903Z</time></trkpt><trkpt lat="49.726116" lon="15.0186245"><ele>426.66666666666663</ele><time>2026-04-06T11:18:41.904Z</time></trkpt><trkpt lat="49.7263009" lon="15.0186759"><ele>426.0</ele><time>2026-04-06T11:18:42.903Z</time></trkpt><trkpt lat="49.7264977" lon="15.0187287"><ele>426.0</ele><time>2026-04-06T11:18:43.904Z</time></trkpt><trkpt lat="49.7267059" lon="15.0187904"><ele>426.0</ele><time>2026-04-06T11:18:44.904Z</time></trkpt><trkpt lat="49.7269234" lon="15.0188577"><ele>426.0</ele><time>2026-04-06T11:18:45.903Z</time></trkpt><trkpt lat="49.7271547" lon="15.0189349"><ele>424.5</ele><time>2026-04-06T11:18:46.903Z</time></trkpt><trkpt lat="49.7273882" lon="15.0190088"><ele>423.0</ele><time>2026-04-06T11:18:47.903Z</time></trkpt><trkpt lat="49.7276168" lon="15.0190807"><ele>420.5</ele><time>2026-04-06T11:18:48.904Z</time></trkpt><trkpt lat="49.7278451" lon="15.0191537"><ele>418.0</ele><time>2026-04-06T11:18:49.903Z</time></trkpt><trkpt lat="49.7280714" lon="15.0192237"><ele>418.0</ele><time>2026-04-06T11:18:50.904Z</time></trkpt><trkpt lat="49.7282968" lon="15.0192915"><ele>418.0</ele><time>2026-04-06T11:18:51.904Z</time></trkpt><trkpt lat="49.7285224" lon="15.0193611"><ele>416.0</ele><time>2026-04-06T11:18:52.903Z</time></trkpt><trkpt lat="49.7287482" lon="15.0194342"><ele>414.0</ele><time>2026-04-06T11:18:53.903Z</time></trkpt><trkpt lat="49.7289723" lon="15.0195103"><ele>414.0</ele><time>2026-04-06T11:18:54.904Z</time></trkpt><trkpt lat="49.729195" lon="15.0195797"><ele>414.0</ele><time>2026-04-06T11:18:55.903Z</time></trkpt><trkpt lat="49.7294167" lon="15.0196309"><ele>412.5</ele><time>2026-04-06T11:18:56.903Z</time></trkpt><trkpt lat="49.729643" lon="15.0196703"><ele>411.0</ele><time>2026-04-06T11:18:57.903Z</time></trkpt><trkpt lat="49.7298705" lon="15.0197018"><ele>411.0</ele><time>2026-04-06T11:18:58.903Z</time></trkpt><trkpt lat="49.7300941" lon="15.019733"><ele>411.0</ele><time>2026-04-06T11:18:59.903Z</time></trkpt><trkpt lat="49.730303" lon="15.0197654"><ele>411.0</ele><time>2026-04-06T11:19:00.904Z</time></trkpt><trkpt lat="49.7304942" lon="15.019791"><ele>410.66666666666663</ele><time>2026-04-06T11:19:01.903Z</time></trkpt><trkpt lat="49.7306716" lon="15.0198326"><ele>410.3333333333333</ele><time>2026-04-06T11:19:02.904Z</time></trkpt><trkpt lat="49.7308508" lon="15.0198681"><ele>410.0</ele><time>2026-04-06T11:19:03.904Z</time></trkpt><trkpt lat="49.7310272" lon="15.0199088"><ele>410.3333333333333</ele><time>2026-04-06T11:19:04.904Z</time></trkpt><trkpt lat="49.7311974" lon="15.0199464"><ele>410.66666666666663</ele><time>2026-04-06T11:19:05.904Z</time></trkpt><trkpt lat="49.7313696" lon="15.0199855"><ele>411.0</ele><time>2026-04-06T11:19:06.903Z</time></trkpt><trkpt lat="49.73154" lon="15.0200258"><ele>411.0</ele><time>2026-04-06T11:19:07.903Z</time></trkpt><trkpt lat="49.7317095" lon="15.0200678"><ele>411.0</ele><time>2026-04-06T11:19:08.904Z</time></trkpt><trkpt lat="49.7318798" lon="15.0201083"><ele>411.0</ele><time>2026-04-06T11:19:09.903Z</time></trkpt><trkpt lat="49.7320488" lon="15.0201535"><ele>411.0</ele><time>2026-04-06T11:19:10.904Z</time></trkpt><trkpt lat="49.7322201" lon="15.0201958"><ele>411.0</ele><time>2026-04-06T11:19:11.904Z</time></trkpt><trkpt lat="49.7323944" lon="15.0202393"><ele>411.0</ele><time>2026-04-06T11:19:12.904Z</time></trkpt><trkpt lat="49.7325711" lon="15.020282"><ele>409.66666666666663</ele><time>2026-04-06T11:19:13.904Z</time></trkpt><trkpt lat="49.7327498" lon="15.0203211"><ele>408.3333333333333</ele><time>2026-04-06T11:19:14.904Z</time></trkpt><trkpt lat="49.7329287" lon="15.0203593"><ele>407.0</ele><time>2026-04-06T11:19:15.903Z</time></trkpt><trkpt lat="49.7331133" lon="15.0204018"><ele>407.0</ele><time>2026-04-06T11:19:16.903Z</time></trkpt><trkpt lat="49.7333006" lon="15.0204374"><ele>407.0</ele><time>2026-04-06T11:19:17.904Z</time></trkpt><trkpt lat="49.7334895" lon="15.0204692"><ele>407.0</ele><time>2026-04-06T11:19:18.903Z</time></trkpt><trkpt lat="49.733674" lon="15.0204886"><ele>405.3333333333333</ele><time>2026-04-06T11:19:19.904Z</time></trkpt><trkpt lat="49.7338495" lon="15.0205024"><ele>403.66666666666663</ele><time>2026-04-06T11:19:20.903Z</time></trkpt><trkpt lat="49.7340142" lon="15.0205116"><ele>402.0</ele><time>2026-04-06T11:19:21.903Z</time></trkpt><trkpt lat="49.734172" lon="15.0205286"><ele>402.0</ele><time>2026-04-06T11:19:22.903Z</time></trkpt><trkpt lat="49.7343305" lon="15.020554"><ele>402.0</ele><time>2026-04-06T11:19:23.904Z</time></trkpt><trkpt lat="49.7344916" lon="15.0206023"><ele>402.0</ele><time>2026-04-06T11:19:24.903Z</time></trkpt><trkpt lat="49.7346487" lon="15.0206824"><ele>401.0</ele><time>2026-04-06T11:19:25.903Z</time></trkpt><trkpt lat="49.7348017" lon="15.0207968"><ele>400.0</ele><time>2026-04-06T11:19:26.903Z</time></trkpt><trkpt lat="49.7349541" lon="15.0209371"><ele>399.0</ele><time>2026-04-06T11:19:27.903Z</time></trkpt><trkpt lat="49.7351056" lon="15.0210916"><ele>396.0</ele><time>2026-04-06T11:19:28.903Z</time></trkpt><trkpt lat="49.7352557" lon="15.0212535"><ele>393.0</ele><time>2026-04-06T11:19:29.903Z</time></trkpt><trkpt lat="49.735415" lon="15.0214008"><ele>390.0</ele><time>2026-04-06T11:19:30.903Z</time></trkpt><trkpt lat="49.7355872" lon="15.0215196"><ele>390.0</ele><time>2026-04-06T11:19:31.903Z</time></trkpt><trkpt lat="49.7357694" lon="15.0216014"><ele>390.0</ele><time>2026-04-06T11:19:32.904Z</time></trkpt><trkpt lat="49.735951" lon="15.0216652"><ele>390.0</ele><time>2026-04-06T11:19:33.904Z</time></trkpt><trkpt lat="49.7361231" lon="15.021731"><ele>388.0</ele><time>2026-04-06T11:19:34.903Z</time></trkpt><trkpt lat="49.73628" lon="15.0218092"><ele>386.0</ele><time>2026-04-06T11:19:35.903Z</time></trkpt><trkpt lat="49.7364311" lon="15.0219062"><ele>384.0</ele><time>2026-04-06T11:19:36.904Z</time></trkpt><trkpt lat="49.7365441" lon="15.022041"><ele>384.0</ele><time>2026-04-06T11:19:37.904Z</time></trkpt><trkpt lat="49.7366284" lon="15.0222033"><ele>384.0</ele><time>2026-04-06T11:19:38.904Z</time></trkpt><trkpt lat="49.736703" lon="15.0223987"><ele>384.0</ele><time>2026-04-06T11:19:39.903Z</time></trkpt><trkpt lat="49.7367654" lon="15.0226028"><ele>384.0</ele><time>2026-04-06T11:19:40.904Z</time></trkpt><trkpt lat="49.7368365" lon="15.0228219"><ele>383.3333333333333</ele><time>2026-04-06T11:19:41.903Z</time></trkpt><trkpt lat="49.73691" lon="15.0230469"><ele>382.66666666666663</ele><time>2026-04-06T11:19:42.904Z</time></trkpt><trkpt lat="49.7369926" lon="15.0232681"><ele>382.0</ele><time>2026-04-06T11:19:43.903Z</time></trkpt><trkpt lat="49.7370827" lon="15.0234798"><ele>381.5</ele><time>2026-04-06T11:19:44.904Z</time></trkpt><trkpt lat="49.737171" lon="15.0236774"><ele>381.0</ele><time>2026-04-06T11:19:45.903Z</time></trkpt><trkpt lat="49.7372588" lon="15.023851"><ele>380.5</ele><time>2026-04-06T11:19:46.903Z</time></trkpt><trkpt lat="49.7373435" lon="15.024019"><ele>380.0</ele><time>2026-04-06T11:19:47.903Z</time></trkpt><trkpt lat="49.7374344" lon="15.0241882"><ele>380.0</ele><time>2026-04-06T11:19:48.903Z</time></trkpt><trkpt lat="49.7375339" lon="15.0243503"><ele>380.0</ele><time>2026-04-06T11:19:49.904Z</time></trkpt><trkpt lat="49.7376451" lon="15.0245086"><ele>380.0</ele><time>2026-04-06T11:19:50.903Z</time></trkpt><trkpt lat="49.7377584" lon="15.0246546"><ele>380.0</ele><time>2026-04-06T11:19:51.903Z</time></trkpt><trkpt lat="49.7378753" lon="15.0247965"><ele>379.25</ele><time>2026-04-06T11:19:52.904Z</time></trkpt><trkpt lat="49.7379955" lon="15.0249527"><ele>378.5</ele><time>2026-04-06T11:19:53.904Z</time></trkpt><trkpt lat="49.7381068" lon="15.0250689"><ele>377.75</ele><time>2026-04-06T11:19:54.904Z</time></trkpt><trkpt lat="49.7382171" lon="15.0251583"><ele>377.0</ele><time>2026-04-06T11:19:55.904Z</time></trkpt><trkpt lat="49.7383229" lon="15.025234"><ele>377.0</ele><time>2026-04-06T11:19:56.903Z</time></trkpt><trkpt lat="49.7384369" lon="15.0253298"><ele>377.0</ele><time>2026-04-06T11:19:57.903Z</time></trkpt><trkpt lat="49.7385188" lon="15.0254325"><ele>377.0</ele><time>2026-04-06T11:19:58.903Z</time></trkpt><trkpt lat="49.7385956" lon="15.025507"><ele>377.0</ele><time>2026-04-06T11:19:59.904Z</time></trkpt><trkpt lat="49.7386728" lon="15.025558"><ele>377.0</ele><time>2026-04-06T11:20:00.904Z</time></trkpt><trkpt lat="49.7387537" lon="15.0255942"><ele>377.0</ele><time>2026-04-06T11:20:01.903Z</time></trkpt><trkpt lat="49.7388413" lon="15.0256196"><ele>377.0</ele><time>2026-04-06T11:20:02.903Z</time></trkpt><trkpt lat="49.7389317" lon="15.0256652"><ele>377.0</ele><time>2026-04-06T11:20:03.904Z</time></trkpt><trkpt lat="49.7390312" lon="15.025713"><ele>377.0</ele><time>2026-04-06T11:20:04.903Z</time></trkpt><trkpt lat="49.7391353" lon="15.0257719"><ele>377.0</ele><time>2026-04-06T11:20:05.904Z</time></trkpt><trkpt lat="49.7392429" lon="15.0258265"><ele>376.8</ele><time>2026-04-06T11:20:06.903Z</time></trkpt><trkpt lat="49.7393476" lon="15.0258691"><ele>376.6</ele><time>2026-04-06T11:20:07.904Z</time></trkpt><trkpt lat="49.739444" lon="15.0259185"><ele>376.40000000000003</ele><time>2026-04-06T11:20:08.903Z</time></trkpt><trkpt lat="49.7395389" lon="15.0259657"><ele>376.20000000000005</ele><time>2026-04-06T11:20:09.904Z</time></trkpt><trkpt lat="49.7396367" lon="15.0260112"><ele>376.0</ele><time>2026-04-06T11:20:10.903Z</time></trkpt><trkpt lat="49.7397323" lon="15.0260439"><ele>376.0</ele><time>2026-04-06T11:20:11.904Z</time></trkpt><trkpt lat="49.739819" lon="15.0260612"><ele>376.0</ele><time>2026-04-06T11:20:12.904Z</time></trkpt><trkpt lat="49.7399017" lon="15.0260765"><ele>376.0</ele><time>2026-04-06T11:20:13.904Z</time></trkpt><trkpt lat="49.7399838" lon="15.0260936"><ele>376.0</ele><time>2026-04-06T11:20:14.904Z</time></trkpt><trkpt lat="49.7400685" lon="15.0261066"><ele>376.0</ele><time>2026-04-06T11:20:15.903Z</time></trkpt><trkpt lat="49.7401533" lon="15.0261115"><ele>376.0</ele><time>2026-04-06T11:20:16.903Z</time></trkpt><trkpt lat="49.740234" lon="15.0261191"><ele>375.85714285714283</ele><time>2026-04-06T11:20:17.904Z</time></trkpt><trkpt lat="49.7403102" lon="15.0261273"><ele>375.71428571428567</ele><time>2026-04-06T11:20:18.903Z</time></trkpt><trkpt lat="49.7403849" lon="15.0261357"><ele>375.57142857142856</ele><time>2026-04-06T11:20:19.904Z</time></trkpt><trkpt lat="49.740458" lon="15.0261476"><ele>375.42857142857144</ele><time>2026-04-06T11:20:20.903Z</time></trkpt><trkpt lat="49.7405262" lon="15.0261709"><ele>375.2857142857143</ele><time>2026-04-06T11:20:21.903Z</time></trkpt><trkpt lat="49.7405932" lon="15.0262115"><ele>375.14285714285717</ele><time>2026-04-06T11:20:22.903Z</time></trkpt><trkpt lat="49.7406672" lon="15.0262635"><ele>375.0</ele><time>2026-04-06T11:20:23.903Z</time></trkpt><trkpt lat="49.7407436" lon="15.0263199"><ele>375.0</ele><time>2026-04-06T11:20:24.903Z</time></trkpt><trkpt lat="49.7408175" lon="15.0263893"><ele>375.0</ele><time>2026-04-06T11:20:25.904Z</time></trkpt><trkpt lat="49.7408772" lon="15.0264848"><ele>375.0</ele><time>2026-04-06T11:20:26.903Z</time></trkpt><trkpt lat="49.7409255" lon="15.0266163"><ele>375.0</ele><time>2026-04-06T11:20:27.904Z</time></trkpt><trkpt lat="49.7409833" lon="15.0267777"><ele>375.0</ele><time>2026-04-06T11:20:28.904Z</time></trkpt><trkpt lat="49.7410389" lon="15.0269641"><ele>373.25</ele><time>2026-04-06T11:20:29.904Z</time></trkpt><trkpt lat="49.7411134" lon="15.0271541"><ele>371.5</ele><time>2026-04-06T11:20:30.903Z</time></trkpt><trkpt lat="49.7411701" lon="15.0273517"><ele>369.75</ele><time>2026-04-06T11:20:31.903Z</time></trkpt><trkpt lat="49.7412195" lon="15.0275396"><ele>368.0</ele><time>2026-04-06T11:20:32.904Z</time></trkpt><trkpt lat="49.7412738" lon="15.0277154"><ele>367.25</ele><time>2026-04-06T11:20:33.904Z</time></trkpt><trkpt lat="49.7413139" lon="15.0278939"><ele>366.5</ele><time>2026-04-06T11:20:34.904Z</time></trkpt><trkpt lat="49.7413563" lon="15.0281001"><ele>365.75</ele><time>2026-04-06T11:20:35.904Z</time></trkpt><trkpt lat="49.7414139" lon="15.0283077"><ele>365.0</ele><time>2026-04-06T11:20:36.904Z</time></trkpt><trkpt lat="49.7414739" lon="15.0285027"><ele>364.5</ele><time>2026-04-06T11:20:37.903Z</time></trkpt><trkpt lat="49.7415361" lon="15.0287011"><ele>364.0</ele><time>2026-04-06T11:20:38.904Z</time></trkpt><trkpt lat="49.7415957" lon="15.028905"><ele>363.5</ele><time>2026-04-06T11:20:39.903Z</time></trkpt><trkpt lat="49.7416559" lon="15.0291087"><ele>363.0</ele><time>2026-04-06T11:20:40.904Z</time></trkpt><trkpt lat="49.7417149" lon="15.029302"><ele>362.5</ele><time>2026-04-06T11:20:41.904Z</time></trkpt><trkpt lat="49.7417764" lon="15.0294787"><ele>362.0</ele><time>2026-04-06T11:20:42.903Z</time></trkpt><trkpt lat="49.7418442" lon="15.0296548"><ele>361.5</ele><time>2026-04-06T11:20:43.903Z</time></trkpt><trkpt lat="49.7419111" lon="15.0298252"><ele>361.0</ele><time>2026-04-06T11:20:44.903Z</time></trkpt><trkpt lat="49.7419755" lon="15.0299889"><ele>358.25</ele><time>2026-04-06T11:20:45.903Z</time></trkpt><trkpt lat="49.7420403" lon="15.0301362"><ele>355.5</ele><time>2026-04-06T11:20:46.903Z</time></trkpt><trkpt lat="49.7421279" lon="15.0303013"><ele>352.75</ele><time>2026-04-06T11:20:47.903Z</time></trkpt><trkpt lat="49.742222" lon="15.0304496"><ele>350.0</ele><time>2026-04-06T11:20:48.904Z</time></trkpt><trkpt lat="49.7423072" lon="15.0305964"><ele>350.0</ele><time>2026-04-06T11:20:49.904Z</time></trkpt><trkpt lat="49.7423888" lon="15.030754"><ele>350.0</ele><time>2026-04-06T11:20:50.904Z</time></trkpt><trkpt lat="49.7424698" lon="15.0309003"><ele>350.0</ele><time>2026-04-06T11:20:51.903Z</time></trkpt><trkpt lat="49.7425616" lon="15.0310563"><ele>350.0</ele><time>2026-04-06T11:20:52.903Z</time></trkpt><trkpt lat="49.7426563" lon="15.0312093"><ele>348.0</ele><time>2026-04-06T11:20:53.903Z</time></trkpt><trkpt lat="49.7427482" lon="15.0313642"><ele>346.0</ele><time>2026-04-06T11:20:54.904Z</time></trkpt><trkpt lat="49.7428308" lon="15.0315312"><ele>344.0</ele><time>2026-04-06T11:20:55.904Z</time></trkpt><trkpt lat="49.7429105" lon="15.0317004"><ele>342.0</ele><time>2026-04-06T11:20:56.903Z</time></trkpt><trkpt lat="49.7429887" lon="15.0318586"><ele>341.6</ele><time>2026-04-06T11:20:57.903Z</time></trkpt><trkpt lat="49.7430603" lon="15.0320217"><ele>341.20000000000005</ele><time>2026-04-06T11:20:58.904Z</time></trkpt><trkpt lat="49.743119" lon="15.032153"><ele>340.8</ele><time>2026-04-06T11:20:59.904Z</time></trkpt><trkpt lat="49.743163" lon="15.0322438"><ele>340.4</ele><time>2026-04-06T11:21:00.903Z</time></trkpt><trkpt lat="49.7432203" lon="15.0323176"><ele>340.0</ele><time>2026-04-06T11:21:02.903Z</time></trkpt><trkpt lat="49.7433035" lon="15.0322887"><ele>340.0</ele><time>2026-04-06T11:21:04.903Z</time></trkpt><trkpt lat="49.7433503" lon="15.0322111"><ele>340.0</ele><time>2026-04-06T11:21:05.903Z</time></trkpt><trkpt lat="49.7434009" lon="15.0320992"><ele>340.0</ele><time>2026-04-06T11:21:06.904Z</time></trkpt><trkpt lat="49.7434539" lon="15.031972"><ele>340.0</ele><time>2026-04-06T11:21:07.903Z</time></trkpt><trkpt lat="49.7435182" lon="15.0318283"><ele>340.0</ele><time>2026-04-06T11:21:08.903Z</time></trkpt><trkpt lat="49.7435937" lon="15.0316806"><ele>339.0</ele><time>2026-04-06T11:21:09.904Z</time></trkpt><trkpt lat="49.7436774" lon="15.0315162"><ele>338.0</ele><time>2026-04-06T11:21:10.904Z</time></trkpt><trkpt lat="49.7437686" lon="15.0313416"><ele>337.0</ele><time>2026-04-06T11:21:11.903Z</time></trkpt><trkpt lat="49.7438666" lon="15.0311582"><ele>336.0</ele><time>2026-04-06T11:21:12.903Z</time></trkpt><trkpt lat="49.7439725" lon="15.0309766"><ele>336.3333333333333</ele><time>2026-04-06T11:21:13.904Z</time></trkpt><trkpt lat="49.7440767" lon="15.0307935"><ele>336.66666666666663</ele><time>2026-04-06T11:21:14.904Z</time></trkpt><trkpt lat="49.7441797" lon="15.0306093"><ele>337.0</ele><time>2026-04-06T11:21:15.903Z</time></trkpt><trkpt lat="49.7442958" lon="15.030412"><ele>337.3333333333333</ele><time>2026-04-06T11:21:16.903Z</time></trkpt><trkpt lat="49.744418" lon="15.0302134"><ele>337.6666666666667</ele><time>2026-04-06T11:21:17.903Z</time></trkpt><trkpt lat="49.7445465" lon="15.0300229"><ele>338.0</ele><time>2026-04-06T11:21:18.903Z</time></trkpt><trkpt lat="49.7446738" lon="15.0298481"><ele>340.0</ele><time>2026-04-06T11:21:19.904Z</time></trkpt><trkpt lat="49.7448265" lon="15.0297001"><ele>342.0</ele><time>2026-04-06T11:21:20.903Z</time></trkpt><trkpt lat="49.7449936" lon="15.0295734"><ele>344.0</ele><time>2026-04-06T11:21:21.904Z</time></trkpt><trkpt lat="49.745174" lon="15.0294685"><ele>341.0</ele><time>2026-04-06T11:21:22.903Z</time></trkpt><trkpt lat="49.7453613" lon="15.0293793"><ele>338.0</ele><time>2026-04-06T11:21:23.903Z</time></trkpt><trkpt lat="49.7455466" lon="15.0292887"><ele>335.0</ele><time>2026-04-06T11:21:24.903Z</time></trkpt><trkpt lat="49.7457374" lon="15.029193"><ele>337.0</ele><time>2026-04-06T11:21:25.904Z</time></trkpt><trkpt lat="49.7459295" lon="15.0290947"><ele>339.0</ele><time>2026-04-06T11:21:26.904Z</time></trkpt><trkpt lat="49.7461195" lon="15.028991"><ele>341.0</ele><time>2026-04-06T11:21:27.904Z</time></trkpt><trkpt lat="49.7463125" lon="15.0288869"><ele>341.0</ele><time>2026-04-06T11:21:28.904Z</time></trkpt><trkpt lat="49.7465065" lon="15.0287854"><ele>341.0</ele><time>2026-04-06T11:21:29.903Z</time></trkpt><trkpt lat="49.7467006" lon="15.0286785"><ele>341.0</ele><time>2026-04-06T11:21:30.904Z</time></trkpt><trkpt lat="49.7468966" lon="15.0285542"><ele>338.5</ele><time>2026-04-06T11:21:31.903Z</time></trkpt><trkpt lat="49.7470996" lon="15.0284169"><ele>336.0</ele><time>2026-04-06T11:21:32.904Z</time></trkpt><trkpt lat="49.7473036" lon="15.0282487"><ele>345.0</ele><time>2026-04-06T11:21:33.904Z</time></trkpt><trkpt lat="49.7475108" lon="15.0280733"><ele>354.0</ele><time>2026-04-06T11:21:34.903Z</time></trkpt><trkpt lat="49.7477064" lon="15.0279082"><ele>351.6666666666667</ele><time>2026-04-06T11:21:35.903Z</time></trkpt><trkpt lat="49.7478717" lon="15.027802"><ele>349.33333333333337</ele><time>2026-04-06T11:21:36.903Z</time></trkpt><trkpt lat="49.7480227" lon="15.0277591"><ele>347.0</ele><time>2026-04-06T11:21:37.904Z</time></trkpt><trkpt lat="49.7481846" lon="15.0277504"><ele>347.0</ele><time>2026-04-06T11:21:38.903Z</time></trkpt><trkpt lat="49.7483399" lon="15.0277808"><ele>347.0</ele><time>2026-04-06T11:21:39.904Z</time></trkpt><trkpt lat="49.7484805" lon="15.0278404"><ele>347.0</ele><time>2026-04-06T11:21:40.904Z</time></trkpt><trkpt lat="49.7485957" lon="15.0279403"><ele>347.0</ele><time>2026-04-06T11:21:41.904Z</time></trkpt><trkpt lat="49.7486885" lon="15.0280916"><ele>345.75</ele><time>2026-04-06T11:21:42.903Z</time></trkpt><trkpt lat="49.748748" lon="15.0282396"><ele>344.5</ele><time>2026-04-06T11:21:43.904Z</time></trkpt><trkpt lat="49.748805" lon="15.0284288"><ele>343.25</ele><time>2026-04-06T11:21:44.904Z</time></trkpt><trkpt lat="49.748885" lon="15.0285944"><ele>342.0</ele><time>2026-04-06T11:21:45.904Z</time></trkpt><trkpt lat="49.7489947" lon="15.0287189"><ele>340.5</ele><time>2026-04-06T11:21:46.903Z</time></trkpt><trkpt lat="49.7491233" lon="15.0287917"><ele>339.0</ele><time>2026-04-06T11:21:47.904Z</time></trkpt><trkpt lat="49.7492744" lon="15.0288246"><ele>337.5</ele><time>2026-04-06T11:21:48.903Z</time></trkpt><trkpt lat="49.7494217" lon="15.0288057"><ele>336.0</ele><time>2026-04-06T11:21:49.904Z</time></trkpt><trkpt lat="49.7495571" lon="15.0287548"><ele>336.0</ele><time>2026-04-06T11:21:50.904Z</time></trkpt><trkpt lat="49.7496729" lon="15.0286782"><ele>336.0</ele><time>2026-04-06T11:21:51.903Z</time></trkpt><trkpt lat="49.7497761" lon="15.0285594"><ele>336.0</ele><time>2026-04-06T11:21:52.904Z</time></trkpt><trkpt lat="49.749853" lon="15.0283946"><ele>336.0</ele><time>2026-04-06T11:21:53.903Z</time></trkpt><trkpt lat="49.7499029" lon="15.0281872"><ele>336.0</ele><time>2026-04-06T11:21:54.903Z</time></trkpt><trkpt lat="49.7499357" lon="15.0279555"><ele>336.0</ele><time>2026-04-06T11:21:55.904Z</time></trkpt><trkpt lat="49.749963" lon="15.0277261"><ele>336.0</ele><time>2026-04-06T11:21:56.903Z</time></trkpt><trkpt lat="49.7499892" lon="15.0275219"><ele>336.0</ele><time>2026-04-06T11:21:57.903Z</time></trkpt><trkpt lat="49.7500313" lon="15.0273491"><ele>337.0</ele><time>2026-04-06T11:21:58.903Z</time></trkpt><trkpt lat="49.7500765" lon="15.0271972"><ele>338.0</ele><time>2026-04-06T11:21:59.903Z</time></trkpt><trkpt lat="49.7501062" lon="15.0270502"><ele>339.0</ele><time>2026-04-06T11:22:00.904Z</time></trkpt><trkpt lat="49.7501275" lon="15.0269198"><ele>340.0</ele><time>2026-04-06T11:22:01.904Z</time></trkpt><trkpt lat="49.7501577" lon="15.0268183"><ele>341.0</ele><time>2026-04-06T11:22:02.903Z</time></trkpt><trkpt lat="49.7501644" lon="15.0267164"><ele>342.0</ele><time>2026-04-06T11:22:04.904Z</time></trkpt><trkpt lat="49.7500843" lon="15.026767"><ele>342.0</ele><time>2026-04-06T11:22:07.904Z</time></trkpt><trkpt lat="49.7500657" lon="15.0268914"><ele>342.0</ele><time>2026-04-06T11:22:10.903Z</time></trkpt><trkpt lat="49.7500741" lon="15.0270001"><ele>342.0</ele><time>2026-04-06T11:22:11.903Z</time></trkpt><trkpt lat="49.7500569" lon="15.0271666"><ele>342.0</ele><time>2026-04-06T11:22:12.904Z</time></trkpt><trkpt lat="49.7500309" lon="15.0273429"><ele>342.0</ele><time>2026-04-06T11:22:13.904Z</time></trkpt><trkpt lat="49.7499885" lon="15.027526"><ele>340.5</ele><time>2026-04-06T11:22:14.903Z</time></trkpt><trkpt lat="49.7499522" lon="15.0277158"><ele>339.0</ele><time>2026-04-06T11:22:15.903Z</time></trkpt><trkpt lat="49.749925" lon="15.0279181"><ele>337.5</ele><time>2026-04-06T11:22:16.904Z</time></trkpt><trkpt lat="49.7498946" lon="15.0281134"><ele>336.0</ele><time>2026-04-06T11:22:17.903Z</time></trkpt><trkpt lat="49.7498593" lon="15.0283035"><ele>336.0</ele><time>2026-04-06T11:22:18.903Z</time></trkpt><trkpt lat="49.7498152" lon="15.0284465"><ele>336.0</ele><time>2026-04-06T11:22:19.903Z</time></trkpt><trkpt lat="49.7497728" lon="15.0285657"><ele>336.0</ele><time>2026-04-06T11:22:20.904Z</time></trkpt><trkpt lat="49.7497455" lon="15.0286758"><ele>336.0</ele><time>2026-04-06T11:22:21.903Z</time></trkpt><trkpt lat="49.7497462" lon="15.0287883"><ele>336.0</ele><time>2026-04-06T11:22:22.903Z</time></trkpt><trkpt lat="49.7497599" lon="15.0289147"><ele>336.0</ele><time>2026-04-06T11:22:23.904Z</time></trkpt><trkpt lat="49.7497829" lon="15.0290603"><ele>335.6</ele><time>2026-04-06T11:22:24.904Z</time></trkpt><trkpt lat="49.749822" lon="15.0292127"><ele>335.20000000000005</ele><time>2026-04-06T11:22:25.903Z</time></trkpt><trkpt lat="49.7498586" lon="15.0293654"><ele>334.79999999999995</ele><time>2026-04-06T11:22:26.903Z</time></trkpt><trkpt lat="49.7499144" lon="15.0294817"><ele>334.4</ele><time>2026-04-06T11:22:27.904Z</time></trkpt><trkpt lat="49.7500022" lon="15.0295308"><ele>334.0</ele><time>2026-04-06T11:22:28.903Z</time></trkpt><trkpt lat="49.7501021" lon="15.0295229"><ele>334.0</ele><time>2026-04-06T11:22:29.904Z</time></trkpt><trkpt lat="49.7502044" lon="15.0294741"><ele>334.0</ele><time>2026-04-06T11:22:30.904Z</time></trkpt><trkpt lat="49.7503065" lon="15.0294094"><ele>334.0</ele><time>2026-04-06T11:22:31.903Z</time></trkpt><trkpt lat="49.750397" lon="15.0293412"><ele>334.0</ele><time>2026-04-06T11:22:32.903Z</time></trkpt><trkpt lat="49.7504713" lon="15.0292935"><ele>334.0</ele><time>2026-04-06T11:22:33.903Z</time></trkpt><trkpt lat="49.7505351" lon="15.0292461"><ele>333.5</ele><time>2026-04-06T11:22:34.903Z</time></trkpt><trkpt lat="49.7505804" lon="15.0291765"><ele>333.0</ele><time>2026-04-06T11:22:35.903Z</time></trkpt><trkpt lat="49.7506028" lon="15.0290817"><ele>332.5</ele><time>2026-04-06T11:22:36.903Z</time></trkpt><trkpt lat="49.7506186" lon="15.0289796"><ele>332.0</ele><time>2026-04-06T11:22:37.904Z</time></trkpt><trkpt lat="49.7506402" lon="15.0288586"><ele>331.5</ele><time>2026-04-06T11:22:38.904Z</time></trkpt><trkpt lat="49.7506613" lon="15.0287156"><ele>331.0</ele><time>2026-04-06T11:22:39.903Z</time></trkpt><trkpt lat="49.750681" lon="15.0285417"><ele>331.0</ele><time>2026-04-06T11:22:40.904Z</time></trkpt><trkpt lat="49.7507092" lon="15.0283428"><ele>331.0</ele><time>2026-04-06T11:22:41.904Z</time></trkpt><trkpt lat="49.7507472" lon="15.0281244"><ele>331.0</ele><time>2026-04-06T11:22:42.903Z</time></trkpt><trkpt lat="49.750803" lon="15.0279018"><ele>331.0</ele><time>2026-04-06T11:22:43.904Z</time></trkpt><trkpt lat="49.7508872" lon="15.0276647"><ele>333.66666666666663</ele><time>2026-04-06T11:22:44.904Z</time></trkpt><trkpt lat="49.7509656" lon="15.0274385"><ele>336.3333333333333</ele><time>2026-04-06T11:22:45.904Z</time></trkpt><trkpt lat="49.7510513" lon="15.0272337"><ele>339.0</ele><time>2026-04-06T11:22:46.903Z</time></trkpt><trkpt lat="49.7511593" lon="15.0270584"><ele>339.25</ele><time>2026-04-06T11:22:47.903Z</time></trkpt><trkpt lat="49.7512801" lon="15.026914"><ele>339.5</ele><time>2026-04-06T11:22:48.903Z</time></trkpt><trkpt lat="49.7513968" lon="15.0268054"><ele>339.75</ele><time>2026-04-06T11:22:49.903Z</time></trkpt><trkpt lat="49.7515075" lon="15.0267372"><ele>340.0</ele><time>2026-04-06T11:22:50.903Z</time></trkpt><trkpt lat="49.7516281" lon="15.0266956"><ele>340.0</ele><time>2026-04-06T11:22:51.903Z</time></trkpt><trkpt lat="49.7517674" lon="15.0266575"><ele>340.0</ele><time>2026-04-06T11:22:52.904Z</time></trkpt><trkpt lat="49.7519177" lon="15.0266169"><ele>340.0</ele><time>2026-04-06T11:22:53.903Z</time></trkpt><trkpt lat="49.7520731" lon="15.0265771"><ele>344.3333333333333</ele><time>2026-04-06T11:22:54.903Z</time></trkpt><trkpt lat="49.752246" lon="15.0265302"><ele>348.6666666666667</ele><time>2026-04-06T11:22:55.904Z</time></trkpt><trkpt lat="49.7524283" lon="15.0264671"><ele>353.0</ele><time>2026-04-06T11:22:56.904Z</time></trkpt><trkpt lat="49.7525939" lon="15.0264076"><ele>354.33333333333337</ele><time>2026-04-06T11:22:57.904Z</time></trkpt><trkpt lat="49.7527442" lon="15.0263363"><ele>355.6666666666667</ele><time>2026-04-06T11:22:58.904Z</time></trkpt><trkpt lat="49.7529001" lon="15.0262305"><ele>357.0</ele><time>2026-04-06T11:22:59.903Z</time></trkpt><trkpt lat="49.7530711" lon="15.0261157"><ele>357.0</ele><time>2026-04-06T11:23:00.904Z</time></trkpt><trkpt lat="49.7532293" lon="15.0260292"><ele>357.0</ele><time>2026-04-06T11:23:01.904Z</time></trkpt><trkpt lat="49.7533675" lon="15.0259806"><ele>357.0</ele><time>2026-04-06T11:23:02.903Z</time></trkpt><trkpt lat="49.7535084" lon="15.025947"><ele>358.6666666666667</ele><time>2026-04-06T11:23:03.904Z</time></trkpt><trkpt lat="49.7536673" lon="15.0259414"><ele>360.33333333333337</ele><time>2026-04-06T11:23:04.904Z</time></trkpt><trkpt lat="49.753825" lon="15.0259309"><ele>362.0</ele><time>2026-04-06T11:23:05.903Z</time></trkpt><trkpt lat="49.7539611" lon="15.025931"><ele>362.0</ele><time>2026-04-06T11:23:06.904Z</time></trkpt><trkpt lat="49.7540563" lon="15.0259268"><ele>362.0</ele><time>2026-04-06T11:23:07.904Z</time></trkpt><trkpt lat="49.7541483" lon="15.0259072"><ele>362.0</ele><time>2026-04-06T11:23:09.903Z</time></trkpt><trkpt lat="49.7541673" lon="15.0257866"><ele>362.0</ele><time>2026-04-06T11:23:12.903Z</time></trkpt><trkpt lat="49.7540386" lon="15.025682"><ele>362.0</ele><time>2026-04-06T11:23:14.903Z</time></trkpt><trkpt lat="49.7539362" lon="15.0256475"><ele>363.5</ele><time>2026-04-06T11:23:15.904Z</time></trkpt><trkpt lat="49.7538414" lon="15.0255096"><ele>365.0</ele><time>2026-04-06T11:23:16.904Z</time></trkpt><trkpt lat="49.7537503" lon="15.0253319"><ele>366.5</ele><time>2026-04-06T11:23:17.904Z</time></trkpt><trkpt lat="49.7536709" lon="15.0251501"><ele>368.0</ele><time>2026-04-06T11:23:18.904Z</time></trkpt><trkpt lat="49.7536071" lon="15.0249528"><ele>368.75</ele><time>2026-04-06T11:23:19.904Z</time></trkpt><trkpt lat="49.7535632" lon="15.024746"><ele>369.5</ele><time>2026-04-06T11:23:20.904Z</time></trkpt><trkpt lat="49.753535" lon="15.024548"><ele>370.25</ele><time>2026-04-06T11:23:21.904Z</time></trkpt><trkpt lat="49.7535275" lon="15.0243553"><ele>371.0</ele><time>2026-04-06T11:23:22.904Z</time></trkpt><trkpt lat="49.753537" lon="15.024173"><ele>371.6666666666667</ele><time>2026-04-06T11:23:23.904Z</time></trkpt><trkpt lat="49.7535723" lon="15.0239866"><ele>372.3333333333333</ele><time>2026-04-06T11:23:24.903Z</time></trkpt><trkpt lat="49.7536349" lon="15.0237681"><ele>373.0</ele><time>2026-04-06T11:23:25.904Z</time></trkpt><trkpt lat="49.7537079" lon="15.0235246"><ele>373.3333333333333</ele><time>2026-04-06T11:23:26.903Z</time></trkpt><trkpt lat="49.7537871" lon="15.023261"><ele>373.6666666666667</ele><time>2026-04-06T11:23:27.903Z</time></trkpt><trkpt lat="49.7538667" lon="15.022978"><ele>374.0</ele><time>2026-04-06T11:23:28.903Z</time></trkpt><trkpt lat="49.7539435" lon="15.0226885"><ele>374.0</ele><time>2026-04-06T11:23:29.904Z</time></trkpt><trkpt lat="49.7540164" lon="15.0223994"><ele>374.0</ele><time>2026-04-06T11:23:30.904Z</time></trkpt><trkpt lat="49.7540846" lon="15.0221225"><ele>374.0</ele><time>2026-04-06T11:23:31.903Z</time></trkpt><trkpt lat="49.7541487" lon="15.021867"><ele>374.0</ele><time>2026-04-06T11:23:32.903Z</time></trkpt><trkpt lat="49.7542065" lon="15.0216265"><ele>374.0</ele><time>2026-04-06T11:23:33.903Z</time></trkpt><trkpt lat="49.7542591" lon="15.0213728"><ele>374.0</ele><time>2026-04-06T11:23:34.904Z</time></trkpt><trkpt lat="49.754303" lon="15.0211047"><ele>374.0</ele><time>2026-04-06T11:23:35.903Z</time></trkpt><trkpt lat="49.7543411" lon="15.0208204"><ele>374.0</ele><time>2026-04-06T11:23:36.904Z</time></trkpt><trkpt lat="49.7543807" lon="15.0205213"><ele>374.0</ele><time>2026-04-06T11:23:37.904Z</time></trkpt><trkpt lat="49.7544199" lon="15.0202096"><ele>373.33333333333337</ele><time>2026-04-06T11:23:38.903Z</time></trkpt><trkpt lat="49.7544503" lon="15.0198955"><ele>372.6666666666667</ele><time>2026-04-06T11:23:39.904Z</time></trkpt><trkpt lat="49.7544814" lon="15.0195999"><ele>372.0</ele><time>2026-04-06T11:23:40.904Z</time></trkpt><trkpt lat="49.7545078" lon="15.0193299"><ele>371.0</ele><time>2026-04-06T11:23:41.904Z</time></trkpt><trkpt lat="49.7545241" lon="15.0190848"><ele>370.0</ele><time>2026-04-06T11:23:42.904Z</time></trkpt><trkpt lat="49.7545176" lon="15.0188513"><ele>369.0</ele><time>2026-04-06T11:23:43.903Z</time></trkpt><trkpt lat="49.7545063" lon="15.0186085"><ele>369.0</ele><time>2026-04-06T11:23:44.903Z</time></trkpt><trkpt lat="49.7544982" lon="15.0183624"><ele>369.0</ele><time>2026-04-06T11:23:45.904Z</time></trkpt><trkpt lat="49.7544892" lon="15.0181078"><ele>369.0</ele><time>2026-04-06T11:23:46.904Z</time></trkpt><trkpt lat="49.7544718" lon="15.017842"><ele>368.6666666666667</ele><time>2026-04-06T11:23:47.903Z</time></trkpt><trkpt lat="49.754448" lon="15.0175812"><ele>368.33333333333337</ele><time>2026-04-06T11:23:48.904Z</time></trkpt><trkpt lat="49.7544236" lon="15.0173362"><ele>368.0</ele><time>2026-04-06T11:23:49.904Z</time></trkpt><trkpt lat="49.7543984" lon="15.0171037"><ele>370.25</ele><time>2026-04-06T11:23:50.904Z</time></trkpt><trkpt lat="49.7543611" lon="15.0168855"><ele>372.5</ele><time>2026-04-06T11:23:51.903Z</time></trkpt><trkpt lat="49.7543077" lon="15.0166793"><ele>374.75</ele><time>2026-04-06T11:23:52.903Z</time></trkpt><trkpt lat="49.7542352" lon="15.0164917"><ele>377.0</ele><time>2026-04-06T11:23:53.904Z</time></trkpt><trkpt lat="49.7541574" lon="15.0163283"><ele>377.0</ele><time>2026-04-06T11:23:54.904Z</time></trkpt><trkpt lat="49.7540933" lon="15.0161732"><ele>377.0</ele><time>2026-04-06T11:23:55.904Z</time></trkpt><trkpt lat="49.7540459" lon="15.0160353"><ele>377.0</ele><time>2026-04-06T11:23:56.903Z</time></trkpt><trkpt lat="49.7540037" lon="15.0159363"><ele>377.0</ele><time>2026-04-06T11:23:57.904Z</time></trkpt><trkpt lat="49.753934" lon="15.0158215"><ele>377.0</ele><time>2026-04-06T11:23:59.903Z</time></trkpt><trkpt lat="49.7538358" lon="15.0157754"><ele>377.0</ele><time>2026-04-06T11:24:01.903Z</time></trkpt><trkpt lat="49.7537501" lon="15.0157946"><ele>377.0</ele><time>2026-04-06T11:24:02.903Z</time></trkpt><trkpt lat="49.7536567" lon="15.015837"><ele>377.0</ele><time>2026-04-06T11:24:03.903Z</time></trkpt><trkpt lat="49.7535531" lon="15.01588"><ele>377.0</ele><time>2026-04-06T11:24:04.903Z</time></trkpt><trkpt lat="49.7534412" lon="15.0159227"><ele>377.0</ele><time>2026-04-06T11:24:05.903Z</time></trkpt><trkpt lat="49.7532938" lon="15.015927"><ele>379.0</ele><time>2026-04-06T11:24:06.903Z</time></trkpt><trkpt lat="49.7531305" lon="15.015889"><ele>381.0</ele><time>2026-04-06T11:24:07.904Z</time></trkpt><trkpt lat="49.7529598" lon="15.0158058"><ele>383.0</ele><time>2026-04-06T11:24:08.904Z</time></trkpt><trkpt lat="49.7528049" lon="15.0157015"><ele>382.0</ele><time>2026-04-06T11:24:09.904Z</time></trkpt><trkpt lat="49.7526466" lon="15.0155818"><ele>381.0</ele><time>2026-04-06T11:24:10.903Z</time></trkpt><trkpt lat="49.7524989" lon="15.0154703"><ele>380.0</ele><time>2026-04-06T11:24:11.904Z</time></trkpt><trkpt lat="49.7523656" lon="15.0153568"><ele>380.0</ele><time>2026-04-06T11:24:12.904Z</time></trkpt><trkpt lat="49.7522402" lon="15.0152473"><ele>380.0</ele><time>2026-04-06T11:24:13.904Z</time></trkpt><trkpt lat="49.7521241" lon="15.0151392"><ele>380.0</ele><time>2026-04-06T11:24:14.904Z</time></trkpt><trkpt lat="49.7520231" lon="15.0150379"><ele>380.0</ele><time>2026-04-06T11:24:15.904Z</time></trkpt><trkpt lat="49.7519387" lon="15.0149269"><ele>378.6</ele><time>2026-04-06T11:24:16.904Z</time></trkpt><trkpt lat="49.7518646" lon="15.0148238"><ele>377.2</ele><time>2026-04-06T11:24:17.904Z</time></trkpt><trkpt lat="49.7517999" lon="15.0147629"><ele>375.79999999999995</ele><time>2026-04-06T11:24:18.904Z</time></trkpt><trkpt lat="49.7517099" lon="15.0147814"><ele>374.4</ele><time>2026-04-06T11:24:20.903Z</time></trkpt><trkpt lat="49.7517279" lon="15.0149087"><ele>373.0</ele><time>2026-04-06T11:24:22.903Z</time></trkpt><trkpt lat="49.7518525" lon="15.014951"><ele>374.4</ele><time>2026-04-06T11:24:24.903Z</time></trkpt><trkpt lat="49.7519252" lon="15.0149839"><ele>375.79999999999995</ele><time>2026-04-06T11:24:25.903Z</time></trkpt><trkpt lat="49.7519981" lon="15.0150509"><ele>377.2</ele><time>2026-04-06T11:24:26.903Z</time></trkpt><trkpt lat="49.7520759" lon="15.0151385"><ele>378.6</ele><time>2026-04-06T11:24:27.904Z</time></trkpt><trkpt lat="49.7521617" lon="15.0152273"><ele>380.0</ele><time>2026-04-06T11:24:28.904Z</time></trkpt><trkpt lat="49.7522435" lon="15.0153142"><ele>380.0</ele><time>2026-04-06T11:24:29.903Z</time></trkpt><trkpt lat="49.7523116" lon="15.0153919"><ele>380.0</ele><time>2026-04-06T11:24:30.904Z</time></trkpt><trkpt lat="49.7523744" lon="15.0154382"><ele>380.0</ele><time>2026-04-06T11:24:31.904Z</time></trkpt><trkpt lat="49.7524346" lon="15.015397"><ele>380.0</ele><time>2026-04-06T11:24:32.904Z</time></trkpt><trkpt lat="49.7524762" lon="15.0153029"><ele>380.0</ele><time>2026-04-06T11:24:33.903Z</time></trkpt><trkpt lat="49.7525076" lon="15.015183"><ele>380.0</ele><time>2026-04-06T11:24:34.903Z</time></trkpt><trkpt lat="49.7525443" lon="15.0150356"><ele>381.0</ele><time>2026-04-06T11:24:35.904Z</time></trkpt><trkpt lat="49.7525678" lon="15.0148867"><ele>382.0</ele><time>2026-04-06T11:24:36.903Z</time></trkpt><trkpt lat="49.7525678" lon="15.0147308"><ele>383.0</ele><time>2026-04-06T11:24:37.903Z</time></trkpt><trkpt lat="49.7525583" lon="15.0145379"><ele>384.0</ele><time>2026-04-06T11:24:38.904Z</time></trkpt><trkpt lat="49.7525591" lon="15.0142992"><ele>384.33333333333337</ele><time>2026-04-06T11:24:39.904Z</time></trkpt><trkpt lat="49.7525689" lon="15.0140275"><ele>384.6666666666667</ele><time>2026-04-06T11:24:40.903Z</time></trkpt><trkpt lat="49.752588" lon="15.0137354"><ele>385.0</ele><time>2026-04-06T11:24:41.904Z</time></trkpt><trkpt lat="49.7526028" lon="15.0134459"><ele>385.6666666666667</ele><time>2026-04-06T11:24:42.903Z</time></trkpt><trkpt lat="49.7526034" lon="15.0131591"><ele>386.33333333333337</ele><time>2026-04-06T11:24:43.903Z</time></trkpt><trkpt lat="49.752593" lon="15.0128958"><ele>387.0</ele><time>2026-04-06T11:24:44.903Z</time></trkpt><trkpt lat="49.7525859" lon="15.0126584"><ele>387.75</ele><time>2026-04-06T11:24:45.903Z</time></trkpt><trkpt lat="49.7525932" lon="15.0124197"><ele>388.5</ele><time>2026-04-06T11:24:46.904Z</time></trkpt><trkpt lat="49.7526008" lon="15.0121914"><ele>389.25</ele><time>2026-04-06T11:24:47.903Z</time></trkpt><trkpt lat="49.752581" lon="15.0119727"><ele>390.0</ele><time>2026-04-06T11:24:48.903Z</time></trkpt><trkpt lat="49.752532" lon="15.0117469"><ele>392.33333333333337</ele><time>2026-04-06T11:24:49.904Z</time></trkpt><trkpt lat="49.7524641" lon="15.011488"><ele>394.6666666666667</ele><time>2026-04-06T11:24:50.904Z</time></trkpt><trkpt lat="49.7523912" lon="15.011193"><ele>397.0</ele><time>2026-04-06T11:24:51.904Z</time></trkpt><trkpt lat="49.7523232" lon="15.0108912"><ele>398.6666666666667</ele><time>2026-04-06T11:24:52.904Z</time></trkpt><trkpt lat="49.7522458" lon="15.010584"><ele>400.33333333333337</ele><time>2026-04-06T11:24:53.904Z</time></trkpt><trkpt lat="49.7521558" lon="15.0102664"><ele>402.0</ele><time>2026-04-06T11:24:54.904Z</time></trkpt><trkpt lat="49.7520581" lon="15.0099442"><ele>403.0</ele><time>2026-04-06T11:24:55.903Z</time></trkpt><trkpt lat="49.7519667" lon="15.0096266"><ele>404.0</ele><time>2026-04-06T11:24:56.903Z</time></trkpt><trkpt lat="49.7518915" lon="15.0092906"><ele>407.5</ele><time>2026-04-06T11:24:57.904Z</time></trkpt><trkpt lat="49.7518183" lon="15.008948"><ele>411.0</ele><time>2026-04-06T11:24:58.905Z</time></trkpt><trkpt lat="49.7517302" lon="15.008631"><ele>411.0</ele><time>2026-04-06T11:24:59.904Z</time></trkpt><trkpt lat="49.7516314" lon="15.0083305"><ele>411.0</ele><time>2026-04-06T11:25:00.905Z</time></trkpt><trkpt lat="49.7515274" lon="15.008009"><ele>413.0</ele><time>2026-04-06T11:25:01.904Z</time></trkpt><trkpt lat="49.7514366" lon="15.0076767"><ele>415.0</ele><time>2026-04-06T11:25:02.905Z</time></trkpt><trkpt lat="49.7513467" lon="15.0073525"><ele>417.0</ele><time>2026-04-06T11:25:03.904Z</time></trkpt><trkpt lat="49.7512552" lon="15.0070512"><ele>419.0</ele><time>2026-04-06T11:25:04.905Z</time></trkpt><trkpt lat="49.7511605" lon="15.0067495"><ele>421.0</ele><time>2026-04-06T11:25:05.904Z</time></trkpt><trkpt lat="49.7510664" lon="15.0064336"><ele>424.0</ele><time>2026-04-06T11:25:06.905Z</time></trkpt><trkpt lat="49.7509667" lon="15.0061016"><ele>427.0</ele><time>2026-04-06T11:25:07.904Z</time></trkpt><trkpt lat="49.7508755" lon="15.0057643"><ele>427.33333333333337</ele><time>2026-04-06T11:25:08.904Z</time></trkpt><trkpt lat="49.7507968" lon="15.0054501"><ele>427.66666666666663</ele><time>2026-04-06T11:25:09.904Z</time></trkpt><trkpt lat="49.7507196" lon="15.0051464"><ele>428.0</ele><time>2026-04-06T11:25:10.904Z</time></trkpt><trkpt lat="49.7506402" lon="15.004839"><ele>428.66666666666663</ele><time>2026-04-06T11:25:11.905Z</time></trkpt><trkpt lat="49.7505629" lon="15.0045331"><ele>429.33333333333337</ele><time>2026-04-06T11:25:12.904Z</time></trkpt><trkpt lat="49.7504906" lon="15.0042264"><ele>430.0</ele><time>2026-04-06T11:25:13.904Z</time></trkpt><trkpt lat="49.7504213" lon="15.0039174"><ele>430.33333333333337</ele><time>2026-04-06T11:25:14.905Z</time></trkpt><trkpt lat="49.7503508" lon="15.003599"><ele>430.66666666666663</ele><time>2026-04-06T11:25:15.904Z</time></trkpt><trkpt lat="49.7502855" lon="15.0032961"><ele>431.0</ele><time>2026-04-06T11:25:16.905Z</time></trkpt><trkpt lat="49.750221" lon="15.0030228"><ele>433.0</ele><time>2026-04-06T11:25:17.905Z</time></trkpt><trkpt lat="49.7501622" lon="15.0027723"><ele>435.0</ele><time>2026-04-06T11:25:18.905Z</time></trkpt><trkpt lat="49.7501072" lon="15.0025349"><ele>437.0</ele><time>2026-04-06T11:25:19.905Z</time></trkpt><trkpt lat="49.7500573" lon="15.0023187"><ele>437.6</ele><time>2026-04-06T11:25:20.904Z</time></trkpt><trkpt lat="49.7500124" lon="15.0021343"><ele>438.20000000000005</ele><time>2026-04-06T11:25:21.904Z</time></trkpt><trkpt lat="49.7499746" lon="15.0019719"><ele>438.8</ele><time>2026-04-06T11:25:22.905Z</time></trkpt><trkpt lat="49.7499344" lon="15.0018347"><ele>439.4</ele><time>2026-04-06T11:25:23.905Z</time></trkpt><trkpt lat="49.7498856" lon="15.0017225"><ele>440.0</ele><time>2026-04-06T11:25:24.905Z</time></trkpt><trkpt lat="49.7498303" lon="15.0016421"><ele>439.99999999999994</ele><time>2026-04-06T11:25:25.905Z</time></trkpt><trkpt lat="49.7497742" lon="15.0015866"><ele>440.0</ele><time>2026-04-06T11:25:26.904Z</time></trkpt><trkpt lat="49.7497114" lon="15.0015416"><ele>440.0</ele><time>2026-04-06T11:25:27.904Z</time></trkpt><trkpt lat="49.7496446" lon="15.0015055"><ele>440.0</ele><time>2026-04-06T11:25:28.904Z</time></trkpt><trkpt lat="49.749581" lon="15.0014794"><ele>439.99999999999994</ele><time>2026-04-06T11:25:29.905Z</time></trkpt><trkpt lat="49.7494759" lon="15.0014296"><ele>440.0</ele><time>2026-04-06T11:25:31.905Z</time></trkpt><trkpt lat="49.7494075" lon="15.0014519"><ele>440.99999999999994</ele><time>2026-04-06T11:25:33.905Z</time></trkpt><trkpt lat="49.7493393" lon="15.0015146"><ele>442.0</ele><time>2026-04-06T11:25:35.905Z</time></trkpt><trkpt lat="49.7492414" lon="15.0015462"><ele>443.0</ele><time>2026-04-06T11:25:37.904Z</time></trkpt><trkpt lat="49.7491638" lon="15.0015605"><ele>444.0</ele><time>2026-04-06T11:25:39.905Z</time></trkpt><trkpt lat="49.7490835" lon="15.0015646"><ele>444.99999999999994</ele><time>2026-04-06T11:25:42.905Z</time></trkpt><trkpt lat="49.749089" lon="15.0014649"><ele>446.0</ele><time>2026-04-06T11:25:45.905Z</time></trkpt><trkpt lat="49.7491583" lon="15.0014598"><ele>446.0</ele><time>2026-04-06T11:25:47.904Z</time></trkpt><trkpt lat="49.7492481" lon="15.0014907"><ele>446.0</ele><time>2026-04-06T11:25:49.904Z</time></trkpt><trkpt lat="49.7493494" lon="15.0015282"><ele>446.0</ele><time>2026-04-06T11:25:51.904Z</time></trkpt><trkpt lat="49.7494411" lon="15.0015036"><ele>446.0</ele><time>2026-04-06T11:25:53.904Z</time></trkpt><trkpt lat="49.7495401" lon="15.0014581"><ele>446.0</ele><time>2026-04-06T11:25:55.904Z</time></trkpt><trkpt lat="49.7496479" lon="15.0014763"><ele>444.99999999999994</ele><time>2026-04-06T11:25:57.904Z</time></trkpt><trkpt lat="49.7497085" lon="15.0015228"><ele>444.0</ele><time>2026-04-06T11:25:58.904Z</time></trkpt><trkpt lat="49.7497667" lon="15.0015793"><ele>443.0</ele><time>2026-04-06T11:25:59.904Z</time></trkpt><trkpt lat="49.7498528" lon="15.0016865"><ele>442.0</ele><time>2026-04-06T11:26:01.905Z</time></trkpt><trkpt lat="49.7499238" lon="15.0017055"><ele>440.99999999999994</ele><time>2026-04-06T11:26:03.905Z</time></trkpt><trkpt lat="49.7499522" lon="15.0016166"><ele>440.0</ele><time>2026-04-06T11:26:05.905Z</time></trkpt><trkpt lat="49.7499452" lon="15.0014886"><ele>440.0</ele><time>2026-04-06T11:26:07.905Z</time></trkpt><trkpt lat="49.7499286" lon="15.0013472"><ele>440.0</ele><time>2026-04-06T11:26:09.905Z</time></trkpt><trkpt lat="49.7498938" lon="15.0011816"><ele>440.0</ele><time>2026-04-06T11:26:11.904Z</time></trkpt><trkpt lat="49.7498579" lon="15.0010158"><ele>440.0</ele><time>2026-04-06T11:26:13.904Z</time></trkpt><trkpt lat="49.7498185" lon="15.0008781"><ele>440.0</ele><time>2026-04-06T11:26:15.905Z</time></trkpt><trkpt lat="49.7497949" lon="15.0006609"><ele>439.8333333333333</ele><time>2026-04-06T11:26:17.904Z</time></trkpt><trkpt lat="49.7497831" lon="15.0005203"><ele>439.66666666666663</ele><time>2026-04-06T11:26:18.905Z</time></trkpt><trkpt lat="49.7497644" lon="15.0003778"><ele>439.5</ele><time>2026-04-06T11:26:19.905Z</time></trkpt><trkpt lat="49.7497292" lon="15.000243"><ele>439.33333333333337</ele><time>2026-04-06T11:26:20.905Z</time></trkpt><trkpt lat="49.7497124" lon="15.0001205"><ele>439.1666666666667</ele><time>2026-04-06T11:26:21.904Z</time></trkpt><trkpt lat="49.7496881" lon="14.99999"><ele>439.0</ele><time>2026-04-06T11:26:22.904Z</time></trkpt><trkpt lat="49.7496675" lon="14.9998498"><ele>439.0</ele><time>2026-04-06T11:26:23.904Z</time></trkpt><trkpt lat="49.7496433" lon="14.9997093"><ele>439.0</ele><time>2026-04-06T11:26:24.904Z</time></trkpt><trkpt lat="49.7496121" lon="14.9995727"><ele>439.0</ele><time>2026-04-06T11:26:25.904Z</time></trkpt><trkpt lat="49.7495865" lon="14.9994304"><ele>439.0</ele><time>2026-04-06T11:26:26.904Z</time></trkpt><trkpt lat="49.7495704" lon="14.9992851"><ele>439.0</ele><time>2026-04-06T11:26:27.905Z</time></trkpt><trkpt lat="49.749559" lon="14.9991467"><ele>439.1666666666667</ele><time>2026-04-06T11:26:28.905Z</time></trkpt><trkpt lat="49.7495543" lon="14.9990167"><ele>439.33333333333337</ele><time>2026-04-06T11:26:29.905Z</time></trkpt><trkpt lat="49.7495449" lon="14.9988996"><ele>439.5</ele><time>2026-04-06T11:26:30.905Z</time></trkpt><trkpt lat="49.7495217" lon="14.9987889"><ele>439.66666666666663</ele><time>2026-04-06T11:26:31.904Z</time></trkpt><trkpt lat="49.7495041" lon="14.998667"><ele>439.8333333333333</ele><time>2026-04-06T11:26:32.905Z</time></trkpt><trkpt lat="49.7494952" lon="14.9985285"><ele>440.0</ele><time>2026-04-06T11:26:33.905Z</time></trkpt><trkpt lat="49.7494815" lon="14.9983865"><ele>440.66666666666663</ele><time>2026-04-06T11:26:34.905Z</time></trkpt><trkpt lat="49.749466" lon="14.9982532"><ele>441.3333333333333</ele><time>2026-04-06T11:26:35.904Z</time></trkpt><trkpt lat="49.7494555" lon="14.9981226"><ele>442.0</ele><time>2026-04-06T11:26:36.905Z</time></trkpt><trkpt lat="49.7494399" lon="14.9979911"><ele>442.66666666666663</ele><time>2026-04-06T11:26:37.905Z</time></trkpt><trkpt lat="49.7494273" lon="14.9978632"><ele>443.3333333333333</ele><time>2026-04-06T11:26:38.904Z</time></trkpt><trkpt lat="49.7494226" lon="14.9977248"><ele>444.0</ele><time>2026-04-06T11:26:39.905Z</time></trkpt><trkpt lat="49.7494102" lon="14.9975777"><ele>444.79999999999995</ele><time>2026-04-06T11:26:40.905Z</time></trkpt><trkpt lat="49.7493891" lon="14.9974365"><ele>445.59999999999997</ele><time>2026-04-06T11:26:41.904Z</time></trkpt><trkpt lat="49.7493727" lon="14.9972928"><ele>446.4</ele><time>2026-04-06T11:26:42.905Z</time></trkpt><trkpt lat="49.7493693" lon="14.9971462"><ele>447.2</ele><time>2026-04-06T11:26:43.904Z</time></trkpt><trkpt lat="49.7493621" lon="14.9969967"><ele>448.0</ele><time>2026-04-06T11:26:44.904Z</time></trkpt><trkpt lat="49.749343" lon="14.9968182"><ele>452.75</ele><time>2026-04-06T11:26:45.905Z</time></trkpt><trkpt lat="49.7493185" lon="14.9966058"><ele>457.5</ele><time>2026-04-06T11:26:46.904Z</time></trkpt><trkpt lat="49.7492844" lon="14.9963977"><ele>462.25</ele><time>2026-04-06T11:26:47.904Z</time></trkpt><trkpt lat="49.749244" lon="14.996219"><ele>467.0</ele><time>2026-04-06T11:26:48.905Z</time></trkpt><trkpt lat="49.7492114" lon="14.9960677"><ele>467.0</ele><time>2026-04-06T11:26:49.904Z</time></trkpt><trkpt lat="49.7491887" lon="14.9959373"><ele>467.00000000000006</ele><time>2026-04-06T11:26:50.904Z</time></trkpt><trkpt lat="49.7491759" lon="14.995812"><ele>467.00000000000006</ele><time>2026-04-06T11:26:51.905Z</time></trkpt><trkpt lat="49.7491698" lon="14.9956592"><ele>467.0</ele><time>2026-04-06T11:26:52.905Z</time></trkpt><trkpt lat="49.7491668" lon="14.9954803"><ele>467.0</ele><time>2026-04-06T11:26:53.904Z</time></trkpt><trkpt lat="49.7491593" lon="14.9953146"><ele>466.8</ele><time>2026-04-06T11:26:54.904Z</time></trkpt><trkpt lat="49.7491504" lon="14.995157"><ele>466.6</ele><time>2026-04-06T11:26:55.905Z</time></trkpt><trkpt lat="49.7491461" lon="14.9949961"><ele>466.40000000000003</ele><time>2026-04-06T11:26:56.905Z</time></trkpt><trkpt lat="49.7491497" lon="14.9948383"><ele>466.20000000000005</ele><time>2026-04-06T11:26:57.905Z</time></trkpt><trkpt lat="49.7491547" lon="14.9946882"><ele>466.0</ele><time>2026-04-06T11:26:58.904Z</time></trkpt><trkpt lat="49.7491558" lon="14.9945582"><ele>465.7142857142857</ele><time>2026-04-06T11:26:59.904Z</time></trkpt><trkpt lat="49.7491512" lon="14.9944369"><ele>465.42857142857144</ele><time>2026-04-06T11:27:00.905Z</time></trkpt><trkpt lat="49.7491462" lon="14.9943275"><ele>465.14285714285717</ele><time>2026-04-06T11:27:01.905Z</time></trkpt><trkpt lat="49.7491474" lon="14.9942167"><ele>464.8571428571429</ele><time>2026-04-06T11:27:02.905Z</time></trkpt><trkpt lat="49.7491464" lon="14.9941082"><ele>464.57142857142856</ele><time>2026-04-06T11:27:03.905Z</time></trkpt><trkpt lat="49.7491421" lon="14.9939968"><ele>464.28571428571433</ele><time>2026-04-06T11:27:04.905Z</time></trkpt><trkpt lat="49.7491389" lon="14.9938843"><ele>464.00000000000006</ele><time>2026-04-06T11:27:05.904Z</time></trkpt><trkpt lat="49.7491326" lon="14.9937441"><ele>463.6</ele><time>2026-04-06T11:27:06.904Z</time></trkpt><trkpt lat="49.749125" lon="14.9935864"><ele>463.2</ele><time>2026-04-06T11:27:07.904Z</time></trkpt><trkpt lat="49.7491187" lon="14.9934254"><ele>462.80000000000007</ele><time>2026-04-06T11:27:08.904Z</time></trkpt><trkpt lat="49.7491161" lon="14.9932646"><ele>462.40000000000003</ele><time>2026-04-06T11:27:09.904Z</time></trkpt><trkpt lat="49.7491086" lon="14.9930902"><ele>462.0</ele><time>2026-04-06T11:27:10.905Z</time></trkpt><trkpt lat="49.749091" lon="14.9929089"><ele>461.6</ele><time>2026-04-06T11:27:11.904Z</time></trkpt><trkpt lat="49.7490722" lon="14.9927549"><ele>461.20000000000005</ele><time>2026-04-06T11:27:12.905Z</time></trkpt><trkpt lat="49.7490583" lon="14.9926131"><ele>460.8</ele><time>2026-04-06T11:27:13.904Z</time></trkpt><trkpt lat="49.749048" lon="14.9924635"><ele>460.4</ele><time>2026-04-06T11:27:14.905Z</time></trkpt><trkpt lat="49.7490346" lon="14.9923116"><ele>460.0</ele><time>2026-04-06T11:27:15.904Z</time></trkpt><trkpt lat="49.7490236" lon="14.9921738"><ele>460.00000000000006</ele><time>2026-04-06T11:27:16.904Z</time></trkpt><trkpt lat="49.7490257" lon="14.9920702"><ele>460.0</ele><time>2026-04-06T11:27:17.905Z</time></trkpt><trkpt lat="49.7490442" lon="14.9918793"><ele>460.0</ele><time>2026-04-06T11:27:19.904Z</time></trkpt><trkpt lat="49.749057" lon="14.9917568"><ele>460.0</ele><time>2026-04-06T11:27:20.905Z</time></trkpt><trkpt lat="49.749066" lon="14.991637"><ele>460.00000000000006</ele><time>2026-04-06T11:27:21.904Z</time></trkpt><trkpt lat="49.7490764" lon="14.9915374"><ele>460.0</ele><time>2026-04-06T11:27:22.905Z</time></trkpt><trkpt lat="49.7490861" lon="14.991425"><ele>460.00000000000006</ele><time>2026-04-06T11:27:24.905Z</time></trkpt><trkpt lat="49.7490895" lon="14.9913105"><ele>460.0</ele><time>2026-04-06T11:27:26.906Z</time></trkpt><trkpt lat="49.7490824" lon="14.9911518"><ele>460.0</ele><time>2026-04-06T11:27:28.905Z</time></trkpt><trkpt lat="49.7490816" lon="14.9910494"><ele>460.0</ele><time>2026-04-06T11:27:29.906Z</time></trkpt><trkpt lat="49.7490893" lon="14.9909216"><ele>460.00000000000006</ele><time>2026-04-06T11:27:30.905Z</time></trkpt><trkpt lat="49.7490986" lon="14.9907893"><ele>460.0</ele><time>2026-04-06T11:27:31.905Z</time></trkpt><trkpt lat="49.7491076" lon="14.9906605"><ele>460.50000000000006</ele><time>2026-04-06T11:27:32.906Z</time></trkpt><trkpt lat="49.7491152" lon="14.9905421"><ele>461.0</ele><time>2026-04-06T11:27:33.906Z</time></trkpt><trkpt lat="49.749118" lon="14.9904222"><ele>461.5</ele><time>2026-04-06T11:27:34.905Z</time></trkpt><trkpt lat="49.7491263" lon="14.9902942"><ele>462.0</ele><time>2026-04-06T11:27:35.906Z</time></trkpt><trkpt lat="49.7491403" lon="14.9901536"><ele>462.50000000000006</ele><time>2026-04-06T11:27:36.906Z</time></trkpt><trkpt lat="49.7491562" lon="14.990006"><ele>463.0</ele><time>2026-04-06T11:27:37.905Z</time></trkpt><trkpt lat="49.7491717" lon="14.9898613"><ele>463.50000000000006</ele><time>2026-04-06T11:27:38.905Z</time></trkpt><trkpt lat="49.7491824" lon="14.9897302"><ele>464.0</ele><time>2026-04-06T11:27:39.905Z</time></trkpt><trkpt lat="49.7491922" lon="14.9896117"><ele>464.5</ele><time>2026-04-06T11:27:40.905Z</time></trkpt><trkpt lat="49.7492005" lon="14.9894924"><ele>465.0</ele><time>2026-04-06T11:27:41.905Z</time></trkpt><trkpt lat="49.7492032" lon="14.9893736"><ele>465.50000000000006</ele><time>2026-04-06T11:27:42.906Z</time></trkpt><trkpt lat="49.7492098" lon="14.9892712"><ele>466.0</ele><time>2026-04-06T11:27:43.905Z</time></trkpt><trkpt lat="49.7492167" lon="14.9891544"><ele>466.00000000000006</ele><time>2026-04-06T11:27:44.905Z</time></trkpt><trkpt lat="49.7492312" lon="14.9890344"><ele>466.0</ele><time>2026-04-06T11:27:45.905Z</time></trkpt><trkpt lat="49.7492469" lon="14.9889097"><ele>466.0</ele><time>2026-04-06T11:27:46.905Z</time></trkpt><trkpt lat="49.7492613" lon="14.9887874"><ele>466.0</ele><time>2026-04-06T11:27:47.906Z</time></trkpt><trkpt lat="49.7492656" lon="14.9886664"><ele>466.00000000000006</ele><time>2026-04-06T11:27:48.906Z</time></trkpt><trkpt lat="49.7492725" lon="14.9885542"><ele>466.0</ele><time>2026-04-06T11:27:49.906Z</time></trkpt><trkpt lat="49.7492946" lon="14.9884496"><ele>466.00000000000006</ele><time>2026-04-06T11:27:50.905Z</time></trkpt><trkpt lat="49.7493168" lon="14.9883276"><ele>466.0</ele><time>2026-04-06T11:27:51.905Z</time></trkpt><trkpt lat="49.7493302" lon="14.9881959"><ele>466.0</ele><time>2026-04-06T11:27:52.906Z</time></trkpt><trkpt lat="49.749345" lon="14.9880764"><ele>466.0</ele><time>2026-04-06T11:27:53.906Z</time></trkpt><trkpt lat="49.7493601" lon="14.9879712"><ele>466.00000000000006</ele><time>2026-04-06T11:27:54.905Z</time></trkpt><trkpt lat="49.749378" lon="14.987846"><ele>466.0</ele><time>2026-04-06T11:27:55.905Z</time></trkpt><trkpt lat="49.7494006" lon="14.987712"><ele>469.00000000000006</ele><time>2026-04-06T11:27:56.906Z</time></trkpt><trkpt lat="49.7494334" lon="14.9875879"><ele>472.0</ele><time>2026-04-06T11:27:57.906Z</time></trkpt><trkpt lat="49.7494424" lon="14.98747"><ele>475.0</ele><time>2026-04-06T11:27:58.905Z</time></trkpt><trkpt lat="49.7494333" lon="14.9873682"><ele>478.0</ele><time>2026-04-06T11:27:59.905Z</time></trkpt><trkpt lat="49.7494517" lon="14.987246"><ele>481.00000000000006</ele><time>2026-04-06T11:28:00.905Z</time></trkpt><trkpt lat="49.7494506" lon="14.9871455"><ele>484.0</ele><time>2026-04-06T11:28:01.905Z</time></trkpt><trkpt lat="49.7494828" lon="14.9870005"><ele>484.00000000000006</ele><time>2026-04-06T11:28:03.905Z</time></trkpt><trkpt lat="49.7495333" lon="14.9868513"><ele>484.0</ele><time>2026-04-06T11:28:05.905Z</time></trkpt><trkpt lat="49.7495634" lon="14.986764"><ele>484.0</ele><time>2026-04-06T11:28:10.906Z</time></trkpt><trkpt lat="49.7495764" lon="14.9866489"><ele>484.0</ele><time>2026-04-06T11:28:17.905Z</time></trkpt><trkpt lat="49.7495898" lon="14.9864801"><ele>484.00000000000006</ele><time>2026-04-06T11:28:19.905Z</time></trkpt><trkpt lat="49.7496059" lon="14.986369"><ele>484.0</ele><time>2026-04-06T11:28:20.905Z</time></trkpt><trkpt lat="49.7496248" lon="14.9862376"><ele>484.0</ele><time>2026-04-06T11:28:21.905Z</time></trkpt><trkpt lat="49.7496342" lon="14.9860819"><ele>484.0</ele><time>2026-04-06T11:28:22.906Z</time></trkpt><trkpt lat="49.7496407" lon="14.9858948"><ele>484.0</ele><time>2026-04-06T11:28:23.906Z</time></trkpt><trkpt lat="49.7496706" lon="14.9856521"><ele>484.0</ele><time>2026-04-06T11:28:24.906Z</time></trkpt><trkpt lat="49.7497121" lon="14.9854055"><ele>483.5</ele><time>2026-04-06T11:28:25.906Z</time></trkpt><trkpt lat="49.7497336" lon="14.9851824"><ele>483.0</ele><time>2026-04-06T11:28:26.906Z</time></trkpt><trkpt lat="49.7497395" lon="14.9849932"><ele>482.5</ele><time>2026-04-06T11:28:27.906Z</time></trkpt><trkpt lat="49.7497248" lon="14.9848101"><ele>482.0</ele><time>2026-04-06T11:28:28.905Z</time></trkpt><trkpt lat="49.7496919" lon="14.9846425"><ele>481.8</ele><time>2026-04-06T11:28:29.905Z</time></trkpt><trkpt lat="49.7496564" lon="14.9845104"><ele>481.6</ele><time>2026-04-06T11:28:30.905Z</time></trkpt><trkpt lat="49.7496419" lon="14.984406"><ele>481.40000000000003</ele><time>2026-04-06T11:28:31.906Z</time></trkpt><trkpt lat="49.749647" lon="14.9841869"><ele>481.20000000000005</ele><time>2026-04-06T11:28:33.906Z</time></trkpt><trkpt lat="49.7496532" lon="14.984012"><ele>481.0</ele><time>2026-04-06T11:28:34.905Z</time></trkpt><trkpt lat="49.7496653" lon="14.9838022"><ele>481.0</ele><time>2026-04-06T11:28:35.906Z</time></trkpt><trkpt lat="49.749686" lon="14.983567"><ele>481.0</ele><time>2026-04-06T11:28:36.905Z</time></trkpt><trkpt lat="49.7497165" lon="14.9833126"><ele>481.0</ele><time>2026-04-06T11:28:37.905Z</time></trkpt><trkpt lat="49.7497527" lon="14.9830382"><ele>481.0</ele><time>2026-04-06T11:28:38.906Z</time></trkpt><trkpt lat="49.7497891" lon="14.9827455"><ele>481.0</ele><time>2026-04-06T11:28:39.905Z</time></trkpt><trkpt lat="49.7498274" lon="14.9824407"><ele>481.0</ele><time>2026-04-06T11:28:40.906Z</time></trkpt><trkpt lat="49.7498682" lon="14.9821255"><ele>481.0</ele><time>2026-04-06T11:28:41.905Z</time></trkpt><trkpt lat="49.7499079" lon="14.9818031"><ele>481.0</ele><time>2026-04-06T11:28:42.906Z</time></trkpt><trkpt lat="49.7499474" lon="14.9814844"><ele>481.0</ele><time>2026-04-06T11:28:43.905Z</time></trkpt><trkpt lat="49.7499869" lon="14.9811698"><ele>482.0</ele><time>2026-04-06T11:28:44.906Z</time></trkpt><trkpt lat="49.7500314" lon="14.9808575"><ele>483.0</ele><time>2026-04-06T11:28:45.906Z</time></trkpt><trkpt lat="49.7500723" lon="14.9805429"><ele>484.0</ele><time>2026-04-06T11:28:46.906Z</time></trkpt><trkpt lat="49.7501167" lon="14.9802293"><ele>484.6666666666667</ele><time>2026-04-06T11:28:47.906Z</time></trkpt><trkpt lat="49.7501667" lon="14.9799246"><ele>485.33333333333337</ele><time>2026-04-06T11:28:48.905Z</time></trkpt><trkpt lat="49.7502157" lon="14.9796179"><ele>486.0</ele><time>2026-04-06T11:28:49.905Z</time></trkpt><trkpt lat="49.7502686" lon="14.9793313"><ele>485.0</ele><time>2026-04-06T11:28:50.905Z</time></trkpt><trkpt lat="49.7503251" lon="14.9790736"><ele>484.0</ele><time>2026-04-06T11:28:51.906Z</time></trkpt><trkpt lat="49.7503804" lon="14.9788323"><ele>483.0</ele><time>2026-04-06T11:28:52.906Z</time></trkpt><trkpt lat="49.7504347" lon="14.9786135"><ele>483.0</ele><time>2026-04-06T11:28:53.905Z</time></trkpt><trkpt lat="49.750483" lon="14.9783988"><ele>483.0</ele><time>2026-04-06T11:28:54.905Z</time></trkpt><trkpt lat="49.7505318" lon="14.9781705"><ele>483.0</ele><time>2026-04-06T11:28:55.905Z</time></trkpt><trkpt lat="49.7505854" lon="14.9779271"><ele>483.66666666666663</ele><time>2026-04-06T11:28:56.906Z</time></trkpt><trkpt lat="49.7506292" lon="14.9776614"><ele>484.3333333333333</ele><time>2026-04-06T11:28:57.905Z</time></trkpt><trkpt lat="49.7506524" lon="14.9773764"><ele>485.0</ele><time>2026-04-06T11:28:58.905Z</time></trkpt><trkpt lat="49.7506489" lon="14.9771057"><ele>486.0</ele><time>2026-04-06T11:28:59.905Z</time></trkpt><trkpt lat="49.7506269" lon="14.9768545"><ele>487.0</ele><time>2026-04-06T11:29:00.905Z</time></trkpt><trkpt lat="49.7505952" lon="14.9766066"><ele>488.0</ele><time>2026-04-06T11:29:01.905Z</time></trkpt><trkpt lat="49.7505795" lon="14.9763559"><ele>488.66666666666663</ele><time>2026-04-06T11:29:02.906Z</time></trkpt><trkpt lat="49.7505978" lon="14.9760966"><ele>489.33333333333337</ele><time>2026-04-06T11:29:03.905Z</time></trkpt><trkpt lat="49.7506486" lon="14.975843"><ele>490.0</ele><time>2026-04-06T11:29:04.905Z</time></trkpt><trkpt lat="49.7507217" lon="14.9755747"><ele>490.6666666666667</ele><time>2026-04-06T11:29:05.905Z</time></trkpt><trkpt lat="49.7508299" lon="14.9753157"><ele>491.33333333333337</ele><time>2026-04-06T11:29:06.905Z</time></trkpt><trkpt lat="49.7509436" lon="14.9750783"><ele>492.0</ele><time>2026-04-06T11:29:07.905Z</time></trkpt><trkpt lat="49.7510412" lon="14.9748646"><ele>492.0</ele><time>2026-04-06T11:29:08.905Z</time></trkpt><trkpt lat="49.7511337" lon="14.9746621"><ele>492.0</ele><time>2026-04-06T11:29:09.906Z</time></trkpt><trkpt lat="49.7512199" lon="14.9744728"><ele>492.0</ele><time>2026-04-06T11:29:10.906Z</time></trkpt><trkpt lat="49.7512911" lon="14.9743214"><ele>492.0</ele><time>2026-04-06T11:29:11.905Z</time></trkpt><trkpt lat="49.7513408" lon="14.9742138"><ele>492.0</ele><time>2026-04-06T11:29:12.906Z</time></trkpt><trkpt lat="49.7513852" lon="14.9741315"><ele>492.0</ele><time>2026-04-06T11:29:14.905Z</time></trkpt><trkpt lat="49.7514607" lon="14.9741079"><ele>492.0</ele><time>2026-04-06T11:29:19.905Z</time></trkpt><trkpt lat="49.7515506" lon="14.9741361"><ele>492.0</ele><time>2026-04-06T11:29:21.906Z</time></trkpt><trkpt lat="49.7516373" lon="14.9741689"><ele>492.0</ele><time>2026-04-06T11:29:22.905Z</time></trkpt><trkpt lat="49.7517339" lon="14.9742081"><ele>492.0</ele><time>2026-04-06T11:29:23.905Z</time></trkpt><trkpt lat="49.751838" lon="14.9742492"><ele>491.8</ele><time>2026-04-06T11:29:24.906Z</time></trkpt><trkpt lat="49.7519418" lon="14.9742885"><ele>491.6</ele><time>2026-04-06T11:29:25.905Z</time></trkpt><trkpt lat="49.7520345" lon="14.9742992"><ele>491.40000000000003</ele><time>2026-04-06T11:29:26.905Z</time></trkpt><trkpt lat="49.7521141" lon="14.9742595"><ele>491.20000000000005</ele><time>2026-04-06T11:29:27.906Z</time></trkpt><trkpt lat="49.752169" lon="14.9741702"><ele>491.0</ele><time>2026-04-06T11:29:28.906Z</time></trkpt><trkpt lat="49.7521973" lon="14.9740416"><ele>491.0</ele><time>2026-04-06T11:29:29.905Z</time></trkpt><trkpt lat="49.7521972" lon="14.9738919"><ele>491.0</ele><time>2026-04-06T11:29:30.905Z</time></trkpt><trkpt lat="49.7521919" lon="14.9737254"><ele>491.0</ele><time>2026-04-06T11:29:31.906Z</time></trkpt><trkpt lat="49.7521908" lon="14.9735424"><ele>491.0</ele><time>2026-04-06T11:29:32.906Z</time></trkpt><trkpt lat="49.7521933" lon="14.9733404"><ele>491.25</ele><time>2026-04-06T11:29:33.905Z</time></trkpt><trkpt lat="49.7522074" lon="14.9731301"><ele>491.5</ele><time>2026-04-06T11:29:34.905Z</time></trkpt><trkpt lat="49.7522459" lon="14.9729009"><ele>491.75</ele><time>2026-04-06T11:29:35.905Z</time></trkpt><trkpt lat="49.752293" lon="14.9726715"><ele>492.0</ele><time>2026-04-06T11:29:36.906Z</time></trkpt><trkpt lat="49.752344" lon="14.9724411"><ele>492.66666666666663</ele><time>2026-04-06T11:29:37.906Z</time></trkpt><trkpt lat="49.7523962" lon="14.9721944"><ele>493.3333333333333</ele><time>2026-04-06T11:29:38.906Z</time></trkpt><trkpt lat="49.7524568" lon="14.9719322"><ele>494.0</ele><time>2026-04-06T11:29:39.906Z</time></trkpt><trkpt lat="49.7525184" lon="14.9716697"><ele>494.3333333333333</ele><time>2026-04-06T11:29:40.906Z</time></trkpt><trkpt lat="49.7525807" lon="14.9714022"><ele>494.66666666666663</ele><time>2026-04-06T11:29:41.906Z</time></trkpt><trkpt lat="49.7526433" lon="14.9711512"><ele>495.0</ele><time>2026-04-06T11:29:42.905Z</time></trkpt><trkpt lat="49.7527072" lon="14.9708798"><ele>493.66666666666663</ele><time>2026-04-06T11:29:43.906Z</time></trkpt><trkpt lat="49.7527693" lon="14.9705926"><ele>492.3333333333333</ele><time>2026-04-06T11:29:44.905Z</time></trkpt><trkpt lat="49.7528301" lon="14.9703169"><ele>491.0</ele><time>2026-04-06T11:29:45.906Z</time></trkpt><trkpt lat="49.7528956" lon="14.9700391"><ele>490.66666666666663</ele><time>2026-04-06T11:29:46.905Z</time></trkpt><trkpt lat="49.7529636" lon="14.9697691"><ele>490.33333333333337</ele><time>2026-04-06T11:29:47.906Z</time></trkpt><trkpt lat="49.753031" lon="14.9694988"><ele>490.0</ele><time>2026-04-06T11:29:48.906Z</time></trkpt><trkpt lat="49.7530987" lon="14.9692274"><ele>490.33333333333337</ele><time>2026-04-06T11:29:49.906Z</time></trkpt><trkpt lat="49.7531659" lon="14.9689516"><ele>490.66666666666663</ele><time>2026-04-06T11:29:50.906Z</time></trkpt><trkpt lat="49.7532317" lon="14.9686731"><ele>491.0</ele><time>2026-04-06T11:29:51.905Z</time></trkpt><trkpt lat="49.753294" lon="14.9683972"><ele>491.0</ele><time>2026-04-06T11:29:52.906Z</time></trkpt><trkpt lat="49.753359" lon="14.9681237"><ele>491.0</ele><time>2026-04-06T11:29:53.905Z</time></trkpt><trkpt lat="49.7534257" lon="14.9678529"><ele>491.0</ele><time>2026-04-06T11:29:54.906Z</time></trkpt><trkpt lat="49.7534927" lon="14.9675868"><ele>490.66666666666663</ele><time>2026-04-06T11:29:55.905Z</time></trkpt><trkpt lat="49.7535534" lon="14.9673225"><ele>490.33333333333337</ele><time>2026-04-06T11:29:56.906Z</time></trkpt><trkpt lat="49.753614" lon="14.9670565"><ele>490.0</ele><time>2026-04-06T11:29:57.906Z</time></trkpt><trkpt lat="49.7536772" lon="14.9668007"><ele>490.33333333333337</ele><time>2026-04-06T11:29:58.906Z</time></trkpt><trkpt lat="49.7537455" lon="14.9665541"><ele>490.66666666666663</ele><time>2026-04-06T11:29:59.906Z</time></trkpt><trkpt lat="49.7538288" lon="14.9663163"><ele>491.0</ele><time>2026-04-06T11:30:00.905Z</time></trkpt><trkpt lat="49.7539292" lon="14.966091"><ele>491.0</ele><time>2026-04-06T11:30:01.906Z</time></trkpt><trkpt lat="49.7540408" lon="14.9658674"><ele>491.0</ele><time>2026-04-06T11:30:02.905Z</time></trkpt><trkpt lat="49.7541574" lon="14.9656393"><ele>491.0</ele><time>2026-04-06T11:30:03.906Z</time></trkpt><trkpt lat="49.7542782" lon="14.9654064"><ele>490.0</ele><time>2026-04-06T11:30:04.906Z</time></trkpt><trkpt lat="49.754406" lon="14.9651714"><ele>489.0</ele><time>2026-04-06T11:30:05.905Z</time></trkpt><trkpt lat="49.7545349" lon="14.9649301"><ele>488.0</ele><time>2026-04-06T11:30:06.906Z</time></trkpt><trkpt lat="49.7546642" lon="14.9646811"><ele>488.0</ele><time>2026-04-06T11:30:07.906Z</time></trkpt><trkpt lat="49.7547953" lon="14.9644303"><ele>488.0</ele><time>2026-04-06T11:30:08.905Z</time></trkpt><trkpt lat="49.7549187" lon="14.9641815"><ele>488.0</ele><time>2026-04-06T11:30:09.906Z</time></trkpt><trkpt lat="49.7550275" lon="14.9639283"><ele>487.66666666666663</ele><time>2026-04-06T11:30:10.906Z</time></trkpt><trkpt lat="49.7551182" lon="14.9636752"><ele>487.33333333333337</ele><time>2026-04-06T11:30:11.905Z</time></trkpt><trkpt lat="49.7551937" lon="14.9634252"><ele>487.0</ele><time>2026-04-06T11:30:12.905Z</time></trkpt><trkpt lat="49.7552553" lon="14.9631834"><ele>487.33333333333337</ele><time>2026-04-06T11:30:13.905Z</time></trkpt><trkpt lat="49.7553082" lon="14.9629557"><ele>487.66666666666663</ele><time>2026-04-06T11:30:14.905Z</time></trkpt><trkpt lat="49.7553573" lon="14.9627382"><ele>488.0</ele><time>2026-04-06T11:30:15.906Z</time></trkpt><trkpt lat="49.7553948" lon="14.9625202"><ele>488.0</ele><time>2026-04-06T11:30:16.906Z</time></trkpt><trkpt lat="49.7554172" lon="14.9623245"><ele>487.99999999999994</ele><time>2026-04-06T11:30:17.906Z</time></trkpt><trkpt lat="49.7554493" lon="14.9621822"><ele>487.99999999999994</ele><time>2026-04-06T11:30:18.905Z</time></trkpt><trkpt lat="49.7555063" lon="14.9620911"><ele>488.0</ele><time>2026-04-06T11:30:19.906Z</time></trkpt><trkpt lat="49.755586" lon="14.9620346"><ele>488.0</ele><time>2026-04-06T11:30:20.905Z</time></trkpt><trkpt lat="49.7556859" lon="14.9620004"><ele>488.0</ele><time>2026-04-06T11:30:21.906Z</time></trkpt><trkpt lat="49.7557916" lon="14.9619683"><ele>487.99999999999994</ele><time>2026-04-06T11:30:22.906Z</time></trkpt><trkpt lat="49.755903" lon="14.9619304"><ele>487.99999999999994</ele><time>2026-04-06T11:30:23.905Z</time></trkpt><trkpt lat="49.7560036" lon="14.9618798"><ele>488.0</ele><time>2026-04-06T11:30:24.905Z</time></trkpt><trkpt lat="49.7560802" lon="14.9617916"><ele>488.0</ele><time>2026-04-06T11:30:25.906Z</time></trkpt><trkpt lat="49.756125" lon="14.9616702"><ele>487.4</ele><time>2026-04-06T11:30:26.905Z</time></trkpt><trkpt lat="49.7561367" lon="14.961528"><ele>486.79999999999995</ele><time>2026-04-06T11:30:27.905Z</time></trkpt><trkpt lat="49.7561193" lon="14.9613783"><ele>486.2</ele><time>2026-04-06T11:30:28.906Z</time></trkpt><trkpt lat="49.7560847" lon="14.9612283"><ele>485.6</ele><time>2026-04-06T11:30:29.906Z</time></trkpt><trkpt lat="49.7560498" lon="14.9610761"><ele>485.0</ele><time>2026-04-06T11:30:30.905Z</time></trkpt><trkpt lat="49.7560151" lon="14.9609235"><ele>484.4</ele><time>2026-04-06T11:30:31.906Z</time></trkpt><trkpt lat="49.7559936" lon="14.9607793"><ele>483.8</ele><time>2026-04-06T11:30:32.906Z</time></trkpt><trkpt lat="49.7559989" lon="14.9606428"><ele>483.20000000000005</ele><time>2026-04-06T11:30:33.905Z</time></trkpt><trkpt lat="49.7560229" lon="14.9604989"><ele>482.6</ele><time>2026-04-06T11:30:34.905Z</time></trkpt><trkpt lat="49.7560532" lon="14.9603336"><ele>482.0</ele><time>2026-04-06T11:30:35.905Z</time></trkpt><trkpt lat="49.7560731" lon="14.9601372"><ele>479.75</ele><time>2026-04-06T11:30:36.905Z</time></trkpt><trkpt lat="49.7560832" lon="14.9599248"><ele>477.5</ele><time>2026-04-06T11:30:37.905Z</time></trkpt><trkpt lat="49.7560815" lon="14.9597013"><ele>475.25</ele><time>2026-04-06T11:30:38.905Z</time></trkpt><trkpt lat="49.7560764" lon="14.9594696"><ele>473.0</ele><time>2026-04-06T11:30:39.906Z</time></trkpt><trkpt lat="49.756073" lon="14.9592251"><ele>471.3333333333333</ele><time>2026-04-06T11:30:40.905Z</time></trkpt><trkpt lat="49.7560735" lon="14.958988"><ele>469.66666666666663</ele><time>2026-04-06T11:30:41.905Z</time></trkpt><trkpt lat="49.7560737" lon="14.9587362"><ele>468.0</ele><time>2026-04-06T11:30:42.906Z</time></trkpt><trkpt lat="49.7560718" lon="14.9584718"><ele>467.33333333333337</ele><time>2026-04-06T11:30:43.906Z</time></trkpt><trkpt lat="49.756077" lon="14.9581983"><ele>466.6666666666667</ele><time>2026-04-06T11:30:44.905Z</time></trkpt><trkpt lat="49.7560919" lon="14.957926"><ele>466.0</ele><time>2026-04-06T11:30:45.906Z</time></trkpt><trkpt lat="49.7561046" lon="14.9576386"><ele>465.0</ele><time>2026-04-06T11:30:46.905Z</time></trkpt><trkpt lat="49.7561159" lon="14.9573368"><ele>464.0</ele><time>2026-04-06T11:30:47.905Z</time></trkpt><trkpt lat="49.7561227" lon="14.9570277"><ele>463.0</ele><time>2026-04-06T11:30:48.905Z</time></trkpt><trkpt lat="49.756133" lon="14.956724"><ele>463.0</ele><time>2026-04-06T11:30:49.905Z</time></trkpt><trkpt lat="49.7561467" lon="14.9564531"><ele>463.0</ele><time>2026-04-06T11:30:50.905Z</time></trkpt><trkpt lat="49.7561598" lon="14.956216"><ele>463.0</ele><time>2026-04-06T11:30:51.906Z</time></trkpt><trkpt lat="49.7561729" lon="14.9560012"><ele>463.5</ele><time>2026-04-06T11:30:52.905Z</time></trkpt><trkpt lat="49.7562092" lon="14.9558104"><ele>464.0</ele><time>2026-04-06T11:30:53.906Z</time></trkpt><trkpt lat="49.7562804" lon="14.9556316"><ele>464.5</ele><time>2026-04-06T11:30:54.906Z</time></trkpt><trkpt lat="49.7563875" lon="14.9554693"><ele>465.0</ele><time>2026-04-06T11:30:55.905Z</time></trkpt><trkpt lat="49.7565149" lon="14.9553137"><ele>465.0</ele><time>2026-04-06T11:30:56.906Z</time></trkpt><trkpt lat="49.7566531" lon="14.9551492"><ele>465.0</ele><time>2026-04-06T11:30:57.906Z</time></trkpt><trkpt lat="49.7567928" lon="14.9549797"><ele>465.0</ele><time>2026-04-06T11:30:58.905Z</time></trkpt><trkpt lat="49.7569318" lon="14.9548096"><ele>463.33333333333337</ele><time>2026-04-06T11:30:59.905Z</time></trkpt><trkpt lat="49.7570747" lon="14.9546325"><ele>461.6666666666667</ele><time>2026-04-06T11:31:00.906Z</time></trkpt><trkpt lat="49.757222" lon="14.9544586"><ele>460.0</ele><time>2026-04-06T11:31:01.906Z</time></trkpt><trkpt lat="49.7573741" lon="14.95428"><ele>460.33333333333337</ele><time>2026-04-06T11:31:02.906Z</time></trkpt><trkpt lat="49.7575311" lon="14.9541052"><ele>460.66666666666663</ele><time>2026-04-06T11:31:03.906Z</time></trkpt><trkpt lat="49.7576914" lon="14.9539383"><ele>461.0</ele><time>2026-04-06T11:31:04.905Z</time></trkpt><trkpt lat="49.7578544" lon="14.9537696"><ele>460.25</ele><time>2026-04-06T11:31:05.906Z</time></trkpt><trkpt lat="49.7580023" lon="14.9536061"><ele>459.5</ele><time>2026-04-06T11:31:06.906Z</time></trkpt><trkpt lat="49.7581077" lon="14.9534867"><ele>458.75</ele><time>2026-04-06T11:31:07.905Z</time></trkpt><trkpt lat="49.7581721" lon="14.9534158"><ele>458.0</ele><time>2026-04-06T11:31:08.905Z</time></trkpt><trkpt lat="49.7582171" lon="14.9532875"><ele>458.0</ele><time>2026-04-06T11:31:10.905Z</time></trkpt><trkpt lat="49.7582056" lon="14.9531882"><ele>457.99999999999994</ele><time>2026-04-06T11:31:12.906Z</time></trkpt><trkpt lat="49.7582066" lon="14.9530499"><ele>457.99999999999994</ele><time>2026-04-06T11:31:15.906Z</time></trkpt><trkpt lat="49.7582299" lon="14.9528234"><ele>458.0</ele><time>2026-04-06T11:31:17.905Z</time></trkpt><trkpt lat="49.7582615" lon="14.952654"><ele>458.0</ele><time>2026-04-06T11:31:18.906Z</time></trkpt><trkpt lat="49.7582964" lon="14.95244"><ele>457.3333333333333</ele><time>2026-04-06T11:31:19.905Z</time></trkpt><trkpt lat="49.758329" lon="14.9522052"><ele>456.66666666666663</ele><time>2026-04-06T11:31:20.905Z</time></trkpt><trkpt lat="49.7583605" lon="14.9519728"><ele>456.0</ele><time>2026-04-06T11:31:21.906Z</time></trkpt><trkpt lat="49.7584026" lon="14.9517534"><ele>456.33333333333337</ele><time>2026-04-06T11:31:22.906Z</time></trkpt><trkpt lat="49.7584541" lon="14.9515333"><ele>456.6666666666667</ele><time>2026-04-06T11:31:23.906Z</time></trkpt><trkpt lat="49.7585032" lon="14.9512977"><ele>457.0</ele><time>2026-04-06T11:31:24.905Z</time></trkpt><trkpt lat="49.7585671" lon="14.9510527"><ele>456.0</ele><time>2026-04-06T11:31:25.906Z</time></trkpt><trkpt lat="49.7586444" lon="14.9508119"><ele>455.0</ele><time>2026-04-06T11:31:26.905Z</time></trkpt><trkpt lat="49.758726" lon="14.9505858"><ele>454.0</ele><time>2026-04-06T11:31:27.905Z</time></trkpt><trkpt lat="49.7588154" lon="14.9503633"><ele>454.0</ele><time>2026-04-06T11:31:28.906Z</time></trkpt><trkpt lat="49.7589068" lon="14.9501362"><ele>454.0</ele><time>2026-04-06T11:31:29.906Z</time></trkpt><trkpt lat="49.7589961" lon="14.9499279"><ele>454.0</ele><time>2026-04-06T11:31:30.905Z</time></trkpt><trkpt lat="49.7590777" lon="14.9497369"><ele>453.25</ele><time>2026-04-06T11:31:31.906Z</time></trkpt><trkpt lat="49.7591498" lon="14.9495616"><ele>452.5</ele><time>2026-04-06T11:31:32.905Z</time></trkpt><trkpt lat="49.7592137" lon="14.9493939"><ele>451.75</ele><time>2026-04-06T11:31:33.906Z</time></trkpt><trkpt lat="49.7592797" lon="14.9492122"><ele>451.0</ele><time>2026-04-06T11:31:34.906Z</time></trkpt><trkpt lat="49.7593451" lon="14.949007"><ele>451.5</ele><time>2026-04-06T11:31:35.906Z</time></trkpt><trkpt lat="49.759405" lon="14.9488026"><ele>452.0</ele><time>2026-04-06T11:31:36.906Z</time></trkpt><trkpt lat="49.7594626" lon="14.9486048"><ele>452.5</ele><time>2026-04-06T11:31:37.911Z</time></trkpt><trkpt lat="49.7595134" lon="14.9484207"><ele>453.0</ele><time>2026-04-06T11:31:38.911Z</time></trkpt><trkpt lat="49.759572" lon="14.9482572"><ele>453.0</ele><time>2026-04-06T11:31:39.91Z</time></trkpt><trkpt lat="49.759632" lon="14.9481078"><ele>452.99999999999994</ele><time>2026-04-06T11:31:40.91Z</time></trkpt><trkpt lat="49.7596906" lon="14.9479808"><ele>452.99999999999994</ele><time>2026-04-06T11:31:41.911Z</time></trkpt><trkpt lat="49.7597482" lon="14.9478505"><ele>453.0</ele><time>2026-04-06T11:31:42.911Z</time></trkpt><trkpt lat="49.7598094" lon="14.9477273"><ele>453.0</ele><time>2026-04-06T11:31:43.911Z</time></trkpt><trkpt lat="49.7598681" lon="14.9475991"><ele>452.4</ele><time>2026-04-06T11:31:44.91Z</time></trkpt><trkpt lat="49.7599212" lon="14.9474725"><ele>451.79999999999995</ele><time>2026-04-06T11:31:45.91Z</time></trkpt><trkpt lat="49.7599812" lon="14.9473604"><ele>451.2</ele><time>2026-04-06T11:31:46.911Z</time></trkpt><trkpt lat="49.7600598" lon="14.9472808"><ele>450.6</ele><time>2026-04-06T11:31:47.91Z</time></trkpt><trkpt lat="49.7601572" lon="14.9472113"><ele>450.0</ele><time>2026-04-06T11:31:48.911Z</time></trkpt><trkpt lat="49.7602554" lon="14.9471218"><ele>450.0</ele><time>2026-04-06T11:31:49.911Z</time></trkpt><trkpt lat="49.7603631" lon="14.9470218"><ele>450.0</ele><time>2026-04-06T11:31:50.911Z</time></trkpt><trkpt lat="49.7604629" lon="14.9469396"><ele>450.0</ele><time>2026-04-06T11:31:51.911Z</time></trkpt><trkpt lat="49.760555" lon="14.9468667"><ele>450.0</ele><time>2026-04-06T11:31:52.911Z</time></trkpt><trkpt lat="49.7606571" lon="14.9467998"><ele>450.0</ele><time>2026-04-06T11:31:53.91Z</time></trkpt><trkpt lat="49.760754" lon="14.9467554"><ele>450.0</ele><time>2026-04-06T11:31:54.911Z</time></trkpt><trkpt lat="49.7608508" lon="14.9467177"><ele>450.0</ele><time>2026-04-06T11:31:55.91Z</time></trkpt><trkpt lat="49.7609503" lon="14.9466708"><ele>450.0</ele><time>2026-04-06T11:31:56.91Z</time></trkpt><trkpt lat="49.7610566" lon="14.9466275"><ele>450.0</ele><time>2026-04-06T11:31:57.91Z</time></trkpt><trkpt lat="49.7611595" lon="14.9465834"><ele>448.0</ele><time>2026-04-06T11:31:58.911Z</time></trkpt><trkpt lat="49.7612603" lon="14.9465397"><ele>446.0</ele><time>2026-04-06T11:31:59.911Z</time></trkpt><trkpt lat="49.761368" lon="14.9464986"><ele>444.0</ele><time>2026-04-06T11:32:00.911Z</time></trkpt><trkpt lat="49.7614736" lon="14.9464631"><ele>442.0</ele><time>2026-04-06T11:32:01.91Z</time></trkpt><trkpt lat="49.7615674" lon="14.9464517"><ele>440.0</ele><time>2026-04-06T11:32:02.911Z</time></trkpt><trkpt lat="49.7616669" lon="14.9464523"><ele>439.99999999999994</ele><time>2026-04-06T11:32:03.91Z</time></trkpt><trkpt lat="49.7617717" lon="14.9464515"><ele>440.0</ele><time>2026-04-06T11:32:04.91Z</time></trkpt><trkpt lat="49.761865" lon="14.9464359"><ele>440.0</ele><time>2026-04-06T11:32:05.911Z</time></trkpt><trkpt lat="49.761947" lon="14.9464328"><ele>440.0</ele><time>2026-04-06T11:32:06.91Z</time></trkpt><trkpt lat="49.762023" lon="14.9464394"><ele>439.99999999999994</ele><time>2026-04-06T11:32:07.91Z</time></trkpt><trkpt lat="49.7620975" lon="14.9464546"><ele>440.0</ele><time>2026-04-06T11:32:08.911Z</time></trkpt><trkpt lat="49.7621725" lon="14.946472"><ele>441.6</ele><time>2026-04-06T11:32:09.911Z</time></trkpt><trkpt lat="49.762254" lon="14.9464998"><ele>443.2</ele><time>2026-04-06T11:32:10.911Z</time></trkpt><trkpt lat="49.7623432" lon="14.9465304"><ele>444.79999999999995</ele><time>2026-04-06T11:32:11.911Z</time></trkpt><trkpt lat="49.7624364" lon="14.9465537"><ele>446.4</ele><time>2026-04-06T11:32:12.911Z</time></trkpt><trkpt lat="49.7625408" lon="14.9465641"><ele>448.0</ele><time>2026-04-06T11:32:13.911Z</time></trkpt><trkpt lat="49.7626423" lon="14.9465589"><ele>449.0</ele><time>2026-04-06T11:32:14.91Z</time></trkpt><trkpt lat="49.7627355" lon="14.9465232"><ele>449.99999999999994</ele><time>2026-04-06T11:32:15.911Z</time></trkpt><trkpt lat="49.7628353" lon="14.9464657"><ele>450.99999999999994</ele><time>2026-04-06T11:32:16.91Z</time></trkpt><trkpt lat="49.762941" lon="14.9463839"><ele>452.0</ele><time>2026-04-06T11:32:17.91Z</time></trkpt><trkpt lat="49.7630375" lon="14.9462746"><ele>453.0</ele><time>2026-04-06T11:32:18.911Z</time></trkpt><trkpt lat="49.7631347" lon="14.9461471"><ele>453.0</ele><time>2026-04-06T11:32:19.91Z</time></trkpt><trkpt lat="49.7632396" lon="14.9460186"><ele>452.99999999999994</ele><time>2026-04-06T11:32:20.91Z</time></trkpt><trkpt lat="49.7633251" lon="14.9458871"><ele>452.99999999999994</ele><time>2026-04-06T11:32:21.911Z</time></trkpt><trkpt lat="49.7634033" lon="14.9457795"><ele>453.0</ele><time>2026-04-06T11:32:22.911Z</time></trkpt><trkpt lat="49.7634685" lon="14.9456942"><ele>453.0</ele><time>2026-04-06T11:32:23.911Z</time></trkpt><trkpt lat="49.7635236" lon="14.9456182"><ele>452.42857142857133</ele><time>2026-04-06T11:32:24.91Z</time></trkpt><trkpt lat="49.7635847" lon="14.9455556"><ele>451.85714285714283</ele><time>2026-04-06T11:32:25.91Z</time></trkpt><trkpt lat="49.7636474" lon="14.9455063"><ele>451.2857142857142</ele><time>2026-04-06T11:32:26.91Z</time></trkpt><trkpt lat="49.7637127" lon="14.9454689"><ele>450.71428571428567</ele><time>2026-04-06T11:32:27.91Z</time></trkpt><trkpt lat="49.763783" lon="14.9454408"><ele>450.1428571428571</ele><time>2026-04-06T11:32:28.911Z</time></trkpt><trkpt lat="49.7638607" lon="14.9454127"><ele>449.57142857142856</ele><time>2026-04-06T11:32:29.911Z</time></trkpt><trkpt lat="49.7639391" lon="14.9453922"><ele>449.0</ele><time>2026-04-06T11:32:30.91Z</time></trkpt><trkpt lat="49.7640177" lon="14.9454115"><ele>449.0</ele><time>2026-04-06T11:32:31.91Z</time></trkpt><trkpt lat="49.7640991" lon="14.945477"><ele>449.0</ele><time>2026-04-06T11:32:32.911Z</time></trkpt><trkpt lat="49.7641917" lon="14.9455782"><ele>449.0</ele><time>2026-04-06T11:32:33.911Z</time></trkpt><trkpt lat="49.7642845" lon="14.9456981"><ele>449.0</ele><time>2026-04-06T11:32:34.91Z</time></trkpt><trkpt lat="49.7643742" lon="14.945819"><ele>449.0</ele><time>2026-04-06T11:32:35.911Z</time></trkpt><trkpt lat="49.7644841" lon="14.9459585"><ele>447.5</ele><time>2026-04-06T11:32:36.911Z</time></trkpt><trkpt lat="49.7646037" lon="14.9461009"><ele>446.0</ele><time>2026-04-06T11:32:37.91Z</time></trkpt><trkpt lat="49.7647245" lon="14.9462401"><ele>444.5</ele><time>2026-04-06T11:32:38.91Z</time></trkpt><trkpt lat="49.7648376" lon="14.9463652"><ele>443.0</ele><time>2026-04-06T11:32:39.91Z</time></trkpt><trkpt lat="49.7649532" lon="14.9464404"><ele>443.0</ele><time>2026-04-06T11:32:40.91Z</time></trkpt><trkpt lat="49.7650107" lon="14.9465398"><ele>442.99999999999994</ele><time>2026-04-06T11:32:41.91Z</time></trkpt><trkpt lat="49.7650753" lon="14.946634"><ele>442.99999999999994</ele><time>2026-04-06T11:32:42.911Z</time></trkpt><trkpt lat="49.7651349" lon="14.9467038"><ele>443.0</ele><time>2026-04-06T11:32:43.91Z</time></trkpt><trkpt lat="49.7652566" lon="14.9467072"><ele>443.0</ele><time>2026-04-06T11:32:45.911Z</time></trkpt><trkpt lat="49.7653204" lon="14.9465759"><ele>442.99999999999994</ele><time>2026-04-06T11:32:47.91Z</time></trkpt><trkpt lat="49.7653515" lon="14.9464786"><ele>443.0</ele><time>2026-04-06T11:32:48.91Z</time></trkpt><trkpt lat="49.7653856" lon="14.9463829"><ele>443.0</ele><time>2026-04-06T11:32:49.91Z</time></trkpt><trkpt lat="49.7654145" lon="14.9462487"><ele>443.0</ele><time>2026-04-06T11:32:50.91Z</time></trkpt><trkpt lat="49.7654145" lon="14.9460813"><ele>442.99999999999994</ele><time>2026-04-06T11:32:51.911Z</time></trkpt><trkpt lat="49.7654142" lon="14.9459316"><ele>443.0</ele><time>2026-04-06T11:32:52.911Z</time></trkpt><trkpt lat="49.7654382" lon="14.9457781"><ele>443.0</ele><time>2026-04-06T11:32:53.911Z</time></trkpt><trkpt lat="49.7654787" lon="14.9455835"><ele>443.0</ele><time>2026-04-06T11:32:54.91Z</time></trkpt><trkpt lat="49.7655485" lon="14.9453223"><ele>443.0</ele><time>2026-04-06T11:32:55.91Z</time></trkpt><trkpt lat="49.7656203" lon="14.9450359"><ele>445.3333333333333</ele><time>2026-04-06T11:32:56.911Z</time></trkpt><trkpt lat="49.7656836" lon="14.9447805"><ele>447.66666666666663</ele><time>2026-04-06T11:32:57.91Z</time></trkpt><trkpt lat="49.765748" lon="14.9445412"><ele>450.0</ele><time>2026-04-06T11:32:58.91Z</time></trkpt><trkpt lat="49.7658134" lon="14.9442999"><ele>449.33333333333337</ele><time>2026-04-06T11:32:59.91Z</time></trkpt><trkpt lat="49.7658775" lon="14.9440569"><ele>448.6666666666667</ele><time>2026-04-06T11:33:00.91Z</time></trkpt><trkpt lat="49.7659293" lon="14.9438191"><ele>448.0</ele><time>2026-04-06T11:33:01.911Z</time></trkpt><trkpt lat="49.7659678" lon="14.9435944"><ele>447.6666666666667</ele><time>2026-04-06T11:33:02.91Z</time></trkpt><trkpt lat="49.7659999" lon="14.9433585"><ele>447.33333333333337</ele><time>2026-04-06T11:33:03.911Z</time></trkpt><trkpt lat="49.7660203" lon="14.9431112"><ele>447.0</ele><time>2026-04-06T11:33:04.911Z</time></trkpt><trkpt lat="49.7660366" lon="14.9428405"><ele>444.66666666666663</ele><time>2026-04-06T11:33:05.91Z</time></trkpt><trkpt lat="49.7660407" lon="14.9425309"><ele>442.3333333333333</ele><time>2026-04-06T11:33:06.91Z</time></trkpt><trkpt lat="49.7660339" lon="14.9422254"><ele>440.0</ele><time>2026-04-06T11:33:07.911Z</time></trkpt><trkpt lat="49.7660202" lon="14.9419096"><ele>438.3333333333333</ele><time>2026-04-06T11:33:08.91Z</time></trkpt><trkpt lat="49.7659963" lon="14.9415986"><ele>436.66666666666663</ele><time>2026-04-06T11:33:09.911Z</time></trkpt><trkpt lat="49.7659721" lon="14.9413028"><ele>435.0</ele><time>2026-04-06T11:33:10.91Z</time></trkpt><trkpt lat="49.7659296" lon="14.9410289"><ele>435.33333333333337</ele><time>2026-04-06T11:33:11.91Z</time></trkpt><trkpt lat="49.7658621" lon="14.9407725"><ele>435.6666666666667</ele><time>2026-04-06T11:33:12.911Z</time></trkpt><trkpt lat="49.7657888" lon="14.9405082"><ele>436.0</ele><time>2026-04-06T11:33:13.91Z</time></trkpt><trkpt lat="49.7657291" lon="14.9402563"><ele>437.0</ele><time>2026-04-06T11:33:14.91Z</time></trkpt><trkpt lat="49.7656757" lon="14.940018"><ele>438.0</ele><time>2026-04-06T11:33:15.91Z</time></trkpt><trkpt lat="49.76563" lon="14.9397924"><ele>439.0</ele><time>2026-04-06T11:33:16.911Z</time></trkpt><trkpt lat="49.7655992" lon="14.9395719"><ele>439.0</ele><time>2026-04-06T11:33:17.911Z</time></trkpt><trkpt lat="49.7656025" lon="14.9393688"><ele>439.0</ele><time>2026-04-06T11:33:18.911Z</time></trkpt><trkpt lat="49.7656254" lon="14.9391629"><ele>439.0</ele><time>2026-04-06T11:33:19.91Z</time></trkpt><trkpt lat="49.7656681" lon="14.9389322"><ele>439.0</ele><time>2026-04-06T11:33:20.91Z</time></trkpt><trkpt lat="49.7657259" lon="14.9387007"><ele>438.75</ele><time>2026-04-06T11:33:21.91Z</time></trkpt><trkpt lat="49.7657868" lon="14.9385018"><ele>438.5</ele><time>2026-04-06T11:33:22.91Z</time></trkpt><trkpt lat="49.7658563" lon="14.9383344"><ele>438.25</ele><time>2026-04-06T11:33:23.91Z</time></trkpt><trkpt lat="49.7659387" lon="14.938152"><ele>438.0</ele><time>2026-04-06T11:33:24.911Z</time></trkpt><trkpt lat="49.766039" lon="14.9379615"><ele>437.0</ele><time>2026-04-06T11:33:25.91Z</time></trkpt><trkpt lat="49.7661616" lon="14.9378102"><ele>436.0</ele><time>2026-04-06T11:33:26.91Z</time></trkpt><trkpt lat="49.7662718" lon="14.9376661"><ele>435.0</ele><time>2026-04-06T11:33:27.911Z</time></trkpt><trkpt lat="49.7663903" lon="14.9375514"><ele>434.0</ele><time>2026-04-06T11:33:28.911Z</time></trkpt><trkpt lat="49.7665257" lon="14.9374458"><ele>434.0</ele><time>2026-04-06T11:33:29.91Z</time></trkpt><trkpt lat="49.7666811" lon="14.9373517"><ele>434.0</ele><time>2026-04-06T11:33:30.911Z</time></trkpt><trkpt lat="49.7668542" lon="14.9372268"><ele>434.0</ele><time>2026-04-06T11:33:31.911Z</time></trkpt><trkpt lat="49.7670351" lon="14.937129"><ele>437.0</ele><time>2026-04-06T11:33:32.91Z</time></trkpt><trkpt lat="49.7672039" lon="14.9370478"><ele>440.0</ele><time>2026-04-06T11:33:33.91Z</time></trkpt><trkpt lat="49.7673616" lon="14.9369639"><ele>443.0</ele><time>2026-04-06T11:33:34.911Z</time></trkpt><trkpt lat="49.7675072" lon="14.9368737"><ele>443.0</ele><time>2026-04-06T11:33:35.911Z</time></trkpt><trkpt lat="49.7676377" lon="14.936749"><ele>443.0</ele><time>2026-04-06T11:33:36.911Z</time></trkpt><trkpt lat="49.7677732" lon="14.9365869"><ele>443.0</ele><time>2026-04-06T11:33:37.911Z</time></trkpt><trkpt lat="49.7679498" lon="14.9363798"><ele>441.0</ele><time>2026-04-06T11:33:38.91Z</time></trkpt><trkpt lat="49.7681191" lon="14.9361687"><ele>439.0</ele><time>2026-04-06T11:33:39.911Z</time></trkpt><trkpt lat="49.7682478" lon="14.935988"><ele>437.0</ele><time>2026-04-06T11:33:40.91Z</time></trkpt><trkpt lat="49.7683812" lon="14.9358164"><ele>433.66666666666663</ele><time>2026-04-06T11:33:41.911Z</time></trkpt><trkpt lat="49.7685116" lon="14.9356465"><ele>430.33333333333337</ele><time>2026-04-06T11:33:42.91Z</time></trkpt><trkpt lat="49.768636" lon="14.9354982"><ele>427.0</ele><time>2026-04-06T11:33:43.911Z</time></trkpt><trkpt lat="49.7687473" lon="14.9353854"><ele>427.0</ele><time>2026-04-06T11:33:44.91Z</time></trkpt><trkpt lat="49.7688523" lon="14.9353113"><ele>427.00000000000006</ele><time>2026-04-06T11:33:45.911Z</time></trkpt><trkpt lat="49.7689528" lon="14.9352629"><ele>427.00000000000006</ele><time>2026-04-06T11:33:46.911Z</time></trkpt><trkpt lat="49.7690499" lon="14.9352546"><ele>427.0</ele><time>2026-04-06T11:33:47.91Z</time></trkpt><trkpt lat="49.7691545" lon="14.9352932"><ele>427.0</ele><time>2026-04-06T11:33:48.911Z</time></trkpt><trkpt lat="49.7692699" lon="14.9353468"><ele>426.0</ele><time>2026-04-06T11:33:49.91Z</time></trkpt><trkpt lat="49.7694037" lon="14.9354147"><ele>425.0</ele><time>2026-04-06T11:33:50.91Z</time></trkpt><trkpt lat="49.7695574" lon="14.9354757"><ele>424.0</ele><time>2026-04-06T11:33:51.91Z</time></trkpt><trkpt lat="49.7697247" lon="14.9355414"><ele>424.0</ele><time>2026-04-06T11:33:52.91Z</time></trkpt><trkpt lat="49.7698933" lon="14.9356201"><ele>424.0</ele><time>2026-04-06T11:33:53.91Z</time></trkpt><trkpt lat="49.7700576" lon="14.9357068"><ele>424.0</ele><time>2026-04-06T11:33:54.911Z</time></trkpt><trkpt lat="49.7702266" lon="14.9358146"><ele>420.6666666666667</ele><time>2026-04-06T11:33:55.911Z</time></trkpt><trkpt lat="49.7704038" lon="14.9359223"><ele>417.33333333333337</ele><time>2026-04-06T11:33:56.911Z</time></trkpt><trkpt lat="49.770563" lon="14.9359799"><ele>414.0</ele><time>2026-04-06T11:33:57.91Z</time></trkpt><trkpt lat="49.7707135" lon="14.9360253"><ele>414.0</ele><time>2026-04-06T11:33:58.911Z</time></trkpt><trkpt lat="49.7708526" lon="14.9360917"><ele>414.0</ele><time>2026-04-06T11:33:59.911Z</time></trkpt><trkpt lat="49.7709694" lon="14.9361488"><ele>414.0</ele><time>2026-04-06T11:34:00.911Z</time></trkpt><trkpt lat="49.771068" lon="14.9362347"><ele>414.0</ele><time>2026-04-06T11:34:01.91Z</time></trkpt><trkpt lat="49.7711577" lon="14.9363426"><ele>409.75</ele><time>2026-04-06T11:34:02.91Z</time></trkpt><trkpt lat="49.7712381" lon="14.9364692"><ele>405.5</ele><time>2026-04-06T11:34:03.91Z</time></trkpt><trkpt lat="49.771322" lon="14.9365925"><ele>401.25</ele><time>2026-04-06T11:34:04.91Z</time></trkpt><trkpt lat="49.771416" lon="14.9367042"><ele>397.0</ele><time>2026-04-06T11:34:05.91Z</time></trkpt><trkpt lat="49.7715151" lon="14.936785"><ele>396.20000000000005</ele><time>2026-04-06T11:34:06.911Z</time></trkpt><trkpt lat="49.7716195" lon="14.9368344"><ele>395.4</ele><time>2026-04-06T11:34:07.91Z</time></trkpt><trkpt lat="49.7717281" lon="14.9368324"><ele>394.6</ele><time>2026-04-06T11:34:08.91Z</time></trkpt><trkpt lat="49.7718266" lon="14.9368044"><ele>393.79999999999995</ele><time>2026-04-06T11:34:09.91Z</time></trkpt><trkpt lat="49.7719076" lon="14.9367609"><ele>393.0</ele><time>2026-04-06T11:34:10.91Z</time></trkpt><trkpt lat="49.771983" lon="14.9367068"><ele>391.79999999999995</ele><time>2026-04-06T11:34:11.911Z</time></trkpt><trkpt lat="49.7720483" lon="14.936642"><ele>390.6</ele><time>2026-04-06T11:34:12.91Z</time></trkpt><trkpt lat="49.772105" lon="14.9365694"><ele>389.4</ele><time>2026-04-06T11:34:13.91Z</time></trkpt><trkpt lat="49.7721709" lon="14.9364487"><ele>388.20000000000005</ele><time>2026-04-06T11:34:14.91Z</time></trkpt><trkpt lat="49.7722309" lon="14.936291"><ele>387.0</ele><time>2026-04-06T11:34:15.911Z</time></trkpt><trkpt lat="49.7722794" lon="14.9361165"><ele>387.0</ele><time>2026-04-06T11:34:16.91Z</time></trkpt><trkpt lat="49.7723151" lon="14.9359438"><ele>387.0</ele><time>2026-04-06T11:34:17.91Z</time></trkpt><trkpt lat="49.7723574" lon="14.9357909"><ele>387.0</ele><time>2026-04-06T11:34:18.91Z</time></trkpt><trkpt lat="49.772398" lon="14.9356302"><ele>387.0</ele><time>2026-04-06T11:34:19.91Z</time></trkpt><trkpt lat="49.7724336" lon="14.935483"><ele>387.0</ele><time>2026-04-06T11:34:20.911Z</time></trkpt><trkpt lat="49.7724528" lon="14.9353498"><ele>386.8</ele><time>2026-04-06T11:34:21.911Z</time></trkpt><trkpt lat="49.7724752" lon="14.9352167"><ele>386.6</ele><time>2026-04-06T11:34:22.91Z</time></trkpt><trkpt lat="49.7724912" lon="14.9350654"><ele>386.40000000000003</ele><time>2026-04-06T11:34:23.91Z</time></trkpt><trkpt lat="49.7725054" lon="14.9349116"><ele>386.20000000000005</ele><time>2026-04-06T11:34:24.911Z</time></trkpt><trkpt lat="49.7725224" lon="14.9347715"><ele>386.0</ele><time>2026-04-06T11:34:25.911Z</time></trkpt><trkpt lat="49.7725413" lon="14.9346425"><ele>385.8</ele><time>2026-04-06T11:34:26.91Z</time></trkpt><trkpt lat="49.7725675" lon="14.9345333"><ele>385.6</ele><time>2026-04-06T11:34:27.91Z</time></trkpt><trkpt lat="49.7725987" lon="14.9344409"><ele>385.4</ele><time>2026-04-06T11:34:28.91Z</time></trkpt><trkpt lat="49.7727095" lon="14.9343165"><ele>385.2</ele><time>2026-04-06T11:34:30.911Z</time></trkpt><trkpt lat="49.7728122" lon="14.9342249"><ele>385.0</ele><time>2026-04-06T11:34:31.91Z</time></trkpt><trkpt lat="49.7729378" lon="14.9341165"><ele>381.75</ele><time>2026-04-06T11:34:32.911Z</time></trkpt><trkpt lat="49.7730501" lon="14.9340124"><ele>378.5</ele><time>2026-04-06T11:34:33.911Z</time></trkpt><trkpt lat="49.773149" lon="14.933912"><ele>375.25</ele><time>2026-04-06T11:34:34.91Z</time></trkpt><trkpt lat="49.7732556" lon="14.933829"><ele>372.0</ele><time>2026-04-06T11:34:35.911Z</time></trkpt><trkpt lat="49.7733523" lon="14.9337396"><ele>372.0</ele><time>2026-04-06T11:34:36.911Z</time></trkpt><trkpt lat="49.7734428" lon="14.9336647"><ele>372.0</ele><time>2026-04-06T11:34:37.91Z</time></trkpt><trkpt lat="49.7735324" lon="14.93361"><ele>372.0</ele><time>2026-04-06T11:34:38.911Z</time></trkpt><trkpt lat="49.7736215" lon="14.9335695"><ele>372.0</ele><time>2026-04-06T11:34:39.911Z</time></trkpt><trkpt lat="49.7737163" lon="14.9335485"><ele>372.0</ele><time>2026-04-06T11:34:40.91Z</time></trkpt><trkpt lat="49.7738298" lon="14.9335527"><ele>369.75</ele><time>2026-04-06T11:34:41.911Z</time></trkpt><trkpt lat="49.7739524" lon="14.9335704"><ele>367.5</ele><time>2026-04-06T11:34:42.911Z</time></trkpt><trkpt lat="49.7740658" lon="14.933569"><ele>365.25</ele><time>2026-04-06T11:34:43.911Z</time></trkpt><trkpt lat="49.7741889" lon="14.9335759"><ele>363.0</ele><time>2026-04-06T11:34:44.91Z</time></trkpt><trkpt lat="49.7743232" lon="14.9335896"><ele>362.25</ele><time>2026-04-06T11:34:45.911Z</time></trkpt><trkpt lat="49.7744588" lon="14.93361"><ele>361.5</ele><time>2026-04-06T11:34:46.91Z</time></trkpt><trkpt lat="49.7745938" lon="14.9336209"><ele>360.75</ele><time>2026-04-06T11:34:47.91Z</time></trkpt><trkpt lat="49.7747292" lon="14.9336421"><ele>360.0</ele><time>2026-04-06T11:34:48.91Z</time></trkpt><trkpt lat="49.7748649" lon="14.9336522"><ele>360.0</ele><time>2026-04-06T11:34:49.911Z</time></trkpt><trkpt lat="49.7750093" lon="14.9336604"><ele>360.0</ele><time>2026-04-06T11:34:50.91Z</time></trkpt><trkpt lat="49.775158" lon="14.9336715"><ele>360.0</ele><time>2026-04-06T11:34:51.911Z</time></trkpt><trkpt lat="49.7753082" lon="14.9336793"><ele>360.0</ele><time>2026-04-06T11:34:52.911Z</time></trkpt><trkpt lat="49.7754674" lon="14.9336947"><ele>354.6666666666667</ele><time>2026-04-06T11:34:53.911Z</time></trkpt><trkpt lat="49.7756352" lon="14.9337138"><ele>349.33333333333337</ele><time>2026-04-06T11:34:54.91Z</time></trkpt><trkpt lat="49.7758009" lon="14.9337327"><ele>344.0</ele><time>2026-04-06T11:34:55.91Z</time></trkpt><trkpt lat="49.7759667" lon="14.9337482"><ele>340.0</ele><time>2026-04-06T11:34:56.91Z</time></trkpt><trkpt lat="49.7761241" lon="14.9337669"><ele>336.0</ele><time>2026-04-06T11:34:57.91Z</time></trkpt><trkpt lat="49.7762562" lon="14.9337875"><ele>332.0</ele><time>2026-04-06T11:34:58.91Z</time></trkpt><trkpt lat="49.7763681" lon="14.9338178"><ele>328.0</ele><time>2026-04-06T11:34:59.911Z</time></trkpt><trkpt lat="49.776465" lon="14.9338455"><ele>328.0</ele><time>2026-04-06T11:35:00.911Z</time></trkpt><trkpt lat="49.7765586" lon="14.9338824"><ele>328.0</ele><time>2026-04-06T11:35:01.911Z</time></trkpt><trkpt lat="49.7766173" lon="14.9339319"><ele>328.0</ele><time>2026-04-06T11:35:03.91Z</time></trkpt><trkpt lat="49.7766929" lon="14.9339847"><ele>328.0</ele><time>2026-04-06T11:35:07.91Z</time></trkpt><trkpt lat="49.7767174" lon="14.9340943"><ele>328.0</ele><time>2026-04-06T11:35:10.91Z</time></trkpt><trkpt lat="49.7767664" lon="14.9341855"><ele>328.0</ele><time>2026-04-06T11:35:13.911Z</time></trkpt><trkpt lat="49.7768458" lon="14.9342304"><ele>327.0</ele><time>2026-04-06T11:35:15.911Z</time></trkpt><trkpt lat="49.7769516" lon="14.9342166"><ele>326.0</ele><time>2026-04-06T11:35:17.911Z</time></trkpt><trkpt lat="49.7770257" lon="14.9342069"><ele>325.0</ele><time>2026-04-06T11:35:18.911Z</time></trkpt><trkpt lat="49.7771037" lon="14.9342007"><ele>324.0</ele><time>2026-04-06T11:35:19.911Z</time></trkpt><trkpt lat="49.7771781" lon="14.9342002"><ele>323.0</ele><time>2026-04-06T11:35:20.91Z</time></trkpt><trkpt lat="49.7772449" lon="14.9342008"><ele>322.0</ele><time>2026-04-06T11:35:21.91Z</time></trkpt><trkpt lat="49.77731" lon="14.9342017"><ele>322.0</ele><time>2026-04-06T11:35:22.911Z</time></trkpt><trkpt lat="49.7773786" lon="14.9341951"><ele>322.0</ele><time>2026-04-06T11:35:23.911Z</time></trkpt><trkpt lat="49.7774447" lon="14.9341875"><ele>322.0</ele><time>2026-04-06T11:35:24.91Z</time></trkpt><trkpt lat="49.7775126" lon="14.9341744"><ele>322.0</ele><time>2026-04-06T11:35:25.911Z</time></trkpt><trkpt lat="49.7775815" lon="14.9341702"><ele>322.0</ele><time>2026-04-06T11:35:26.91Z</time></trkpt><trkpt lat="49.7777096" lon="14.9341615"><ele>322.0</ele><time>2026-04-06T11:35:28.911Z</time></trkpt><trkpt lat="49.7777733" lon="14.9341474"><ele>321.8333333333333</ele><time>2026-04-06T11:35:29.911Z</time></trkpt><trkpt lat="49.7778304" lon="14.9340956"><ele>321.66666666666663</ele><time>2026-04-06T11:35:30.91Z</time></trkpt><trkpt lat="49.7778741" lon="14.9340041"><ele>321.5</ele><time>2026-04-06T11:35:31.91Z</time></trkpt><trkpt lat="49.7778932" lon="14.9338905"><ele>321.3333333333333</ele><time>2026-04-06T11:35:32.911Z</time></trkpt><trkpt lat="49.7779599" lon="14.9338195"><ele>321.1666666666667</ele><time>2026-04-06T11:35:33.91Z</time></trkpt><trkpt lat="49.7780242" lon="14.9337502"><ele>321.0</ele><time>2026-04-06T11:35:34.911Z</time></trkpt><trkpt lat="49.778119" lon="14.9337189"><ele>321.0</ele><time>2026-04-06T11:35:35.911Z</time></trkpt><trkpt lat="49.7782332" lon="14.9337077"><ele>321.0</ele><time>2026-04-06T11:35:36.911Z</time></trkpt><trkpt lat="49.7783456" lon="14.9337121"><ele>321.0</ele><time>2026-04-06T11:35:37.91Z</time></trkpt><trkpt lat="49.7784354" lon="14.9337287"><ele>321.0</ele><time>2026-04-06T11:35:38.91Z</time></trkpt><trkpt lat="49.7785453" lon="14.933775"><ele>321.0</ele><time>2026-04-06T11:35:39.911Z</time></trkpt><trkpt lat="49.7786728" lon="14.9338474"><ele>321.25</ele><time>2026-04-06T11:35:40.91Z</time></trkpt><trkpt lat="49.7788022" lon="14.9339409"><ele>321.5</ele><time>2026-04-06T11:35:41.91Z</time></trkpt><trkpt lat="49.7789302" lon="14.9340853"><ele>321.75</ele><time>2026-04-06T11:35:42.91Z</time></trkpt><trkpt lat="49.7790376" lon="14.9342271"><ele>322.0</ele><time>2026-04-06T11:35:43.91Z</time></trkpt><trkpt lat="49.7791594" lon="14.9343556"><ele>322.0</ele><time>2026-04-06T11:35:44.91Z</time></trkpt><trkpt lat="49.779265" lon="14.9345352"><ele>322.0</ele><time>2026-04-06T11:35:45.91Z</time></trkpt><trkpt lat="49.7793588" lon="14.9347068"><ele>322.0</ele><time>2026-04-06T11:35:46.911Z</time></trkpt><trkpt lat="49.7794277" lon="14.9348547"><ele>322.0</ele><time>2026-04-06T11:35:47.911Z</time></trkpt><trkpt lat="49.7794812" lon="14.9349394"><ele>321.40000000000003</ele><time>2026-04-06T11:35:48.911Z</time></trkpt><trkpt lat="49.7795365" lon="14.9349969"><ele>320.8</ele><time>2026-04-06T11:35:49.91Z</time></trkpt><trkpt lat="49.7796313" lon="14.9350182"><ele>320.2</ele><time>2026-04-06T11:35:51.911Z</time></trkpt><trkpt lat="49.7796976" lon="14.9349031"><ele>319.6</ele><time>2026-04-06T11:35:52.91Z</time></trkpt><trkpt lat="49.7797683" lon="14.9347591"><ele>319.0</ele><time>2026-04-06T11:35:53.911Z</time></trkpt><trkpt lat="49.7798334" lon="14.9345819"><ele>319.0</ele><time>2026-04-06T11:35:54.91Z</time></trkpt><trkpt lat="49.7798948" lon="14.9343797"><ele>319.0</ele><time>2026-04-06T11:35:55.91Z</time></trkpt><trkpt lat="49.7799457" lon="14.9341824"><ele>319.0</ele><time>2026-04-06T11:35:56.911Z</time></trkpt><trkpt lat="49.7800036" lon="14.9340137"><ele>319.0</ele><time>2026-04-06T11:35:57.91Z</time></trkpt><trkpt lat="49.7800835" lon="14.9338684"><ele>318.25</ele><time>2026-04-06T11:35:58.91Z</time></trkpt><trkpt lat="49.7801986" lon="14.9337697"><ele>317.5</ele><time>2026-04-06T11:35:59.911Z</time></trkpt><trkpt lat="49.7803305" lon="14.9336824"><ele>316.75</ele><time>2026-04-06T11:36:00.911Z</time></trkpt><trkpt lat="49.780472" lon="14.9335727"><ele>316.0</ele><time>2026-04-06T11:36:01.91Z</time></trkpt><trkpt lat="49.7806272" lon="14.9334511"><ele>315.66666666666663</ele><time>2026-04-06T11:36:02.91Z</time></trkpt><trkpt lat="49.7807941" lon="14.9333226"><ele>315.3333333333333</ele><time>2026-04-06T11:36:03.91Z</time></trkpt><trkpt lat="49.7809713" lon="14.9331943"><ele>315.0</ele><time>2026-04-06T11:36:04.911Z</time></trkpt><trkpt lat="49.7811521" lon="14.9330603"><ele>315.0</ele><time>2026-04-06T11:36:05.91Z</time></trkpt><trkpt lat="49.7813354" lon="14.9329197"><ele>315.0</ele><time>2026-04-06T11:36:06.91Z</time></trkpt><trkpt lat="49.7815264" lon="14.9327728"><ele>315.0</ele><time>2026-04-06T11:36:07.911Z</time></trkpt><trkpt lat="49.7817215" lon="14.9326232"><ele>315.6666666666667</ele><time>2026-04-06T11:36:08.911Z</time></trkpt><trkpt lat="49.7819184" lon="14.9324716"><ele>316.33333333333337</ele><time>2026-04-06T11:36:09.911Z</time></trkpt><trkpt lat="49.7821159" lon="14.9323199"><ele>317.0</ele><time>2026-04-06T11:36:10.91Z</time></trkpt><trkpt lat="49.7823118" lon="14.9321708"><ele>317.0</ele><time>2026-04-06T11:36:11.911Z</time></trkpt><trkpt lat="49.7824907" lon="14.9320312"><ele>317.0</ele><time>2026-04-06T11:36:12.911Z</time></trkpt><trkpt lat="49.7826523" lon="14.9319047"><ele>317.0</ele><time>2026-04-06T11:36:13.911Z</time></trkpt><trkpt lat="49.7828019" lon="14.9317956"><ele>317.2</ele><time>2026-04-06T11:36:14.911Z</time></trkpt><trkpt lat="49.7829349" lon="14.9317083"><ele>317.4</ele><time>2026-04-06T11:36:15.91Z</time></trkpt><trkpt lat="49.7830426" lon="14.931646"><ele>317.6</ele><time>2026-04-06T11:36:16.91Z</time></trkpt><trkpt lat="49.7831175" lon="14.9316008"><ele>317.8</ele><time>2026-04-06T11:36:17.91Z</time></trkpt><trkpt lat="49.7831812" lon="14.9315413"><ele>318.0</ele><time>2026-04-06T11:36:19.911Z</time></trkpt><trkpt lat="49.783061" lon="14.9316145"><ele>318.0</ele><time>2026-04-06T11:36:33.911Z</time></trkpt><trkpt lat="49.782965" lon="14.9316764"><ele>318.0</ele><time>2026-04-06T11:36:34.911Z</time></trkpt><trkpt lat="49.7828534" lon="14.9317614"><ele>318.0</ele><time>2026-04-06T11:36:35.91Z</time></trkpt><trkpt lat="49.7827173" lon="14.9318612"><ele>318.0</ele><time>2026-04-06T11:36:36.911Z</time></trkpt><trkpt lat="49.7825689" lon="14.9319676"><ele>317.6666666666667</ele><time>2026-04-06T11:36:37.91Z</time></trkpt><trkpt lat="49.7824084" lon="14.9320818"><ele>317.33333333333337</ele><time>2026-04-06T11:36:38.91Z</time></trkpt><trkpt lat="49.7822483" lon="14.9322042"><ele>317.0</ele><time>2026-04-06T11:36:39.911Z</time></trkpt><trkpt lat="49.7820964" lon="14.9323171"><ele>317.0</ele><time>2026-04-06T11:36:40.91Z</time></trkpt><trkpt lat="49.7819587" lon="14.9324205"><ele>317.0</ele><time>2026-04-06T11:36:41.91Z</time></trkpt><trkpt lat="49.7818305" lon="14.9325132"><ele>317.0</ele><time>2026-04-06T11:36:42.91Z</time></trkpt><trkpt lat="49.7817139" lon="14.9325916"><ele>317.0</ele><time>2026-04-06T11:36:43.91Z</time></trkpt><trkpt lat="49.7816199" lon="14.9326574"><ele>316.6666666666667</ele><time>2026-04-06T11:36:44.91Z</time></trkpt><trkpt lat="49.7815565" lon="14.9326819"><ele>316.33333333333337</ele><time>2026-04-06T11:36:45.911Z</time></trkpt><trkpt lat="49.7814725" lon="14.9326298"><ele>316.0</ele><time>2026-04-06T11:36:47.91Z</time></trkpt><trkpt lat="49.7814086" lon="14.9324727"><ele>315.6666666666667</ele><time>2026-04-06T11:36:49.911Z</time></trkpt><trkpt lat="49.7813807" lon="14.9323621"><ele>315.3333333333333</ele><time>2026-04-06T11:36:50.911Z</time></trkpt><trkpt lat="49.7813585" lon="14.9322525"><ele>315.0</ele><time>2026-04-06T11:36:51.911Z</time></trkpt><trkpt lat="49.781328" lon="14.9321316"><ele>315.8</ele><time>2026-04-06T11:36:52.911Z</time></trkpt><trkpt lat="49.7812762" lon="14.9319159"><ele>316.6</ele><time>2026-04-06T11:36:53.911Z</time></trkpt><trkpt lat="49.7812585" lon="14.9317621"><ele>317.4</ele><time>2026-04-06T11:36:54.911Z</time></trkpt><trkpt lat="49.7812438" lon="14.9316229"><ele>318.2</ele><time>2026-04-06T11:36:55.911Z</time></trkpt><trkpt lat="49.7812348" lon="14.931474"><ele>319.0</ele><time>2026-04-06T11:36:56.911Z</time></trkpt><trkpt lat="49.7812318" lon="14.9313241"><ele>319.2</ele><time>2026-04-06T11:36:57.911Z</time></trkpt><trkpt lat="49.7812355" lon="14.9311718"><ele>319.4</ele><time>2026-04-06T11:36:58.911Z</time></trkpt><trkpt lat="49.7812501" lon="14.9310274"><ele>319.6</ele><time>2026-04-06T11:36:59.91Z</time></trkpt><trkpt lat="49.7812796" lon="14.9308929"><ele>319.8</ele><time>2026-04-06T11:37:00.91Z</time></trkpt><trkpt lat="49.7813357" lon="14.9307497"><ele>320.0</ele><time>2026-04-06T11:37:01.911Z</time></trkpt><trkpt lat="49.7814165" lon="14.9305796"><ele>320.5</ele><time>2026-04-06T11:37:02.91Z</time></trkpt><trkpt lat="49.7814957" lon="14.9303913"><ele>321.0</ele><time>2026-04-06T11:37:03.91Z</time></trkpt><trkpt lat="49.7815591" lon="14.9302034"><ele>321.5</ele><time>2026-04-06T11:37:04.91Z</time></trkpt><trkpt lat="49.781619" lon="14.9300153"><ele>322.0</ele><time>2026-04-06T11:37:05.911Z</time></trkpt><trkpt lat="49.7816725" lon="14.9298463"><ele>323.75</ele><time>2026-04-06T11:37:06.911Z</time></trkpt><trkpt lat="49.7817011" lon="14.9296795"><ele>325.5</ele><time>2026-04-06T11:37:07.911Z</time></trkpt><trkpt lat="49.78173" lon="14.9295117"><ele>327.25</ele><time>2026-04-06T11:37:08.91Z</time></trkpt><trkpt lat="49.7817606" lon="14.9293409"><ele>329.0</ele><time>2026-04-06T11:37:09.91Z</time></trkpt><trkpt lat="49.781796" lon="14.9291595"><ele>328.25</ele><time>2026-04-06T11:37:10.911Z</time></trkpt><trkpt lat="49.7818374" lon="14.9289657"><ele>327.5</ele><time>2026-04-06T11:37:11.911Z</time></trkpt><trkpt lat="49.7818704" lon="14.928796"><ele>326.75</ele><time>2026-04-06T11:37:12.91Z</time></trkpt><trkpt lat="49.7818795" lon="14.9286351"><ele>326.0</ele><time>2026-04-06T11:37:13.91Z</time></trkpt><trkpt lat="49.7818701" lon="14.9284506"><ele>331.4</ele><time>2026-04-06T11:37:14.91Z</time></trkpt><trkpt lat="49.7818566" lon="14.928284"><ele>336.8</ele><time>2026-04-06T11:37:15.91Z</time></trkpt><trkpt lat="49.7818502" lon="14.9281281"><ele>342.2</ele><time>2026-04-06T11:37:16.911Z</time></trkpt><trkpt lat="49.7818305" lon="14.9279551"><ele>347.59999999999997</ele><time>2026-04-06T11:37:17.91Z</time></trkpt><trkpt lat="49.78179" lon="14.9277777"><ele>353.0</ele><time>2026-04-06T11:37:18.911Z</time></trkpt><trkpt lat="49.7817707" lon="14.9275935"><ele>357.79999999999995</ele><time>2026-04-06T11:37:19.91Z</time></trkpt><trkpt lat="49.7817355" lon="14.9274227"><ele>362.6</ele><time>2026-04-06T11:37:20.91Z</time></trkpt><trkpt lat="49.7817079" lon="14.9272786"><ele>367.4</ele><time>2026-04-06T11:37:21.91Z</time></trkpt><trkpt lat="49.781674" lon="14.9271474"><ele>372.20000000000005</ele><time>2026-04-06T11:37:22.911Z</time></trkpt><trkpt lat="49.7816299" lon="14.9270268"><ele>377.0</ele><time>2026-04-06T11:37:23.911Z</time></trkpt><trkpt lat="49.7815688" lon="14.9269046"><ele>377.0</ele><time>2026-04-06T11:37:24.91Z</time></trkpt><trkpt lat="49.7815062" lon="14.9267815"><ele>377.0</ele><time>2026-04-06T11:37:25.911Z</time></trkpt><trkpt lat="49.781456" lon="14.9266511"><ele>377.0</ele><time>2026-04-06T11:37:26.911Z</time></trkpt><trkpt lat="49.7814111" lon="14.926507"><ele>377.0</ele><time>2026-04-06T11:37:27.91Z</time></trkpt><trkpt lat="49.7813711" lon="14.9263588"><ele>377.0</ele><time>2026-04-06T11:37:28.911Z</time></trkpt><trkpt lat="49.7813317" lon="14.9261985"><ele>377.20000000000005</ele><time>2026-04-06T11:37:29.911Z</time></trkpt><trkpt lat="49.7813011" lon="14.9260296"><ele>377.4</ele><time>2026-04-06T11:37:30.911Z</time></trkpt><trkpt lat="49.7812694" lon="14.9258756"><ele>377.6</ele><time>2026-04-06T11:37:31.91Z</time></trkpt><trkpt lat="49.781231" lon="14.925746"><ele>377.79999999999995</ele><time>2026-04-06T11:37:32.91Z</time></trkpt><trkpt lat="49.7812063" lon="14.9255983"><ele>378.0</ele><time>2026-04-06T11:37:33.91Z</time></trkpt><trkpt lat="49.781185" lon="14.925451"><ele>377.0</ele><time>2026-04-06T11:37:34.91Z</time></trkpt><trkpt lat="49.7811645" lon="14.9252838"><ele>376.0</ele><time>2026-04-06T11:37:35.91Z</time></trkpt><trkpt lat="49.7811437" lon="14.9251238"><ele>375.0</ele><time>2026-04-06T11:37:36.911Z</time></trkpt><trkpt lat="49.7811262" lon="14.9249775"><ele>374.0</ele><time>2026-04-06T11:37:37.911Z</time></trkpt><trkpt lat="49.7811119" lon="14.9248285"><ele>373.0</ele><time>2026-04-06T11:37:38.911Z</time></trkpt><trkpt lat="49.7810946" lon="14.9246925"><ele>373.0</ele><time>2026-04-06T11:37:39.911Z</time></trkpt><trkpt lat="49.7810799" lon="14.9245663"><ele>373.0</ele><time>2026-04-06T11:37:40.911Z</time></trkpt><trkpt lat="49.7810649" lon="14.9244506"><ele>373.0</ele><time>2026-04-06T11:37:41.91Z</time></trkpt><trkpt lat="49.7810317" lon="14.9243336"><ele>373.0</ele><time>2026-04-06T11:37:42.911Z</time></trkpt><trkpt lat="49.7810011" lon="14.9242017"><ele>373.0</ele><time>2026-04-06T11:37:43.911Z</time></trkpt><trkpt lat="49.7809633" lon="14.9240506"><ele>373.0</ele><time>2026-04-06T11:37:44.91Z</time></trkpt><trkpt lat="49.780932" lon="14.9239074"><ele>373.79999999999995</ele><time>2026-04-06T11:37:45.91Z</time></trkpt><trkpt lat="49.7808985" lon="14.9237734"><ele>374.6</ele><time>2026-04-06T11:37:46.91Z</time></trkpt><trkpt lat="49.7808394" lon="14.9236375"><ele>375.4</ele><time>2026-04-06T11:37:47.911Z</time></trkpt><trkpt lat="49.7807932" lon="14.9234884"><ele>376.20000000000005</ele><time>2026-04-06T11:37:48.911Z</time></trkpt><trkpt lat="49.7807432" lon="14.923322"><ele>377.0</ele><time>2026-04-06T11:37:49.911Z</time></trkpt><trkpt lat="49.780679" lon="14.9231573"><ele>377.0</ele><time>2026-04-06T11:37:50.911Z</time></trkpt><trkpt lat="49.7806054" lon="14.9229788"><ele>377.0</ele><time>2026-04-06T11:37:51.911Z</time></trkpt><trkpt lat="49.7805401" lon="14.9228283"><ele>377.0</ele><time>2026-04-06T11:37:52.911Z</time></trkpt><trkpt lat="49.7804843" lon="14.9226802"><ele>377.0</ele><time>2026-04-06T11:37:53.911Z</time></trkpt><trkpt lat="49.780443" lon="14.9225481"><ele>377.33333333333337</ele><time>2026-04-06T11:37:54.91Z</time></trkpt><trkpt lat="49.7803974" lon="14.9224537"><ele>377.6666666666667</ele><time>2026-04-06T11:37:55.911Z</time></trkpt><trkpt lat="49.7803442" lon="14.9223813"><ele>378.0</ele><time>2026-04-06T11:37:56.91Z</time></trkpt><trkpt lat="49.7802906" lon="14.9223033"><ele>378.3333333333333</ele><time>2026-04-06T11:37:57.911Z</time></trkpt><trkpt lat="49.7802285" lon="14.9222232"><ele>378.66666666666663</ele><time>2026-04-06T11:37:58.911Z</time></trkpt><trkpt lat="49.7801614" lon="14.9221339"><ele>379.0</ele><time>2026-04-06T11:37:59.91Z</time></trkpt><trkpt lat="49.7800877" lon="14.9220328"><ele>379.6</ele><time>2026-04-06T11:38:00.911Z</time></trkpt><trkpt lat="49.780036" lon="14.9219415"><ele>380.2</ele><time>2026-04-06T11:38:01.91Z</time></trkpt><trkpt lat="49.7799966" lon="14.9218366"><ele>380.8</ele><time>2026-04-06T11:38:02.91Z</time></trkpt><trkpt lat="49.7799271" lon="14.9217352"><ele>381.40000000000003</ele><time>2026-04-06T11:38:03.911Z</time></trkpt><trkpt lat="49.7798465" lon="14.9216176"><ele>382.0</ele><time>2026-04-06T11:38:04.91Z</time></trkpt><trkpt lat="49.7797564" lon="14.9214689"><ele>382.0</ele><time>2026-04-06T11:38:05.91Z</time></trkpt><trkpt lat="49.7796874" lon="14.9213384"><ele>382.0</ele><time>2026-04-06T11:38:06.91Z</time></trkpt><trkpt lat="49.779622" lon="14.9212355"><ele>382.0</ele><time>2026-04-06T11:38:07.911Z</time></trkpt><trkpt lat="49.7795603" lon="14.9211453"><ele>382.0</ele><time>2026-04-06T11:38:08.91Z</time></trkpt><trkpt lat="49.7794987" lon="14.9210403"><ele>382.0</ele><time>2026-04-06T11:38:09.91Z</time></trkpt><trkpt lat="49.7794113" lon="14.9209343"><ele>383.25</ele><time>2026-04-06T11:38:10.911Z</time></trkpt><trkpt lat="49.7793092" lon="14.9208158"><ele>384.5</ele><time>2026-04-06T11:38:11.91Z</time></trkpt><trkpt lat="49.7791951" lon="14.9207018"><ele>385.75</ele><time>2026-04-06T11:38:12.91Z</time></trkpt><trkpt lat="49.7790897" lon="14.9205971"><ele>387.0</ele><time>2026-04-06T11:38:13.911Z</time></trkpt><trkpt lat="49.7789975" lon="14.9204751"><ele>387.0</ele><time>2026-04-06T11:38:14.91Z</time></trkpt><trkpt lat="49.7789083" lon="14.9203341"><ele>387.0</ele><time>2026-04-06T11:38:15.91Z</time></trkpt><trkpt lat="49.7788145" lon="14.9201683"><ele>387.0</ele><time>2026-04-06T11:38:16.91Z</time></trkpt><trkpt lat="49.7787252" lon="14.92001"><ele>387.0</ele><time>2026-04-06T11:38:17.911Z</time></trkpt><trkpt lat="49.7786173" lon="14.919883"><ele>388.5</ele><time>2026-04-06T11:38:18.92Z</time></trkpt><trkpt lat="49.7785147" lon="14.9197436"><ele>390.0</ele><time>2026-04-06T11:38:19.92Z</time></trkpt><trkpt lat="49.7784376" lon="14.9195581"><ele>391.5</ele><time>2026-04-06T11:38:20.92Z</time></trkpt><trkpt lat="49.7783324" lon="14.9194059"><ele>393.0</ele><time>2026-04-06T11:38:21.92Z</time></trkpt><trkpt lat="49.7782352" lon="14.9192314"><ele>393.0</ele><time>2026-04-06T11:38:22.919Z</time></trkpt><trkpt lat="49.7781325" lon="14.9190647"><ele>393.0</ele><time>2026-04-06T11:38:23.92Z</time></trkpt><trkpt lat="49.7780483" lon="14.9188968"><ele>393.0</ele><time>2026-04-06T11:38:24.919Z</time></trkpt><trkpt lat="49.7779856" lon="14.9187257"><ele>393.0</ele><time>2026-04-06T11:38:25.92Z</time></trkpt><trkpt lat="49.7779221" lon="14.9185748"><ele>393.0</ele><time>2026-04-06T11:38:26.92Z</time></trkpt><trkpt lat="49.7778788" lon="14.9184326"><ele>393.0</ele><time>2026-04-06T11:38:27.92Z</time></trkpt><trkpt lat="49.7778475" lon="14.9182875"><ele>393.0</ele><time>2026-04-06T11:38:28.919Z</time></trkpt><trkpt lat="49.7778335" lon="14.9181526"><ele>393.0</ele><time>2026-04-06T11:38:29.92Z</time></trkpt><trkpt lat="49.7778185" lon="14.9180273"><ele>393.0</ele><time>2026-04-06T11:38:30.919Z</time></trkpt><trkpt lat="49.7778136" lon="14.91791"><ele>393.0</ele><time>2026-04-06T11:38:31.92Z</time></trkpt><trkpt lat="49.7778133" lon="14.9177953"><ele>393.2</ele><time>2026-04-06T11:38:32.919Z</time></trkpt><trkpt lat="49.777816" lon="14.9176969"><ele>393.4</ele><time>2026-04-06T11:38:33.919Z</time></trkpt><trkpt lat="49.777822" lon="14.9175234"><ele>393.59999999999997</ele><time>2026-04-06T11:38:35.92Z</time></trkpt><trkpt lat="49.7778247" lon="14.9173526"><ele>393.79999999999995</ele><time>2026-04-06T11:38:37.919Z</time></trkpt><trkpt lat="49.7778176" lon="14.9171737"><ele>394.0</ele><time>2026-04-06T11:38:39.919Z</time></trkpt><trkpt lat="49.7777956" lon="14.9169971"><ele>394.00000000000006</ele><time>2026-04-06T11:38:41.92Z</time></trkpt><trkpt lat="49.777771" lon="14.916837"><ele>394.0</ele><time>2026-04-06T11:38:43.919Z</time></trkpt><trkpt lat="49.7777465" lon="14.9167106"><ele>394.0</ele><time>2026-04-06T11:38:45.919Z</time></trkpt><trkpt lat="49.7777537" lon="14.9166111"><ele>394.0</ele><time>2026-04-06T11:38:47.92Z</time></trkpt><trkpt lat="49.7777829" lon="14.9165153"><ele>394.00000000000006</ele><time>2026-04-06T11:38:49.919Z</time></trkpt><trkpt lat="49.7778502" lon="14.9164455"><ele>394.0</ele><time>2026-04-06T11:38:51.92Z</time></trkpt><trkpt lat="49.7779545" lon="14.9164518"><ele>394.00000000000006</ele><time>2026-04-06T11:38:53.92Z</time></trkpt><trkpt lat="49.7780655" lon="14.9164755"><ele>394.0</ele><time>2026-04-06T11:38:55.919Z</time></trkpt><trkpt lat="49.7781746" lon="14.916497"><ele>394.0</ele><time>2026-04-06T11:38:57.92Z</time></trkpt><trkpt lat="49.77823" lon="14.9165443"><ele>394.0</ele><time>2026-04-06T11:38:58.919Z</time></trkpt><trkpt lat="49.7782742" lon="14.9166166"><ele>394.00000000000006</ele><time>2026-04-06T11:38:59.92Z</time></trkpt><trkpt lat="49.7783054" lon="14.9167191"><ele>394.0</ele><time>2026-04-06T11:39:00.92Z</time></trkpt><trkpt lat="49.7783394" lon="14.9168297"><ele>394.00000000000006</ele><time>2026-04-06T11:39:01.919Z</time></trkpt><trkpt lat="49.7783757" lon="14.9169244"><ele>394.0</ele><time>2026-04-06T11:39:02.92Z</time></trkpt><trkpt lat="49.7784511" lon="14.9170104"><ele>394.0</ele><time>2026-04-06T11:39:04.919Z</time></trkpt><trkpt lat="49.7785183" lon="14.9168962"><ele>394.0</ele><time>2026-04-06T11:39:06.919Z</time></trkpt><trkpt lat="49.7785482" lon="14.9167883"><ele>394.00000000000006</ele><time>2026-04-06T11:39:07.92Z</time></trkpt><trkpt lat="49.7785773" lon="14.9166713"><ele>394.0</ele><time>2026-04-06T11:39:08.919Z</time></trkpt><trkpt lat="49.7786131" lon="14.9165538"><ele>396.2</ele><time>2026-04-06T11:39:09.919Z</time></trkpt><trkpt lat="49.7786423" lon="14.9164178"><ele>398.4</ele><time>2026-04-06T11:39:10.92Z</time></trkpt><trkpt lat="49.7786639" lon="14.9162661"><ele>400.6</ele><time>2026-04-06T11:39:11.92Z</time></trkpt><trkpt lat="49.7786793" lon="14.9161126"><ele>402.8</ele><time>2026-04-06T11:39:12.919Z</time></trkpt><trkpt lat="49.7787015" lon="14.915957"><ele>405.0</ele><time>2026-04-06T11:39:13.919Z</time></trkpt><trkpt lat="49.7787324" lon="14.9158041"><ele>406.0</ele><time>2026-04-06T11:39:14.92Z</time></trkpt><trkpt lat="49.7787782" lon="14.9156567"><ele>407.0</ele><time>2026-04-06T11:39:15.92Z</time></trkpt><trkpt lat="49.7788285" lon="14.9155092"><ele>408.0</ele><time>2026-04-06T11:39:16.92Z</time></trkpt><trkpt lat="49.7788689" lon="14.9153677"><ele>409.0</ele><time>2026-04-06T11:39:17.92Z</time></trkpt><trkpt lat="49.7788942" lon="14.9152297"><ele>410.0</ele><time>2026-04-06T11:39:18.92Z</time></trkpt><trkpt lat="49.7789162" lon="14.9150959"><ele>410.49999999999994</ele><time>2026-04-06T11:39:19.92Z</time></trkpt><trkpt lat="49.7789528" lon="14.9149799"><ele>411.0</ele><time>2026-04-06T11:39:20.92Z</time></trkpt><trkpt lat="49.7790428" lon="14.9149001"><ele>411.5</ele><time>2026-04-06T11:39:22.919Z</time></trkpt><trkpt lat="49.779106" lon="14.9148665"><ele>412.0</ele><time>2026-04-06T11:39:24.919Z</time></trkpt><trkpt lat="49.7792085" lon="14.9147966"><ele>412.49999999999994</ele><time>2026-04-06T11:39:26.919Z</time></trkpt><trkpt lat="49.779285" lon="14.9147482"><ele>413.0</ele><time>2026-04-06T11:39:27.92Z</time></trkpt><trkpt lat="49.7793731" lon="14.9146946"><ele>415.0</ele><time>2026-04-06T11:39:28.92Z</time></trkpt><trkpt lat="49.7794658" lon="14.9146429"><ele>417.0</ele><time>2026-04-06T11:39:29.919Z</time></trkpt><trkpt lat="49.7795626" lon="14.9145869"><ele>419.0</ele><time>2026-04-06T11:39:30.919Z</time></trkpt><trkpt lat="49.779673" lon="14.9145232"><ele>421.0</ele><time>2026-04-06T11:39:31.919Z</time></trkpt><trkpt lat="49.7798006" lon="14.9144561"><ele>421.0</ele><time>2026-04-06T11:39:32.92Z</time></trkpt><trkpt lat="49.7799443" lon="14.9143868"><ele>421.0</ele><time>2026-04-06T11:39:33.92Z</time></trkpt><trkpt lat="49.7801151" lon="14.9143697"><ele>421.0</ele><time>2026-04-06T11:39:34.919Z</time></trkpt><trkpt lat="49.780282" lon="14.9143697"><ele>422.25</ele><time>2026-04-06T11:39:35.919Z</time></trkpt><trkpt lat="49.7804276" lon="14.9143768"><ele>423.5</ele><time>2026-04-06T11:39:36.92Z</time></trkpt><trkpt lat="49.7805686" lon="14.9143928"><ele>424.75</ele><time>2026-04-06T11:39:37.92Z</time></trkpt><trkpt lat="49.7807108" lon="14.9144168"><ele>426.0</ele><time>2026-04-06T11:39:38.92Z</time></trkpt><trkpt lat="49.7808466" lon="14.9144288"><ele>426.0</ele><time>2026-04-06T11:39:39.92Z</time></trkpt><trkpt lat="49.7809743" lon="14.9144524"><ele>426.0</ele><time>2026-04-06T11:39:40.919Z</time></trkpt><trkpt lat="49.7811024" lon="14.9144831"><ele>426.0</ele><time>2026-04-06T11:39:41.92Z</time></trkpt><trkpt lat="49.7812142" lon="14.9145171"><ele>426.0</ele><time>2026-04-06T11:39:42.919Z</time></trkpt><trkpt lat="49.7813013" lon="14.914595"><ele>428.5</ele><time>2026-04-06T11:39:43.92Z</time></trkpt><trkpt lat="49.7813785" lon="14.914721"><ele>431.0</ele><time>2026-04-06T11:39:44.92Z</time></trkpt><trkpt lat="49.7814436" lon="14.9148962"><ele>433.5</ele><time>2026-04-06T11:39:45.92Z</time></trkpt><trkpt lat="49.7815028" lon="14.9150908"><ele>436.0</ele><time>2026-04-06T11:39:46.92Z</time></trkpt><trkpt lat="49.7815383" lon="14.9152863"><ele>436.0</ele><time>2026-04-06T11:39:47.919Z</time></trkpt><trkpt lat="49.7815544" lon="14.9154789"><ele>436.0</ele><time>2026-04-06T11:39:48.92Z</time></trkpt><trkpt lat="49.7815651" lon="14.9156425"><ele>436.0</ele><time>2026-04-06T11:39:49.919Z</time></trkpt><trkpt lat="49.7816021" lon="14.915758"><ele>436.0</ele><time>2026-04-06T11:39:50.919Z</time></trkpt><trkpt lat="49.7816635" lon="14.9158271"><ele>436.0</ele><time>2026-04-06T11:39:51.919Z</time></trkpt><trkpt lat="49.7817396" lon="14.9158918"><ele>437.25</ele><time>2026-04-06T11:39:52.919Z</time></trkpt><trkpt lat="49.7818539" lon="14.9159607"><ele>438.5</ele><time>2026-04-06T11:39:53.92Z</time></trkpt><trkpt lat="49.7819863" lon="14.9160169"><ele>439.75</ele><time>2026-04-06T11:39:54.92Z</time></trkpt><trkpt lat="49.7821153" lon="14.916062"><ele>441.0</ele><time>2026-04-06T11:39:55.919Z</time></trkpt><trkpt lat="49.7822334" lon="14.9160908"><ele>441.0</ele><time>2026-04-06T11:39:56.92Z</time></trkpt><trkpt lat="49.7823383" lon="14.9160856"><ele>441.0</ele><time>2026-04-06T11:39:57.92Z</time></trkpt><trkpt lat="49.7824404" lon="14.9160609"><ele>441.0</ele><time>2026-04-06T11:39:58.92Z</time></trkpt><trkpt lat="49.7825194" lon="14.916029"><ele>441.0</ele><time>2026-04-06T11:39:59.919Z</time></trkpt><trkpt lat="49.7825863" lon="14.9160393"><ele>441.0</ele><time>2026-04-06T11:40:00.919Z</time></trkpt><trkpt lat="49.7826745" lon="14.9160567"><ele>441.0</ele><time>2026-04-06T11:40:02.92Z</time></trkpt><trkpt lat="49.7826935" lon="14.9161636"><ele>441.0</ele><time>2026-04-06T11:40:06.92Z</time></trkpt><trkpt lat="49.7826307" lon="14.9161844"><ele>441.0</ele><time>2026-04-06T11:40:08.919Z</time></trkpt><trkpt lat="49.7825839" lon="14.9161078"><ele>441.0</ele><time>2026-04-06T11:40:10.919Z</time></trkpt><trkpt lat="49.7825067" lon="14.9160266"><ele>441.0</ele><time>2026-04-06T11:40:13.92Z</time></trkpt><trkpt lat="49.7824443" lon="14.9160582"><ele>441.0</ele><time>2026-04-06T11:40:14.919Z</time></trkpt><trkpt lat="49.7823488" lon="14.9161244"><ele>441.0</ele><time>2026-04-06T11:40:16.92Z</time></trkpt><trkpt lat="49.7822392" lon="14.9161434"><ele>441.0</ele><time>2026-04-06T11:40:18.92Z</time></trkpt><trkpt lat="49.7821335" lon="14.9161357"><ele>441.0</ele><time>2026-04-06T11:40:20.919Z</time></trkpt><trkpt lat="49.7820349" lon="14.9160869"><ele>441.0</ele><time>2026-04-06T11:40:22.92Z</time></trkpt><trkpt lat="49.7819558" lon="14.9160349"><ele>441.0</ele><time>2026-04-06T11:40:24.92Z</time></trkpt><trkpt lat="49.7819022" lon="14.9159777"><ele>441.0</ele><time>2026-04-06T11:40:27.919Z</time></trkpt><trkpt lat="49.7819711" lon="14.9160006"><ele>441.0</ele><time>2026-04-06T11:40:32.92Z</time></trkpt><trkpt lat="49.7820378" lon="14.9160761"><ele>441.0</ele><time>2026-04-06T11:40:34.919Z</time></trkpt><trkpt lat="49.7821361" lon="14.9161036"><ele>441.0</ele><time>2026-04-06T11:40:36.919Z</time></trkpt><trkpt lat="49.7822323" lon="14.9161175"><ele>441.0</ele><time>2026-04-06T11:40:38.92Z</time></trkpt><trkpt lat="49.7823062" lon="14.916101"><ele>441.0</ele><time>2026-04-06T11:40:40.919Z</time></trkpt><trkpt lat="49.7823795" lon="14.9160711"><ele>441.0</ele><time>2026-04-06T11:40:42.919Z</time></trkpt><trkpt lat="49.782449" lon="14.9160414"><ele>441.0</ele><time>2026-04-06T11:40:44.919Z</time></trkpt><trkpt lat="49.7825212" lon="14.9160322"><ele>441.0</ele><time>2026-04-06T11:40:46.92Z</time></trkpt><trkpt lat="49.7825856" lon="14.9160822"><ele>441.0</ele><time>2026-04-06T11:40:48.92Z</time></trkpt><trkpt lat="49.7826274" lon="14.9162031"><ele>441.0</ele><time>2026-04-06T11:40:50.919Z</time></trkpt><trkpt lat="49.7826611" lon="14.9162971"><ele>441.0</ele><time>2026-04-06T11:40:51.92Z</time></trkpt><trkpt lat="49.7827113" lon="14.9164118"><ele>441.0</ele><time>2026-04-06T11:40:52.919Z</time></trkpt><trkpt lat="49.7827787" lon="14.916544"><ele>441.0</ele><time>2026-04-06T11:40:53.92Z</time></trkpt><trkpt lat="49.782863" lon="14.9166903"><ele>441.0</ele><time>2026-04-06T11:40:54.92Z</time></trkpt><trkpt lat="49.7829634" lon="14.9168432"><ele>441.0</ele><time>2026-04-06T11:40:55.92Z</time></trkpt><trkpt lat="49.7830733" lon="14.9169895"><ele>441.0</ele><time>2026-04-06T11:40:56.919Z</time></trkpt><trkpt lat="49.7831796" lon="14.9171241"><ele>441.0</ele><time>2026-04-06T11:40:57.919Z</time></trkpt><trkpt lat="49.7832835" lon="14.9172496"><ele>441.0</ele><time>2026-04-06T11:40:58.92Z</time></trkpt><trkpt lat="49.783391" lon="14.9173683"><ele>441.0</ele><time>2026-04-06T11:40:59.919Z</time></trkpt><trkpt lat="49.7835031" lon="14.9175024"><ele>441.0</ele><time>2026-04-06T11:41:00.92Z</time></trkpt><trkpt lat="49.7836086" lon="14.9176306"><ele>441.0</ele><time>2026-04-06T11:41:01.919Z</time></trkpt><trkpt lat="49.7837218" lon="14.9177415"><ele>441.1666666666667</ele><time>2026-04-06T11:41:02.92Z</time></trkpt><trkpt lat="49.7838284" lon="14.917829"><ele>441.33333333333337</ele><time>2026-04-06T11:41:03.919Z</time></trkpt><trkpt lat="49.7839091" lon="14.9178921"><ele>441.5</ele><time>2026-04-06T11:41:04.92Z</time></trkpt><trkpt lat="49.7839776" lon="14.9179186"><ele>441.6666666666667</ele><time>2026-04-06T11:41:05.92Z</time></trkpt><trkpt lat="49.7840441" lon="14.917928"><ele>441.83333333333337</ele><time>2026-04-06T11:41:06.92Z</time></trkpt><trkpt lat="49.7841112" lon="14.9179444"><ele>442.0</ele><time>2026-04-06T11:41:07.919Z</time></trkpt><trkpt lat="49.7841854" lon="14.9179727"><ele>442.00000000000006</ele><time>2026-04-06T11:41:08.919Z</time></trkpt><trkpt lat="49.7842595" lon="14.9179976"><ele>442.0</ele><time>2026-04-06T11:41:09.92Z</time></trkpt><trkpt lat="49.7843327" lon="14.9180134"><ele>442.0</ele><time>2026-04-06T11:41:10.919Z</time></trkpt><trkpt lat="49.784404" lon="14.9180234"><ele>442.0</ele><time>2026-04-06T11:41:11.919Z</time></trkpt><trkpt lat="49.7844812" lon="14.9180219"><ele>442.00000000000006</ele><time>2026-04-06T11:41:12.92Z</time></trkpt><trkpt lat="49.7845734" lon="14.9180148"><ele>442.0</ele><time>2026-04-06T11:41:13.92Z</time></trkpt><trkpt lat="49.7846714" lon="14.9179946"><ele>444.20000000000005</ele><time>2026-04-06T11:41:14.919Z</time></trkpt><trkpt lat="49.7847688" lon="14.9179683"><ele>446.40000000000003</ele><time>2026-04-06T11:41:15.919Z</time></trkpt><trkpt lat="49.7848634" lon="14.9179734"><ele>448.59999999999997</ele><time>2026-04-06T11:41:16.92Z</time></trkpt><trkpt lat="49.7849532" lon="14.9180267"><ele>450.79999999999995</ele><time>2026-04-06T11:41:17.92Z</time></trkpt><trkpt lat="49.7850395" lon="14.9181112"><ele>453.0</ele><time>2026-04-06T11:41:18.919Z</time></trkpt><trkpt lat="49.7851227" lon="14.9182263"><ele>455.5</ele><time>2026-04-06T11:41:19.92Z</time></trkpt><trkpt lat="49.7852046" lon="14.9183766"><ele>458.0</ele><time>2026-04-06T11:41:20.919Z</time></trkpt><trkpt lat="49.7852861" lon="14.9185641"><ele>460.5</ele><time>2026-04-06T11:41:21.92Z</time></trkpt><trkpt lat="49.7853768" lon="14.918783"><ele>463.0</ele><time>2026-04-06T11:41:22.92Z</time></trkpt><trkpt lat="49.7854424" lon="14.9189909"><ele>463.0</ele><time>2026-04-06T11:41:23.919Z</time></trkpt><trkpt lat="49.7854788" lon="14.9191467"><ele>462.99999999999994</ele><time>2026-04-06T11:41:24.92Z</time></trkpt><trkpt lat="49.7855073" lon="14.9192888"><ele>462.99999999999994</ele><time>2026-04-06T11:41:25.919Z</time></trkpt><trkpt lat="49.7855469" lon="14.9194307"><ele>463.0</ele><time>2026-04-06T11:41:26.92Z</time></trkpt><trkpt lat="49.7856112" lon="14.9195755"><ele>463.0</ele><time>2026-04-06T11:41:27.92Z</time></trkpt><trkpt lat="49.7856933" lon="14.9196989"><ele>463.25</ele><time>2026-04-06T11:41:28.919Z</time></trkpt><trkpt lat="49.7857921" lon="14.9198224"><ele>463.5</ele><time>2026-04-06T11:41:29.92Z</time></trkpt><trkpt lat="49.7858872" lon="14.9199392"><ele>463.75</ele><time>2026-04-06T11:41:30.92Z</time></trkpt><trkpt lat="49.7859737" lon="14.9200497"><ele>464.0</ele><time>2026-04-06T11:41:31.92Z</time></trkpt><trkpt lat="49.78606" lon="14.9201588"><ele>464.0</ele><time>2026-04-06T11:41:32.92Z</time></trkpt><trkpt lat="49.7861553" lon="14.9202722"><ele>464.0</ele><time>2026-04-06T11:41:33.919Z</time></trkpt><trkpt lat="49.7862579" lon="14.9203693"><ele>464.0</ele><time>2026-04-06T11:41:34.92Z</time></trkpt><trkpt lat="49.7863483" lon="14.9204502"><ele>464.0</ele><time>2026-04-06T11:41:35.919Z</time></trkpt><trkpt lat="49.7864211" lon="14.9205147"><ele>464.0</ele><time>2026-04-06T11:41:36.919Z</time></trkpt><trkpt lat="49.786492" lon="14.9205462"><ele>464.0</ele><time>2026-04-06T11:41:37.92Z</time></trkpt><trkpt lat="49.7865955" lon="14.9205699"><ele>464.0</ele><time>2026-04-06T11:41:39.919Z</time></trkpt><trkpt lat="49.7866787" lon="14.9205697"><ele>464.0</ele><time>2026-04-06T11:41:40.92Z</time></trkpt><trkpt lat="49.78678" lon="14.9205598"><ele>464.0</ele><time>2026-04-06T11:41:41.92Z</time></trkpt><trkpt lat="49.7868845" lon="14.9205753"><ele>464.0</ele><time>2026-04-06T11:41:42.92Z</time></trkpt><trkpt lat="49.7869845" lon="14.9206342"><ele>465.6</ele><time>2026-04-06T11:41:43.919Z</time></trkpt><trkpt lat="49.7870753" lon="14.9206876"><ele>467.2</ele><time>2026-04-06T11:41:44.919Z</time></trkpt><trkpt lat="49.7871707" lon="14.9206884"><ele>468.80000000000007</ele><time>2026-04-06T11:41:45.919Z</time></trkpt><trkpt lat="49.787275" lon="14.9206599"><ele>470.40000000000003</ele><time>2026-04-06T11:41:46.92Z</time></trkpt><trkpt lat="49.7873887" lon="14.9206307"><ele>472.0</ele><time>2026-04-06T11:41:47.919Z</time></trkpt><trkpt lat="49.787487" lon="14.9205838"><ele>472.0</ele><time>2026-04-06T11:41:48.919Z</time></trkpt><trkpt lat="49.7875773" lon="14.9205216"><ele>472.00000000000006</ele><time>2026-04-06T11:41:49.92Z</time></trkpt><trkpt lat="49.7876617" lon="14.9204694"><ele>472.00000000000006</ele><time>2026-04-06T11:41:50.92Z</time></trkpt><trkpt lat="49.7877519" lon="14.9204356"><ele>472.0</ele><time>2026-04-06T11:41:51.919Z</time></trkpt><trkpt lat="49.7878574" lon="14.9204381"><ele>472.0</ele><time>2026-04-06T11:41:52.92Z</time></trkpt><trkpt lat="49.7879585" lon="14.9204514"><ele>470.6</ele><time>2026-04-06T11:41:53.919Z</time></trkpt><trkpt lat="49.7880534" lon="14.9205029"><ele>469.20000000000005</ele><time>2026-04-06T11:41:54.919Z</time></trkpt><trkpt lat="49.7881415" lon="14.9205885"><ele>467.8</ele><time>2026-04-06T11:41:55.919Z</time></trkpt><trkpt lat="49.7882282" lon="14.9207058"><ele>466.4</ele><time>2026-04-06T11:41:56.92Z</time></trkpt><trkpt lat="49.788311" lon="14.920849"><ele>465.0</ele><time>2026-04-06T11:41:57.92Z</time></trkpt><trkpt lat="49.78839" lon="14.9210029"><ele>465.0</ele><time>2026-04-06T11:41:58.92Z</time></trkpt><trkpt lat="49.78847" lon="14.9211366"><ele>465.0</ele><time>2026-04-06T11:41:59.921Z</time></trkpt><trkpt lat="49.7885476" lon="14.9212303"><ele>465.0</ele><time>2026-04-06T11:42:00.921Z</time></trkpt><trkpt lat="49.7886287" lon="14.9212908"><ele>465.0</ele><time>2026-04-06T11:42:01.92Z</time></trkpt><trkpt lat="49.7887094" lon="14.9213335"><ele>465.0</ele><time>2026-04-06T11:42:02.921Z</time></trkpt><trkpt lat="49.7887935" lon="14.9213838"><ele>466.75</ele><time>2026-04-06T11:42:03.92Z</time></trkpt><trkpt lat="49.7888897" lon="14.9214336"><ele>468.5</ele><time>2026-04-06T11:42:04.921Z</time></trkpt><trkpt lat="49.7889974" lon="14.9214724"><ele>470.25</ele><time>2026-04-06T11:42:05.921Z</time></trkpt><trkpt lat="49.7891181" lon="14.9214924"><ele>472.0</ele><time>2026-04-06T11:42:06.92Z</time></trkpt><trkpt lat="49.7892378" lon="14.9215082"><ele>472.0</ele><time>2026-04-06T11:42:07.92Z</time></trkpt><trkpt lat="49.789352" lon="14.9215105"><ele>472.0</ele><time>2026-04-06T11:42:08.92Z</time></trkpt><trkpt lat="49.7894657" lon="14.9215255"><ele>472.0</ele><time>2026-04-06T11:42:09.921Z</time></trkpt><trkpt lat="49.7895757" lon="14.9215587"><ele>472.0</ele><time>2026-04-06T11:42:10.92Z</time></trkpt><trkpt lat="49.7896866" lon="14.921609"><ele>472.0</ele><time>2026-04-06T11:42:11.92Z</time></trkpt><trkpt lat="49.7898101" lon="14.9216443"><ele>472.0</ele><time>2026-04-06T11:42:12.92Z</time></trkpt><trkpt lat="49.7899397" lon="14.9216742"><ele>472.0</ele><time>2026-04-06T11:42:13.92Z</time></trkpt><trkpt lat="49.790066" lon="14.9216925"><ele>472.0</ele><time>2026-04-06T11:42:14.92Z</time></trkpt><trkpt lat="49.7901831" lon="14.9217465"><ele>468.75</ele><time>2026-04-06T11:42:15.92Z</time></trkpt><trkpt lat="49.7902851" lon="14.92183"><ele>465.5</ele><time>2026-04-06T11:42:16.921Z</time></trkpt><trkpt lat="49.7904226" lon="14.9218944"><ele>462.25</ele><time>2026-04-06T11:42:17.92Z</time></trkpt><trkpt lat="49.7905692" lon="14.9219479"><ele>459.0</ele><time>2026-04-06T11:42:18.92Z</time></trkpt><trkpt lat="49.7906944" lon="14.9219802"><ele>459.0</ele><time>2026-04-06T11:42:19.92Z</time></trkpt><trkpt lat="49.7908043" lon="14.9220036"><ele>459.0</ele><time>2026-04-06T11:42:20.92Z</time></trkpt><trkpt lat="49.790911" lon="14.9220179"><ele>459.0</ele><time>2026-04-06T11:42:21.92Z</time></trkpt><trkpt lat="49.7910182" lon="14.9220135"><ele>459.0</ele><time>2026-04-06T11:42:22.921Z</time></trkpt><trkpt lat="49.7911209" lon="14.9219982"><ele>459.0</ele><time>2026-04-06T11:42:23.92Z</time></trkpt><trkpt lat="49.7912254" lon="14.9219644"><ele>459.25</ele><time>2026-04-06T11:42:24.921Z</time></trkpt><trkpt lat="49.7913245" lon="14.9219151"><ele>459.5</ele><time>2026-04-06T11:42:25.921Z</time></trkpt><trkpt lat="49.7914295" lon="14.9218456"><ele>459.75</ele><time>2026-04-06T11:42:26.921Z</time></trkpt><trkpt lat="49.791541" lon="14.9217592"><ele>460.0</ele><time>2026-04-06T11:42:27.92Z</time></trkpt><trkpt lat="49.7916406" lon="14.9216731"><ele>460.0</ele><time>2026-04-06T11:42:28.92Z</time></trkpt><trkpt lat="49.7917331" lon="14.9215877"><ele>460.0</ele><time>2026-04-06T11:42:29.92Z</time></trkpt><trkpt lat="49.7918204" lon="14.9214938"><ele>460.0</ele><time>2026-04-06T11:42:30.921Z</time></trkpt><trkpt lat="49.7918988" lon="14.9213976"><ele>460.0</ele><time>2026-04-06T11:42:31.921Z</time></trkpt><trkpt lat="49.7919776" lon="14.9213044"><ele>460.0</ele><time>2026-04-06T11:42:32.921Z</time></trkpt><trkpt lat="49.7920548" lon="14.9212375"><ele>456.00000000000006</ele><time>2026-04-06T11:42:33.92Z</time></trkpt><trkpt lat="49.7921407" lon="14.9211899"><ele>452.0</ele><time>2026-04-06T11:42:34.921Z</time></trkpt><trkpt lat="49.7922217" lon="14.9211774"><ele>448.0</ele><time>2026-04-06T11:42:35.921Z</time></trkpt><trkpt lat="49.7922913" lon="14.9212186"><ele>444.0</ele><time>2026-04-06T11:42:36.92Z</time></trkpt><trkpt lat="49.7923681" lon="14.9212978"><ele>440.00000000000006</ele><time>2026-04-06T11:42:37.92Z</time></trkpt><trkpt lat="49.792444" lon="14.9213729"><ele>436.0</ele><time>2026-04-06T11:42:38.921Z</time></trkpt><trkpt lat="49.7925337" lon="14.9214393"><ele>436.0</ele><time>2026-04-06T11:42:39.92Z</time></trkpt><trkpt lat="49.7926266" lon="14.9214976"><ele>436.0</ele><time>2026-04-06T11:42:40.921Z</time></trkpt><trkpt lat="49.7927119" lon="14.9215802"><ele>436.0</ele><time>2026-04-06T11:42:41.92Z</time></trkpt><trkpt lat="49.7927952" lon="14.9216589"><ele>436.0</ele><time>2026-04-06T11:42:42.92Z</time></trkpt><trkpt lat="49.7928807" lon="14.9217314"><ele>436.0</ele><time>2026-04-06T11:42:43.921Z</time></trkpt><trkpt lat="49.7929713" lon="14.9217921"><ele>431.6666666666667</ele><time>2026-04-06T11:42:44.92Z</time></trkpt><trkpt lat="49.7930627" lon="14.9218405"><ele>427.33333333333337</ele><time>2026-04-06T11:42:45.92Z</time></trkpt><trkpt lat="49.7931482" lon="14.9218768"><ele>423.0</ele><time>2026-04-06T11:42:46.92Z</time></trkpt><trkpt lat="49.7932368" lon="14.921897"><ele>418.66666666666663</ele><time>2026-04-06T11:42:47.921Z</time></trkpt><trkpt lat="49.7933157" lon="14.9219244"><ele>414.3333333333333</ele><time>2026-04-06T11:42:48.92Z</time></trkpt><trkpt lat="49.7933894" lon="14.9219619"><ele>410.0</ele><time>2026-04-06T11:42:49.92Z</time></trkpt><trkpt lat="49.7934656" lon="14.9220143"><ele>409.16666666666663</ele><time>2026-04-06T11:42:50.92Z</time></trkpt><trkpt lat="49.7935364" lon="14.9220713"><ele>408.3333333333333</ele><time>2026-04-06T11:42:51.921Z</time></trkpt><trkpt lat="49.7936139" lon="14.9221327"><ele>407.5</ele><time>2026-04-06T11:42:52.92Z</time></trkpt><trkpt lat="49.7936864" lon="14.9221907"><ele>406.66666666666663</ele><time>2026-04-06T11:42:53.92Z</time></trkpt><trkpt lat="49.7937626" lon="14.9222464"><ele>405.8333333333333</ele><time>2026-04-06T11:42:54.92Z</time></trkpt><trkpt lat="49.7938409" lon="14.922302"><ele>405.0</ele><time>2026-04-06T11:42:55.921Z</time></trkpt><trkpt lat="49.7939179" lon="14.9223657"><ele>405.0</ele><time>2026-04-06T11:42:56.92Z</time></trkpt><trkpt lat="49.7939904" lon="14.922438"><ele>405.0</ele><time>2026-04-06T11:42:57.92Z</time></trkpt><trkpt lat="49.7940633" lon="14.9225194"><ele>405.0</ele><time>2026-04-06T11:42:58.921Z</time></trkpt><trkpt lat="49.7941396" lon="14.9225895"><ele>405.0</ele><time>2026-04-06T11:42:59.921Z</time></trkpt><trkpt lat="49.7942194" lon="14.9226455"><ele>405.0</ele><time>2026-04-06T11:43:00.92Z</time></trkpt><trkpt lat="49.7943035" lon="14.9226661"><ele>405.0</ele><time>2026-04-06T11:43:01.921Z</time></trkpt><trkpt lat="49.7943861" lon="14.9226558"><ele>403.5</ele><time>2026-04-06T11:43:02.921Z</time></trkpt><trkpt lat="49.7944653" lon="14.9226181"><ele>402.0</ele><time>2026-04-06T11:43:03.921Z</time></trkpt><trkpt lat="49.7945421" lon="14.9225657"><ele>400.5</ele><time>2026-04-06T11:43:04.921Z</time></trkpt><trkpt lat="49.7946155" lon="14.9225139"><ele>399.0</ele><time>2026-04-06T11:43:05.921Z</time></trkpt><trkpt lat="49.7946803" lon="14.9224591"><ele>397.5</ele><time>2026-04-06T11:43:06.92Z</time></trkpt><trkpt lat="49.7947423" lon="14.9224075"><ele>396.0</ele><time>2026-04-06T11:43:07.92Z</time></trkpt><trkpt lat="49.7948055" lon="14.9223675"><ele>396.0</ele><time>2026-04-06T11:43:08.92Z</time></trkpt><trkpt lat="49.7948704" lon="14.9223311"><ele>396.0</ele><time>2026-04-06T11:43:09.921Z</time></trkpt><trkpt lat="49.7949321" lon="14.9222848"><ele>396.0</ele><time>2026-04-06T11:43:10.92Z</time></trkpt><trkpt lat="49.794992" lon="14.922238"><ele>396.0</ele><time>2026-04-06T11:43:11.921Z</time></trkpt><trkpt lat="49.7951027" lon="14.9221531"><ele>396.0</ele><time>2026-04-06T11:43:13.92Z</time></trkpt><trkpt lat="49.795207" lon="14.9220661"><ele>396.0</ele><time>2026-04-06T11:43:15.921Z</time></trkpt><trkpt lat="49.7953089" lon="14.921956"><ele>395.1666666666667</ele><time>2026-04-06T11:43:17.921Z</time></trkpt><trkpt lat="49.795363" lon="14.9218814"><ele>394.33333333333337</ele><time>2026-04-06T11:43:18.921Z</time></trkpt><trkpt lat="49.7954246" lon="14.9218189"><ele>393.5</ele><time>2026-04-06T11:43:19.921Z</time></trkpt><trkpt lat="49.7954906" lon="14.921747"><ele>392.6666666666667</ele><time>2026-04-06T11:43:20.92Z</time></trkpt><trkpt lat="49.7955555" lon="14.9216602"><ele>391.83333333333337</ele><time>2026-04-06T11:43:21.921Z</time></trkpt><trkpt lat="49.7956212" lon="14.9215685"><ele>391.0</ele><time>2026-04-06T11:43:22.92Z</time></trkpt><trkpt lat="49.7956847" lon="14.9214795"><ele>391.00000000000006</ele><time>2026-04-06T11:43:23.921Z</time></trkpt><trkpt lat="49.7957476" lon="14.9213922"><ele>391.0</ele><time>2026-04-06T11:43:24.92Z</time></trkpt><trkpt lat="49.7957928" lon="14.9213165"><ele>391.0</ele><time>2026-04-06T11:43:25.92Z</time></trkpt><trkpt lat="49.7958564" lon="14.9211609"><ele>391.0</ele><time>2026-04-06T11:43:27.92Z</time></trkpt><trkpt lat="49.7958969" lon="14.9210505"><ele>391.00000000000006</ele><time>2026-04-06T11:43:29.921Z</time></trkpt><trkpt lat="49.795909" lon="14.9209499"><ele>391.0</ele><time>2026-04-06T11:43:31.921Z</time></trkpt><trkpt lat="49.7959074" lon="14.9208092"><ele>391.4</ele><time>2026-04-06T11:43:33.921Z</time></trkpt><trkpt lat="49.7958932" lon="14.9206532"><ele>391.8</ele><time>2026-04-06T11:43:35.92Z</time></trkpt><trkpt lat="49.7958797" lon="14.9205539"><ele>392.2</ele><time>2026-04-06T11:43:36.921Z</time></trkpt><trkpt lat="49.7958703" lon="14.9204336"><ele>392.59999999999997</ele><time>2026-04-06T11:43:37.92Z</time></trkpt><trkpt lat="49.795863" lon="14.9202856"><ele>393.0</ele><time>2026-04-06T11:43:38.921Z</time></trkpt><trkpt lat="49.7958498" lon="14.9200943"><ele>393.75</ele><time>2026-04-06T11:43:39.92Z</time></trkpt><trkpt lat="49.7958321" lon="14.9198717"><ele>394.5</ele><time>2026-04-06T11:43:40.921Z</time></trkpt><trkpt lat="49.7958183" lon="14.9196493"><ele>395.25</ele><time>2026-04-06T11:43:41.921Z</time></trkpt><trkpt lat="49.7958271" lon="14.9194398"><ele>396.0</ele><time>2026-04-06T11:43:42.921Z</time></trkpt><trkpt lat="49.7958474" lon="14.9192343"><ele>397.20000000000005</ele><time>2026-04-06T11:43:43.921Z</time></trkpt><trkpt lat="49.795853" lon="14.9190271"><ele>398.40000000000003</ele><time>2026-04-06T11:43:44.921Z</time></trkpt><trkpt lat="49.7958625" lon="14.9188547"><ele>399.6</ele><time>2026-04-06T11:43:45.921Z</time></trkpt><trkpt lat="49.7958841" lon="14.9187336"><ele>400.8</ele><time>2026-04-06T11:43:46.921Z</time></trkpt><trkpt lat="49.7959071" lon="14.9185881"><ele>402.0</ele><time>2026-04-06T11:43:47.92Z</time></trkpt><trkpt lat="49.7959291" lon="14.9184113"><ele>403.0</ele><time>2026-04-06T11:43:48.92Z</time></trkpt><trkpt lat="49.7959479" lon="14.9182387"><ele>404.0</ele><time>2026-04-06T11:43:49.921Z</time></trkpt><trkpt lat="49.7959515" lon="14.9180767"><ele>405.0</ele><time>2026-04-06T11:43:50.92Z</time></trkpt><trkpt lat="49.7959519" lon="14.9179216"><ele>406.0</ele><time>2026-04-06T11:43:51.92Z</time></trkpt><trkpt lat="49.7959619" lon="14.9176948"><ele>406.5</ele><time>2026-04-06T11:43:52.92Z</time></trkpt><trkpt lat="49.7959728" lon="14.9174493"><ele>407.0</ele><time>2026-04-06T11:43:53.921Z</time></trkpt><trkpt lat="49.79598" lon="14.9172518"><ele>407.5</ele><time>2026-04-06T11:43:54.921Z</time></trkpt><trkpt lat="49.7959877" lon="14.9170693"><ele>408.0</ele><time>2026-04-06T11:43:55.921Z</time></trkpt><trkpt lat="49.7960065" lon="14.9168736"><ele>409.33333333333337</ele><time>2026-04-06T11:43:56.921Z</time></trkpt><trkpt lat="49.7960421" lon="14.916635"><ele>410.6666666666667</ele><time>2026-04-06T11:43:57.92Z</time></trkpt><trkpt lat="49.7960785" lon="14.9163598"><ele>412.0</ele><time>2026-04-06T11:43:58.921Z</time></trkpt><trkpt lat="49.7960853" lon="14.9161543"><ele>412.0</ele><time>2026-04-06T11:43:59.92Z</time></trkpt><trkpt lat="49.7961097" lon="14.9159598"><ele>412.0</ele><time>2026-04-06T11:44:00.921Z</time></trkpt><trkpt lat="49.7961292" lon="14.9157274"><ele>412.0</ele><time>2026-04-06T11:44:01.921Z</time></trkpt><trkpt lat="49.796144" lon="14.9155115"><ele>412.0</ele><time>2026-04-06T11:44:02.921Z</time></trkpt><trkpt lat="49.7961478" lon="14.9153386"><ele>412.6666666666667</ele><time>2026-04-06T11:44:03.92Z</time></trkpt><trkpt lat="49.7961443" lon="14.9152335"><ele>413.33333333333337</ele><time>2026-04-06T11:44:04.92Z</time></trkpt><trkpt lat="49.7961378" lon="14.9151314"><ele>414.0</ele><time>2026-04-06T11:44:05.92Z</time></trkpt><trkpt lat="49.7961487" lon="14.9150179"><ele>414.66666666666663</ele><time>2026-04-06T11:44:06.921Z</time></trkpt><trkpt lat="49.7962274" lon="14.9149396"><ele>415.3333333333333</ele><time>2026-04-06T11:44:09.921Z</time></trkpt><trkpt lat="49.7962768" lon="14.9148683"><ele>416.0</ele><time>2026-04-06T11:44:10.92Z</time></trkpt><trkpt lat="49.7963175" lon="14.9147596"><ele>416.66666666666663</ele><time>2026-04-06T11:44:11.921Z</time></trkpt><trkpt lat="49.7963456" lon="14.914633"><ele>417.3333333333333</ele><time>2026-04-06T11:44:12.921Z</time></trkpt><trkpt lat="49.7963887" lon="14.9145522"><ele>418.0</ele><time>2026-04-06T11:44:13.921Z</time></trkpt><trkpt lat="49.7964568" lon="14.9144709"><ele>418.66666666666663</ele><time>2026-04-06T11:44:14.921Z</time></trkpt><trkpt lat="49.7965186" lon="14.9144036"><ele>419.3333333333333</ele><time>2026-04-06T11:44:15.921Z</time></trkpt><trkpt lat="49.796573" lon="14.9142299"><ele>420.0</ele><time>2026-04-06T11:44:17.921Z</time></trkpt><trkpt lat="49.7965681" lon="14.9140736"><ele>421.4</ele><time>2026-04-06T11:44:18.921Z</time></trkpt><trkpt lat="49.7965578" lon="14.9138901"><ele>422.8</ele><time>2026-04-06T11:44:19.921Z</time></trkpt><trkpt lat="49.7965511" lon="14.9136844"><ele>424.20000000000005</ele><time>2026-04-06T11:44:20.92Z</time></trkpt><trkpt lat="49.7965559" lon="14.9135264"><ele>425.6</ele><time>2026-04-06T11:44:21.921Z</time></trkpt><trkpt lat="49.7965804" lon="14.9134019"><ele>427.0</ele><time>2026-04-06T11:44:22.92Z</time></trkpt><trkpt lat="49.7966082" lon="14.9132841"><ele>427.6</ele><time>2026-04-06T11:44:23.921Z</time></trkpt><trkpt lat="49.7966456" lon="14.9131599"><ele>428.20000000000005</ele><time>2026-04-06T11:44:24.92Z</time></trkpt><trkpt lat="49.7966685" lon="14.9130143"><ele>428.8</ele><time>2026-04-06T11:44:25.92Z</time></trkpt><trkpt lat="49.7966829" lon="14.9128561"><ele>429.4</ele><time>2026-04-06T11:44:26.921Z</time></trkpt><trkpt lat="49.7966863" lon="14.91268"><ele>430.0</ele><time>2026-04-06T11:44:27.921Z</time></trkpt><trkpt lat="49.7966833" lon="14.9125102"><ele>430.75</ele><time>2026-04-06T11:44:28.921Z</time></trkpt><trkpt lat="49.7966835" lon="14.9123389"><ele>431.5</ele><time>2026-04-06T11:44:29.921Z</time></trkpt><trkpt lat="49.7966877" lon="14.9121491"><ele>432.25</ele><time>2026-04-06T11:44:30.92Z</time></trkpt><trkpt lat="49.7966899" lon="14.9119455"><ele>433.0</ele><time>2026-04-06T11:44:31.92Z</time></trkpt><trkpt lat="49.7966925" lon="14.9117182"><ele>434.0</ele><time>2026-04-06T11:44:32.92Z</time></trkpt><trkpt lat="49.7966823" lon="14.9114994"><ele>435.0</ele><time>2026-04-06T11:44:33.92Z</time></trkpt><trkpt lat="49.7966587" lon="14.9113122"><ele>436.0</ele><time>2026-04-06T11:44:34.921Z</time></trkpt><trkpt lat="49.7966347" lon="14.9111097"><ele>437.0</ele><time>2026-04-06T11:44:35.921Z</time></trkpt><trkpt lat="49.7966089" lon="14.9109138"><ele>437.75</ele><time>2026-04-06T11:44:36.92Z</time></trkpt><trkpt lat="49.7965846" lon="14.9107204"><ele>438.5</ele><time>2026-04-06T11:44:37.92Z</time></trkpt><trkpt lat="49.7965744" lon="14.9105157"><ele>439.25</ele><time>2026-04-06T11:44:38.921Z</time></trkpt><trkpt lat="49.796563" lon="14.9103084"><ele>440.0</ele><time>2026-04-06T11:44:39.921Z</time></trkpt><trkpt lat="49.7965457" lon="14.91012"><ele>441.75</ele><time>2026-04-06T11:44:40.92Z</time></trkpt><trkpt lat="49.7965275" lon="14.9099414"><ele>443.5</ele><time>2026-04-06T11:44:41.921Z</time></trkpt><trkpt lat="49.7965003" lon="14.9097663"><ele>445.25</ele><time>2026-04-06T11:44:42.921Z</time></trkpt><trkpt lat="49.796464" lon="14.9095736"><ele>447.0</ele><time>2026-04-06T11:44:43.921Z</time></trkpt><trkpt lat="49.7964187" lon="14.9093844"><ele>448.0</ele><time>2026-04-06T11:44:44.92Z</time></trkpt><trkpt lat="49.7963874" lon="14.9092157"><ele>449.00000000000006</ele><time>2026-04-06T11:44:45.921Z</time></trkpt><trkpt lat="49.796377" lon="14.9090702"><ele>450.00000000000006</ele><time>2026-04-06T11:44:46.92Z</time></trkpt><trkpt lat="49.7963811" lon="14.9089223"><ele>451.0</ele><time>2026-04-06T11:44:47.92Z</time></trkpt><trkpt lat="49.7963774" lon="14.9087553"><ele>452.0</ele><time>2026-04-06T11:44:48.921Z</time></trkpt><trkpt lat="49.7963664" lon="14.9085698"><ele>453.25</ele><time>2026-04-06T11:44:49.921Z</time></trkpt><trkpt lat="49.7963529" lon="14.9083721"><ele>454.5</ele><time>2026-04-06T11:44:50.921Z</time></trkpt><trkpt lat="49.7963493" lon="14.9081887"><ele>455.75</ele><time>2026-04-06T11:44:51.92Z</time></trkpt><trkpt lat="49.7963359" lon="14.908015"><ele>457.0</ele><time>2026-04-06T11:44:52.92Z</time></trkpt><trkpt lat="49.796314" lon="14.9078371"><ele>457.0</ele><time>2026-04-06T11:44:53.921Z</time></trkpt><trkpt lat="49.7962856" lon="14.907636"><ele>457.0</ele><time>2026-04-06T11:44:54.92Z</time></trkpt><trkpt lat="49.7962648" lon="14.9074376"><ele>457.0</ele><time>2026-04-06T11:44:55.921Z</time></trkpt><trkpt lat="49.7962462" lon="14.9072458"><ele>457.0</ele><time>2026-04-06T11:44:56.921Z</time></trkpt><trkpt lat="49.7962384" lon="14.9070419"><ele>458.25</ele><time>2026-04-06T11:44:57.92Z</time></trkpt><trkpt lat="49.796232" lon="14.9068157"><ele>459.5</ele><time>2026-04-06T11:44:58.928Z</time></trkpt><trkpt lat="49.7962153" lon="14.9065767"><ele>460.75</ele><time>2026-04-06T11:44:59.928Z</time></trkpt><trkpt lat="49.7961842" lon="14.9063552"><ele>462.0</ele><time>2026-04-06T11:45:00.928Z</time></trkpt><trkpt lat="49.7961609" lon="14.9061691"><ele>463.25</ele><time>2026-04-06T11:45:01.928Z</time></trkpt><trkpt lat="49.7961375" lon="14.9060189"><ele>464.5</ele><time>2026-04-06T11:45:02.927Z</time></trkpt><trkpt lat="49.7961045" lon="14.9058656"><ele>465.75</ele><time>2026-04-06T11:45:03.927Z</time></trkpt><trkpt lat="49.7960765" lon="14.9056848"><ele>467.0</ele><time>2026-04-06T11:45:04.927Z</time></trkpt><trkpt lat="49.7960455" lon="14.9054953"><ele>468.25</ele><time>2026-04-06T11:45:05.928Z</time></trkpt><trkpt lat="49.7960245" lon="14.9053167"><ele>469.5</ele><time>2026-04-06T11:45:06.927Z</time></trkpt><trkpt lat="49.7960264" lon="14.9051521"><ele>470.75</ele><time>2026-04-06T11:45:07.927Z</time></trkpt><trkpt lat="49.796024" lon="14.9049833"><ele>472.0</ele><time>2026-04-06T11:45:08.927Z</time></trkpt><trkpt lat="49.7960074" lon="14.9047819"><ele>471.75</ele><time>2026-04-06T11:45:09.928Z</time></trkpt><trkpt lat="49.7959843" lon="14.904569"><ele>471.5</ele><time>2026-04-06T11:45:10.928Z</time></trkpt><trkpt lat="49.7959678" lon="14.9043525"><ele>471.25</ele><time>2026-04-06T11:45:11.927Z</time></trkpt><trkpt lat="49.7959548" lon="14.9041194"><ele>471.0</ele><time>2026-04-06T11:45:12.927Z</time></trkpt><trkpt lat="49.7959535" lon="14.9038795"><ele>472.0</ele><time>2026-04-06T11:45:13.927Z</time></trkpt><trkpt lat="49.7959619" lon="14.9036432"><ele>473.0</ele><time>2026-04-06T11:45:14.927Z</time></trkpt><trkpt lat="49.7959748" lon="14.9034097"><ele>474.0</ele><time>2026-04-06T11:45:15.927Z</time></trkpt><trkpt lat="49.7959891" lon="14.9031844"><ele>474.75</ele><time>2026-04-06T11:45:16.927Z</time></trkpt><trkpt lat="49.7960006" lon="14.9029571"><ele>475.5</ele><time>2026-04-06T11:45:17.927Z</time></trkpt><trkpt lat="49.7960107" lon="14.9027316"><ele>476.25</ele><time>2026-04-06T11:45:18.928Z</time></trkpt><trkpt lat="49.7960211" lon="14.9025078"><ele>477.0</ele><time>2026-04-06T11:45:19.928Z</time></trkpt><trkpt lat="49.7960367" lon="14.9022819"><ele>480.25</ele><time>2026-04-06T11:45:20.927Z</time></trkpt><trkpt lat="49.7960596" lon="14.9020752"><ele>483.5</ele><time>2026-04-06T11:45:21.927Z</time></trkpt><trkpt lat="49.796089" lon="14.9018862"><ele>486.75</ele><time>2026-04-06T11:45:22.928Z</time></trkpt><trkpt lat="49.7961165" lon="14.9017153"><ele>490.0</ele><time>2026-04-06T11:45:23.928Z</time></trkpt><trkpt lat="49.7961326" lon="14.9015517"><ele>490.00000000000006</ele><time>2026-04-06T11:45:24.928Z</time></trkpt><trkpt lat="49.7961504" lon="14.9014246"><ele>490.0</ele><time>2026-04-06T11:45:25.928Z</time></trkpt><trkpt lat="49.7961672" lon="14.90131"><ele>490.0</ele><time>2026-04-06T11:45:27.927Z</time></trkpt><trkpt lat="49.79617" lon="14.9011419"><ele>490.0</ele><time>2026-04-06T11:45:29.928Z</time></trkpt><trkpt lat="49.7961628" lon="14.9010407"><ele>490.00000000000006</ele><time>2026-04-06T11:45:30.927Z</time></trkpt><trkpt lat="49.7961452" lon="14.9009457"><ele>490.0</ele><time>2026-04-06T11:45:31.928Z</time></trkpt><trkpt lat="49.7961193" lon="14.9007663"><ele>490.2</ele><time>2026-04-06T11:45:33.928Z</time></trkpt><trkpt lat="49.7961257" lon="14.900603"><ele>490.4</ele><time>2026-04-06T11:45:35.927Z</time></trkpt><trkpt lat="49.7961724" lon="14.9004561"><ele>490.6</ele><time>2026-04-06T11:45:37.928Z</time></trkpt><trkpt lat="49.7962225" lon="14.9003074"><ele>490.8</ele><time>2026-04-06T11:45:39.928Z</time></trkpt><trkpt lat="49.7962483" lon="14.9001491"><ele>491.0</ele><time>2026-04-06T11:45:41.927Z</time></trkpt><trkpt lat="49.7962843" lon="14.9000255"><ele>490.49999999999994</ele><time>2026-04-06T11:45:43.928Z</time></trkpt><trkpt lat="49.796367" lon="14.8999233"><ele>490.0</ele><time>2026-04-06T11:45:45.928Z</time></trkpt><trkpt lat="49.7964241" lon="14.8998767"><ele>489.5</ele><time>2026-04-06T11:45:46.927Z</time></trkpt><trkpt lat="49.7965158" lon="14.8997671"><ele>489.0</ele><time>2026-04-06T11:45:48.928Z</time></trkpt><trkpt lat="49.7965697" lon="14.8996613"><ele>488.49999999999994</ele><time>2026-04-06T11:45:50.927Z</time></trkpt><trkpt lat="49.7966237" lon="14.8995867"><ele>488.0</ele><time>2026-04-06T11:45:53.927Z</time></trkpt><trkpt lat="49.7966087" lon="14.8997161"><ele>487.99999999999994</ele><time>2026-04-06T11:45:56.927Z</time></trkpt><trkpt lat="49.7965218" lon="14.8997878"><ele>488.0</ele><time>2026-04-06T11:45:58.928Z</time></trkpt><trkpt lat="49.7964498" lon="14.8998404"><ele>488.0</ele><time>2026-04-06T11:45:59.927Z</time></trkpt><trkpt lat="49.7963848" lon="14.8998937"><ele>488.0</ele><time>2026-04-06T11:46:00.928Z</time></trkpt><trkpt lat="49.7962981" lon="14.9000074"><ele>487.99999999999994</ele><time>2026-04-06T11:46:02.927Z</time></trkpt><trkpt lat="49.7962767" lon="14.9001185"><ele>488.0</ele><time>2026-04-06T11:46:04.928Z</time></trkpt><trkpt lat="49.7963342" lon="14.9001899"><ele>488.49999999999994</ele><time>2026-04-06T11:46:06.927Z</time></trkpt><trkpt lat="49.7964311" lon="14.9002321"><ele>489.0</ele><time>2026-04-06T11:46:08.927Z</time></trkpt><trkpt lat="49.7965282" lon="14.9003306"><ele>489.5</ele><time>2026-04-06T11:46:10.927Z</time></trkpt><trkpt lat="49.7965822" lon="14.900388"><ele>490.0</ele><time>2026-04-06T11:46:11.927Z</time></trkpt><trkpt lat="49.7966393" lon="14.9004479"><ele>490.49999999999994</ele><time>2026-04-06T11:46:12.927Z</time></trkpt><trkpt lat="49.7967077" lon="14.9004881"><ele>491.0</ele><time>2026-04-06T11:46:13.927Z</time></trkpt><trkpt lat="49.7967958" lon="14.9005266"><ele>490.99999999999994</ele><time>2026-04-06T11:46:15.927Z</time></trkpt><trkpt lat="49.7967326" lon="14.9005789"><ele>491.0</ele><time>2026-04-06T11:46:20.927Z</time></trkpt><trkpt lat="49.7966759" lon="14.9005007"><ele>491.0</ele><time>2026-04-06T11:46:22.928Z</time></trkpt><trkpt lat="49.7966153" lon="14.9004072"><ele>491.0</ele><time>2026-04-06T11:46:24.927Z</time></trkpt><trkpt lat="49.7965306" lon="14.9003481"><ele>490.99999999999994</ele><time>2026-04-06T11:46:26.927Z</time></trkpt><trkpt lat="49.7964511" lon="14.9002633"><ele>491.0</ele><time>2026-04-06T11:46:28.927Z</time></trkpt><trkpt lat="49.7963664" lon="14.9001768"><ele>490.99999999999994</ele><time>2026-04-06T11:46:30.927Z</time></trkpt><trkpt lat="49.7962989" lon="14.9001016"><ele>491.0</ele><time>2026-04-06T11:46:32.928Z</time></trkpt><trkpt lat="49.7962963" lon="14.8999934"><ele>491.0</ele><time>2026-04-06T11:46:34.928Z</time></trkpt><trkpt lat="49.7963994" lon="14.8998738"><ele>491.0</ele><time>2026-04-06T11:46:36.928Z</time></trkpt><trkpt lat="49.7964603" lon="14.8998101"><ele>490.99999999999994</ele><time>2026-04-06T11:46:37.927Z</time></trkpt><trkpt lat="49.7965235" lon="14.89975"><ele>491.0</ele><time>2026-04-06T11:46:38.927Z</time></trkpt><trkpt lat="49.7965924" lon="14.8996875"><ele>490.6</ele><time>2026-04-06T11:46:39.928Z</time></trkpt><trkpt lat="49.7966669" lon="14.8996215"><ele>490.20000000000005</ele><time>2026-04-06T11:46:40.927Z</time></trkpt><trkpt lat="49.7967503" lon="14.8995447"><ele>489.79999999999995</ele><time>2026-04-06T11:46:41.928Z</time></trkpt><trkpt lat="49.7968344" lon="14.8994604"><ele>489.4</ele><time>2026-04-06T11:46:42.927Z</time></trkpt><trkpt lat="49.7969143" lon="14.8993648"><ele>489.0</ele><time>2026-04-06T11:46:43.928Z</time></trkpt><trkpt lat="49.7969862" lon="14.8992726"><ele>488.6</ele><time>2026-04-06T11:46:44.928Z</time></trkpt><trkpt lat="49.7970475" lon="14.8991936"><ele>488.2</ele><time>2026-04-06T11:46:45.928Z</time></trkpt><trkpt lat="49.7971066" lon="14.8991175"><ele>487.80000000000007</ele><time>2026-04-06T11:46:46.927Z</time></trkpt><trkpt lat="49.7971597" lon="14.8990169"><ele>487.40000000000003</ele><time>2026-04-06T11:46:47.928Z</time></trkpt><trkpt lat="49.7972071" lon="14.8988844"><ele>487.0</ele><time>2026-04-06T11:46:48.927Z</time></trkpt><trkpt lat="49.7972616" lon="14.8987225"><ele>487.0</ele><time>2026-04-06T11:46:49.928Z</time></trkpt><trkpt lat="49.7973179" lon="14.8985326"><ele>487.0</ele><time>2026-04-06T11:46:50.927Z</time></trkpt><trkpt lat="49.7973853" lon="14.898321"><ele>487.0</ele><time>2026-04-06T11:46:51.927Z</time></trkpt><trkpt lat="49.7974503" lon="14.8980956"><ele>487.0</ele><time>2026-04-06T11:46:52.928Z</time></trkpt><trkpt lat="49.7975034" lon="14.8978701"><ele>487.25</ele><time>2026-04-06T11:46:53.928Z</time></trkpt><trkpt lat="49.7975362" lon="14.8976499"><ele>487.5</ele><time>2026-04-06T11:46:54.928Z</time></trkpt><trkpt lat="49.7975484" lon="14.897426"><ele>487.75</ele><time>2026-04-06T11:46:55.927Z</time></trkpt><trkpt lat="49.7975339" lon="14.8972019"><ele>488.0</ele><time>2026-04-06T11:46:56.928Z</time></trkpt><trkpt lat="49.7974959" lon="14.896975"><ele>489.66666666666663</ele><time>2026-04-06T11:46:57.928Z</time></trkpt><trkpt lat="49.797448" lon="14.8967515"><ele>491.33333333333337</ele><time>2026-04-06T11:46:58.928Z</time></trkpt><trkpt lat="49.797412" lon="14.8965259"><ele>493.0</ele><time>2026-04-06T11:46:59.927Z</time></trkpt><trkpt lat="49.7973888" lon="14.8962977"><ele>493.0</ele><time>2026-04-06T11:47:00.928Z</time></trkpt><trkpt lat="49.7973873" lon="14.8960829"><ele>493.0</ele><time>2026-04-06T11:47:01.927Z</time></trkpt><trkpt lat="49.7974153" lon="14.8958778"><ele>493.0</ele><time>2026-04-06T11:47:02.927Z</time></trkpt><trkpt lat="49.7974654" lon="14.8956706"><ele>493.0</ele><time>2026-04-06T11:47:03.927Z</time></trkpt><trkpt lat="49.7975332" lon="14.8954724"><ele>494.0</ele><time>2026-04-06T11:47:04.928Z</time></trkpt><trkpt lat="49.7976198" lon="14.8953006"><ele>495.0</ele><time>2026-04-06T11:47:05.927Z</time></trkpt><trkpt lat="49.7977055" lon="14.8951255"><ele>496.0</ele><time>2026-04-06T11:47:06.927Z</time></trkpt><trkpt lat="49.7977822" lon="14.8949686"><ele>497.0</ele><time>2026-04-06T11:47:07.927Z</time></trkpt><trkpt lat="49.7978354" lon="14.8947871"><ele>497.75</ele><time>2026-04-06T11:47:08.927Z</time></trkpt><trkpt lat="49.7978657" lon="14.8945657"><ele>498.5</ele><time>2026-04-06T11:47:09.927Z</time></trkpt><trkpt lat="49.7978886" lon="14.8943516"><ele>499.25</ele><time>2026-04-06T11:47:10.928Z</time></trkpt><trkpt lat="49.7979058" lon="14.8941198"><ele>500.0</ele><time>2026-04-06T11:47:11.928Z</time></trkpt><trkpt lat="49.7979043" lon="14.8938532"><ele>501.0</ele><time>2026-04-06T11:47:12.927Z</time></trkpt><trkpt lat="49.7978943" lon="14.8935831"><ele>502.0</ele><time>2026-04-06T11:47:13.928Z</time></trkpt><trkpt lat="49.797866" lon="14.8933374"><ele>503.0</ele><time>2026-04-06T11:47:14.927Z</time></trkpt><trkpt lat="49.7978335" lon="14.8931114"><ele>503.5</ele><time>2026-04-06T11:47:15.927Z</time></trkpt><trkpt lat="49.7978136" lon="14.8928998"><ele>504.0</ele><time>2026-04-06T11:47:16.927Z</time></trkpt><trkpt lat="49.7978091" lon="14.8926803"><ele>504.5</ele><time>2026-04-06T11:47:17.927Z</time></trkpt><trkpt lat="49.7977927" lon="14.8924648"><ele>505.0</ele><time>2026-04-06T11:47:18.927Z</time></trkpt><trkpt lat="49.7977729" lon="14.8922565"><ele>506.25</ele><time>2026-04-06T11:47:19.927Z</time></trkpt><trkpt lat="49.7977581" lon="14.892044"><ele>507.5</ele><time>2026-04-06T11:47:20.927Z</time></trkpt><trkpt lat="49.7977518" lon="14.8918118"><ele>508.75</ele><time>2026-04-06T11:47:21.927Z</time></trkpt><trkpt lat="49.7977366" lon="14.8915682"><ele>510.0</ele><time>2026-04-06T11:47:22.928Z</time></trkpt><trkpt lat="49.7977245" lon="14.8913345"><ele>510.66666666666663</ele><time>2026-04-06T11:47:23.928Z</time></trkpt><trkpt lat="49.7977114" lon="14.8910999"><ele>511.3333333333333</ele><time>2026-04-06T11:47:24.927Z</time></trkpt><trkpt lat="49.7976924" lon="14.8908516"><ele>512.0</ele><time>2026-04-06T11:47:25.928Z</time></trkpt><trkpt lat="49.7976633" lon="14.8906192"><ele>513.0</ele><time>2026-04-06T11:47:26.928Z</time></trkpt><trkpt lat="49.7976306" lon="14.8904049"><ele>514.0</ele><time>2026-04-06T11:47:27.927Z</time></trkpt><trkpt lat="49.7975926" lon="14.8901955"><ele>515.0</ele><time>2026-04-06T11:47:28.927Z</time></trkpt><trkpt lat="49.7975421" lon="14.8899893"><ele>516.0</ele><time>2026-04-06T11:47:29.927Z</time></trkpt><trkpt lat="49.7974969" lon="14.8898"><ele>516.0</ele><time>2026-04-06T11:47:30.927Z</time></trkpt><trkpt lat="49.7974439" lon="14.8896133"><ele>516.0</ele><time>2026-04-06T11:47:31.928Z</time></trkpt><trkpt lat="49.7973786" lon="14.8894183"><ele>516.0</ele><time>2026-04-06T11:47:32.928Z</time></trkpt><trkpt lat="49.7972958" lon="14.8892133"><ele>516.0</ele><time>2026-04-06T11:47:33.928Z</time></trkpt><trkpt lat="49.7972188" lon="14.8890182"><ele>514.0</ele><time>2026-04-06T11:47:34.928Z</time></trkpt><trkpt lat="49.7971424" lon="14.8888429"><ele>512.0</ele><time>2026-04-06T11:47:35.928Z</time></trkpt><trkpt lat="49.7970525" lon="14.8886879"><ele>510.0</ele><time>2026-04-06T11:47:36.927Z</time></trkpt><trkpt lat="49.7969442" lon="14.8885401"><ele>508.0</ele><time>2026-04-06T11:47:37.928Z</time></trkpt><trkpt lat="49.7968442" lon="14.8883977"><ele>507.2</ele><time>2026-04-06T11:47:38.928Z</time></trkpt><trkpt lat="49.7967564" lon="14.8882583"><ele>506.4</ele><time>2026-04-06T11:47:39.927Z</time></trkpt><trkpt lat="49.796684" lon="14.8881224"><ele>505.59999999999997</ele><time>2026-04-06T11:47:40.928Z</time></trkpt><trkpt lat="49.7966187" lon="14.8879913"><ele>504.79999999999995</ele><time>2026-04-06T11:47:41.928Z</time></trkpt><trkpt lat="49.796569" lon="14.8878855"><ele>504.0</ele><time>2026-04-06T11:47:42.927Z</time></trkpt><trkpt lat="49.7965329" lon="14.8877845"><ele>504.0</ele><time>2026-04-06T11:47:43.927Z</time></trkpt><trkpt lat="49.7964978" lon="14.8876279"><ele>504.0</ele><time>2026-04-06T11:47:45.927Z</time></trkpt><trkpt lat="49.7964743" lon="14.8874877"><ele>504.0</ele><time>2026-04-06T11:47:47.927Z</time></trkpt><trkpt lat="49.7964403" lon="14.8873808"><ele>504.0</ele><time>2026-04-06T11:47:48.928Z</time></trkpt><trkpt lat="49.7963789" lon="14.8872436"><ele>504.0</ele><time>2026-04-06T11:47:49.927Z</time></trkpt><trkpt lat="49.7962902" lon="14.8870868"><ele>501.0</ele><time>2026-04-06T11:47:50.927Z</time></trkpt><trkpt lat="49.7962003" lon="14.8869161"><ele>498.0</ele><time>2026-04-06T11:47:51.927Z</time></trkpt><trkpt lat="49.7961071" lon="14.8867197"><ele>495.0</ele><time>2026-04-06T11:47:52.927Z</time></trkpt><trkpt lat="49.7960161" lon="14.8865102"><ele>494.33333333333337</ele><time>2026-04-06T11:47:53.927Z</time></trkpt><trkpt lat="49.7959347" lon="14.8863116"><ele>493.6666666666667</ele><time>2026-04-06T11:47:54.927Z</time></trkpt><trkpt lat="49.7958531" lon="14.8861153"><ele>493.0</ele><time>2026-04-06T11:47:55.928Z</time></trkpt><trkpt lat="49.7957665" lon="14.8859163"><ele>493.0</ele><time>2026-04-06T11:47:56.928Z</time></trkpt><trkpt lat="49.7956766" lon="14.8857374"><ele>493.0</ele><time>2026-04-06T11:47:57.928Z</time></trkpt><trkpt lat="49.7955874" lon="14.8855839"><ele>493.0</ele><time>2026-04-06T11:47:58.927Z</time></trkpt><trkpt lat="49.7955054" lon="14.8854495"><ele>493.0</ele><time>2026-04-06T11:47:59.927Z</time></trkpt><trkpt lat="49.7954455" lon="14.8853438"><ele>493.0</ele><time>2026-04-06T11:48:00.928Z</time></trkpt><trkpt lat="49.795427" lon="14.8852367"><ele>492.99999999999994</ele><time>2026-04-06T11:48:02.928Z</time></trkpt><trkpt lat="49.7955127" lon="14.8851763"><ele>492.99999999999994</ele><time>2026-04-06T11:48:05.928Z</time></trkpt><trkpt lat="49.7956341" lon="14.8852091"><ele>493.0</ele><time>2026-04-06T11:48:07.927Z</time></trkpt><trkpt lat="49.7957129" lon="14.8852413"><ele>493.0</ele><time>2026-04-06T11:48:08.927Z</time></trkpt><trkpt lat="49.7958117" lon="14.8852491"><ele>493.00000000000006</ele><time>2026-04-06T11:48:09.927Z</time></trkpt><trkpt lat="49.7959105" lon="14.8852408"><ele>493.0</ele><time>2026-04-06T11:48:10.927Z</time></trkpt><trkpt lat="49.795994" lon="14.8852387"><ele>493.0</ele><time>2026-04-06T11:48:11.928Z</time></trkpt><trkpt lat="49.7960777" lon="14.8852545"><ele>493.0</ele><time>2026-04-06T11:48:12.928Z</time></trkpt><trkpt lat="49.7961573" lon="14.8852786"><ele>493.00000000000006</ele><time>2026-04-06T11:48:13.927Z</time></trkpt><trkpt lat="49.7962446" lon="14.8853011"><ele>493.0</ele><time>2026-04-06T11:48:14.928Z</time></trkpt><trkpt lat="49.7963408" lon="14.8853273"><ele>491.79999999999995</ele><time>2026-04-06T11:48:15.927Z</time></trkpt><trkpt lat="49.7964385" lon="14.8853648"><ele>490.59999999999997</ele><time>2026-04-06T11:48:16.928Z</time></trkpt><trkpt lat="49.7965363" lon="14.8854109"><ele>489.40000000000003</ele><time>2026-04-06T11:48:17.928Z</time></trkpt><trkpt lat="49.7966415" lon="14.8854618"><ele>488.20000000000005</ele><time>2026-04-06T11:48:18.927Z</time></trkpt><trkpt lat="49.796753" lon="14.8855023"><ele>487.0</ele><time>2026-04-06T11:48:19.928Z</time></trkpt><trkpt lat="49.796869" lon="14.8855402"><ele>485.40000000000003</ele><time>2026-04-06T11:48:20.928Z</time></trkpt><trkpt lat="49.7969763" lon="14.8855725"><ele>483.80000000000007</ele><time>2026-04-06T11:48:21.927Z</time></trkpt><trkpt lat="49.7970718" lon="14.8855975"><ele>482.2</ele><time>2026-04-06T11:48:22.928Z</time></trkpt><trkpt lat="49.7971619" lon="14.8856186"><ele>480.6</ele><time>2026-04-06T11:48:23.927Z</time></trkpt><trkpt lat="49.7972473" lon="14.8856424"><ele>479.0</ele><time>2026-04-06T11:48:24.927Z</time></trkpt><trkpt lat="49.7973247" lon="14.8856565"><ele>478.99999999999994</ele><time>2026-04-06T11:48:25.928Z</time></trkpt><trkpt lat="49.797405" lon="14.8856675"><ele>479.0</ele><time>2026-04-06T11:48:26.928Z</time></trkpt><trkpt lat="49.7974875" lon="14.885679"><ele>479.0</ele><time>2026-04-06T11:48:27.928Z</time></trkpt><trkpt lat="49.7975687" lon="14.8856923"><ele>479.0</ele><time>2026-04-06T11:48:28.927Z</time></trkpt><trkpt lat="49.7976457" lon="14.8857102"><ele>478.99999999999994</ele><time>2026-04-06T11:48:29.928Z</time></trkpt><trkpt lat="49.7977249" lon="14.8857186"><ele>479.0</ele><time>2026-04-06T11:48:30.927Z</time></trkpt><trkpt lat="49.7978071" lon="14.8857139"><ele>478.16666666666663</ele><time>2026-04-06T11:48:31.928Z</time></trkpt><trkpt lat="49.7978813" lon="14.8856988"><ele>477.3333333333333</ele><time>2026-04-06T11:48:32.928Z</time></trkpt><trkpt lat="49.7979498" lon="14.8856644"><ele>476.5</ele><time>2026-04-06T11:48:33.927Z</time></trkpt><trkpt lat="49.7980206" lon="14.885607"><ele>475.66666666666663</ele><time>2026-04-06T11:48:34.928Z</time></trkpt><trkpt lat="49.7980981" lon="14.8855321"><ele>474.8333333333333</ele><time>2026-04-06T11:48:35.928Z</time></trkpt><trkpt lat="49.7981842" lon="14.885457"><ele>474.0</ele><time>2026-04-06T11:48:36.928Z</time></trkpt><trkpt lat="49.7982727" lon="14.8853806"><ele>474.0</ele><time>2026-04-06T11:48:37.928Z</time></trkpt><trkpt lat="49.7983616" lon="14.8853102"><ele>474.0</ele><time>2026-04-06T11:48:38.928Z</time></trkpt><trkpt lat="49.798453" lon="14.8852576"><ele>474.0</ele><time>2026-04-06T11:48:39.928Z</time></trkpt><trkpt lat="49.7985469" lon="14.8852132"><ele>474.0</ele><time>2026-04-06T11:48:40.927Z</time></trkpt><trkpt lat="49.7986376" lon="14.8851571"><ele>474.0</ele><time>2026-04-06T11:48:41.927Z</time></trkpt><trkpt lat="49.7987321" lon="14.8851003"><ele>472.5</ele><time>2026-04-06T11:48:42.927Z</time></trkpt><trkpt lat="49.7988228" lon="14.8850519"><ele>471.0</ele><time>2026-04-06T11:48:43.927Z</time></trkpt><trkpt lat="49.7989092" lon="14.8850084"><ele>469.5</ele><time>2026-04-06T11:48:44.928Z</time></trkpt><trkpt lat="49.7989919" lon="14.8849685"><ele>468.0</ele><time>2026-04-06T11:48:45.928Z</time></trkpt><trkpt lat="49.7990711" lon="14.8849351"><ele>466.5</ele><time>2026-04-06T11:48:46.928Z</time></trkpt><trkpt lat="49.7991473" lon="14.8849025"><ele>465.0</ele><time>2026-04-06T11:48:47.927Z</time></trkpt><trkpt lat="49.7992229" lon="14.8848675"><ele>465.0</ele><time>2026-04-06T11:48:48.927Z</time></trkpt><trkpt lat="49.7992979" lon="14.8848336"><ele>465.0</ele><time>2026-04-06T11:48:49.928Z</time></trkpt><trkpt lat="49.7993765" lon="14.8848108"><ele>465.0</ele><time>2026-04-06T11:48:50.928Z</time></trkpt><trkpt lat="49.7994521" lon="14.8848039"><ele>465.0</ele><time>2026-04-06T11:48:51.927Z</time></trkpt><trkpt lat="49.7995286" lon="14.8847929"><ele>465.0</ele><time>2026-04-06T11:48:52.927Z</time></trkpt><trkpt lat="49.7996122" lon="14.884795"><ele>465.0</ele><time>2026-04-06T11:48:53.927Z</time></trkpt><trkpt lat="49.7996989" lon="14.8847963"><ele>464.0</ele><time>2026-04-06T11:48:54.927Z</time></trkpt><trkpt lat="49.7997864" lon="14.8848149"><ele>463.0</ele><time>2026-04-06T11:48:55.928Z</time></trkpt><trkpt lat="49.7998687" lon="14.8848244"><ele>462.0</ele><time>2026-04-06T11:48:56.928Z</time></trkpt><trkpt lat="49.7999457" lon="14.8848248"><ele>461.0</ele><time>2026-04-06T11:48:57.928Z</time></trkpt><trkpt lat="49.8000241" lon="14.8848436"><ele>460.0</ele><time>2026-04-06T11:48:58.928Z</time></trkpt><trkpt lat="49.8001497" lon="14.8848594"><ele>458.0</ele><time>2026-04-06T11:49:00.927Z</time></trkpt><trkpt lat="49.8002286" lon="14.884853"><ele>456.0</ele><time>2026-04-06T11:49:01.928Z</time></trkpt><trkpt lat="49.8002933" lon="14.8848387"><ele>454.0</ele><time>2026-04-06T11:49:02.927Z</time></trkpt><trkpt lat="49.8003726" lon="14.8847335"><ele>452.0</ele><time>2026-04-06T11:49:04.928Z</time></trkpt><trkpt lat="49.8003906" lon="14.8845459"><ele>450.0</ele><time>2026-04-06T11:49:06.927Z</time></trkpt><trkpt lat="49.800402" lon="14.8844158"><ele>450.0</ele><time>2026-04-06T11:49:07.927Z</time></trkpt><trkpt lat="49.8004167" lon="14.8842809"><ele>450.0</ele><time>2026-04-06T11:49:08.928Z</time></trkpt><trkpt lat="49.8004366" lon="14.8841566"><ele>450.0</ele><time>2026-04-06T11:49:09.927Z</time></trkpt><trkpt lat="49.8004514" lon="14.8840397"><ele>450.0</ele><time>2026-04-06T11:49:10.927Z</time></trkpt><trkpt lat="49.8004648" lon="14.8839204"><ele>450.0</ele><time>2026-04-06T11:49:11.928Z</time></trkpt><trkpt lat="49.8004788" lon="14.8838058"><ele>450.0</ele><time>2026-04-06T11:49:12.927Z</time></trkpt><trkpt lat="49.8004966" lon="14.8837036"><ele>448.8333333333333</ele><time>2026-04-06T11:49:13.927Z</time></trkpt><trkpt lat="49.8005451" lon="14.883543"><ele>447.66666666666663</ele><time>2026-04-06T11:49:15.928Z</time></trkpt><trkpt lat="49.8006384" lon="14.8834426"><ele>446.5</ele><time>2026-04-06T11:49:17.927Z</time></trkpt><trkpt lat="49.8007017" lon="14.883418"><ele>445.3333333333333</ele><time>2026-04-06T11:49:18.927Z</time></trkpt><trkpt lat="49.8007696" lon="14.8833819"><ele>444.16666666666663</ele><time>2026-04-06T11:49:19.927Z</time></trkpt><trkpt lat="49.8008369" lon="14.8833394"><ele>443.0</ele><time>2026-04-06T11:49:20.927Z</time></trkpt><trkpt lat="49.8008981" lon="14.8833038"><ele>442.99999999999994</ele><time>2026-04-06T11:49:21.928Z</time></trkpt><trkpt lat="49.800964" lon="14.8832778"><ele>443.0</ele><time>2026-04-06T11:49:22.928Z</time></trkpt><trkpt lat="49.8010437" lon="14.8832693"><ele>443.0</ele><time>2026-04-06T11:49:23.927Z</time></trkpt><trkpt lat="49.8011242" lon="14.8832637"><ele>443.0</ele><time>2026-04-06T11:49:24.928Z</time></trkpt><trkpt lat="49.8012148" lon="14.8832555"><ele>442.99999999999994</ele><time>2026-04-06T11:49:25.927Z</time></trkpt><trkpt lat="49.8013158" lon="14.883242"><ele>443.0</ele><time>2026-04-06T11:49:26.927Z</time></trkpt><trkpt lat="49.8014139" lon="14.8832311"><ele>442.8333333333333</ele><time>2026-04-06T11:49:27.928Z</time></trkpt><trkpt lat="49.801502" lon="14.8832165"><ele>442.66666666666663</ele><time>2026-04-06T11:49:28.928Z</time></trkpt><trkpt lat="49.8015793" lon="14.8831975"><ele>442.5</ele><time>2026-04-06T11:49:29.928Z</time></trkpt><trkpt lat="49.8016527" lon="14.8831828"><ele>442.33333333333337</ele><time>2026-04-06T11:49:30.927Z</time></trkpt><trkpt lat="49.80172" lon="14.8831419"><ele>442.1666666666667</ele><time>2026-04-06T11:49:31.927Z</time></trkpt><trkpt lat="49.8017936" lon="14.883114"><ele>442.0</ele><time>2026-04-06T11:49:32.928Z</time></trkpt><trkpt lat="49.8018597" lon="14.8831084"><ele>442.0</ele><time>2026-04-06T11:49:33.927Z</time></trkpt><trkpt lat="49.8019285" lon="14.8831058"><ele>442.00000000000006</ele><time>2026-04-06T11:49:35.928Z</time></trkpt><trkpt lat="49.8020197" lon="14.8831148"><ele>442.00000000000006</ele><time>2026-04-06T11:49:37.927Z</time></trkpt><trkpt lat="49.8020877" lon="14.8829935"><ele>442.0</ele><time>2026-04-06T11:49:39.928Z</time></trkpt><trkpt lat="49.8021369" lon="14.8828116"><ele>442.0</ele><time>2026-04-06T11:49:41.927Z</time></trkpt><trkpt lat="49.802151" lon="14.8827048"><ele>442.00000000000006</ele><time>2026-04-06T11:49:42.928Z</time></trkpt><trkpt lat="49.8021823" lon="14.8826038"><ele>442.0</ele><time>2026-04-06T11:49:43.927Z</time></trkpt><trkpt lat="49.8022053" lon="14.882496"><ele>442.0</ele><time>2026-04-06T11:49:44.927Z</time></trkpt><trkpt lat="49.8022276" lon="14.8824017"><ele>442.0</ele><time>2026-04-06T11:49:45.928Z</time></trkpt><trkpt lat="49.8023016" lon="14.8822555"><ele>442.00000000000006</ele><time>2026-04-06T11:49:47.928Z</time></trkpt><trkpt lat="49.8023319" lon="14.8821639"><ele>442.0</ele><time>2026-04-06T11:49:48.927Z</time></trkpt><trkpt lat="49.8023499" lon="14.8820648"><ele>442.28571428571433</ele><time>2026-04-06T11:49:49.927Z</time></trkpt><trkpt lat="49.8023633" lon="14.8819661"><ele>442.57142857142856</ele><time>2026-04-06T11:49:50.927Z</time></trkpt><trkpt lat="49.8023764" lon="14.8818664"><ele>442.8571428571429</ele><time>2026-04-06T11:49:51.928Z</time></trkpt><trkpt lat="49.8023827" lon="14.8817637"><ele>443.14285714285717</ele><time>2026-04-06T11:49:52.928Z</time></trkpt><trkpt lat="49.8023919" lon="14.8816622"><ele>443.42857142857144</ele><time>2026-04-06T11:49:53.927Z</time></trkpt><trkpt lat="49.8024193" lon="14.88157"><ele>443.7142857142857</ele><time>2026-04-06T11:49:54.927Z</time></trkpt><trkpt lat="49.8024449" lon="14.8814673"><ele>444.0</ele><time>2026-04-06T11:49:55.928Z</time></trkpt><trkpt lat="49.8024792" lon="14.8813807"><ele>443.3333333333333</ele><time>2026-04-06T11:49:56.927Z</time></trkpt><trkpt lat="49.8025217" lon="14.8813024"><ele>442.66666666666663</ele><time>2026-04-06T11:49:57.928Z</time></trkpt><trkpt lat="49.8025743" lon="14.8812345"><ele>442.0</ele><time>2026-04-06T11:49:58.928Z</time></trkpt><trkpt lat="49.8026212" lon="14.8811642"><ele>441.3333333333333</ele><time>2026-04-06T11:49:59.927Z</time></trkpt><trkpt lat="49.8027179" lon="14.8810468"><ele>440.66666666666663</ele><time>2026-04-06T11:50:01.928Z</time></trkpt><trkpt lat="49.8028047" lon="14.8809219"><ele>440.0</ele><time>2026-04-06T11:50:03.927Z</time></trkpt><trkpt lat="49.8028819" lon="14.8807955"><ele>436.66666666666663</ele><time>2026-04-06T11:50:05.927Z</time></trkpt><trkpt lat="49.8029243" lon="14.8807187"><ele>433.3333333333333</ele><time>2026-04-06T11:50:06.927Z</time></trkpt><trkpt lat="49.8029566" lon="14.8806274"><ele>430.0</ele><time>2026-04-06T11:50:07.927Z</time></trkpt><trkpt lat="49.8029941" lon="14.8805059"><ele>426.66666666666663</ele><time>2026-04-06T11:50:08.927Z</time></trkpt><trkpt lat="49.8030268" lon="14.8803706"><ele>423.3333333333333</ele><time>2026-04-06T11:50:09.927Z</time></trkpt><trkpt lat="49.8030653" lon="14.8802482"><ele>420.0</ele><time>2026-04-06T11:50:10.927Z</time></trkpt><trkpt lat="49.8031124" lon="14.8801231"><ele>419.6</ele><time>2026-04-06T11:50:11.928Z</time></trkpt><trkpt lat="49.8031674" lon="14.8799937"><ele>419.2</ele><time>2026-04-06T11:50:12.928Z</time></trkpt><trkpt lat="49.8032325" lon="14.8798672"><ele>418.79999999999995</ele><time>2026-04-06T11:50:13.928Z</time></trkpt><trkpt lat="49.8032926" lon="14.8797379"><ele>418.4</ele><time>2026-04-06T11:50:14.927Z</time></trkpt><trkpt lat="49.8033329" lon="14.8795864"><ele>418.0</ele><time>2026-04-06T11:50:15.927Z</time></trkpt><trkpt lat="49.8033449" lon="14.8794024"><ele>419.0</ele><time>2026-04-06T11:50:16.927Z</time></trkpt><trkpt lat="49.8033338" lon="14.8792078"><ele>420.0</ele><time>2026-04-06T11:50:17.928Z</time></trkpt><trkpt lat="49.803311" lon="14.8790116"><ele>421.0</ele><time>2026-04-06T11:50:18.927Z</time></trkpt><trkpt lat="49.803288" lon="14.8788565"><ele>422.0</ele><time>2026-04-06T11:50:19.928Z</time></trkpt><trkpt lat="49.8032537" lon="14.8787482"><ele>423.0</ele><time>2026-04-06T11:50:20.928Z</time></trkpt><trkpt lat="49.803199" lon="14.8786407"><ele>423.0</ele><time>2026-04-06T11:50:22.928Z</time></trkpt><trkpt lat="49.8032607" lon="14.878766"><ele>423.0</ele><time>2026-04-06T11:50:32.927Z</time></trkpt><trkpt lat="49.8033424" lon="14.8788969"><ele>423.0</ele><time>2026-04-06T11:50:34.928Z</time></trkpt><trkpt lat="49.8034178" lon="14.8789572"><ele>423.0</ele><time>2026-04-06T11:50:35.928Z</time></trkpt><trkpt lat="49.8035149" lon="14.8789953"><ele>423.0</ele><time>2026-04-06T11:50:36.927Z</time></trkpt><trkpt lat="49.8036344" lon="14.8790078"><ele>425.33333333333337</ele><time>2026-04-06T11:50:37.928Z</time></trkpt><trkpt lat="49.8037941" lon="14.8790068"><ele>427.6666666666667</ele><time>2026-04-06T11:50:38.927Z</time></trkpt><trkpt lat="49.8039757" lon="14.8790052"><ele>430.0</ele><time>2026-04-06T11:50:39.928Z</time></trkpt><trkpt lat="49.8041546" lon="14.8790073"><ele>430.0</ele><time>2026-04-06T11:50:40.927Z</time></trkpt><trkpt lat="49.8043248" lon="14.8790116"><ele>430.0</ele><time>2026-04-06T11:50:41.928Z</time></trkpt><trkpt lat="49.8044828" lon="14.8790114"><ele>430.0</ele><time>2026-04-06T11:50:42.928Z</time></trkpt><trkpt lat="49.8046338" lon="14.8790105"><ele>430.0</ele><time>2026-04-06T11:50:43.928Z</time></trkpt><trkpt lat="49.8047783" lon="14.8790125"><ele>430.0</ele><time>2026-04-06T11:50:44.927Z</time></trkpt><trkpt lat="49.8049179" lon="14.8790151"><ele>430.0</ele><time>2026-04-06T11:50:45.927Z</time></trkpt><trkpt lat="49.8050553" lon="14.8790106"><ele>430.0</ele><time>2026-04-06T11:50:46.928Z</time></trkpt><trkpt lat="49.8051943" lon="14.8790098"><ele>429.5</ele><time>2026-04-06T11:50:47.928Z</time></trkpt><trkpt lat="49.8053373" lon="14.8790156"><ele>429.0</ele><time>2026-04-06T11:50:48.927Z</time></trkpt><trkpt lat="49.8054677" lon="14.879027"><ele>428.5</ele><time>2026-04-06T11:50:49.927Z</time></trkpt><trkpt lat="49.8055914" lon="14.8790498"><ele>428.0</ele><time>2026-04-06T11:50:50.927Z</time></trkpt><trkpt lat="49.8057263" lon="14.8791038"><ele>428.0</ele><time>2026-04-06T11:50:51.928Z</time></trkpt><trkpt lat="49.8058734" lon="14.8791622"><ele>428.0</ele><time>2026-04-06T11:50:52.928Z</time></trkpt><trkpt lat="49.8060172" lon="14.8792367"><ele>428.0</ele><time>2026-04-06T11:50:53.927Z</time></trkpt><trkpt lat="49.8061614" lon="14.8793139"><ele>426.66666666666663</ele><time>2026-04-06T11:50:54.928Z</time></trkpt><trkpt lat="49.8063085" lon="14.8793859"><ele>425.33333333333337</ele><time>2026-04-06T11:50:55.927Z</time></trkpt><trkpt lat="49.8064579" lon="14.8794568"><ele>424.0</ele><time>2026-04-06T11:50:56.927Z</time></trkpt><trkpt lat="49.8066089" lon="14.8795265"><ele>424.0</ele><time>2026-04-06T11:50:57.927Z</time></trkpt><trkpt lat="49.8067589" lon="14.8795969"><ele>424.0</ele><time>2026-04-06T11:50:58.927Z</time></trkpt><trkpt lat="49.8069083" lon="14.8796673"><ele>424.0</ele><time>2026-04-06T11:50:59.928Z</time></trkpt><trkpt lat="49.8070515" lon="14.8797383"><ele>422.5</ele><time>2026-04-06T11:51:00.928Z</time></trkpt><trkpt lat="49.8071824" lon="14.8798046"><ele>421.0</ele><time>2026-04-06T11:51:01.928Z</time></trkpt><trkpt lat="49.8073117" lon="14.8798768"><ele>419.5</ele><time>2026-04-06T11:51:02.928Z</time></trkpt><trkpt lat="49.8074348" lon="14.8799584"><ele>418.0</ele><time>2026-04-06T11:51:03.927Z</time></trkpt><trkpt lat="49.8075507" lon="14.8800566"><ele>417.75</ele><time>2026-04-06T11:51:04.927Z</time></trkpt><trkpt lat="49.807661" lon="14.8801759"><ele>417.5</ele><time>2026-04-06T11:51:05.928Z</time></trkpt><trkpt lat="49.8077813" lon="14.8802839"><ele>417.25</ele><time>2026-04-06T11:51:06.928Z</time></trkpt><trkpt lat="49.8079104" lon="14.8803731"><ele>417.0</ele><time>2026-04-06T11:51:07.927Z</time></trkpt><trkpt lat="49.8080415" lon="14.880467"><ele>417.0</ele><time>2026-04-06T11:51:08.927Z</time></trkpt><trkpt lat="49.8081735" lon="14.8805634"><ele>417.0</ele><time>2026-04-06T11:51:09.927Z</time></trkpt><trkpt lat="49.8083061" lon="14.8806582"><ele>417.0</ele><time>2026-04-06T11:51:10.927Z</time></trkpt><trkpt lat="49.8084407" lon="14.8807393"><ele>417.0</ele><time>2026-04-06T11:51:11.927Z</time></trkpt><trkpt lat="49.8085756" lon="14.8808078"><ele>412.75</ele><time>2026-04-06T11:51:12.927Z</time></trkpt><trkpt lat="49.8087095" lon="14.8808632"><ele>408.5</ele><time>2026-04-06T11:51:13.927Z</time></trkpt><trkpt lat="49.8088429" lon="14.8808954"><ele>404.25</ele><time>2026-04-06T11:51:14.927Z</time></trkpt><trkpt lat="49.808982" lon="14.8809055"><ele>400.0</ele><time>2026-04-06T11:51:15.927Z</time></trkpt><trkpt lat="49.8091285" lon="14.8809151"><ele>400.0</ele><time>2026-04-06T11:51:16.928Z</time></trkpt><trkpt lat="49.8092802" lon="14.8809298"><ele>400.0</ele><time>2026-04-06T11:51:17.928Z</time></trkpt><trkpt lat="49.8094311" lon="14.8809444"><ele>400.0</ele><time>2026-04-06T11:51:18.928Z</time></trkpt><trkpt lat="49.8095766" lon="14.8809628"><ele>400.0</ele><time>2026-04-06T11:51:19.927Z</time></trkpt><trkpt lat="49.8097185" lon="14.8809968"><ele>400.75</ele><time>2026-04-06T11:51:20.927Z</time></trkpt><trkpt lat="49.809861" lon="14.8810314"><ele>401.5</ele><time>2026-04-06T11:51:21.927Z</time></trkpt><trkpt lat="49.8100072" lon="14.8810483"><ele>402.25</ele><time>2026-04-06T11:51:22.928Z</time></trkpt><trkpt lat="49.8101613" lon="14.8810514"><ele>403.0</ele><time>2026-04-06T11:51:23.928Z</time></trkpt><trkpt lat="49.8103195" lon="14.8810503"><ele>405.33333333333337</ele><time>2026-04-06T11:51:24.928Z</time></trkpt><trkpt lat="49.8104807" lon="14.8810628"><ele>407.66666666666663</ele><time>2026-04-06T11:51:25.928Z</time></trkpt><trkpt lat="49.8106465" lon="14.8811015"><ele>410.0</ele><time>2026-04-06T11:51:26.927Z</time></trkpt><trkpt lat="49.8108202" lon="14.8811655"><ele>407.66666666666663</ele><time>2026-04-06T11:51:27.928Z</time></trkpt><trkpt lat="49.8109995" lon="14.8812403"><ele>405.33333333333337</ele><time>2026-04-06T11:51:28.928Z</time></trkpt><trkpt lat="49.8111723" lon="14.8813057"><ele>403.0</ele><time>2026-04-06T11:51:29.927Z</time></trkpt><trkpt lat="49.8113273" lon="14.8813546"><ele>403.0</ele><time>2026-04-06T11:51:30.927Z</time></trkpt><trkpt lat="49.8114604" lon="14.8814135"><ele>403.0</ele><time>2026-04-06T11:51:31.927Z</time></trkpt><trkpt lat="49.811568" lon="14.8814932"><ele>403.0</ele><time>2026-04-06T11:51:32.928Z</time></trkpt><trkpt lat="49.8116585" lon="14.8815966"><ele>403.0</ele><time>2026-04-06T11:51:33.928Z</time></trkpt><trkpt lat="49.8117476" lon="14.8817262"><ele>401.00000000000006</ele><time>2026-04-06T11:51:34.927Z</time></trkpt><trkpt lat="49.8118296" lon="14.8818551"><ele>399.0</ele><time>2026-04-06T11:51:35.927Z</time></trkpt><trkpt lat="49.8119086" lon="14.881959"><ele>397.0</ele><time>2026-04-06T11:51:36.927Z</time></trkpt><trkpt lat="49.8119839" lon="14.8820355"><ele>395.0</ele><time>2026-04-06T11:51:37.927Z</time></trkpt><trkpt lat="49.8120442" lon="14.882083"><ele>393.00000000000006</ele><time>2026-04-06T11:51:38.928Z</time></trkpt><trkpt lat="49.8121145" lon="14.882085"><ele>391.0</ele><time>2026-04-06T11:51:40.934Z</time></trkpt><trkpt lat="49.8121403" lon="14.8819858"><ele>391.0</ele><time>2026-04-06T11:51:42.935Z</time></trkpt><trkpt lat="49.8121172" lon="14.881812"><ele>391.0</ele><time>2026-04-06T11:51:44.934Z</time></trkpt><trkpt lat="49.8121221" lon="14.8816401"><ele>391.0</ele><time>2026-04-06T11:51:46.934Z</time></trkpt><trkpt lat="49.8121522" lon="14.8815048"><ele>391.0</ele><time>2026-04-06T11:51:48.935Z</time></trkpt><trkpt lat="49.8121859" lon="14.8814191"><ele>391.0</ele><time>2026-04-06T11:51:51.934Z</time></trkpt><trkpt lat="49.812191" lon="14.881306"><ele>391.8</ele><time>2026-04-06T11:51:55.934Z</time></trkpt><trkpt lat="49.8121949" lon="14.8811251"><ele>392.6</ele><time>2026-04-06T11:51:57.934Z</time></trkpt><trkpt lat="49.8122088" lon="14.8810115"><ele>393.4</ele><time>2026-04-06T11:51:58.935Z</time></trkpt><trkpt lat="49.812227" lon="14.8808806"><ele>394.2</ele><time>2026-04-06T11:51:59.934Z</time></trkpt><trkpt lat="49.8122451" lon="14.8807356"><ele>395.0</ele><time>2026-04-06T11:52:00.934Z</time></trkpt><trkpt lat="49.812278" lon="14.8805717"><ele>397.6</ele><time>2026-04-06T11:52:01.935Z</time></trkpt><trkpt lat="49.8123079" lon="14.8804088"><ele>400.2</ele><time>2026-04-06T11:52:02.934Z</time></trkpt><trkpt lat="49.8123327" lon="14.8802549"><ele>402.79999999999995</ele><time>2026-04-06T11:52:03.934Z</time></trkpt><trkpt lat="49.812354" lon="14.8801016"><ele>405.4</ele><time>2026-04-06T11:52:04.934Z</time></trkpt><trkpt lat="49.8123757" lon="14.8799494"><ele>408.0</ele><time>2026-04-06T11:52:05.935Z</time></trkpt><trkpt lat="49.8124067" lon="14.8797884"><ele>409.4</ele><time>2026-04-06T11:52:06.935Z</time></trkpt><trkpt lat="49.8124467" lon="14.8796257"><ele>410.79999999999995</ele><time>2026-04-06T11:52:07.934Z</time></trkpt><trkpt lat="49.8125018" lon="14.8794757"><ele>412.2</ele><time>2026-04-06T11:52:08.935Z</time></trkpt><trkpt lat="49.8125713" lon="14.8793572"><ele>413.6</ele><time>2026-04-06T11:52:09.934Z</time></trkpt><trkpt lat="49.8126578" lon="14.8792643"><ele>415.0</ele><time>2026-04-06T11:52:10.935Z</time></trkpt><trkpt lat="49.8127672" lon="14.8791795"><ele>415.0</ele><time>2026-04-06T11:52:11.934Z</time></trkpt><trkpt lat="49.8129013" lon="14.8790939"><ele>415.0</ele><time>2026-04-06T11:52:12.934Z</time></trkpt><trkpt lat="49.8130387" lon="14.8790102"><ele>415.0</ele><time>2026-04-06T11:52:13.934Z</time></trkpt><trkpt lat="49.8131583" lon="14.8789064"><ele>415.0</ele><time>2026-04-06T11:52:14.935Z</time></trkpt><trkpt lat="49.813269" lon="14.8787969"><ele>415.0</ele><time>2026-04-06T11:52:15.935Z</time></trkpt><trkpt lat="49.8133538" lon="14.878692"><ele>415.0</ele><time>2026-04-06T11:52:16.934Z</time></trkpt><trkpt lat="49.81343" lon="14.8786208"><ele>415.0</ele><time>2026-04-06T11:52:17.934Z</time></trkpt><trkpt lat="49.8135125" lon="14.8785351"><ele>415.0</ele><time>2026-04-06T11:52:18.935Z</time></trkpt><trkpt lat="49.8136053" lon="14.8784545"><ele>415.0</ele><time>2026-04-06T11:52:19.935Z</time></trkpt><trkpt lat="49.8137011" lon="14.878375"><ele>412.8</ele><time>2026-04-06T11:52:20.934Z</time></trkpt><trkpt lat="49.8137979" lon="14.8782966"><ele>410.6</ele><time>2026-04-06T11:52:21.935Z</time></trkpt><trkpt lat="49.8138971" lon="14.878223"><ele>408.4</ele><time>2026-04-06T11:52:22.934Z</time></trkpt><trkpt lat="49.8140033" lon="14.8781485"><ele>406.2</ele><time>2026-04-06T11:52:23.935Z</time></trkpt><trkpt lat="49.8141017" lon="14.8780672"><ele>404.0</ele><time>2026-04-06T11:52:24.935Z</time></trkpt><trkpt lat="49.8141999" lon="14.8779762"><ele>404.0</ele><time>2026-04-06T11:52:25.935Z</time></trkpt><trkpt lat="49.8143103" lon="14.8778817"><ele>404.0</ele><time>2026-04-06T11:52:26.934Z</time></trkpt><trkpt lat="49.814419" lon="14.8777991"><ele>404.0</ele><time>2026-04-06T11:52:27.934Z</time></trkpt><trkpt lat="49.8145219" lon="14.8777235"><ele>404.0</ele><time>2026-04-06T11:52:28.934Z</time></trkpt><trkpt lat="49.8146277" lon="14.8776662"><ele>404.8333333333333</ele><time>2026-04-06T11:52:29.934Z</time></trkpt><trkpt lat="49.8147304" lon="14.8776288"><ele>405.66666666666663</ele><time>2026-04-06T11:52:30.935Z</time></trkpt><trkpt lat="49.8148229" lon="14.8776031"><ele>406.5</ele><time>2026-04-06T11:52:31.934Z</time></trkpt><trkpt lat="49.8149058" lon="14.8775874"><ele>407.33333333333337</ele><time>2026-04-06T11:52:32.934Z</time></trkpt><trkpt lat="49.8149828" lon="14.8775688"><ele>408.1666666666667</ele><time>2026-04-06T11:52:33.934Z</time></trkpt><trkpt lat="49.815051" lon="14.8775472"><ele>409.0</ele><time>2026-04-06T11:52:34.934Z</time></trkpt><trkpt lat="49.8151152" lon="14.877517"><ele>406.0</ele><time>2026-04-06T11:52:35.935Z</time></trkpt><trkpt lat="49.8151886" lon="14.877469"><ele>403.0</ele><time>2026-04-06T11:52:36.935Z</time></trkpt><trkpt lat="49.8152764" lon="14.8774154"><ele>400.0</ele><time>2026-04-06T11:52:37.934Z</time></trkpt><trkpt lat="49.8153706" lon="14.8773526"><ele>397.0</ele><time>2026-04-06T11:52:38.934Z</time></trkpt><trkpt lat="49.8154599" lon="14.8772906"><ele>394.0</ele><time>2026-04-06T11:52:39.935Z</time></trkpt><trkpt lat="49.8155432" lon="14.8772408"><ele>394.00000000000006</ele><time>2026-04-06T11:52:40.934Z</time></trkpt><trkpt lat="49.8156212" lon="14.8771884"><ele>394.0</ele><time>2026-04-06T11:52:41.934Z</time></trkpt><trkpt lat="49.815691" lon="14.8771429"><ele>394.0</ele><time>2026-04-06T11:52:42.935Z</time></trkpt><trkpt lat="49.8157587" lon="14.8771162"><ele>394.0</ele><time>2026-04-06T11:52:43.935Z</time></trkpt><trkpt lat="49.8158292" lon="14.8771152"><ele>394.00000000000006</ele><time>2026-04-06T11:52:44.934Z</time></trkpt><trkpt lat="49.8158995" lon="14.8771175"><ele>394.0</ele><time>2026-04-06T11:52:45.934Z</time></trkpt><trkpt lat="49.8160277" lon="14.8771005"><ele>391.79999999999995</ele><time>2026-04-06T11:52:47.934Z</time></trkpt><trkpt lat="49.8161296" lon="14.8770569"><ele>389.59999999999997</ele><time>2026-04-06T11:52:49.935Z</time></trkpt><trkpt lat="49.8162303" lon="14.8770333"><ele>387.4</ele><time>2026-04-06T11:52:51.935Z</time></trkpt><trkpt lat="49.8163355" lon="14.8769372"><ele>385.2</ele><time>2026-04-06T11:52:53.934Z</time></trkpt><trkpt lat="49.81639" lon="14.8768591"><ele>383.0</ele><time>2026-04-06T11:52:54.935Z</time></trkpt><trkpt lat="49.8164315" lon="14.8767598"><ele>382.83333333333337</ele><time>2026-04-06T11:52:55.935Z</time></trkpt><trkpt lat="49.8164708" lon="14.876664"><ele>382.6666666666667</ele><time>2026-04-06T11:52:56.934Z</time></trkpt><trkpt lat="49.8165042" lon="14.8765773"><ele>382.5</ele><time>2026-04-06T11:52:57.934Z</time></trkpt><trkpt lat="49.8165568" lon="14.8764869"><ele>382.3333333333333</ele><time>2026-04-06T11:52:58.934Z</time></trkpt><trkpt lat="49.8166335" lon="14.8763787"><ele>382.16666666666663</ele><time>2026-04-06T11:52:59.934Z</time></trkpt><trkpt lat="49.8167079" lon="14.8762888"><ele>382.0</ele><time>2026-04-06T11:53:00.934Z</time></trkpt><trkpt lat="49.8167801" lon="14.8762069"><ele>382.16666666666663</ele><time>2026-04-06T11:53:01.934Z</time></trkpt><trkpt lat="49.8168288" lon="14.8761318"><ele>382.3333333333333</ele><time>2026-04-06T11:53:02.934Z</time></trkpt><trkpt lat="49.8168797" lon="14.8760643"><ele>382.5</ele><time>2026-04-06T11:53:03.935Z</time></trkpt><trkpt lat="49.8169311" lon="14.8759868"><ele>382.6666666666667</ele><time>2026-04-06T11:53:04.935Z</time></trkpt><trkpt lat="49.8169814" lon="14.8759124"><ele>382.83333333333337</ele><time>2026-04-06T11:53:05.934Z</time></trkpt><trkpt lat="49.8170158" lon="14.8758268"><ele>383.0</ele><time>2026-04-06T11:53:06.935Z</time></trkpt><trkpt lat="49.8170117" lon="14.875646"><ele>383.0</ele><time>2026-04-06T11:53:08.935Z</time></trkpt><trkpt lat="49.8169886" lon="14.8755257"><ele>383.0</ele><time>2026-04-06T11:53:09.935Z</time></trkpt><trkpt lat="49.8169542" lon="14.8753962"><ele>383.0</ele><time>2026-04-06T11:53:10.935Z</time></trkpt><trkpt lat="49.8169075" lon="14.8752131"><ele>383.0</ele><time>2026-04-06T11:53:11.934Z</time></trkpt><trkpt lat="49.8168605" lon="14.8750166"><ele>383.0</ele><time>2026-04-06T11:53:12.934Z</time></trkpt><trkpt lat="49.8168241" lon="14.874844"><ele>381.5</ele><time>2026-04-06T11:53:13.934Z</time></trkpt><trkpt lat="49.8167875" lon="14.8746938"><ele>380.0</ele><time>2026-04-06T11:53:14.935Z</time></trkpt><trkpt lat="49.8167721" lon="14.8745166"><ele>378.5</ele><time>2026-04-06T11:53:15.934Z</time></trkpt><trkpt lat="49.8167743" lon="14.8743354"><ele>377.0</ele><time>2026-04-06T11:53:16.934Z</time></trkpt><trkpt lat="49.8168019" lon="14.8741494"><ele>379.25</ele><time>2026-04-06T11:53:17.935Z</time></trkpt><trkpt lat="49.8168542" lon="14.87399"><ele>381.5</ele><time>2026-04-06T11:53:18.934Z</time></trkpt><trkpt lat="49.8169327" lon="14.8738374"><ele>383.75</ele><time>2026-04-06T11:53:19.935Z</time></trkpt><trkpt lat="49.8170361" lon="14.8736753"><ele>386.0</ele><time>2026-04-06T11:53:20.934Z</time></trkpt><trkpt lat="49.8171487" lon="14.8735076"><ele>385.3333333333333</ele><time>2026-04-06T11:53:21.935Z</time></trkpt><trkpt lat="49.8172706" lon="14.8733505"><ele>384.66666666666663</ele><time>2026-04-06T11:53:22.934Z</time></trkpt><trkpt lat="49.8173967" lon="14.8732175"><ele>384.0</ele><time>2026-04-06T11:53:23.934Z</time></trkpt><trkpt lat="49.817512" lon="14.8730776"><ele>384.0</ele><time>2026-04-06T11:53:24.934Z</time></trkpt><trkpt lat="49.8176133" lon="14.8729382"><ele>384.0</ele><time>2026-04-06T11:53:25.935Z</time></trkpt><trkpt lat="49.8177135" lon="14.872807"><ele>384.0</ele><time>2026-04-06T11:53:26.934Z</time></trkpt><trkpt lat="49.8178084" lon="14.8726663"><ele>384.0</ele><time>2026-04-06T11:53:27.935Z</time></trkpt><trkpt lat="49.8179024" lon="14.8725358"><ele>384.6</ele><time>2026-04-06T11:53:28.934Z</time></trkpt><trkpt lat="49.8179954" lon="14.8724254"><ele>385.2</ele><time>2026-04-06T11:53:29.934Z</time></trkpt><trkpt lat="49.8180787" lon="14.8723175"><ele>385.8</ele><time>2026-04-06T11:53:30.935Z</time></trkpt><trkpt lat="49.8181577" lon="14.8721948"><ele>386.40000000000003</ele><time>2026-04-06T11:53:31.935Z</time></trkpt><trkpt lat="49.8182236" lon="14.8720572"><ele>387.0</ele><time>2026-04-06T11:53:32.934Z</time></trkpt><trkpt lat="49.8182826" lon="14.8719173"><ele>387.0</ele><time>2026-04-06T11:53:33.934Z</time></trkpt><trkpt lat="49.8183319" lon="14.8717948"><ele>387.0</ele><time>2026-04-06T11:53:34.934Z</time></trkpt><trkpt lat="49.8183599" lon="14.8716697"><ele>387.0</ele><time>2026-04-06T11:53:35.935Z</time></trkpt><trkpt lat="49.8183852" lon="14.8715516"><ele>387.0</ele><time>2026-04-06T11:53:36.934Z</time></trkpt><trkpt lat="49.8184048" lon="14.8714583"><ele>387.0</ele><time>2026-04-06T11:53:37.934Z</time></trkpt><trkpt lat="49.8184293" lon="14.8713081"><ele>387.0</ele><time>2026-04-06T11:53:39.934Z</time></trkpt><trkpt lat="49.8184264" lon="14.8711534"><ele>387.3333333333333</ele><time>2026-04-06T11:53:41.934Z</time></trkpt><trkpt lat="49.8183955" lon="14.8709565"><ele>387.66666666666663</ele><time>2026-04-06T11:53:43.935Z</time></trkpt><trkpt lat="49.8183787" lon="14.8708548"><ele>388.0</ele><time>2026-04-06T11:53:44.934Z</time></trkpt><trkpt lat="49.8183644" lon="14.8707573"><ele>388.3333333333333</ele><time>2026-04-06T11:53:45.935Z</time></trkpt><trkpt lat="49.8183478" lon="14.8706477"><ele>388.66666666666663</ele><time>2026-04-06T11:53:46.934Z</time></trkpt><trkpt lat="49.818324" lon="14.870522"><ele>389.0</ele><time>2026-04-06T11:53:47.935Z</time></trkpt><trkpt lat="49.818294" lon="14.8703906"><ele>389.6</ele><time>2026-04-06T11:53:48.934Z</time></trkpt><trkpt lat="49.8182647" lon="14.870259"><ele>390.2</ele><time>2026-04-06T11:53:49.934Z</time></trkpt><trkpt lat="49.8182347" lon="14.8701194"><ele>390.8</ele><time>2026-04-06T11:53:50.934Z</time></trkpt><trkpt lat="49.8182036" lon="14.8699756"><ele>391.40000000000003</ele><time>2026-04-06T11:53:51.934Z</time></trkpt><trkpt lat="49.8181667" lon="14.8698228"><ele>392.0</ele><time>2026-04-06T11:53:52.935Z</time></trkpt><trkpt lat="49.8181278" lon="14.8696784"><ele>392.20000000000005</ele><time>2026-04-06T11:53:53.934Z</time></trkpt><trkpt lat="49.8180831" lon="14.8695286"><ele>392.4</ele><time>2026-04-06T11:53:54.934Z</time></trkpt><trkpt lat="49.8180379" lon="14.8693724"><ele>392.6</ele><time>2026-04-06T11:53:55.935Z</time></trkpt><trkpt lat="49.8179944" lon="14.8692202"><ele>392.79999999999995</ele><time>2026-04-06T11:53:56.935Z</time></trkpt><trkpt lat="49.8179559" lon="14.8690772"><ele>393.0</ele><time>2026-04-06T11:53:57.934Z</time></trkpt><trkpt lat="49.8179197" lon="14.8689412"><ele>393.5</ele><time>2026-04-06T11:53:58.934Z</time></trkpt><trkpt lat="49.817886" lon="14.868802"><ele>394.0</ele><time>2026-04-06T11:53:59.934Z</time></trkpt><trkpt lat="49.8178508" lon="14.8686637"><ele>394.5</ele><time>2026-04-06T11:54:00.935Z</time></trkpt><trkpt lat="49.817819" lon="14.8685406"><ele>395.0</ele><time>2026-04-06T11:54:01.934Z</time></trkpt><trkpt lat="49.8177964" lon="14.8684223"><ele>395.5</ele><time>2026-04-06T11:54:02.935Z</time></trkpt><trkpt lat="49.8177801" lon="14.8682992"><ele>396.0</ele><time>2026-04-06T11:54:03.934Z</time></trkpt><trkpt lat="49.8177742" lon="14.8681762"><ele>396.3333333333333</ele><time>2026-04-06T11:54:04.934Z</time></trkpt><trkpt lat="49.8177635" lon="14.8680346"><ele>396.66666666666663</ele><time>2026-04-06T11:54:05.934Z</time></trkpt><trkpt lat="49.817749" lon="14.8678913"><ele>397.0</ele><time>2026-04-06T11:54:06.934Z</time></trkpt><trkpt lat="49.8177381" lon="14.8677608"><ele>397.3333333333333</ele><time>2026-04-06T11:54:07.935Z</time></trkpt><trkpt lat="49.8177283" lon="14.8676414"><ele>397.66666666666663</ele><time>2026-04-06T11:54:08.934Z</time></trkpt><trkpt lat="49.8177219" lon="14.8675288"><ele>398.0</ele><time>2026-04-06T11:54:09.935Z</time></trkpt><trkpt lat="49.817713" lon="14.86743"><ele>398.16666666666663</ele><time>2026-04-06T11:54:10.934Z</time></trkpt><trkpt lat="49.8177136" lon="14.8673237"><ele>398.3333333333333</ele><time>2026-04-06T11:54:11.934Z</time></trkpt><trkpt lat="49.8177291" lon="14.867206"><ele>398.5</ele><time>2026-04-06T11:54:12.934Z</time></trkpt><trkpt lat="49.8177578" lon="14.8670848"><ele>398.66666666666663</ele><time>2026-04-06T11:54:13.934Z</time></trkpt><trkpt lat="49.8177901" lon="14.8669643"><ele>398.8333333333333</ele><time>2026-04-06T11:54:14.935Z</time></trkpt><trkpt lat="49.8178226" lon="14.8668392"><ele>399.0</ele><time>2026-04-06T11:54:15.935Z</time></trkpt><trkpt lat="49.8178551" lon="14.8667103"><ele>399.3333333333333</ele><time>2026-04-06T11:54:16.934Z</time></trkpt><trkpt lat="49.8178915" lon="14.8665882"><ele>399.66666666666663</ele><time>2026-04-06T11:54:17.935Z</time></trkpt><trkpt lat="49.8179246" lon="14.8664836"><ele>400.0</ele><time>2026-04-06T11:54:18.934Z</time></trkpt><trkpt lat="49.8179455" lon="14.8663912"><ele>400.3333333333333</ele><time>2026-04-06T11:54:19.934Z</time></trkpt><trkpt lat="49.8179121" lon="14.8662167"><ele>400.66666666666663</ele><time>2026-04-06T11:54:21.935Z</time></trkpt><trkpt lat="49.8178189" lon="14.8662031"><ele>401.0</ele><time>2026-04-06T11:54:23.934Z</time></trkpt><trkpt lat="49.8177192" lon="14.8662699"><ele>399.6</ele><time>2026-04-06T11:54:25.934Z</time></trkpt><trkpt lat="49.8176074" lon="14.8663489"><ele>398.20000000000005</ele><time>2026-04-06T11:54:27.935Z</time></trkpt><trkpt lat="49.8175032" lon="14.8664492"><ele>396.79999999999995</ele><time>2026-04-06T11:54:29.935Z</time></trkpt><trkpt lat="49.8174312" lon="14.8665296"><ele>395.4</ele><time>2026-04-06T11:54:31.935Z</time></trkpt><trkpt lat="49.8173559" lon="14.8665131"><ele>394.0</ele><time>2026-04-06T11:54:33.934Z</time></trkpt><trkpt lat="49.817303" lon="14.8664552"><ele>394.00000000000006</ele><time>2026-04-06T11:54:34.935Z</time></trkpt><trkpt lat="49.817242" lon="14.8663801"><ele>394.0</ele><time>2026-04-06T11:54:35.934Z</time></trkpt><trkpt lat="49.8171739" lon="14.8662934"><ele>394.0</ele><time>2026-04-06T11:54:36.934Z</time></trkpt><trkpt lat="49.8171086" lon="14.8662159"><ele>394.0</ele><time>2026-04-06T11:54:37.934Z</time></trkpt><trkpt lat="49.8170495" lon="14.866143"><ele>394.00000000000006</ele><time>2026-04-06T11:54:38.934Z</time></trkpt><trkpt lat="49.8169899" lon="14.8660757"><ele>394.0</ele><time>2026-04-06T11:54:39.934Z</time></trkpt><trkpt lat="49.8169309" lon="14.8660052"><ele>394.33333333333337</ele><time>2026-04-06T11:54:40.935Z</time></trkpt><trkpt lat="49.8168746" lon="14.8659333"><ele>394.6666666666667</ele><time>2026-04-06T11:54:41.934Z</time></trkpt><trkpt lat="49.8167998" lon="14.8658538"><ele>395.0</ele><time>2026-04-06T11:54:42.934Z</time></trkpt><trkpt lat="49.8167363" lon="14.8657656"><ele>395.33333333333337</ele><time>2026-04-06T11:54:43.935Z</time></trkpt><trkpt lat="49.8166832" lon="14.865683"><ele>395.6666666666667</ele><time>2026-04-06T11:54:44.934Z</time></trkpt><trkpt lat="49.8166324" lon="14.8656084"><ele>396.0</ele><time>2026-04-06T11:54:45.934Z</time></trkpt><trkpt lat="49.8165905" lon="14.8655281"><ele>394.8</ele><time>2026-04-06T11:54:46.934Z</time></trkpt><trkpt lat="49.8165502" lon="14.8654437"><ele>393.6</ele><time>2026-04-06T11:54:47.934Z</time></trkpt><trkpt lat="49.8165105" lon="14.8653437"><ele>392.4</ele><time>2026-04-06T11:54:48.934Z</time></trkpt><trkpt lat="49.8164632" lon="14.8652088"><ele>391.2</ele><time>2026-04-06T11:54:49.934Z</time></trkpt><trkpt lat="49.8164045" lon="14.8650389"><ele>390.0</ele><time>2026-04-06T11:54:50.935Z</time></trkpt><trkpt lat="49.8163499" lon="14.8648634"><ele>390.0</ele><time>2026-04-06T11:54:51.934Z</time></trkpt><trkpt lat="49.8163059" lon="14.8646974"><ele>390.0</ele><time>2026-04-06T11:54:52.934Z</time></trkpt><trkpt lat="49.8162781" lon="14.8645372"><ele>390.0</ele><time>2026-04-06T11:54:53.934Z</time></trkpt><trkpt lat="49.8162655" lon="14.8643721"><ele>390.0</ele><time>2026-04-06T11:54:54.934Z</time></trkpt><trkpt lat="49.8162634" lon="14.864184"><ele>389.25</ele><time>2026-04-06T11:54:55.935Z</time></trkpt><trkpt lat="49.8162853" lon="14.8639893"><ele>388.5</ele><time>2026-04-06T11:54:56.935Z</time></trkpt><trkpt lat="49.8163259" lon="14.8638194"><ele>387.75</ele><time>2026-04-06T11:54:57.935Z</time></trkpt><trkpt lat="49.8163934" lon="14.863664"><ele>387.0</ele><time>2026-04-06T11:54:58.934Z</time></trkpt><trkpt lat="49.8164756" lon="14.8634995"><ele>386.0</ele><time>2026-04-06T11:54:59.934Z</time></trkpt><trkpt lat="49.8165628" lon="14.8633111"><ele>385.0</ele><time>2026-04-06T11:55:00.935Z</time></trkpt><trkpt lat="49.8166344" lon="14.8631287"><ele>384.0</ele><time>2026-04-06T11:55:01.935Z</time></trkpt><trkpt lat="49.8166879" lon="14.8629532"><ele>383.0</ele><time>2026-04-06T11:55:02.935Z</time></trkpt><trkpt lat="49.8167183" lon="14.8627563"><ele>382.25</ele><time>2026-04-06T11:55:03.935Z</time></trkpt><trkpt lat="49.8167308" lon="14.8625382"><ele>381.5</ele><time>2026-04-06T11:55:04.934Z</time></trkpt><trkpt lat="49.8167358" lon="14.8623377"><ele>380.75</ele><time>2026-04-06T11:55:05.935Z</time></trkpt><trkpt lat="49.8167316" lon="14.8621643"><ele>380.0</ele><time>2026-04-06T11:55:06.934Z</time></trkpt><trkpt lat="49.8167083" lon="14.8620133"><ele>380.0</ele><time>2026-04-06T11:55:07.935Z</time></trkpt><trkpt lat="49.8166864" lon="14.8618775"><ele>380.0</ele><time>2026-04-06T11:55:08.935Z</time></trkpt><trkpt lat="49.8166407" lon="14.8617358"><ele>380.0</ele><time>2026-04-06T11:55:09.934Z</time></trkpt><trkpt lat="49.8165845" lon="14.8615794"><ele>380.0</ele><time>2026-04-06T11:55:10.934Z</time></trkpt><trkpt lat="49.816529" lon="14.861411"><ele>380.0</ele><time>2026-04-06T11:55:11.935Z</time></trkpt><trkpt lat="49.8164868" lon="14.8612239"><ele>381.0</ele><time>2026-04-06T11:55:12.934Z</time></trkpt><trkpt lat="49.8164517" lon="14.8610444"><ele>382.0</ele><time>2026-04-06T11:55:13.934Z</time></trkpt><trkpt lat="49.8164131" lon="14.8608981"><ele>383.0</ele><time>2026-04-06T11:55:14.935Z</time></trkpt><trkpt lat="49.8163706" lon="14.8607757"><ele>384.0</ele><time>2026-04-06T11:55:15.935Z</time></trkpt><trkpt lat="49.8163145" lon="14.8606414"><ele>385.0</ele><time>2026-04-06T11:55:16.934Z</time></trkpt><trkpt lat="49.8162499" lon="14.8604946"><ele>386.5</ele><time>2026-04-06T11:55:17.935Z</time></trkpt><trkpt lat="49.8161744" lon="14.8603433"><ele>388.0</ele><time>2026-04-06T11:55:18.934Z</time></trkpt><trkpt lat="49.8160906" lon="14.8601883"><ele>389.5</ele><time>2026-04-06T11:55:19.935Z</time></trkpt><trkpt lat="49.8159922" lon="14.8600224"><ele>391.0</ele><time>2026-04-06T11:55:20.934Z</time></trkpt><trkpt lat="49.8159032" lon="14.8598626"><ele>391.6</ele><time>2026-04-06T11:55:21.935Z</time></trkpt><trkpt lat="49.8158265" lon="14.8597338"><ele>392.20000000000005</ele><time>2026-04-06T11:55:22.935Z</time></trkpt><trkpt lat="49.8157482" lon="14.8596085"><ele>392.79999999999995</ele><time>2026-04-06T11:55:23.934Z</time></trkpt><trkpt lat="49.8156777" lon="14.8594933"><ele>393.4</ele><time>2026-04-06T11:55:24.935Z</time></trkpt><trkpt lat="49.8156218" lon="14.8594012"><ele>394.0</ele><time>2026-04-06T11:55:25.934Z</time></trkpt><trkpt lat="49.8155553" lon="14.8593106"><ele>394.0</ele><time>2026-04-06T11:55:26.934Z</time></trkpt><trkpt lat="49.8154817" lon="14.8592224"><ele>394.0</ele><time>2026-04-06T11:55:27.934Z</time></trkpt><trkpt lat="49.8154144" lon="14.8591566"><ele>394.0</ele><time>2026-04-06T11:55:28.935Z</time></trkpt><trkpt lat="49.8153212" lon="14.8590978"><ele>394.0</ele><time>2026-04-06T11:55:29.934Z</time></trkpt><trkpt lat="49.8152193" lon="14.8590553"><ele>394.0</ele><time>2026-04-06T11:55:30.935Z</time></trkpt><trkpt lat="49.8151097" lon="14.859043"><ele>394.00000000000006</ele><time>2026-04-06T11:55:31.935Z</time></trkpt><trkpt lat="49.8150049" lon="14.8590423"><ele>394.0</ele><time>2026-04-06T11:55:32.934Z</time></trkpt><trkpt lat="49.8149234" lon="14.8590491"><ele>394.0</ele><time>2026-04-06T11:55:33.935Z</time></trkpt><trkpt lat="49.8148507" lon="14.8590367"><ele>394.0</ele><time>2026-04-06T11:55:34.934Z</time></trkpt><trkpt lat="49.8147862" lon="14.8590284"><ele>394.00000000000006</ele><time>2026-04-06T11:55:35.935Z</time></trkpt><trkpt lat="49.8146824" lon="14.8589747"><ele>394.0</ele><time>2026-04-06T11:55:37.934Z</time></trkpt><trkpt lat="49.8146057" lon="14.8588604"><ele>394.0</ele><time>2026-04-06T11:55:39.934Z</time></trkpt><trkpt lat="49.8146236" lon="14.858735"><ele>394.0</ele><time>2026-04-06T11:55:41.935Z</time></trkpt><trkpt lat="49.8147075" lon="14.858781"><ele>394.0</ele><time>2026-04-06T11:55:43.935Z</time></trkpt><trkpt lat="49.8147569" lon="14.8589233"><ele>394.0</ele><time>2026-04-06T11:55:45.935Z</time></trkpt><trkpt lat="49.8148312" lon="14.8590429"><ele>394.0</ele><time>2026-04-06T11:55:47.934Z</time></trkpt><trkpt lat="49.8149581" lon="14.8590284"><ele>394.0</ele><time>2026-04-06T11:55:49.935Z</time></trkpt><trkpt lat="49.8150268" lon="14.8590261"><ele>394.0</ele><time>2026-04-06T11:55:50.934Z</time></trkpt><trkpt lat="49.8151026" lon="14.859026"><ele>394.0</ele><time>2026-04-06T11:55:51.934Z</time></trkpt><trkpt lat="49.815175" lon="14.8590364"><ele>394.0</ele><time>2026-04-06T11:55:52.934Z</time></trkpt><trkpt lat="49.8152461" lon="14.8590618"><ele>394.0</ele><time>2026-04-06T11:55:53.935Z</time></trkpt><trkpt lat="49.8153131" lon="14.8590925"><ele>394.0</ele><time>2026-04-06T11:55:54.934Z</time></trkpt><trkpt lat="49.815392" lon="14.8591396"><ele>394.0</ele><time>2026-04-06T11:55:55.935Z</time></trkpt><trkpt lat="49.8154716" lon="14.8592033"><ele>394.0</ele><time>2026-04-06T11:55:56.934Z</time></trkpt><trkpt lat="49.8155426" lon="14.8592896"><ele>394.0</ele><time>2026-04-06T11:55:57.935Z</time></trkpt><trkpt lat="49.8156054" lon="14.8593923"><ele>394.0</ele><time>2026-04-06T11:55:58.934Z</time></trkpt><trkpt lat="49.8156699" lon="14.8594897"><ele>394.0</ele><time>2026-04-06T11:55:59.934Z</time></trkpt><trkpt lat="49.8157524" lon="14.8595831"><ele>394.0</ele><time>2026-04-06T11:56:00.934Z</time></trkpt><trkpt lat="49.8158234" lon="14.859719"><ele>394.0</ele><time>2026-04-06T11:56:01.934Z</time></trkpt><trkpt lat="49.815899" lon="14.8598487"><ele>394.0</ele><time>2026-04-06T11:56:02.934Z</time></trkpt><trkpt lat="49.8159659" lon="14.8599842"><ele>394.0</ele><time>2026-04-06T11:56:03.934Z</time></trkpt><trkpt lat="49.8160489" lon="14.8601108"><ele>394.0</ele><time>2026-04-06T11:56:04.934Z</time></trkpt><trkpt lat="49.8161208" lon="14.860231"><ele>394.0</ele><time>2026-04-06T11:56:05.934Z</time></trkpt><trkpt lat="49.816175" lon="14.8603659"><ele>393.4</ele><time>2026-04-06T11:56:06.934Z</time></trkpt><trkpt lat="49.8162483" lon="14.8605185"><ele>392.79999999999995</ele><time>2026-04-06T11:56:07.935Z</time></trkpt><trkpt lat="49.816316" lon="14.8606597"><ele>392.20000000000005</ele><time>2026-04-06T11:56:08.934Z</time></trkpt><trkpt lat="49.816391" lon="14.8607586"><ele>391.6</ele><time>2026-04-06T11:56:09.935Z</time></trkpt><trkpt lat="49.816421" lon="14.8609107"><ele>391.0</ele><time>2026-04-06T11:56:10.934Z</time></trkpt><trkpt lat="49.8164385" lon="14.8610589"><ele>390.00000000000006</ele><time>2026-04-06T11:56:11.934Z</time></trkpt><trkpt lat="49.8164614" lon="14.8611831"><ele>389.0</ele><time>2026-04-06T11:56:12.934Z</time></trkpt><trkpt lat="49.8164915" lon="14.8613027"><ele>388.0</ele><time>2026-04-06T11:56:13.935Z</time></trkpt><trkpt lat="49.816518" lon="14.8614189"><ele>387.0</ele><time>2026-04-06T11:56:14.935Z</time></trkpt><trkpt lat="49.8165536" lon="14.8615474"><ele>386.00000000000006</ele><time>2026-04-06T11:56:15.935Z</time></trkpt><trkpt lat="49.8165863" lon="14.8616638"><ele>385.0</ele><time>2026-04-06T11:56:16.935Z</time></trkpt><trkpt lat="49.8166552" lon="14.8618141"><ele>385.00000000000006</ele><time>2026-04-06T11:56:18.934Z</time></trkpt><trkpt lat="49.8167659" lon="14.8617886"><ele>385.0</ele><time>2026-04-06T11:56:20.934Z</time></trkpt><trkpt lat="49.8168057" lon="14.8617077"><ele>385.0</ele><time>2026-04-06T11:56:21.935Z</time></trkpt><trkpt lat="49.8168556" lon="14.861627"><ele>385.0</ele><time>2026-04-06T11:56:22.935Z</time></trkpt><trkpt lat="49.8169032" lon="14.8615105"><ele>385.00000000000006</ele><time>2026-04-06T11:56:23.935Z</time></trkpt><trkpt lat="49.8169532" lon="14.8613907"><ele>385.0</ele><time>2026-04-06T11:56:24.934Z</time></trkpt><trkpt lat="49.8170036" lon="14.8612714"><ele>385.6</ele><time>2026-04-06T11:56:25.934Z</time></trkpt><trkpt lat="49.8170699" lon="14.8611602"><ele>386.2</ele><time>2026-04-06T11:56:26.935Z</time></trkpt><trkpt lat="49.8171558" lon="14.8610687"><ele>386.79999999999995</ele><time>2026-04-06T11:56:27.934Z</time></trkpt><trkpt lat="49.8172419" lon="14.8609775"><ele>387.4</ele><time>2026-04-06T11:56:28.935Z</time></trkpt><trkpt lat="49.8172971" lon="14.8609006"><ele>388.0</ele><time>2026-04-06T11:56:29.934Z</time></trkpt><trkpt lat="49.8173426" lon="14.8608106"><ele>388.79999999999995</ele><time>2026-04-06T11:56:30.934Z</time></trkpt><trkpt lat="49.817384" lon="14.8607058"><ele>389.6</ele><time>2026-04-06T11:56:31.935Z</time></trkpt><trkpt lat="49.8174078" lon="14.8605848"><ele>390.4</ele><time>2026-04-06T11:56:32.935Z</time></trkpt><trkpt lat="49.8174333" lon="14.8604573"><ele>391.20000000000005</ele><time>2026-04-06T11:56:33.934Z</time></trkpt><trkpt lat="49.8174688" lon="14.8603141"><ele>392.0</ele><time>2026-04-06T11:56:34.934Z</time></trkpt><trkpt lat="49.8175142" lon="14.8601612"><ele>392.25</ele><time>2026-04-06T11:56:35.934Z</time></trkpt><trkpt lat="49.8175581" lon="14.8599998"><ele>392.5</ele><time>2026-04-06T11:56:36.934Z</time></trkpt><trkpt lat="49.8175931" lon="14.85982"><ele>392.75</ele><time>2026-04-06T11:56:37.934Z</time></trkpt><trkpt lat="49.817623" lon="14.8595943"><ele>393.0</ele><time>2026-04-06T11:56:38.934Z</time></trkpt><trkpt lat="49.8176539" lon="14.8593136"><ele>393.0</ele><time>2026-04-06T11:56:39.934Z</time></trkpt><trkpt lat="49.8176826" lon="14.8590391"><ele>393.0</ele><time>2026-04-06T11:56:40.935Z</time></trkpt><trkpt lat="49.8177038" lon="14.8588111"><ele>393.0</ele><time>2026-04-06T11:56:41.934Z</time></trkpt><trkpt lat="49.8177117" lon="14.8586262"><ele>393.0</ele><time>2026-04-06T11:56:42.935Z</time></trkpt><trkpt lat="49.8177226" lon="14.8584653"><ele>393.1666666666667</ele><time>2026-04-06T11:56:43.935Z</time></trkpt><trkpt lat="49.817734" lon="14.8583133"><ele>393.33333333333337</ele><time>2026-04-06T11:56:44.934Z</time></trkpt><trkpt lat="49.8177464" lon="14.8581839"><ele>393.5</ele><time>2026-04-06T11:56:45.934Z</time></trkpt><trkpt lat="49.8177708" lon="14.8580849"><ele>393.6666666666667</ele><time>2026-04-06T11:56:46.934Z</time></trkpt><trkpt lat="49.817851" lon="14.8580015"><ele>393.83333333333337</ele><time>2026-04-06T11:56:48.935Z</time></trkpt><trkpt lat="49.8179071" lon="14.8580701"><ele>394.0</ele><time>2026-04-06T11:56:50.934Z</time></trkpt><trkpt lat="49.8178653" lon="14.8581836"><ele>394.0</ele><time>2026-04-06T11:56:53.934Z</time></trkpt><trkpt lat="49.8177881" lon="14.8581538"><ele>394.0</ele><time>2026-04-06T11:56:55.935Z</time></trkpt><trkpt lat="49.8177288" lon="14.858012"><ele>394.0</ele><time>2026-04-06T11:56:57.934Z</time></trkpt><trkpt lat="49.8176988" lon="14.8578597"><ele>394.0</ele><time>2026-04-06T11:56:59.934Z</time></trkpt><trkpt lat="49.8176685" lon="14.857713"><ele>394.0</ele><time>2026-04-06T11:57:01.935Z</time></trkpt><trkpt lat="49.8176508" lon="14.8575067"><ele>397.0</ele><time>2026-04-06T11:57:03.935Z</time></trkpt><trkpt lat="49.8176365" lon="14.8573707"><ele>400.0</ele><time>2026-04-06T11:57:04.934Z</time></trkpt><trkpt lat="49.8176289" lon="14.8572156"><ele>403.0</ele><time>2026-04-06T11:57:05.934Z</time></trkpt><trkpt lat="49.8176243" lon="14.8570505"><ele>406.0</ele><time>2026-04-06T11:57:06.934Z</time></trkpt><trkpt lat="49.8176282" lon="14.8568888"><ele>409.0</ele><time>2026-04-06T11:57:07.934Z</time></trkpt><trkpt lat="49.8176428" lon="14.8567215"><ele>407.79999999999995</ele><time>2026-04-06T11:57:08.935Z</time></trkpt><trkpt lat="49.8176684" lon="14.8565528"><ele>406.59999999999997</ele><time>2026-04-06T11:57:09.935Z</time></trkpt><trkpt lat="49.8177002" lon="14.8563822"><ele>405.4</ele><time>2026-04-06T11:57:10.935Z</time></trkpt><trkpt lat="49.8177427" lon="14.8562154"><ele>404.2</ele><time>2026-04-06T11:57:11.935Z</time></trkpt><trkpt lat="49.8177833" lon="14.8560731"><ele>403.0</ele><time>2026-04-06T11:57:12.935Z</time></trkpt><trkpt lat="49.8178187" lon="14.8559528"><ele>403.00000000000006</ele><time>2026-04-06T11:57:13.934Z</time></trkpt><trkpt lat="49.8178477" lon="14.8558351"><ele>403.0</ele><time>2026-04-06T11:57:14.935Z</time></trkpt><trkpt lat="49.8178724" lon="14.855714"><ele>403.0</ele><time>2026-04-06T11:57:15.935Z</time></trkpt><trkpt lat="49.8178865" lon="14.8555853"><ele>403.0</ele><time>2026-04-06T11:57:16.934Z</time></trkpt><trkpt lat="49.8178977" lon="14.8554484"><ele>403.00000000000006</ele><time>2026-04-06T11:57:17.934Z</time></trkpt><trkpt lat="49.8179116" lon="14.8553114"><ele>403.0</ele><time>2026-04-06T11:57:18.935Z</time></trkpt><trkpt lat="49.8179389" lon="14.8551674"><ele>404.0</ele><time>2026-04-06T11:57:19.935Z</time></trkpt><trkpt lat="49.8179922" lon="14.8550214"><ele>405.0</ele><time>2026-04-06T11:57:20.935Z</time></trkpt><trkpt lat="49.8180652" lon="14.8548602"><ele>406.0</ele><time>2026-04-06T11:57:21.934Z</time></trkpt><trkpt lat="49.8181396" lon="14.8546805"><ele>407.0</ele><time>2026-04-06T11:57:22.935Z</time></trkpt><trkpt lat="49.8182085" lon="14.854473"><ele>408.66666666666663</ele><time>2026-04-06T11:57:23.935Z</time></trkpt><trkpt lat="49.8182697" lon="14.8542594"><ele>410.33333333333337</ele><time>2026-04-06T11:57:24.935Z</time></trkpt><trkpt lat="49.8183299" lon="14.8540264"><ele>412.0</ele><time>2026-04-06T11:57:25.935Z</time></trkpt><trkpt lat="49.8183736" lon="14.853764"><ele>412.0</ele><time>2026-04-06T11:57:26.935Z</time></trkpt><trkpt lat="49.8184503" lon="14.8535041"><ele>412.0</ele><time>2026-04-06T11:57:27.934Z</time></trkpt><trkpt lat="49.8185025" lon="14.8532444"><ele>412.0</ele><time>2026-04-06T11:57:28.935Z</time></trkpt><trkpt lat="49.8185364" lon="14.8529942"><ele>412.33333333333337</ele><time>2026-04-06T11:57:29.934Z</time></trkpt><trkpt lat="49.8185815" lon="14.8527342"><ele>412.66666666666663</ele><time>2026-04-06T11:57:30.935Z</time></trkpt><trkpt lat="49.8186325" lon="14.8524796"><ele>413.0</ele><time>2026-04-06T11:57:31.934Z</time></trkpt><trkpt lat="49.8186872" lon="14.8522301"><ele>413.0</ele><time>2026-04-06T11:57:32.935Z</time></trkpt><trkpt lat="49.8187589" lon="14.8520052"><ele>413.0</ele><time>2026-04-06T11:57:33.935Z</time></trkpt><trkpt lat="49.8188534" lon="14.8517927"><ele>413.0</ele><time>2026-04-06T11:57:34.934Z</time></trkpt><trkpt lat="49.8189678" lon="14.8515835"><ele>413.3333333333333</ele><time>2026-04-06T11:57:35.934Z</time></trkpt><trkpt lat="49.8190931" lon="14.8513708"><ele>413.66666666666663</ele><time>2026-04-06T11:57:36.934Z</time></trkpt><trkpt lat="49.8192175" lon="14.8511736"><ele>414.0</ele><time>2026-04-06T11:57:37.935Z</time></trkpt><trkpt lat="49.8193501" lon="14.8509726"><ele>415.33333333333337</ele><time>2026-04-06T11:57:38.935Z</time></trkpt><trkpt lat="49.8194739" lon="14.8507576"><ele>416.6666666666667</ele><time>2026-04-06T11:57:39.934Z</time></trkpt><trkpt lat="49.8195843" lon="14.8505234"><ele>418.0</ele><time>2026-04-06T11:57:40.935Z</time></trkpt><trkpt lat="49.8196879" lon="14.8502712"><ele>419.33333333333337</ele><time>2026-04-06T11:57:41.934Z</time></trkpt><trkpt lat="49.8197883" lon="14.8500084"><ele>420.66666666666663</ele><time>2026-04-06T11:57:42.934Z</time></trkpt><trkpt lat="49.8198778" lon="14.8497584"><ele>422.0</ele><time>2026-04-06T11:57:43.934Z</time></trkpt><trkpt lat="49.8199561" lon="14.8495307"><ele>422.0</ele><time>2026-04-06T11:57:44.934Z</time></trkpt><trkpt lat="49.8200351" lon="14.8493035"><ele>422.0</ele><time>2026-04-06T11:57:45.935Z</time></trkpt><trkpt lat="49.8201149" lon="14.8490606"><ele>422.0</ele><time>2026-04-06T11:57:46.934Z</time></trkpt><trkpt lat="49.8201828" lon="14.8488012"><ele>422.66666666666663</ele><time>2026-04-06T11:57:47.934Z</time></trkpt><trkpt lat="49.8202382" lon="14.8485161"><ele>423.33333333333337</ele><time>2026-04-06T11:57:48.934Z</time></trkpt><trkpt lat="49.8202839" lon="14.8482276"><ele>424.0</ele><time>2026-04-06T11:57:49.935Z</time></trkpt><trkpt lat="49.8203171" lon="14.8479347"><ele>425.25</ele><time>2026-04-06T11:57:50.935Z</time></trkpt><trkpt lat="49.820341" lon="14.847668"><ele>426.5</ele><time>2026-04-06T11:57:51.935Z</time></trkpt><trkpt lat="49.8203605" lon="14.8474498"><ele>427.75</ele><time>2026-04-06T11:57:52.935Z</time></trkpt><trkpt lat="49.8203779" lon="14.847295"><ele>429.0</ele><time>2026-04-06T11:57:53.934Z</time></trkpt><trkpt lat="49.8203866" lon="14.8471753"><ele>429.6666666666667</ele><time>2026-04-06T11:57:54.935Z</time></trkpt><trkpt lat="49.8204067" lon="14.8470673"><ele>430.33333333333337</ele><time>2026-04-06T11:57:55.935Z</time></trkpt><trkpt lat="49.8204385" lon="14.8469774"><ele>431.0</ele><time>2026-04-06T11:57:56.935Z</time></trkpt><trkpt lat="49.8204827" lon="14.8468976"><ele>431.6666666666667</ele><time>2026-04-06T11:57:57.934Z</time></trkpt><trkpt lat="49.8205481" lon="14.8467555"><ele>432.33333333333337</ele><time>2026-04-06T11:57:59.934Z</time></trkpt><trkpt lat="49.8205876" lon="14.8465775"><ele>433.0</ele><time>2026-04-06T11:58:01.935Z</time></trkpt><trkpt lat="49.8206134" lon="14.846473"><ele>433.33333333333337</ele><time>2026-04-06T11:58:02.935Z</time></trkpt><trkpt lat="49.8206457" lon="14.8463628"><ele>433.6666666666667</ele><time>2026-04-06T11:58:03.935Z</time></trkpt><trkpt lat="49.8206841" lon="14.846243"><ele>434.0</ele><time>2026-04-06T11:58:04.935Z</time></trkpt><trkpt lat="49.820726" lon="14.8461199"><ele>434.33333333333337</ele><time>2026-04-06T11:58:05.934Z</time></trkpt><trkpt lat="49.820767" lon="14.8459945"><ele>434.6666666666667</ele><time>2026-04-06T11:58:06.935Z</time></trkpt><trkpt lat="49.820808" lon="14.8458636"><ele>435.0</ele><time>2026-04-06T11:58:07.935Z</time></trkpt><trkpt lat="49.8208475" lon="14.8457327"><ele>435.2</ele><time>2026-04-06T11:58:08.934Z</time></trkpt><trkpt lat="49.8208819" lon="14.8455962"><ele>435.4</ele><time>2026-04-06T11:58:09.934Z</time></trkpt><trkpt lat="49.820909" lon="14.8454516"><ele>435.6</ele><time>2026-04-06T11:58:10.934Z</time></trkpt><trkpt lat="49.8209321" lon="14.8453128"><ele>435.8</ele><time>2026-04-06T11:58:11.935Z</time></trkpt><trkpt lat="49.8209598" lon="14.8451701"><ele>436.0</ele><time>2026-04-06T11:58:12.935Z</time></trkpt><trkpt lat="49.8209851" lon="14.8450138"><ele>437.5</ele><time>2026-04-06T11:58:13.935Z</time></trkpt><trkpt lat="49.8210138" lon="14.844833"><ele>439.0</ele><time>2026-04-06T11:58:14.935Z</time></trkpt><trkpt lat="49.8210532" lon="14.8446283"><ele>440.5</ele><time>2026-04-06T11:58:15.935Z</time></trkpt><trkpt lat="49.8210982" lon="14.844413"><ele>442.0</ele><time>2026-04-06T11:58:16.934Z</time></trkpt><trkpt lat="49.8211422" lon="14.8441971"><ele>442.6666666666667</ele><time>2026-04-06T11:58:17.934Z</time></trkpt><trkpt lat="49.8211966" lon="14.8439766"><ele>443.33333333333337</ele><time>2026-04-06T11:58:18.935Z</time></trkpt><trkpt lat="49.8212518" lon="14.8437598"><ele>444.0</ele><time>2026-04-06T11:58:19.943Z</time></trkpt><trkpt lat="49.8213072" lon="14.8435476"><ele>444.5</ele><time>2026-04-06T11:58:20.943Z</time></trkpt><trkpt lat="49.8213626" lon="14.8433399"><ele>445.0</ele><time>2026-04-06T11:58:21.942Z</time></trkpt><trkpt lat="49.8214192" lon="14.8431423"><ele>445.5</ele><time>2026-04-06T11:58:22.943Z</time></trkpt><trkpt lat="49.8214731" lon="14.8429657"><ele>446.0</ele><time>2026-04-06T11:58:23.942Z</time></trkpt><trkpt lat="49.8215299" lon="14.8427927"><ele>446.25</ele><time>2026-04-06T11:58:24.942Z</time></trkpt><trkpt lat="49.8215992" lon="14.8426264"><ele>446.5</ele><time>2026-04-06T11:58:25.943Z</time></trkpt><trkpt lat="49.8216756" lon="14.8424672"><ele>446.75</ele><time>2026-04-06T11:58:26.943Z</time></trkpt><trkpt lat="49.8217388" lon="14.8423107"><ele>447.0</ele><time>2026-04-06T11:58:27.942Z</time></trkpt><trkpt lat="49.821814" lon="14.8421641"><ele>448.5</ele><time>2026-04-06T11:58:28.942Z</time></trkpt><trkpt lat="49.8218901" lon="14.8419935"><ele>450.0</ele><time>2026-04-06T11:58:29.942Z</time></trkpt><trkpt lat="49.8219537" lon="14.8418489"><ele>451.5</ele><time>2026-04-06T11:58:30.942Z</time></trkpt><trkpt lat="49.8220252" lon="14.8417292"><ele>453.0</ele><time>2026-04-06T11:58:31.943Z</time></trkpt><trkpt lat="49.8221173" lon="14.8415899"><ele>453.25</ele><time>2026-04-06T11:58:32.942Z</time></trkpt><trkpt lat="49.8222353" lon="14.8414548"><ele>453.5</ele><time>2026-04-06T11:58:33.943Z</time></trkpt><trkpt lat="49.8223725" lon="14.8413458"><ele>453.75</ele><time>2026-04-06T11:58:34.942Z</time></trkpt><trkpt lat="49.8224986" lon="14.8412294"><ele>454.0</ele><time>2026-04-06T11:58:35.942Z</time></trkpt><trkpt lat="49.8226139" lon="14.8411004"><ele>454.75</ele><time>2026-04-06T11:58:36.942Z</time></trkpt><trkpt lat="49.8227252" lon="14.8409649"><ele>455.5</ele><time>2026-04-06T11:58:37.943Z</time></trkpt><trkpt lat="49.8228325" lon="14.8408257"><ele>456.25</ele><time>2026-04-06T11:58:38.942Z</time></trkpt><trkpt lat="49.8229284" lon="14.8406696"><ele>457.0</ele><time>2026-04-06T11:58:39.943Z</time></trkpt><trkpt lat="49.8230317" lon="14.8405064"><ele>457.0</ele><time>2026-04-06T11:58:40.943Z</time></trkpt><trkpt lat="49.8231323" lon="14.8403612"><ele>457.0</ele><time>2026-04-06T11:58:41.942Z</time></trkpt><trkpt lat="49.8232282" lon="14.840228"><ele>457.0</ele><time>2026-04-06T11:58:42.942Z</time></trkpt><trkpt lat="49.8233046" lon="14.8400964"><ele>457.0</ele><time>2026-04-06T11:58:43.943Z</time></trkpt><trkpt lat="49.8233814" lon="14.8399902"><ele>457.40000000000003</ele><time>2026-04-06T11:58:44.943Z</time></trkpt><trkpt lat="49.823455" lon="14.8398853"><ele>457.80000000000007</ele><time>2026-04-06T11:58:45.942Z</time></trkpt><trkpt lat="49.8235308" lon="14.8397916"><ele>458.2</ele><time>2026-04-06T11:58:46.942Z</time></trkpt><trkpt lat="49.8236011" lon="14.8396722"><ele>458.6</ele><time>2026-04-06T11:58:47.943Z</time></trkpt><trkpt lat="49.8236786" lon="14.8395277"><ele>459.0</ele><time>2026-04-06T11:58:48.943Z</time></trkpt><trkpt lat="49.8237678" lon="14.8393946"><ele>458.0</ele><time>2026-04-06T11:58:49.942Z</time></trkpt><trkpt lat="49.8238647" lon="14.8392826"><ele>457.0</ele><time>2026-04-06T11:58:50.943Z</time></trkpt><trkpt lat="49.8239735" lon="14.8391933"><ele>456.0</ele><time>2026-04-06T11:58:51.943Z</time></trkpt><trkpt lat="49.8240946" lon="14.8391166"><ele>455.0</ele><time>2026-04-06T11:58:52.942Z</time></trkpt><trkpt lat="49.8242263" lon="14.8390403"><ele>455.5</ele><time>2026-04-06T11:58:53.943Z</time></trkpt><trkpt lat="49.8243493" lon="14.8389615"><ele>456.0</ele><time>2026-04-06T11:58:54.943Z</time></trkpt><trkpt lat="49.8244604" lon="14.8388938"><ele>456.5</ele><time>2026-04-06T11:58:55.942Z</time></trkpt><trkpt lat="49.82457" lon="14.8388274"><ele>457.0</ele><time>2026-04-06T11:58:56.942Z</time></trkpt><trkpt lat="49.8246901" lon="14.8387332"><ele>457.0</ele><time>2026-04-06T11:58:57.943Z</time></trkpt><trkpt lat="49.8248021" lon="14.8386134"><ele>457.0</ele><time>2026-04-06T11:58:58.943Z</time></trkpt><trkpt lat="49.8248987" lon="14.8384788"><ele>457.0</ele><time>2026-04-06T11:58:59.942Z</time></trkpt><trkpt lat="49.8249712" lon="14.8383331"><ele>457.0</ele><time>2026-04-06T11:59:00.942Z</time></trkpt><trkpt lat="49.825036" lon="14.8381716"><ele>456.25</ele><time>2026-04-06T11:59:01.943Z</time></trkpt><trkpt lat="49.8251165" lon="14.8380153"><ele>455.5</ele><time>2026-04-06T11:59:02.942Z</time></trkpt><trkpt lat="49.8251949" lon="14.8378633"><ele>454.75</ele><time>2026-04-06T11:59:03.942Z</time></trkpt><trkpt lat="49.8252505" lon="14.8376902"><ele>454.0</ele><time>2026-04-06T11:59:04.942Z</time></trkpt><trkpt lat="49.825276" lon="14.8374886"><ele>455.75</ele><time>2026-04-06T11:59:05.943Z</time></trkpt><trkpt lat="49.8252726" lon="14.8372735"><ele>457.5</ele><time>2026-04-06T11:59:06.942Z</time></trkpt><trkpt lat="49.8252623" lon="14.8370671"><ele>459.25</ele><time>2026-04-06T11:59:07.942Z</time></trkpt><trkpt lat="49.8252607" lon="14.8368826"><ele>461.0</ele><time>2026-04-06T11:59:08.942Z</time></trkpt><trkpt lat="49.8252679" lon="14.8367238"><ele>460.99999999999994</ele><time>2026-04-06T11:59:09.942Z</time></trkpt><trkpt lat="49.8252877" lon="14.8365833"><ele>461.0</ele><time>2026-04-06T11:59:10.942Z</time></trkpt><trkpt lat="49.8253236" lon="14.8364687"><ele>461.0</ele><time>2026-04-06T11:59:11.943Z</time></trkpt><trkpt lat="49.8253798" lon="14.8364041"><ele>461.0</ele><time>2026-04-06T11:59:12.942Z</time></trkpt><trkpt lat="49.8254554" lon="14.8363659"><ele>460.99999999999994</ele><time>2026-04-06T11:59:13.943Z</time></trkpt><trkpt lat="49.825542" lon="14.8363378"><ele>461.0</ele><time>2026-04-06T11:59:14.942Z</time></trkpt><trkpt lat="49.825637" lon="14.8363182"><ele>461.0</ele><time>2026-04-06T11:59:15.942Z</time></trkpt><trkpt lat="49.8257327" lon="14.836328"><ele>461.0</ele><time>2026-04-06T11:59:16.942Z</time></trkpt><trkpt lat="49.825826" lon="14.836366"><ele>461.0</ele><time>2026-04-06T11:59:17.942Z</time></trkpt><trkpt lat="49.825922" lon="14.8364006"><ele>461.0</ele><time>2026-04-06T11:59:18.942Z</time></trkpt><trkpt lat="49.8260267" lon="14.8364406"><ele>461.0</ele><time>2026-04-06T11:59:19.943Z</time></trkpt><trkpt lat="49.826129" lon="14.8364748"><ele>462.20000000000005</ele><time>2026-04-06T11:59:20.943Z</time></trkpt><trkpt lat="49.8262189" lon="14.8364918"><ele>463.40000000000003</ele><time>2026-04-06T11:59:21.943Z</time></trkpt><trkpt lat="49.8262838" lon="14.8364519"><ele>464.6</ele><time>2026-04-06T11:59:22.942Z</time></trkpt><trkpt lat="49.8263509" lon="14.8363651"><ele>465.8</ele><time>2026-04-06T11:59:23.942Z</time></trkpt><trkpt lat="49.826423" lon="14.8362435"><ele>467.0</ele><time>2026-04-06T11:59:24.942Z</time></trkpt><trkpt lat="49.8265143" lon="14.8361104"><ele>467.0</ele><time>2026-04-06T11:59:25.943Z</time></trkpt><trkpt lat="49.8266094" lon="14.8359729"><ele>467.0</ele><time>2026-04-06T11:59:26.942Z</time></trkpt><trkpt lat="49.82672" lon="14.8358496"><ele>467.0</ele><time>2026-04-06T11:59:27.942Z</time></trkpt><trkpt lat="49.8268466" lon="14.8357278"><ele>467.0</ele><time>2026-04-06T11:59:28.943Z</time></trkpt><trkpt lat="49.8269895" lon="14.835604"><ele>468.66666666666663</ele><time>2026-04-06T11:59:29.942Z</time></trkpt><trkpt lat="49.8271383" lon="14.8354685"><ele>470.33333333333337</ele><time>2026-04-06T11:59:30.942Z</time></trkpt><trkpt lat="49.827293" lon="14.8353315"><ele>472.0</ele><time>2026-04-06T11:59:31.942Z</time></trkpt><trkpt lat="49.8274529" lon="14.8351871"><ele>472.0</ele><time>2026-04-06T11:59:32.942Z</time></trkpt><trkpt lat="49.8276229" lon="14.8350328"><ele>472.0</ele><time>2026-04-06T11:59:33.943Z</time></trkpt><trkpt lat="49.8278004" lon="14.8348674"><ele>472.0</ele><time>2026-04-06T11:59:34.942Z</time></trkpt><trkpt lat="49.8279776" lon="14.8347024"><ele>473.33333333333337</ele><time>2026-04-06T11:59:35.942Z</time></trkpt><trkpt lat="49.8281645" lon="14.8345337"><ele>474.66666666666663</ele><time>2026-04-06T11:59:36.942Z</time></trkpt><trkpt lat="49.8283531" lon="14.834373"><ele>476.0</ele><time>2026-04-06T11:59:37.943Z</time></trkpt><trkpt lat="49.8285383" lon="14.8342085"><ele>476.3333333333333</ele><time>2026-04-06T11:59:38.943Z</time></trkpt><trkpt lat="49.8287189" lon="14.834051"><ele>476.66666666666663</ele><time>2026-04-06T11:59:39.943Z</time></trkpt><trkpt lat="49.8288892" lon="14.8339052"><ele>477.0</ele><time>2026-04-06T11:59:40.943Z</time></trkpt><trkpt lat="49.8290532" lon="14.8337722"><ele>477.0</ele><time>2026-04-06T11:59:41.942Z</time></trkpt><trkpt lat="49.8292219" lon="14.8336517"><ele>477.0</ele><time>2026-04-06T11:59:42.942Z</time></trkpt><trkpt lat="49.8294062" lon="14.8335519"><ele>477.0</ele><time>2026-04-06T11:59:43.943Z</time></trkpt><trkpt lat="49.8295881" lon="14.8334691"><ele>475.66666666666663</ele><time>2026-04-06T11:59:44.943Z</time></trkpt><trkpt lat="49.829757" lon="14.833381"><ele>474.3333333333333</ele><time>2026-04-06T11:59:45.942Z</time></trkpt><trkpt lat="49.8299129" lon="14.8332713"><ele>473.0</ele><time>2026-04-06T11:59:46.942Z</time></trkpt><trkpt lat="49.8300674" lon="14.8331354"><ele>470.66666666666663</ele><time>2026-04-06T11:59:47.943Z</time></trkpt><trkpt lat="49.8302043" lon="14.8329625"><ele>468.33333333333337</ele><time>2026-04-06T11:59:48.942Z</time></trkpt><trkpt lat="49.8303181" lon="14.8327723"><ele>466.0</ele><time>2026-04-06T11:59:49.942Z</time></trkpt><trkpt lat="49.830425" lon="14.8325633"><ele>466.0</ele><time>2026-04-06T11:59:50.942Z</time></trkpt><trkpt lat="49.830533" lon="14.8323532"><ele>466.0</ele><time>2026-04-06T11:59:51.943Z</time></trkpt><trkpt lat="49.8306445" lon="14.8321413"><ele>466.0</ele><time>2026-04-06T11:59:52.942Z</time></trkpt><trkpt lat="49.8307589" lon="14.8319385"><ele>467.6666666666667</ele><time>2026-04-06T11:59:53.942Z</time></trkpt><trkpt lat="49.830872" lon="14.831753"><ele>469.33333333333337</ele><time>2026-04-06T11:59:54.943Z</time></trkpt><trkpt lat="49.8309773" lon="14.8315703"><ele>471.0</ele><time>2026-04-06T11:59:55.942Z</time></trkpt><trkpt lat="49.8310811" lon="14.8313994"><ele>467.25</ele><time>2026-04-06T11:59:56.942Z</time></trkpt><trkpt lat="49.831179" lon="14.8312288"><ele>463.5</ele><time>2026-04-06T11:59:57.943Z</time></trkpt><trkpt lat="49.8312654" lon="14.831051"><ele>459.75</ele><time>2026-04-06T11:59:58.943Z</time></trkpt><trkpt lat="49.8313499" lon="14.8308743"><ele>456.0</ele><time>2026-04-06T11:59:59.943Z</time></trkpt><trkpt lat="49.8314274" lon="14.8307002"><ele>456.0</ele><time>2026-04-06T12:00:00.943Z</time></trkpt><trkpt lat="49.8314995" lon="14.8305456"><ele>456.0</ele><time>2026-04-06T12:00:01.942Z</time></trkpt><trkpt lat="49.831555" lon="14.8304278"><ele>456.0</ele><time>2026-04-06T12:00:02.943Z</time></trkpt><trkpt lat="49.8315988" lon="14.8303489"><ele>456.0</ele><time>2026-04-06T12:00:03.942Z</time></trkpt><trkpt lat="49.8316922" lon="14.8302954"><ele>456.0</ele><time>2026-04-06T12:00:05.943Z</time></trkpt><trkpt lat="49.8318115" lon="14.8302513"><ele>453.8333333333333</ele><time>2026-04-06T12:00:07.943Z</time></trkpt><trkpt lat="49.8318753" lon="14.8302258"><ele>451.66666666666663</ele><time>2026-04-06T12:00:08.942Z</time></trkpt><trkpt lat="49.8319727" lon="14.8302218"><ele>449.5</ele><time>2026-04-06T12:00:10.942Z</time></trkpt><trkpt lat="49.8320597" lon="14.8302641"><ele>447.3333333333333</ele><time>2026-04-06T12:00:12.942Z</time></trkpt><trkpt lat="49.8321707" lon="14.8303509"><ele>445.16666666666663</ele><time>2026-04-06T12:00:14.943Z</time></trkpt><trkpt lat="49.8322216" lon="14.8304201"><ele>443.0</ele><time>2026-04-06T12:00:15.943Z</time></trkpt><trkpt lat="49.8322602" lon="14.8305122"><ele>442.99999999999994</ele><time>2026-04-06T12:00:16.943Z</time></trkpt><trkpt lat="49.8322898" lon="14.8306125"><ele>443.0</ele><time>2026-04-06T12:00:17.942Z</time></trkpt><trkpt lat="49.8323074" lon="14.8307239"><ele>443.0</ele><time>2026-04-06T12:00:18.943Z</time></trkpt><trkpt lat="49.8323271" lon="14.8308243"><ele>443.0</ele><time>2026-04-06T12:00:19.942Z</time></trkpt><trkpt lat="49.8324357" lon="14.8308897"><ele>442.99999999999994</ele><time>2026-04-06T12:00:21.942Z</time></trkpt><trkpt lat="49.8325157" lon="14.8308147"><ele>443.0</ele><time>2026-04-06T12:00:23.942Z</time></trkpt><trkpt lat="49.8325826" lon="14.8307743"><ele>441.2</ele><time>2026-04-06T12:00:24.942Z</time></trkpt><trkpt lat="49.8326571" lon="14.8307279"><ele>439.4</ele><time>2026-04-06T12:00:25.943Z</time></trkpt><trkpt lat="49.8327415" lon="14.8306666"><ele>437.59999999999997</ele><time>2026-04-06T12:00:26.943Z</time></trkpt><trkpt lat="49.8328325" lon="14.8306225"><ele>435.79999999999995</ele><time>2026-04-06T12:00:27.943Z</time></trkpt><trkpt lat="49.8329154" lon="14.8305697"><ele>434.0</ele><time>2026-04-06T12:00:28.943Z</time></trkpt><trkpt lat="49.832991" lon="14.8304649"><ele>433.99999999999994</ele><time>2026-04-06T12:00:29.942Z</time></trkpt><trkpt lat="49.8330569" lon="14.8303306"><ele>434.0</ele><time>2026-04-06T12:00:30.942Z</time></trkpt><trkpt lat="49.8331184" lon="14.8302186"><ele>434.0</ele><time>2026-04-06T12:00:31.943Z</time></trkpt><trkpt lat="49.8331736" lon="14.8301235"><ele>434.0</ele><time>2026-04-06T12:00:32.942Z</time></trkpt><trkpt lat="49.8332189" lon="14.8300543"><ele>433.99999999999994</ele><time>2026-04-06T12:00:33.943Z</time></trkpt><trkpt lat="49.8333016" lon="14.8300649"><ele>434.0</ele><time>2026-04-06T12:00:35.942Z</time></trkpt><trkpt lat="49.8333986" lon="14.8301728"><ele>435.6</ele><time>2026-04-06T12:00:37.942Z</time></trkpt><trkpt lat="49.8335078" lon="14.8302011"><ele>437.2</ele><time>2026-04-06T12:00:39.942Z</time></trkpt><trkpt lat="49.8336296" lon="14.8302117"><ele>438.80000000000007</ele><time>2026-04-06T12:00:41.942Z</time></trkpt><trkpt lat="49.8336995" lon="14.8301783"><ele>440.40000000000003</ele><time>2026-04-06T12:00:42.942Z</time></trkpt><trkpt lat="49.8337723" lon="14.8301315"><ele>442.0</ele><time>2026-04-06T12:00:43.943Z</time></trkpt><trkpt lat="49.8338449" lon="14.830083"><ele>442.1666666666667</ele><time>2026-04-06T12:00:44.942Z</time></trkpt><trkpt lat="49.8339264" lon="14.8300448"><ele>442.33333333333337</ele><time>2026-04-06T12:00:45.942Z</time></trkpt><trkpt lat="49.8340087" lon="14.8300245"><ele>442.5</ele><time>2026-04-06T12:00:46.943Z</time></trkpt><trkpt lat="49.8340904" lon="14.8300152"><ele>442.66666666666663</ele><time>2026-04-06T12:00:47.942Z</time></trkpt><trkpt lat="49.8341564" lon="14.8299537"><ele>442.8333333333333</ele><time>2026-04-06T12:00:48.942Z</time></trkpt><trkpt lat="49.8342054" lon="14.8298451"><ele>443.0</ele><time>2026-04-06T12:00:49.943Z</time></trkpt><trkpt lat="49.8342557" lon="14.8297205"><ele>444.49999999999994</ele><time>2026-04-06T12:00:50.943Z</time></trkpt><trkpt lat="49.8343096" lon="14.8296027"><ele>446.0</ele><time>2026-04-06T12:00:51.942Z</time></trkpt><trkpt lat="49.8343461" lon="14.8295022"><ele>447.5</ele><time>2026-04-06T12:00:52.942Z</time></trkpt><trkpt lat="49.8343525" lon="14.829399"><ele>449.0</ele><time>2026-04-06T12:00:53.942Z</time></trkpt><trkpt lat="49.8343821" lon="14.8292544"><ele>450.49999999999994</ele><time>2026-04-06T12:00:55.943Z</time></trkpt><trkpt lat="49.8344483" lon="14.8293849"><ele>452.0</ele><time>2026-04-06T12:00:59.942Z</time></trkpt><trkpt lat="49.8344694" lon="14.8295113"><ele>452.0</ele><time>2026-04-06T12:01:00.943Z</time></trkpt><trkpt lat="49.8344909" lon="14.8296648"><ele>452.0</ele><time>2026-04-06T12:01:01.943Z</time></trkpt><trkpt lat="49.8345206" lon="14.8298388"><ele>452.0</ele><time>2026-04-06T12:01:02.942Z</time></trkpt><trkpt lat="49.8345577" lon="14.8300283"><ele>452.0</ele><time>2026-04-06T12:01:03.942Z</time></trkpt><trkpt lat="49.8345996" lon="14.8302309"><ele>450.75</ele><time>2026-04-06T12:01:04.943Z</time></trkpt><trkpt lat="49.8346481" lon="14.8304402"><ele>449.5</ele><time>2026-04-06T12:01:05.943Z</time></trkpt><trkpt lat="49.8346915" lon="14.8306458"><ele>448.25</ele><time>2026-04-06T12:01:06.942Z</time></trkpt><trkpt lat="49.8347211" lon="14.8308361"><ele>447.0</ele><time>2026-04-06T12:01:07.943Z</time></trkpt><trkpt lat="49.8347426" lon="14.8310318"><ele>446.75</ele><time>2026-04-06T12:01:08.942Z</time></trkpt><trkpt lat="49.8347598" lon="14.831235"><ele>446.5</ele><time>2026-04-06T12:01:09.943Z</time></trkpt><trkpt lat="49.8347675" lon="14.8314452"><ele>446.25</ele><time>2026-04-06T12:01:10.943Z</time></trkpt><trkpt lat="49.8347688" lon="14.8316695"><ele>446.0</ele><time>2026-04-06T12:01:11.942Z</time></trkpt><trkpt lat="49.8347761" lon="14.8319086"><ele>446.0</ele><time>2026-04-06T12:01:12.942Z</time></trkpt><trkpt lat="49.8347848" lon="14.8321456"><ele>446.0</ele><time>2026-04-06T12:01:13.942Z</time></trkpt><trkpt lat="49.8347913" lon="14.8323646"><ele>446.0</ele><time>2026-04-06T12:01:14.943Z</time></trkpt><trkpt lat="49.8347745" lon="14.8325602"><ele>446.0</ele><time>2026-04-06T12:01:15.942Z</time></trkpt><trkpt lat="49.8347613" lon="14.8327433"><ele>446.0</ele><time>2026-04-06T12:01:16.942Z</time></trkpt><trkpt lat="49.8347584" lon="14.8329205"><ele>446.0</ele><time>2026-04-06T12:01:17.943Z</time></trkpt><trkpt lat="49.8347738" lon="14.8330896"><ele>446.0</ele><time>2026-04-06T12:01:18.943Z</time></trkpt><trkpt lat="49.834791" lon="14.8332488"><ele>446.0</ele><time>2026-04-06T12:01:19.942Z</time></trkpt><trkpt lat="49.8348243" lon="14.8333872"><ele>446.0</ele><time>2026-04-06T12:01:20.943Z</time></trkpt><trkpt lat="49.8348754" lon="14.833516"><ele>446.0</ele><time>2026-04-06T12:01:21.943Z</time></trkpt><trkpt lat="49.8349567" lon="14.8336132"><ele>446.0</ele><time>2026-04-06T12:01:22.943Z</time></trkpt><trkpt lat="49.8350441" lon="14.8336665"><ele>446.0</ele><time>2026-04-06T12:01:23.942Z</time></trkpt><trkpt lat="49.8351193" lon="14.8336695"><ele>446.0</ele><time>2026-04-06T12:01:24.943Z</time></trkpt><trkpt lat="49.8352205" lon="14.8336904"><ele>446.0</ele><time>2026-04-06T12:01:26.943Z</time></trkpt><trkpt lat="49.8353144" lon="14.833735"><ele>447.4</ele><time>2026-04-06T12:01:28.942Z</time></trkpt><trkpt lat="49.8354357" lon="14.8337537"><ele>448.8</ele><time>2026-04-06T12:01:30.942Z</time></trkpt><trkpt lat="49.8355093" lon="14.8337573"><ele>450.19999999999993</ele><time>2026-04-06T12:01:31.942Z</time></trkpt><trkpt lat="49.8355869" lon="14.8337496"><ele>451.59999999999997</ele><time>2026-04-06T12:01:32.943Z</time></trkpt><trkpt lat="49.8356727" lon="14.8337488"><ele>453.0</ele><time>2026-04-06T12:01:33.942Z</time></trkpt><trkpt lat="49.8357642" lon="14.8337537"><ele>453.0</ele><time>2026-04-06T12:01:34.942Z</time></trkpt><trkpt lat="49.835863" lon="14.8337601"><ele>452.99999999999994</ele><time>2026-04-06T12:01:35.942Z</time></trkpt><trkpt lat="49.8359548" lon="14.833782"><ele>452.99999999999994</ele><time>2026-04-06T12:01:36.942Z</time></trkpt><trkpt lat="49.8360299" lon="14.8337809"><ele>453.0</ele><time>2026-04-06T12:01:37.943Z</time></trkpt><trkpt lat="49.8361358" lon="14.8337808"><ele>453.0</ele><time>2026-04-06T12:01:39.943Z</time></trkpt><trkpt lat="49.8362204" lon="14.833779"><ele>454.3333333333333</ele><time>2026-04-06T12:01:41.942Z</time></trkpt><trkpt lat="49.8363127" lon="14.8337378"><ele>455.66666666666663</ele><time>2026-04-06T12:01:43.943Z</time></trkpt><trkpt lat="49.836353" lon="14.8336509"><ele>457.0</ele><time>2026-04-06T12:01:45.943Z</time></trkpt><trkpt lat="49.8363474" lon="14.8335486"><ele>458.3333333333333</ele><time>2026-04-06T12:01:48.943Z</time></trkpt><trkpt lat="49.8362809" lon="14.8336239"><ele>459.66666666666663</ele><time>2026-04-06T12:01:51.942Z</time></trkpt><trkpt lat="49.8362396" lon="14.8337485"><ele>461.0</ele><time>2026-04-06T12:01:53.942Z</time></trkpt><trkpt lat="49.8361588" lon="14.833772"><ele>461.0</ele><time>2026-04-06T12:01:54.943Z</time></trkpt><trkpt lat="49.8360725" lon="14.8337633"><ele>461.00000000000006</ele><time>2026-04-06T12:01:55.942Z</time></trkpt><trkpt lat="49.8359938" lon="14.8337542"><ele>461.0</ele><time>2026-04-06T12:01:56.943Z</time></trkpt><trkpt lat="49.8359196" lon="14.8337481"><ele>461.0</ele><time>2026-04-06T12:01:57.942Z</time></trkpt><trkpt lat="49.8358496" lon="14.8337452"><ele>461.00000000000006</ele><time>2026-04-06T12:01:58.943Z</time></trkpt><trkpt lat="49.8357803" lon="14.8337436"><ele>461.0</ele><time>2026-04-06T12:01:59.942Z</time></trkpt><trkpt lat="49.8357148" lon="14.8337438"><ele>461.0</ele><time>2026-04-06T12:02:00.943Z</time></trkpt><trkpt lat="49.8356489" lon="14.8337446"><ele>459.0</ele><time>2026-04-06T12:02:01.942Z</time></trkpt><trkpt lat="49.8355227" lon="14.8337362"><ele>457.0</ele><time>2026-04-06T12:02:03.942Z</time></trkpt><trkpt lat="49.8354016" lon="14.8337279"><ele>455.0</ele><time>2026-04-06T12:02:05.942Z</time></trkpt><trkpt lat="49.8352829" lon="14.8337045"><ele>453.0</ele><time>2026-04-06T12:02:07.942Z</time></trkpt><trkpt lat="49.835175" lon="14.8336472"><ele>453.0</ele><time>2026-04-06T12:02:09.942Z</time></trkpt><trkpt lat="49.8350739" lon="14.8336382"><ele>453.0</ele><time>2026-04-06T12:02:11.942Z</time></trkpt><trkpt lat="49.8350185" lon="14.8336995"><ele>453.0</ele><time>2026-04-06T12:02:13.943Z</time></trkpt><trkpt lat="49.8350092" lon="14.8338021"><ele>453.0</ele><time>2026-04-06T12:02:15.942Z</time></trkpt><trkpt lat="49.8350856" lon="14.8339114"><ele>453.0</ele><time>2026-04-06T12:02:17.943Z</time></trkpt><trkpt lat="49.8351446" lon="14.8339795"><ele>453.0</ele><time>2026-04-06T12:02:18.943Z</time></trkpt><trkpt lat="49.8352102" lon="14.8340461"><ele>453.0</ele><time>2026-04-06T12:02:19.942Z</time></trkpt><trkpt lat="49.8352767" lon="14.8341216"><ele>452.99999999999994</ele><time>2026-04-06T12:02:20.943Z</time></trkpt><trkpt lat="49.8353467" lon="14.8342076"><ele>452.99999999999994</ele><time>2026-04-06T12:02:21.943Z</time></trkpt><trkpt lat="49.8354267" lon="14.8343046"><ele>453.0</ele><time>2026-04-06T12:02:22.942Z</time></trkpt><trkpt lat="49.835512" lon="14.8344135"><ele>453.0</ele><time>2026-04-06T12:02:23.942Z</time></trkpt><trkpt lat="49.8356019" lon="14.8345284"><ele>452.75</ele><time>2026-04-06T12:02:24.942Z</time></trkpt><trkpt lat="49.8356856" lon="14.8346547"><ele>452.5</ele><time>2026-04-06T12:02:25.943Z</time></trkpt><trkpt lat="49.8357674" lon="14.8347988"><ele>452.25</ele><time>2026-04-06T12:02:26.942Z</time></trkpt><trkpt lat="49.8358457" lon="14.8349643"><ele>452.0</ele><time>2026-04-06T12:02:27.943Z</time></trkpt><trkpt lat="49.835916" lon="14.8351561"><ele>454.3333333333333</ele><time>2026-04-06T12:02:28.942Z</time></trkpt><trkpt lat="49.8359716" lon="14.8353734"><ele>456.66666666666663</ele><time>2026-04-06T12:02:29.943Z</time></trkpt><trkpt lat="49.8360192" lon="14.8356162"><ele>459.0</ele><time>2026-04-06T12:02:30.943Z</time></trkpt><trkpt lat="49.8360712" lon="14.8358788"><ele>458.0</ele><time>2026-04-06T12:02:31.943Z</time></trkpt><trkpt lat="49.8361178" lon="14.8361416"><ele>457.0</ele><time>2026-04-06T12:02:32.943Z</time></trkpt><trkpt lat="49.8361587" lon="14.8363916"><ele>456.0</ele><time>2026-04-06T12:02:33.942Z</time></trkpt><trkpt lat="49.8361994" lon="14.8366338"><ele>456.0</ele><time>2026-04-06T12:02:34.942Z</time></trkpt><trkpt lat="49.8362369" lon="14.836862"><ele>456.0</ele><time>2026-04-06T12:02:35.942Z</time></trkpt><trkpt lat="49.8362705" lon="14.8370734"><ele>456.0</ele><time>2026-04-06T12:02:36.942Z</time></trkpt><trkpt lat="49.8363003" lon="14.8372566"><ele>456.0</ele><time>2026-04-06T12:02:37.942Z</time></trkpt><trkpt lat="49.8363239" lon="14.8374053"><ele>456.0</ele><time>2026-04-06T12:02:38.942Z</time></trkpt><trkpt lat="49.8363401" lon="14.8375312"><ele>456.0</ele><time>2026-04-06T12:02:39.942Z</time></trkpt><trkpt lat="49.8363686" lon="14.8376758"><ele>456.0</ele><time>2026-04-06T12:02:41.942Z</time></trkpt><trkpt lat="49.8364471" lon="14.8377345"><ele>456.0</ele><time>2026-04-06T12:02:43.942Z</time></trkpt><trkpt lat="49.8365831" lon="14.8376968"><ele>456.0</ele><time>2026-04-06T12:02:45.943Z</time></trkpt><trkpt lat="49.8366747" lon="14.8376831"><ele>456.4</ele><time>2026-04-06T12:02:46.943Z</time></trkpt><trkpt lat="49.836776" lon="14.837664"><ele>456.8</ele><time>2026-04-06T12:02:47.943Z</time></trkpt><trkpt lat="49.8368857" lon="14.8376432"><ele>457.19999999999993</ele><time>2026-04-06T12:02:48.942Z</time></trkpt><trkpt lat="49.8369964" lon="14.8376073"><ele>457.59999999999997</ele><time>2026-04-06T12:02:49.941Z</time></trkpt><trkpt lat="49.8370953" lon="14.8376069"><ele>458.0</ele><time>2026-04-06T12:02:50.942Z</time></trkpt><trkpt lat="49.8372254" lon="14.8375607"><ele>458.5</ele><time>2026-04-06T12:02:51.943Z</time></trkpt><trkpt lat="49.8373544" lon="14.8375214"><ele>459.0</ele><time>2026-04-06T12:02:52.942Z</time></trkpt><trkpt lat="49.8374779" lon="14.8374852"><ele>459.5</ele><time>2026-04-06T12:02:53.942Z</time></trkpt><trkpt lat="49.8376054" lon="14.8374476"><ele>460.0</ele><time>2026-04-06T12:02:54.942Z</time></trkpt><trkpt lat="49.8377361" lon="14.8374057"><ele>461.0</ele><time>2026-04-06T12:02:55.942Z</time></trkpt><trkpt lat="49.8378721" lon="14.8373558"><ele>462.0</ele><time>2026-04-06T12:02:56.942Z</time></trkpt><trkpt lat="49.838014" lon="14.8372993"><ele>463.0</ele><time>2026-04-06T12:02:57.943Z</time></trkpt><trkpt lat="49.8381615" lon="14.8372394"><ele>464.0</ele><time>2026-04-06T12:02:58.943Z</time></trkpt><trkpt lat="49.8383116" lon="14.8371827"><ele>464.0</ele><time>2026-04-06T12:02:59.943Z</time></trkpt><trkpt lat="49.8384648" lon="14.8371184"><ele>464.0</ele><time>2026-04-06T12:03:00.942Z</time></trkpt><trkpt lat="49.8386238" lon="14.8370407"><ele>464.0</ele><time>2026-04-06T12:03:01.942Z</time></trkpt><trkpt lat="49.8387852" lon="14.8369496"><ele>465.3333333333333</ele><time>2026-04-06T12:03:02.943Z</time></trkpt><trkpt lat="49.8389463" lon="14.8368472"><ele>466.66666666666663</ele><time>2026-04-06T12:03:03.942Z</time></trkpt><trkpt lat="49.8391097" lon="14.8367351"><ele>468.0</ele><time>2026-04-06T12:03:04.943Z</time></trkpt><trkpt lat="49.8392731" lon="14.8366167"><ele>469.0</ele><time>2026-04-06T12:03:05.942Z</time></trkpt><trkpt lat="49.8394381" lon="14.8364911"><ele>470.0</ele><time>2026-04-06T12:03:06.942Z</time></trkpt><trkpt lat="49.8396065" lon="14.8363621"><ele>471.0</ele><time>2026-04-06T12:03:07.943Z</time></trkpt><trkpt lat="49.8397786" lon="14.8362248"><ele>471.0</ele><time>2026-04-06T12:03:08.943Z</time></trkpt><trkpt lat="49.8399468" lon="14.8360844"><ele>471.0</ele><time>2026-04-06T12:03:09.943Z</time></trkpt><trkpt lat="49.8401155" lon="14.8359322"><ele>471.0</ele><time>2026-04-06T12:03:10.942Z</time></trkpt><trkpt lat="49.8402899" lon="14.8357819"><ele>473.33333333333337</ele><time>2026-04-06T12:03:11.942Z</time></trkpt><trkpt lat="49.8404678" lon="14.8356287"><ele>475.6666666666667</ele><time>2026-04-06T12:03:12.943Z</time></trkpt><trkpt lat="49.840644" lon="14.8354896"><ele>478.0</ele><time>2026-04-06T12:03:13.943Z</time></trkpt><trkpt lat="49.8408307" lon="14.8353671"><ele>478.6666666666667</ele><time>2026-04-06T12:03:14.942Z</time></trkpt><trkpt lat="49.8410272" lon="14.8352608"><ele>479.33333333333337</ele><time>2026-04-06T12:03:15.942Z</time></trkpt><trkpt lat="49.8412361" lon="14.835179"><ele>480.0</ele><time>2026-04-06T12:03:16.942Z</time></trkpt><trkpt lat="49.8414517" lon="14.8351111"><ele>480.66666666666663</ele><time>2026-04-06T12:03:17.942Z</time></trkpt><trkpt lat="49.8416701" lon="14.8350674"><ele>481.3333333333333</ele><time>2026-04-06T12:03:18.943Z</time></trkpt><trkpt lat="49.8418777" lon="14.8350431"><ele>482.0</ele><time>2026-04-06T12:03:19.943Z</time></trkpt><trkpt lat="49.8420675" lon="14.8350326"><ele>482.75</ele><time>2026-04-06T12:03:20.943Z</time></trkpt><trkpt lat="49.8422382" lon="14.8350302"><ele>483.5</ele><time>2026-04-06T12:03:21.942Z</time></trkpt><trkpt lat="49.8423903" lon="14.8350274"><ele>484.25</ele><time>2026-04-06T12:03:22.943Z</time></trkpt><trkpt lat="49.8425164" lon="14.8350286"><ele>485.0</ele><time>2026-04-06T12:03:23.942Z</time></trkpt><trkpt lat="49.8426161" lon="14.8350341"><ele>486.0</ele><time>2026-04-06T12:03:24.942Z</time></trkpt><trkpt lat="49.8427027" lon="14.8350382"><ele>487.0</ele><time>2026-04-06T12:03:25.942Z</time></trkpt><trkpt lat="49.8428202" lon="14.8350199"><ele>488.0</ele><time>2026-04-06T12:03:27.942Z</time></trkpt><trkpt lat="49.8429068" lon="14.8350232"><ele>489.0</ele><time>2026-04-06T12:03:28.943Z</time></trkpt><trkpt lat="49.8430068" lon="14.835026"><ele>490.0</ele><time>2026-04-06T12:03:29.942Z</time></trkpt><trkpt lat="49.8431232" lon="14.8350259"><ele>490.0</ele><time>2026-04-06T12:03:30.943Z</time></trkpt><trkpt lat="49.8432523" lon="14.8350288"><ele>490.0</ele><time>2026-04-06T12:03:31.942Z</time></trkpt><trkpt lat="49.843383" lon="14.8350267"><ele>490.0</ele><time>2026-04-06T12:03:32.942Z</time></trkpt><trkpt lat="49.8435127" lon="14.8350272"><ele>490.0</ele><time>2026-04-06T12:03:33.943Z</time></trkpt><trkpt lat="49.8436267" lon="14.8350268"><ele>490.0</ele><time>2026-04-06T12:03:34.943Z</time></trkpt><trkpt lat="49.8437026" lon="14.835009"><ele>490.0</ele><time>2026-04-06T12:03:35.942Z</time></trkpt><trkpt lat="49.8437447" lon="14.8349176"><ele>490.0</ele><time>2026-04-06T12:03:37.942Z</time></trkpt><trkpt lat="49.8437508" lon="14.8347291"><ele>490.0</ele><time>2026-04-06T12:03:39.943Z</time></trkpt><trkpt lat="49.8437573" lon="14.8345824"><ele>490.0</ele><time>2026-04-06T12:03:40.942Z</time></trkpt><trkpt lat="49.8437667" lon="14.834403"><ele>490.25</ele><time>2026-04-06T12:03:41.942Z</time></trkpt><trkpt lat="49.8437775" lon="14.8342037"><ele>490.5</ele><time>2026-04-06T12:03:42.942Z</time></trkpt><trkpt lat="49.8437913" lon="14.8339917"><ele>490.75</ele><time>2026-04-06T12:03:43.943Z</time></trkpt><trkpt lat="49.8438065" lon="14.8337537"><ele>491.0</ele><time>2026-04-06T12:03:44.942Z</time></trkpt><trkpt lat="49.8438239" lon="14.8334966"><ele>491.0</ele><time>2026-04-06T12:03:45.942Z</time></trkpt><trkpt lat="49.8438405" lon="14.8332461"><ele>491.0</ele><time>2026-04-06T12:03:46.942Z</time></trkpt><trkpt lat="49.8438691" lon="14.8330065"><ele>491.0</ele><time>2026-04-06T12:03:47.943Z</time></trkpt><trkpt lat="49.8439005" lon="14.8327764"><ele>490.75</ele><time>2026-04-06T12:03:48.943Z</time></trkpt><trkpt lat="49.8439381" lon="14.8325402"><ele>490.5</ele><time>2026-04-06T12:03:49.943Z</time></trkpt><trkpt lat="49.8439849" lon="14.8323289"><ele>490.25</ele><time>2026-04-06T12:03:50.942Z</time></trkpt><trkpt lat="49.8440313" lon="14.8321367"><ele>490.0</ele><time>2026-04-06T12:03:51.943Z</time></trkpt><trkpt lat="49.8440633" lon="14.831944"><ele>489.75</ele><time>2026-04-06T12:03:52.942Z</time></trkpt><trkpt lat="49.8440778" lon="14.8317425"><ele>489.5</ele><time>2026-04-06T12:03:53.943Z</time></trkpt><trkpt lat="49.8440733" lon="14.8315448"><ele>489.25</ele><time>2026-04-06T12:03:54.942Z</time></trkpt><trkpt lat="49.8440642" lon="14.8313555"><ele>489.0</ele><time>2026-04-06T12:03:55.943Z</time></trkpt><trkpt lat="49.8440753" lon="14.8311459"><ele>488.5</ele><time>2026-04-06T12:03:56.942Z</time></trkpt><trkpt lat="49.8440919" lon="14.8309207"><ele>488.0</ele><time>2026-04-06T12:03:57.943Z</time></trkpt><trkpt lat="49.8441102" lon="14.8306951"><ele>487.5</ele><time>2026-04-06T12:03:58.943Z</time></trkpt><trkpt lat="49.8441088" lon="14.8304666"><ele>487.0</ele><time>2026-04-06T12:03:59.942Z</time></trkpt><trkpt lat="49.844095" lon="14.8302306"><ele>487.0</ele><time>2026-04-06T12:04:00.942Z</time></trkpt><trkpt lat="49.8440885" lon="14.8299827"><ele>487.0</ele><time>2026-04-06T12:04:01.942Z</time></trkpt><trkpt lat="49.8440877" lon="14.8297397"><ele>487.0</ele><time>2026-04-06T12:04:02.942Z</time></trkpt><trkpt lat="49.844082" lon="14.8294866"><ele>485.33333333333337</ele><time>2026-04-06T12:04:03.942Z</time></trkpt><trkpt lat="49.8440243" lon="14.8292333"><ele>483.66666666666663</ele><time>2026-04-06T12:04:04.943Z</time></trkpt><trkpt lat="49.844012" lon="14.828973"><ele>482.0</ele><time>2026-04-06T12:04:05.943Z</time></trkpt><trkpt lat="49.8440009" lon="14.8287342"><ele>482.0</ele><time>2026-04-06T12:04:06.942Z</time></trkpt><trkpt lat="49.8439733" lon="14.8284907"><ele>482.0</ele><time>2026-04-06T12:04:07.942Z</time></trkpt><trkpt lat="49.843954" lon="14.8282564"><ele>482.0</ele><time>2026-04-06T12:04:08.943Z</time></trkpt><trkpt lat="49.8439459" lon="14.8280351"><ele>481.25</ele><time>2026-04-06T12:04:09.942Z</time></trkpt><trkpt lat="49.8439642" lon="14.8278319"><ele>480.5</ele><time>2026-04-06T12:04:10.942Z</time></trkpt><trkpt lat="49.843973" lon="14.8276062"><ele>479.75</ele><time>2026-04-06T12:04:11.943Z</time></trkpt><trkpt lat="49.8439786" lon="14.8273726"><ele>479.0</ele><time>2026-04-06T12:04:12.943Z</time></trkpt><trkpt lat="49.8439767" lon="14.8271405"><ele>480.0</ele><time>2026-04-06T12:04:13.942Z</time></trkpt><trkpt lat="49.8439653" lon="14.826931"><ele>481.0</ele><time>2026-04-06T12:04:14.942Z</time></trkpt><trkpt lat="49.8439293" lon="14.8267459"><ele>482.0</ele><time>2026-04-06T12:04:15.942Z</time></trkpt><trkpt lat="49.8438704" lon="14.8265888"><ele>483.0</ele><time>2026-04-06T12:04:16.942Z</time></trkpt><trkpt lat="49.8437903" lon="14.8264507"><ele>483.0</ele><time>2026-04-06T12:04:17.943Z</time></trkpt><trkpt lat="49.843698" lon="14.8263313"><ele>483.0</ele><time>2026-04-06T12:04:18.943Z</time></trkpt><trkpt lat="49.8436047" lon="14.8261988"><ele>483.0</ele><time>2026-04-06T12:04:19.943Z</time></trkpt><trkpt lat="49.8434905" lon="14.8260267"><ele>483.0</ele><time>2026-04-06T12:04:20.942Z</time></trkpt><trkpt lat="49.8433941" lon="14.8258526"><ele>484.75</ele><time>2026-04-06T12:04:21.942Z</time></trkpt><trkpt lat="49.8433093" lon="14.8256831"><ele>486.5</ele><time>2026-04-06T12:04:22.943Z</time></trkpt><trkpt lat="49.8432438" lon="14.8255152"><ele>488.25</ele><time>2026-04-06T12:04:23.942Z</time></trkpt><trkpt lat="49.8431805" lon="14.8253667"><ele>490.0</ele><time>2026-04-06T12:04:24.943Z</time></trkpt><trkpt lat="49.843102" lon="14.825268"><ele>490.0</ele><time>2026-04-06T12:04:25.942Z</time></trkpt><trkpt lat="49.8430297" lon="14.825207"><ele>490.0</ele><time>2026-04-06T12:04:26.942Z</time></trkpt><trkpt lat="49.8429469" lon="14.8251837"><ele>490.0</ele><time>2026-04-06T12:04:28.942Z</time></trkpt><trkpt lat="49.8428806" lon="14.8252647"><ele>490.0</ele><time>2026-04-06T12:04:30.942Z</time></trkpt><trkpt lat="49.8427658" lon="14.8253489"><ele>490.0</ele><time>2026-04-06T12:04:32.943Z</time></trkpt><trkpt lat="49.8426832" lon="14.8253876"><ele>490.8</ele><time>2026-04-06T12:04:33.942Z</time></trkpt><trkpt lat="49.8425876" lon="14.8254316"><ele>491.6</ele><time>2026-04-06T12:04:34.942Z</time></trkpt><trkpt lat="49.8424911" lon="14.8254831"><ele>492.4</ele><time>2026-04-06T12:04:35.942Z</time></trkpt><trkpt lat="49.8423897" lon="14.8255551"><ele>493.2</ele><time>2026-04-06T12:04:36.942Z</time></trkpt><trkpt lat="49.8422783" lon="14.8256518"><ele>494.0</ele><time>2026-04-06T12:04:37.942Z</time></trkpt><trkpt lat="49.8421686" lon="14.8257546"><ele>494.0</ele><time>2026-04-06T12:04:38.942Z</time></trkpt><trkpt lat="49.8420629" lon="14.8258513"><ele>494.0</ele><time>2026-04-06T12:04:39.942Z</time></trkpt><trkpt lat="49.8419622" lon="14.8259315"><ele>494.0</ele><time>2026-04-06T12:04:40.942Z</time></trkpt><trkpt lat="49.8418769" lon="14.8259845"><ele>494.0</ele><time>2026-04-06T12:04:41.942Z</time></trkpt><trkpt lat="49.8418052" lon="14.8259898"><ele>494.0</ele><time>2026-04-06T12:04:42.942Z</time></trkpt><trkpt lat="49.8417383" lon="14.8259305"><ele>491.49999999999994</ele><time>2026-04-06T12:04:43.943Z</time></trkpt><trkpt lat="49.8416725" lon="14.825835"><ele>489.0</ele><time>2026-04-06T12:04:44.943Z</time></trkpt><trkpt lat="49.8416047" lon="14.825741"><ele>486.5</ele><time>2026-04-06T12:04:45.942Z</time></trkpt><trkpt lat="49.8415373" lon="14.8256467"><ele>484.0</ele><time>2026-04-06T12:04:46.942Z</time></trkpt><trkpt lat="49.841482" lon="14.8255576"><ele>481.49999999999994</ele><time>2026-04-06T12:04:47.942Z</time></trkpt><trkpt lat="49.841426" lon="14.8254837"><ele>479.0</ele><time>2026-04-06T12:04:48.942Z</time></trkpt><trkpt lat="49.8413693" lon="14.8254127"><ele>478.99999999999994</ele><time>2026-04-06T12:04:49.943Z</time></trkpt><trkpt lat="49.8413138" lon="14.8253415"><ele>479.0</ele><time>2026-04-06T12:04:50.943Z</time></trkpt><trkpt lat="49.8412563" lon="14.8252678"><ele>479.0</ele><time>2026-04-06T12:04:51.943Z</time></trkpt><trkpt lat="49.8411919" lon="14.8251822"><ele>479.0</ele><time>2026-04-06T12:04:52.943Z</time></trkpt><trkpt lat="49.8411356" lon="14.8250867"><ele>478.99999999999994</ele><time>2026-04-06T12:04:53.943Z</time></trkpt><trkpt lat="49.8410949" lon="14.8249795"><ele>479.0</ele><time>2026-04-06T12:04:54.942Z</time></trkpt><trkpt lat="49.8410686" lon="14.824875"><ele>478.66666666666663</ele><time>2026-04-06T12:04:55.943Z</time></trkpt><trkpt lat="49.8410509" lon="14.824768"><ele>478.3333333333333</ele><time>2026-04-06T12:04:56.943Z</time></trkpt><trkpt lat="49.8410429" lon="14.8246507"><ele>478.0</ele><time>2026-04-06T12:04:57.943Z</time></trkpt><trkpt lat="49.8410482" lon="14.8245178"><ele>477.66666666666663</ele><time>2026-04-06T12:04:58.943Z</time></trkpt><trkpt lat="49.8410655" lon="14.8243791"><ele>477.3333333333333</ele><time>2026-04-06T12:04:59.948Z</time></trkpt><trkpt lat="49.841097" lon="14.8242395"><ele>477.0</ele><time>2026-04-06T12:05:00.948Z</time></trkpt><trkpt lat="49.8411513" lon="14.8240996"><ele>476.40000000000003</ele><time>2026-04-06T12:05:01.948Z</time></trkpt><trkpt lat="49.8412092" lon="14.8239531"><ele>475.80000000000007</ele><time>2026-04-06T12:05:02.948Z</time></trkpt><trkpt lat="49.8412569" lon="14.8237952"><ele>475.2</ele><time>2026-04-06T12:05:03.948Z</time></trkpt><trkpt lat="49.8413109" lon="14.823651"><ele>474.6</ele><time>2026-04-06T12:05:04.949Z</time></trkpt><trkpt lat="49.841347" lon="14.8234766"><ele>474.0</ele><time>2026-04-06T12:05:05.949Z</time></trkpt><trkpt lat="49.8413607" lon="14.8232757"><ele>473.0</ele><time>2026-04-06T12:05:06.948Z</time></trkpt><trkpt lat="49.8413739" lon="14.8230859"><ele>472.0</ele><time>2026-04-06T12:05:07.949Z</time></trkpt><trkpt lat="49.8413855" lon="14.8229009"><ele>471.0</ele><time>2026-04-06T12:05:08.949Z</time></trkpt><trkpt lat="49.841392" lon="14.8227107"><ele>470.0</ele><time>2026-04-06T12:05:09.949Z</time></trkpt><trkpt lat="49.8413934" lon="14.8225152"><ele>469.75</ele><time>2026-04-06T12:05:10.948Z</time></trkpt><trkpt lat="49.8413966" lon="14.8223071"><ele>469.5</ele><time>2026-04-06T12:05:11.949Z</time></trkpt><trkpt lat="49.8414032" lon="14.8220959"><ele>469.25</ele><time>2026-04-06T12:05:12.948Z</time></trkpt><trkpt lat="49.8414009" lon="14.8219053"><ele>469.0</ele><time>2026-04-06T12:05:13.949Z</time></trkpt><trkpt lat="49.8414064" lon="14.8217106"><ele>468.5</ele><time>2026-04-06T12:05:14.949Z</time></trkpt><trkpt lat="49.8414188" lon="14.8215311"><ele>468.0</ele><time>2026-04-06T12:05:15.948Z</time></trkpt><trkpt lat="49.8414305" lon="14.8213467"><ele>467.5</ele><time>2026-04-06T12:05:16.949Z</time></trkpt><trkpt lat="49.8414607" lon="14.8211681"><ele>467.0</ele><time>2026-04-06T12:05:17.948Z</time></trkpt><trkpt lat="49.8415027" lon="14.8210029"><ele>466.6</ele><time>2026-04-06T12:05:18.949Z</time></trkpt><trkpt lat="49.8415523" lon="14.8208425"><ele>466.20000000000005</ele><time>2026-04-06T12:05:19.949Z</time></trkpt><trkpt lat="49.8415967" lon="14.8206938"><ele>465.8</ele><time>2026-04-06T12:05:20.948Z</time></trkpt><trkpt lat="49.8416344" lon="14.8205492"><ele>465.4</ele><time>2026-04-06T12:05:21.949Z</time></trkpt><trkpt lat="49.8416722" lon="14.8204174"><ele>465.0</ele><time>2026-04-06T12:05:22.948Z</time></trkpt><trkpt lat="49.841698" lon="14.8202857"><ele>465.0</ele><time>2026-04-06T12:05:23.948Z</time></trkpt><trkpt lat="49.841715" lon="14.8201585"><ele>465.0</ele><time>2026-04-06T12:05:24.948Z</time></trkpt><trkpt lat="49.8417402" lon="14.8200308"><ele>465.0</ele><time>2026-04-06T12:05:25.948Z</time></trkpt><trkpt lat="49.8417878" lon="14.8199194"><ele>465.0</ele><time>2026-04-06T12:05:26.948Z</time></trkpt><trkpt lat="49.8418598" lon="14.8198429"><ele>465.0</ele><time>2026-04-06T12:05:27.949Z</time></trkpt><trkpt lat="49.8419379" lon="14.819764"><ele>465.0</ele><time>2026-04-06T12:05:28.948Z</time></trkpt><trkpt lat="49.8420149" lon="14.8196552"><ele>465.0</ele><time>2026-04-06T12:05:29.949Z</time></trkpt><trkpt lat="49.8420965" lon="14.8195157"><ele>465.0</ele><time>2026-04-06T12:05:30.949Z</time></trkpt><trkpt lat="49.8421923" lon="14.8193931"><ele>465.0</ele><time>2026-04-06T12:05:31.949Z</time></trkpt><trkpt lat="49.8422924" lon="14.8192775"><ele>465.0</ele><time>2026-04-06T12:05:32.948Z</time></trkpt><trkpt lat="49.842396" lon="14.8191522"><ele>465.5</ele><time>2026-04-06T12:05:33.948Z</time></trkpt><trkpt lat="49.8424973" lon="14.8190133"><ele>466.0</ele><time>2026-04-06T12:05:34.948Z</time></trkpt><trkpt lat="49.8425946" lon="14.8188874"><ele>466.5</ele><time>2026-04-06T12:05:35.948Z</time></trkpt><trkpt lat="49.8426959" lon="14.8187829"><ele>467.0</ele><time>2026-04-06T12:05:36.949Z</time></trkpt><trkpt lat="49.8428001" lon="14.8186794"><ele>464.0</ele><time>2026-04-06T12:05:37.949Z</time></trkpt><trkpt lat="49.8429109" lon="14.8185764"><ele>461.0</ele><time>2026-04-06T12:05:38.949Z</time></trkpt><trkpt lat="49.843025" lon="14.81847"><ele>458.0</ele><time>2026-04-06T12:05:39.948Z</time></trkpt><trkpt lat="49.8431232" lon="14.8183862"><ele>455.0</ele><time>2026-04-06T12:05:40.948Z</time></trkpt><trkpt lat="49.8432243" lon="14.8183265"><ele>455.0</ele><time>2026-04-06T12:05:41.949Z</time></trkpt><trkpt lat="49.8433214" lon="14.8182795"><ele>455.0</ele><time>2026-04-06T12:05:42.948Z</time></trkpt><trkpt lat="49.8434281" lon="14.818257"><ele>455.0</ele><time>2026-04-06T12:05:43.949Z</time></trkpt><trkpt lat="49.8435415" lon="14.8182499"><ele>455.0</ele><time>2026-04-06T12:05:44.948Z</time></trkpt><trkpt lat="49.84366" lon="14.8182581"><ele>455.0</ele><time>2026-04-06T12:05:45.948Z</time></trkpt><trkpt lat="49.8437809" lon="14.8182746"><ele>453.5</ele><time>2026-04-06T12:05:46.949Z</time></trkpt><trkpt lat="49.8439022" lon="14.8182852"><ele>452.0</ele><time>2026-04-06T12:05:47.949Z</time></trkpt><trkpt lat="49.8440198" lon="14.8182674"><ele>450.5</ele><time>2026-04-06T12:05:48.948Z</time></trkpt><trkpt lat="49.8441271" lon="14.8182181"><ele>449.0</ele><time>2026-04-06T12:05:49.948Z</time></trkpt><trkpt lat="49.8442289" lon="14.818184"><ele>448.0</ele><time>2026-04-06T12:05:50.948Z</time></trkpt><trkpt lat="49.8443302" lon="14.8181804"><ele>447.0</ele><time>2026-04-06T12:05:51.948Z</time></trkpt><trkpt lat="49.8444358" lon="14.81821"><ele>446.0</ele><time>2026-04-06T12:05:52.949Z</time></trkpt><trkpt lat="49.8445368" lon="14.8182534"><ele>445.0</ele><time>2026-04-06T12:05:53.949Z</time></trkpt><trkpt lat="49.8446507" lon="14.8183308"><ele>444.0</ele><time>2026-04-06T12:05:54.949Z</time></trkpt><trkpt lat="49.8447486" lon="14.8184088"><ele>444.0</ele><time>2026-04-06T12:05:55.948Z</time></trkpt><trkpt lat="49.8448545" lon="14.8184825"><ele>444.0</ele><time>2026-04-06T12:05:56.949Z</time></trkpt><trkpt lat="49.8449488" lon="14.8185467"><ele>444.0</ele><time>2026-04-06T12:05:57.949Z</time></trkpt><trkpt lat="49.8450567" lon="14.8186418"><ele>444.0</ele><time>2026-04-06T12:05:58.948Z</time></trkpt><trkpt lat="49.8451593" lon="14.8187034"><ele>443.79999999999995</ele><time>2026-04-06T12:05:59.948Z</time></trkpt><trkpt lat="49.8452554" lon="14.8187365"><ele>443.59999999999997</ele><time>2026-04-06T12:06:00.949Z</time></trkpt><trkpt lat="49.8453553" lon="14.8187213"><ele>443.4</ele><time>2026-04-06T12:06:01.949Z</time></trkpt><trkpt lat="49.8454527" lon="14.8186644"><ele>443.2</ele><time>2026-04-06T12:06:02.948Z</time></trkpt><trkpt lat="49.8455426" lon="14.8185728"><ele>443.0</ele><time>2026-04-06T12:06:03.949Z</time></trkpt><trkpt lat="49.8456361" lon="14.8184641"><ele>443.0</ele><time>2026-04-06T12:06:04.949Z</time></trkpt><trkpt lat="49.8457236" lon="14.8183545"><ele>443.0</ele><time>2026-04-06T12:06:05.949Z</time></trkpt><trkpt lat="49.8458234" lon="14.8182518"><ele>443.0</ele><time>2026-04-06T12:06:06.949Z</time></trkpt><trkpt lat="49.8459305" lon="14.8181682"><ele>443.0</ele><time>2026-04-06T12:06:07.948Z</time></trkpt><trkpt lat="49.8460464" lon="14.818119"><ele>442.4</ele><time>2026-04-06T12:06:08.948Z</time></trkpt><trkpt lat="49.8461564" lon="14.8180944"><ele>441.79999999999995</ele><time>2026-04-06T12:06:09.949Z</time></trkpt><trkpt lat="49.8462564" lon="14.8180786"><ele>441.2</ele><time>2026-04-06T12:06:10.949Z</time></trkpt><trkpt lat="49.8463209" lon="14.8180565"><ele>440.6</ele><time>2026-04-06T12:06:11.949Z</time></trkpt><trkpt lat="49.8463916" lon="14.8179662"><ele>440.0</ele><time>2026-04-06T12:06:13.949Z</time></trkpt><trkpt lat="49.8463991" lon="14.8177717"><ele>439.8333333333333</ele><time>2026-04-06T12:06:15.949Z</time></trkpt><trkpt lat="49.8464031" lon="14.8176438"><ele>439.66666666666663</ele><time>2026-04-06T12:06:16.949Z</time></trkpt><trkpt lat="49.84642" lon="14.817518"><ele>439.5</ele><time>2026-04-06T12:06:17.949Z</time></trkpt><trkpt lat="49.8464476" lon="14.8173948"><ele>439.33333333333337</ele><time>2026-04-06T12:06:18.948Z</time></trkpt><trkpt lat="49.8464887" lon="14.8172807"><ele>439.1666666666667</ele><time>2026-04-06T12:06:19.949Z</time></trkpt><trkpt lat="49.8465283" lon="14.8171716"><ele>439.0</ele><time>2026-04-06T12:06:20.949Z</time></trkpt><trkpt lat="49.8465637" lon="14.817043"><ele>439.0</ele><time>2026-04-06T12:06:21.948Z</time></trkpt><trkpt lat="49.8465795" lon="14.8168991"><ele>439.0</ele><time>2026-04-06T12:06:22.948Z</time></trkpt><trkpt lat="49.846592" lon="14.8167553"><ele>439.0</ele><time>2026-04-06T12:06:23.948Z</time></trkpt><trkpt lat="49.8465976" lon="14.8166083"><ele>439.0</ele><time>2026-04-06T12:06:24.949Z</time></trkpt><trkpt lat="49.8465991" lon="14.8164627"><ele>439.0</ele><time>2026-04-06T12:06:25.948Z</time></trkpt><trkpt lat="49.8465934" lon="14.8163084"><ele>437.4</ele><time>2026-04-06T12:06:26.948Z</time></trkpt><trkpt lat="49.8465828" lon="14.8161493"><ele>435.79999999999995</ele><time>2026-04-06T12:06:27.948Z</time></trkpt><trkpt lat="49.8465692" lon="14.8159919"><ele>434.20000000000005</ele><time>2026-04-06T12:06:28.948Z</time></trkpt><trkpt lat="49.8465598" lon="14.815846"><ele>432.6</ele><time>2026-04-06T12:06:29.949Z</time></trkpt><trkpt lat="49.8465498" lon="14.8157104"><ele>431.0</ele><time>2026-04-06T12:06:30.949Z</time></trkpt><trkpt lat="49.8465475" lon="14.8155767"><ele>430.99999999999994</ele><time>2026-04-06T12:06:31.949Z</time></trkpt><trkpt lat="49.8465388" lon="14.8154467"><ele>431.0</ele><time>2026-04-06T12:06:32.949Z</time></trkpt><trkpt lat="49.8465145" lon="14.8153284"><ele>431.0</ele><time>2026-04-06T12:06:33.948Z</time></trkpt><trkpt lat="49.8464667" lon="14.8152375"><ele>431.0</ele><time>2026-04-06T12:06:34.948Z</time></trkpt><trkpt lat="49.8463975" lon="14.8151628"><ele>430.99999999999994</ele><time>2026-04-06T12:06:35.949Z</time></trkpt><trkpt lat="49.8463163" lon="14.8151165"><ele>431.0</ele><time>2026-04-06T12:06:36.948Z</time></trkpt><trkpt lat="49.8462246" lon="14.8150892"><ele>430.66666666666663</ele><time>2026-04-06T12:06:37.948Z</time></trkpt><trkpt lat="49.8461369" lon="14.8150817"><ele>430.3333333333333</ele><time>2026-04-06T12:06:38.948Z</time></trkpt><trkpt lat="49.8460558" lon="14.8150692"><ele>430.0</ele><time>2026-04-06T12:06:39.948Z</time></trkpt><trkpt lat="49.8459837" lon="14.8150704"><ele>429.66666666666663</ele><time>2026-04-06T12:06:40.949Z</time></trkpt><trkpt lat="49.8459185" lon="14.8150624"><ele>429.3333333333333</ele><time>2026-04-06T12:06:41.948Z</time></trkpt><trkpt lat="49.8457975" lon="14.8150082"><ele>429.0</ele><time>2026-04-06T12:06:43.949Z</time></trkpt><trkpt lat="49.8456926" lon="14.8149118"><ele>428.3333333333333</ele><time>2026-04-06T12:06:45.949Z</time></trkpt><trkpt lat="49.8456408" lon="14.8148531"><ele>427.66666666666663</ele><time>2026-04-06T12:06:46.949Z</time></trkpt><trkpt lat="49.8455936" lon="14.814761"><ele>427.0</ele><time>2026-04-06T12:06:47.949Z</time></trkpt><trkpt lat="49.8455576" lon="14.8146378"><ele>426.3333333333333</ele><time>2026-04-06T12:06:48.948Z</time></trkpt><trkpt lat="49.84552" lon="14.8145005"><ele>425.66666666666663</ele><time>2026-04-06T12:06:49.949Z</time></trkpt><trkpt lat="49.8454923" lon="14.8143433"><ele>425.0</ele><time>2026-04-06T12:06:50.949Z</time></trkpt><trkpt lat="49.8454712" lon="14.8141833"><ele>424.0</ele><time>2026-04-06T12:06:51.948Z</time></trkpt><trkpt lat="49.8454503" lon="14.8140158"><ele>423.0</ele><time>2026-04-06T12:06:52.949Z</time></trkpt><trkpt lat="49.845436" lon="14.8138616"><ele>422.0</ele><time>2026-04-06T12:06:53.949Z</time></trkpt><trkpt lat="49.8454058" lon="14.8137467"><ele>421.0</ele><time>2026-04-06T12:06:54.949Z</time></trkpt><trkpt lat="49.8453509" lon="14.813651"><ele>420.0</ele><time>2026-04-06T12:06:55.949Z</time></trkpt><trkpt lat="49.8452926" lon="14.8135596"><ele>420.0</ele><time>2026-04-06T12:06:56.949Z</time></trkpt><trkpt lat="49.8451998" lon="14.8134949"><ele>420.0</ele><time>2026-04-06T12:06:57.948Z</time></trkpt><trkpt lat="49.8451026" lon="14.8134531"><ele>420.0</ele><time>2026-04-06T12:06:58.948Z</time></trkpt><trkpt lat="49.845001" lon="14.8133988"><ele>420.0</ele><time>2026-04-06T12:06:59.949Z</time></trkpt><trkpt lat="49.8448993" lon="14.8133294"><ele>420.0</ele><time>2026-04-06T12:07:00.949Z</time></trkpt><trkpt lat="49.8448106" lon="14.8132386"><ele>420.2</ele><time>2026-04-06T12:07:01.948Z</time></trkpt><trkpt lat="49.8447322" lon="14.8131408"><ele>420.4</ele><time>2026-04-06T12:07:02.948Z</time></trkpt><trkpt lat="49.8446606" lon="14.8130094"><ele>420.6</ele><time>2026-04-06T12:07:03.948Z</time></trkpt><trkpt lat="49.8445993" lon="14.8128662"><ele>420.8</ele><time>2026-04-06T12:07:04.948Z</time></trkpt><trkpt lat="49.8445387" lon="14.8127237"><ele>421.0</ele><time>2026-04-06T12:07:05.949Z</time></trkpt><trkpt lat="49.8444836" lon="14.8125943"><ele>421.20000000000005</ele><time>2026-04-06T12:07:06.949Z</time></trkpt><trkpt lat="49.8444229" lon="14.8124893"><ele>421.40000000000003</ele><time>2026-04-06T12:07:07.948Z</time></trkpt><trkpt lat="49.8443549" lon="14.8123751"><ele>421.6</ele><time>2026-04-06T12:07:08.949Z</time></trkpt><trkpt lat="49.844285" lon="14.8122604"><ele>421.8</ele><time>2026-04-06T12:07:09.948Z</time></trkpt><trkpt lat="49.8442201" lon="14.8121448"><ele>422.0</ele><time>2026-04-06T12:07:10.949Z</time></trkpt><trkpt lat="49.8441526" lon="14.8120281"><ele>423.40000000000003</ele><time>2026-04-06T12:07:11.948Z</time></trkpt><trkpt lat="49.8440809" lon="14.8119203"><ele>424.8</ele><time>2026-04-06T12:07:12.949Z</time></trkpt><trkpt lat="49.8440107" lon="14.8118237"><ele>426.2</ele><time>2026-04-06T12:07:13.949Z</time></trkpt><trkpt lat="49.8439407" lon="14.8117368"><ele>427.6</ele><time>2026-04-06T12:07:14.948Z</time></trkpt><trkpt lat="49.8438702" lon="14.8116573"><ele>429.0</ele><time>2026-04-06T12:07:15.949Z</time></trkpt><trkpt lat="49.8437998" lon="14.8115843"><ele>429.2</ele><time>2026-04-06T12:07:16.949Z</time></trkpt><trkpt lat="49.8437287" lon="14.8115101"><ele>429.4</ele><time>2026-04-06T12:07:17.949Z</time></trkpt><trkpt lat="49.8436589" lon="14.8114354"><ele>429.6</ele><time>2026-04-06T12:07:18.948Z</time></trkpt><trkpt lat="49.8435818" lon="14.8113446"><ele>429.8</ele><time>2026-04-06T12:07:19.949Z</time></trkpt><trkpt lat="49.8434938" lon="14.8112406"><ele>430.0</ele><time>2026-04-06T12:07:20.949Z</time></trkpt><trkpt lat="49.8434022" lon="14.8111384"><ele>431.0</ele><time>2026-04-06T12:07:21.948Z</time></trkpt><trkpt lat="49.8433131" lon="14.8110345"><ele>432.0</ele><time>2026-04-06T12:07:22.949Z</time></trkpt><trkpt lat="49.8432212" lon="14.8109405"><ele>433.0</ele><time>2026-04-06T12:07:23.948Z</time></trkpt><trkpt lat="49.843125" lon="14.810854"><ele>434.0</ele><time>2026-04-06T12:07:24.948Z</time></trkpt><trkpt lat="49.8430366" lon="14.8107594"><ele>435.0</ele><time>2026-04-06T12:07:25.948Z</time></trkpt><trkpt lat="49.8429583" lon="14.8106421"><ele>435.0</ele><time>2026-04-06T12:07:26.948Z</time></trkpt><trkpt lat="49.8428987" lon="14.8105009"><ele>435.0</ele><time>2026-04-06T12:07:27.948Z</time></trkpt><trkpt lat="49.8428593" lon="14.810339"><ele>435.0</ele><time>2026-04-06T12:07:28.948Z</time></trkpt><trkpt lat="49.8428264" lon="14.8101637"><ele>435.0</ele><time>2026-04-06T12:07:29.948Z</time></trkpt><trkpt lat="49.8427993" lon="14.8100002"><ele>435.0</ele><time>2026-04-06T12:07:30.949Z</time></trkpt><trkpt lat="49.8427681" lon="14.8098568"><ele>435.0</ele><time>2026-04-06T12:07:31.948Z</time></trkpt><trkpt lat="49.8427453" lon="14.8097277"><ele>435.0</ele><time>2026-04-06T12:07:32.949Z</time></trkpt><trkpt lat="49.8427328" lon="14.8096043"><ele>435.0</ele><time>2026-04-06T12:07:33.949Z</time></trkpt><trkpt lat="49.8427359" lon="14.8094864"><ele>435.0</ele><time>2026-04-06T12:07:34.948Z</time></trkpt><trkpt lat="49.8427275" lon="14.8093488"><ele>435.0</ele><time>2026-04-06T12:07:35.949Z</time></trkpt><trkpt lat="49.84272" lon="14.8092067"><ele>435.0</ele><time>2026-04-06T12:07:36.948Z</time></trkpt><trkpt lat="49.8427107" lon="14.8090683"><ele>435.5</ele><time>2026-04-06T12:07:37.949Z</time></trkpt><trkpt lat="49.8426982" lon="14.8089376"><ele>436.0</ele><time>2026-04-06T12:07:38.949Z</time></trkpt><trkpt lat="49.8426948" lon="14.8088221"><ele>436.5</ele><time>2026-04-06T12:07:39.948Z</time></trkpt><trkpt lat="49.8427125" lon="14.8087222"><ele>437.0</ele><time>2026-04-06T12:07:40.949Z</time></trkpt><trkpt lat="49.8427771" lon="14.80857"><ele>437.5</ele><time>2026-04-06T12:07:42.948Z</time></trkpt><trkpt lat="49.8428294" lon="14.8084963"><ele>438.0</ele><time>2026-04-06T12:07:43.948Z</time></trkpt><trkpt lat="49.8429048" lon="14.8084336"><ele>439.0</ele><time>2026-04-06T12:07:44.949Z</time></trkpt><trkpt lat="49.8429756" lon="14.8083667"><ele>439.99999999999994</ele><time>2026-04-06T12:07:45.949Z</time></trkpt><trkpt lat="49.8430426" lon="14.8083194"><ele>440.99999999999994</ele><time>2026-04-06T12:07:46.948Z</time></trkpt><trkpt lat="49.8431232" lon="14.8081924"><ele>442.0</ele><time>2026-04-06T12:07:48.948Z</time></trkpt><trkpt lat="49.8431654" lon="14.8080153"><ele>443.0</ele><time>2026-04-06T12:07:50.948Z</time></trkpt><trkpt lat="49.8431643" lon="14.8078982"><ele>443.0</ele><time>2026-04-06T12:07:51.948Z</time></trkpt><trkpt lat="49.8431539" lon="14.8077649"><ele>442.99999999999994</ele><time>2026-04-06T12:07:52.949Z</time></trkpt><trkpt lat="49.8431429" lon="14.8076213"><ele>442.99999999999994</ele><time>2026-04-06T12:07:53.948Z</time></trkpt><trkpt lat="49.8431444" lon="14.8074724"><ele>443.0</ele><time>2026-04-06T12:07:54.948Z</time></trkpt><trkpt lat="49.8431544" lon="14.8073184"><ele>443.0</ele><time>2026-04-06T12:07:55.949Z</time></trkpt><trkpt lat="49.8431669" lon="14.807165"><ele>443.66666666666663</ele><time>2026-04-06T12:07:56.948Z</time></trkpt><trkpt lat="49.8431702" lon="14.8070162"><ele>444.3333333333333</ele><time>2026-04-06T12:07:57.949Z</time></trkpt><trkpt lat="49.8431684" lon="14.8068773"><ele>445.0</ele><time>2026-04-06T12:07:58.949Z</time></trkpt><trkpt lat="49.8431725" lon="14.8067451"><ele>445.66666666666663</ele><time>2026-04-06T12:07:59.948Z</time></trkpt><trkpt lat="49.8431886" lon="14.8066113"><ele>446.3333333333333</ele><time>2026-04-06T12:08:00.948Z</time></trkpt><trkpt lat="49.8432162" lon="14.8064817"><ele>447.0</ele><time>2026-04-06T12:08:01.949Z</time></trkpt><trkpt lat="49.8432498" lon="14.8063605"><ele>447.1666666666667</ele><time>2026-04-06T12:08:02.949Z</time></trkpt><trkpt lat="49.8432891" lon="14.806244"><ele>447.33333333333337</ele><time>2026-04-06T12:08:03.948Z</time></trkpt><trkpt lat="49.8433354" lon="14.8061409"><ele>447.5</ele><time>2026-04-06T12:08:04.948Z</time></trkpt><trkpt lat="49.8433916" lon="14.8060455"><ele>447.6666666666667</ele><time>2026-04-06T12:08:05.949Z</time></trkpt><trkpt lat="49.8434611" lon="14.8059629"><ele>447.83333333333337</ele><time>2026-04-06T12:08:06.948Z</time></trkpt><trkpt lat="49.8435498" lon="14.805898"><ele>448.0</ele><time>2026-04-06T12:08:07.948Z</time></trkpt><trkpt lat="49.8436608" lon="14.8058436"><ele>448.33333333333337</ele><time>2026-04-06T12:08:08.949Z</time></trkpt><trkpt lat="49.8438039" lon="14.8057893"><ele>448.66666666666663</ele><time>2026-04-06T12:08:09.948Z</time></trkpt><trkpt lat="49.8439553" lon="14.8057165"><ele>449.0</ele><time>2026-04-06T12:08:10.948Z</time></trkpt><trkpt lat="49.8440988" lon="14.8056389"><ele>449.0</ele><time>2026-04-06T12:08:11.949Z</time></trkpt><trkpt lat="49.8442301" lon="14.8055687"><ele>449.0</ele><time>2026-04-06T12:08:12.949Z</time></trkpt><trkpt lat="49.8443609" lon="14.8055008"><ele>449.0</ele><time>2026-04-06T12:08:13.948Z</time></trkpt><trkpt lat="49.8445058" lon="14.8054471"><ele>449.0</ele><time>2026-04-06T12:08:14.949Z</time></trkpt><trkpt lat="49.8446583" lon="14.8053953"><ele>449.25</ele><time>2026-04-06T12:08:15.949Z</time></trkpt><trkpt lat="49.8448059" lon="14.8053525"><ele>449.5</ele><time>2026-04-06T12:08:16.949Z</time></trkpt><trkpt lat="49.8449402" lon="14.8053168"><ele>449.75</ele><time>2026-04-06T12:08:17.949Z</time></trkpt><trkpt lat="49.8450482" lon="14.8052489"><ele>450.0</ele><time>2026-04-06T12:08:18.948Z</time></trkpt><trkpt lat="49.8451544" lon="14.8051796"><ele>450.75</ele><time>2026-04-06T12:08:19.948Z</time></trkpt><trkpt lat="49.8452658" lon="14.8050943"><ele>451.5</ele><time>2026-04-06T12:08:20.948Z</time></trkpt><trkpt lat="49.845376" lon="14.8049979"><ele>452.25</ele><time>2026-04-06T12:08:21.949Z</time></trkpt><trkpt lat="49.8454898" lon="14.8049111"><ele>453.0</ele><time>2026-04-06T12:08:22.948Z</time></trkpt><trkpt lat="49.8455988" lon="14.8048161"><ele>453.0</ele><time>2026-04-06T12:08:23.948Z</time></trkpt><trkpt lat="49.8456975" lon="14.8047119"><ele>453.0</ele><time>2026-04-06T12:08:24.949Z</time></trkpt><trkpt lat="49.8457944" lon="14.8045809"><ele>453.0</ele><time>2026-04-06T12:08:25.949Z</time></trkpt><trkpt lat="49.8458929" lon="14.8044326"><ele>453.0</ele><time>2026-04-06T12:08:26.948Z</time></trkpt><trkpt lat="49.8459894" lon="14.8042824"><ele>452.75</ele><time>2026-04-06T12:08:27.949Z</time></trkpt><trkpt lat="49.8460869" lon="14.8041411"><ele>452.5</ele><time>2026-04-06T12:08:28.948Z</time></trkpt><trkpt lat="49.8461753" lon="14.8040194"><ele>452.25</ele><time>2026-04-06T12:08:29.948Z</time></trkpt><trkpt lat="49.846264" lon="14.8039273"><ele>452.0</ele><time>2026-04-06T12:08:30.948Z</time></trkpt><trkpt lat="49.8463561" lon="14.8038626"><ele>452.0</ele><time>2026-04-06T12:08:31.949Z</time></trkpt><trkpt lat="49.8464356" lon="14.8038203"><ele>452.00000000000006</ele><time>2026-04-06T12:08:32.949Z</time></trkpt><trkpt lat="49.8465317" lon="14.8037891"><ele>452.00000000000006</ele><time>2026-04-06T12:08:33.948Z</time></trkpt><trkpt lat="49.8466321" lon="14.8037737"><ele>452.0</ele><time>2026-04-06T12:08:34.949Z</time></trkpt><trkpt lat="49.8467381" lon="14.8037947"><ele>452.0</ele><time>2026-04-06T12:08:35.949Z</time></trkpt><trkpt lat="49.8468651" lon="14.8038232"><ele>451.75</ele><time>2026-04-06T12:08:36.949Z</time></trkpt><trkpt lat="49.8470005" lon="14.8038625"><ele>451.5</ele><time>2026-04-06T12:08:37.949Z</time></trkpt><trkpt lat="49.8471465" lon="14.8038938"><ele>451.25</ele><time>2026-04-06T12:08:38.948Z</time></trkpt><trkpt lat="49.8473057" lon="14.803926"><ele>451.0</ele><time>2026-04-06T12:08:39.949Z</time></trkpt><trkpt lat="49.8474718" lon="14.8039643"><ele>449.0</ele><time>2026-04-06T12:08:40.948Z</time></trkpt><trkpt lat="49.8476304" lon="14.8040055"><ele>447.0</ele><time>2026-04-06T12:08:41.949Z</time></trkpt><trkpt lat="49.8477829" lon="14.8040417"><ele>445.0</ele><time>2026-04-06T12:08:42.949Z</time></trkpt><trkpt lat="49.8479327" lon="14.8040865"><ele>445.0</ele><time>2026-04-06T12:08:43.949Z</time></trkpt><trkpt lat="49.8480858" lon="14.8041497"><ele>445.0</ele><time>2026-04-06T12:08:44.949Z</time></trkpt><trkpt lat="49.8482393" lon="14.8042108"><ele>445.0</ele><time>2026-04-06T12:08:45.948Z</time></trkpt><trkpt lat="49.8483928" lon="14.8042748"><ele>445.33333333333337</ele><time>2026-04-06T12:08:46.949Z</time></trkpt><trkpt lat="49.8485383" lon="14.8043277"><ele>445.66666666666663</ele><time>2026-04-06T12:08:47.948Z</time></trkpt><trkpt lat="49.8486872" lon="14.8043724"><ele>446.0</ele><time>2026-04-06T12:08:48.949Z</time></trkpt><trkpt lat="49.8488511" lon="14.804405"><ele>444.3333333333333</ele><time>2026-04-06T12:08:49.949Z</time></trkpt><trkpt lat="49.8490312" lon="14.8044204"><ele>442.66666666666663</ele><time>2026-04-06T12:08:50.948Z</time></trkpt><trkpt lat="49.8492161" lon="14.8044337"><ele>441.0</ele><time>2026-04-06T12:08:51.949Z</time></trkpt><trkpt lat="49.8493982" lon="14.8044399"><ele>441.0</ele><time>2026-04-06T12:08:52.949Z</time></trkpt><trkpt lat="49.8495841" lon="14.804445"><ele>441.0</ele><time>2026-04-06T12:08:53.948Z</time></trkpt><trkpt lat="49.8497688" lon="14.8044412"><ele>441.0</ele><time>2026-04-06T12:08:54.948Z</time></trkpt><trkpt lat="49.8499506" lon="14.8044257"><ele>444.66666666666663</ele><time>2026-04-06T12:08:55.948Z</time></trkpt><trkpt lat="49.8501264" lon="14.8044046"><ele>448.3333333333333</ele><time>2026-04-06T12:08:56.949Z</time></trkpt><trkpt lat="49.8502993" lon="14.8043845"><ele>452.0</ele><time>2026-04-06T12:08:57.948Z</time></trkpt><trkpt lat="49.850463" lon="14.8043709"><ele>452.0</ele><time>2026-04-06T12:08:58.948Z</time></trkpt><trkpt lat="49.8506152" lon="14.8043455"><ele>452.0</ele><time>2026-04-06T12:08:59.948Z</time></trkpt><trkpt lat="49.8507667" lon="14.8042776"><ele>452.0</ele><time>2026-04-06T12:09:00.949Z</time></trkpt><trkpt lat="49.8509138" lon="14.8041863"><ele>453.0</ele><time>2026-04-06T12:09:01.949Z</time></trkpt><trkpt lat="49.8510695" lon="14.8040981"><ele>454.0</ele><time>2026-04-06T12:09:02.949Z</time></trkpt><trkpt lat="49.851244" lon="14.8040206"><ele>455.0</ele><time>2026-04-06T12:09:03.949Z</time></trkpt><trkpt lat="49.8514371" lon="14.8039587"><ele>455.0</ele><time>2026-04-06T12:09:04.949Z</time></trkpt><trkpt lat="49.8516369" lon="14.8038988"><ele>455.0</ele><time>2026-04-06T12:09:05.948Z</time></trkpt><trkpt lat="49.8518222" lon="14.8038413"><ele>455.0</ele><time>2026-04-06T12:09:06.949Z</time></trkpt><trkpt lat="49.8520047" lon="14.8037728"><ele>455.0</ele><time>2026-04-06T12:09:07.948Z</time></trkpt><trkpt lat="49.8521915" lon="14.8036893"><ele>455.0</ele><time>2026-04-06T12:09:08.949Z</time></trkpt><trkpt lat="49.852384" lon="14.8035884"><ele>455.0</ele><time>2026-04-06T12:09:09.948Z</time></trkpt><trkpt lat="49.8525766" lon="14.8034819"><ele>455.3333333333333</ele><time>2026-04-06T12:09:10.948Z</time></trkpt><trkpt lat="49.8527638" lon="14.8033803"><ele>455.66666666666663</ele><time>2026-04-06T12:09:11.949Z</time></trkpt><trkpt lat="49.8529507" lon="14.8032923"><ele>456.0</ele><time>2026-04-06T12:09:12.949Z</time></trkpt><trkpt lat="49.8531291" lon="14.8032106"><ele>456.0</ele><time>2026-04-06T12:09:13.948Z</time></trkpt><trkpt lat="49.8533006" lon="14.8031345"><ele>456.0</ele><time>2026-04-06T12:09:14.948Z</time></trkpt><trkpt lat="49.8534657" lon="14.8030551"><ele>456.0</ele><time>2026-04-06T12:09:15.949Z</time></trkpt><trkpt lat="49.8536248" lon="14.8029656"><ele>458.33333333333337</ele><time>2026-04-06T12:09:16.949Z</time></trkpt><trkpt lat="49.8537896" lon="14.8028919"><ele>460.6666666666667</ele><time>2026-04-06T12:09:17.949Z</time></trkpt><trkpt lat="49.8539458" lon="14.8028077"><ele>463.0</ele><time>2026-04-06T12:09:18.948Z</time></trkpt><trkpt lat="49.8540827" lon="14.8027294"><ele>461.25</ele><time>2026-04-06T12:09:19.949Z</time></trkpt><trkpt lat="49.854211" lon="14.8026485"><ele>459.5</ele><time>2026-04-06T12:09:20.948Z</time></trkpt><trkpt lat="49.8543405" lon="14.8025811"><ele>457.75</ele><time>2026-04-06T12:09:21.948Z</time></trkpt><trkpt lat="49.8544736" lon="14.8025251"><ele>456.0</ele><time>2026-04-06T12:09:22.948Z</time></trkpt><trkpt lat="49.8546109" lon="14.8024651"><ele>456.0</ele><time>2026-04-06T12:09:23.949Z</time></trkpt><trkpt lat="49.8547448" lon="14.8024049"><ele>456.0</ele><time>2026-04-06T12:09:24.948Z</time></trkpt><trkpt lat="49.8548823" lon="14.8023386"><ele>456.0</ele><time>2026-04-06T12:09:25.948Z</time></trkpt><trkpt lat="49.8550146" lon="14.802267"><ele>456.0</ele><time>2026-04-06T12:09:26.948Z</time></trkpt><trkpt lat="49.8551411" lon="14.802197"><ele>456.75</ele><time>2026-04-06T12:09:27.948Z</time></trkpt><trkpt lat="49.8552698" lon="14.8021299"><ele>457.5</ele><time>2026-04-06T12:09:28.948Z</time></trkpt><trkpt lat="49.8554054" lon="14.8020677"><ele>458.25</ele><time>2026-04-06T12:09:29.948Z</time></trkpt><trkpt lat="49.8555469" lon="14.8019903"><ele>459.0</ele><time>2026-04-06T12:09:30.948Z</time></trkpt><trkpt lat="49.8556961" lon="14.8019084"><ele>456.33333333333337</ele><time>2026-04-06T12:09:31.948Z</time></trkpt><trkpt lat="49.8558526" lon="14.8018173"><ele>453.6666666666667</ele><time>2026-04-06T12:09:32.948Z</time></trkpt><trkpt lat="49.8559911" lon="14.8017075"><ele>451.0</ele><time>2026-04-06T12:09:33.949Z</time></trkpt><trkpt lat="49.8561266" lon="14.8015985"><ele>450.75</ele><time>2026-04-06T12:09:34.948Z</time></trkpt><trkpt lat="49.8562552" lon="14.8015038"><ele>450.5</ele><time>2026-04-06T12:09:35.948Z</time></trkpt><trkpt lat="49.8563915" lon="14.8014154"><ele>450.25</ele><time>2026-04-06T12:09:36.948Z</time></trkpt><trkpt lat="49.8565299" lon="14.801326"><ele>450.0</ele><time>2026-04-06T12:09:37.948Z</time></trkpt><trkpt lat="49.8566571" lon="14.8012337"><ele>450.0</ele><time>2026-04-06T12:09:38.949Z</time></trkpt><trkpt lat="49.8567769" lon="14.8011437"><ele>450.0</ele><time>2026-04-06T12:09:39.949Z</time></trkpt><trkpt lat="49.8568863" lon="14.8010689"><ele>450.0</ele><time>2026-04-06T12:09:40.948Z</time></trkpt><trkpt lat="49.8569878" lon="14.8009923"><ele>450.0</ele><time>2026-04-06T12:09:41.948Z</time></trkpt><trkpt lat="49.8570669" lon="14.8009415"><ele>448.3333333333333</ele><time>2026-04-06T12:09:42.948Z</time></trkpt><trkpt lat="49.8571745" lon="14.800854"><ele>446.66666666666663</ele><time>2026-04-06T12:09:44.949Z</time></trkpt><trkpt lat="49.8572278" lon="14.8007948"><ele>445.0</ele><time>2026-04-06T12:09:45.948Z</time></trkpt><trkpt lat="49.8572916" lon="14.8007436"><ele>443.3333333333333</ele><time>2026-04-06T12:09:46.948Z</time></trkpt><trkpt lat="49.8573659" lon="14.800715"><ele>441.66666666666663</ele><time>2026-04-06T12:09:47.949Z</time></trkpt><trkpt lat="49.8574584" lon="14.8007038"><ele>440.0</ele><time>2026-04-06T12:09:48.949Z</time></trkpt><trkpt lat="49.8575667" lon="14.8006993"><ele>440.2</ele><time>2026-04-06T12:09:49.948Z</time></trkpt><trkpt lat="49.8576656" lon="14.8006977"><ele>440.4</ele><time>2026-04-06T12:09:50.948Z</time></trkpt><trkpt lat="49.8577613" lon="14.8006882"><ele>440.6</ele><time>2026-04-06T12:09:51.949Z</time></trkpt><trkpt lat="49.8578544" lon="14.800675"><ele>440.8</ele><time>2026-04-06T12:09:52.949Z</time></trkpt><trkpt lat="49.8579505" lon="14.8006686"><ele>441.0</ele><time>2026-04-06T12:09:53.948Z</time></trkpt><trkpt lat="49.8580456" lon="14.8006574"><ele>441.0</ele><time>2026-04-06T12:09:54.949Z</time></trkpt><trkpt lat="49.8581387" lon="14.8006504"><ele>441.0</ele><time>2026-04-06T12:09:55.948Z</time></trkpt><trkpt lat="49.8582214" lon="14.8006423"><ele>441.0</ele><time>2026-04-06T12:09:56.948Z</time></trkpt><trkpt lat="49.8583068" lon="14.8006366"><ele>441.0</ele><time>2026-04-06T12:09:57.948Z</time></trkpt><trkpt lat="49.8583928" lon="14.8006319"><ele>441.0</ele><time>2026-04-06T12:09:58.949Z</time></trkpt><trkpt lat="49.8584747" lon="14.8006233"><ele>441.0</ele><time>2026-04-06T12:09:59.949Z</time></trkpt><trkpt lat="49.85855" lon="14.8006193"><ele>440.5</ele><time>2026-04-06T12:10:00.948Z</time></trkpt><trkpt lat="49.8586268" lon="14.8006153"><ele>440.0</ele><time>2026-04-06T12:10:01.948Z</time></trkpt><trkpt lat="49.8587044" lon="14.8006075"><ele>439.5</ele><time>2026-04-06T12:10:02.948Z</time></trkpt><trkpt lat="49.8587843" lon="14.8005967"><ele>439.0</ele><time>2026-04-06T12:10:03.948Z</time></trkpt><trkpt lat="49.8588552" lon="14.8005857"><ele>438.5</ele><time>2026-04-06T12:10:04.949Z</time></trkpt><trkpt lat="49.8589182" lon="14.8005723"><ele>438.0</ele><time>2026-04-06T12:10:05.948Z</time></trkpt><trkpt lat="49.8590323" lon="14.8005748"><ele>438.0</ele><time>2026-04-06T12:10:07.949Z</time></trkpt><trkpt lat="49.8591167" lon="14.8006371"><ele>438.0</ele><time>2026-04-06T12:10:09.948Z</time></trkpt><trkpt lat="49.8591691" lon="14.8007913"><ele>438.0</ele><time>2026-04-06T12:10:11.949Z</time></trkpt><trkpt lat="49.8591896" lon="14.8009401"><ele>438.0</ele><time>2026-04-06T12:10:13.948Z</time></trkpt><trkpt lat="49.8592948" lon="14.8011085"><ele>437.3333333333333</ele><time>2026-04-06T12:10:15.95Z</time></trkpt><trkpt lat="49.8593761" lon="14.8012246"><ele>436.66666666666663</ele><time>2026-04-06T12:10:16.949Z</time></trkpt><trkpt lat="49.8594541" lon="14.8013079"><ele>436.0</ele><time>2026-04-06T12:10:17.949Z</time></trkpt><trkpt lat="49.8595193" lon="14.8013933"><ele>435.3333333333333</ele><time>2026-04-06T12:10:18.95Z</time></trkpt><trkpt lat="49.8595685" lon="14.8014667"><ele>434.66666666666663</ele><time>2026-04-06T12:10:19.95Z</time></trkpt><trkpt lat="49.8596184" lon="14.8015467"><ele>434.0</ele><time>2026-04-06T12:10:20.949Z</time></trkpt><trkpt lat="49.859671" lon="14.8016135"><ele>434.0</ele><time>2026-04-06T12:10:21.949Z</time></trkpt><trkpt lat="49.8597347" lon="14.8016694"><ele>434.0</ele><time>2026-04-06T12:10:22.949Z</time></trkpt><trkpt lat="49.859825" lon="14.8017221"><ele>434.0</ele><time>2026-04-06T12:10:23.949Z</time></trkpt><trkpt lat="49.8599179" lon="14.8017855"><ele>434.0</ele><time>2026-04-06T12:10:24.949Z</time></trkpt><trkpt lat="49.8600155" lon="14.8018574"><ele>434.0</ele><time>2026-04-06T12:10:25.95Z</time></trkpt><trkpt lat="49.860121" lon="14.801935"><ele>431.0</ele><time>2026-04-06T12:10:26.95Z</time></trkpt><trkpt lat="49.860238" lon="14.8020101"><ele>428.0</ele><time>2026-04-06T12:10:27.95Z</time></trkpt><trkpt lat="49.8603496" lon="14.8020844"><ele>425.0</ele><time>2026-04-06T12:10:28.949Z</time></trkpt><trkpt lat="49.8604483" lon="14.8021696"><ele>422.0</ele><time>2026-04-06T12:10:29.949Z</time></trkpt><trkpt lat="49.8605433" lon="14.8022699"><ele>422.0</ele><time>2026-04-06T12:10:30.949Z</time></trkpt><trkpt lat="49.8606441" lon="14.8023842"><ele>422.0</ele><time>2026-04-06T12:10:31.949Z</time></trkpt><trkpt lat="49.8607587" lon="14.8025049"><ele>422.0</ele><time>2026-04-06T12:10:32.949Z</time></trkpt><trkpt lat="49.8608889" lon="14.8025961"><ele>422.0</ele><time>2026-04-06T12:10:33.949Z</time></trkpt><trkpt lat="49.8610088" lon="14.8026595"><ele>418.5</ele><time>2026-04-06T12:10:34.949Z</time></trkpt><trkpt lat="49.8611365" lon="14.8027161"><ele>415.0</ele><time>2026-04-06T12:10:35.949Z</time></trkpt><trkpt lat="49.861263" lon="14.8027646"><ele>411.5</ele><time>2026-04-06T12:10:36.95Z</time></trkpt><trkpt lat="49.8613834" lon="14.8028094"><ele>408.0</ele><time>2026-04-06T12:10:37.949Z</time></trkpt><trkpt lat="49.8614779" lon="14.8028574"><ele>408.0</ele><time>2026-04-06T12:10:38.95Z</time></trkpt><trkpt lat="49.8615522" lon="14.8028876"><ele>408.0</ele><time>2026-04-06T12:10:39.949Z</time></trkpt><trkpt lat="49.8616421" lon="14.8029235"><ele>408.0</ele><time>2026-04-06T12:10:41.949Z</time></trkpt><trkpt lat="49.861646" lon="14.8030331"><ele>408.0</ele><time>2026-04-06T12:10:43.95Z</time></trkpt><trkpt lat="49.8615595" lon="14.803225"><ele>408.0</ele><time>2026-04-06T12:10:45.949Z</time></trkpt><trkpt lat="49.8614658" lon="14.8033618"><ele>405.25</ele><time>2026-04-06T12:10:46.949Z</time></trkpt><trkpt lat="49.8613767" lon="14.8034977"><ele>402.5</ele><time>2026-04-06T12:10:47.95Z</time></trkpt><trkpt lat="49.8612808" lon="14.8036368"><ele>399.75</ele><time>2026-04-06T12:10:48.95Z</time></trkpt><trkpt lat="49.8611544" lon="14.8038057"><ele>397.0</ele><time>2026-04-06T12:10:49.949Z</time></trkpt><trkpt lat="49.8610183" lon="14.8039772"><ele>398.33333333333337</ele><time>2026-04-06T12:10:50.949Z</time></trkpt><trkpt lat="49.8608799" lon="14.8041388"><ele>399.66666666666663</ele><time>2026-04-06T12:10:51.949Z</time></trkpt><trkpt lat="49.86075" lon="14.8042884"><ele>401.0</ele><time>2026-04-06T12:10:52.95Z</time></trkpt><trkpt lat="49.8606377" lon="14.8044127"><ele>398.25</ele><time>2026-04-06T12:10:53.949Z</time></trkpt><trkpt lat="49.8605395" lon="14.8045288"><ele>395.5</ele><time>2026-04-06T12:10:54.95Z</time></trkpt><trkpt lat="49.8604591" lon="14.8046744"><ele>392.75</ele><time>2026-04-06T12:10:55.949Z</time></trkpt><trkpt lat="49.8604065" lon="14.8048467"><ele>390.0</ele><time>2026-04-06T12:10:56.949Z</time></trkpt><trkpt lat="49.8603662" lon="14.8050045"><ele>390.0</ele><time>2026-04-06T12:10:57.949Z</time></trkpt><trkpt lat="49.860322" lon="14.8051543"><ele>390.0</ele><time>2026-04-06T12:10:58.95Z</time></trkpt><trkpt lat="49.8602735" lon="14.8053"><ele>390.0</ele><time>2026-04-06T12:10:59.95Z</time></trkpt><trkpt lat="49.8602189" lon="14.8054338"><ele>390.0</ele><time>2026-04-06T12:11:00.95Z</time></trkpt><trkpt lat="49.8601488" lon="14.8055671"><ele>390.0</ele><time>2026-04-06T12:11:01.95Z</time></trkpt><trkpt lat="49.8600674" lon="14.8057064"><ele>391.2</ele><time>2026-04-06T12:11:02.949Z</time></trkpt><trkpt lat="49.8599925" lon="14.8058625"><ele>392.4</ele><time>2026-04-06T12:11:03.949Z</time></trkpt><trkpt lat="49.8599392" lon="14.8060167"><ele>393.6</ele><time>2026-04-06T12:11:04.949Z</time></trkpt><trkpt lat="49.8599135" lon="14.8061744"><ele>394.8</ele><time>2026-04-06T12:11:05.95Z</time></trkpt><trkpt lat="49.859915" lon="14.80633"><ele>396.0</ele><time>2026-04-06T12:11:06.949Z</time></trkpt><trkpt lat="49.859928" lon="14.8064783"><ele>396.3333333333333</ele><time>2026-04-06T12:11:07.95Z</time></trkpt><trkpt lat="49.8599324" lon="14.806613"><ele>396.66666666666663</ele><time>2026-04-06T12:11:08.95Z</time></trkpt><trkpt lat="49.8599381" lon="14.8067155"><ele>397.0</ele><time>2026-04-06T12:11:09.949Z</time></trkpt><trkpt lat="49.8599612" lon="14.8069138"><ele>397.3333333333333</ele><time>2026-04-06T12:11:11.95Z</time></trkpt><trkpt lat="49.8599545" lon="14.8070274"><ele>397.66666666666663</ele><time>2026-04-06T12:11:12.949Z</time></trkpt><trkpt lat="49.859929" lon="14.8071433"><ele>398.0</ele><time>2026-04-06T12:11:13.949Z</time></trkpt><trkpt lat="49.8598891" lon="14.8072966"><ele>396.75</ele><time>2026-04-06T12:11:14.95Z</time></trkpt><trkpt lat="49.8598356" lon="14.8074238"><ele>395.5</ele><time>2026-04-06T12:11:15.949Z</time></trkpt><trkpt lat="49.8597691" lon="14.8075915"><ele>394.25</ele><time>2026-04-06T12:11:16.95Z</time></trkpt><trkpt lat="49.8597009" lon="14.8077663"><ele>393.0</ele><time>2026-04-06T12:11:17.949Z</time></trkpt><trkpt lat="49.8596492" lon="14.8079358"><ele>390.59999999999997</ele><time>2026-04-06T12:11:18.949Z</time></trkpt><trkpt lat="49.8595918" lon="14.8080759"><ele>388.2</ele><time>2026-04-06T12:11:19.95Z</time></trkpt><trkpt lat="49.8595382" lon="14.8082197"><ele>385.8</ele><time>2026-04-06T12:11:20.949Z</time></trkpt><trkpt lat="49.8595081" lon="14.8083522"><ele>383.4</ele><time>2026-04-06T12:11:21.949Z</time></trkpt><trkpt lat="49.8595019" lon="14.8084774"><ele>381.0</ele><time>2026-04-06T12:11:22.949Z</time></trkpt><trkpt lat="49.8595227" lon="14.8085968"><ele>379.0</ele><time>2026-04-06T12:11:23.949Z</time></trkpt><trkpt lat="49.8595501" lon="14.8087104"><ele>377.0</ele><time>2026-04-06T12:11:24.95Z</time></trkpt><trkpt lat="49.8596006" lon="14.8088138"><ele>375.0</ele><time>2026-04-06T12:11:25.95Z</time></trkpt><trkpt lat="49.8596661" lon="14.8089131"><ele>373.0</ele><time>2026-04-06T12:11:26.949Z</time></trkpt><trkpt lat="49.8597574" lon="14.8089972"><ele>371.0</ele><time>2026-04-06T12:11:27.95Z</time></trkpt><trkpt lat="49.8598569" lon="14.8090781"><ele>371.0</ele><time>2026-04-06T12:11:28.949Z</time></trkpt><trkpt lat="49.8599161" lon="14.8091744"><ele>371.0</ele><time>2026-04-06T12:11:29.95Z</time></trkpt><trkpt lat="49.8599616" lon="14.809284"><ele>371.0</ele><time>2026-04-06T12:11:30.949Z</time></trkpt><trkpt lat="49.8599659" lon="14.8094001"><ele>371.0</ele><time>2026-04-06T12:11:31.95Z</time></trkpt><trkpt lat="49.8599588" lon="14.8094979"><ele>371.0</ele><time>2026-04-06T12:11:32.95Z</time></trkpt><trkpt lat="49.8598915" lon="14.8096137"><ele>371.0</ele><time>2026-04-06T12:11:33.95Z</time></trkpt><trkpt lat="49.8598001" lon="14.8097576"><ele>368.25</ele><time>2026-04-06T12:11:34.95Z</time></trkpt><trkpt lat="49.859702" lon="14.8099331"><ele>365.5</ele><time>2026-04-06T12:11:35.95Z</time></trkpt><trkpt lat="49.8596176" lon="14.8100964"><ele>362.75</ele><time>2026-04-06T12:11:36.949Z</time></trkpt><trkpt lat="49.8595497" lon="14.8102415"><ele>360.0</ele><time>2026-04-06T12:11:37.949Z</time></trkpt><trkpt lat="49.8595037" lon="14.81038"><ele>359.8</ele><time>2026-04-06T12:11:38.949Z</time></trkpt><trkpt lat="49.8594538" lon="14.8104932"><ele>359.6</ele><time>2026-04-06T12:11:39.955Z</time></trkpt><trkpt lat="49.859409" lon="14.8105905"><ele>359.4</ele><time>2026-04-06T12:11:40.956Z</time></trkpt><trkpt lat="49.8593396" lon="14.8106917"><ele>359.2</ele><time>2026-04-06T12:11:41.956Z</time></trkpt><trkpt lat="49.8592614" lon="14.8108059"><ele>359.0</ele><time>2026-04-06T12:11:42.955Z</time></trkpt><trkpt lat="49.8591852" lon="14.8109104"><ele>357.79999999999995</ele><time>2026-04-06T12:11:43.956Z</time></trkpt><trkpt lat="49.8591193" lon="14.8110329"><ele>356.59999999999997</ele><time>2026-04-06T12:11:44.956Z</time></trkpt><trkpt lat="49.8590715" lon="14.8111524"><ele>355.4</ele><time>2026-04-06T12:11:45.955Z</time></trkpt><trkpt lat="49.8590375" lon="14.8112435"><ele>354.2</ele><time>2026-04-06T12:11:46.956Z</time></trkpt><trkpt lat="49.8589974" lon="14.8113925"><ele>353.0</ele><time>2026-04-06T12:11:48.955Z</time></trkpt><trkpt lat="49.8590296" lon="14.8115206"><ele>353.0</ele><time>2026-04-06T12:11:50.956Z</time></trkpt><trkpt lat="49.8591385" lon="14.8115748"><ele>353.0</ele><time>2026-04-06T12:11:52.956Z</time></trkpt><trkpt lat="49.8592164" lon="14.8115632"><ele>353.0</ele><time>2026-04-06T12:11:53.956Z</time></trkpt><trkpt lat="49.8592919" lon="14.8115422"><ele>353.0</ele><time>2026-04-06T12:11:54.955Z</time></trkpt><trkpt lat="49.8593703" lon="14.8115205"><ele>353.0</ele><time>2026-04-06T12:11:55.956Z</time></trkpt><trkpt lat="49.85946" lon="14.8114757"><ele>353.0</ele><time>2026-04-06T12:11:56.955Z</time></trkpt><trkpt lat="49.8595605" lon="14.8114111"><ele>353.5</ele><time>2026-04-06T12:11:57.956Z</time></trkpt><trkpt lat="49.8596633" lon="14.8113262"><ele>354.0</ele><time>2026-04-06T12:11:58.956Z</time></trkpt><trkpt lat="49.8597558" lon="14.8112059"><ele>354.5</ele><time>2026-04-06T12:11:59.955Z</time></trkpt><trkpt lat="49.8598578" lon="14.8110786"><ele>355.0</ele><time>2026-04-06T12:12:00.955Z</time></trkpt><trkpt lat="49.8599684" lon="14.810933"><ele>355.0</ele><time>2026-04-06T12:12:01.955Z</time></trkpt><trkpt lat="49.8600926" lon="14.8107981"><ele>355.0</ele><time>2026-04-06T12:12:02.956Z</time></trkpt><trkpt lat="49.8602371" lon="14.8106585"><ele>355.0</ele><time>2026-04-06T12:12:03.955Z</time></trkpt><trkpt lat="49.8604146" lon="14.8105049"><ele>355.0</ele><time>2026-04-06T12:12:04.955Z</time></trkpt><trkpt lat="49.8605887" lon="14.810349"><ele>355.0</ele><time>2026-04-06T12:12:05.955Z</time></trkpt><trkpt lat="49.8607477" lon="14.8101877"><ele>355.0</ele><time>2026-04-06T12:12:06.955Z</time></trkpt><trkpt lat="49.8609016" lon="14.8100198"><ele>355.0</ele><time>2026-04-06T12:12:07.955Z</time></trkpt><trkpt lat="49.8610561" lon="14.8098633"><ele>355.0</ele><time>2026-04-06T12:12:08.956Z</time></trkpt><trkpt lat="49.8612069" lon="14.8097194"><ele>355.0</ele><time>2026-04-06T12:12:09.956Z</time></trkpt><trkpt lat="49.8613667" lon="14.8095773"><ele>355.0</ele><time>2026-04-06T12:12:10.955Z</time></trkpt><trkpt lat="49.8615152" lon="14.8094446"><ele>355.0</ele><time>2026-04-06T12:12:11.956Z</time></trkpt><trkpt lat="49.8616613" lon="14.8093385"><ele>355.0</ele><time>2026-04-06T12:12:12.955Z</time></trkpt><trkpt lat="49.8617982" lon="14.8092588"><ele>355.2</ele><time>2026-04-06T12:12:13.955Z</time></trkpt><trkpt lat="49.8619138" lon="14.8091915"><ele>355.4</ele><time>2026-04-06T12:12:14.955Z</time></trkpt><trkpt lat="49.8620005" lon="14.8091404"><ele>355.6</ele><time>2026-04-06T12:12:15.955Z</time></trkpt><trkpt lat="49.8620682" lon="14.8091006"><ele>355.8</ele><time>2026-04-06T12:12:16.955Z</time></trkpt><trkpt lat="49.8621698" lon="14.8090257"><ele>356.0</ele><time>2026-04-06T12:12:18.956Z</time></trkpt><trkpt lat="49.8622603" lon="14.8089482"><ele>356.0</ele><time>2026-04-06T12:12:20.955Z</time></trkpt><trkpt lat="49.8623431" lon="14.8088725"><ele>356.0</ele><time>2026-04-06T12:12:21.955Z</time></trkpt><trkpt lat="49.8624068" lon="14.8088008"><ele>356.0</ele><time>2026-04-06T12:12:22.955Z</time></trkpt><trkpt lat="49.8624932" lon="14.8087338"><ele>356.0</ele><time>2026-04-06T12:12:23.955Z</time></trkpt><trkpt lat="49.8625859" lon="14.8086638"><ele>356.0</ele><time>2026-04-06T12:12:24.956Z</time></trkpt><trkpt lat="49.8626982" lon="14.8086066"><ele>354.0</ele><time>2026-04-06T12:12:25.955Z</time></trkpt><trkpt lat="49.8628336" lon="14.8085551"><ele>352.0</ele><time>2026-04-06T12:12:26.955Z</time></trkpt><trkpt lat="49.8629984" lon="14.8084951"><ele>350.0</ele><time>2026-04-06T12:12:27.955Z</time></trkpt><trkpt lat="49.8631647" lon="14.8084026"><ele>350.0</ele><time>2026-04-06T12:12:28.956Z</time></trkpt><trkpt lat="49.8632958" lon="14.808273"><ele>350.0</ele><time>2026-04-06T12:12:29.956Z</time></trkpt><trkpt lat="49.8634289" lon="14.8080985"><ele>350.0</ele><time>2026-04-06T12:12:30.955Z</time></trkpt><trkpt lat="49.8635603" lon="14.8079066"><ele>347.6666666666667</ele><time>2026-04-06T12:12:31.956Z</time></trkpt><trkpt lat="49.8636994" lon="14.8077303"><ele>345.3333333333333</ele><time>2026-04-06T12:12:32.956Z</time></trkpt><trkpt lat="49.8638514" lon="14.8075892"><ele>343.0</ele><time>2026-04-06T12:12:33.955Z</time></trkpt><trkpt lat="49.8639888" lon="14.8074633"><ele>343.0</ele><time>2026-04-06T12:12:34.956Z</time></trkpt><trkpt lat="49.8641599" lon="14.8073694"><ele>343.0</ele><time>2026-04-06T12:12:35.956Z</time></trkpt><trkpt lat="49.8643441" lon="14.807276"><ele>343.0</ele><time>2026-04-06T12:12:36.955Z</time></trkpt><trkpt lat="49.8645262" lon="14.8072207"><ele>343.3333333333333</ele><time>2026-04-06T12:12:37.955Z</time></trkpt><trkpt lat="49.8647167" lon="14.8071686"><ele>343.6666666666667</ele><time>2026-04-06T12:12:38.955Z</time></trkpt><trkpt lat="49.8649127" lon="14.8071205"><ele>344.0</ele><time>2026-04-06T12:12:39.955Z</time></trkpt><trkpt lat="49.8651154" lon="14.8070671"><ele>342.0</ele><time>2026-04-06T12:12:40.956Z</time></trkpt><trkpt lat="49.8653216" lon="14.8070125"><ele>340.0</ele><time>2026-04-06T12:12:41.955Z</time></trkpt><trkpt lat="49.8655426" lon="14.8069523"><ele>338.0</ele><time>2026-04-06T12:12:42.955Z</time></trkpt><trkpt lat="49.8657248" lon="14.8069143"><ele>338.0</ele><time>2026-04-06T12:12:43.955Z</time></trkpt><trkpt lat="49.8658801" lon="14.8069039"><ele>338.0</ele><time>2026-04-06T12:12:44.955Z</time></trkpt><trkpt lat="49.8660001" lon="14.8069039"><ele>338.0</ele><time>2026-04-06T12:12:45.956Z</time></trkpt><trkpt lat="49.8660964" lon="14.8069321"><ele>338.0</ele><time>2026-04-06T12:12:46.955Z</time></trkpt><trkpt lat="49.8661782" lon="14.806995"><ele>335.5</ele><time>2026-04-06T12:12:47.955Z</time></trkpt><trkpt lat="49.8662894" lon="14.8071386"><ele>333.0</ele><time>2026-04-06T12:12:48.956Z</time></trkpt><trkpt lat="49.8663582" lon="14.8073013"><ele>330.5</ele><time>2026-04-06T12:12:49.955Z</time></trkpt><trkpt lat="49.8664008" lon="14.8074587"><ele>328.0</ele><time>2026-04-06T12:12:50.956Z</time></trkpt><trkpt lat="49.8664302" lon="14.8076314"><ele>326.3333333333333</ele><time>2026-04-06T12:12:51.955Z</time></trkpt><trkpt lat="49.8664491" lon="14.8078557"><ele>324.6666666666667</ele><time>2026-04-06T12:12:52.955Z</time></trkpt><trkpt lat="49.8664921" lon="14.8080933"><ele>323.0</ele><time>2026-04-06T12:12:53.955Z</time></trkpt><trkpt lat="49.8665224" lon="14.8083139"><ele>322.25</ele><time>2026-04-06T12:12:54.955Z</time></trkpt><trkpt lat="49.8665635" lon="14.8085114"><ele>321.5</ele><time>2026-04-06T12:12:55.955Z</time></trkpt><trkpt lat="49.8666075" lon="14.8086859"><ele>320.75</ele><time>2026-04-06T12:12:56.956Z</time></trkpt><trkpt lat="49.8666549" lon="14.8088499"><ele>320.0</ele><time>2026-04-06T12:12:57.955Z</time></trkpt><trkpt lat="49.8666917" lon="14.8090065"><ele>320.0</ele><time>2026-04-06T12:12:58.955Z</time></trkpt><trkpt lat="49.8667429" lon="14.809138"><ele>320.0</ele><time>2026-04-06T12:12:59.955Z</time></trkpt><trkpt lat="49.8667924" lon="14.8092061"><ele>320.0</ele><time>2026-04-06T12:13:00.955Z</time></trkpt><trkpt lat="49.8668927" lon="14.8092588"><ele>320.0</ele><time>2026-04-06T12:13:02.956Z</time></trkpt><trkpt lat="49.8669869" lon="14.8093263"><ele>320.0</ele><time>2026-04-06T12:13:04.955Z</time></trkpt><trkpt lat="49.8670587" lon="14.8093115"><ele>320.0</ele><time>2026-04-06T12:13:06.955Z</time></trkpt><trkpt lat="49.8671864" lon="14.8092945"><ele>317.5</ele><time>2026-04-06T12:13:08.956Z</time></trkpt><trkpt lat="49.8672659" lon="14.8092907"><ele>315.0</ele><time>2026-04-06T12:13:09.955Z</time></trkpt><trkpt lat="49.8673361" lon="14.8092827"><ele>312.5</ele><time>2026-04-06T12:13:10.955Z</time></trkpt><trkpt lat="49.8674008" lon="14.8092702"><ele>310.0</ele><time>2026-04-06T12:13:11.956Z</time></trkpt><trkpt lat="49.8675157" lon="14.8092334"><ele>307.5</ele><time>2026-04-06T12:13:13.955Z</time></trkpt><trkpt lat="49.8675871" lon="14.8092018"><ele>305.0</ele><time>2026-04-06T12:13:14.956Z</time></trkpt><trkpt lat="49.8676814" lon="14.8091561"><ele>305.0</ele><time>2026-04-06T12:13:15.955Z</time></trkpt><trkpt lat="49.8678052" lon="14.8090807"><ele>305.0</ele><time>2026-04-06T12:13:16.955Z</time></trkpt><trkpt lat="49.8679476" lon="14.8090064"><ele>305.0</ele><time>2026-04-06T12:13:17.955Z</time></trkpt><trkpt lat="49.8680978" lon="14.8089331"><ele>305.0</ele><time>2026-04-06T12:13:18.956Z</time></trkpt><trkpt lat="49.8682348" lon="14.8088603"><ele>305.0</ele><time>2026-04-06T12:13:19.956Z</time></trkpt><trkpt lat="49.8683665" lon="14.8087797"><ele>305.0</ele><time>2026-04-06T12:13:20.955Z</time></trkpt><trkpt lat="49.8684829" lon="14.8086873"><ele>305.0</ele><time>2026-04-06T12:13:21.955Z</time></trkpt><trkpt lat="49.8685876" lon="14.8085807"><ele>305.0</ele><time>2026-04-06T12:13:22.955Z</time></trkpt><trkpt lat="49.8686867" lon="14.8084773"><ele>301.5</ele><time>2026-04-06T12:13:23.956Z</time></trkpt><trkpt lat="49.8687893" lon="14.8084008"><ele>298.0</ele><time>2026-04-06T12:13:24.956Z</time></trkpt><trkpt lat="49.868907" lon="14.8083678"><ele>294.5</ele><time>2026-04-06T12:13:25.955Z</time></trkpt><trkpt lat="49.8690424" lon="14.8083435"><ele>291.0</ele><time>2026-04-06T12:13:26.956Z</time></trkpt><trkpt lat="49.8692066" lon="14.8082911"><ele>290.3333333333333</ele><time>2026-04-06T12:13:27.955Z</time></trkpt><trkpt lat="49.8693798" lon="14.8082163"><ele>289.66666666666663</ele><time>2026-04-06T12:13:28.955Z</time></trkpt><trkpt lat="49.8695485" lon="14.8081301"><ele>289.0</ele><time>2026-04-06T12:13:29.955Z</time></trkpt><trkpt lat="49.8697132" lon="14.8080544"><ele>289.0</ele><time>2026-04-06T12:13:30.955Z</time></trkpt><trkpt lat="49.869866" lon="14.8079877"><ele>289.0</ele><time>2026-04-06T12:13:31.956Z</time></trkpt><trkpt lat="49.8700038" lon="14.8079206"><ele>289.0</ele><time>2026-04-06T12:13:32.956Z</time></trkpt><trkpt lat="49.8701281" lon="14.8078476"><ele>289.0</ele><time>2026-04-06T12:13:33.955Z</time></trkpt><trkpt lat="49.8702275" lon="14.8077747"><ele>287.4</ele><time>2026-04-06T12:13:34.956Z</time></trkpt><trkpt lat="49.8702774" lon="14.8076844"><ele>285.79999999999995</ele><time>2026-04-06T12:13:35.956Z</time></trkpt><trkpt lat="49.8702964" lon="14.8075583"><ele>284.20000000000005</ele><time>2026-04-06T12:13:36.955Z</time></trkpt><trkpt lat="49.8702809" lon="14.8074199"><ele>282.6</ele><time>2026-04-06T12:13:37.956Z</time></trkpt><trkpt lat="49.8702319" lon="14.8072757"><ele>281.0</ele><time>2026-04-06T12:13:38.955Z</time></trkpt><trkpt lat="49.870167" lon="14.8071062"><ele>282.6</ele><time>2026-04-06T12:13:39.956Z</time></trkpt><trkpt lat="49.8701002" lon="14.8069189"><ele>284.20000000000005</ele><time>2026-04-06T12:13:40.955Z</time></trkpt><trkpt lat="49.8700391" lon="14.8067606"><ele>285.79999999999995</ele><time>2026-04-06T12:13:41.955Z</time></trkpt><trkpt lat="49.8699873" lon="14.8066312"><ele>287.4</ele><time>2026-04-06T12:13:42.955Z</time></trkpt><trkpt lat="49.8699361" lon="14.8065213"><ele>289.0</ele><time>2026-04-06T12:13:43.955Z</time></trkpt><trkpt lat="49.8698873" lon="14.8063781"><ele>289.25</ele><time>2026-04-06T12:13:44.956Z</time></trkpt><trkpt lat="49.8698466" lon="14.8061889"><ele>289.5</ele><time>2026-04-06T12:13:45.955Z</time></trkpt><trkpt lat="49.8698104" lon="14.8060038"><ele>289.75</ele><time>2026-04-06T12:13:46.956Z</time></trkpt><trkpt lat="49.8697756" lon="14.8058378"><ele>290.0</ele><time>2026-04-06T12:13:47.955Z</time></trkpt><trkpt lat="49.8697392" lon="14.8056935"><ele>288.6</ele><time>2026-04-06T12:13:48.955Z</time></trkpt><trkpt lat="49.869706" lon="14.8055612"><ele>287.2</ele><time>2026-04-06T12:13:49.955Z</time></trkpt><trkpt lat="49.8697046" lon="14.8054288"><ele>285.8</ele><time>2026-04-06T12:13:50.955Z</time></trkpt><trkpt lat="49.8697351" lon="14.8052928"><ele>284.4</ele><time>2026-04-06T12:13:51.955Z</time></trkpt><trkpt lat="49.8698061" lon="14.8051709"><ele>283.0</ele><time>2026-04-06T12:13:52.955Z</time></trkpt><trkpt lat="49.8699013" lon="14.8050339"><ele>281.66666666666663</ele><time>2026-04-06T12:13:53.955Z</time></trkpt><trkpt lat="49.8700155" lon="14.8048785"><ele>280.3333333333333</ele><time>2026-04-06T12:13:54.955Z</time></trkpt><trkpt lat="49.870151" lon="14.8047002"><ele>279.0</ele><time>2026-04-06T12:13:55.956Z</time></trkpt><trkpt lat="49.8702683" lon="14.8045345"><ele>279.0</ele><time>2026-04-06T12:13:56.956Z</time></trkpt><trkpt lat="49.8703904" lon="14.8043905"><ele>279.0</ele><time>2026-04-06T12:13:57.956Z</time></trkpt><trkpt lat="49.8705226" lon="14.8042501"><ele>279.0</ele><time>2026-04-06T12:13:58.956Z</time></trkpt><trkpt lat="49.8706736" lon="14.8041156"><ele>280.3333333333333</ele><time>2026-04-06T12:13:59.956Z</time></trkpt><trkpt lat="49.8708499" lon="14.8040209"><ele>281.66666666666663</ele><time>2026-04-06T12:14:00.956Z</time></trkpt><trkpt lat="49.8710119" lon="14.8039353"><ele>283.0</ele><time>2026-04-06T12:14:01.955Z</time></trkpt><trkpt lat="49.8711629" lon="14.8038682"><ele>284.25</ele><time>2026-04-06T12:14:02.955Z</time></trkpt><trkpt lat="49.8712961" lon="14.8038029"><ele>285.5</ele><time>2026-04-06T12:14:03.955Z</time></trkpt><trkpt lat="49.871419" lon="14.8037324"><ele>286.75</ele><time>2026-04-06T12:14:04.955Z</time></trkpt><trkpt lat="49.871554" lon="14.8036933"><ele>288.0</ele><time>2026-04-06T12:14:05.955Z</time></trkpt><trkpt lat="49.871687" lon="14.8036692"><ele>289.75</ele><time>2026-04-06T12:14:06.956Z</time></trkpt><trkpt lat="49.8718123" lon="14.8036578"><ele>291.5</ele><time>2026-04-06T12:14:07.957Z</time></trkpt><trkpt lat="49.871935" lon="14.8036377"><ele>293.25</ele><time>2026-04-06T12:14:08.957Z</time></trkpt><trkpt lat="49.8720577" lon="14.803596"><ele>295.0</ele><time>2026-04-06T12:14:09.956Z</time></trkpt><trkpt lat="49.8721649" lon="14.8035308"><ele>294.6</ele><time>2026-04-06T12:14:10.957Z</time></trkpt><trkpt lat="49.872261" lon="14.8034511"><ele>294.2</ele><time>2026-04-06T12:14:11.956Z</time></trkpt><trkpt lat="49.8723381" lon="14.8033587"><ele>293.8</ele><time>2026-04-06T12:14:12.956Z</time></trkpt><trkpt lat="49.8724048" lon="14.8032502"><ele>293.4</ele><time>2026-04-06T12:14:13.956Z</time></trkpt><trkpt lat="49.8724626" lon="14.8031302"><ele>293.0</ele><time>2026-04-06T12:14:14.957Z</time></trkpt><trkpt lat="49.8725141" lon="14.8030043"><ele>293.0</ele><time>2026-04-06T12:14:15.957Z</time></trkpt><trkpt lat="49.8725627" lon="14.8028899"><ele>293.0</ele><time>2026-04-06T12:14:16.956Z</time></trkpt><trkpt lat="49.8726034" lon="14.8027686"><ele>293.0</ele><time>2026-04-06T12:14:17.956Z</time></trkpt><trkpt lat="49.8726542" lon="14.8026493"><ele>293.0</ele><time>2026-04-06T12:14:18.957Z</time></trkpt><trkpt lat="49.8727037" lon="14.802531"><ele>293.0</ele><time>2026-04-06T12:14:19.957Z</time></trkpt><trkpt lat="49.8727528" lon="14.8024014"><ele>293.4</ele><time>2026-04-06T12:14:20.956Z</time></trkpt><trkpt lat="49.8727985" lon="14.8022644"><ele>293.8</ele><time>2026-04-06T12:14:21.956Z</time></trkpt><trkpt lat="49.8728316" lon="14.8021223"><ele>294.2</ele><time>2026-04-06T12:14:22.957Z</time></trkpt><trkpt lat="49.8728397" lon="14.8019739"><ele>294.6</ele><time>2026-04-06T12:14:23.956Z</time></trkpt><trkpt lat="49.8728069" lon="14.8018421"><ele>295.0</ele><time>2026-04-06T12:14:24.957Z</time></trkpt><trkpt lat="49.8727575" lon="14.8016991"><ele>295.0</ele><time>2026-04-06T12:14:25.957Z</time></trkpt><trkpt lat="49.8727176" lon="14.8015236"><ele>295.0</ele><time>2026-04-06T12:14:26.956Z</time></trkpt><trkpt lat="49.8726835" lon="14.8013184"><ele>295.0</ele><time>2026-04-06T12:14:27.956Z</time></trkpt><trkpt lat="49.8726455" lon="14.8010773"><ele>295.0</ele><time>2026-04-06T12:14:28.957Z</time></trkpt><trkpt lat="49.8726002" lon="14.8008488"><ele>294.25</ele><time>2026-04-06T12:14:29.956Z</time></trkpt><trkpt lat="49.8725581" lon="14.8006382"><ele>293.5</ele><time>2026-04-06T12:14:30.956Z</time></trkpt><trkpt lat="49.8725223" lon="14.8004377"><ele>292.75</ele><time>2026-04-06T12:14:31.956Z</time></trkpt><trkpt lat="49.8725006" lon="14.8002272"><ele>292.0</ele><time>2026-04-06T12:14:32.957Z</time></trkpt><trkpt lat="49.8725022" lon="14.7999928"><ele>292.0</ele><time>2026-04-06T12:14:33.956Z</time></trkpt><trkpt lat="49.8725132" lon="14.7997295"><ele>292.0</ele><time>2026-04-06T12:14:34.957Z</time></trkpt><trkpt lat="49.8725238" lon="14.7994697"><ele>292.0</ele><time>2026-04-06T12:14:35.956Z</time></trkpt><trkpt lat="49.8725372" lon="14.7992312"><ele>292.66666666666663</ele><time>2026-04-06T12:14:36.956Z</time></trkpt><trkpt lat="49.8725581" lon="14.7989935"><ele>293.3333333333333</ele><time>2026-04-06T12:14:37.956Z</time></trkpt><trkpt lat="49.8725831" lon="14.7987507"><ele>294.0</ele><time>2026-04-06T12:14:38.956Z</time></trkpt><trkpt lat="49.8726102" lon="14.7985062"><ele>296.3333333333333</ele><time>2026-04-06T12:14:39.957Z</time></trkpt><trkpt lat="49.872629" lon="14.7982566"><ele>298.66666666666663</ele><time>2026-04-06T12:14:40.957Z</time></trkpt><trkpt lat="49.87263" lon="14.797997"><ele>301.0</ele><time>2026-04-06T12:14:41.956Z</time></trkpt><trkpt lat="49.8726252" lon="14.7977236"><ele>300.66666666666663</ele><time>2026-04-06T12:14:42.957Z</time></trkpt><trkpt lat="49.8726286" lon="14.797448"><ele>300.3333333333333</ele><time>2026-04-06T12:14:43.957Z</time></trkpt><trkpt lat="49.8726281" lon="14.7971901"><ele>300.0</ele><time>2026-04-06T12:14:44.956Z</time></trkpt><trkpt lat="49.8726205" lon="14.7969352"><ele>297.6666666666667</ele><time>2026-04-06T12:14:45.957Z</time></trkpt><trkpt lat="49.872605" lon="14.79671"><ele>295.33333333333337</ele><time>2026-04-06T12:14:46.956Z</time></trkpt><trkpt lat="49.8725809" lon="14.7964879"><ele>293.0</ele><time>2026-04-06T12:14:47.956Z</time></trkpt><trkpt lat="49.8725723" lon="14.7962281"><ele>292.33333333333337</ele><time>2026-04-06T12:14:48.956Z</time></trkpt><trkpt lat="49.8725452" lon="14.7959441"><ele>291.6666666666667</ele><time>2026-04-06T12:14:49.956Z</time></trkpt><trkpt lat="49.8725204" lon="14.7956766"><ele>291.0</ele><time>2026-04-06T12:14:50.956Z</time></trkpt><trkpt lat="49.8725" lon="14.7954275"><ele>291.0</ele><time>2026-04-06T12:14:51.956Z</time></trkpt><trkpt lat="49.8724788" lon="14.7951922"><ele>291.0</ele><time>2026-04-06T12:14:52.957Z</time></trkpt><trkpt lat="49.872461" lon="14.7949602"><ele>291.0</ele><time>2026-04-06T12:14:53.957Z</time></trkpt><trkpt lat="49.8724473" lon="14.7947267"><ele>290.75</ele><time>2026-04-06T12:14:54.957Z</time></trkpt><trkpt lat="49.8724287" lon="14.7945053"><ele>290.5</ele><time>2026-04-06T12:14:55.957Z</time></trkpt><trkpt lat="49.872415" lon="14.7942936"><ele>290.25</ele><time>2026-04-06T12:14:56.957Z</time></trkpt><trkpt lat="49.8723969" lon="14.7940729"><ele>290.0</ele><time>2026-04-06T12:14:57.956Z</time></trkpt><trkpt lat="49.872381" lon="14.7938522"><ele>289.6666666666667</ele><time>2026-04-06T12:14:58.957Z</time></trkpt><trkpt lat="49.8723859" lon="14.793618"><ele>289.3333333333333</ele><time>2026-04-06T12:14:59.957Z</time></trkpt><trkpt lat="49.8723981" lon="14.7933098"><ele>289.0</ele><time>2026-04-06T12:15:00.956Z</time></trkpt><trkpt lat="49.8724201" lon="14.7929938"><ele>289.0</ele><time>2026-04-06T12:15:01.957Z</time></trkpt><trkpt lat="49.8724323" lon="14.7927"><ele>289.0</ele><time>2026-04-06T12:15:02.956Z</time></trkpt><trkpt lat="49.8724447" lon="14.7924313"><ele>289.0</ele><time>2026-04-06T12:15:03.956Z</time></trkpt><trkpt lat="49.8724524" lon="14.7921593"><ele>289.0</ele><time>2026-04-06T12:15:04.957Z</time></trkpt><trkpt lat="49.8724678" lon="14.791875"><ele>289.0</ele><time>2026-04-06T12:15:05.956Z</time></trkpt><trkpt lat="49.8724928" lon="14.7915674"><ele>289.0</ele><time>2026-04-06T12:15:06.956Z</time></trkpt><trkpt lat="49.8725284" lon="14.7912585"><ele>287.66666666666663</ele><time>2026-04-06T12:15:07.956Z</time></trkpt><trkpt lat="49.8725615" lon="14.7909539"><ele>286.3333333333333</ele><time>2026-04-06T12:15:08.957Z</time></trkpt><trkpt lat="49.8725785" lon="14.7906667"><ele>285.0</ele><time>2026-04-06T12:15:09.957Z</time></trkpt><trkpt lat="49.8725927" lon="14.7903961"><ele>285.0</ele><time>2026-04-06T12:15:10.956Z</time></trkpt><trkpt lat="49.8725991" lon="14.7901344"><ele>285.0</ele><time>2026-04-06T12:15:11.956Z</time></trkpt><trkpt lat="49.872609" lon="14.7898832"><ele>285.0</ele><time>2026-04-06T12:15:12.956Z</time></trkpt><trkpt lat="49.8726155" lon="14.789657"><ele>285.0</ele><time>2026-04-06T12:15:13.957Z</time></trkpt><trkpt lat="49.8726041" lon="14.7894487"><ele>285.0</ele><time>2026-04-06T12:15:14.956Z</time></trkpt><trkpt lat="49.8726023" lon="14.7892257"><ele>285.0</ele><time>2026-04-06T12:15:15.957Z</time></trkpt><trkpt lat="49.8726154" lon="14.7889644"><ele>285.0</ele><time>2026-04-06T12:15:16.956Z</time></trkpt><trkpt lat="49.8726397" lon="14.7886866"><ele>287.0</ele><time>2026-04-06T12:15:17.956Z</time></trkpt><trkpt lat="49.8726568" lon="14.7883909"><ele>289.0</ele><time>2026-04-06T12:15:18.957Z</time></trkpt><trkpt lat="49.8726818" lon="14.7881079"><ele>291.0</ele><time>2026-04-06T12:15:19.957Z</time></trkpt><trkpt lat="49.8727143" lon="14.7878054"><ele>290.3333333333333</ele><time>2026-04-06T12:15:20.957Z</time></trkpt><trkpt lat="49.8727554" lon="14.7875065"><ele>289.66666666666663</ele><time>2026-04-06T12:15:21.956Z</time></trkpt><trkpt lat="49.8728127" lon="14.7872121"><ele>289.0</ele><time>2026-04-06T12:15:22.957Z</time></trkpt><trkpt lat="49.8728795" lon="14.7869326"><ele>288.0</ele><time>2026-04-06T12:15:23.957Z</time></trkpt><trkpt lat="49.872949" lon="14.7866633"><ele>287.0</ele><time>2026-04-06T12:15:24.957Z</time></trkpt><trkpt lat="49.8730281" lon="14.7864102"><ele>286.0</ele><time>2026-04-06T12:15:25.956Z</time></trkpt><trkpt lat="49.8731273" lon="14.7861751"><ele>285.3333333333333</ele><time>2026-04-06T12:15:26.956Z</time></trkpt><trkpt lat="49.8732345" lon="14.7859245"><ele>284.6666666666667</ele><time>2026-04-06T12:15:27.957Z</time></trkpt><trkpt lat="49.8733489" lon="14.785656"><ele>284.0</ele><time>2026-04-06T12:15:28.957Z</time></trkpt><trkpt lat="49.8734659" lon="14.7853639"><ele>292.6666666666667</ele><time>2026-04-06T12:15:29.956Z</time></trkpt><trkpt lat="49.8735729" lon="14.7850646"><ele>301.3333333333333</ele><time>2026-04-06T12:15:30.957Z</time></trkpt><trkpt lat="49.8736587" lon="14.7847636"><ele>310.0</ele><time>2026-04-06T12:15:31.956Z</time></trkpt><trkpt lat="49.8737212" lon="14.7844449"><ele>310.0</ele><time>2026-04-06T12:15:32.957Z</time></trkpt><trkpt lat="49.8737758" lon="14.7841075"><ele>310.0</ele><time>2026-04-06T12:15:33.956Z</time></trkpt><trkpt lat="49.873835" lon="14.7837831"><ele>310.0</ele><time>2026-04-06T12:15:34.956Z</time></trkpt><trkpt lat="49.8739008" lon="14.7834715"><ele>307.0</ele><time>2026-04-06T12:15:35.957Z</time></trkpt><trkpt lat="49.8739472" lon="14.7831714"><ele>304.0</ele><time>2026-04-06T12:15:36.957Z</time></trkpt><trkpt lat="49.8739959" lon="14.7828951"><ele>301.0</ele><time>2026-04-06T12:15:37.957Z</time></trkpt><trkpt lat="49.8740433" lon="14.7826424"><ele>298.66666666666663</ele><time>2026-04-06T12:15:38.957Z</time></trkpt><trkpt lat="49.8740854" lon="14.7824"><ele>296.3333333333333</ele><time>2026-04-06T12:15:39.956Z</time></trkpt><trkpt lat="49.8741309" lon="14.7821675"><ele>294.0</ele><time>2026-04-06T12:15:40.957Z</time></trkpt><trkpt lat="49.8741665" lon="14.7819457"><ele>292.75</ele><time>2026-04-06T12:15:41.956Z</time></trkpt><trkpt lat="49.8741985" lon="14.7817255"><ele>291.5</ele><time>2026-04-06T12:15:42.956Z</time></trkpt><trkpt lat="49.8742241" lon="14.7815053"><ele>290.25</ele><time>2026-04-06T12:15:43.957Z</time></trkpt><trkpt lat="49.8742512" lon="14.7812715"><ele>289.0</ele><time>2026-04-06T12:15:44.956Z</time></trkpt><trkpt lat="49.8742792" lon="14.7810116"><ele>299.3333333333333</ele><time>2026-04-06T12:15:45.956Z</time></trkpt><trkpt lat="49.8743056" lon="14.7807379"><ele>309.6666666666667</ele><time>2026-04-06T12:15:46.956Z</time></trkpt><trkpt lat="49.8743376" lon="14.7804705"><ele>320.0</ele><time>2026-04-06T12:15:47.956Z</time></trkpt><trkpt lat="49.8743687" lon="14.7802061"><ele>315.33333333333337</ele><time>2026-04-06T12:15:48.957Z</time></trkpt><trkpt lat="49.8743979" lon="14.7799521"><ele>310.6666666666667</ele><time>2026-04-06T12:15:49.956Z</time></trkpt><trkpt lat="49.8744369" lon="14.7797167"><ele>306.0</ele><time>2026-04-06T12:15:50.956Z</time></trkpt><trkpt lat="49.8744755" lon="14.7795094"><ele>302.5</ele><time>2026-04-06T12:15:51.957Z</time></trkpt><trkpt lat="49.8745102" lon="14.7793297"><ele>299.0</ele><time>2026-04-06T12:15:52.957Z</time></trkpt><trkpt lat="49.874526" lon="14.7791561"><ele>295.5</ele><time>2026-04-06T12:15:53.956Z</time></trkpt><trkpt lat="49.8745362" lon="14.7789602"><ele>292.0</ele><time>2026-04-06T12:15:54.956Z</time></trkpt><trkpt lat="49.8745414" lon="14.7787351"><ele>294.3333333333333</ele><time>2026-04-06T12:15:55.956Z</time></trkpt><trkpt lat="49.8745462" lon="14.7784756"><ele>296.6666666666667</ele><time>2026-04-06T12:15:56.957Z</time></trkpt><trkpt lat="49.8745515" lon="14.7781716"><ele>299.0</ele><time>2026-04-06T12:15:57.956Z</time></trkpt><trkpt lat="49.8745382" lon="14.7778835"><ele>302.0</ele><time>2026-04-06T12:15:58.957Z</time></trkpt><trkpt lat="49.8745353" lon="14.777621"><ele>305.0</ele><time>2026-04-06T12:15:59.957Z</time></trkpt><trkpt lat="49.8745256" lon="14.7773672"><ele>308.0</ele><time>2026-04-06T12:16:00.956Z</time></trkpt><trkpt lat="49.874515" lon="14.7771168"><ele>308.0</ele><time>2026-04-06T12:16:01.957Z</time></trkpt><trkpt lat="49.8745037" lon="14.7768544"><ele>308.0</ele><time>2026-04-06T12:16:02.956Z</time></trkpt><trkpt lat="49.874497" lon="14.7765796"><ele>308.0</ele><time>2026-04-06T12:16:03.956Z</time></trkpt><trkpt lat="49.8744923" lon="14.7762926"><ele>308.0</ele><time>2026-04-06T12:16:04.956Z</time></trkpt><trkpt lat="49.8744855" lon="14.7760149"><ele>308.0</ele><time>2026-04-06T12:16:05.956Z</time></trkpt><trkpt lat="49.8744802" lon="14.7757372"><ele>308.0</ele><time>2026-04-06T12:16:06.956Z</time></trkpt><trkpt lat="49.8744774" lon="14.775462"><ele>308.0</ele><time>2026-04-06T12:16:07.956Z</time></trkpt><trkpt lat="49.8744726" lon="14.7751963"><ele>308.0</ele><time>2026-04-06T12:16:08.956Z</time></trkpt><trkpt lat="49.8744651" lon="14.7749589"><ele>308.0</ele><time>2026-04-06T12:16:09.957Z</time></trkpt><trkpt lat="49.8744561" lon="14.7747425"><ele>307.83333333333337</ele><time>2026-04-06T12:16:10.956Z</time></trkpt><trkpt lat="49.8744463" lon="14.7745689"><ele>307.6666666666667</ele><time>2026-04-06T12:16:11.957Z</time></trkpt><trkpt lat="49.8744381" lon="14.774432"><ele>307.5</ele><time>2026-04-06T12:16:12.957Z</time></trkpt><trkpt lat="49.8744216" lon="14.7743089"><ele>307.3333333333333</ele><time>2026-04-06T12:16:13.956Z</time></trkpt><trkpt lat="49.874398" lon="14.7741867"><ele>307.16666666666663</ele><time>2026-04-06T12:16:14.957Z</time></trkpt><trkpt lat="49.8743781" lon="14.774075"><ele>307.0</ele><time>2026-04-06T12:16:15.956Z</time></trkpt><trkpt lat="49.874361" lon="14.7739755"><ele>307.0</ele><time>2026-04-06T12:16:16.957Z</time></trkpt><trkpt lat="49.8743345" lon="14.7738613"><ele>307.0</ele><time>2026-04-06T12:16:17.957Z</time></trkpt><trkpt lat="49.8743134" lon="14.7736957"><ele>307.0</ele><time>2026-04-06T12:16:18.956Z</time></trkpt><trkpt lat="49.8742997" lon="14.7735161"><ele>307.0</ele><time>2026-04-06T12:16:19.957Z</time></trkpt><trkpt lat="49.8742768" lon="14.773301"><ele>307.0</ele><time>2026-04-06T12:16:20.956Z</time></trkpt><trkpt lat="49.8742577" lon="14.7730627"><ele>300.66666666666663</ele><time>2026-04-06T12:16:21.956Z</time></trkpt><trkpt lat="49.874235" lon="14.7728117"><ele>294.3333333333333</ele><time>2026-04-06T12:16:22.956Z</time></trkpt><trkpt lat="49.8742072" lon="14.7725596"><ele>288.0</ele><time>2026-04-06T12:16:23.957Z</time></trkpt><trkpt lat="49.874181" lon="14.7723029"><ele>288.0</ele><time>2026-04-06T12:16:24.956Z</time></trkpt><trkpt lat="49.8741542" lon="14.7720484"><ele>288.0</ele><time>2026-04-06T12:16:25.956Z</time></trkpt><trkpt lat="49.874126" lon="14.7718003"><ele>288.0</ele><time>2026-04-06T12:16:26.956Z</time></trkpt><trkpt lat="49.8740982" lon="14.7715591"><ele>289.3333333333333</ele><time>2026-04-06T12:16:27.957Z</time></trkpt><trkpt lat="49.8740723" lon="14.771322"><ele>290.66666666666663</ele><time>2026-04-06T12:16:28.956Z</time></trkpt><trkpt lat="49.8740457" lon="14.771085"><ele>292.0</ele><time>2026-04-06T12:16:29.956Z</time></trkpt><trkpt lat="49.8740238" lon="14.7708556"><ele>292.0</ele><time>2026-04-06T12:16:30.956Z</time></trkpt><trkpt lat="49.8740039" lon="14.7706364"><ele>292.0</ele><time>2026-04-06T12:16:31.956Z</time></trkpt><trkpt lat="49.8739847" lon="14.7704293"><ele>292.0</ele><time>2026-04-06T12:16:32.956Z</time></trkpt><trkpt lat="49.8739665" lon="14.7702321"><ele>292.0</ele><time>2026-04-06T12:16:33.956Z</time></trkpt><trkpt lat="49.8739429" lon="14.770032"><ele>292.0</ele><time>2026-04-06T12:16:34.956Z</time></trkpt><trkpt lat="49.8739201" lon="14.7698303"><ele>292.0</ele><time>2026-04-06T12:16:35.957Z</time></trkpt><trkpt lat="49.8738854" lon="14.7696321"><ele>292.0</ele><time>2026-04-06T12:16:36.956Z</time></trkpt><trkpt lat="49.8738349" lon="14.7694352"><ele>292.0</ele><time>2026-04-06T12:16:37.956Z</time></trkpt><trkpt lat="49.8737805" lon="14.7692307"><ele>291.3333333333333</ele><time>2026-04-06T12:16:38.957Z</time></trkpt><trkpt lat="49.8737337" lon="14.769012"><ele>290.6666666666667</ele><time>2026-04-06T12:16:39.957Z</time></trkpt><trkpt lat="49.873699" lon="14.7687716"><ele>290.0</ele><time>2026-04-06T12:16:40.957Z</time></trkpt><trkpt lat="49.8736769" lon="14.7685018"><ele>290.0</ele><time>2026-04-06T12:16:41.957Z</time></trkpt><trkpt lat="49.8736529" lon="14.7682071"><ele>290.0</ele><time>2026-04-06T12:16:42.956Z</time></trkpt><trkpt lat="49.8736472" lon="14.7678924"><ele>290.0</ele><time>2026-04-06T12:16:43.957Z</time></trkpt><trkpt lat="49.8736564" lon="14.7675959"><ele>290.0</ele><time>2026-04-06T12:16:44.956Z</time></trkpt><trkpt lat="49.8736558" lon="14.7673122"><ele>290.0</ele><time>2026-04-06T12:16:45.956Z</time></trkpt><trkpt lat="49.8736563" lon="14.7670588"><ele>290.0</ele><time>2026-04-06T12:16:46.956Z</time></trkpt><trkpt lat="49.8736514" lon="14.7668175"><ele>289.6666666666667</ele><time>2026-04-06T12:16:47.956Z</time></trkpt><trkpt lat="49.8736452" lon="14.7665705"><ele>289.3333333333333</ele><time>2026-04-06T12:16:48.957Z</time></trkpt><trkpt lat="49.8736313" lon="14.7663201"><ele>289.0</ele><time>2026-04-06T12:16:49.957Z</time></trkpt><trkpt lat="49.8736124" lon="14.7660839"><ele>288.75</ele><time>2026-04-06T12:16:50.957Z</time></trkpt><trkpt lat="49.8735823" lon="14.7658747"><ele>288.5</ele><time>2026-04-06T12:16:51.956Z</time></trkpt><trkpt lat="49.8735617" lon="14.7656765"><ele>288.25</ele><time>2026-04-06T12:16:52.957Z</time></trkpt><trkpt lat="49.8735446" lon="14.7654967"><ele>288.0</ele><time>2026-04-06T12:16:53.956Z</time></trkpt><trkpt lat="49.8735274" lon="14.7653308"><ele>287.8333333333333</ele><time>2026-04-06T12:16:54.956Z</time></trkpt><trkpt lat="49.8735116" lon="14.7651868"><ele>287.6666666666667</ele><time>2026-04-06T12:16:55.957Z</time></trkpt><trkpt lat="49.8734999" lon="14.7650578"><ele>287.5</ele><time>2026-04-06T12:16:56.957Z</time></trkpt><trkpt lat="49.8734958" lon="14.7649366"><ele>287.33333333333337</ele><time>2026-04-06T12:16:57.957Z</time></trkpt><trkpt lat="49.8735003" lon="14.7648189"><ele>287.1666666666667</ele><time>2026-04-06T12:16:58.957Z</time></trkpt><trkpt lat="49.8735084" lon="14.764704"><ele>287.0</ele><time>2026-04-06T12:16:59.957Z</time></trkpt><trkpt lat="49.8735314" lon="14.7645667"><ele>287.0</ele><time>2026-04-06T12:17:01.957Z</time></trkpt><trkpt lat="49.8736153" lon="14.7646336"><ele>287.0</ele><time>2026-04-06T12:17:04.956Z</time></trkpt><trkpt lat="49.8736168" lon="14.7647467"><ele>287.0</ele><time>2026-04-06T12:17:06.957Z</time></trkpt><trkpt lat="49.8736123" lon="14.7648643"><ele>287.0</ele><time>2026-04-06T12:17:08.956Z</time></trkpt><trkpt lat="49.8736454" lon="14.7649827"><ele>287.0</ele><time>2026-04-06T12:17:11.957Z</time></trkpt></trkseg><trkseg><trkpt lat="49.8734746" lon="14.7633545"><ele>296.0</ele><time>2026-04-06T12:44:19.994Z</time></trkpt><trkpt lat="49.8734403" lon="14.7631726"><ele>296.0</ele><time>2026-04-06T12:44:21.994Z</time></trkpt><trkpt lat="49.8734372" lon="14.7630349"><ele>296.0</ele><time>2026-04-06T12:44:22.993Z</time></trkpt><trkpt lat="49.8734317" lon="14.7628726"><ele>296.0</ele><time>2026-04-06T12:44:23.993Z</time></trkpt><trkpt lat="49.8734323" lon="14.7627047"><ele>296.0</ele><time>2026-04-06T12:44:24.994Z</time></trkpt><trkpt lat="49.8734357" lon="14.7625465"><ele>296.14285714285717</ele><time>2026-04-06T12:44:25.994Z</time></trkpt><trkpt lat="49.8734458" lon="14.7624131"><ele>296.2857142857143</ele><time>2026-04-06T12:44:26.994Z</time></trkpt><trkpt lat="49.8734531" lon="14.7623002"><ele>296.42857142857144</ele><time>2026-04-06T12:44:27.993Z</time></trkpt><trkpt lat="49.8734628" lon="14.7621986"><ele>296.57142857142856</ele><time>2026-04-06T12:44:28.994Z</time></trkpt><trkpt lat="49.8734709" lon="14.7620968"><ele>296.7142857142857</ele><time>2026-04-06T12:44:29.994Z</time></trkpt><trkpt lat="49.873479" lon="14.7619878"><ele>296.8571428571429</ele><time>2026-04-06T12:44:30.993Z</time></trkpt><trkpt lat="49.8734872" lon="14.761877"><ele>297.0</ele><time>2026-04-06T12:44:31.994Z</time></trkpt><trkpt lat="49.8734965" lon="14.7617677"><ele>296.42857142857144</ele><time>2026-04-06T12:44:32.993Z</time></trkpt><trkpt lat="49.8735079" lon="14.7616603"><ele>295.8571428571429</ele><time>2026-04-06T12:44:33.994Z</time></trkpt><trkpt lat="49.8735208" lon="14.7615584"><ele>295.2857142857143</ele><time>2026-04-06T12:44:34.993Z</time></trkpt><trkpt lat="49.8735333" lon="14.7614602"><ele>294.7142857142857</ele><time>2026-04-06T12:44:35.994Z</time></trkpt><trkpt lat="49.8735492" lon="14.7613626"><ele>294.1428571428571</ele><time>2026-04-06T12:44:36.994Z</time></trkpt><trkpt lat="49.8735672" lon="14.7612615"><ele>293.57142857142856</ele><time>2026-04-06T12:44:37.994Z</time></trkpt><trkpt lat="49.8735843" lon="14.7611612"><ele>293.0</ele><time>2026-04-06T12:44:38.994Z</time></trkpt><trkpt lat="49.8736023" lon="14.7610576"><ele>291.6</ele><time>2026-04-06T12:44:39.993Z</time></trkpt><trkpt lat="49.8736259" lon="14.7609479"><ele>290.20000000000005</ele><time>2026-04-06T12:44:40.994Z</time></trkpt><trkpt lat="49.873644" lon="14.7608208"><ele>288.8</ele><time>2026-04-06T12:44:41.993Z</time></trkpt><trkpt lat="49.8736588" lon="14.7606659"><ele>287.40000000000003</ele><time>2026-04-06T12:44:42.993Z</time></trkpt><trkpt lat="49.8736691" lon="14.7604961"><ele>286.0</ele><time>2026-04-06T12:44:43.993Z</time></trkpt><trkpt lat="49.8736871" lon="14.7603066"><ele>285.25</ele><time>2026-04-06T12:44:44.993Z</time></trkpt><trkpt lat="49.8737087" lon="14.7601239"><ele>284.5</ele><time>2026-04-06T12:44:45.994Z</time></trkpt><trkpt lat="49.8737291" lon="14.7599468"><ele>283.75</ele><time>2026-04-06T12:44:46.993Z</time></trkpt><trkpt lat="49.873743" lon="14.7597724"><ele>283.0</ele><time>2026-04-06T12:44:47.994Z</time></trkpt><trkpt lat="49.8737546" lon="14.7596107"><ele>283.0</ele><time>2026-04-06T12:44:48.994Z</time></trkpt><trkpt lat="49.8737581" lon="14.7594509"><ele>283.0</ele><time>2026-04-06T12:44:49.994Z</time></trkpt><trkpt lat="49.8737385" lon="14.7593005"><ele>283.0</ele><time>2026-04-06T12:44:50.994Z</time></trkpt><trkpt lat="49.8737086" lon="14.7591456"><ele>283.0</ele><time>2026-04-06T12:44:51.993Z</time></trkpt><trkpt lat="49.873704" lon="14.7589791"><ele>283.0</ele><time>2026-04-06T12:44:52.994Z</time></trkpt><trkpt lat="49.8737224" lon="14.7588046"><ele>283.0</ele><time>2026-04-06T12:44:53.993Z</time></trkpt><trkpt lat="49.8737543" lon="14.7586068"><ele>283.0</ele><time>2026-04-06T12:44:54.993Z</time></trkpt><trkpt lat="49.8738098" lon="14.7584042"><ele>283.0</ele><time>2026-04-06T12:44:55.993Z</time></trkpt><trkpt lat="49.8738729" lon="14.7582061"><ele>283.0</ele><time>2026-04-06T12:44:56.994Z</time></trkpt><trkpt lat="49.873945" lon="14.7580145"><ele>283.0</ele><time>2026-04-06T12:44:57.993Z</time></trkpt><trkpt lat="49.874025" lon="14.7578312"><ele>283.0</ele><time>2026-04-06T12:44:58.994Z</time></trkpt><trkpt lat="49.8741222" lon="14.7576889"><ele>283.0</ele><time>2026-04-06T12:44:59.994Z</time></trkpt><trkpt lat="49.8742334" lon="14.75753"><ele>283.0</ele><time>2026-04-06T12:45:00.993Z</time></trkpt><trkpt lat="49.8743572" lon="14.7573659"><ele>284.3333333333333</ele><time>2026-04-06T12:45:01.993Z</time></trkpt><trkpt lat="49.8744953" lon="14.7572216"><ele>285.6666666666667</ele><time>2026-04-06T12:45:02.993Z</time></trkpt><trkpt lat="49.8746318" lon="14.7570863"><ele>287.0</ele><time>2026-04-06T12:45:03.994Z</time></trkpt><trkpt lat="49.8747576" lon="14.7569607"><ele>286.75</ele><time>2026-04-06T12:45:04.994Z</time></trkpt><trkpt lat="49.8748734" lon="14.7568594"><ele>286.5</ele><time>2026-04-06T12:45:05.994Z</time></trkpt><trkpt lat="49.8750007" lon="14.7567637"><ele>286.25</ele><time>2026-04-06T12:45:06.993Z</time></trkpt><trkpt lat="49.8751392" lon="14.7566479"><ele>286.0</ele><time>2026-04-06T12:45:07.994Z</time></trkpt><trkpt lat="49.8752779" lon="14.7564942"><ele>286.75</ele><time>2026-04-06T12:45:08.994Z</time></trkpt><trkpt lat="49.8753932" lon="14.7563323"><ele>287.5</ele><time>2026-04-06T12:45:09.994Z</time></trkpt><trkpt lat="49.8755048" lon="14.7561914"><ele>288.25</ele><time>2026-04-06T12:45:10.994Z</time></trkpt><trkpt lat="49.8755866" lon="14.7560826"><ele>289.0</ele><time>2026-04-06T12:45:11.993Z</time></trkpt><trkpt lat="49.8756431" lon="14.7559991"><ele>289.0</ele><time>2026-04-06T12:45:12.993Z</time></trkpt><trkpt lat="49.8756789" lon="14.755911"><ele>289.0</ele><time>2026-04-06T12:45:13.993Z</time></trkpt><trkpt lat="49.8757256" lon="14.7557732"><ele>289.0</ele><time>2026-04-06T12:45:15.994Z</time></trkpt><trkpt lat="49.8757464" lon="14.7556717"><ele>289.0</ele><time>2026-04-06T12:45:18.994Z</time></trkpt><trkpt lat="49.8757871" lon="14.7555541"><ele>289.0</ele><time>2026-04-06T12:45:20.993Z</time></trkpt><trkpt lat="49.8758299" lon="14.7553804"><ele>289.0</ele><time>2026-04-06T12:45:22.993Z</time></trkpt><trkpt lat="49.8758518" lon="14.7552822"><ele>289.0</ele><time>2026-04-06T12:45:23.994Z</time></trkpt><trkpt lat="49.8758823" lon="14.755119"><ele>289.0</ele><time>2026-04-06T12:45:25.994Z</time></trkpt><trkpt lat="49.875914" lon="14.7550262"><ele>289.0</ele><time>2026-04-06T12:45:27.994Z</time></trkpt><trkpt lat="49.8758721" lon="14.7551313"><ele>289.0</ele><time>2026-04-06T12:45:53.994Z</time></trkpt><trkpt lat="49.875859" lon="14.7552319"><ele>289.0</ele><time>2026-04-06T12:45:54.993Z</time></trkpt><trkpt lat="49.8758305" lon="14.7553559"><ele>289.0</ele><time>2026-04-06T12:45:55.994Z</time></trkpt><trkpt lat="49.875799" lon="14.7554866"><ele>289.0</ele><time>2026-04-06T12:45:56.993Z</time></trkpt><trkpt lat="49.8757719" lon="14.7556166"><ele>289.0</ele><time>2026-04-06T12:45:57.993Z</time></trkpt><trkpt lat="49.8757507" lon="14.7557188"><ele>289.0</ele><time>2026-04-06T12:45:58.993Z</time></trkpt><trkpt lat="49.8757137" lon="14.7558652"><ele>289.0</ele><time>2026-04-06T12:46:00.994Z</time></trkpt><trkpt lat="49.8757426" lon="14.7559816"><ele>289.0</ele><time>2026-04-06T12:46:03.994Z</time></trkpt><trkpt lat="49.8758675" lon="14.7560435"><ele>291.8333333333333</ele><time>2026-04-06T12:46:06.993Z</time></trkpt><trkpt lat="49.8759404" lon="14.756068"><ele>294.66666666666663</ele><time>2026-04-06T12:46:07.993Z</time></trkpt><trkpt lat="49.8760156" lon="14.7560721"><ele>297.5</ele><time>2026-04-06T12:46:08.994Z</time></trkpt><trkpt lat="49.8760888" lon="14.756032"><ele>300.3333333333333</ele><time>2026-04-06T12:46:09.994Z</time></trkpt><trkpt lat="49.8761567" lon="14.7559478"><ele>303.1666666666667</ele><time>2026-04-06T12:46:10.994Z</time></trkpt><trkpt lat="49.8762106" lon="14.7558248"><ele>306.0</ele><time>2026-04-06T12:46:11.994Z</time></trkpt><trkpt lat="49.8762537" lon="14.7557047"><ele>306.0</ele><time>2026-04-06T12:46:12.994Z</time></trkpt><trkpt lat="49.8762882" lon="14.7555981"><ele>306.0</ele><time>2026-04-06T12:46:13.994Z</time></trkpt><trkpt lat="49.8763261" lon="14.7555057"><ele>306.0</ele><time>2026-04-06T12:46:14.994Z</time></trkpt><trkpt lat="49.8763699" lon="14.7554172"><ele>306.0</ele><time>2026-04-06T12:46:15.993Z</time></trkpt><trkpt lat="49.8764201" lon="14.7553133"><ele>306.0</ele><time>2026-04-06T12:46:16.993Z</time></trkpt><trkpt lat="49.8764712" lon="14.7551884"><ele>306.0</ele><time>2026-04-06T12:46:17.994Z</time></trkpt><trkpt lat="49.8765235" lon="14.7550563"><ele>304.40000000000003</ele><time>2026-04-06T12:46:18.993Z</time></trkpt><trkpt lat="49.8765882" lon="14.7549425"><ele>302.8</ele><time>2026-04-06T12:46:19.994Z</time></trkpt><trkpt lat="49.8766668" lon="14.7548258"><ele>301.20000000000005</ele><time>2026-04-06T12:46:20.993Z</time></trkpt><trkpt lat="49.8767509" lon="14.7547093"><ele>299.6</ele><time>2026-04-06T12:46:21.993Z</time></trkpt><trkpt lat="49.8768351" lon="14.7545823"><ele>298.0</ele><time>2026-04-06T12:46:22.994Z</time></trkpt><trkpt lat="49.8769416" lon="14.7544729"><ele>298.5</ele><time>2026-04-06T12:46:23.994Z</time></trkpt><trkpt lat="49.8770666" lon="14.7543649"><ele>299.0</ele><time>2026-04-06T12:46:24.994Z</time></trkpt><trkpt lat="49.8771873" lon="14.7542659"><ele>299.5</ele><time>2026-04-06T12:46:25.994Z</time></trkpt><trkpt lat="49.8772945" lon="14.7541806"><ele>300.0</ele><time>2026-04-06T12:46:26.994Z</time></trkpt><trkpt lat="49.8773813" lon="14.7541199"><ele>300.0</ele><time>2026-04-06T12:46:27.993Z</time></trkpt><trkpt lat="49.8774491" lon="14.7540668"><ele>300.0</ele><time>2026-04-06T12:46:28.994Z</time></trkpt><trkpt lat="49.877509" lon="14.7539955"><ele>300.0</ele><time>2026-04-06T12:46:29.993Z</time></trkpt><trkpt lat="49.8775823" lon="14.7539396"><ele>300.0</ele><time>2026-04-06T12:46:30.994Z</time></trkpt><trkpt lat="49.8776762" lon="14.7538735"><ele>300.0</ele><time>2026-04-06T12:46:31.994Z</time></trkpt><trkpt lat="49.8777872" lon="14.7538028"><ele>298.75</ele><time>2026-04-06T12:46:32.993Z</time></trkpt><trkpt lat="49.8779042" lon="14.7537339"><ele>297.5</ele><time>2026-04-06T12:46:33.994Z</time></trkpt><trkpt lat="49.8780267" lon="14.7536583"><ele>296.25</ele><time>2026-04-06T12:46:34.994Z</time></trkpt><trkpt lat="49.8781589" lon="14.7535753"><ele>295.0</ele><time>2026-04-06T12:46:35.994Z</time></trkpt><trkpt lat="49.8782885" lon="14.753485"><ele>295.0</ele><time>2026-04-06T12:46:36.994Z</time></trkpt><trkpt lat="49.8784088" lon="14.7533868"><ele>295.0</ele><time>2026-04-06T12:46:37.993Z</time></trkpt><trkpt lat="49.87853" lon="14.7532837"><ele>295.0</ele><time>2026-04-06T12:46:38.993Z</time></trkpt><trkpt lat="49.8786533" lon="14.7531737"><ele>295.0</ele><time>2026-04-06T12:46:39.994Z</time></trkpt><trkpt lat="49.8787799" lon="14.7530585"><ele>299.3333333333333</ele><time>2026-04-06T12:46:40.994Z</time></trkpt><trkpt lat="49.8789068" lon="14.7529438"><ele>303.6666666666667</ele><time>2026-04-06T12:46:41.993Z</time></trkpt><trkpt lat="49.8790388" lon="14.7528308"><ele>308.0</ele><time>2026-04-06T12:46:42.993Z</time></trkpt><trkpt lat="49.8791732" lon="14.7527196"><ele>309.0</ele><time>2026-04-06T12:46:43.993Z</time></trkpt><trkpt lat="49.8793162" lon="14.7526181"><ele>310.0</ele><time>2026-04-06T12:46:44.993Z</time></trkpt><trkpt lat="49.8794684" lon="14.7525222"><ele>311.0</ele><time>2026-04-06T12:46:45.993Z</time></trkpt><trkpt lat="49.8796197" lon="14.7524301"><ele>311.0</ele><time>2026-04-06T12:46:46.993Z</time></trkpt><trkpt lat="49.8797613" lon="14.7523383"><ele>311.0</ele><time>2026-04-06T12:46:47.994Z</time></trkpt><trkpt lat="49.8799005" lon="14.7522491"><ele>311.0</ele><time>2026-04-06T12:46:48.994Z</time></trkpt><trkpt lat="49.8800379" lon="14.7521594"><ele>308.75</ele><time>2026-04-06T12:46:49.993Z</time></trkpt><trkpt lat="49.8801573" lon="14.752079"><ele>306.5</ele><time>2026-04-06T12:46:50.993Z</time></trkpt><trkpt lat="49.8802568" lon="14.7519959"><ele>304.25</ele><time>2026-04-06T12:46:51.993Z</time></trkpt><trkpt lat="49.8803545" lon="14.751919"><ele>302.0</ele><time>2026-04-06T12:46:52.993Z</time></trkpt><trkpt lat="49.8804439" lon="14.7518327"><ele>302.0</ele><time>2026-04-06T12:46:53.993Z</time></trkpt><trkpt lat="49.8805236" lon="14.751756"><ele>302.0</ele><time>2026-04-06T12:46:54.993Z</time></trkpt><trkpt lat="49.8806028" lon="14.7516988"><ele>302.0</ele><time>2026-04-06T12:46:55.993Z</time></trkpt><trkpt lat="49.8806797" lon="14.7516494"><ele>302.0</ele><time>2026-04-06T12:46:56.993Z</time></trkpt><trkpt lat="49.8807608" lon="14.7516322"><ele>302.0</ele><time>2026-04-06T12:46:57.994Z</time></trkpt><trkpt lat="49.8808431" lon="14.7516351"><ele>302.0</ele><time>2026-04-06T12:46:58.994Z</time></trkpt><trkpt lat="49.8809193" lon="14.7516362"><ele>302.33333333333337</ele><time>2026-04-06T12:46:59.994Z</time></trkpt><trkpt lat="49.8809897" lon="14.7516168"><ele>302.6666666666667</ele><time>2026-04-06T12:47:00.993Z</time></trkpt><trkpt lat="49.8810561" lon="14.7514754"><ele>303.0</ele><time>2026-04-06T12:47:02.993Z</time></trkpt><trkpt lat="49.8810589" lon="14.7513582"><ele>303.3333333333333</ele><time>2026-04-06T12:47:03.993Z</time></trkpt><trkpt lat="49.8810485" lon="14.7512199"><ele>303.66666666666663</ele><time>2026-04-06T12:47:04.994Z</time></trkpt><trkpt lat="49.8810488" lon="14.7510668"><ele>304.0</ele><time>2026-04-06T12:47:05.994Z</time></trkpt><trkpt lat="49.8810568" lon="14.7508855"><ele>304.0</ele><time>2026-04-06T12:47:06.994Z</time></trkpt><trkpt lat="49.881073" lon="14.7506991"><ele>304.0</ele><time>2026-04-06T12:47:07.993Z</time></trkpt><trkpt lat="49.8811099" lon="14.7505438"><ele>304.0</ele><time>2026-04-06T12:47:08.993Z</time></trkpt><trkpt lat="49.8811744" lon="14.7504215"><ele>304.0</ele><time>2026-04-06T12:47:09.993Z</time></trkpt><trkpt lat="49.8812539" lon="14.7503108"><ele>304.0</ele><time>2026-04-06T12:47:10.994Z</time></trkpt><trkpt lat="49.8813418" lon="14.7502081"><ele>300.0</ele><time>2026-04-06T12:47:11.993Z</time></trkpt><trkpt lat="49.8814396" lon="14.7500901"><ele>296.0</ele><time>2026-04-06T12:47:12.993Z</time></trkpt><trkpt lat="49.88155" lon="14.7499587"><ele>292.0</ele><time>2026-04-06T12:47:13.994Z</time></trkpt><trkpt lat="49.8816552" lon="14.7498329"><ele>288.0</ele><time>2026-04-06T12:47:14.993Z</time></trkpt><trkpt lat="49.8817436" lon="14.7497089"><ele>288.0</ele><time>2026-04-06T12:47:15.994Z</time></trkpt><trkpt lat="49.881822" lon="14.7495847"><ele>288.0</ele><time>2026-04-06T12:47:16.993Z</time></trkpt><trkpt lat="49.8818943" lon="14.7494675"><ele>288.0</ele><time>2026-04-06T12:47:17.993Z</time></trkpt><trkpt lat="49.8819624" lon="14.7493609"><ele>288.0</ele><time>2026-04-06T12:47:18.994Z</time></trkpt><trkpt lat="49.8820262" lon="14.7492649"><ele>288.0</ele><time>2026-04-06T12:47:19.993Z</time></trkpt><trkpt lat="49.8821018" lon="14.7491695"><ele>288.0</ele><time>2026-04-06T12:47:20.994Z</time></trkpt><trkpt lat="49.882177" lon="14.7490807"><ele>288.0</ele><time>2026-04-06T12:47:21.994Z</time></trkpt><trkpt lat="49.8822703" lon="14.7490026"><ele>288.0</ele><time>2026-04-06T12:47:22.993Z</time></trkpt><trkpt lat="49.8823627" lon="14.7489333"><ele>288.0</ele><time>2026-04-06T12:47:23.993Z</time></trkpt><trkpt lat="49.8824501" lon="14.748872"><ele>288.0</ele><time>2026-04-06T12:47:24.994Z</time></trkpt><trkpt lat="49.8825397" lon="14.7488155"><ele>289.6</ele><time>2026-04-06T12:47:25.993Z</time></trkpt><trkpt lat="49.8826247" lon="14.7487455"><ele>291.20000000000005</ele><time>2026-04-06T12:47:26.993Z</time></trkpt><trkpt lat="49.8827096" lon="14.7486559"><ele>292.8</ele><time>2026-04-06T12:47:27.994Z</time></trkpt><trkpt lat="49.8828018" lon="14.7485589"><ele>294.40000000000003</ele><time>2026-04-06T12:47:28.994Z</time></trkpt><trkpt lat="49.8828894" lon="14.7484512"><ele>296.0</ele><time>2026-04-06T12:47:29.993Z</time></trkpt><trkpt lat="49.8829812" lon="14.7483369"><ele>296.0</ele><time>2026-04-06T12:47:30.994Z</time></trkpt><trkpt lat="49.8830713" lon="14.7482254"><ele>296.0</ele><time>2026-04-06T12:47:31.993Z</time></trkpt><trkpt lat="49.8831586" lon="14.7481149"><ele>296.0</ele><time>2026-04-06T12:47:32.993Z</time></trkpt><trkpt lat="49.8832551" lon="14.7480127"><ele>296.0</ele><time>2026-04-06T12:47:33.994Z</time></trkpt><trkpt lat="49.8833557" lon="14.7479177"><ele>297.25</ele><time>2026-04-06T12:47:34.993Z</time></trkpt><trkpt lat="49.8834648" lon="14.7478207"><ele>298.5</ele><time>2026-04-06T12:47:35.993Z</time></trkpt><trkpt lat="49.8835694" lon="14.7477144"><ele>299.75</ele><time>2026-04-06T12:47:36.994Z</time></trkpt><trkpt lat="49.8836762" lon="14.7475999"><ele>301.0</ele><time>2026-04-06T12:47:37.994Z</time></trkpt><trkpt lat="49.8837827" lon="14.747464"><ele>301.0</ele><time>2026-04-06T12:47:38.993Z</time></trkpt><trkpt lat="49.8838823" lon="14.7473082"><ele>301.0</ele><time>2026-04-06T12:47:39.993Z</time></trkpt><trkpt lat="49.8839761" lon="14.7471398"><ele>301.0</ele><time>2026-04-06T12:47:40.994Z</time></trkpt><trkpt lat="49.8840745" lon="14.7469801"><ele>301.0</ele><time>2026-04-06T12:47:41.993Z</time></trkpt><trkpt lat="49.8841624" lon="14.7468155"><ele>302.75</ele><time>2026-04-06T12:47:42.993Z</time></trkpt><trkpt lat="49.8842402" lon="14.746659"><ele>304.5</ele><time>2026-04-06T12:47:43.994Z</time></trkpt><trkpt lat="49.8843118" lon="14.7465195"><ele>306.25</ele><time>2026-04-06T12:47:44.994Z</time></trkpt><trkpt lat="49.8843807" lon="14.7463752"><ele>308.0</ele><time>2026-04-06T12:47:45.993Z</time></trkpt><trkpt lat="49.8844328" lon="14.7462438"><ele>308.0</ele><time>2026-04-06T12:47:46.994Z</time></trkpt><trkpt lat="49.8844789" lon="14.7461429"><ele>308.0</ele><time>2026-04-06T12:47:47.993Z</time></trkpt><trkpt lat="49.8845099" lon="14.7460332"><ele>308.0</ele><time>2026-04-06T12:47:48.993Z</time></trkpt><trkpt lat="49.8845397" lon="14.7459444"><ele>308.0</ele><time>2026-04-06T12:47:49.994Z</time></trkpt><trkpt lat="49.8846024" lon="14.7458148"><ele>308.0</ele><time>2026-04-06T12:47:51.993Z</time></trkpt><trkpt lat="49.8847041" lon="14.7457399"><ele>308.0</ele><time>2026-04-06T12:47:53.994Z</time></trkpt><trkpt lat="49.8848228" lon="14.7457097"><ele>308.5</ele><time>2026-04-06T12:47:55.994Z</time></trkpt><trkpt lat="49.8848901" lon="14.745671"><ele>309.0</ele><time>2026-04-06T12:47:56.994Z</time></trkpt><trkpt lat="49.8849477" lon="14.7456119"><ele>309.5</ele><time>2026-04-06T12:47:57.994Z</time></trkpt><trkpt lat="49.8850348" lon="14.7455668"><ele>310.0</ele><time>2026-04-06T12:47:59.993Z</time></trkpt><trkpt lat="49.8851344" lon="14.7455695"><ele>310.5</ele><time>2026-04-06T12:48:02.993Z</time></trkpt><trkpt lat="49.8851997" lon="14.7455622"><ele>311.0</ele><time>2026-04-06T12:48:35.994Z</time></trkpt><trkpt lat="49.8852727" lon="14.7455944"><ele>311.0</ele><time>2026-04-06T12:48:37.993Z</time></trkpt><trkpt lat="49.8853967" lon="14.7456243"><ele>311.0</ele><time>2026-04-06T12:48:39.994Z</time></trkpt><trkpt lat="49.8854699" lon="14.7456308"><ele>311.0</ele><time>2026-04-06T12:48:40.994Z</time></trkpt><trkpt lat="49.8855484" lon="14.7456399"><ele>311.0</ele><time>2026-04-06T12:48:41.993Z</time></trkpt><trkpt lat="49.8856316" lon="14.7456598"><ele>311.0</ele><time>2026-04-06T12:48:42.993Z</time></trkpt><trkpt lat="49.8857246" lon="14.7456876"><ele>311.0</ele><time>2026-04-06T12:48:43.994Z</time></trkpt><trkpt lat="49.885818" lon="14.7457051"><ele>311.0</ele><time>2026-04-06T12:48:44.993Z</time></trkpt><trkpt lat="49.8859057" lon="14.7457223"><ele>311.0</ele><time>2026-04-06T12:48:45.994Z</time></trkpt><trkpt lat="49.8859881" lon="14.7457399"><ele>311.0</ele><time>2026-04-06T12:48:46.994Z</time></trkpt><trkpt lat="49.886064" lon="14.7457795"><ele>311.0</ele><time>2026-04-06T12:48:47.993Z</time></trkpt><trkpt lat="49.8861406" lon="14.7458618"><ele>311.0</ele><time>2026-04-06T12:48:48.994Z</time></trkpt><trkpt lat="49.8862226" lon="14.7459711"><ele>314.0</ele><time>2026-04-06T12:48:49.994Z</time></trkpt><trkpt lat="49.8862884" lon="14.7460631"><ele>317.0</ele><time>2026-04-06T12:48:50.993Z</time></trkpt><trkpt lat="49.8863517" lon="14.7461236"><ele>320.0</ele><time>2026-04-06T12:48:51.993Z</time></trkpt><trkpt lat="49.8864223" lon="14.7462038"><ele>323.0</ele><time>2026-04-06T12:48:53.993Z</time></trkpt><trkpt lat="49.8865487" lon="14.7463213"><ele>326.0</ele><time>2026-04-06T12:48:55.994Z</time></trkpt><trkpt lat="49.8866307" lon="14.7463734"><ele>326.0</ele><time>2026-04-06T12:48:56.993Z</time></trkpt><trkpt lat="49.8867286" lon="14.7464108"><ele>326.0</ele><time>2026-04-06T12:48:57.994Z</time></trkpt><trkpt lat="49.8868011" lon="14.7464777"><ele>326.0</ele><time>2026-04-06T12:48:58.994Z</time></trkpt><trkpt lat="49.8868562" lon="14.746563"><ele>326.0</ele><time>2026-04-06T12:48:59.994Z</time></trkpt><trkpt lat="49.8868973" lon="14.7466397"><ele>326.0</ele><time>2026-04-06T12:49:00.993Z</time></trkpt><trkpt lat="49.8869378" lon="14.7467782"><ele>326.0</ele><time>2026-04-06T12:49:02.994Z</time></trkpt><trkpt lat="49.8869315" lon="14.7469508"><ele>326.6</ele><time>2026-04-06T12:49:04.994Z</time></trkpt><trkpt lat="49.8869003" lon="14.7471538"><ele>327.20000000000005</ele><time>2026-04-06T12:49:06.993Z</time></trkpt><trkpt lat="49.8868891" lon="14.7472877"><ele>327.79999999999995</ele><time>2026-04-06T12:49:07.994Z</time></trkpt><trkpt lat="49.8868834" lon="14.7474405"><ele>328.4</ele><time>2026-04-06T12:49:08.994Z</time></trkpt><trkpt lat="49.8868878" lon="14.7476032"><ele>329.0</ele><time>2026-04-06T12:49:09.994Z</time></trkpt><trkpt lat="49.8868784" lon="14.7477717"><ele>329.0</ele><time>2026-04-06T12:49:10.994Z</time></trkpt><trkpt lat="49.886882" lon="14.7479219"><ele>329.0</ele><time>2026-04-06T12:49:11.994Z</time></trkpt><trkpt lat="49.8869282" lon="14.7480607"><ele>329.0</ele><time>2026-04-06T12:49:12.994Z</time></trkpt><trkpt lat="49.8869667" lon="14.7481947"><ele>329.0</ele><time>2026-04-06T12:49:13.993Z</time></trkpt><trkpt lat="49.8870432" lon="14.7483268"><ele>329.0</ele><time>2026-04-06T12:49:14.993Z</time></trkpt><trkpt lat="49.887123" lon="14.7484674"><ele>330.6666666666667</ele><time>2026-04-06T12:49:16Z</time></trkpt><trkpt lat="49.8871998" lon="14.748575"><ele>332.33333333333337</ele><time>2026-04-06T12:49:17.001Z</time></trkpt><trkpt lat="49.8872778" lon="14.74867"><ele>334.0</ele><time>2026-04-06T12:49:18.001Z</time></trkpt><trkpt lat="49.8873327" lon="14.7487588"><ele>335.6666666666667</ele><time>2026-04-06T12:49:19Z</time></trkpt><trkpt lat="49.8873849" lon="14.7488344"><ele>337.3333333333333</ele><time>2026-04-06T12:49:20Z</time></trkpt><trkpt lat="49.887439" lon="14.7489211"><ele>339.0</ele><time>2026-04-06T12:49:22.001Z</time></trkpt><trkpt lat="49.8875197" lon="14.7489375"><ele>339.0</ele><time>2026-04-06T12:49:33Z</time></trkpt><trkpt lat="49.887576" lon="14.7490132"><ele>339.0</ele><time>2026-04-06T12:49:36.001Z</time></trkpt><trkpt lat="49.887642" lon="14.7490301"><ele>339.0</ele><time>2026-04-06T12:49:39.001Z</time></trkpt><trkpt lat="49.887709" lon="14.7489504"><ele>339.0</ele><time>2026-04-06T12:49:41Z</time></trkpt><trkpt lat="49.8877594" lon="14.7488633"><ele>339.0</ele><time>2026-04-06T12:49:43Z</time></trkpt><trkpt lat="49.8878177" lon="14.7488117"><ele>339.0</ele><time>2026-04-06T12:49:45Z</time></trkpt><trkpt lat="49.8879054" lon="14.7488226"><ele>340.6</ele><time>2026-04-06T12:49:47.001Z</time></trkpt><trkpt lat="49.8880296" lon="14.7488864"><ele>342.2</ele><time>2026-04-06T12:49:49.001Z</time></trkpt><trkpt lat="49.8881091" lon="14.7489101"><ele>343.8</ele><time>2026-04-06T12:49:50.001Z</time></trkpt><trkpt lat="49.8881936" lon="14.7489238"><ele>345.40000000000003</ele><time>2026-04-06T12:49:51Z</time></trkpt><trkpt lat="49.8882782" lon="14.7489251"><ele>347.0</ele><time>2026-04-06T12:49:52.001Z</time></trkpt><trkpt lat="49.8883664" lon="14.7489339"><ele>348.1666666666667</ele><time>2026-04-06T12:49:53Z</time></trkpt><trkpt lat="49.8884529" lon="14.7489298"><ele>349.33333333333337</ele><time>2026-04-06T12:49:54Z</time></trkpt><trkpt lat="49.8885421" lon="14.7489186"><ele>350.5</ele><time>2026-04-06T12:49:55Z</time></trkpt><trkpt lat="49.88863" lon="14.748907"><ele>351.6666666666667</ele><time>2026-04-06T12:49:56.001Z</time></trkpt><trkpt lat="49.8887062" lon="14.7489111"><ele>352.8333333333333</ele><time>2026-04-06T12:49:57Z</time></trkpt><trkpt lat="49.8887742" lon="14.7489334"><ele>354.0</ele><time>2026-04-06T12:49:58Z</time></trkpt><trkpt lat="49.8888479" lon="14.748935"><ele>354.0</ele><time>2026-04-06T12:49:59Z</time></trkpt><trkpt lat="49.8889239" lon="14.7489179"><ele>354.0</ele><time>2026-04-06T12:50:00.001Z</time></trkpt><trkpt lat="49.8890081" lon="14.7488987"><ele>354.0</ele><time>2026-04-06T12:50:01.001Z</time></trkpt><trkpt lat="49.8890862" lon="14.7488828"><ele>354.0</ele><time>2026-04-06T12:50:02.001Z</time></trkpt><trkpt lat="49.8891681" lon="14.7488735"><ele>354.0</ele><time>2026-04-06T12:50:03Z</time></trkpt><trkpt lat="49.8892518" lon="14.748881"><ele>354.0</ele><time>2026-04-06T12:50:04Z</time></trkpt><trkpt lat="49.889334" lon="14.7488862"><ele>354.6</ele><time>2026-04-06T12:50:05.001Z</time></trkpt><trkpt lat="49.8894154" lon="14.748879"><ele>355.2</ele><time>2026-04-06T12:50:06.001Z</time></trkpt><trkpt lat="49.8895043" lon="14.7488605"><ele>355.8</ele><time>2026-04-06T12:50:07.001Z</time></trkpt><trkpt lat="49.8896085" lon="14.7488474"><ele>356.40000000000003</ele><time>2026-04-06T12:50:08Z</time></trkpt><trkpt lat="49.8897356" lon="14.748832"><ele>357.0</ele><time>2026-04-06T12:50:09.001Z</time></trkpt><trkpt lat="49.8898604" lon="14.7488397"><ele>357.0</ele><time>2026-04-06T12:50:10Z</time></trkpt><trkpt lat="49.8899817" lon="14.7488464"><ele>357.0</ele><time>2026-04-06T12:50:11.001Z</time></trkpt><trkpt lat="49.890086" lon="14.7488739"><ele>357.0</ele><time>2026-04-06T12:50:12.001Z</time></trkpt><trkpt lat="49.8901754" lon="14.7489055"><ele>357.0</ele><time>2026-04-06T12:50:13.001Z</time></trkpt><trkpt lat="49.8902532" lon="14.748941"><ele>357.0</ele><time>2026-04-06T12:50:14Z</time></trkpt><trkpt lat="49.8903502" lon="14.7490241"><ele>356.5</ele><time>2026-04-06T12:50:16Z</time></trkpt><trkpt lat="49.8903823" lon="14.7491106"><ele>356.0</ele><time>2026-04-06T12:50:17Z</time></trkpt><trkpt lat="49.890437" lon="14.7491916"><ele>355.5</ele><time>2026-04-06T12:50:18Z</time></trkpt><trkpt lat="49.8904913" lon="14.749274"><ele>355.0</ele><time>2026-04-06T12:50:19.001Z</time></trkpt><trkpt lat="49.8905515" lon="14.749355"><ele>354.5</ele><time>2026-04-06T12:50:20Z</time></trkpt><trkpt lat="49.890591" lon="14.7494376"><ele>354.0</ele><time>2026-04-06T12:50:21.001Z</time></trkpt><trkpt lat="49.8906491" lon="14.7496045"><ele>355.0</ele><time>2026-04-06T12:50:23.001Z</time></trkpt><trkpt lat="49.890614" lon="14.7496871"><ele>356.0</ele><time>2026-04-06T12:50:26.001Z</time></trkpt><trkpt lat="49.8905131" lon="14.7496575"><ele>357.0</ele><time>2026-04-06T12:50:28Z</time></trkpt><trkpt lat="49.8904453" lon="14.7496182"><ele>358.0</ele><time>2026-04-06T12:50:29.001Z</time></trkpt><trkpt lat="49.8903561" lon="14.7495539"><ele>359.0</ele><time>2026-04-06T12:50:30.001Z</time></trkpt><trkpt lat="49.8902663" lon="14.7494827"><ele>360.0</ele><time>2026-04-06T12:50:31Z</time></trkpt><trkpt lat="49.8901889" lon="14.749409"><ele>360.2</ele><time>2026-04-06T12:50:32.001Z</time></trkpt><trkpt lat="49.8901189" lon="14.7493672"><ele>360.4</ele><time>2026-04-06T12:50:33Z</time></trkpt><trkpt lat="49.8900066" lon="14.7493722"><ele>360.6</ele><time>2026-04-06T12:50:35.001Z</time></trkpt><trkpt lat="49.8899399" lon="14.7493939"><ele>360.8</ele><time>2026-04-06T12:50:36.001Z</time></trkpt><trkpt lat="49.8898204" lon="14.7494532"><ele>361.0</ele><time>2026-04-06T12:50:38.001Z</time></trkpt><trkpt lat="49.8897169" lon="14.7495199"><ele>361.0</ele><time>2026-04-06T12:50:40Z</time></trkpt><trkpt lat="49.8896395" lon="14.7496483"><ele>361.0</ele><time>2026-04-06T12:50:42.001Z</time></trkpt><trkpt lat="49.8895947" lon="14.7497659"><ele>361.0</ele><time>2026-04-06T12:50:44.001Z</time></trkpt><trkpt lat="49.8895762" lon="14.7499272"><ele>361.0</ele><time>2026-04-06T12:50:46.001Z</time></trkpt><trkpt lat="49.8895992" lon="14.7501026"><ele>361.0</ele><time>2026-04-06T12:50:48.001Z</time></trkpt><trkpt lat="49.8896269" lon="14.750195"><ele>361.8</ele><time>2026-04-06T12:50:49Z</time></trkpt><trkpt lat="49.8896597" lon="14.7502996"><ele>362.6</ele><time>2026-04-06T12:50:50.001Z</time></trkpt><trkpt lat="49.8896959" lon="14.7504278"><ele>363.4</ele><time>2026-04-06T12:50:51.001Z</time></trkpt><trkpt lat="49.8897373" lon="14.7505731"><ele>364.2</ele><time>2026-04-06T12:50:52.001Z</time></trkpt><trkpt lat="49.8897796" lon="14.7507204"><ele>365.0</ele><time>2026-04-06T12:50:53Z</time></trkpt><trkpt lat="49.8898185" lon="14.750855"><ele>365.0</ele><time>2026-04-06T12:50:54Z</time></trkpt><trkpt lat="49.8898486" lon="14.7509739"><ele>365.0</ele><time>2026-04-06T12:50:55.001Z</time></trkpt><trkpt lat="49.889875" lon="14.7510946"><ele>365.0</ele><time>2026-04-06T12:50:56Z</time></trkpt><trkpt lat="49.8899054" lon="14.7512128"><ele>365.0</ele><time>2026-04-06T12:50:57Z</time></trkpt><trkpt lat="49.8899507" lon="14.751336"><ele>365.0</ele><time>2026-04-06T12:50:58Z</time></trkpt><trkpt lat="49.8900053" lon="14.751453"><ele>365.0</ele><time>2026-04-06T12:50:59.001Z</time></trkpt><trkpt lat="49.8900742" lon="14.7515464"><ele>366.6</ele><time>2026-04-06T12:51:00.001Z</time></trkpt><trkpt lat="49.8901563" lon="14.751634"><ele>368.2</ele><time>2026-04-06T12:51:01.001Z</time></trkpt><trkpt lat="49.8902357" lon="14.7517352"><ele>369.79999999999995</ele><time>2026-04-06T12:51:02.001Z</time></trkpt><trkpt lat="49.8902984" lon="14.7518616"><ele>371.4</ele><time>2026-04-06T12:51:03.001Z</time></trkpt><trkpt lat="49.890366" lon="14.7520053"><ele>373.0</ele><time>2026-04-06T12:51:04.001Z</time></trkpt><trkpt lat="49.8904412" lon="14.7521852"><ele>373.0</ele><time>2026-04-06T12:51:05.001Z</time></trkpt><trkpt lat="49.8905384" lon="14.752317"><ele>373.0</ele><time>2026-04-06T12:51:06Z</time></trkpt><trkpt lat="49.8906513" lon="14.752489"><ele>373.0</ele><time>2026-04-06T12:51:07.001Z</time></trkpt><trkpt lat="49.8907653" lon="14.7526765"><ele>373.25</ele><time>2026-04-06T12:51:08Z</time></trkpt><trkpt lat="49.8908458" lon="14.7528712"><ele>373.5</ele><time>2026-04-06T12:51:09.001Z</time></trkpt><trkpt lat="49.8909065" lon="14.7530722"><ele>373.75</ele><time>2026-04-06T12:51:10Z</time></trkpt><trkpt lat="49.8909399" lon="14.7532892"><ele>374.0</ele><time>2026-04-06T12:51:11.001Z</time></trkpt><trkpt lat="49.8909625" lon="14.7535336"><ele>376.6666666666667</ele><time>2026-04-06T12:51:12.001Z</time></trkpt><trkpt lat="49.8909846" lon="14.7537929"><ele>379.3333333333333</ele><time>2026-04-06T12:51:13.001Z</time></trkpt><trkpt lat="49.8910083" lon="14.7540627"><ele>382.0</ele><time>2026-04-06T12:51:14.001Z</time></trkpt><trkpt lat="49.8910302" lon="14.7543361"><ele>383.66666666666663</ele><time>2026-04-06T12:51:15.001Z</time></trkpt><trkpt lat="49.8910551" lon="14.7546025"><ele>385.3333333333333</ele><time>2026-04-06T12:51:16Z</time></trkpt><trkpt lat="49.8910832" lon="14.7548537"><ele>387.0</ele><time>2026-04-06T12:51:17.001Z</time></trkpt><trkpt lat="49.8911127" lon="14.7550893"><ele>387.75</ele><time>2026-04-06T12:51:18Z</time></trkpt><trkpt lat="49.8911555" lon="14.7553159"><ele>388.5</ele><time>2026-04-06T12:51:19Z</time></trkpt><trkpt lat="49.8912261" lon="14.7555112"><ele>389.25</ele><time>2026-04-06T12:51:20.001Z</time></trkpt><trkpt lat="49.8913181" lon="14.7556543"><ele>390.0</ele><time>2026-04-06T12:51:21Z</time></trkpt><trkpt lat="49.8914269" lon="14.7557688"><ele>390.0</ele><time>2026-04-06T12:51:22.001Z</time></trkpt><trkpt lat="49.8915443" lon="14.7558782"><ele>390.0</ele><time>2026-04-06T12:51:23Z</time></trkpt><trkpt lat="49.8916549" lon="14.7559877"><ele>390.0</ele><time>2026-04-06T12:51:24.001Z</time></trkpt><trkpt lat="49.8917576" lon="14.7560973"><ele>390.0</ele><time>2026-04-06T12:51:25Z</time></trkpt><trkpt lat="49.8918322" lon="14.7562143"><ele>390.0</ele><time>2026-04-06T12:51:26.001Z</time></trkpt><trkpt lat="49.8918851" lon="14.7563084"><ele>390.0</ele><time>2026-04-06T12:51:27.001Z</time></trkpt><trkpt lat="49.8919466" lon="14.7564417"><ele>390.0</ele><time>2026-04-06T12:51:29.001Z</time></trkpt><trkpt lat="49.8920046" lon="14.7565184"><ele>390.0</ele><time>2026-04-06T12:51:31Z</time></trkpt><trkpt lat="49.8919172" lon="14.7565439"><ele>390.0</ele><time>2026-04-06T12:51:35Z</time></trkpt><trkpt lat="49.8918789" lon="14.7564275"><ele>390.0</ele><time>2026-04-06T12:51:37Z</time></trkpt><trkpt lat="49.8918543" lon="14.7562502"><ele>390.0</ele><time>2026-04-06T12:51:39Z</time></trkpt><trkpt lat="49.8918553" lon="14.7561221"><ele>390.0</ele><time>2026-04-06T12:51:41Z</time></trkpt><trkpt lat="49.8919162" lon="14.7560323"><ele>390.0</ele><time>2026-04-06T12:51:43.001Z</time></trkpt><trkpt lat="49.8919982" lon="14.7560297"><ele>390.0</ele><time>2026-04-06T12:51:45.001Z</time></trkpt><trkpt lat="49.8920938" lon="14.7560497"><ele>390.0</ele><time>2026-04-06T12:51:47Z</time></trkpt><trkpt lat="49.8922045" lon="14.7560437"><ele>390.0</ele><time>2026-04-06T12:51:49Z</time></trkpt><trkpt lat="49.8923081" lon="14.7560459"><ele>390.0</ele><time>2026-04-06T12:51:51.001Z</time></trkpt><trkpt lat="49.8924213" lon="14.7560327"><ele>390.0</ele><time>2026-04-06T12:51:53Z</time></trkpt><trkpt lat="49.8924916" lon="14.7560267"><ele>390.0</ele><time>2026-04-06T12:51:55Z</time></trkpt><trkpt lat="49.8925256" lon="14.7559068"><ele>390.0</ele><time>2026-04-06T12:51:58Z</time></trkpt><trkpt lat="49.8925023" lon="14.7557694"><ele>389.2</ele><time>2026-04-06T12:52:00.001Z</time></trkpt><trkpt lat="49.8924865" lon="14.7556173"><ele>388.4</ele><time>2026-04-06T12:52:02Z</time></trkpt><trkpt lat="49.8924938" lon="14.7554635"><ele>387.6</ele><time>2026-04-06T12:52:04Z</time></trkpt><trkpt lat="49.8925344" lon="14.7553376"><ele>386.8</ele><time>2026-04-06T12:52:06.001Z</time></trkpt><trkpt lat="49.8926135" lon="14.7552286"><ele>386.0</ele><time>2026-04-06T12:52:08Z</time></trkpt><trkpt lat="49.8927021" lon="14.7550941"><ele>384.3333333333333</ele><time>2026-04-06T12:52:10Z</time></trkpt><trkpt lat="49.8927481" lon="14.7550151"><ele>382.66666666666663</ele><time>2026-04-06T12:52:11Z</time></trkpt><trkpt lat="49.8928035" lon="14.7549332"><ele>381.0</ele><time>2026-04-06T12:52:12Z</time></trkpt><trkpt lat="49.892861" lon="14.7548372"><ele>379.3333333333333</ele><time>2026-04-06T12:52:13Z</time></trkpt><trkpt lat="49.8929199" lon="14.754731"><ele>377.66666666666663</ele><time>2026-04-06T12:52:14Z</time></trkpt><trkpt lat="49.8929775" lon="14.7546258"><ele>376.0</ele><time>2026-04-06T12:52:15.001Z</time></trkpt><trkpt lat="49.8930376" lon="14.7545363"><ele>376.0</ele><time>2026-04-06T12:52:16Z</time></trkpt><trkpt lat="49.8930975" lon="14.7544594"><ele>376.0</ele><time>2026-04-06T12:52:17.001Z</time></trkpt><trkpt lat="49.8931623" lon="14.7543798"><ele>376.0</ele><time>2026-04-06T12:52:18.001Z</time></trkpt><trkpt lat="49.8932268" lon="14.7543021"><ele>376.0</ele><time>2026-04-06T12:52:19.001Z</time></trkpt><trkpt lat="49.8932983" lon="14.7542383"><ele>376.0</ele><time>2026-04-06T12:52:20Z</time></trkpt><trkpt lat="49.893374" lon="14.7542026"><ele>376.0</ele><time>2026-04-06T12:52:21.001Z</time></trkpt><trkpt lat="49.8934435" lon="14.7542107"><ele>378.5</ele><time>2026-04-06T12:52:22.001Z</time></trkpt><trkpt lat="49.8935176" lon="14.7542172"><ele>381.0</ele><time>2026-04-06T12:52:23Z</time></trkpt><trkpt lat="49.893586" lon="14.7542276"><ele>383.5</ele><time>2026-04-06T12:52:24Z</time></trkpt><trkpt lat="49.8936698" lon="14.754202"><ele>386.0</ele><time>2026-04-06T12:52:25Z</time></trkpt><trkpt lat="49.8937703" lon="14.7541744"><ele>388.50000000000006</ele><time>2026-04-06T12:52:26Z</time></trkpt><trkpt lat="49.8938621" lon="14.7540983"><ele>391.0</ele><time>2026-04-06T12:52:27Z</time></trkpt><trkpt lat="49.8939269" lon="14.7540167"><ele>391.00000000000006</ele><time>2026-04-06T12:52:28.001Z</time></trkpt><trkpt lat="49.893968" lon="14.7539356"><ele>391.0</ele><time>2026-04-06T12:52:29Z</time></trkpt><trkpt lat="49.8939693" lon="14.753832"><ele>391.0</ele><time>2026-04-06T12:52:30Z</time></trkpt><trkpt lat="49.8939508" lon="14.7537021"><ele>391.0</ele><time>2026-04-06T12:52:31Z</time></trkpt><trkpt lat="49.8939142" lon="14.753602"><ele>391.00000000000006</ele><time>2026-04-06T12:52:32.001Z</time></trkpt><trkpt lat="49.893984" lon="14.7534542"><ele>391.0</ele><time>2026-04-06T12:52:34.001Z</time></trkpt><trkpt lat="49.8940375" lon="14.7534007"><ele>391.75</ele><time>2026-04-06T12:52:35Z</time></trkpt><trkpt lat="49.8941358" lon="14.7533479"><ele>392.5</ele><time>2026-04-06T12:52:37.001Z</time></trkpt><trkpt lat="49.8942184" lon="14.7532899"><ele>393.25</ele><time>2026-04-06T12:52:39Z</time></trkpt><trkpt lat="49.8943573" lon="14.7531718"><ele>394.0</ele><time>2026-04-06T12:52:41Z</time></trkpt><trkpt lat="49.894467" lon="14.7530358"><ele>396.25</ele><time>2026-04-06T12:52:42Z</time></trkpt><trkpt lat="49.894574" lon="14.7529142"><ele>398.5</ele><time>2026-04-06T12:52:43Z</time></trkpt><trkpt lat="49.8946875" lon="14.7528337"><ele>400.75</ele><time>2026-04-06T12:52:44Z</time></trkpt><trkpt lat="49.8948231" lon="14.7527603"><ele>403.0</ele><time>2026-04-06T12:52:45.001Z</time></trkpt><trkpt lat="49.8949492" lon="14.7526514"><ele>403.75</ele><time>2026-04-06T12:52:46Z</time></trkpt><trkpt lat="49.895064" lon="14.7525533"><ele>404.5</ele><time>2026-04-06T12:52:47Z</time></trkpt><trkpt lat="49.8951663" lon="14.7524242"><ele>405.25</ele><time>2026-04-06T12:52:48Z</time></trkpt><trkpt lat="49.8952667" lon="14.7522473"><ele>406.0</ele><time>2026-04-06T12:52:49Z</time></trkpt><trkpt lat="49.8953539" lon="14.7520496"><ele>408.33333333333337</ele><time>2026-04-06T12:52:50.001Z</time></trkpt><trkpt lat="49.8954426" lon="14.7518472"><ele>410.66666666666663</ele><time>2026-04-06T12:52:51Z</time></trkpt><trkpt lat="49.8955322" lon="14.7516497"><ele>413.0</ele><time>2026-04-06T12:52:52Z</time></trkpt><trkpt lat="49.8956156" lon="14.7514535"><ele>413.0</ele><time>2026-04-06T12:52:53.001Z</time></trkpt><trkpt lat="49.895692" lon="14.7512658"><ele>413.0</ele><time>2026-04-06T12:52:54Z</time></trkpt><trkpt lat="49.8957537" lon="14.7511184"><ele>413.0</ele><time>2026-04-06T12:52:55Z</time></trkpt><trkpt lat="49.8958108" lon="14.7509923"><ele>413.0</ele><time>2026-04-06T12:52:56.001Z</time></trkpt><trkpt lat="49.8958613" lon="14.7508942"><ele>413.0</ele><time>2026-04-06T12:52:57.001Z</time></trkpt><trkpt lat="49.8959079" lon="14.7508086"><ele>412.59999999999997</ele><time>2026-04-06T12:52:58Z</time></trkpt><trkpt lat="49.8959565" lon="14.750732"><ele>412.2</ele><time>2026-04-06T12:52:59.001Z</time></trkpt><trkpt lat="49.8960191" lon="14.7505933"><ele>411.8</ele><time>2026-04-06T12:53:01.001Z</time></trkpt><trkpt lat="49.8960025" lon="14.7504115"><ele>411.4</ele><time>2026-04-06T12:53:03.001Z</time></trkpt><trkpt lat="49.8959603" lon="14.7503231"><ele>411.0</ele><time>2026-04-06T12:53:04Z</time></trkpt><trkpt lat="49.8958994" lon="14.7502236"><ele>409.6666666666667</ele><time>2026-04-06T12:53:05.001Z</time></trkpt><trkpt lat="49.895831" lon="14.7501353"><ele>408.33333333333337</ele><time>2026-04-06T12:53:06Z</time></trkpt><trkpt lat="49.8957649" lon="14.7500553"><ele>407.0</ele><time>2026-04-06T12:53:07.001Z</time></trkpt><trkpt lat="49.8957061" lon="14.7499855"><ele>405.6666666666667</ele><time>2026-04-06T12:53:08Z</time></trkpt><trkpt lat="49.8956398" lon="14.7499125"><ele>404.33333333333337</ele><time>2026-04-06T12:53:10.001Z</time></trkpt><trkpt lat="49.8955665" lon="14.749886"><ele>403.0</ele><time>2026-04-06T12:53:19.001Z</time></trkpt><trkpt lat="49.8955075" lon="14.7499498"><ele>403.0</ele><time>2026-04-06T12:53:20Z</time></trkpt><trkpt lat="49.8954383" lon="14.7500495"><ele>403.0</ele><time>2026-04-06T12:53:21Z</time></trkpt><trkpt lat="49.8953505" lon="14.7501642"><ele>403.0</ele><time>2026-04-06T12:53:22Z</time></trkpt><trkpt lat="49.895249" lon="14.7502917"><ele>403.0</ele><time>2026-04-06T12:53:23Z</time></trkpt><trkpt lat="49.8951392" lon="14.750443"><ele>401.33333333333337</ele><time>2026-04-06T12:53:24Z</time></trkpt><trkpt lat="49.8950225" lon="14.7506151"><ele>399.66666666666663</ele><time>2026-04-06T12:53:25.001Z</time></trkpt><trkpt lat="49.8949002" lon="14.7507951"><ele>398.0</ele><time>2026-04-06T12:53:26Z</time></trkpt><trkpt lat="49.8947812" lon="14.7509643"><ele>399.66666666666663</ele><time>2026-04-06T12:53:27Z</time></trkpt><trkpt lat="49.8946644" lon="14.751127"><ele>401.33333333333337</ele><time>2026-04-06T12:53:28Z</time></trkpt><trkpt lat="49.8945431" lon="14.7512995"><ele>403.0</ele><time>2026-04-06T12:53:29.001Z</time></trkpt><trkpt lat="49.8944228" lon="14.751465"><ele>403.0</ele><time>2026-04-06T12:53:30.001Z</time></trkpt><trkpt lat="49.8943105" lon="14.7516217"><ele>403.0</ele><time>2026-04-06T12:53:31.001Z</time></trkpt><trkpt lat="49.8942032" lon="14.7517704"><ele>403.0</ele><time>2026-04-06T12:53:32Z</time></trkpt><trkpt lat="49.8941078" lon="14.7519116"><ele>403.0</ele><time>2026-04-06T12:53:33Z</time></trkpt><trkpt lat="49.8940343" lon="14.7520228"><ele>401.50000000000006</ele><time>2026-04-06T12:53:34.001Z</time></trkpt><trkpt lat="49.8939846" lon="14.7521087"><ele>400.0</ele><time>2026-04-06T12:53:35.001Z</time></trkpt><trkpt lat="49.8939368" lon="14.7522327"><ele>398.5</ele><time>2026-04-06T12:53:37.001Z</time></trkpt><trkpt lat="49.8939002" lon="14.7523322"><ele>397.0</ele><time>2026-04-06T12:53:40.001Z</time></trkpt><trkpt lat="49.8938285" lon="14.7523021"><ele>395.50000000000006</ele><time>2026-04-06T12:53:43Z</time></trkpt><trkpt lat="49.8937708" lon="14.7521865"><ele>394.0</ele><time>2026-04-06T12:53:44.001Z</time></trkpt><trkpt lat="49.8937199" lon="14.7520339"><ele>394.0</ele><time>2026-04-06T12:53:45Z</time></trkpt><trkpt lat="49.8936773" lon="14.7518358"><ele>394.0</ele><time>2026-04-06T12:53:46.001Z</time></trkpt><trkpt lat="49.8936581" lon="14.7516232"><ele>394.0</ele><time>2026-04-06T12:53:47.001Z</time></trkpt><trkpt lat="49.8936499" lon="14.7514256"><ele>394.0</ele><time>2026-04-06T12:53:48Z</time></trkpt><trkpt lat="49.893652" lon="14.7512305"><ele>393.75</ele><time>2026-04-06T12:53:49Z</time></trkpt><trkpt lat="49.8936576" lon="14.7510257"><ele>393.5</ele><time>2026-04-06T12:53:50.001Z</time></trkpt><trkpt lat="49.8936706" lon="14.7508268"><ele>393.25</ele><time>2026-04-06T12:53:51.001Z</time></trkpt><trkpt lat="49.8936892" lon="14.750646"><ele>393.0</ele><time>2026-04-06T12:53:52.001Z</time></trkpt><trkpt lat="49.8937203" lon="14.750478"><ele>393.0</ele><time>2026-04-06T12:53:53.001Z</time></trkpt><trkpt lat="49.8937596" lon="14.7503135"><ele>393.0</ele><time>2026-04-06T12:53:54Z</time></trkpt><trkpt lat="49.8938148" lon="14.7501492"><ele>393.0</ele><time>2026-04-06T12:53:55Z</time></trkpt><trkpt lat="49.8938924" lon="14.7499741"><ele>393.0</ele><time>2026-04-06T12:53:56Z</time></trkpt><trkpt lat="49.893962" lon="14.7497876"><ele>392.4</ele><time>2026-04-06T12:53:57.001Z</time></trkpt><trkpt lat="49.8940072" lon="14.7496054"><ele>391.79999999999995</ele><time>2026-04-06T12:53:58Z</time></trkpt><trkpt lat="49.894048" lon="14.7494397"><ele>391.2</ele><time>2026-04-06T12:53:59.001Z</time></trkpt><trkpt lat="49.8940814" lon="14.7492952"><ele>390.6</ele><time>2026-04-06T12:54:00.001Z</time></trkpt><trkpt lat="49.8940973" lon="14.7491606"><ele>390.0</ele><time>2026-04-06T12:54:01.001Z</time></trkpt><trkpt lat="49.8940974" lon="14.7490194"><ele>390.0</ele><time>2026-04-06T12:54:02Z</time></trkpt><trkpt lat="49.894074" lon="14.7488635"><ele>390.0</ele><time>2026-04-06T12:54:03Z</time></trkpt><trkpt lat="49.8940313" lon="14.748707"><ele>390.0</ele><time>2026-04-06T12:54:04Z</time></trkpt><trkpt lat="49.893967" lon="14.7485682"><ele>390.0</ele><time>2026-04-06T12:54:05Z</time></trkpt><trkpt lat="49.8939124" lon="14.7484398"><ele>390.0</ele><time>2026-04-06T12:54:06Z</time></trkpt><trkpt lat="49.893888" lon="14.7482954"><ele>390.0</ele><time>2026-04-06T12:54:07.001Z</time></trkpt><trkpt lat="49.8938913" lon="14.7481124"><ele>390.0</ele><time>2026-04-06T12:54:08.001Z</time></trkpt><trkpt lat="49.8939122" lon="14.7479228"><ele>390.0</ele><time>2026-04-06T12:54:09Z</time></trkpt><trkpt lat="49.893938" lon="14.7477806"><ele>390.0</ele><time>2026-04-06T12:54:10.001Z</time></trkpt><trkpt lat="49.8939787" lon="14.7476767"><ele>390.0</ele><time>2026-04-06T12:54:11Z</time></trkpt><trkpt lat="49.8940431" lon="14.7475913"><ele>390.0</ele><time>2026-04-06T12:54:12Z</time></trkpt><trkpt lat="49.8941407" lon="14.7475079"><ele>390.0</ele><time>2026-04-06T12:54:13Z</time></trkpt><trkpt lat="49.8942493" lon="14.7474302"><ele>390.0</ele><time>2026-04-06T12:54:14.001Z</time></trkpt><trkpt lat="49.8943448" lon="14.747354"><ele>390.0</ele><time>2026-04-06T12:54:15.001Z</time></trkpt><trkpt lat="49.8944292" lon="14.7473064"><ele>390.0</ele><time>2026-04-06T12:54:16Z</time></trkpt><trkpt lat="49.8944987" lon="14.7472653"><ele>391.0</ele><time>2026-04-06T12:54:17.001Z</time></trkpt><trkpt lat="49.8945845" lon="14.7471809"><ele>392.0</ele><time>2026-04-06T12:54:19.001Z</time></trkpt><trkpt lat="49.8946133" lon="14.7470345"><ele>393.0</ele><time>2026-04-06T12:54:24Z</time></trkpt><trkpt lat="49.8945906" lon="14.746943"><ele>394.0</ele><time>2026-04-06T12:54:25Z</time></trkpt><trkpt lat="49.8945573" lon="14.746837"><ele>395.0</ele><time>2026-04-06T12:54:26Z</time></trkpt><trkpt lat="49.8945084" lon="14.7467232"><ele>396.0</ele><time>2026-04-06T12:54:27.001Z</time></trkpt><trkpt lat="49.8944595" lon="14.7465983"><ele>396.0</ele><time>2026-04-06T12:54:28.001Z</time></trkpt><trkpt lat="49.894406" lon="14.7464713"><ele>396.0</ele><time>2026-04-06T12:54:29Z</time></trkpt><trkpt lat="49.8943515" lon="14.7463338"><ele>396.0</ele><time>2026-04-06T12:54:30.001Z</time></trkpt><trkpt lat="49.8942975" lon="14.7461823"><ele>396.0</ele><time>2026-04-06T12:54:31Z</time></trkpt><trkpt lat="49.8942449" lon="14.7460308"><ele>396.0</ele><time>2026-04-06T12:54:32Z</time></trkpt><trkpt lat="49.894194" lon="14.7458789"><ele>394.75</ele><time>2026-04-06T12:54:33.001Z</time></trkpt><trkpt lat="49.8941392" lon="14.7457152"><ele>393.5</ele><time>2026-04-06T12:54:34.001Z</time></trkpt><trkpt lat="49.8940798" lon="14.7455471"><ele>392.25</ele><time>2026-04-06T12:54:35.001Z</time></trkpt><trkpt lat="49.8940031" lon="14.7453976"><ele>391.0</ele><time>2026-04-06T12:54:36Z</time></trkpt><trkpt lat="49.8939186" lon="14.7452619"><ele>390.8</ele><time>2026-04-06T12:54:37.001Z</time></trkpt><trkpt lat="49.8938359" lon="14.7451463"><ele>390.6</ele><time>2026-04-06T12:54:38.001Z</time></trkpt><trkpt lat="49.8937584" lon="14.7450419"><ele>390.4</ele><time>2026-04-06T12:54:39Z</time></trkpt><trkpt lat="49.8936896" lon="14.7449239"><ele>390.2</ele><time>2026-04-06T12:54:40.001Z</time></trkpt><trkpt lat="49.8936453" lon="14.7447873"><ele>390.0</ele><time>2026-04-06T12:54:41Z</time></trkpt><trkpt lat="49.8936037" lon="14.7446455"><ele>390.0</ele><time>2026-04-06T12:54:42.001Z</time></trkpt><trkpt lat="49.8935533" lon="14.7445002"><ele>390.0</ele><time>2026-04-06T12:54:43.001Z</time></trkpt><trkpt lat="49.8934888" lon="14.7443581"><ele>390.0</ele><time>2026-04-06T12:54:44Z</time></trkpt><trkpt lat="49.8934269" lon="14.744213"><ele>390.0</ele><time>2026-04-06T12:54:45Z</time></trkpt><trkpt lat="49.8933715" lon="14.7440641"><ele>390.0</ele><time>2026-04-06T12:54:46Z</time></trkpt><trkpt lat="49.8933283" lon="14.7439093"><ele>388.4</ele><time>2026-04-06T12:54:47Z</time></trkpt><trkpt lat="49.8933034" lon="14.743759"><ele>386.8</ele><time>2026-04-06T12:54:48.001Z</time></trkpt><trkpt lat="49.8933024" lon="14.7436076"><ele>385.20000000000005</ele><time>2026-04-06T12:54:49Z</time></trkpt><trkpt lat="49.8933171" lon="14.7434645"><ele>383.6</ele><time>2026-04-06T12:54:50Z</time></trkpt><trkpt lat="49.8933429" lon="14.7433265"><ele>382.0</ele><time>2026-04-06T12:54:51Z</time></trkpt><trkpt lat="49.8933644" lon="14.7431782"><ele>380.8</ele><time>2026-04-06T12:54:52Z</time></trkpt><trkpt lat="49.8933694" lon="14.7430198"><ele>379.6</ele><time>2026-04-06T12:54:53Z</time></trkpt><trkpt lat="49.8933734" lon="14.7428617"><ele>378.40000000000003</ele><time>2026-04-06T12:54:54Z</time></trkpt><trkpt lat="49.893383" lon="14.7426966"><ele>377.20000000000005</ele><time>2026-04-06T12:54:55.001Z</time></trkpt><trkpt lat="49.8933862" lon="14.7425289"><ele>376.0</ele><time>2026-04-06T12:54:56Z</time></trkpt><trkpt lat="49.8934" lon="14.7423534"><ele>375.0</ele><time>2026-04-06T12:54:57.001Z</time></trkpt><trkpt lat="49.8934169" lon="14.7421737"><ele>374.0</ele><time>2026-04-06T12:54:58Z</time></trkpt><trkpt lat="49.8934347" lon="14.7419942"><ele>373.0</ele><time>2026-04-06T12:54:59.001Z</time></trkpt><trkpt lat="49.8934663" lon="14.7418138"><ele>372.0</ele><time>2026-04-06T12:55:00.001Z</time></trkpt><trkpt lat="49.8935007" lon="14.7416299"><ele>371.0</ele><time>2026-04-06T12:55:01.001Z</time></trkpt><trkpt lat="49.8935432" lon="14.7414561"><ele>370.0</ele><time>2026-04-06T12:55:02.001Z</time></trkpt><trkpt lat="49.893598" lon="14.7412933"><ele>369.0</ele><time>2026-04-06T12:55:03Z</time></trkpt><trkpt lat="49.8936456" lon="14.7411244"><ele>368.0</ele><time>2026-04-06T12:55:04Z</time></trkpt><trkpt lat="49.8936872" lon="14.7409125"><ele>366.25</ele><time>2026-04-06T12:55:05Z</time></trkpt><trkpt lat="49.8937301" lon="14.7407007"><ele>364.5</ele><time>2026-04-06T12:55:06.001Z</time></trkpt><trkpt lat="49.8937568" lon="14.7404893"><ele>362.75</ele><time>2026-04-06T12:55:07Z</time></trkpt><trkpt lat="49.8937838" lon="14.7402783"><ele>361.0</ele><time>2026-04-06T12:55:08Z</time></trkpt><trkpt lat="49.893814" lon="14.7400645"><ele>357.66666666666663</ele><time>2026-04-06T12:55:09Z</time></trkpt><trkpt lat="49.8938588" lon="14.7398512"><ele>354.3333333333333</ele><time>2026-04-06T12:55:10.001Z</time></trkpt><trkpt lat="49.8938968" lon="14.7396056"><ele>351.0</ele><time>2026-04-06T12:55:11Z</time></trkpt><trkpt lat="49.8939121" lon="14.739378"><ele>349.25</ele><time>2026-04-06T12:55:12Z</time></trkpt><trkpt lat="49.8939413" lon="14.7391616"><ele>347.5</ele><time>2026-04-06T12:55:13Z</time></trkpt><trkpt lat="49.8939658" lon="14.7389525"><ele>345.75</ele><time>2026-04-06T12:55:14.001Z</time></trkpt><trkpt lat="49.8939978" lon="14.7387483"><ele>344.0</ele><time>2026-04-06T12:55:15Z</time></trkpt><trkpt lat="49.8940068" lon="14.7385539"><ele>341.75</ele><time>2026-04-06T12:55:16.001Z</time></trkpt><trkpt lat="49.8939968" lon="14.7383583"><ele>339.5</ele><time>2026-04-06T12:55:17Z</time></trkpt><trkpt lat="49.8940151" lon="14.7381486"><ele>337.25</ele><time>2026-04-06T12:55:18.001Z</time></trkpt><trkpt lat="49.8940506" lon="14.7379229"><ele>335.0</ele><time>2026-04-06T12:55:19.001Z</time></trkpt><trkpt lat="49.8940903" lon="14.7377285"><ele>334.4</ele><time>2026-04-06T12:55:20Z</time></trkpt><trkpt lat="49.8941338" lon="14.7375859"><ele>333.8</ele><time>2026-04-06T12:55:21Z</time></trkpt><trkpt lat="49.8941981" lon="14.7374883"><ele>333.20000000000005</ele><time>2026-04-06T12:55:22.001Z</time></trkpt><trkpt lat="49.8942779" lon="14.7374404"><ele>332.6</ele><time>2026-04-06T12:55:23.001Z</time></trkpt><trkpt lat="49.8943737" lon="14.7374435"><ele>332.0</ele><time>2026-04-06T12:55:24Z</time></trkpt><trkpt lat="49.8944512" lon="14.7374352"><ele>332.0</ele><time>2026-04-06T12:55:25Z</time></trkpt><trkpt lat="49.8945108" lon="14.7373397"><ele>332.0</ele><time>2026-04-06T12:55:26Z</time></trkpt><trkpt lat="49.894561" lon="14.7372142"><ele>332.0</ele><time>2026-04-06T12:55:27.001Z</time></trkpt><trkpt lat="49.8945824" lon="14.7370618"><ele>332.0</ele><time>2026-04-06T12:55:28.001Z</time></trkpt><trkpt lat="49.8945572" lon="14.7368784"><ele>332.0</ele><time>2026-04-06T12:55:29Z</time></trkpt><trkpt lat="49.8945113" lon="14.7367143"><ele>328.0</ele><time>2026-04-06T12:55:30.001Z</time></trkpt><trkpt lat="49.8944609" lon="14.7365708"><ele>324.0</ele><time>2026-04-06T12:55:31Z</time></trkpt><trkpt lat="49.8944218" lon="14.736421"><ele>320.0</ele><time>2026-04-06T12:55:32Z</time></trkpt><trkpt lat="49.8943854" lon="14.7362705"><ele>316.0</ele><time>2026-04-06T12:55:33Z</time></trkpt><trkpt lat="49.8943581" lon="14.7361362"><ele>312.0</ele><time>2026-04-06T12:55:34Z</time></trkpt><trkpt lat="49.8943397" lon="14.7360157"><ele>310.1666666666667</ele><time>2026-04-06T12:55:35.001Z</time></trkpt><trkpt lat="49.8943345" lon="14.7358632"><ele>308.3333333333333</ele><time>2026-04-06T12:55:37Z</time></trkpt><trkpt lat="49.8943967" lon="14.7357621"><ele>306.5</ele><time>2026-04-06T12:55:40.001Z</time></trkpt><trkpt lat="49.8945113" lon="14.735822"><ele>304.66666666666663</ele><time>2026-04-06T12:55:42Z</time></trkpt><trkpt lat="49.8945738" lon="14.7358343"><ele>302.8333333333333</ele><time>2026-04-06T12:55:43Z</time></trkpt><trkpt lat="49.8946468" lon="14.7358055"><ele>301.0</ele><time>2026-04-06T12:55:44Z</time></trkpt><trkpt lat="49.8947333" lon="14.7357537"><ele>301.0</ele><time>2026-04-06T12:55:45Z</time></trkpt><trkpt lat="49.8948129" lon="14.7356824"><ele>301.0</ele><time>2026-04-06T12:55:46.001Z</time></trkpt><trkpt lat="49.8949028" lon="14.7356191"><ele>301.0</ele><time>2026-04-06T12:55:47Z</time></trkpt><trkpt lat="49.8950041" lon="14.7355372"><ele>301.0</ele><time>2026-04-06T12:55:48Z</time></trkpt><trkpt lat="49.8951158" lon="14.7354306"><ele>301.0</ele><time>2026-04-06T12:55:49Z</time></trkpt><trkpt lat="49.8952242" lon="14.7352847"><ele>304.0</ele><time>2026-04-06T12:55:50.001Z</time></trkpt><trkpt lat="49.8953464" lon="14.7350755"><ele>307.0</ele><time>2026-04-06T12:55:51.001Z</time></trkpt><trkpt lat="49.8954635" lon="14.7348398"><ele>310.0</ele><time>2026-04-06T12:55:52Z</time></trkpt><trkpt lat="49.8955685" lon="14.7346254"><ele>310.0</ele><time>2026-04-06T12:55:53Z</time></trkpt><trkpt lat="49.8956669" lon="14.7344239"><ele>310.0</ele><time>2026-04-06T12:55:54.001Z</time></trkpt><trkpt lat="49.895766" lon="14.7342232"><ele>310.0</ele><time>2026-04-06T12:55:55Z</time></trkpt><trkpt lat="49.895866" lon="14.7340614"><ele>309.75</ele><time>2026-04-06T12:55:56Z</time></trkpt><trkpt lat="49.8959671" lon="14.733921"><ele>309.5</ele><time>2026-04-06T12:55:57.007Z</time></trkpt><trkpt lat="49.8960662" lon="14.733787"><ele>309.25</ele><time>2026-04-06T12:55:58.007Z</time></trkpt><trkpt lat="49.8961516" lon="14.7336677"><ele>309.0</ele><time>2026-04-06T12:55:59.006Z</time></trkpt><trkpt lat="49.8962306" lon="14.7335533"><ele>309.0</ele><time>2026-04-06T12:56:00.007Z</time></trkpt><trkpt lat="49.8963147" lon="14.7334441"><ele>309.0</ele><time>2026-04-06T12:56:01.006Z</time></trkpt><trkpt lat="49.8964062" lon="14.7333501"><ele>309.0</ele><time>2026-04-06T12:56:02.006Z</time></trkpt><trkpt lat="49.896508" lon="14.7332461"><ele>309.0</ele><time>2026-04-06T12:56:03.007Z</time></trkpt><trkpt lat="49.8966076" lon="14.7331202"><ele>309.0</ele><time>2026-04-06T12:56:04.007Z</time></trkpt><trkpt lat="49.8966972" lon="14.7329979"><ele>309.0</ele><time>2026-04-06T12:56:05.007Z</time></trkpt><trkpt lat="49.896774" lon="14.7328779"><ele>309.0</ele><time>2026-04-06T12:56:06.007Z</time></trkpt><trkpt lat="49.8968323" lon="14.7327561"><ele>309.0</ele><time>2026-04-06T12:56:07.006Z</time></trkpt><trkpt lat="49.8968611" lon="14.7326157"><ele>309.0</ele><time>2026-04-06T12:56:08.006Z</time></trkpt><trkpt lat="49.8968544" lon="14.7324644"><ele>308.59999999999997</ele><time>2026-04-06T12:56:09.006Z</time></trkpt><trkpt lat="49.8968284" lon="14.7323306"><ele>308.2</ele><time>2026-04-06T12:56:10.007Z</time></trkpt><trkpt lat="49.8967967" lon="14.7321941"><ele>307.79999999999995</ele><time>2026-04-06T12:56:11.007Z</time></trkpt><trkpt lat="49.8967631" lon="14.7320462"><ele>307.4</ele><time>2026-04-06T12:56:12.007Z</time></trkpt><trkpt lat="49.8967372" lon="14.7318966"><ele>307.0</ele><time>2026-04-06T12:56:13.006Z</time></trkpt><trkpt lat="49.8967343" lon="14.7317568"><ele>306.4</ele><time>2026-04-06T12:56:14.007Z</time></trkpt><trkpt lat="49.8967707" lon="14.7316294"><ele>305.79999999999995</ele><time>2026-04-06T12:56:15.006Z</time></trkpt><trkpt lat="49.8968496" lon="14.7315112"><ele>305.2</ele><time>2026-04-06T12:56:16.006Z</time></trkpt><trkpt lat="49.8969436" lon="14.7314119"><ele>304.59999999999997</ele><time>2026-04-06T12:56:17.007Z</time></trkpt><trkpt lat="49.8970509" lon="14.7312899"><ele>304.0</ele><time>2026-04-06T12:56:18.006Z</time></trkpt><trkpt lat="49.8971583" lon="14.7311602"><ele>305.25</ele><time>2026-04-06T12:56:19.007Z</time></trkpt><trkpt lat="49.8972552" lon="14.7310247"><ele>306.5</ele><time>2026-04-06T12:56:20.006Z</time></trkpt><trkpt lat="49.8973352" lon="14.7308931"><ele>307.75</ele><time>2026-04-06T12:56:21.007Z</time></trkpt><trkpt lat="49.897408" lon="14.7307528"><ele>309.0</ele><time>2026-04-06T12:56:22.006Z</time></trkpt><trkpt lat="49.8974682" lon="14.7305946"><ele>309.0</ele><time>2026-04-06T12:56:23.007Z</time></trkpt><trkpt lat="49.8975154" lon="14.7304222"><ele>309.0</ele><time>2026-04-06T12:56:24.007Z</time></trkpt><trkpt lat="49.8975626" lon="14.7302498"><ele>309.0</ele><time>2026-04-06T12:56:25.006Z</time></trkpt><trkpt lat="49.8976039" lon="14.7300814"><ele>309.0</ele><time>2026-04-06T12:56:26.007Z</time></trkpt><trkpt lat="49.8976465" lon="14.7299095"><ele>309.75</ele><time>2026-04-06T12:56:27.006Z</time></trkpt><trkpt lat="49.8976783" lon="14.7297305"><ele>310.5</ele><time>2026-04-06T12:56:28.007Z</time></trkpt><trkpt lat="49.8977174" lon="14.7295479"><ele>311.25</ele><time>2026-04-06T12:56:29.007Z</time></trkpt><trkpt lat="49.897779" lon="14.7293747"><ele>312.0</ele><time>2026-04-06T12:56:30.007Z</time></trkpt><trkpt lat="49.8978613" lon="14.72923"><ele>312.0</ele><time>2026-04-06T12:56:31.007Z</time></trkpt><trkpt lat="49.8979554" lon="14.7291234"><ele>312.0</ele><time>2026-04-06T12:56:32.006Z</time></trkpt><trkpt lat="49.8980448" lon="14.7290269"><ele>312.0</ele><time>2026-04-06T12:56:33.007Z</time></trkpt><trkpt lat="49.8981295" lon="14.7289308"><ele>312.0</ele><time>2026-04-06T12:56:34.006Z</time></trkpt><trkpt lat="49.8982196" lon="14.7288443"><ele>312.0</ele><time>2026-04-06T12:56:35.007Z</time></trkpt><trkpt lat="49.8983102" lon="14.7287766"><ele>312.0</ele><time>2026-04-06T12:56:36.007Z</time></trkpt><trkpt lat="49.8983865" lon="14.7287346"><ele>312.0</ele><time>2026-04-06T12:56:37.007Z</time></trkpt><trkpt lat="49.8984583" lon="14.7286828"><ele>312.0</ele><time>2026-04-06T12:56:38.007Z</time></trkpt><trkpt lat="49.8985219" lon="14.7286238"><ele>312.0</ele><time>2026-04-06T12:56:39.007Z</time></trkpt><trkpt lat="49.898578" lon="14.7285418"><ele>312.0</ele><time>2026-04-06T12:56:40.006Z</time></trkpt><trkpt lat="49.8986143" lon="14.7284415"><ele>312.0</ele><time>2026-04-06T12:56:41.007Z</time></trkpt><trkpt lat="49.8986055" lon="14.7283322"><ele>312.0</ele><time>2026-04-06T12:56:42.007Z</time></trkpt><trkpt lat="49.8985343" lon="14.7282537"><ele>312.0</ele><time>2026-04-06T12:56:43.007Z</time></trkpt><trkpt lat="49.8984472" lon="14.7282586"><ele>312.0</ele><time>2026-04-06T12:56:44.007Z</time></trkpt><trkpt lat="49.8983641" lon="14.7283249"><ele>312.0</ele><time>2026-04-06T12:56:45.006Z</time></trkpt><trkpt lat="49.8982941" lon="14.7284357"><ele>312.0</ele><time>2026-04-06T12:56:46.006Z</time></trkpt><trkpt lat="49.8982121" lon="14.7285679"><ele>312.0</ele><time>2026-04-06T12:56:47.006Z</time></trkpt><trkpt lat="49.898108" lon="14.7286782"><ele>312.0</ele><time>2026-04-06T12:56:48.007Z</time></trkpt><trkpt lat="49.8980146" lon="14.7287414"><ele>312.0</ele><time>2026-04-06T12:56:49.007Z</time></trkpt><trkpt lat="49.8979375" lon="14.728779"><ele>312.0</ele><time>2026-04-06T12:56:50.006Z</time></trkpt><trkpt lat="49.8978419" lon="14.7287403"><ele>312.0</ele><time>2026-04-06T12:56:52.006Z</time></trkpt><trkpt lat="49.8978092" lon="14.7285683"><ele>315.2</ele><time>2026-04-06T12:56:54.007Z</time></trkpt><trkpt lat="49.8978596" lon="14.7284935"><ele>318.4</ele><time>2026-04-06T12:56:55.007Z</time></trkpt><trkpt lat="49.8979425" lon="14.7284424"><ele>321.59999999999997</ele><time>2026-04-06T12:56:56.007Z</time></trkpt><trkpt lat="49.898034" lon="14.7284103"><ele>324.79999999999995</ele><time>2026-04-06T12:56:57.006Z</time></trkpt><trkpt lat="49.898131" lon="14.7283653"><ele>328.0</ele><time>2026-04-06T12:56:58.007Z</time></trkpt><trkpt lat="49.8982166" lon="14.7282871"><ele>328.0</ele><time>2026-04-06T12:56:59.006Z</time></trkpt><trkpt lat="49.8982698" lon="14.7281767"><ele>328.0</ele><time>2026-04-06T12:57:00.007Z</time></trkpt><trkpt lat="49.8983135" lon="14.7280604"><ele>328.0</ele><time>2026-04-06T12:57:01.006Z</time></trkpt><trkpt lat="49.8983384" lon="14.7279519"><ele>328.0</ele><time>2026-04-06T12:57:02.006Z</time></trkpt><trkpt lat="49.8983432" lon="14.7278504"><ele>328.0</ele><time>2026-04-06T12:57:03.006Z</time></trkpt><trkpt lat="49.8983333" lon="14.7277467"><ele>328.0</ele><time>2026-04-06T12:57:05.007Z</time></trkpt><trkpt lat="49.8982868" lon="14.7278493"><ele>328.0</ele><time>2026-04-06T12:57:31.007Z</time></trkpt><trkpt lat="49.8983205" lon="14.7279602"><ele>328.0</ele><time>2026-04-06T12:57:33.006Z</time></trkpt><trkpt lat="49.8982851" lon="14.7281079"><ele>328.0</ele><time>2026-04-06T12:57:36.007Z</time></trkpt><trkpt lat="49.8982427" lon="14.7281843"><ele>328.0</ele><time>2026-04-06T12:57:37.007Z</time></trkpt><trkpt lat="49.8981705" lon="14.7282764"><ele>328.0</ele><time>2026-04-06T12:57:38.007Z</time></trkpt><trkpt lat="49.8980983" lon="14.7283601"><ele>328.0</ele><time>2026-04-06T12:57:39.007Z</time></trkpt><trkpt lat="49.8980284" lon="14.7284078"><ele>328.0</ele><time>2026-04-06T12:57:40.006Z</time></trkpt><trkpt lat="49.8979557" lon="14.7284407"><ele>328.0</ele><time>2026-04-06T12:57:41.007Z</time></trkpt><trkpt lat="49.897882" lon="14.7284694"><ele>328.0</ele><time>2026-04-06T12:57:42.006Z</time></trkpt><trkpt lat="49.8977866" lon="14.7285744"><ele>328.0</ele><time>2026-04-06T12:57:44.006Z</time></trkpt><trkpt lat="49.897775" lon="14.7286752"><ele>328.0</ele><time>2026-04-06T12:57:45.006Z</time></trkpt><trkpt lat="49.8978502" lon="14.7288016"><ele>328.0</ele><time>2026-04-06T12:57:47.006Z</time></trkpt><trkpt lat="49.8979354" lon="14.7287953"><ele>328.0</ele><time>2026-04-06T12:57:48.006Z</time></trkpt><trkpt lat="49.8980418" lon="14.7287618"><ele>328.0</ele><time>2026-04-06T12:57:49.006Z</time></trkpt><trkpt lat="49.8981389" lon="14.7286958"><ele>328.0</ele><time>2026-04-06T12:57:50.007Z</time></trkpt><trkpt lat="49.8982146" lon="14.7286184"><ele>328.0</ele><time>2026-04-06T12:57:51.007Z</time></trkpt><trkpt lat="49.8982647" lon="14.7285332"><ele>328.0</ele><time>2026-04-06T12:57:52.006Z</time></trkpt><trkpt lat="49.8983078" lon="14.7284521"><ele>328.0</ele><time>2026-04-06T12:57:53.006Z</time></trkpt><trkpt lat="49.8983549" lon="14.7283657"><ele>328.0</ele><time>2026-04-06T12:57:54.006Z</time></trkpt><trkpt lat="49.8984122" lon="14.7283104"><ele>328.0</ele><time>2026-04-06T12:57:55.007Z</time></trkpt><trkpt lat="49.8984764" lon="14.7282957"><ele>328.0</ele><time>2026-04-06T12:57:56.007Z</time></trkpt><trkpt lat="49.8985381" lon="14.7283208"><ele>328.0</ele><time>2026-04-06T12:57:57.006Z</time></trkpt><trkpt lat="49.8985736" lon="14.7285061"><ele>328.0</ele><time>2026-04-06T12:57:59.007Z</time></trkpt><trkpt lat="49.8985352" lon="14.7286101"><ele>328.0</ele><time>2026-04-06T12:58:00.007Z</time></trkpt><trkpt lat="49.8984362" lon="14.7286994"><ele>324.0</ele><time>2026-04-06T12:58:01.006Z</time></trkpt><trkpt lat="49.8983143" lon="14.7287789"><ele>320.0</ele><time>2026-04-06T12:58:02.007Z</time></trkpt><trkpt lat="49.8981992" lon="14.7288543"><ele>316.0</ele><time>2026-04-06T12:58:03.006Z</time></trkpt><trkpt lat="49.8980997" lon="14.7289512"><ele>312.0</ele><time>2026-04-06T12:58:04.007Z</time></trkpt><trkpt lat="49.8980019" lon="14.7290413"><ele>312.0</ele><time>2026-04-06T12:58:05.006Z</time></trkpt><trkpt lat="49.8979033" lon="14.729138"><ele>312.0</ele><time>2026-04-06T12:58:06.007Z</time></trkpt><trkpt lat="49.897794" lon="14.7292177"><ele>312.0</ele><time>2026-04-06T12:58:07.006Z</time></trkpt><trkpt lat="49.8977348" lon="14.7293391"><ele>312.0</ele><time>2026-04-06T12:58:08.007Z</time></trkpt><trkpt lat="49.8977004" lon="14.7295217"><ele>311.25</ele><time>2026-04-06T12:58:09.007Z</time></trkpt><trkpt lat="49.8976856" lon="14.7297165"><ele>310.5</ele><time>2026-04-06T12:58:10.007Z</time></trkpt><trkpt lat="49.8976328" lon="14.7299521"><ele>309.75</ele><time>2026-04-06T12:58:11.006Z</time></trkpt><trkpt lat="49.8975818" lon="14.7301627"><ele>309.0</ele><time>2026-04-06T12:58:12.007Z</time></trkpt><trkpt lat="49.8975047" lon="14.7303646"><ele>309.0</ele><time>2026-04-06T12:58:13.007Z</time></trkpt><trkpt lat="49.8974442" lon="14.7305574"><ele>309.0</ele><time>2026-04-06T12:58:14.007Z</time></trkpt><trkpt lat="49.8973747" lon="14.7307439"><ele>309.0</ele><time>2026-04-06T12:58:15.006Z</time></trkpt><trkpt lat="49.8972854" lon="14.7308891"><ele>309.0</ele><time>2026-04-06T12:58:16.006Z</time></trkpt><trkpt lat="49.8971988" lon="14.7309997"><ele>308.0</ele><time>2026-04-06T12:58:17.007Z</time></trkpt><trkpt lat="49.8971103" lon="14.7310927"><ele>307.0</ele><time>2026-04-06T12:58:18.006Z</time></trkpt><trkpt lat="49.8970131" lon="14.7311842"><ele>306.0</ele><time>2026-04-06T12:58:19.006Z</time></trkpt><trkpt lat="49.8969304" lon="14.7312812"><ele>305.0</ele><time>2026-04-06T12:58:20.006Z</time></trkpt><trkpt lat="49.8968667" lon="14.7313817"><ele>304.0</ele><time>2026-04-06T12:58:21.007Z</time></trkpt><trkpt lat="49.8968425" lon="14.7315083"><ele>304.0</ele><time>2026-04-06T12:58:23.007Z</time></trkpt><trkpt lat="49.8969109" lon="14.7315305"><ele>304.0</ele><time>2026-04-06T12:58:25.007Z</time></trkpt><trkpt lat="49.8970088" lon="14.7314338"><ele>304.0</ele><time>2026-04-06T12:58:27.006Z</time></trkpt><trkpt lat="49.8970766" lon="14.7313568"><ele>304.0</ele><time>2026-04-06T12:58:28.007Z</time></trkpt><trkpt lat="49.8971598" lon="14.7312615"><ele>304.0</ele><time>2026-04-06T12:58:29.007Z</time></trkpt><trkpt lat="49.8972449" lon="14.7311434"><ele>305.25</ele><time>2026-04-06T12:58:30.006Z</time></trkpt><trkpt lat="49.8973316" lon="14.731018"><ele>306.5</ele><time>2026-04-06T12:58:31.006Z</time></trkpt><trkpt lat="49.897417" lon="14.7308906"><ele>307.75</ele><time>2026-04-06T12:58:32.006Z</time></trkpt><trkpt lat="49.8974979" lon="14.7307633"><ele>309.0</ele><time>2026-04-06T12:58:33.006Z</time></trkpt><trkpt lat="49.8975767" lon="14.7306534"><ele>308.0</ele><time>2026-04-06T12:58:34.007Z</time></trkpt><trkpt lat="49.8976497" lon="14.7305418"><ele>307.0</ele><time>2026-04-06T12:58:35.007Z</time></trkpt><trkpt lat="49.8977256" lon="14.7304231"><ele>306.0</ele><time>2026-04-06T12:58:36.007Z</time></trkpt><trkpt lat="49.8978044" lon="14.7303069"><ele>305.0</ele><time>2026-04-06T12:58:37.006Z</time></trkpt><trkpt lat="49.8978803" lon="14.7301938"><ele>304.0</ele><time>2026-04-06T12:58:38.006Z</time></trkpt><trkpt lat="49.8979526" lon="14.730082"><ele>304.0</ele><time>2026-04-06T12:58:39.007Z</time></trkpt><trkpt lat="49.8980202" lon="14.729972"><ele>304.0</ele><time>2026-04-06T12:58:40.007Z</time></trkpt><trkpt lat="49.8980963" lon="14.7298707"><ele>304.0</ele><time>2026-04-06T12:58:41.007Z</time></trkpt><trkpt lat="49.8981729" lon="14.7297655"><ele>304.0</ele><time>2026-04-06T12:58:42.007Z</time></trkpt><trkpt lat="49.8982485" lon="14.7296455"><ele>304.0</ele><time>2026-04-06T12:58:43.006Z</time></trkpt><trkpt lat="49.8983258" lon="14.7295241"><ele>304.0</ele><time>2026-04-06T12:58:44.007Z</time></trkpt><trkpt lat="49.8984084" lon="14.7294079"><ele>304.0</ele><time>2026-04-06T12:58:45.007Z</time></trkpt><trkpt lat="49.8984896" lon="14.7292907"><ele>304.0</ele><time>2026-04-06T12:58:46.007Z</time></trkpt><trkpt lat="49.8985598" lon="14.7291814"><ele>304.0</ele><time>2026-04-06T12:58:47.006Z</time></trkpt><trkpt lat="49.8986287" lon="14.7290778"><ele>304.0</ele><time>2026-04-06T12:58:48.007Z</time></trkpt><trkpt lat="49.898699" lon="14.728981"><ele>304.4</ele><time>2026-04-06T12:58:49.007Z</time></trkpt><trkpt lat="49.8987647" lon="14.7288828"><ele>304.79999999999995</ele><time>2026-04-06T12:58:50.006Z</time></trkpt><trkpt lat="49.8988292" lon="14.728777"><ele>305.20000000000005</ele><time>2026-04-06T12:58:51.006Z</time></trkpt><trkpt lat="49.8988831" lon="14.7286621"><ele>305.6</ele><time>2026-04-06T12:58:52.007Z</time></trkpt><trkpt lat="49.8989616" lon="14.7285508"><ele>306.0</ele><time>2026-04-06T12:58:53.007Z</time></trkpt><trkpt lat="49.8990476" lon="14.7284276"><ele>307.2</ele><time>2026-04-06T12:58:54.006Z</time></trkpt><trkpt lat="49.8991316" lon="14.7283332"><ele>308.40000000000003</ele><time>2026-04-06T12:58:55.007Z</time></trkpt><trkpt lat="49.8992076" lon="14.7282455"><ele>309.6</ele><time>2026-04-06T12:58:56.006Z</time></trkpt><trkpt lat="49.899274" lon="14.7281958"><ele>310.8</ele><time>2026-04-06T12:58:57.007Z</time></trkpt><trkpt lat="49.899379" lon="14.7282412"><ele>312.0</ele><time>2026-04-06T12:58:59.006Z</time></trkpt><trkpt lat="49.8994583" lon="14.7284131"><ele>312.8</ele><time>2026-04-06T12:59:01.007Z</time></trkpt><trkpt lat="49.8994988" lon="14.7285077"><ele>313.6</ele><time>2026-04-06T12:59:02.006Z</time></trkpt><trkpt lat="49.8995299" lon="14.7286777"><ele>314.40000000000003</ele><time>2026-04-06T12:59:04.006Z</time></trkpt><trkpt lat="49.899508" lon="14.7288165"><ele>315.2</ele><time>2026-04-06T12:59:06.007Z</time></trkpt><trkpt lat="49.8994774" lon="14.7289672"><ele>316.0</ele><time>2026-04-06T12:59:08.006Z</time></trkpt><trkpt lat="49.899447" lon="14.7291534"><ele>316.0</ele><time>2026-04-06T12:59:10.007Z</time></trkpt><trkpt lat="49.8994532" lon="14.7293043"><ele>316.0</ele><time>2026-04-06T12:59:12.007Z</time></trkpt><trkpt lat="49.8995204" lon="14.7294072"><ele>316.0</ele><time>2026-04-06T12:59:14.007Z</time></trkpt><trkpt lat="49.8996239" lon="14.729403"><ele>316.0</ele><time>2026-04-06T12:59:16.007Z</time></trkpt><trkpt lat="49.8997221" lon="14.7293016"><ele>316.0</ele><time>2026-04-06T12:59:18.006Z</time></trkpt><trkpt lat="49.8998672" lon="14.7292216"><ele>316.0</ele><time>2026-04-06T12:59:20.006Z</time></trkpt><trkpt lat="49.8999603" lon="14.7291711"><ele>316.0</ele><time>2026-04-06T12:59:21.006Z</time></trkpt><trkpt lat="49.9000554" lon="14.7291166"><ele>316.0</ele><time>2026-04-06T12:59:22.007Z</time></trkpt><trkpt lat="49.9001692" lon="14.7290624"><ele>316.0</ele><time>2026-04-06T12:59:23.006Z</time></trkpt><trkpt lat="49.9002819" lon="14.7290172"><ele>316.0</ele><time>2026-04-06T12:59:24.007Z</time></trkpt><trkpt lat="49.9003929" lon="14.7289844"><ele>318.66666666666663</ele><time>2026-04-06T12:59:25.007Z</time></trkpt><trkpt lat="49.9005318" lon="14.7289801"><ele>321.3333333333333</ele><time>2026-04-06T12:59:26.007Z</time></trkpt><trkpt lat="49.9006968" lon="14.7290041"><ele>324.0</ele><time>2026-04-06T12:59:27.006Z</time></trkpt><trkpt lat="49.9008597" lon="14.7290446"><ele>324.3333333333333</ele><time>2026-04-06T12:59:28.007Z</time></trkpt><trkpt lat="49.9010254" lon="14.7290918"><ele>324.66666666666663</ele><time>2026-04-06T12:59:29.006Z</time></trkpt><trkpt lat="49.9012016" lon="14.7291542"><ele>325.0</ele><time>2026-04-06T12:59:30.006Z</time></trkpt><trkpt lat="49.901386" lon="14.7292382"><ele>325.0</ele><time>2026-04-06T12:59:31.006Z</time></trkpt><trkpt lat="49.9015674" lon="14.729327"><ele>325.0</ele><time>2026-04-06T12:59:32.007Z</time></trkpt><trkpt lat="49.9017416" lon="14.7294089"><ele>325.0</ele><time>2026-04-06T12:59:33.007Z</time></trkpt><trkpt lat="49.901892" lon="14.7294777"><ele>324.8</ele><time>2026-04-06T12:59:34.006Z</time></trkpt><trkpt lat="49.9020146" lon="14.7295303"><ele>324.6</ele><time>2026-04-06T12:59:35.006Z</time></trkpt><trkpt lat="49.9021395" lon="14.7295868"><ele>324.4</ele><time>2026-04-06T12:59:36.007Z</time></trkpt><trkpt lat="49.9022346" lon="14.7295886"><ele>324.2</ele><time>2026-04-06T12:59:37.006Z</time></trkpt><trkpt lat="49.902311" lon="14.7296006"><ele>324.0</ele><time>2026-04-06T12:59:38.007Z</time></trkpt><trkpt lat="49.902396" lon="14.7296092"><ele>324.0</ele><time>2026-04-06T12:59:39.007Z</time></trkpt><trkpt lat="49.9024789" lon="14.7296329"><ele>324.0</ele><time>2026-04-06T12:59:40.007Z</time></trkpt><trkpt lat="49.9025777" lon="14.729658"><ele>324.0</ele><time>2026-04-06T12:59:42.007Z</time></trkpt><trkpt lat="49.902654" lon="14.7296838"><ele>324.0</ele><time>2026-04-06T12:59:44.007Z</time></trkpt><trkpt lat="49.9027336" lon="14.7297222"><ele>324.0</ele><time>2026-04-06T12:59:46.007Z</time></trkpt><trkpt lat="49.9028285" lon="14.7297488"><ele>324.0</ele><time>2026-04-06T12:59:48.007Z</time></trkpt><trkpt lat="49.9029113" lon="14.7297699"><ele>322.4</ele><time>2026-04-06T12:59:50.007Z</time></trkpt><trkpt lat="49.9029899" lon="14.7296919"><ele>320.79999999999995</ele><time>2026-04-06T12:59:52.006Z</time></trkpt><trkpt lat="49.9030836" lon="14.729597"><ele>319.20000000000005</ele><time>2026-04-06T12:59:54.006Z</time></trkpt><trkpt lat="49.9031596" lon="14.7295127"><ele>317.6</ele><time>2026-04-06T12:59:56.007Z</time></trkpt><trkpt lat="49.9032526" lon="14.7294451"><ele>316.0</ele><time>2026-04-06T12:59:58.007Z</time></trkpt><trkpt lat="49.9033351" lon="14.7294153"><ele>316.00000000000006</ele><time>2026-04-06T13:00:00.006Z</time></trkpt><trkpt lat="49.9034082" lon="14.7294019"><ele>316.0</ele><time>2026-04-06T13:00:02.006Z</time></trkpt><trkpt lat="49.903478" lon="14.7293974"><ele>316.0</ele><time>2026-04-06T13:00:04.007Z</time></trkpt><trkpt lat="49.9035325" lon="14.729348"><ele>316.0</ele><time>2026-04-06T13:00:07.006Z</time></trkpt><trkpt lat="49.9034615" lon="14.729371"><ele>316.0</ele><time>2026-04-06T13:00:27.007Z</time></trkpt><trkpt lat="49.903391" lon="14.7293975"><ele>316.00000000000006</ele><time>2026-04-06T13:00:28.006Z</time></trkpt><trkpt lat="49.9033172" lon="14.7294256"><ele>316.0</ele><time>2026-04-06T13:00:29.006Z</time></trkpt><trkpt lat="49.9032533" lon="14.7294609"><ele>316.0</ele><time>2026-04-06T13:00:30.007Z</time></trkpt><trkpt lat="49.9031969" lon="14.7295048"><ele>316.0</ele><time>2026-04-06T13:00:31.006Z</time></trkpt><trkpt lat="49.9030925" lon="14.7296044"><ele>316.0</ele><time>2026-04-06T13:00:33.007Z</time></trkpt><trkpt lat="49.9029836" lon="14.7297066"><ele>316.0</ele><time>2026-04-06T13:00:35.007Z</time></trkpt><trkpt lat="49.9028799" lon="14.7297489"><ele>316.0</ele><time>2026-04-06T13:00:37.006Z</time></trkpt><trkpt lat="49.9027702" lon="14.7297308"><ele>316.0</ele><time>2026-04-06T13:00:39.007Z</time></trkpt><trkpt lat="49.9026448" lon="14.7296651"><ele>316.0</ele><time>2026-04-06T13:00:41.007Z</time></trkpt><trkpt lat="49.9025805" lon="14.7296462"><ele>316.0</ele><time>2026-04-06T13:00:42.006Z</time></trkpt><trkpt lat="49.9024807" lon="14.7296452"><ele>316.0</ele><time>2026-04-06T13:00:44.007Z</time></trkpt><trkpt lat="49.9023777" lon="14.7296314"><ele>316.0</ele><time>2026-04-06T13:00:46.006Z</time></trkpt><trkpt lat="49.9022909" lon="14.7296127"><ele>316.0</ele><time>2026-04-06T13:00:48.006Z</time></trkpt><trkpt lat="49.9022872" lon="14.7297266"><ele>316.0</ele><time>2026-04-06T13:00:52.006Z</time></trkpt><trkpt lat="49.9023445" lon="14.7298142"><ele>316.0</ele><time>2026-04-06T13:00:54.007Z</time></trkpt><trkpt lat="49.9024778" lon="14.7299005"><ele>316.0</ele><time>2026-04-06T13:00:56.006Z</time></trkpt><trkpt lat="49.9025718" lon="14.7299464"><ele>316.0</ele><time>2026-04-06T13:00:57.006Z</time></trkpt><trkpt lat="49.9026874" lon="14.7299681"><ele>316.0</ele><time>2026-04-06T13:00:58.006Z</time></trkpt><trkpt lat="49.9028117" lon="14.7299821"><ele>316.0</ele><time>2026-04-06T13:00:59.007Z</time></trkpt><trkpt lat="49.9029376" lon="14.7299875"><ele>316.0</ele><time>2026-04-06T13:01:00.007Z</time></trkpt><trkpt lat="49.9030624" lon="14.7299984"><ele>316.0</ele><time>2026-04-06T13:01:01.006Z</time></trkpt><trkpt lat="49.9031843" lon="14.730013"><ele>316.0</ele><time>2026-04-06T13:01:02.007Z</time></trkpt><trkpt lat="49.9033036" lon="14.7300393"><ele>316.0</ele><time>2026-04-06T13:01:03.007Z</time></trkpt><trkpt lat="49.9034256" lon="14.7300535"><ele>316.0</ele><time>2026-04-06T13:01:04.006Z</time></trkpt><trkpt lat="49.9035442" lon="14.7300566"><ele>316.0</ele><time>2026-04-06T13:01:05.007Z</time></trkpt><trkpt lat="49.9036494" lon="14.7300789"><ele>317.0</ele><time>2026-04-06T13:01:06.007Z</time></trkpt><trkpt lat="49.903744" lon="14.7301101"><ele>318.0</ele><time>2026-04-06T13:01:07.007Z</time></trkpt><trkpt lat="49.9038274" lon="14.7301494"><ele>319.0</ele><time>2026-04-06T13:01:08.007Z</time></trkpt><trkpt lat="49.9039029" lon="14.7301735"><ele>320.0</ele><time>2026-04-06T13:01:09.006Z</time></trkpt><trkpt lat="49.9039679" lon="14.7301996"><ele>321.0</ele><time>2026-04-06T13:01:10.007Z</time></trkpt><trkpt lat="49.9040546" lon="14.7302279"><ele>322.0</ele><time>2026-04-06T13:01:12.007Z</time></trkpt><trkpt lat="49.9041258" lon="14.7302765"><ele>324.40000000000003</ele><time>2026-04-06T13:01:14.007Z</time></trkpt><trkpt lat="49.9042109" lon="14.7302885"><ele>326.8</ele><time>2026-04-06T13:01:17.006Z</time></trkpt><trkpt lat="49.9043023" lon="14.7303125"><ele>329.2</ele><time>2026-04-06T13:01:20.006Z</time></trkpt><trkpt lat="49.9044014" lon="14.7303479"><ele>331.6</ele><time>2026-04-06T13:01:22.006Z</time></trkpt><trkpt lat="49.9045178" lon="14.7304021"><ele>334.0</ele><time>2026-04-06T13:01:24.007Z</time></trkpt><trkpt lat="49.9045819" lon="14.7303896"><ele>334.2</ele><time>2026-04-06T13:01:25.007Z</time></trkpt><trkpt lat="49.9046835" lon="14.730385"><ele>334.4</ele><time>2026-04-06T13:01:26.007Z</time></trkpt><trkpt lat="49.9047788" lon="14.7303554"><ele>334.6</ele><time>2026-04-06T13:01:27.006Z</time></trkpt><trkpt lat="49.904869" lon="14.7303156"><ele>334.8</ele><time>2026-04-06T13:01:28.007Z</time></trkpt><trkpt lat="49.9049673" lon="14.7302885"><ele>335.0</ele><time>2026-04-06T13:01:29.006Z</time></trkpt><trkpt lat="49.9050656" lon="14.7302653"><ele>335.0</ele><time>2026-04-06T13:01:30.007Z</time></trkpt><trkpt lat="49.9051554" lon="14.7302452"><ele>335.0</ele><time>2026-04-06T13:01:31.007Z</time></trkpt><trkpt lat="49.9052385" lon="14.7302327"><ele>335.0</ele><time>2026-04-06T13:01:32.006Z</time></trkpt><trkpt lat="49.9053202" lon="14.7302348"><ele>335.0</ele><time>2026-04-06T13:01:33.006Z</time></trkpt><trkpt lat="49.9054031" lon="14.7302361"><ele>335.0</ele><time>2026-04-06T13:01:34.007Z</time></trkpt><trkpt lat="49.9054836" lon="14.7302222"><ele>335.0</ele><time>2026-04-06T13:01:35.006Z</time></trkpt><trkpt lat="49.9055696" lon="14.7302097"><ele>334.33333333333337</ele><time>2026-04-06T13:01:36.006Z</time></trkpt><trkpt lat="49.9056585" lon="14.7301949"><ele>333.6666666666667</ele><time>2026-04-06T13:01:37.006Z</time></trkpt><trkpt lat="49.905755" lon="14.7301835"><ele>333.0</ele><time>2026-04-06T13:01:38.006Z</time></trkpt><trkpt lat="49.905847" lon="14.7301835"><ele>332.3333333333333</ele><time>2026-04-06T13:01:39.006Z</time></trkpt><trkpt lat="49.905937" lon="14.7301817"><ele>331.66666666666663</ele><time>2026-04-06T13:01:40.007Z</time></trkpt><trkpt lat="49.906011" lon="14.730175"><ele>331.0</ele><time>2026-04-06T13:01:41.006Z</time></trkpt><trkpt lat="49.9061136" lon="14.73017"><ele>331.0</ele><time>2026-04-06T13:01:43.007Z</time></trkpt><trkpt lat="49.9061809" lon="14.7301188"><ele>331.0</ele><time>2026-04-06T13:01:45.007Z</time></trkpt><trkpt lat="49.9062176" lon="14.729956"><ele>331.0</ele><time>2026-04-06T13:01:47.006Z</time></trkpt><trkpt lat="49.9062479" lon="14.7298625"><ele>331.0</ele><time>2026-04-06T13:01:48.007Z</time></trkpt><trkpt lat="49.9062894" lon="14.729769"><ele>331.0</ele><time>2026-04-06T13:01:49.007Z</time></trkpt><trkpt lat="49.9063405" lon="14.7296737"><ele>331.0</ele><time>2026-04-06T13:01:50.007Z</time></trkpt><trkpt lat="49.9064082" lon="14.7295619"><ele>331.0</ele><time>2026-04-06T13:01:51.007Z</time></trkpt><trkpt lat="49.9064894" lon="14.7294164"><ele>331.0</ele><time>2026-04-06T13:01:52.006Z</time></trkpt><trkpt lat="49.9065929" lon="14.7292613"><ele>331.0</ele><time>2026-04-06T13:01:53.007Z</time></trkpt><trkpt lat="49.906694" lon="14.729099"><ele>331.0</ele><time>2026-04-06T13:01:54.006Z</time></trkpt><trkpt lat="49.9067871" lon="14.7289528"><ele>330.25</ele><time>2026-04-06T13:01:55.006Z</time></trkpt><trkpt lat="49.9068711" lon="14.7288211"><ele>329.5</ele><time>2026-04-06T13:01:56.007Z</time></trkpt><trkpt lat="49.9069571" lon="14.7286906"><ele>328.75</ele><time>2026-04-06T13:01:57.007Z</time></trkpt><trkpt lat="49.907044" lon="14.7285523"><ele>328.0</ele><time>2026-04-06T13:01:58.006Z</time></trkpt><trkpt lat="49.9071282" lon="14.7284185"><ele>328.0</ele><time>2026-04-06T13:01:59.007Z</time></trkpt><trkpt lat="49.9072114" lon="14.7282923"><ele>328.0</ele><time>2026-04-06T13:02:00.006Z</time></trkpt><trkpt lat="49.9072924" lon="14.7281896"><ele>328.0</ele><time>2026-04-06T13:02:01.006Z</time></trkpt><trkpt lat="49.9073634" lon="14.7280931"><ele>328.0</ele><time>2026-04-06T13:02:02.007Z</time></trkpt><trkpt lat="49.907432" lon="14.7280255"><ele>328.0</ele><time>2026-04-06T13:02:03.006Z</time></trkpt><trkpt lat="49.9075012" lon="14.7279704"><ele>328.0</ele><time>2026-04-06T13:02:04.006Z</time></trkpt><trkpt lat="49.9075615" lon="14.7279131"><ele>328.0</ele><time>2026-04-06T13:02:05.007Z</time></trkpt><trkpt lat="49.9076244" lon="14.7278635"><ele>328.0</ele><time>2026-04-06T13:02:06.007Z</time></trkpt><trkpt lat="49.9076918" lon="14.7278276"><ele>328.0</ele><time>2026-04-06T13:02:07.006Z</time></trkpt><trkpt lat="49.9077651" lon="14.7278116"><ele>328.0</ele><time>2026-04-06T13:02:08.006Z</time></trkpt><trkpt lat="49.9078436" lon="14.7277928"><ele>328.0</ele><time>2026-04-06T13:02:09.007Z</time></trkpt><trkpt lat="49.907928" lon="14.727762"><ele>328.0</ele><time>2026-04-06T13:02:10.007Z</time></trkpt><trkpt lat="49.9080229" lon="14.7277461"><ele>328.0</ele><time>2026-04-06T13:02:11.007Z</time></trkpt><trkpt lat="49.9081257" lon="14.7277384"><ele>328.0</ele><time>2026-04-06T13:02:12.006Z</time></trkpt><trkpt lat="49.9082368" lon="14.7277473"><ele>328.0</ele><time>2026-04-06T13:02:13.006Z</time></trkpt><trkpt lat="49.9083524" lon="14.7277852"><ele>328.0</ele><time>2026-04-06T13:02:14.007Z</time></trkpt><trkpt lat="49.9084716" lon="14.7278257"><ele>328.0</ele><time>2026-04-06T13:02:15.007Z</time></trkpt><trkpt lat="49.9085834" lon="14.7278699"><ele>328.0</ele><time>2026-04-06T13:02:16.006Z</time></trkpt><trkpt lat="49.908705" lon="14.7279161"><ele>328.0</ele><time>2026-04-06T13:02:17.006Z</time></trkpt><trkpt lat="49.9088059" lon="14.7279667"><ele>328.0</ele><time>2026-04-06T13:02:18.006Z</time></trkpt><trkpt lat="49.9089039" lon="14.7280093"><ele>328.0</ele><time>2026-04-06T13:02:19.007Z</time></trkpt><trkpt lat="49.9089867" lon="14.7280742"><ele>327.99999999999994</ele><time>2026-04-06T13:02:20.006Z</time></trkpt><trkpt lat="49.9090602" lon="14.7281124"><ele>328.0</ele><time>2026-04-06T13:02:21.007Z</time></trkpt><trkpt lat="49.9091413" lon="14.7281508"><ele>328.0</ele><time>2026-04-06T13:02:22.007Z</time></trkpt><trkpt lat="49.9092206" lon="14.7281785"><ele>328.0</ele><time>2026-04-06T13:02:23.007Z</time></trkpt><trkpt lat="49.9092885" lon="14.7282093"><ele>328.0</ele><time>2026-04-06T13:02:24.007Z</time></trkpt><trkpt lat="49.9093462" lon="14.728249"><ele>327.99999999999994</ele><time>2026-04-06T13:02:25.007Z</time></trkpt><trkpt lat="49.9094068" lon="14.7282808"><ele>328.0</ele><time>2026-04-06T13:02:26.006Z</time></trkpt><trkpt lat="49.9094653" lon="14.7283187"><ele>327.4</ele><time>2026-04-06T13:02:27.006Z</time></trkpt><trkpt lat="49.9095338" lon="14.7283598"><ele>326.79999999999995</ele><time>2026-04-06T13:02:28.006Z</time></trkpt><trkpt lat="49.9095926" lon="14.7284572"><ele>326.2</ele><time>2026-04-06T13:02:30.007Z</time></trkpt><trkpt lat="49.9096728" lon="14.7284482"><ele>325.6</ele><time>2026-04-06T13:02:32.007Z</time></trkpt><trkpt lat="49.9097872" lon="14.7284126"><ele>325.0</ele><time>2026-04-06T13:02:34.007Z</time></trkpt><trkpt lat="49.9098941" lon="14.7283764"><ele>325.0</ele><time>2026-04-06T13:02:36.007Z</time></trkpt><trkpt lat="49.9099527" lon="14.7283325"><ele>325.0</ele><time>2026-04-06T13:02:37.013Z</time></trkpt><trkpt lat="49.9100457" lon="14.7282943"><ele>325.0</ele><time>2026-04-06T13:02:39.014Z</time></trkpt><trkpt lat="49.9101222" lon="14.7282665"><ele>325.0</ele><time>2026-04-06T13:02:41.014Z</time></trkpt><trkpt lat="49.910185" lon="14.7282467"><ele>325.0</ele><time>2026-04-06T13:02:44.013Z</time></trkpt><trkpt lat="49.9101542" lon="14.7283466"><ele>325.0</ele><time>2026-04-06T13:02:48.014Z</time></trkpt><trkpt lat="49.9100504" lon="14.7283301"><ele>325.0</ele><time>2026-04-06T13:02:50.014Z</time></trkpt><trkpt lat="49.9099859" lon="14.7283482"><ele>325.0</ele><time>2026-04-06T13:02:51.014Z</time></trkpt><trkpt lat="49.9098541" lon="14.7284225"><ele>325.0</ele><time>2026-04-06T13:02:53.013Z</time></trkpt><trkpt lat="49.9097804" lon="14.7284482"><ele>325.0</ele><time>2026-04-06T13:02:54.013Z</time></trkpt><trkpt lat="49.9097146" lon="14.7284556"><ele>325.0</ele><time>2026-04-06T13:02:55.014Z</time></trkpt><trkpt lat="49.9096386" lon="14.7284547"><ele>325.0</ele><time>2026-04-06T13:02:56.014Z</time></trkpt><trkpt lat="49.9095697" lon="14.7284576"><ele>325.0</ele><time>2026-04-06T13:02:57.013Z</time></trkpt><trkpt lat="49.9094498" lon="14.728439"><ele>325.0</ele><time>2026-04-06T13:02:59.013Z</time></trkpt><trkpt lat="49.9093901" lon="14.7284059"><ele>325.0</ele><time>2026-04-06T13:03:00.013Z</time></trkpt><trkpt lat="49.9092932" lon="14.7283241"><ele>325.0</ele><time>2026-04-06T13:03:02.014Z</time></trkpt><trkpt lat="49.9092185" lon="14.7282576"><ele>325.0</ele><time>2026-04-06T13:03:04.014Z</time></trkpt><trkpt lat="49.9091175" lon="14.7282027"><ele>325.5</ele><time>2026-04-06T13:03:06.013Z</time></trkpt><trkpt lat="49.9090762" lon="14.7281177"><ele>326.0</ele><time>2026-04-06T13:03:10.014Z</time></trkpt><trkpt lat="49.9090149" lon="14.72814"><ele>326.5</ele><time>2026-04-06T13:03:28.013Z</time></trkpt><trkpt lat="49.9089583" lon="14.7280754"><ele>327.0</ele><time>2026-04-06T13:03:31.014Z</time></trkpt><trkpt lat="49.9088887" lon="14.7280139"><ele>327.5</ele><time>2026-04-06T13:03:33.014Z</time></trkpt><trkpt lat="49.9088167" lon="14.7279425"><ele>328.0</ele><time>2026-04-06T13:03:35.013Z</time></trkpt><trkpt lat="49.9087413" lon="14.7278814"><ele>328.0</ele><time>2026-04-06T13:03:37.014Z</time></trkpt><trkpt lat="49.9088069" lon="14.7279426"><ele>328.0</ele><time>2026-04-06T13:03:43.013Z</time></trkpt><trkpt lat="49.9088908" lon="14.7280208"><ele>328.0</ele><time>2026-04-06T13:03:45.013Z</time></trkpt><trkpt lat="49.9089814" lon="14.7281075"><ele>328.0</ele><time>2026-04-06T13:03:47.013Z</time></trkpt><trkpt lat="49.9090877" lon="14.728155"><ele>328.0</ele><time>2026-04-06T13:03:49.014Z</time></trkpt><trkpt lat="49.9092659" lon="14.7282007"><ele>327.4</ele><time>2026-04-06T13:03:53.013Z</time></trkpt><trkpt lat="49.9093509" lon="14.7283066"><ele>326.79999999999995</ele><time>2026-04-06T13:03:55.014Z</time></trkpt><trkpt lat="49.9094157" lon="14.7283343"><ele>326.2</ele><time>2026-04-06T13:03:56.014Z</time></trkpt><trkpt lat="49.9095208" lon="14.7284141"><ele>325.6</ele><time>2026-04-06T13:03:58.014Z</time></trkpt><trkpt lat="49.9095866" lon="14.7284273"><ele>325.0</ele><time>2026-04-06T13:03:59.014Z</time></trkpt><trkpt lat="49.9097207" lon="14.7284232"><ele>325.0</ele><time>2026-04-06T13:04:01.013Z</time></trkpt><trkpt lat="49.9097849" lon="14.728423"><ele>325.0</ele><time>2026-04-06T13:04:02.013Z</time></trkpt><trkpt lat="49.9099071" lon="14.728371"><ele>325.0</ele><time>2026-04-06T13:04:04.014Z</time></trkpt><trkpt lat="49.9099688" lon="14.7283376"><ele>325.0</ele><time>2026-04-06T13:04:05.013Z</time></trkpt><trkpt lat="49.9100379" lon="14.7283104"><ele>325.0</ele><time>2026-04-06T13:04:06.013Z</time></trkpt><trkpt lat="49.9101001" lon="14.7282876"><ele>325.0</ele><time>2026-04-06T13:04:07.014Z</time></trkpt><trkpt lat="49.9101782" lon="14.7282125"><ele>325.16666666666663</ele><time>2026-04-06T13:04:09.014Z</time></trkpt><trkpt lat="49.9102047" lon="14.7280663"><ele>325.3333333333333</ele><time>2026-04-06T13:04:11.014Z</time></trkpt><trkpt lat="49.9101852" lon="14.7278924"><ele>325.5</ele><time>2026-04-06T13:04:13.014Z</time></trkpt><trkpt lat="49.9101842" lon="14.72779"><ele>325.6666666666667</ele><time>2026-04-06T13:04:14.013Z</time></trkpt><trkpt lat="49.91018" lon="14.7276878"><ele>325.83333333333337</ele><time>2026-04-06T13:04:15.013Z</time></trkpt><trkpt lat="49.9101693" lon="14.7275803"><ele>326.0</ele><time>2026-04-06T13:04:16.013Z</time></trkpt><trkpt lat="49.9101564" lon="14.7274622"><ele>326.0</ele><time>2026-04-06T13:04:17.014Z</time></trkpt><trkpt lat="49.9101444" lon="14.7273298"><ele>326.0</ele><time>2026-04-06T13:04:18.014Z</time></trkpt><trkpt lat="49.9101278" lon="14.7271956"><ele>326.0</ele><time>2026-04-06T13:04:19.014Z</time></trkpt><trkpt lat="49.9101115" lon="14.7270657"><ele>326.0</ele><time>2026-04-06T13:04:20.014Z</time></trkpt><trkpt lat="49.9100866" lon="14.7269357"><ele>326.0</ele><time>2026-04-06T13:04:21.013Z</time></trkpt><trkpt lat="49.9100597" lon="14.7268121"><ele>326.0</ele><time>2026-04-06T13:04:22.014Z</time></trkpt><trkpt lat="49.9100278" lon="14.726702"><ele>326.0</ele><time>2026-04-06T13:04:23.013Z</time></trkpt><trkpt lat="49.9099781" lon="14.7266075"><ele>326.0</ele><time>2026-04-06T13:04:24.014Z</time></trkpt><trkpt lat="49.909831" lon="14.7264741"><ele>326.0</ele><time>2026-04-06T13:04:26.014Z</time></trkpt><trkpt lat="49.9098207" lon="14.7263635"><ele>326.0</ele><time>2026-04-06T13:04:27.013Z</time></trkpt><trkpt lat="49.9098009" lon="14.7262503"><ele>326.0</ele><time>2026-04-06T13:04:28.014Z</time></trkpt><trkpt lat="49.909811" lon="14.7261464"><ele>326.6</ele><time>2026-04-06T13:04:29.013Z</time></trkpt><trkpt lat="49.9098317" lon="14.7260416"><ele>327.20000000000005</ele><time>2026-04-06T13:04:30.013Z</time></trkpt><trkpt lat="49.9098808" lon="14.7259256"><ele>327.79999999999995</ele><time>2026-04-06T13:04:31.013Z</time></trkpt><trkpt lat="49.9099441" lon="14.7257764"><ele>328.4</ele><time>2026-04-06T13:04:32.014Z</time></trkpt><trkpt lat="49.9100119" lon="14.725609"><ele>329.0</ele><time>2026-04-06T13:04:33.014Z</time></trkpt><trkpt lat="49.9100677" lon="14.7254391"><ele>329.0</ele><time>2026-04-06T13:04:34.013Z</time></trkpt><trkpt lat="49.9101204" lon="14.7252656"><ele>329.0</ele><time>2026-04-06T13:04:35.013Z</time></trkpt><trkpt lat="49.9101628" lon="14.7250867"><ele>329.0</ele><time>2026-04-06T13:04:36.014Z</time></trkpt><trkpt lat="49.91017" lon="14.7248954"><ele>329.0</ele><time>2026-04-06T13:04:37.013Z</time></trkpt><trkpt lat="49.9101246" lon="14.724733"><ele>330.0</ele><time>2026-04-06T13:04:38.013Z</time></trkpt><trkpt lat="49.9100412" lon="14.7246201"><ele>331.0</ele><time>2026-04-06T13:04:39.013Z</time></trkpt><trkpt lat="49.9099416" lon="14.7245397"><ele>332.0</ele><time>2026-04-06T13:04:40.014Z</time></trkpt><trkpt lat="49.9098601" lon="14.7244511"><ele>333.0</ele><time>2026-04-06T13:04:41.014Z</time></trkpt><trkpt lat="49.9098065" lon="14.7243535"><ele>334.0</ele><time>2026-04-06T13:04:42.014Z</time></trkpt><trkpt lat="49.9097714" lon="14.7242694"><ele>335.0</ele><time>2026-04-06T13:04:43.013Z</time></trkpt><trkpt lat="49.9097414" lon="14.7241228"><ele>336.0</ele><time>2026-04-06T13:04:45.013Z</time></trkpt><trkpt lat="49.909754" lon="14.7240109"><ele>337.0</ele><time>2026-04-06T13:04:48.013Z</time></trkpt><trkpt lat="49.9097341" lon="14.72388"><ele>338.0</ele><time>2026-04-06T13:04:53.013Z</time></trkpt><trkpt lat="49.9096115" lon="14.7237261"><ele>339.0</ele><time>2026-04-06T13:04:55.013Z</time></trkpt><trkpt lat="49.9095155" lon="14.723633"><ele>340.0</ele><time>2026-04-06T13:04:56.014Z</time></trkpt><trkpt lat="49.9094188" lon="14.7235086"><ele>341.0</ele><time>2026-04-06T13:04:57.014Z</time></trkpt><trkpt lat="49.9093208" lon="14.7233666"><ele>342.0</ele><time>2026-04-06T13:04:58.013Z</time></trkpt><trkpt lat="49.9092205" lon="14.7232008"><ele>343.0</ele><time>2026-04-06T13:04:59.014Z</time></trkpt><trkpt lat="49.9091221" lon="14.7230118"><ele>343.0</ele><time>2026-04-06T13:05:00.014Z</time></trkpt><trkpt lat="49.9090278" lon="14.7228092"><ele>343.0</ele><time>2026-04-06T13:05:01.013Z</time></trkpt><trkpt lat="49.9089387" lon="14.7225962"><ele>343.0</ele><time>2026-04-06T13:05:02.014Z</time></trkpt><trkpt lat="49.9088574" lon="14.7223652"><ele>344.66666666666663</ele><time>2026-04-06T13:05:03.014Z</time></trkpt><trkpt lat="49.9087878" lon="14.7221173"><ele>346.3333333333333</ele><time>2026-04-06T13:05:04.013Z</time></trkpt><trkpt lat="49.9087304" lon="14.7218513"><ele>348.0</ele><time>2026-04-06T13:05:05.013Z</time></trkpt><trkpt lat="49.9086672" lon="14.7215635"><ele>349.0</ele><time>2026-04-06T13:05:06.014Z</time></trkpt><trkpt lat="49.9086364" lon="14.7212422"><ele>350.0</ele><time>2026-04-06T13:05:07.013Z</time></trkpt><trkpt lat="49.9086227" lon="14.7209285"><ele>351.0</ele><time>2026-04-06T13:05:08.013Z</time></trkpt><trkpt lat="49.9086384" lon="14.7205963"><ele>351.0</ele><time>2026-04-06T13:05:09.014Z</time></trkpt><trkpt lat="49.9086748" lon="14.7202481"><ele>351.0</ele><time>2026-04-06T13:05:10.013Z</time></trkpt><trkpt lat="49.9087295" lon="14.7198962"><ele>350.6666666666667</ele><time>2026-04-06T13:05:11.014Z</time></trkpt><trkpt lat="49.9087942" lon="14.719567"><ele>350.33333333333337</ele><time>2026-04-06T13:05:12.014Z</time></trkpt><trkpt lat="49.9088636" lon="14.7192678"><ele>350.0</ele><time>2026-04-06T13:05:13.013Z</time></trkpt><trkpt lat="49.9089341" lon="14.7189885"><ele>350.0</ele><time>2026-04-06T13:05:14.013Z</time></trkpt><trkpt lat="49.9089987" lon="14.7187373"><ele>350.0</ele><time>2026-04-06T13:05:15.014Z</time></trkpt><trkpt lat="49.9090562" lon="14.7184994"><ele>350.0</ele><time>2026-04-06T13:05:16.014Z</time></trkpt><trkpt lat="49.9091066" lon="14.7182791"><ele>350.0</ele><time>2026-04-06T13:05:17.013Z</time></trkpt><trkpt lat="49.9091528" lon="14.718077"><ele>350.0</ele><time>2026-04-06T13:05:18.013Z</time></trkpt><trkpt lat="49.9092031" lon="14.7178773"><ele>350.0</ele><time>2026-04-06T13:05:19.013Z</time></trkpt><trkpt lat="49.9092483" lon="14.717667"><ele>350.0</ele><time>2026-04-06T13:05:20.014Z</time></trkpt><trkpt lat="49.9092879" lon="14.7174461"><ele>350.0</ele><time>2026-04-06T13:05:21.014Z</time></trkpt><trkpt lat="49.9093169" lon="14.717221"><ele>350.0</ele><time>2026-04-06T13:05:22.014Z</time></trkpt><trkpt lat="49.9093384" lon="14.7169893"><ele>350.0</ele><time>2026-04-06T13:05:23.013Z</time></trkpt><trkpt lat="49.9093588" lon="14.7167624"><ele>350.0</ele><time>2026-04-06T13:05:24.013Z</time></trkpt><trkpt lat="49.9093703" lon="14.7165504"><ele>350.0</ele><time>2026-04-06T13:05:25.013Z</time></trkpt><trkpt lat="49.9093689" lon="14.7163535"><ele>350.0</ele><time>2026-04-06T13:05:26.013Z</time></trkpt><trkpt lat="49.9093656" lon="14.7161807"><ele>350.0</ele><time>2026-04-06T13:05:27.014Z</time></trkpt><trkpt lat="49.9093713" lon="14.7160222"><ele>350.0</ele><time>2026-04-06T13:05:28.013Z</time></trkpt><trkpt lat="49.9093813" lon="14.7158573"><ele>350.0</ele><time>2026-04-06T13:05:29.013Z</time></trkpt><trkpt lat="49.9093853" lon="14.7156934"><ele>350.0</ele><time>2026-04-06T13:05:30.013Z</time></trkpt><trkpt lat="49.9093771" lon="14.7155288"><ele>350.0</ele><time>2026-04-06T13:05:31.014Z</time></trkpt><trkpt lat="49.909381" lon="14.7153602"><ele>350.0</ele><time>2026-04-06T13:05:32.014Z</time></trkpt><trkpt lat="49.9094003" lon="14.7152032"><ele>350.0</ele><time>2026-04-06T13:05:33.014Z</time></trkpt><trkpt lat="49.9094347" lon="14.715048"><ele>350.0</ele><time>2026-04-06T13:05:34.013Z</time></trkpt><trkpt lat="49.909461" lon="14.7148936"><ele>350.4</ele><time>2026-04-06T13:05:35.013Z</time></trkpt><trkpt lat="49.9094975" lon="14.7147367"><ele>350.8</ele><time>2026-04-06T13:05:36.013Z</time></trkpt><trkpt lat="49.9095408" lon="14.7145925"><ele>351.20000000000005</ele><time>2026-04-06T13:05:37.013Z</time></trkpt><trkpt lat="49.9095924" lon="14.7144646"><ele>351.6</ele><time>2026-04-06T13:05:38.013Z</time></trkpt><trkpt lat="49.909638" lon="14.7143272"><ele>352.0</ele><time>2026-04-06T13:05:39.014Z</time></trkpt><trkpt lat="49.9096766" lon="14.7141824"><ele>351.20000000000005</ele><time>2026-04-06T13:05:40.013Z</time></trkpt><trkpt lat="49.9097139" lon="14.7140378"><ele>350.4</ele><time>2026-04-06T13:05:41.014Z</time></trkpt><trkpt lat="49.9097552" lon="14.7138918"><ele>349.6</ele><time>2026-04-06T13:05:42.014Z</time></trkpt><trkpt lat="49.9097944" lon="14.7137278"><ele>348.79999999999995</ele><time>2026-04-06T13:05:43.013Z</time></trkpt><trkpt lat="49.9098245" lon="14.7135539"><ele>348.0</ele><time>2026-04-06T13:05:44.013Z</time></trkpt><trkpt lat="49.909845" lon="14.7133985"><ele>348.79999999999995</ele><time>2026-04-06T13:05:45.014Z</time></trkpt><trkpt lat="49.9098641" lon="14.7132508"><ele>349.6</ele><time>2026-04-06T13:05:46.013Z</time></trkpt><trkpt lat="49.9099028" lon="14.7131309"><ele>350.4</ele><time>2026-04-06T13:05:47.014Z</time></trkpt><trkpt lat="49.9099703" lon="14.7130336"><ele>351.20000000000005</ele><time>2026-04-06T13:05:48.013Z</time></trkpt><trkpt lat="49.9100559" lon="14.7129354"><ele>352.0</ele><time>2026-04-06T13:05:49.014Z</time></trkpt><trkpt lat="49.9101462" lon="14.7128371"><ele>352.0</ele><time>2026-04-06T13:05:50.013Z</time></trkpt><trkpt lat="49.9102368" lon="14.712753"><ele>352.0</ele><time>2026-04-06T13:05:51.014Z</time></trkpt><trkpt lat="49.9103292" lon="14.7126805"><ele>352.0</ele><time>2026-04-06T13:05:52.013Z</time></trkpt><trkpt lat="49.9104222" lon="14.7126162"><ele>352.0</ele><time>2026-04-06T13:05:53.013Z</time></trkpt><trkpt lat="49.9105003" lon="14.7125236"><ele>352.0</ele><time>2026-04-06T13:05:54.013Z</time></trkpt><trkpt lat="49.9105545" lon="14.712376"><ele>350.66666666666663</ele><time>2026-04-06T13:05:55.013Z</time></trkpt><trkpt lat="49.9105791" lon="14.7122629"><ele>349.3333333333333</ele><time>2026-04-06T13:05:56.013Z</time></trkpt><trkpt lat="49.9106067" lon="14.7121539"><ele>348.0</ele><time>2026-04-06T13:05:57.014Z</time></trkpt><trkpt lat="49.9106419" lon="14.7120487"><ele>346.6666666666667</ele><time>2026-04-06T13:05:58.014Z</time></trkpt><trkpt lat="49.9106902" lon="14.7119458"><ele>345.33333333333337</ele><time>2026-04-06T13:05:59.014Z</time></trkpt><trkpt lat="49.9107499" lon="14.7118392"><ele>344.0</ele><time>2026-04-06T13:06:00.014Z</time></trkpt><trkpt lat="49.9108177" lon="14.7117294"><ele>342.5</ele><time>2026-04-06T13:06:01.013Z</time></trkpt><trkpt lat="49.9108839" lon="14.7116057"><ele>341.0</ele><time>2026-04-06T13:06:02.014Z</time></trkpt><trkpt lat="49.9109502" lon="14.7114564"><ele>339.5</ele><time>2026-04-06T13:06:03.014Z</time></trkpt><trkpt lat="49.9109937" lon="14.7112822"><ele>338.0</ele><time>2026-04-06T13:06:04.013Z</time></trkpt><trkpt lat="49.9110276" lon="14.7111127"><ele>340.0</ele><time>2026-04-06T13:06:05.014Z</time></trkpt><trkpt lat="49.9110746" lon="14.710948"><ele>342.0</ele><time>2026-04-06T13:06:06.014Z</time></trkpt><trkpt lat="49.9111273" lon="14.7107898"><ele>344.0</ele><time>2026-04-06T13:06:07.013Z</time></trkpt><trkpt lat="49.9112003" lon="14.7106469"><ele>346.0</ele><time>2026-04-06T13:06:08.013Z</time></trkpt><trkpt lat="49.9112675" lon="14.7105088"><ele>346.0</ele><time>2026-04-06T13:06:09.014Z</time></trkpt><trkpt lat="49.9113588" lon="14.7103546"><ele>346.0</ele><time>2026-04-06T13:06:10.014Z</time></trkpt><trkpt lat="49.9114472" lon="14.710193"><ele>346.0</ele><time>2026-04-06T13:06:11.014Z</time></trkpt><trkpt lat="49.9114997" lon="14.7100828"><ele>346.0</ele><time>2026-04-06T13:06:12.014Z</time></trkpt><trkpt lat="49.9115618" lon="14.7100186"><ele>346.0</ele><time>2026-04-06T13:06:13.013Z</time></trkpt><trkpt lat="49.9116513" lon="14.7099516"><ele>346.16666666666663</ele><time>2026-04-06T13:06:14.014Z</time></trkpt><trkpt lat="49.9117554" lon="14.7098898"><ele>346.3333333333333</ele><time>2026-04-06T13:06:15.014Z</time></trkpt><trkpt lat="49.9118477" lon="14.7098393"><ele>346.5</ele><time>2026-04-06T13:06:16.013Z</time></trkpt><trkpt lat="49.9119209" lon="14.7097819"><ele>346.6666666666667</ele><time>2026-04-06T13:06:17.014Z</time></trkpt><trkpt lat="49.9119748" lon="14.7097063"><ele>346.83333333333337</ele><time>2026-04-06T13:06:18.014Z</time></trkpt><trkpt lat="49.912021" lon="14.709605"><ele>347.0</ele><time>2026-04-06T13:06:19.014Z</time></trkpt><trkpt lat="49.9120824" lon="14.7094942"><ele>346.20000000000005</ele><time>2026-04-06T13:06:20.014Z</time></trkpt><trkpt lat="49.9121553" lon="14.7093813"><ele>345.4</ele><time>2026-04-06T13:06:21.013Z</time></trkpt><trkpt lat="49.9122342" lon="14.7092789"><ele>344.6</ele><time>2026-04-06T13:06:22.013Z</time></trkpt><trkpt lat="49.9123229" lon="14.7092044"><ele>343.79999999999995</ele><time>2026-04-06T13:06:23.013Z</time></trkpt><trkpt lat="49.9124253" lon="14.7091617"><ele>343.0</ele><time>2026-04-06T13:06:24.014Z</time></trkpt><trkpt lat="49.9125455" lon="14.7091123"><ele>345.5</ele><time>2026-04-06T13:06:25.013Z</time></trkpt><trkpt lat="49.9126403" lon="14.7090745"><ele>348.0</ele><time>2026-04-06T13:06:26.013Z</time></trkpt><trkpt lat="49.9127162" lon="14.7090255"><ele>350.5</ele><time>2026-04-06T13:06:27.013Z</time></trkpt><trkpt lat="49.9127884" lon="14.7089855"><ele>353.0</ele><time>2026-04-06T13:06:28.014Z</time></trkpt><trkpt lat="49.9128631" lon="14.7089284"><ele>355.5</ele><time>2026-04-06T13:06:29.014Z</time></trkpt><trkpt lat="49.9129211" lon="14.7088727"><ele>358.0</ele><time>2026-04-06T13:06:30.013Z</time></trkpt><trkpt lat="49.9129967" lon="14.7088016"><ele>358.0</ele><time>2026-04-06T13:06:32.013Z</time></trkpt><trkpt lat="49.9130481" lon="14.7087393"><ele>358.0</ele><time>2026-04-06T13:06:34.014Z</time></trkpt><trkpt lat="49.9131175" lon="14.7086239"><ele>358.0</ele><time>2026-04-06T13:06:36.013Z</time></trkpt><trkpt lat="49.9131808" lon="14.7085343"><ele>358.0</ele><time>2026-04-06T13:06:37.014Z</time></trkpt><trkpt lat="49.9132467" lon="14.708444"><ele>358.0</ele><time>2026-04-06T13:06:38.013Z</time></trkpt><trkpt lat="49.9133137" lon="14.7083451"><ele>358.0</ele><time>2026-04-06T13:06:39.013Z</time></trkpt><trkpt lat="49.9133809" lon="14.708239"><ele>358.59999999999997</ele><time>2026-04-06T13:06:40.014Z</time></trkpt><trkpt lat="49.9134436" lon="14.7081303"><ele>359.2</ele><time>2026-04-06T13:06:41.014Z</time></trkpt><trkpt lat="49.9135127" lon="14.7080422"><ele>359.8</ele><time>2026-04-06T13:06:42.013Z</time></trkpt><trkpt lat="49.9135889" lon="14.7079847"><ele>360.4</ele><time>2026-04-06T13:06:43.013Z</time></trkpt><trkpt lat="49.9136768" lon="14.7079357"><ele>361.0</ele><time>2026-04-06T13:06:44.013Z</time></trkpt><trkpt lat="49.9137832" lon="14.7078838"><ele>361.0</ele><time>2026-04-06T13:06:45.013Z</time></trkpt><trkpt lat="49.9139064" lon="14.7078256"><ele>361.0</ele><time>2026-04-06T13:06:46.013Z</time></trkpt><trkpt lat="49.9140458" lon="14.7077542"><ele>361.0</ele><time>2026-04-06T13:06:47.013Z</time></trkpt><trkpt lat="49.914181" lon="14.7076853"><ele>361.0</ele><time>2026-04-06T13:06:48.014Z</time></trkpt><trkpt lat="49.9143035" lon="14.7076225"><ele>361.0</ele><time>2026-04-06T13:06:49.014Z</time></trkpt><trkpt lat="49.9144165" lon="14.7075576"><ele>361.0</ele><time>2026-04-06T13:06:50.013Z</time></trkpt><trkpt lat="49.9145235" lon="14.7074939"><ele>361.0</ele><time>2026-04-06T13:06:51.013Z</time></trkpt><trkpt lat="49.914623" lon="14.7074106"><ele>361.0</ele><time>2026-04-06T13:06:52.013Z</time></trkpt><trkpt lat="49.9147231" lon="14.707332"><ele>361.0</ele><time>2026-04-06T13:06:53.013Z</time></trkpt><trkpt lat="49.9148231" lon="14.7072176"><ele>361.0</ele><time>2026-04-06T13:06:54.014Z</time></trkpt><trkpt lat="49.9149125" lon="14.7071084"><ele>361.0</ele><time>2026-04-06T13:06:55.014Z</time></trkpt><trkpt lat="49.9149966" lon="14.7070129"><ele>361.0</ele><time>2026-04-06T13:06:56.014Z</time></trkpt><trkpt lat="49.9150907" lon="14.7069401"><ele>361.0</ele><time>2026-04-06T13:06:57.014Z</time></trkpt><trkpt lat="49.9151885" lon="14.7068726"><ele>360.20000000000005</ele><time>2026-04-06T13:06:58.014Z</time></trkpt><trkpt lat="49.9152856" lon="14.7068151"><ele>359.40000000000003</ele><time>2026-04-06T13:06:59.013Z</time></trkpt><trkpt lat="49.9153814" lon="14.7067718"><ele>358.6</ele><time>2026-04-06T13:07:00.013Z</time></trkpt><trkpt lat="49.9154752" lon="14.7067378"><ele>357.8</ele><time>2026-04-06T13:07:01.014Z</time></trkpt><trkpt lat="49.9155709" lon="14.7067044"><ele>357.0</ele><time>2026-04-06T13:07:02.013Z</time></trkpt><trkpt lat="49.9156707" lon="14.7066773"><ele>357.0</ele><time>2026-04-06T13:07:03.013Z</time></trkpt><trkpt lat="49.915778" lon="14.706674"><ele>357.0</ele><time>2026-04-06T13:07:04.013Z</time></trkpt><trkpt lat="49.9158928" lon="14.7066928"><ele>357.0</ele><time>2026-04-06T13:07:05.013Z</time></trkpt><trkpt lat="49.916012" lon="14.7067612"><ele>357.0</ele><time>2026-04-06T13:07:06.014Z</time></trkpt><trkpt lat="49.9161501" lon="14.7068297"><ele>357.3333333333333</ele><time>2026-04-06T13:07:07.013Z</time></trkpt><trkpt lat="49.9162988" lon="14.7068653"><ele>357.66666666666663</ele><time>2026-04-06T13:07:08.013Z</time></trkpt><trkpt lat="49.9164803" lon="14.706908"><ele>358.0</ele><time>2026-04-06T13:07:09.014Z</time></trkpt><trkpt lat="49.9166535" lon="14.7069657"><ele>361.0</ele><time>2026-04-06T13:07:10.014Z</time></trkpt><trkpt lat="49.9168321" lon="14.7070164"><ele>364.0</ele><time>2026-04-06T13:07:11.013Z</time></trkpt><trkpt lat="49.9170043" lon="14.707071"><ele>367.0</ele><time>2026-04-06T13:07:12.013Z</time></trkpt><trkpt lat="49.9171666" lon="14.7071047"><ele>367.0</ele><time>2026-04-06T13:07:13.013Z</time></trkpt><trkpt lat="49.9173127" lon="14.707114"><ele>367.0</ele><time>2026-04-06T13:07:14.013Z</time></trkpt><trkpt lat="49.9174053" lon="14.707163"><ele>367.0</ele><time>2026-04-06T13:07:15.014Z</time></trkpt><trkpt lat="49.9175168" lon="14.7071556"><ele>367.0</ele><time>2026-04-06T13:07:16.014Z</time></trkpt><trkpt lat="49.917636" lon="14.7071088"><ele>367.0</ele><time>2026-04-06T13:07:17.013Z</time></trkpt><trkpt lat="49.9177612" lon="14.7070548"><ele>367.0</ele><time>2026-04-06T13:07:18.014Z</time></trkpt><trkpt lat="49.9178887" lon="14.7069808"><ele>367.0</ele><time>2026-04-06T13:07:19.014Z</time></trkpt><trkpt lat="49.9179825" lon="14.7069363"><ele>367.0</ele><time>2026-04-06T13:07:20.014Z</time></trkpt><trkpt lat="49.9180517" lon="14.7068698"><ele>367.0</ele><time>2026-04-06T13:07:21.014Z</time></trkpt><trkpt lat="49.9181119" lon="14.7067931"><ele>367.0</ele><time>2026-04-06T13:07:22.013Z</time></trkpt><trkpt lat="49.9181923" lon="14.7066764"><ele>367.0</ele><time>2026-04-06T13:07:23.013Z</time></trkpt><trkpt lat="49.918245" lon="14.7065311"><ele>367.0</ele><time>2026-04-06T13:07:24.014Z</time></trkpt><trkpt lat="49.9182829" lon="14.7063536"><ele>367.0</ele><time>2026-04-06T13:07:25.014Z</time></trkpt><trkpt lat="49.9183226" lon="14.7061932"><ele>367.0</ele><time>2026-04-06T13:07:26.014Z</time></trkpt><trkpt lat="49.9183743" lon="14.706082"><ele>367.20000000000005</ele><time>2026-04-06T13:07:27.013Z</time></trkpt><trkpt lat="49.9184424" lon="14.706009"><ele>367.4</ele><time>2026-04-06T13:07:28.014Z</time></trkpt><trkpt lat="49.9185238" lon="14.705965"><ele>367.6</ele><time>2026-04-06T13:07:29.013Z</time></trkpt><trkpt lat="49.9186347" lon="14.705922"><ele>367.79999999999995</ele><time>2026-04-06T13:07:30.014Z</time></trkpt><trkpt lat="49.9187604" lon="14.7058498"><ele>368.0</ele><time>2026-04-06T13:07:31.014Z</time></trkpt><trkpt lat="49.918878" lon="14.7057727"><ele>368.0</ele><time>2026-04-06T13:07:32.014Z</time></trkpt><trkpt lat="49.9189894" lon="14.7057083"><ele>368.0</ele><time>2026-04-06T13:07:33.014Z</time></trkpt><trkpt lat="49.9191" lon="14.7056629"><ele>368.0</ele><time>2026-04-06T13:07:34.014Z</time></trkpt><trkpt lat="49.9192114" lon="14.7056381"><ele>368.0</ele><time>2026-04-06T13:07:35.013Z</time></trkpt><trkpt lat="49.9193329" lon="14.7056054"><ele>370.6666666666667</ele><time>2026-04-06T13:07:36.014Z</time></trkpt><trkpt lat="49.9194649" lon="14.7055346"><ele>373.3333333333333</ele><time>2026-04-06T13:07:37.013Z</time></trkpt><trkpt lat="49.9196092" lon="14.7054294"><ele>376.0</ele><time>2026-04-06T13:07:38.014Z</time></trkpt><trkpt lat="49.9197623" lon="14.705317"><ele>377.66666666666663</ele><time>2026-04-06T13:07:39.014Z</time></trkpt><trkpt lat="49.9199108" lon="14.7051953"><ele>379.3333333333333</ele><time>2026-04-06T13:07:40.014Z</time></trkpt><trkpt lat="49.9200464" lon="14.7050862"><ele>381.0</ele><time>2026-04-06T13:07:41.013Z</time></trkpt><trkpt lat="49.920165" lon="14.7049751"><ele>381.0</ele><time>2026-04-06T13:07:42.013Z</time></trkpt><trkpt lat="49.9202511" lon="14.7048562"><ele>381.0</ele><time>2026-04-06T13:07:43.014Z</time></trkpt><trkpt lat="49.9203134" lon="14.7047434"><ele>381.0</ele><time>2026-04-06T13:07:44.013Z</time></trkpt><trkpt lat="49.9203883" lon="14.7046109"><ele>381.0</ele><time>2026-04-06T13:07:45.013Z</time></trkpt><trkpt lat="49.9204668" lon="14.7044355"><ele>378.5</ele><time>2026-04-06T13:07:46.013Z</time></trkpt><trkpt lat="49.9205317" lon="14.7042465"><ele>376.0</ele><time>2026-04-06T13:07:47.013Z</time></trkpt><trkpt lat="49.9206131" lon="14.7040837"><ele>373.5</ele><time>2026-04-06T13:07:48.013Z</time></trkpt><trkpt lat="49.9206877" lon="14.703947"><ele>371.0</ele><time>2026-04-06T13:07:49.013Z</time></trkpt><trkpt lat="49.9207687" lon="14.7038556"><ele>371.0</ele><time>2026-04-06T13:07:50.013Z</time></trkpt><trkpt lat="49.9208525" lon="14.7037573"><ele>371.0</ele><time>2026-04-06T13:07:51.013Z</time></trkpt><trkpt lat="49.920948" lon="14.70364"><ele>371.0</ele><time>2026-04-06T13:07:52.014Z</time></trkpt><trkpt lat="49.9210637" lon="14.7035438"><ele>371.0</ele><time>2026-04-06T13:07:53.013Z</time></trkpt><trkpt lat="49.9211759" lon="14.7034666"><ele>371.0</ele><time>2026-04-06T13:07:54.013Z</time></trkpt><trkpt lat="49.9212775" lon="14.7033968"><ele>371.0</ele><time>2026-04-06T13:07:55.014Z</time></trkpt><trkpt lat="49.9213549" lon="14.7032993"><ele>371.0</ele><time>2026-04-06T13:07:56.013Z</time></trkpt><trkpt lat="49.9214281" lon="14.7032043"><ele>371.0</ele><time>2026-04-06T13:07:57.014Z</time></trkpt><trkpt lat="49.9214838" lon="14.7030979"><ele>371.0</ele><time>2026-04-06T13:07:58.013Z</time></trkpt><trkpt lat="49.9215419" lon="14.7029966"><ele>371.0</ele><time>2026-04-06T13:07:59.014Z</time></trkpt><trkpt lat="49.9216017" lon="14.7029104"><ele>371.0</ele><time>2026-04-06T13:08:00.014Z</time></trkpt><trkpt lat="49.9216847" lon="14.7028211"><ele>371.0</ele><time>2026-04-06T13:08:01.014Z</time></trkpt><trkpt lat="49.9217885" lon="14.7027749"><ele>371.0</ele><time>2026-04-06T13:08:02.014Z</time></trkpt><trkpt lat="49.9219006" lon="14.7027339"><ele>371.0</ele><time>2026-04-06T13:08:03.013Z</time></trkpt><trkpt lat="49.9220145" lon="14.7026946"><ele>370.8</ele><time>2026-04-06T13:08:04.013Z</time></trkpt><trkpt lat="49.9221154" lon="14.7026584"><ele>370.6</ele><time>2026-04-06T13:08:05.014Z</time></trkpt><trkpt lat="49.9222214" lon="14.7026431"><ele>370.4</ele><time>2026-04-06T13:08:06.014Z</time></trkpt><trkpt lat="49.9223322" lon="14.7026311"><ele>370.2</ele><time>2026-04-06T13:08:07.013Z</time></trkpt><trkpt lat="49.9224591" lon="14.7026256"><ele>370.0</ele><time>2026-04-06T13:08:08.014Z</time></trkpt><trkpt lat="49.9225633" lon="14.7025591"><ele>371.25</ele><time>2026-04-06T13:08:09.013Z</time></trkpt><trkpt lat="49.9226643" lon="14.7024755"><ele>372.5</ele><time>2026-04-06T13:08:10.013Z</time></trkpt><trkpt lat="49.9227556" lon="14.7023841"><ele>373.75</ele><time>2026-04-06T13:08:11.014Z</time></trkpt><trkpt lat="49.9228682" lon="14.7022925"><ele>375.0</ele><time>2026-04-06T13:08:12.014Z</time></trkpt><trkpt lat="49.9229914" lon="14.7022248"><ele>375.0</ele><time>2026-04-06T13:08:13.014Z</time></trkpt><trkpt lat="49.9231133" lon="14.7021823"><ele>375.0</ele><time>2026-04-06T13:08:14.013Z</time></trkpt><trkpt lat="49.9232112" lon="14.7021224"><ele>375.0</ele><time>2026-04-06T13:08:15.013Z</time></trkpt><trkpt lat="49.9232949" lon="14.7020455"><ele>375.0</ele><time>2026-04-06T13:08:16.014Z</time></trkpt><trkpt lat="49.9233805" lon="14.7019577"><ele>375.0</ele><time>2026-04-06T13:08:17.014Z</time></trkpt><trkpt lat="49.923452" lon="14.7018795"><ele>374.6</ele><time>2026-04-06T13:08:18.013Z</time></trkpt><trkpt lat="49.9235031" lon="14.7018179"><ele>374.2</ele><time>2026-04-06T13:08:19.014Z</time></trkpt><trkpt lat="49.9236003" lon="14.7017117"><ele>373.79999999999995</ele><time>2026-04-06T13:08:21.014Z</time></trkpt><trkpt lat="49.9236837" lon="14.701649"><ele>373.4</ele><time>2026-04-06T13:08:23.013Z</time></trkpt><trkpt lat="49.92376" lon="14.7015853"><ele>373.0</ele><time>2026-04-06T13:08:25.013Z</time></trkpt><trkpt lat="49.9238363" lon="14.7015054"><ele>373.0</ele><time>2026-04-06T13:08:27.014Z</time></trkpt><trkpt lat="49.9239409" lon="14.7013879"><ele>373.0</ele><time>2026-04-06T13:08:29.014Z</time></trkpt><trkpt lat="49.9239991" lon="14.7013256"><ele>373.0</ele><time>2026-04-06T13:08:30.014Z</time></trkpt><trkpt lat="49.9240629" lon="14.7012675"><ele>373.0</ele><time>2026-04-06T13:08:31.013Z</time></trkpt><trkpt lat="49.9241454" lon="14.7011567"><ele>373.0</ele><time>2026-04-06T13:08:33.014Z</time></trkpt><trkpt lat="49.9241915" lon="14.7010872"><ele>373.0</ele><time>2026-04-06T13:08:34.013Z</time></trkpt><trkpt lat="49.9243026" lon="14.7010448"><ele>373.0</ele><time>2026-04-06T13:08:36.013Z</time></trkpt><trkpt lat="49.9243467" lon="14.7009513"><ele>373.0</ele><time>2026-04-06T13:08:39.013Z</time></trkpt><trkpt lat="49.9243035" lon="14.7010288"><ele>373.0</ele><time>2026-04-06T13:08:46.014Z</time></trkpt><trkpt lat="49.9241671" lon="14.7011734"><ele>373.0</ele><time>2026-04-06T13:08:48.014Z</time></trkpt><trkpt lat="49.9240341" lon="14.7013002"><ele>373.0</ele><time>2026-04-06T13:08:49.013Z</time></trkpt><trkpt lat="49.9238861" lon="14.701428"><ele>373.0</ele><time>2026-04-06T13:08:50.014Z</time></trkpt><trkpt lat="49.9237573" lon="14.7015518"><ele>373.0</ele><time>2026-04-06T13:08:51.014Z</time></trkpt><trkpt lat="49.9236315" lon="14.7016672"><ele>373.0</ele><time>2026-04-06T13:08:52.014Z</time></trkpt><trkpt lat="49.9235074" lon="14.7017857"><ele>373.0</ele><time>2026-04-06T13:08:53.013Z</time></trkpt><trkpt lat="49.9233908" lon="14.7019163"><ele>373.0</ele><time>2026-04-06T13:08:54.013Z</time></trkpt><trkpt lat="49.9232812" lon="14.702035"><ele>373.0</ele><time>2026-04-06T13:08:55.014Z</time></trkpt><trkpt lat="49.923176" lon="14.7021386"><ele>373.5</ele><time>2026-04-06T13:08:56.014Z</time></trkpt><trkpt lat="49.9230707" lon="14.7022126"><ele>374.0</ele><time>2026-04-06T13:08:57.013Z</time></trkpt><trkpt lat="49.9229668" lon="14.7022634"><ele>374.5</ele><time>2026-04-06T13:08:58.014Z</time></trkpt><trkpt lat="49.9228472" lon="14.7023172"><ele>375.0</ele><time>2026-04-06T13:08:59.013Z</time></trkpt><trkpt lat="49.9227227" lon="14.7023915"><ele>375.0</ele><time>2026-04-06T13:09:00.013Z</time></trkpt><trkpt lat="49.9226086" lon="14.7025"><ele>375.0</ele><time>2026-04-06T13:09:01.014Z</time></trkpt><trkpt lat="49.9224996" lon="14.7025998"><ele>375.0</ele><time>2026-04-06T13:09:02.014Z</time></trkpt><trkpt lat="49.9223894" lon="14.7026465"><ele>375.0</ele><time>2026-04-06T13:09:03.013Z</time></trkpt><trkpt lat="49.9222673" lon="14.7026525"><ele>375.5</ele><time>2026-04-06T13:09:04.014Z</time></trkpt><trkpt lat="49.9221332" lon="14.7026765"><ele>376.0</ele><time>2026-04-06T13:09:05.013Z</time></trkpt><trkpt lat="49.9220032" lon="14.7027083"><ele>376.5</ele><time>2026-04-06T13:09:06.013Z</time></trkpt><trkpt lat="49.9218934" lon="14.7027593"><ele>377.0</ele><time>2026-04-06T13:09:07.014Z</time></trkpt><trkpt lat="49.9217955" lon="14.7028124"><ele>375.8</ele><time>2026-04-06T13:09:08.013Z</time></trkpt><trkpt lat="49.9217057" lon="14.7028613"><ele>374.6</ele><time>2026-04-06T13:09:09.013Z</time></trkpt><trkpt lat="49.9216207" lon="14.7029147"><ele>373.40000000000003</ele><time>2026-04-06T13:09:10.014Z</time></trkpt><trkpt lat="49.921545" lon="14.7029845"><ele>372.20000000000005</ele><time>2026-04-06T13:09:11.014Z</time></trkpt><trkpt lat="49.921486" lon="14.7030848"><ele>371.0</ele><time>2026-04-06T13:09:12.013Z</time></trkpt><trkpt lat="49.9214378" lon="14.7031991"><ele>371.0</ele><time>2026-04-06T13:09:13.013Z</time></trkpt><trkpt lat="49.9213872" lon="14.7033044"><ele>371.0</ele><time>2026-04-06T13:09:14.013Z</time></trkpt><trkpt lat="49.9213221" lon="14.7033843"><ele>371.0</ele><time>2026-04-06T13:09:15.013Z</time></trkpt><trkpt lat="49.9212451" lon="14.7034493"><ele>371.0</ele><time>2026-04-06T13:09:16.014Z</time></trkpt><trkpt lat="49.9211542" lon="14.7035048"><ele>371.0</ele><time>2026-04-06T13:09:17.02Z</time></trkpt><trkpt lat="49.921057" lon="14.7035652"><ele>371.0</ele><time>2026-04-06T13:09:18.019Z</time></trkpt><trkpt lat="49.920962" lon="14.7036298"><ele>371.0</ele><time>2026-04-06T13:09:19.02Z</time></trkpt><trkpt lat="49.9208785" lon="14.7037158"><ele>371.0</ele><time>2026-04-06T13:09:20.02Z</time></trkpt><trkpt lat="49.9208047" lon="14.703802"><ele>371.0</ele><time>2026-04-06T13:09:21.02Z</time></trkpt><trkpt lat="49.9207375" lon="14.7038794"><ele>371.0</ele><time>2026-04-06T13:09:22.019Z</time></trkpt><trkpt lat="49.9206723" lon="14.7039624"><ele>371.0</ele><time>2026-04-06T13:09:23.019Z</time></trkpt><trkpt lat="49.9206042" lon="14.704068"><ele>371.0</ele><time>2026-04-06T13:09:24.02Z</time></trkpt><trkpt lat="49.9205479" lon="14.7042035"><ele>371.0</ele><time>2026-04-06T13:09:25.02Z</time></trkpt><trkpt lat="49.9204801" lon="14.7043066"><ele>371.0</ele><time>2026-04-06T13:09:26.02Z</time></trkpt><trkpt lat="49.9204086" lon="14.7043675"><ele>371.0</ele><time>2026-04-06T13:09:27.02Z</time></trkpt><trkpt lat="49.9203461" lon="14.7044308"><ele>370.14285714285717</ele><time>2026-04-06T13:09:28.02Z</time></trkpt><trkpt lat="49.9202761" lon="14.7045014"><ele>369.2857142857143</ele><time>2026-04-06T13:09:29.02Z</time></trkpt><trkpt lat="49.9202118" lon="14.7045619"><ele>368.42857142857144</ele><time>2026-04-06T13:09:30.02Z</time></trkpt><trkpt lat="49.9201523" lon="14.7046141"><ele>367.57142857142856</ele><time>2026-04-06T13:09:31.02Z</time></trkpt><trkpt lat="49.9200856" lon="14.7046296"><ele>366.7142857142857</ele><time>2026-04-06T13:09:32.019Z</time></trkpt><trkpt lat="49.9200231" lon="14.7046136"><ele>365.8571428571429</ele><time>2026-04-06T13:09:33.02Z</time></trkpt><trkpt lat="49.919964" lon="14.7045753"><ele>365.0</ele><time>2026-04-06T13:09:34.019Z</time></trkpt><trkpt lat="49.9199046" lon="14.7045308"><ele>365.0</ele><time>2026-04-06T13:09:35.019Z</time></trkpt><trkpt lat="49.9198363" lon="14.7045026"><ele>365.0</ele><time>2026-04-06T13:09:36.019Z</time></trkpt><trkpt lat="49.9197457" lon="14.704468"><ele>365.0</ele><time>2026-04-06T13:09:37.019Z</time></trkpt><trkpt lat="49.9196374" lon="14.7044026"><ele>365.0</ele><time>2026-04-06T13:09:38.019Z</time></trkpt><trkpt lat="49.9195535" lon="14.7043329"><ele>365.0</ele><time>2026-04-06T13:09:39.02Z</time></trkpt><trkpt lat="49.9195" lon="14.7042537"><ele>365.0</ele><time>2026-04-06T13:09:41.02Z</time></trkpt><trkpt lat="49.9195623" lon="14.7041742"><ele>364.0</ele><time>2026-04-06T13:09:44.02Z</time></trkpt><trkpt lat="49.9196568" lon="14.7041136"><ele>363.0</ele><time>2026-04-06T13:09:46.019Z</time></trkpt><trkpt lat="49.9197183" lon="14.7040385"><ele>362.0</ele><time>2026-04-06T13:09:47.019Z</time></trkpt><trkpt lat="49.9197672" lon="14.7039532"><ele>361.0</ele><time>2026-04-06T13:09:48.019Z</time></trkpt><trkpt lat="49.919812" lon="14.7038839"><ele>360.0</ele><time>2026-04-06T13:09:49.02Z</time></trkpt><trkpt lat="49.9199051" lon="14.7037761"><ele>359.0</ele><time>2026-04-06T13:09:51.02Z</time></trkpt><trkpt lat="49.9199816" lon="14.7036389"><ele>359.6666666666667</ele><time>2026-04-06T13:09:53.02Z</time></trkpt><trkpt lat="49.9200576" lon="14.7035271"><ele>360.33333333333337</ele><time>2026-04-06T13:09:55.02Z</time></trkpt><trkpt lat="49.920094" lon="14.7034274"><ele>361.0</ele><time>2026-04-06T13:09:57.02Z</time></trkpt><trkpt lat="49.9201474" lon="14.7033676"><ele>361.6666666666667</ele><time>2026-04-06T13:09:59.02Z</time></trkpt><trkpt lat="49.9202401" lon="14.7033373"><ele>362.3333333333333</ele><time>2026-04-06T13:10:01.02Z</time></trkpt><trkpt lat="49.9203346" lon="14.7032859"><ele>363.0</ele><time>2026-04-06T13:10:03.02Z</time></trkpt><trkpt lat="49.9204095" lon="14.7032509"><ele>363.4</ele><time>2026-04-06T13:10:05.02Z</time></trkpt><trkpt lat="49.9205037" lon="14.7031727"><ele>363.79999999999995</ele><time>2026-04-06T13:10:07.02Z</time></trkpt><trkpt lat="49.9205606" lon="14.7031286"><ele>364.2</ele><time>2026-04-06T13:10:08.02Z</time></trkpt><trkpt lat="49.9206398" lon="14.7030414"><ele>364.6</ele><time>2026-04-06T13:10:10.019Z</time></trkpt><trkpt lat="49.9207056" lon="14.7029164"><ele>365.0</ele><time>2026-04-06T13:10:12.019Z</time></trkpt><trkpt lat="49.9207702" lon="14.7027843"><ele>365.6666666666667</ele><time>2026-04-06T13:10:14.02Z</time></trkpt><trkpt lat="49.9208094" lon="14.7026747"><ele>366.33333333333337</ele><time>2026-04-06T13:10:16.019Z</time></trkpt><trkpt lat="49.9208285" lon="14.7025677"><ele>367.0</ele><time>2026-04-06T13:10:18.019Z</time></trkpt><trkpt lat="49.9208504" lon="14.7024567"><ele>367.6666666666667</ele><time>2026-04-06T13:10:20.019Z</time></trkpt><trkpt lat="49.9209271" lon="14.702356"><ele>368.3333333333333</ele><time>2026-04-06T13:10:31.02Z</time></trkpt><trkpt lat="49.9210119" lon="14.7022793"><ele>369.0</ele><time>2026-04-06T13:10:33.02Z</time></trkpt><trkpt lat="49.9210913" lon="14.7022019"><ele>369.0</ele><time>2026-04-06T13:10:34.02Z</time></trkpt><trkpt lat="49.92119" lon="14.7021034"><ele>369.0</ele><time>2026-04-06T13:10:35.02Z</time></trkpt><trkpt lat="49.921264" lon="14.7020212"><ele>369.0</ele><time>2026-04-06T13:10:36.02Z</time></trkpt><trkpt lat="49.9213334" lon="14.7019415"><ele>369.0</ele><time>2026-04-06T13:10:37.02Z</time></trkpt><trkpt lat="49.9213983" lon="14.7018581"><ele>369.0</ele><time>2026-04-06T13:10:39.02Z</time></trkpt><trkpt lat="49.9214676" lon="14.7017701"><ele>369.1666666666667</ele><time>2026-04-06T13:10:42.02Z</time></trkpt><trkpt lat="49.9215438" lon="14.701753"><ele>369.3333333333333</ele><time>2026-04-06T13:10:44.02Z</time></trkpt><trkpt lat="49.9216174" lon="14.7018028"><ele>369.5</ele><time>2026-04-06T13:10:46.02Z</time></trkpt><trkpt lat="49.9216839" lon="14.7018484"><ele>369.66666666666663</ele><time>2026-04-06T13:10:48.02Z</time></trkpt><trkpt lat="49.9217541" lon="14.7018883"><ele>369.8333333333333</ele><time>2026-04-06T13:10:51.019Z</time></trkpt><trkpt lat="49.9218308" lon="14.7019241"><ele>370.0</ele><time>2026-04-06T13:10:54.019Z</time></trkpt><trkpt lat="49.9219068" lon="14.7020306"><ele>370.0</ele><time>2026-04-06T13:11:07.019Z</time></trkpt><trkpt lat="49.9219464" lon="14.702116"><ele>370.0</ele><time>2026-04-06T13:11:08.02Z</time></trkpt><trkpt lat="49.9219953" lon="14.7022843"><ele>370.0</ele><time>2026-04-06T13:11:10.02Z</time></trkpt><trkpt lat="49.9219909" lon="14.7024037"><ele>370.0</ele><time>2026-04-06T13:11:13.019Z</time></trkpt><trkpt lat="49.9220481" lon="14.7024734"><ele>370.0</ele><time>2026-04-06T13:11:16.02Z</time></trkpt><trkpt lat="49.9221106" lon="14.7025364"><ele>370.0</ele><time>2026-04-06T13:11:18.019Z</time></trkpt><trkpt lat="49.9221634" lon="14.7026761"><ele>370.0</ele><time>2026-04-06T13:11:21.019Z</time></trkpt><trkpt lat="49.9221054" lon="14.7027368"><ele>370.0</ele><time>2026-04-06T13:11:23.02Z</time></trkpt><trkpt lat="49.9220332" lon="14.7027761"><ele>370.0</ele><time>2026-04-06T13:11:25.019Z</time></trkpt><trkpt lat="49.9219593" lon="14.7027807"><ele>370.0</ele><time>2026-04-06T13:11:26.019Z</time></trkpt><trkpt lat="49.9218661" lon="14.7028154"><ele>370.0</ele><time>2026-04-06T13:11:27.02Z</time></trkpt><trkpt lat="49.9217684" lon="14.7028658"><ele>370.0</ele><time>2026-04-06T13:11:28.02Z</time></trkpt><trkpt lat="49.9216774" lon="14.702915"><ele>370.2</ele><time>2026-04-06T13:11:29.019Z</time></trkpt><trkpt lat="49.9216051" lon="14.7029665"><ele>370.4</ele><time>2026-04-06T13:11:30.02Z</time></trkpt><trkpt lat="49.9215416" lon="14.7030233"><ele>370.6</ele><time>2026-04-06T13:11:31.02Z</time></trkpt><trkpt lat="49.9214719" lon="14.7031217"><ele>370.8</ele><time>2026-04-06T13:11:32.02Z</time></trkpt><trkpt lat="49.9213958" lon="14.7032329"><ele>371.0</ele><time>2026-04-06T13:11:33.019Z</time></trkpt><trkpt lat="49.9213203" lon="14.7033349"><ele>371.0</ele><time>2026-04-06T13:11:34.019Z</time></trkpt><trkpt lat="49.9212351" lon="14.7034158"><ele>371.0</ele><time>2026-04-06T13:11:35.019Z</time></trkpt><trkpt lat="49.9211424" lon="14.7034847"><ele>371.0</ele><time>2026-04-06T13:11:36.02Z</time></trkpt><trkpt lat="49.9210404" lon="14.7035594"><ele>371.0</ele><time>2026-04-06T13:11:37.02Z</time></trkpt><trkpt lat="49.9209434" lon="14.7036421"><ele>371.0</ele><time>2026-04-06T13:11:38.019Z</time></trkpt><trkpt lat="49.9208592" lon="14.7037389"><ele>371.0</ele><time>2026-04-06T13:11:39.019Z</time></trkpt><trkpt lat="49.9207815" lon="14.7038472"><ele>371.0</ele><time>2026-04-06T13:11:40.02Z</time></trkpt><trkpt lat="49.9207021" lon="14.7039655"><ele>371.0</ele><time>2026-04-06T13:11:41.019Z</time></trkpt><trkpt lat="49.9205937" lon="14.7041389"><ele>371.0</ele><time>2026-04-06T13:11:42.02Z</time></trkpt><trkpt lat="49.9205034" lon="14.7042759"><ele>371.0</ele><time>2026-04-06T13:11:43.02Z</time></trkpt><trkpt lat="49.9204147" lon="14.7043876"><ele>371.0</ele><time>2026-04-06T13:11:44.019Z</time></trkpt><trkpt lat="49.9203098" lon="14.7044808"><ele>371.0</ele><time>2026-04-06T13:11:45.019Z</time></trkpt><trkpt lat="49.920216" lon="14.7045669"><ele>371.0</ele><time>2026-04-06T13:11:46.02Z</time></trkpt><trkpt lat="49.9201454" lon="14.7046205"><ele>371.0</ele><time>2026-04-06T13:11:47.019Z</time></trkpt><trkpt lat="49.9200443" lon="14.704649"><ele>369.8</ele><time>2026-04-06T13:11:49.019Z</time></trkpt><trkpt lat="49.9199599" lon="14.704596"><ele>368.6</ele><time>2026-04-06T13:11:51.02Z</time></trkpt><trkpt lat="49.9198769" lon="14.7045316"><ele>367.4</ele><time>2026-04-06T13:11:53.02Z</time></trkpt><trkpt lat="49.9197568" lon="14.7044896"><ele>366.2</ele><time>2026-04-06T13:11:55.019Z</time></trkpt><trkpt lat="49.9196936" lon="14.7044623"><ele>365.0</ele><time>2026-04-06T13:11:56.019Z</time></trkpt><trkpt lat="49.9195827" lon="14.7043865"><ele>363.8</ele><time>2026-04-06T13:11:58.02Z</time></trkpt><trkpt lat="49.9194945" lon="14.7042883"><ele>362.6</ele><time>2026-04-06T13:12:00.019Z</time></trkpt><trkpt lat="49.9194284" lon="14.7041711"><ele>361.4</ele><time>2026-04-06T13:12:02.019Z</time></trkpt><trkpt lat="49.9194257" lon="14.7040179"><ele>360.2</ele><time>2026-04-06T13:12:04.02Z</time></trkpt><trkpt lat="49.9194484" lon="14.7038495"><ele>359.0</ele><time>2026-04-06T13:12:06.02Z</time></trkpt><trkpt lat="49.9194643" lon="14.7036814"><ele>359.0</ele><time>2026-04-06T13:12:08.02Z</time></trkpt><trkpt lat="49.9194696" lon="14.7035836"><ele>359.0</ele><time>2026-04-06T13:12:09.019Z</time></trkpt><trkpt lat="49.9194806" lon="14.7034769"><ele>359.0</ele><time>2026-04-06T13:12:10.02Z</time></trkpt><trkpt lat="49.9194949" lon="14.7033713"><ele>359.0</ele><time>2026-04-06T13:12:11.019Z</time></trkpt><trkpt lat="49.9195152" lon="14.7032664"><ele>359.0</ele><time>2026-04-06T13:12:12.019Z</time></trkpt><trkpt lat="49.9195365" lon="14.7031618"><ele>359.0</ele><time>2026-04-06T13:12:13.019Z</time></trkpt><trkpt lat="49.9195562" lon="14.7030579"><ele>359.0</ele><time>2026-04-06T13:12:14.02Z</time></trkpt><trkpt lat="49.9195806" lon="14.7029546"><ele>359.6666666666667</ele><time>2026-04-06T13:12:15.019Z</time></trkpt><trkpt lat="49.9196102" lon="14.7028461"><ele>360.33333333333337</ele><time>2026-04-06T13:12:16.019Z</time></trkpt><trkpt lat="49.9196428" lon="14.7027378"><ele>361.0</ele><time>2026-04-06T13:12:17.02Z</time></trkpt><trkpt lat="49.9196882" lon="14.7026116"><ele>361.6666666666667</ele><time>2026-04-06T13:12:18.019Z</time></trkpt><trkpt lat="49.9197312" lon="14.7024773"><ele>362.3333333333333</ele><time>2026-04-06T13:12:19.019Z</time></trkpt><trkpt lat="49.9197634" lon="14.7023568"><ele>363.0</ele><time>2026-04-06T13:12:20.019Z</time></trkpt><trkpt lat="49.9197928" lon="14.7022701"><ele>365.0</ele><time>2026-04-06T13:12:21.019Z</time></trkpt><trkpt lat="49.9198719" lon="14.7021261"><ele>367.0</ele><time>2026-04-06T13:12:23.02Z</time></trkpt><trkpt lat="49.9199195" lon="14.7020311"><ele>369.0</ele><time>2026-04-06T13:12:24.019Z</time></trkpt><trkpt lat="49.9199667" lon="14.7019297"><ele>371.0</ele><time>2026-04-06T13:12:25.019Z</time></trkpt><trkpt lat="49.9200102" lon="14.701827"><ele>373.0</ele><time>2026-04-06T13:12:26.019Z</time></trkpt><trkpt lat="49.9200576" lon="14.7017251"><ele>375.0</ele><time>2026-04-06T13:12:27.019Z</time></trkpt><trkpt lat="49.9201029" lon="14.701622"><ele>378.5</ele><time>2026-04-06T13:12:28.02Z</time></trkpt><trkpt lat="49.920148" lon="14.7015148"><ele>382.0</ele><time>2026-04-06T13:12:29.019Z</time></trkpt><trkpt lat="49.9201837" lon="14.7014009"><ele>385.5</ele><time>2026-04-06T13:12:30.02Z</time></trkpt><trkpt lat="49.9202076" lon="14.7012826"><ele>389.0</ele><time>2026-04-06T13:12:31.02Z</time></trkpt><trkpt lat="49.92022" lon="14.7011683"><ele>392.5</ele><time>2026-04-06T13:12:32.02Z</time></trkpt><trkpt lat="49.9202653" lon="14.7009879"><ele>396.0</ele><time>2026-04-06T13:12:34.019Z</time></trkpt><trkpt lat="49.9202982" lon="14.7008841"><ele>397.5</ele><time>2026-04-06T13:12:35.019Z</time></trkpt><trkpt lat="49.920347" lon="14.7007948"><ele>399.0</ele><time>2026-04-06T13:12:36.02Z</time></trkpt><trkpt lat="49.9203772" lon="14.700661"><ele>400.5</ele><time>2026-04-06T13:12:37.02Z</time></trkpt><trkpt lat="49.9204147" lon="14.7005425"><ele>402.0</ele><time>2026-04-06T13:12:38.02Z</time></trkpt><trkpt lat="49.9204572" lon="14.7004351"><ele>403.5</ele><time>2026-04-06T13:12:39.019Z</time></trkpt><trkpt lat="49.9204997" lon="14.7003129"><ele>405.0</ele><time>2026-04-06T13:12:40.019Z</time></trkpt><trkpt lat="49.9205521" lon="14.7001617"><ele>406.66666666666663</ele><time>2026-04-06T13:12:41.019Z</time></trkpt><trkpt lat="49.9206142" lon="14.6999633"><ele>408.3333333333333</ele><time>2026-04-06T13:12:42.019Z</time></trkpt><trkpt lat="49.9206724" lon="14.6997414"><ele>410.0</ele><time>2026-04-06T13:12:43.019Z</time></trkpt><trkpt lat="49.9207333" lon="14.6995164"><ele>411.75</ele><time>2026-04-06T13:12:44.02Z</time></trkpt><trkpt lat="49.9207946" lon="14.6992915"><ele>413.5</ele><time>2026-04-06T13:12:45.019Z</time></trkpt><trkpt lat="49.9208579" lon="14.6990837"><ele>415.25</ele><time>2026-04-06T13:12:46.019Z</time></trkpt><trkpt lat="49.9209082" lon="14.6989036"><ele>417.0</ele><time>2026-04-06T13:12:47.02Z</time></trkpt><trkpt lat="49.9209485" lon="14.698756"><ele>417.1666666666667</ele><time>2026-04-06T13:12:48.019Z</time></trkpt><trkpt lat="49.9209817" lon="14.6986217"><ele>417.33333333333337</ele><time>2026-04-06T13:12:49.02Z</time></trkpt><trkpt lat="49.9210133" lon="14.6984916"><ele>417.5</ele><time>2026-04-06T13:12:50.019Z</time></trkpt><trkpt lat="49.9210418" lon="14.6983602"><ele>417.6666666666667</ele><time>2026-04-06T13:12:51.02Z</time></trkpt><trkpt lat="49.9210676" lon="14.6982257"><ele>417.83333333333337</ele><time>2026-04-06T13:12:52.019Z</time></trkpt><trkpt lat="49.9210877" lon="14.6980984"><ele>418.0</ele><time>2026-04-06T13:12:53.019Z</time></trkpt><trkpt lat="49.9211102" lon="14.6979706"><ele>419.0</ele><time>2026-04-06T13:12:54.019Z</time></trkpt><trkpt lat="49.9211329" lon="14.6978413"><ele>420.0</ele><time>2026-04-06T13:12:55.019Z</time></trkpt><trkpt lat="49.9211495" lon="14.6977197"><ele>421.0</ele><time>2026-04-06T13:12:56.019Z</time></trkpt><trkpt lat="49.9211603" lon="14.6975801"><ele>422.0</ele><time>2026-04-06T13:12:57.019Z</time></trkpt><trkpt lat="49.9211623" lon="14.6974267"><ele>423.0</ele><time>2026-04-06T13:12:58.02Z</time></trkpt><trkpt lat="49.9211529" lon="14.6972534"><ele>424.75</ele><time>2026-04-06T13:12:59.02Z</time></trkpt><trkpt lat="49.9211381" lon="14.6970744"><ele>426.5</ele><time>2026-04-06T13:13:00.02Z</time></trkpt><trkpt lat="49.9211302" lon="14.6968759"><ele>428.25</ele><time>2026-04-06T13:13:01.019Z</time></trkpt><trkpt lat="49.9211338" lon="14.6966809"><ele>430.0</ele><time>2026-04-06T13:13:02.02Z</time></trkpt><trkpt lat="49.9211322" lon="14.6964931"><ele>430.5</ele><time>2026-04-06T13:13:03.019Z</time></trkpt><trkpt lat="49.9211261" lon="14.6963124"><ele>431.0</ele><time>2026-04-06T13:13:04.019Z</time></trkpt><trkpt lat="49.9211288" lon="14.6961358"><ele>431.5</ele><time>2026-04-06T13:13:05.019Z</time></trkpt><trkpt lat="49.9211322" lon="14.6959543"><ele>432.0</ele><time>2026-04-06T13:13:06.02Z</time></trkpt><trkpt lat="49.921129" lon="14.6957761"><ele>432.0</ele><time>2026-04-06T13:13:07.02Z</time></trkpt><trkpt lat="49.9211207" lon="14.6956297"><ele>432.00000000000006</ele><time>2026-04-06T13:13:08.02Z</time></trkpt><trkpt lat="49.9211232" lon="14.695495"><ele>432.00000000000006</ele><time>2026-04-06T13:13:09.02Z</time></trkpt><trkpt lat="49.9211741" lon="14.6953559"><ele>432.0</ele><time>2026-04-06T13:13:11.019Z</time></trkpt><trkpt lat="49.9212562" lon="14.6953285"><ele>432.0</ele><time>2026-04-06T13:13:13.019Z</time></trkpt><trkpt lat="49.9213356" lon="14.6953008"><ele>431.0</ele><time>2026-04-06T13:13:15.019Z</time></trkpt><trkpt lat="49.9214238" lon="14.695217"><ele>430.00000000000006</ele><time>2026-04-06T13:13:17.019Z</time></trkpt><trkpt lat="49.9215242" lon="14.6951116"><ele>429.00000000000006</ele><time>2026-04-06T13:13:19.02Z</time></trkpt><trkpt lat="49.9216268" lon="14.6950107"><ele>428.0</ele><time>2026-04-06T13:13:21.02Z</time></trkpt><trkpt lat="49.9216841" lon="14.6949559"><ele>427.0</ele><time>2026-04-06T13:13:22.019Z</time></trkpt><trkpt lat="49.9217364" lon="14.6949003"><ele>426.0</ele><time>2026-04-06T13:13:23.019Z</time></trkpt><trkpt lat="49.9218371" lon="14.6947868"><ele>425.00000000000006</ele><time>2026-04-06T13:13:25.02Z</time></trkpt><trkpt lat="49.9219368" lon="14.6946942"><ele>424.0</ele><time>2026-04-06T13:13:27.02Z</time></trkpt><trkpt lat="49.9219951" lon="14.6946383"><ele>423.0</ele><time>2026-04-06T13:13:28.02Z</time></trkpt><trkpt lat="49.9220412" lon="14.6945716"><ele>422.0</ele><time>2026-04-06T13:13:29.02Z</time></trkpt><trkpt lat="49.9221389" lon="14.694453"><ele>421.16666666666663</ele><time>2026-04-06T13:13:31.019Z</time></trkpt><trkpt lat="49.9221939" lon="14.694359"><ele>420.3333333333333</ele><time>2026-04-06T13:13:32.019Z</time></trkpt><trkpt lat="49.9222333" lon="14.694276"><ele>419.5</ele><time>2026-04-06T13:13:33.019Z</time></trkpt><trkpt lat="49.9223243" lon="14.6941498"><ele>418.66666666666663</ele><time>2026-04-06T13:13:35.02Z</time></trkpt><trkpt lat="49.9223734" lon="14.6940831"><ele>417.8333333333333</ele><time>2026-04-06T13:13:36.02Z</time></trkpt><trkpt lat="49.9224189" lon="14.6940089"><ele>417.0</ele><time>2026-04-06T13:13:37.02Z</time></trkpt><trkpt lat="49.9224653" lon="14.6939305"><ele>417.0</ele><time>2026-04-06T13:13:38.02Z</time></trkpt><trkpt lat="49.9225254" lon="14.6938414"><ele>417.0</ele><time>2026-04-06T13:13:39.019Z</time></trkpt><trkpt lat="49.9225714" lon="14.6937275"><ele>417.0</ele><time>2026-04-06T13:13:40.019Z</time></trkpt><trkpt lat="49.9226147" lon="14.6936159"><ele>417.0</ele><time>2026-04-06T13:13:41.02Z</time></trkpt><trkpt lat="49.9226473" lon="14.693514"><ele>417.0</ele><time>2026-04-06T13:13:42.019Z</time></trkpt><trkpt lat="49.9226883" lon="14.6934307"><ele>417.0</ele><time>2026-04-06T13:13:43.019Z</time></trkpt><trkpt lat="49.9227676" lon="14.6932636"><ele>414.6</ele><time>2026-04-06T13:13:45.019Z</time></trkpt><trkpt lat="49.9228393" lon="14.6930979"><ele>412.20000000000005</ele><time>2026-04-06T13:13:47.02Z</time></trkpt><trkpt lat="49.9229107" lon="14.6929582"><ele>409.8</ele><time>2026-04-06T13:13:49.02Z</time></trkpt><trkpt lat="49.9229717" lon="14.6928932"><ele>407.4</ele><time>2026-04-06T13:13:50.019Z</time></trkpt><trkpt lat="49.9230335" lon="14.6928302"><ele>405.0</ele><time>2026-04-06T13:13:51.02Z</time></trkpt><trkpt lat="49.9230991" lon="14.6927807"><ele>405.1666666666667</ele><time>2026-04-06T13:13:52.02Z</time></trkpt><trkpt lat="49.9231591" lon="14.6927236"><ele>405.33333333333337</ele><time>2026-04-06T13:13:53.02Z</time></trkpt><trkpt lat="49.9232264" lon="14.6926592"><ele>405.5</ele><time>2026-04-06T13:13:54.019Z</time></trkpt><trkpt lat="49.9233023" lon="14.6925989"><ele>405.6666666666667</ele><time>2026-04-06T13:13:55.02Z</time></trkpt><trkpt lat="49.9233905" lon="14.6925223"><ele>405.83333333333337</ele><time>2026-04-06T13:13:56.02Z</time></trkpt><trkpt lat="49.9234839" lon="14.6924502"><ele>406.0</ele><time>2026-04-06T13:13:57.02Z</time></trkpt><trkpt lat="49.9235703" lon="14.6923875"><ele>405.50000000000006</ele><time>2026-04-06T13:13:58.02Z</time></trkpt><trkpt lat="49.9236533" lon="14.6923298"><ele>405.0</ele><time>2026-04-06T13:13:59.02Z</time></trkpt><trkpt lat="49.9237352" lon="14.6923036"><ele>404.5</ele><time>2026-04-06T13:14:00.02Z</time></trkpt><trkpt lat="49.9238132" lon="14.692329"><ele>404.0</ele><time>2026-04-06T13:14:01.02Z</time></trkpt><trkpt lat="49.9238719" lon="14.6923909"><ele>403.50000000000006</ele><time>2026-04-06T13:14:02.019Z</time></trkpt><trkpt lat="49.9239312" lon="14.6925006"><ele>403.0</ele><time>2026-04-06T13:14:03.019Z</time></trkpt><trkpt lat="49.9239905" lon="14.6926323"><ele>402.75</ele><time>2026-04-06T13:14:04.02Z</time></trkpt><trkpt lat="49.9240528" lon="14.69278"><ele>402.5</ele><time>2026-04-06T13:14:05.019Z</time></trkpt><trkpt lat="49.9241027" lon="14.6929421"><ele>402.25</ele><time>2026-04-06T13:14:06.02Z</time></trkpt><trkpt lat="49.9241322" lon="14.6931079"><ele>402.0</ele><time>2026-04-06T13:14:07.02Z</time></trkpt><trkpt lat="49.9241469" lon="14.6932771"><ele>402.0</ele><time>2026-04-06T13:14:08.019Z</time></trkpt><trkpt lat="49.9241531" lon="14.6934436"><ele>402.0</ele><time>2026-04-06T13:14:09.02Z</time></trkpt><trkpt lat="49.9241388" lon="14.6936227"><ele>402.0</ele><time>2026-04-06T13:14:10.019Z</time></trkpt><trkpt lat="49.9241236" lon="14.6938197"><ele>402.0</ele><time>2026-04-06T13:14:11.019Z</time></trkpt><trkpt lat="49.9241124" lon="14.6940344"><ele>402.0</ele><time>2026-04-06T13:14:12.02Z</time></trkpt><trkpt lat="49.9241109" lon="14.6942601"><ele>402.0</ele><time>2026-04-06T13:14:13.02Z</time></trkpt><trkpt lat="49.9241203" lon="14.6944844"><ele>402.0</ele><time>2026-04-06T13:14:14.019Z</time></trkpt><trkpt lat="49.9241358" lon="14.6947154"><ele>402.0</ele><time>2026-04-06T13:14:15.02Z</time></trkpt><trkpt lat="49.9241597" lon="14.6949433"><ele>402.0</ele><time>2026-04-06T13:14:16.019Z</time></trkpt><trkpt lat="49.9241877" lon="14.6951728"><ele>402.0</ele><time>2026-04-06T13:14:17.019Z</time></trkpt><trkpt lat="49.9242154" lon="14.6954056"><ele>402.0</ele><time>2026-04-06T13:14:18.02Z</time></trkpt><trkpt lat="49.9242395" lon="14.6956359"><ele>403.25</ele><time>2026-04-06T13:14:19.02Z</time></trkpt><trkpt lat="49.9242615" lon="14.6958555"><ele>404.5</ele><time>2026-04-06T13:14:20.02Z</time></trkpt><trkpt lat="49.9242779" lon="14.6960649"><ele>405.75</ele><time>2026-04-06T13:14:21.02Z</time></trkpt><trkpt lat="49.92429" lon="14.6962829"><ele>407.0</ele><time>2026-04-06T13:14:22.02Z</time></trkpt><trkpt lat="49.9242949" lon="14.6965184"><ele>407.0</ele><time>2026-04-06T13:14:23.02Z</time></trkpt><trkpt lat="49.9242807" lon="14.696769"><ele>407.0</ele><time>2026-04-06T13:14:24.02Z</time></trkpt><trkpt lat="49.9242545" lon="14.6970316"><ele>407.0</ele><time>2026-04-06T13:14:25.019Z</time></trkpt><trkpt lat="49.9242153" lon="14.6973027"><ele>402.66666666666663</ele><time>2026-04-06T13:14:26.02Z</time></trkpt><trkpt lat="49.9241819" lon="14.6975665"><ele>398.33333333333337</ele><time>2026-04-06T13:14:27.02Z</time></trkpt><trkpt lat="49.9241505" lon="14.6978195"><ele>394.0</ele><time>2026-04-06T13:14:28.019Z</time></trkpt><trkpt lat="49.9241179" lon="14.698058"><ele>392.5</ele><time>2026-04-06T13:14:29.02Z</time></trkpt><trkpt lat="49.9240908" lon="14.6982902"><ele>391.0</ele><time>2026-04-06T13:14:30.019Z</time></trkpt><trkpt lat="49.9240671" lon="14.6985145"><ele>389.5</ele><time>2026-04-06T13:14:31.019Z</time></trkpt><trkpt lat="49.9240404" lon="14.6987342"><ele>388.0</ele><time>2026-04-06T13:14:32.02Z</time></trkpt><trkpt lat="49.9240333" lon="14.6989398"><ele>388.33333333333337</ele><time>2026-04-06T13:14:33.02Z</time></trkpt><trkpt lat="49.924018" lon="14.6991066"><ele>388.6666666666667</ele><time>2026-04-06T13:14:34.019Z</time></trkpt><trkpt lat="49.9240195" lon="14.6992253"><ele>389.0</ele><time>2026-04-06T13:14:35.019Z</time></trkpt><trkpt lat="49.9240568" lon="14.6993278"><ele>389.33333333333337</ele><time>2026-04-06T13:14:37.019Z</time></trkpt><trkpt lat="49.9241374" lon="14.6993321"><ele>389.6666666666667</ele><time>2026-04-06T13:14:39.019Z</time></trkpt><trkpt lat="49.9242072" lon="14.6992923"><ele>390.0</ele><time>2026-04-06T13:14:41.019Z</time></trkpt><trkpt lat="49.9242722" lon="14.6992751"><ele>390.0</ele><time>2026-04-06T13:14:43.019Z</time></trkpt><trkpt lat="49.9243336" lon="14.6992497"><ele>390.0</ele><time>2026-04-06T13:14:45.019Z</time></trkpt><trkpt lat="49.924414" lon="14.6991931"><ele>390.0</ele><time>2026-04-06T13:14:47.019Z</time></trkpt><trkpt lat="49.9244794" lon="14.6991632"><ele>390.0</ele><time>2026-04-06T13:14:48.019Z</time></trkpt><trkpt lat="49.9245565" lon="14.6991345"><ele>390.0</ele><time>2026-04-06T13:14:49.019Z</time></trkpt><trkpt lat="49.9246471" lon="14.6990975"><ele>390.0</ele><time>2026-04-06T13:14:50.019Z</time></trkpt><trkpt lat="49.924736" lon="14.6990724"><ele>390.0</ele><time>2026-04-06T13:14:51.019Z</time></trkpt><trkpt lat="49.9248055" lon="14.6990473"><ele>390.0</ele><time>2026-04-06T13:14:52.02Z</time></trkpt><trkpt lat="49.9248681" lon="14.6990265"><ele>390.0</ele><time>2026-04-06T13:14:53.02Z</time></trkpt><trkpt lat="49.9249727" lon="14.6989943"><ele>390.0</ele><time>2026-04-06T13:14:55.02Z</time></trkpt><trkpt lat="49.9250694" lon="14.6989582"><ele>390.0</ele><time>2026-04-06T13:14:57.019Z</time></trkpt><trkpt lat="49.9251592" lon="14.6989543"><ele>390.0</ele><time>2026-04-06T13:14:59.02Z</time></trkpt><trkpt lat="49.9252456" lon="14.6990429"><ele>390.8</ele><time>2026-04-06T13:15:01.02Z</time></trkpt><trkpt lat="49.925311" lon="14.6991942"><ele>391.6</ele><time>2026-04-06T13:15:03.019Z</time></trkpt><trkpt lat="49.9253701" lon="14.6992941"><ele>392.4</ele><time>2026-04-06T13:15:05.02Z</time></trkpt><trkpt lat="49.9254518" lon="14.6993193"><ele>393.2</ele><time>2026-04-06T13:15:07.019Z</time></trkpt><trkpt lat="49.9255663" lon="14.6992551"><ele>394.0</ele><time>2026-04-06T13:15:09.02Z</time></trkpt><trkpt lat="49.9256195" lon="14.6991887"><ele>394.00000000000006</ele><time>2026-04-06T13:15:10.02Z</time></trkpt><trkpt lat="49.9256794" lon="14.6990931"><ele>394.0</ele><time>2026-04-06T13:15:11.019Z</time></trkpt><trkpt lat="49.9257313" lon="14.6989889"><ele>394.0</ele><time>2026-04-06T13:15:12.019Z</time></trkpt><trkpt lat="49.9257789" lon="14.6988999"><ele>394.0</ele><time>2026-04-06T13:15:13.019Z</time></trkpt><trkpt lat="49.9258317" lon="14.6988282"><ele>394.00000000000006</ele><time>2026-04-06T13:15:14.02Z</time></trkpt><trkpt lat="49.9258994" lon="14.6987658"><ele>394.0</ele><time>2026-04-06T13:15:15.019Z</time></trkpt><trkpt lat="49.9259728" lon="14.6987152"><ele>393.25</ele><time>2026-04-06T13:15:16.02Z</time></trkpt><trkpt lat="49.9260636" lon="14.6986409"><ele>392.5</ele><time>2026-04-06T13:15:17.02Z</time></trkpt><trkpt lat="49.9261778" lon="14.6985851"><ele>391.75</ele><time>2026-04-06T13:15:18.02Z</time></trkpt><trkpt lat="49.9263154" lon="14.698499"><ele>391.0</ele><time>2026-04-06T13:15:19.019Z</time></trkpt><trkpt lat="49.9264634" lon="14.6984057"><ele>392.5</ele><time>2026-04-06T13:15:20.02Z</time></trkpt><trkpt lat="49.9265846" lon="14.6983242"><ele>394.0</ele><time>2026-04-06T13:15:21.02Z</time></trkpt><trkpt lat="49.9266955" lon="14.6982362"><ele>395.5</ele><time>2026-04-06T13:15:22.019Z</time></trkpt><trkpt lat="49.9267942" lon="14.6981146"><ele>397.0</ele><time>2026-04-06T13:15:23.019Z</time></trkpt><trkpt lat="49.9268861" lon="14.69796"><ele>397.0</ele><time>2026-04-06T13:15:24.02Z</time></trkpt><trkpt lat="49.9269856" lon="14.6977784"><ele>397.0</ele><time>2026-04-06T13:15:25.02Z</time></trkpt><trkpt lat="49.9270946" lon="14.6975809"><ele>397.0</ele><time>2026-04-06T13:15:26.02Z</time></trkpt><trkpt lat="49.9272016" lon="14.6973982"><ele>401.6666666666667</ele><time>2026-04-06T13:15:27.019Z</time></trkpt><trkpt lat="49.9273139" lon="14.6972286"><ele>406.33333333333337</ele><time>2026-04-06T13:15:28.019Z</time></trkpt><trkpt lat="49.9274213" lon="14.6970656"><ele>411.0</ele><time>2026-04-06T13:15:29.02Z</time></trkpt><trkpt lat="49.9275283" lon="14.6969132"><ele>410.0</ele><time>2026-04-06T13:15:30.019Z</time></trkpt><trkpt lat="49.9276199" lon="14.6967776"><ele>409.0</ele><time>2026-04-06T13:15:31.02Z</time></trkpt><trkpt lat="49.9277112" lon="14.6966548"><ele>408.0</ele><time>2026-04-06T13:15:32.02Z</time></trkpt><trkpt lat="49.9277812" lon="14.6965449"><ele>407.0</ele><time>2026-04-06T13:15:33.02Z</time></trkpt><trkpt lat="49.9278476" lon="14.696454"><ele>406.0</ele><time>2026-04-06T13:15:34.02Z</time></trkpt><trkpt lat="49.9279098" lon="14.6963899"><ele>406.00000000000006</ele><time>2026-04-06T13:15:35.019Z</time></trkpt><trkpt lat="49.9279883" lon="14.6963314"><ele>406.0</ele><time>2026-04-06T13:15:36.02Z</time></trkpt><trkpt lat="49.9280757" lon="14.6962783"><ele>406.0</ele><time>2026-04-06T13:15:37.02Z</time></trkpt><trkpt lat="49.9281555" lon="14.6962561"><ele>406.0</ele><time>2026-04-06T13:15:38.02Z</time></trkpt><trkpt lat="49.9282335" lon="14.6962325"><ele>406.00000000000006</ele><time>2026-04-06T13:15:39.019Z</time></trkpt><trkpt lat="49.9283001" lon="14.6962371"><ele>406.0</ele><time>2026-04-06T13:15:40.019Z</time></trkpt><trkpt lat="49.9283614" lon="14.6962643"><ele>404.1666666666667</ele><time>2026-04-06T13:15:41.02Z</time></trkpt><trkpt lat="49.9284833" lon="14.6963098"><ele>402.33333333333337</ele><time>2026-04-06T13:15:43.02Z</time></trkpt><trkpt lat="49.9285975" lon="14.6963463"><ele>400.5</ele><time>2026-04-06T13:15:45.02Z</time></trkpt><trkpt lat="49.928663" lon="14.6963637"><ele>398.66666666666663</ele><time>2026-04-06T13:15:46.02Z</time></trkpt><trkpt lat="49.9287302" lon="14.6963621"><ele>396.8333333333333</ele><time>2026-04-06T13:15:47.02Z</time></trkpt><trkpt lat="49.9287943" lon="14.6963128"><ele>395.0</ele><time>2026-04-06T13:15:48.02Z</time></trkpt><trkpt lat="49.9288596" lon="14.6962295"><ele>394.99999999999994</ele><time>2026-04-06T13:15:49.02Z</time></trkpt><trkpt lat="49.928919" lon="14.6961404"><ele>395.0</ele><time>2026-04-06T13:15:50.02Z</time></trkpt><trkpt lat="49.9289947" lon="14.6960651"><ele>395.0</ele><time>2026-04-06T13:15:51.019Z</time></trkpt><trkpt lat="49.9290716" lon="14.6959963"><ele>395.0</ele><time>2026-04-06T13:15:52.02Z</time></trkpt><trkpt lat="49.9291258" lon="14.695922"><ele>394.99999999999994</ele><time>2026-04-06T13:15:53.02Z</time></trkpt><trkpt lat="49.929192" lon="14.6958396"><ele>395.0</ele><time>2026-04-06T13:15:54.019Z</time></trkpt><trkpt lat="49.9292491" lon="14.6957511"><ele>394.8333333333333</ele><time>2026-04-06T13:15:55.02Z</time></trkpt><trkpt lat="49.9293057" lon="14.6956667"><ele>394.66666666666663</ele><time>2026-04-06T13:15:56.019Z</time></trkpt><trkpt lat="49.9293595" lon="14.6955751"><ele>394.5</ele><time>2026-04-06T13:15:57.019Z</time></trkpt><trkpt lat="49.9294142" lon="14.6954883"><ele>394.33333333333337</ele><time>2026-04-06T13:15:58.023Z</time></trkpt><trkpt lat="49.9294838" lon="14.6953905"><ele>394.1666666666667</ele><time>2026-04-06T13:15:59.023Z</time></trkpt><trkpt lat="49.9295583" lon="14.6952938"><ele>394.0</ele><time>2026-04-06T13:16:00.022Z</time></trkpt><trkpt lat="49.9296481" lon="14.6952081"><ele>396.0</ele><time>2026-04-06T13:16:01.023Z</time></trkpt><trkpt lat="49.9297461" lon="14.6951177"><ele>398.0</ele><time>2026-04-06T13:16:02.023Z</time></trkpt><trkpt lat="49.9298467" lon="14.695023"><ele>400.0</ele><time>2026-04-06T13:16:03.023Z</time></trkpt><trkpt lat="49.9299444" lon="14.6949256"><ele>402.0</ele><time>2026-04-06T13:16:04.022Z</time></trkpt><trkpt lat="49.930042" lon="14.6948359"><ele>402.6666666666667</ele><time>2026-04-06T13:16:05.022Z</time></trkpt><trkpt lat="49.9301318" lon="14.6947558"><ele>403.33333333333337</ele><time>2026-04-06T13:16:06.023Z</time></trkpt><trkpt lat="49.9301997" lon="14.6946862"><ele>404.0</ele><time>2026-04-06T13:16:07.023Z</time></trkpt><trkpt lat="49.9302475" lon="14.6946152"><ele>404.6666666666667</ele><time>2026-04-06T13:16:08.022Z</time></trkpt><trkpt lat="49.93029" lon="14.6945097"><ele>405.33333333333337</ele><time>2026-04-06T13:16:09.023Z</time></trkpt><trkpt lat="49.9303142" lon="14.6943751"><ele>406.0</ele><time>2026-04-06T13:16:10.023Z</time></trkpt><trkpt lat="49.9303378" lon="14.6942465"><ele>406.00000000000006</ele><time>2026-04-06T13:16:11.023Z</time></trkpt><trkpt lat="49.9303584" lon="14.6941364"><ele>406.0</ele><time>2026-04-06T13:16:12.022Z</time></trkpt><trkpt lat="49.9303929" lon="14.6940537"><ele>406.0</ele><time>2026-04-06T13:16:13.023Z</time></trkpt><trkpt lat="49.9304683" lon="14.693895"><ele>406.0</ele><time>2026-04-06T13:16:15.022Z</time></trkpt><trkpt lat="49.9305066" lon="14.6938148"><ele>406.00000000000006</ele><time>2026-04-06T13:16:16.022Z</time></trkpt><trkpt lat="49.930554" lon="14.6937408"><ele>406.0</ele><time>2026-04-06T13:16:17.023Z</time></trkpt><trkpt lat="49.9306035" lon="14.6936732"><ele>405.6</ele><time>2026-04-06T13:16:18.023Z</time></trkpt><trkpt lat="49.9306886" lon="14.6935358"><ele>405.20000000000005</ele><time>2026-04-06T13:16:20.023Z</time></trkpt><trkpt lat="49.9307291" lon="14.6934556"><ele>404.79999999999995</ele><time>2026-04-06T13:16:21.023Z</time></trkpt><trkpt lat="49.9308075" lon="14.6933166"><ele>404.4</ele><time>2026-04-06T13:16:23.022Z</time></trkpt><trkpt lat="49.9308937" lon="14.693193"><ele>404.0</ele><time>2026-04-06T13:16:25.023Z</time></trkpt><trkpt lat="49.9309432" lon="14.6931116"><ele>404.0</ele><time>2026-04-06T13:16:26.023Z</time></trkpt><trkpt lat="49.930992" lon="14.6930325"><ele>404.0</ele><time>2026-04-06T13:16:27.023Z</time></trkpt><trkpt lat="49.9310827" lon="14.6928934"><ele>404.0</ele><time>2026-04-06T13:16:29.022Z</time></trkpt><trkpt lat="49.9311287" lon="14.6928029"><ele>404.0</ele><time>2026-04-06T13:16:30.023Z</time></trkpt><trkpt lat="49.9311639" lon="14.6927107"><ele>404.0</ele><time>2026-04-06T13:16:31.022Z</time></trkpt><trkpt lat="49.9312073" lon="14.6925452"><ele>405.6</ele><time>2026-04-06T13:16:33.022Z</time></trkpt><trkpt lat="49.9312488" lon="14.6923854"><ele>407.2</ele><time>2026-04-06T13:16:35.022Z</time></trkpt><trkpt lat="49.9313201" lon="14.6922434"><ele>408.8</ele><time>2026-04-06T13:16:37.023Z</time></trkpt><trkpt lat="49.9313818" lon="14.6921444"><ele>410.40000000000003</ele><time>2026-04-06T13:16:39.022Z</time></trkpt><trkpt lat="49.9314432" lon="14.6921145"><ele>412.0</ele><time>2026-04-06T13:16:40.023Z</time></trkpt><trkpt lat="49.9315549" lon="14.6920551"><ele>412.00000000000006</ele><time>2026-04-06T13:16:42.022Z</time></trkpt><trkpt lat="49.931623" lon="14.6920398"><ele>412.0</ele><time>2026-04-06T13:16:43.023Z</time></trkpt><trkpt lat="49.9316913" lon="14.6920084"><ele>412.0</ele><time>2026-04-06T13:16:44.023Z</time></trkpt><trkpt lat="49.9317545" lon="14.6919506"><ele>412.0</ele><time>2026-04-06T13:16:45.022Z</time></trkpt><trkpt lat="49.931802" lon="14.6918714"><ele>412.00000000000006</ele><time>2026-04-06T13:16:46.023Z</time></trkpt><trkpt lat="49.9318338" lon="14.691786"><ele>412.0</ele><time>2026-04-06T13:16:47.023Z</time></trkpt><trkpt lat="49.9319158" lon="14.6916651"><ele>410.50000000000006</ele><time>2026-04-06T13:16:49.023Z</time></trkpt><trkpt lat="49.9320173" lon="14.6915726"><ele>409.0</ele><time>2026-04-06T13:16:51.022Z</time></trkpt><trkpt lat="49.9320757" lon="14.6915331"><ele>407.5</ele><time>2026-04-06T13:16:52.022Z</time></trkpt><trkpt lat="49.9321316" lon="14.6914846"><ele>406.0</ele><time>2026-04-06T13:16:53.023Z</time></trkpt><trkpt lat="49.9322435" lon="14.6913904"><ele>404.50000000000006</ele><time>2026-04-06T13:16:55.022Z</time></trkpt><trkpt lat="49.9323076" lon="14.6913543"><ele>403.0</ele><time>2026-04-06T13:16:56.023Z</time></trkpt><trkpt lat="49.9324331" lon="14.6913087"><ele>403.0</ele><time>2026-04-06T13:16:58.022Z</time></trkpt><trkpt lat="49.9325494" lon="14.6912416"><ele>403.0</ele><time>2026-04-06T13:17:00.023Z</time></trkpt><trkpt lat="49.9326426" lon="14.6910891"><ele>403.0</ele><time>2026-04-06T13:17:02.023Z</time></trkpt><trkpt lat="49.932704" lon="14.6909452"><ele>403.0</ele><time>2026-04-06T13:17:03.023Z</time></trkpt><trkpt lat="49.932778" lon="14.6907872"><ele>402.6666666666667</ele><time>2026-04-06T13:17:04.023Z</time></trkpt><trkpt lat="49.9328668" lon="14.6906286"><ele>402.33333333333337</ele><time>2026-04-06T13:17:05.022Z</time></trkpt><trkpt lat="49.9329684" lon="14.6904594"><ele>402.0</ele><time>2026-04-06T13:17:06.023Z</time></trkpt><trkpt lat="49.9330845" lon="14.6902693"><ele>402.66666666666663</ele><time>2026-04-06T13:17:07.022Z</time></trkpt><trkpt lat="49.9332079" lon="14.6900696"><ele>403.3333333333333</ele><time>2026-04-06T13:17:08.022Z</time></trkpt><trkpt lat="49.9333206" lon="14.6898865"><ele>404.0</ele><time>2026-04-06T13:17:09.022Z</time></trkpt><trkpt lat="49.9334236" lon="14.6897119"><ele>398.0</ele><time>2026-04-06T13:17:10.023Z</time></trkpt></trkseg><trkseg><trkpt lat="49.9351575" lon="14.6867511"><ele>413.0</ele><time>2026-04-06T13:20:24.023Z</time></trkpt><trkpt lat="49.9351578" lon="14.6865551"><ele>413.0</ele><time>2026-04-06T13:20:26.022Z</time></trkpt><trkpt lat="49.9351318" lon="14.6863911"><ele>413.0</ele><time>2026-04-06T13:20:27.022Z</time></trkpt><trkpt lat="49.9350925" lon="14.6861683"><ele>413.0</ele><time>2026-04-06T13:20:28.023Z</time></trkpt><trkpt lat="49.9350378" lon="14.6859275"><ele>410.75</ele><time>2026-04-06T13:20:29.023Z</time></trkpt><trkpt lat="49.9350025" lon="14.6857058"><ele>408.5</ele><time>2026-04-06T13:20:30.022Z</time></trkpt><trkpt lat="49.9349726" lon="14.6855114"><ele>406.25</ele><time>2026-04-06T13:20:31.023Z</time></trkpt><trkpt lat="49.9349555" lon="14.6853216"><ele>404.0</ele><time>2026-04-06T13:20:32.022Z</time></trkpt><trkpt lat="49.9349557" lon="14.6851357"><ele>403.79999999999995</ele><time>2026-04-06T13:20:33.023Z</time></trkpt><trkpt lat="49.9349759" lon="14.6849643"><ele>403.59999999999997</ele><time>2026-04-06T13:20:34.023Z</time></trkpt><trkpt lat="49.9350247" lon="14.6848242"><ele>403.4</ele><time>2026-04-06T13:20:35.023Z</time></trkpt><trkpt lat="49.9350894" lon="14.6847198"><ele>403.2</ele><time>2026-04-06T13:20:36.023Z</time></trkpt><trkpt lat="49.9351782" lon="14.6846376"><ele>403.0</ele><time>2026-04-06T13:20:37.022Z</time></trkpt><trkpt lat="49.9352936" lon="14.684573"><ele>405.2</ele><time>2026-04-06T13:20:38.023Z</time></trkpt><trkpt lat="49.935419" lon="14.6845156"><ele>407.4</ele><time>2026-04-06T13:20:39.022Z</time></trkpt><trkpt lat="49.9355451" lon="14.6844589"><ele>409.59999999999997</ele><time>2026-04-06T13:20:40.022Z</time></trkpt><trkpt lat="49.93563" lon="14.6844013"><ele>411.79999999999995</ele><time>2026-04-06T13:20:41.023Z</time></trkpt><trkpt lat="49.9356854" lon="14.6843524"><ele>414.0</ele><time>2026-04-06T13:20:42.022Z</time></trkpt><trkpt lat="49.9356839" lon="14.6842091"><ele>414.0</ele><time>2026-04-06T13:20:44.022Z</time></trkpt><trkpt lat="49.9356574" lon="14.6840997"><ele>414.0</ele><time>2026-04-06T13:20:45.023Z</time></trkpt><trkpt lat="49.9356163" lon="14.6839631"><ele>414.0</ele><time>2026-04-06T13:20:46.023Z</time></trkpt><trkpt lat="49.9355737" lon="14.6838085"><ele>414.0</ele><time>2026-04-06T13:20:47.023Z</time></trkpt><trkpt lat="49.9355349" lon="14.6836258"><ele>414.0</ele><time>2026-04-06T13:20:48.023Z</time></trkpt><trkpt lat="49.9354956" lon="14.6834136"><ele>415.33333333333337</ele><time>2026-04-06T13:20:49.023Z</time></trkpt><trkpt lat="49.9354694" lon="14.6831695"><ele>416.6666666666667</ele><time>2026-04-06T13:20:50.022Z</time></trkpt><trkpt lat="49.9354342" lon="14.6829002"><ele>418.0</ele><time>2026-04-06T13:20:51.022Z</time></trkpt><trkpt lat="49.9354124" lon="14.6826403"><ele>419.0</ele><time>2026-04-06T13:20:52.022Z</time></trkpt><trkpt lat="49.935392" lon="14.6823958"><ele>420.0</ele><time>2026-04-06T13:20:53.021Z</time></trkpt><trkpt lat="49.9353863" lon="14.6821462"><ele>421.0</ele><time>2026-04-06T13:20:54.022Z</time></trkpt><trkpt lat="49.9353787" lon="14.6819109"><ele>421.5</ele><time>2026-04-06T13:20:55.021Z</time></trkpt><trkpt lat="49.9353619" lon="14.6816788"><ele>422.0</ele><time>2026-04-06T13:20:56.022Z</time></trkpt><trkpt lat="49.9353348" lon="14.6814567"><ele>422.5</ele><time>2026-04-06T13:20:57.021Z</time></trkpt><trkpt lat="49.9353084" lon="14.6812535"><ele>423.0</ele><time>2026-04-06T13:20:58.021Z</time></trkpt><trkpt lat="49.9352913" lon="14.6810518"><ele>423.5</ele><time>2026-04-06T13:20:59.022Z</time></trkpt><trkpt lat="49.935269" lon="14.6808555"><ele>424.0</ele><time>2026-04-06T13:21:00.021Z</time></trkpt><trkpt lat="49.9352434" lon="14.6806679"><ele>424.5</ele><time>2026-04-06T13:21:01.022Z</time></trkpt><trkpt lat="49.9352228" lon="14.6804828"><ele>425.0</ele><time>2026-04-06T13:21:02.022Z</time></trkpt><trkpt lat="49.9352036" lon="14.6803102"><ele>424.99999999999994</ele><time>2026-04-06T13:21:03.021Z</time></trkpt><trkpt lat="49.9351904" lon="14.6801529"><ele>425.0</ele><time>2026-04-06T13:21:04.021Z</time></trkpt><trkpt lat="49.9351813" lon="14.6800159"><ele>425.0</ele><time>2026-04-06T13:21:05.021Z</time></trkpt><trkpt lat="49.9351768" lon="14.6798956"><ele>425.0</ele><time>2026-04-06T13:21:06.021Z</time></trkpt><trkpt lat="49.9351742" lon="14.6797952"><ele>424.99999999999994</ele><time>2026-04-06T13:21:07.022Z</time></trkpt><trkpt lat="49.9351788" lon="14.6796936"><ele>425.0</ele><time>2026-04-06T13:21:09.021Z</time></trkpt><trkpt lat="49.9351948" lon="14.6795872"><ele>424.8</ele><time>2026-04-06T13:21:12.021Z</time></trkpt><trkpt lat="49.9351627" lon="14.6794165"><ele>424.6</ele><time>2026-04-06T13:21:14.022Z</time></trkpt><trkpt lat="49.9351533" lon="14.6792979"><ele>424.4</ele><time>2026-04-06T13:21:15.022Z</time></trkpt><trkpt lat="49.9351436" lon="14.6791599"><ele>424.2</ele><time>2026-04-06T13:21:16.021Z</time></trkpt><trkpt lat="49.9351371" lon="14.6790091"><ele>424.0</ele><time>2026-04-06T13:21:17.021Z</time></trkpt><trkpt lat="49.935136" lon="14.6788601"><ele>424.00000000000006</ele><time>2026-04-06T13:21:18.022Z</time></trkpt><trkpt lat="49.9351355" lon="14.6787161"><ele>424.0</ele><time>2026-04-06T13:21:19.022Z</time></trkpt><trkpt lat="49.9351435" lon="14.678602"><ele>424.0</ele><time>2026-04-06T13:21:20.022Z</time></trkpt><trkpt lat="49.9351529" lon="14.6784478"><ele>424.0</ele><time>2026-04-06T13:21:22.021Z</time></trkpt><trkpt lat="49.9351525" lon="14.6783168"><ele>424.00000000000006</ele><time>2026-04-06T13:21:24.022Z</time></trkpt><trkpt lat="49.9351871" lon="14.6782033"><ele>424.0</ele><time>2026-04-06T13:21:26.021Z</time></trkpt><trkpt lat="49.9352389" lon="14.678117"><ele>424.33333333333337</ele><time>2026-04-06T13:21:28.021Z</time></trkpt><trkpt lat="49.9352277" lon="14.6780074"><ele>424.6666666666667</ele><time>2026-04-06T13:21:30.021Z</time></trkpt><trkpt lat="49.935168" lon="14.6779117"><ele>425.0</ele><time>2026-04-06T13:21:32.022Z</time></trkpt><trkpt lat="49.9350744" lon="14.6777881"><ele>425.33333333333337</ele><time>2026-04-06T13:21:34.021Z</time></trkpt><trkpt lat="49.9350223" lon="14.6777139"><ele>425.6666666666667</ele><time>2026-04-06T13:21:35.021Z</time></trkpt><trkpt lat="49.9349682" lon="14.6776509"><ele>426.0</ele><time>2026-04-06T13:21:36.021Z</time></trkpt><trkpt lat="49.9349115" lon="14.6775918"><ele>424.85714285714283</ele><time>2026-04-06T13:21:37.021Z</time></trkpt><trkpt lat="49.9348541" lon="14.6775268"><ele>423.7142857142857</ele><time>2026-04-06T13:21:38.021Z</time></trkpt><trkpt lat="49.9347949" lon="14.6774642"><ele>422.57142857142856</ele><time>2026-04-06T13:21:39.021Z</time></trkpt><trkpt lat="49.9347401" lon="14.6773937"><ele>421.42857142857144</ele><time>2026-04-06T13:21:40.022Z</time></trkpt><trkpt lat="49.9346901" lon="14.6773075"><ele>420.2857142857143</ele><time>2026-04-06T13:21:41.021Z</time></trkpt><trkpt lat="49.9346445" lon="14.6772127"><ele>419.1428571428571</ele><time>2026-04-06T13:21:42.022Z</time></trkpt><trkpt lat="49.9346129" lon="14.6771044"><ele>418.0</ele><time>2026-04-06T13:21:43.022Z</time></trkpt><trkpt lat="49.9346015" lon="14.6769755"><ele>418.0</ele><time>2026-04-06T13:21:44.022Z</time></trkpt><trkpt lat="49.934624" lon="14.6768351"><ele>418.0</ele><time>2026-04-06T13:21:45.021Z</time></trkpt><trkpt lat="49.9346607" lon="14.6766796"><ele>418.0</ele><time>2026-04-06T13:21:46.022Z</time></trkpt><trkpt lat="49.9347023" lon="14.676506"><ele>418.0</ele><time>2026-04-06T13:21:47.021Z</time></trkpt><trkpt lat="49.9347413" lon="14.6763163"><ele>418.0</ele><time>2026-04-06T13:21:48.022Z</time></trkpt><trkpt lat="49.9347659" lon="14.676129"><ele>417.79999999999995</ele><time>2026-04-06T13:21:49.022Z</time></trkpt><trkpt lat="49.9347849" lon="14.6759601"><ele>417.6</ele><time>2026-04-06T13:21:50.022Z</time></trkpt><trkpt lat="49.9348022" lon="14.6758096"><ele>417.4</ele><time>2026-04-06T13:21:51.022Z</time></trkpt><trkpt lat="49.9348266" lon="14.6756727"><ele>417.20000000000005</ele><time>2026-04-06T13:21:52.022Z</time></trkpt><trkpt lat="49.9348527" lon="14.6755401"><ele>417.0</ele><time>2026-04-06T13:21:53.022Z</time></trkpt><trkpt lat="49.9348795" lon="14.6754259"><ele>417.0</ele><time>2026-04-06T13:21:54.021Z</time></trkpt><trkpt lat="49.9348821" lon="14.6753264"><ele>417.0</ele><time>2026-04-06T13:21:56.021Z</time></trkpt><trkpt lat="49.934798" lon="14.6752518"><ele>417.0</ele><time>2026-04-06T13:21:58.022Z</time></trkpt><trkpt lat="49.9346978" lon="14.6752057"><ele>417.0</ele><time>2026-04-06T13:22:00.022Z</time></trkpt><trkpt lat="49.9346196" lon="14.6751413"><ele>417.0</ele><time>2026-04-06T13:22:02.022Z</time></trkpt><trkpt lat="49.9345788" lon="14.675058"><ele>417.0</ele><time>2026-04-06T13:22:04.022Z</time></trkpt><trkpt lat="49.9345234" lon="14.6749914"><ele>416.8333333333333</ele><time>2026-04-06T13:22:06.022Z</time></trkpt><trkpt lat="49.9344518" lon="14.674916"><ele>416.66666666666663</ele><time>2026-04-06T13:22:08.022Z</time></trkpt><trkpt lat="49.9344029" lon="14.6748297"><ele>416.5</ele><time>2026-04-06T13:22:10.022Z</time></trkpt><trkpt lat="49.934405" lon="14.6746774"><ele>416.3333333333333</ele><time>2026-04-06T13:22:13.021Z</time></trkpt><trkpt lat="49.9343935" lon="14.6745579"><ele>416.16666666666663</ele><time>2026-04-06T13:22:15.021Z</time></trkpt><trkpt lat="49.934427" lon="14.674413"><ele>416.0</ele><time>2026-04-06T13:22:17.022Z</time></trkpt><trkpt lat="49.9344405" lon="14.6743016"><ele>416.0</ele><time>2026-04-06T13:22:19.022Z</time></trkpt><trkpt lat="49.9344755" lon="14.6741899"><ele>416.0</ele><time>2026-04-06T13:22:21.021Z</time></trkpt><trkpt lat="49.934504" lon="14.6740551"><ele>416.0</ele><time>2026-04-06T13:22:23.022Z</time></trkpt><trkpt lat="49.9345119" lon="14.6739227"><ele>416.0</ele><time>2026-04-06T13:22:25.021Z</time></trkpt><trkpt lat="49.9345249" lon="14.6737789"><ele>416.0</ele><time>2026-04-06T13:22:27.021Z</time></trkpt><trkpt lat="49.9345544" lon="14.6736198"><ele>416.20000000000005</ele><time>2026-04-06T13:22:29.021Z</time></trkpt><trkpt lat="49.9345328" lon="14.6734583"><ele>416.40000000000003</ele><time>2026-04-06T13:22:31.022Z</time></trkpt><trkpt lat="49.9344759" lon="14.6732816"><ele>416.6</ele><time>2026-04-06T13:22:33.021Z</time></trkpt><trkpt lat="49.9344318" lon="14.6731614"><ele>416.8</ele><time>2026-04-06T13:22:34.022Z</time></trkpt><trkpt lat="49.9343823" lon="14.6730439"><ele>417.0</ele><time>2026-04-06T13:22:35.021Z</time></trkpt><trkpt lat="49.9343199" lon="14.6729155"><ele>417.0</ele><time>2026-04-06T13:22:36.021Z</time></trkpt><trkpt lat="49.9342542" lon="14.6727731"><ele>417.0</ele><time>2026-04-06T13:22:37.022Z</time></trkpt><trkpt lat="49.9341941" lon="14.6726518"><ele>417.0</ele><time>2026-04-06T13:22:38.034Z</time></trkpt><trkpt lat="49.9341384" lon="14.6725477"><ele>417.0</ele><time>2026-04-06T13:22:39.033Z</time></trkpt><trkpt lat="49.9340983" lon="14.6724622"><ele>417.0</ele><time>2026-04-06T13:22:40.033Z</time></trkpt><trkpt lat="49.934024" lon="14.6723304"><ele>418.40000000000003</ele><time>2026-04-06T13:22:42.033Z</time></trkpt><trkpt lat="49.9339363" lon="14.6722449"><ele>419.8</ele><time>2026-04-06T13:22:44.034Z</time></trkpt><trkpt lat="49.9338589" lon="14.6722226"><ele>421.2</ele><time>2026-04-06T13:22:45.033Z</time></trkpt><trkpt lat="49.9337701" lon="14.6722043"><ele>422.6</ele><time>2026-04-06T13:22:46.034Z</time></trkpt><trkpt lat="49.9336727" lon="14.6721929"><ele>424.0</ele><time>2026-04-06T13:22:47.033Z</time></trkpt><trkpt lat="49.9335624" lon="14.6721825"><ele>424.0</ele><time>2026-04-06T13:22:48.033Z</time></trkpt><trkpt lat="49.93344" lon="14.672168"><ele>424.0</ele><time>2026-04-06T13:22:49.033Z</time></trkpt><trkpt lat="49.9333125" lon="14.6721572"><ele>424.0</ele><time>2026-04-06T13:22:50.033Z</time></trkpt><trkpt lat="49.9331911" lon="14.6721452"><ele>424.0</ele><time>2026-04-06T13:22:51.034Z</time></trkpt><trkpt lat="49.9330748" lon="14.6721225"><ele>424.25</ele><time>2026-04-06T13:22:52.034Z</time></trkpt><trkpt lat="49.9329662" lon="14.6721078"><ele>424.5</ele><time>2026-04-06T13:22:53.034Z</time></trkpt><trkpt lat="49.9328509" lon="14.6720727"><ele>424.75</ele><time>2026-04-06T13:22:54.033Z</time></trkpt><trkpt lat="49.9327281" lon="14.6720385"><ele>425.0</ele><time>2026-04-06T13:22:55.034Z</time></trkpt><trkpt lat="49.932606" lon="14.6720081"><ele>425.25</ele><time>2026-04-06T13:22:56.034Z</time></trkpt><trkpt lat="49.93249" lon="14.6719799"><ele>425.5</ele><time>2026-04-06T13:22:57.034Z</time></trkpt><trkpt lat="49.9323758" lon="14.6719464"><ele>425.75</ele><time>2026-04-06T13:22:58.034Z</time></trkpt><trkpt lat="49.9322642" lon="14.6719105"><ele>426.0</ele><time>2026-04-06T13:22:59.033Z</time></trkpt><trkpt lat="49.932155" lon="14.6718711"><ele>426.0</ele><time>2026-04-06T13:23:00.034Z</time></trkpt><trkpt lat="49.9320523" lon="14.6718325"><ele>426.0</ele><time>2026-04-06T13:23:01.033Z</time></trkpt><trkpt lat="49.9319772" lon="14.6718035"><ele>426.0</ele><time>2026-04-06T13:23:02.033Z</time></trkpt><trkpt lat="49.9319167" lon="14.6716592"><ele>426.0</ele><time>2026-04-06T13:23:04.033Z</time></trkpt><trkpt lat="49.9319297" lon="14.6715141"><ele>426.0</ele><time>2026-04-06T13:23:05.034Z</time></trkpt><trkpt lat="49.9319472" lon="14.6713361"><ele>426.0</ele><time>2026-04-06T13:23:06.034Z</time></trkpt><trkpt lat="49.9319465" lon="14.6711902"><ele>426.0</ele><time>2026-04-06T13:23:07.033Z</time></trkpt><trkpt lat="49.9319375" lon="14.6710784"><ele>426.0</ele><time>2026-04-06T13:23:08.034Z</time></trkpt><trkpt lat="49.9318738" lon="14.6710079"><ele>426.0</ele><time>2026-04-06T13:23:10.034Z</time></trkpt><trkpt lat="49.9317596" lon="14.6710533"><ele>426.0</ele><time>2026-04-06T13:23:12.034Z</time></trkpt><trkpt lat="49.9316897" lon="14.6710865"><ele>426.0</ele><time>2026-04-06T13:23:13.034Z</time></trkpt><trkpt lat="49.9316079" lon="14.6711412"><ele>425.5</ele><time>2026-04-06T13:23:14.033Z</time></trkpt><trkpt lat="49.9315309" lon="14.671183"><ele>425.0</ele><time>2026-04-06T13:23:15.033Z</time></trkpt><trkpt lat="49.9314524" lon="14.671219"><ele>424.5</ele><time>2026-04-06T13:23:16.033Z</time></trkpt><trkpt lat="49.9313781" lon="14.6712552"><ele>424.0</ele><time>2026-04-06T13:23:17.034Z</time></trkpt><trkpt lat="49.9313139" lon="14.6712899"><ele>423.5</ele><time>2026-04-06T13:23:18.034Z</time></trkpt><trkpt lat="49.9312495" lon="14.6713065"><ele>423.0</ele><time>2026-04-06T13:23:19.034Z</time></trkpt><trkpt lat="49.9311462" lon="14.6712283"><ele>423.1666666666667</ele><time>2026-04-06T13:23:21.034Z</time></trkpt><trkpt lat="49.9310656" lon="14.67109"><ele>423.33333333333337</ele><time>2026-04-06T13:23:23.034Z</time></trkpt><trkpt lat="49.9310226" lon="14.6710052"><ele>423.5</ele><time>2026-04-06T13:23:24.033Z</time></trkpt><trkpt lat="49.9309736" lon="14.6709273"><ele>423.6666666666667</ele><time>2026-04-06T13:23:25.033Z</time></trkpt><trkpt lat="49.9309201" lon="14.6708528"><ele>423.83333333333337</ele><time>2026-04-06T13:23:26.033Z</time></trkpt><trkpt lat="49.930861" lon="14.6707958"><ele>424.0</ele><time>2026-04-06T13:23:27.034Z</time></trkpt><trkpt lat="49.9308022" lon="14.6707371"><ele>424.6666666666667</ele><time>2026-04-06T13:23:28.034Z</time></trkpt><trkpt lat="49.9307507" lon="14.6706696"><ele>425.33333333333337</ele><time>2026-04-06T13:23:29.033Z</time></trkpt><trkpt lat="49.9307154" lon="14.6704893"><ele>426.0</ele><time>2026-04-06T13:23:31.033Z</time></trkpt><trkpt lat="49.9307119" lon="14.6703785"><ele>426.66666666666663</ele><time>2026-04-06T13:23:32.034Z</time></trkpt><trkpt lat="49.9307094" lon="14.6702604"><ele>427.3333333333333</ele><time>2026-04-06T13:23:33.033Z</time></trkpt><trkpt lat="49.930716" lon="14.670144"><ele>428.0</ele><time>2026-04-06T13:23:34.033Z</time></trkpt><trkpt lat="49.9307365" lon="14.6700372"><ele>427.99999999999994</ele><time>2026-04-06T13:23:35.033Z</time></trkpt><trkpt lat="49.9307613" lon="14.6698734"><ele>428.0</ele><time>2026-04-06T13:23:37.034Z</time></trkpt><trkpt lat="49.930775" lon="14.6697706"><ele>428.0</ele><time>2026-04-06T13:23:38.033Z</time></trkpt><trkpt lat="49.9307359" lon="14.6696476"><ele>428.0</ele><time>2026-04-06T13:23:40.033Z</time></trkpt><trkpt lat="49.9306387" lon="14.6696356"><ele>427.99999999999994</ele><time>2026-04-06T13:23:42.033Z</time></trkpt><trkpt lat="49.9305743" lon="14.6695861"><ele>428.0</ele><time>2026-04-06T13:23:45.034Z</time></trkpt><trkpt lat="49.9304948" lon="14.6694524"><ele>428.4</ele><time>2026-04-06T13:23:47.034Z</time></trkpt><trkpt lat="49.9304397" lon="14.6693303"><ele>428.79999999999995</ele><time>2026-04-06T13:23:49.033Z</time></trkpt><trkpt lat="49.9304362" lon="14.6692283"><ele>429.2</ele><time>2026-04-06T13:23:51.034Z</time></trkpt><trkpt lat="49.9304649" lon="14.6690823"><ele>429.6</ele><time>2026-04-06T13:23:53.034Z</time></trkpt><trkpt lat="49.9305158" lon="14.6688999"><ele>430.0</ele><time>2026-04-06T13:23:55.034Z</time></trkpt><trkpt lat="49.9305394" lon="14.6687974"><ele>430.0</ele><time>2026-04-06T13:23:56.034Z</time></trkpt><trkpt lat="49.9305607" lon="14.6686836"><ele>430.0</ele><time>2026-04-06T13:23:57.034Z</time></trkpt><trkpt lat="49.9305865" lon="14.6685455"><ele>430.0</ele><time>2026-04-06T13:23:58.034Z</time></trkpt><trkpt lat="49.9306177" lon="14.668398"><ele>430.0</ele><time>2026-04-06T13:23:59.034Z</time></trkpt><trkpt lat="49.9306479" lon="14.668251"><ele>430.0</ele><time>2026-04-06T13:24:00.033Z</time></trkpt><trkpt lat="49.9306787" lon="14.6681057"><ele>431.4</ele><time>2026-04-06T13:24:01.034Z</time></trkpt><trkpt lat="49.9307039" lon="14.6679841"><ele>432.8</ele><time>2026-04-06T13:24:02.034Z</time></trkpt><trkpt lat="49.930673" lon="14.6678544"><ele>434.20000000000005</ele><time>2026-04-06T13:24:04.033Z</time></trkpt><trkpt lat="49.9305517" lon="14.6677868"><ele>435.6</ele><time>2026-04-06T13:24:06.033Z</time></trkpt><trkpt lat="49.9304783" lon="14.6677618"><ele>437.0</ele><time>2026-04-06T13:24:07.033Z</time></trkpt><trkpt lat="49.9303992" lon="14.6677398"><ele>438.20000000000005</ele><time>2026-04-06T13:24:08.034Z</time></trkpt><trkpt lat="49.9303205" lon="14.6677172"><ele>439.40000000000003</ele><time>2026-04-06T13:24:09.033Z</time></trkpt><trkpt lat="49.930213" lon="14.6676876"><ele>440.59999999999997</ele><time>2026-04-06T13:24:11.034Z</time></trkpt><trkpt lat="49.9301095" lon="14.6676685"><ele>441.79999999999995</ele><time>2026-04-06T13:24:13.033Z</time></trkpt><trkpt lat="49.9300075" lon="14.6676432"><ele>443.0</ele><time>2026-04-06T13:24:15.034Z</time></trkpt><trkpt lat="49.9299466" lon="14.6675921"><ele>443.0</ele><time>2026-04-06T13:24:17.033Z</time></trkpt><trkpt lat="49.9299169" lon="14.6674717"><ele>443.0</ele><time>2026-04-06T13:24:19.034Z</time></trkpt><trkpt lat="49.9299199" lon="14.6673722"><ele>443.0</ele><time>2026-04-06T13:24:20.034Z</time></trkpt><trkpt lat="49.9299255" lon="14.6672679"><ele>443.0</ele><time>2026-04-06T13:24:21.034Z</time></trkpt><trkpt lat="49.9299261" lon="14.6671616"><ele>443.0</ele><time>2026-04-06T13:24:22.033Z</time></trkpt><trkpt lat="49.9299278" lon="14.6670537"><ele>443.0</ele><time>2026-04-06T13:24:23.034Z</time></trkpt><trkpt lat="49.929926" lon="14.6669454"><ele>443.0</ele><time>2026-04-06T13:24:24.033Z</time></trkpt><trkpt lat="49.9299225" lon="14.6668385"><ele>443.49999999999994</ele><time>2026-04-06T13:24:25.033Z</time></trkpt><trkpt lat="49.9299215" lon="14.6667372"><ele>444.0</ele><time>2026-04-06T13:24:26.034Z</time></trkpt><trkpt lat="49.9299306" lon="14.6665624"><ele>444.5</ele><time>2026-04-06T13:24:28.034Z</time></trkpt><trkpt lat="49.9299253" lon="14.6664138"><ele>445.0</ele><time>2026-04-06T13:24:30.033Z</time></trkpt><trkpt lat="49.9299061" lon="14.6663173"><ele>445.49999999999994</ele><time>2026-04-06T13:24:36.034Z</time></trkpt><trkpt lat="49.9298018" lon="14.6662885"><ele>446.0</ele><time>2026-04-06T13:24:38.034Z</time></trkpt><trkpt lat="49.9297356" lon="14.6663058"><ele>446.0</ele><time>2026-04-06T13:24:39.033Z</time></trkpt><trkpt lat="49.9296598" lon="14.6663278"><ele>446.0</ele><time>2026-04-06T13:24:40.034Z</time></trkpt><trkpt lat="49.9295715" lon="14.6663518"><ele>446.0</ele><time>2026-04-06T13:24:41.033Z</time></trkpt><trkpt lat="49.929466" lon="14.666366"><ele>446.0</ele><time>2026-04-06T13:24:42.034Z</time></trkpt><trkpt lat="49.9293499" lon="14.6663876"><ele>446.0</ele><time>2026-04-06T13:24:43.033Z</time></trkpt><trkpt lat="49.929229" lon="14.6664112"><ele>445.5</ele><time>2026-04-06T13:24:44.033Z</time></trkpt><trkpt lat="49.9291009" lon="14.666437"><ele>445.0</ele><time>2026-04-06T13:24:45.033Z</time></trkpt><trkpt lat="49.9289673" lon="14.666469"><ele>444.5</ele><time>2026-04-06T13:24:46.033Z</time></trkpt><trkpt lat="49.9288335" lon="14.6664976"><ele>444.0</ele><time>2026-04-06T13:24:47.034Z</time></trkpt><trkpt lat="49.928692" lon="14.666524"><ele>444.0</ele><time>2026-04-06T13:24:48.033Z</time></trkpt><trkpt lat="49.9285411" lon="14.6665347"><ele>444.0</ele><time>2026-04-06T13:24:49.034Z</time></trkpt><trkpt lat="49.9283835" lon="14.6665269"><ele>444.0</ele><time>2026-04-06T13:24:50.034Z</time></trkpt><trkpt lat="49.9282217" lon="14.6665076"><ele>441.66666666666663</ele><time>2026-04-06T13:24:51.034Z</time></trkpt><trkpt lat="49.9280539" lon="14.6664855"><ele>439.3333333333333</ele><time>2026-04-06T13:24:52.033Z</time></trkpt><trkpt lat="49.9278896" lon="14.6664616"><ele>437.0</ele><time>2026-04-06T13:24:53.034Z</time></trkpt><trkpt lat="49.9277209" lon="14.666446"><ele>437.0</ele><time>2026-04-06T13:24:54.034Z</time></trkpt><trkpt lat="49.9275394" lon="14.6664606"><ele>437.0</ele><time>2026-04-06T13:24:55.033Z</time></trkpt><trkpt lat="49.9273663" lon="14.6665089"><ele>437.0</ele><time>2026-04-06T13:24:56.034Z</time></trkpt><trkpt lat="49.9272097" lon="14.6665819"><ele>437.0</ele><time>2026-04-06T13:24:57.033Z</time></trkpt><trkpt lat="49.9270468" lon="14.6666668"><ele>437.0</ele><time>2026-04-06T13:24:58.034Z</time></trkpt><trkpt lat="49.926884" lon="14.6667659"><ele>437.0</ele><time>2026-04-06T13:24:59.034Z</time></trkpt><trkpt lat="49.9267307" lon="14.666858"><ele>439.0</ele><time>2026-04-06T13:25:00.034Z</time></trkpt><trkpt lat="49.9265764" lon="14.6669033"><ele>441.0</ele><time>2026-04-06T13:25:01.034Z</time></trkpt><trkpt lat="49.9264398" lon="14.666939"><ele>443.0</ele><time>2026-04-06T13:25:02.033Z</time></trkpt><trkpt lat="49.9263347" lon="14.6669703"><ele>445.0</ele><time>2026-04-06T13:25:03.034Z</time></trkpt><trkpt lat="49.9262561" lon="14.6669884"><ele>445.0</ele><time>2026-04-06T13:25:05.033Z</time></trkpt><trkpt lat="49.9261579" lon="14.6670263"><ele>445.0</ele><time>2026-04-06T13:25:10.034Z</time></trkpt><trkpt lat="49.9260206" lon="14.6670811"><ele>445.0</ele><time>2026-04-06T13:25:12.034Z</time></trkpt><trkpt lat="49.92591" lon="14.6670872"><ele>445.0</ele><time>2026-04-06T13:25:13.034Z</time></trkpt><trkpt lat="49.9257844" lon="14.6671149"><ele>446.33333333333337</ele><time>2026-04-06T13:25:14.033Z</time></trkpt><trkpt lat="49.9256486" lon="14.6671542"><ele>447.66666666666663</ele><time>2026-04-06T13:25:15.033Z</time></trkpt><trkpt lat="49.925504" lon="14.6672044"><ele>449.0</ele><time>2026-04-06T13:25:16.033Z</time></trkpt><trkpt lat="49.9253374" lon="14.6672454"><ele>449.0</ele><time>2026-04-06T13:25:17.033Z</time></trkpt><trkpt lat="49.9251545" lon="14.6672858"><ele>449.0</ele><time>2026-04-06T13:25:18.033Z</time></trkpt><trkpt lat="49.9249726" lon="14.6673334"><ele>449.0</ele><time>2026-04-06T13:25:19.034Z</time></trkpt><trkpt lat="49.9247847" lon="14.6673876"><ele>449.3333333333333</ele><time>2026-04-06T13:25:20.033Z</time></trkpt><trkpt lat="49.9245886" lon="14.667441"><ele>449.66666666666663</ele><time>2026-04-06T13:25:21.034Z</time></trkpt><trkpt lat="49.9243815" lon="14.6674934"><ele>450.0</ele><time>2026-04-06T13:25:22.033Z</time></trkpt><trkpt lat="49.9241677" lon="14.6675501"><ele>450.0</ele><time>2026-04-06T13:25:23.033Z</time></trkpt><trkpt lat="49.9239625" lon="14.6676079"><ele>450.0</ele><time>2026-04-06T13:25:24.034Z</time></trkpt><trkpt lat="49.9237598" lon="14.6676678"><ele>450.0</ele><time>2026-04-06T13:25:25.034Z</time></trkpt><trkpt lat="49.9235614" lon="14.6677351"><ele>450.66666666666663</ele><time>2026-04-06T13:25:26.033Z</time></trkpt><trkpt lat="49.9233622" lon="14.667799"><ele>451.3333333333333</ele><time>2026-04-06T13:25:27.033Z</time></trkpt><trkpt lat="49.9231545" lon="14.667855"><ele>452.0</ele><time>2026-04-06T13:25:28.033Z</time></trkpt><trkpt lat="49.9229449" lon="14.6679103"><ele>452.0</ele><time>2026-04-06T13:25:29.034Z</time></trkpt><trkpt lat="49.9227502" lon="14.6679669"><ele>452.0</ele><time>2026-04-06T13:25:30.033Z</time></trkpt><trkpt lat="49.9225722" lon="14.6680239"><ele>452.0</ele><time>2026-04-06T13:25:31.034Z</time></trkpt><trkpt lat="49.9224025" lon="14.6680716"><ele>452.5</ele><time>2026-04-06T13:25:32.033Z</time></trkpt><trkpt lat="49.9222422" lon="14.668114"><ele>453.0</ele><time>2026-04-06T13:25:33.034Z</time></trkpt><trkpt lat="49.9221003" lon="14.6681429"><ele>453.5</ele><time>2026-04-06T13:25:34.033Z</time></trkpt><trkpt lat="49.9219856" lon="14.6681347"><ele>454.0</ele><time>2026-04-06T13:25:35.034Z</time></trkpt><trkpt lat="49.9218875" lon="14.6680629"><ele>454.0</ele><time>2026-04-06T13:25:36.033Z</time></trkpt><trkpt lat="49.9217936" lon="14.6679441"><ele>454.0</ele><time>2026-04-06T13:25:37.034Z</time></trkpt><trkpt lat="49.9217083" lon="14.6677882"><ele>454.0</ele><time>2026-04-06T13:25:38.034Z</time></trkpt><trkpt lat="49.9216248" lon="14.667609"><ele>454.0</ele><time>2026-04-06T13:25:39.033Z</time></trkpt><trkpt lat="49.9215263" lon="14.667424"><ele>454.0</ele><time>2026-04-06T13:25:40.033Z</time></trkpt><trkpt lat="49.9214107" lon="14.6672323"><ele>454.0</ele><time>2026-04-06T13:25:41.033Z</time></trkpt><trkpt lat="49.92129" lon="14.6670309"><ele>454.0</ele><time>2026-04-06T13:25:42.034Z</time></trkpt><trkpt lat="49.92116" lon="14.6668298"><ele>453.6666666666667</ele><time>2026-04-06T13:25:43.034Z</time></trkpt><trkpt lat="49.9210239" lon="14.6666272"><ele>453.33333333333337</ele><time>2026-04-06T13:25:44.033Z</time></trkpt><trkpt lat="49.9208923" lon="14.666431"><ele>453.0</ele><time>2026-04-06T13:25:45.033Z</time></trkpt><trkpt lat="49.9207616" lon="14.6662463"><ele>452.5</ele><time>2026-04-06T13:25:46.034Z</time></trkpt><trkpt lat="49.9206399" lon="14.6660828"><ele>452.0</ele><time>2026-04-06T13:25:47.034Z</time></trkpt><trkpt lat="49.920535" lon="14.6659199"><ele>451.5</ele><time>2026-04-06T13:25:48.034Z</time></trkpt><trkpt lat="49.9204404" lon="14.6657634"><ele>451.0</ele><time>2026-04-06T13:25:49.034Z</time></trkpt><trkpt lat="49.9203515" lon="14.6656271"><ele>451.0</ele><time>2026-04-06T13:25:50.034Z</time></trkpt><trkpt lat="49.920278" lon="14.6655142"><ele>451.0</ele><time>2026-04-06T13:25:51.033Z</time></trkpt><trkpt lat="49.9202324" lon="14.6654334"><ele>451.0</ele><time>2026-04-06T13:25:52.034Z</time></trkpt><trkpt lat="49.9201299" lon="14.6652728"><ele>451.0</ele><time>2026-04-06T13:25:54.032Z</time></trkpt><trkpt lat="49.9200577" lon="14.6651825"><ele>451.0</ele><time>2026-04-06T13:25:55.032Z</time></trkpt><trkpt lat="49.9199933" lon="14.6651111"><ele>450.83333333333337</ele><time>2026-04-06T13:25:56.033Z</time></trkpt><trkpt lat="49.9199499" lon="14.6650331"><ele>450.6666666666667</ele><time>2026-04-06T13:25:57.033Z</time></trkpt><trkpt lat="49.9198932" lon="14.6649661"><ele>450.5</ele><time>2026-04-06T13:25:58.033Z</time></trkpt><trkpt lat="49.9198447" lon="14.6648963"><ele>450.33333333333337</ele><time>2026-04-06T13:25:59.032Z</time></trkpt><trkpt lat="49.9197538" lon="14.6648057"><ele>450.1666666666667</ele><time>2026-04-06T13:26:01.033Z</time></trkpt><trkpt lat="49.9196908" lon="14.6646664"><ele>450.0</ele><time>2026-04-06T13:26:03.033Z</time></trkpt><trkpt lat="49.9196653" lon="14.6644786"><ele>450.0</ele><time>2026-04-06T13:26:05.033Z</time></trkpt><trkpt lat="49.9196703" lon="14.6643745"><ele>450.0</ele><time>2026-04-06T13:26:06.032Z</time></trkpt><trkpt lat="49.9196812" lon="14.6642496"><ele>450.0</ele><time>2026-04-06T13:26:07.033Z</time></trkpt><trkpt lat="49.9196679" lon="14.6641128"><ele>450.0</ele><time>2026-04-06T13:26:08.032Z</time></trkpt><trkpt lat="49.9196508" lon="14.663984"><ele>450.0</ele><time>2026-04-06T13:26:09.033Z</time></trkpt><trkpt lat="49.9196255" lon="14.6638212"><ele>450.0</ele><time>2026-04-06T13:26:10.033Z</time></trkpt><trkpt lat="49.9195818" lon="14.663655"><ele>450.0</ele><time>2026-04-06T13:26:11.033Z</time></trkpt><trkpt lat="49.9195319" lon="14.6634953"><ele>450.0</ele><time>2026-04-06T13:26:12.033Z</time></trkpt><trkpt lat="49.9194763" lon="14.6633473"><ele>450.0</ele><time>2026-04-06T13:26:13.033Z</time></trkpt><trkpt lat="49.9194253" lon="14.6632076"><ele>450.0</ele><time>2026-04-06T13:26:14.032Z</time></trkpt><trkpt lat="49.9193653" lon="14.6630977"><ele>450.0</ele><time>2026-04-06T13:26:15.033Z</time></trkpt><trkpt lat="49.9193148" lon="14.663007"><ele>450.00000000000006</ele><time>2026-04-06T13:26:16.032Z</time></trkpt><trkpt lat="49.9192691" lon="14.662931"><ele>450.0</ele><time>2026-04-06T13:26:17.032Z</time></trkpt><trkpt lat="49.9192017" lon="14.6628638"><ele>450.00000000000006</ele><time>2026-04-06T13:26:18.032Z</time></trkpt><trkpt lat="49.9191363" lon="14.6628125"><ele>450.00000000000006</ele><time>2026-04-06T13:26:19.033Z</time></trkpt><trkpt lat="49.9190737" lon="14.6627671"><ele>450.0</ele><time>2026-04-06T13:26:20.032Z</time></trkpt><trkpt lat="49.9190112" lon="14.6627206"><ele>450.00000000000006</ele><time>2026-04-06T13:26:21.032Z</time></trkpt><trkpt lat="49.9189488" lon="14.6626972"><ele>450.00000000000006</ele><time>2026-04-06T13:26:22.032Z</time></trkpt><trkpt lat="49.9188849" lon="14.6626744"><ele>448.8</ele><time>2026-04-06T13:26:23.032Z</time></trkpt><trkpt lat="49.91882" lon="14.6626626"><ele>447.6</ele><time>2026-04-06T13:26:24.033Z</time></trkpt><trkpt lat="49.9187036" lon="14.6625872"><ele>446.4</ele><time>2026-04-06T13:26:26.032Z</time></trkpt><trkpt lat="49.9185978" lon="14.6625323"><ele>445.2</ele><time>2026-04-06T13:26:28.033Z</time></trkpt><trkpt lat="49.9185201" lon="14.6624679"><ele>444.0</ele><time>2026-04-06T13:26:30.033Z</time></trkpt><trkpt lat="49.9183984" lon="14.662429"><ele>443.25</ele><time>2026-04-06T13:26:32.033Z</time></trkpt><trkpt lat="49.9183142" lon="14.6624309"><ele>442.5</ele><time>2026-04-06T13:26:33.033Z</time></trkpt><trkpt lat="49.9182041" lon="14.662452"><ele>441.75</ele><time>2026-04-06T13:26:34.033Z</time></trkpt><trkpt lat="49.9180815" lon="14.6625023"><ele>441.0</ele><time>2026-04-06T13:26:35.033Z</time></trkpt><trkpt lat="49.9179552" lon="14.6625961"><ele>441.0</ele><time>2026-04-06T13:26:36.032Z</time></trkpt><trkpt lat="49.917841" lon="14.6627285"><ele>441.0</ele><time>2026-04-06T13:26:37.033Z</time></trkpt><trkpt lat="49.9177265" lon="14.6628987"><ele>441.0</ele><time>2026-04-06T13:26:38.032Z</time></trkpt><trkpt lat="49.9176012" lon="14.6630765"><ele>439.33333333333337</ele><time>2026-04-06T13:26:39.032Z</time></trkpt><trkpt lat="49.9174437" lon="14.6632395"><ele>437.6666666666667</ele><time>2026-04-06T13:26:40.032Z</time></trkpt><trkpt lat="49.9172573" lon="14.6634024"><ele>436.0</ele><time>2026-04-06T13:26:41.032Z</time></trkpt><trkpt lat="49.9170497" lon="14.6635932"><ele>435.0</ele><time>2026-04-06T13:26:42.033Z</time></trkpt><trkpt lat="49.9168303" lon="14.6637891"><ele>434.0</ele><time>2026-04-06T13:26:43.032Z</time></trkpt><trkpt lat="49.9166247" lon="14.6639708"><ele>433.3333333333333</ele><time>2026-04-06T13:26:44.033Z</time></trkpt><trkpt lat="49.9164391" lon="14.664146"><ele>432.66666666666663</ele><time>2026-04-06T13:26:45.033Z</time></trkpt><trkpt lat="49.9162813" lon="14.6643111"><ele>432.0</ele><time>2026-04-06T13:26:46.032Z</time></trkpt><trkpt lat="49.9161371" lon="14.6644695"><ele>432.0</ele><time>2026-04-06T13:26:47.032Z</time></trkpt><trkpt lat="49.9160246" lon="14.6646283"><ele>432.0</ele><time>2026-04-06T13:26:48.033Z</time></trkpt><trkpt lat="49.9159585" lon="14.6648107"><ele>432.0</ele><time>2026-04-06T13:26:49.032Z</time></trkpt><trkpt lat="49.9159018" lon="14.6650033"><ele>432.0</ele><time>2026-04-06T13:26:50.033Z</time></trkpt><trkpt lat="49.9158345" lon="14.6651844"><ele>431.5</ele><time>2026-04-06T13:26:51.032Z</time></trkpt><trkpt lat="49.915753" lon="14.6653492"><ele>431.0</ele><time>2026-04-06T13:26:52.033Z</time></trkpt><trkpt lat="49.9156526" lon="14.6654961"><ele>430.5</ele><time>2026-04-06T13:26:53.033Z</time></trkpt><trkpt lat="49.9155273" lon="14.6656453"><ele>430.0</ele><time>2026-04-06T13:26:54.033Z</time></trkpt><trkpt lat="49.9153873" lon="14.6657889"><ele>430.0</ele><time>2026-04-06T13:26:55.032Z</time></trkpt><trkpt lat="49.9152225" lon="14.6659248"><ele>430.0</ele><time>2026-04-06T13:26:56.033Z</time></trkpt><trkpt lat="49.9150488" lon="14.6660558"><ele>430.0</ele><time>2026-04-06T13:26:57.033Z</time></trkpt><trkpt lat="49.9148856" lon="14.6661856"><ele>430.33333333333337</ele><time>2026-04-06T13:26:58.033Z</time></trkpt><trkpt lat="49.9147153" lon="14.6663116"><ele>430.66666666666663</ele><time>2026-04-06T13:26:59.032Z</time></trkpt><trkpt lat="49.9145599" lon="14.6664085"><ele>431.0</ele><time>2026-04-06T13:27:00.033Z</time></trkpt><trkpt lat="49.9144061" lon="14.6664797"><ele>431.0</ele><time>2026-04-06T13:27:01.032Z</time></trkpt><trkpt lat="49.9142411" lon="14.6665623"><ele>431.0</ele><time>2026-04-06T13:27:02.032Z</time></trkpt><trkpt lat="49.9140813" lon="14.6666628"><ele>431.0</ele><time>2026-04-06T13:27:03.032Z</time></trkpt><trkpt lat="49.9139536" lon="14.6667589"><ele>431.0</ele><time>2026-04-06T13:27:04.032Z</time></trkpt><trkpt lat="49.9138557" lon="14.6668788"><ele>431.0</ele><time>2026-04-06T13:27:05.032Z</time></trkpt><trkpt lat="49.913788" lon="14.6670246"><ele>431.0</ele><time>2026-04-06T13:27:06.032Z</time></trkpt><trkpt lat="49.9137313" lon="14.6671993"><ele>431.0</ele><time>2026-04-06T13:27:07.032Z</time></trkpt><trkpt lat="49.9136684" lon="14.6673629"><ele>430.5</ele><time>2026-04-06T13:27:08.032Z</time></trkpt><trkpt lat="49.9135891" lon="14.6674902"><ele>430.0</ele><time>2026-04-06T13:27:09.032Z</time></trkpt><trkpt lat="49.9134913" lon="14.6676098"><ele>429.5</ele><time>2026-04-06T13:27:10.033Z</time></trkpt><trkpt lat="49.9133558" lon="14.6677032"><ele>429.0</ele><time>2026-04-06T13:27:11.033Z</time></trkpt><trkpt lat="49.9131937" lon="14.6677679"><ele>430.5</ele><time>2026-04-06T13:27:12.033Z</time></trkpt><trkpt lat="49.9130376" lon="14.6678044"><ele>432.0</ele><time>2026-04-06T13:27:13.032Z</time></trkpt><trkpt lat="49.9128858" lon="14.667819"><ele>433.5</ele><time>2026-04-06T13:27:14.032Z</time></trkpt><trkpt lat="49.9127489" lon="14.6678329"><ele>435.0</ele><time>2026-04-06T13:27:15.032Z</time></trkpt><trkpt lat="49.9126294" lon="14.6678529"><ele>435.2</ele><time>2026-04-06T13:27:16.032Z</time></trkpt><trkpt lat="49.912529" lon="14.6679047"><ele>435.4</ele><time>2026-04-06T13:27:17.033Z</time></trkpt><trkpt lat="49.9124412" lon="14.6679799"><ele>435.6</ele><time>2026-04-06T13:27:18.032Z</time></trkpt><trkpt lat="49.9123532" lon="14.6680772"><ele>435.8</ele><time>2026-04-06T13:27:19.033Z</time></trkpt><trkpt lat="49.912263" lon="14.6681342"><ele>436.0</ele><time>2026-04-06T13:27:20.032Z</time></trkpt><trkpt lat="49.9121844" lon="14.66817"><ele>436.0</ele><time>2026-04-06T13:27:21.033Z</time></trkpt><trkpt lat="49.9120873" lon="14.6681544"><ele>436.0</ele><time>2026-04-06T13:27:23.032Z</time></trkpt><trkpt lat="49.9120467" lon="14.6680781"><ele>436.0</ele><time>2026-04-06T13:27:25.032Z</time></trkpt><trkpt lat="49.9120446" lon="14.6678488"><ele>436.0</ele><time>2026-04-06T13:27:27.032Z</time></trkpt><trkpt lat="49.9120421" lon="14.6676696"><ele>436.0</ele><time>2026-04-06T13:27:28.032Z</time></trkpt><trkpt lat="49.9120149" lon="14.6674655"><ele>436.25</ele><time>2026-04-06T13:27:29.032Z</time></trkpt><trkpt lat="49.9119602" lon="14.6672412"><ele>436.5</ele><time>2026-04-06T13:27:30.032Z</time></trkpt><trkpt lat="49.9118865" lon="14.667028"><ele>436.75</ele><time>2026-04-06T13:27:31.033Z</time></trkpt><trkpt lat="49.9118083" lon="14.666863"><ele>437.0</ele><time>2026-04-06T13:27:32.032Z</time></trkpt><trkpt lat="49.9117185" lon="14.6667185"><ele>437.0</ele><time>2026-04-06T13:27:33.032Z</time></trkpt><trkpt lat="49.9116022" lon="14.6665998"><ele>437.0</ele><time>2026-04-06T13:27:34.032Z</time></trkpt><trkpt lat="49.9114899" lon="14.666491"><ele>437.0</ele><time>2026-04-06T13:27:35.033Z</time></trkpt><trkpt lat="49.9113875" lon="14.6663879"><ele>437.0</ele><time>2026-04-06T13:27:36.033Z</time></trkpt><trkpt lat="49.9113108" lon="14.6662666"><ele>437.0</ele><time>2026-04-06T13:27:37.032Z</time></trkpt><trkpt lat="49.9112543" lon="14.6661129"><ele>437.0</ele><time>2026-04-06T13:27:38.032Z</time></trkpt><trkpt lat="49.9112128" lon="14.6659524"><ele>437.0</ele><time>2026-04-06T13:27:39.033Z</time></trkpt><trkpt lat="49.9111861" lon="14.6657782"><ele>437.0</ele><time>2026-04-06T13:27:40.033Z</time></trkpt><trkpt lat="49.9111619" lon="14.6655161"><ele>438.3333333333333</ele><time>2026-04-06T13:27:41.032Z</time></trkpt><trkpt lat="49.9111534" lon="14.6652162"><ele>439.66666666666663</ele><time>2026-04-06T13:27:42.033Z</time></trkpt><trkpt lat="49.9111218" lon="14.6648873"><ele>441.0</ele><time>2026-04-06T13:27:43.032Z</time></trkpt><trkpt lat="49.9110794" lon="14.6645254"><ele>442.0</ele><time>2026-04-06T13:27:44.033Z</time></trkpt><trkpt lat="49.9110368" lon="14.6641732"><ele>443.0</ele><time>2026-04-06T13:27:45.033Z</time></trkpt><trkpt lat="49.9110039" lon="14.6638656"><ele>444.0</ele><time>2026-04-06T13:27:46.032Z</time></trkpt><trkpt lat="49.9109679" lon="14.6635933"><ele>445.33333333333337</ele><time>2026-04-06T13:27:47.033Z</time></trkpt><trkpt lat="49.9109283" lon="14.6633216"><ele>446.6666666666667</ele><time>2026-04-06T13:27:48.032Z</time></trkpt><trkpt lat="49.9108777" lon="14.6630777"><ele>448.0</ele><time>2026-04-06T13:27:49.033Z</time></trkpt><trkpt lat="49.9108587" lon="14.6628453"><ele>449.25</ele><time>2026-04-06T13:27:50.032Z</time></trkpt><trkpt lat="49.9108485" lon="14.6626335"><ele>450.5</ele><time>2026-04-06T13:27:51.032Z</time></trkpt><trkpt lat="49.9108702" lon="14.6624164"><ele>451.75</ele><time>2026-04-06T13:27:52.033Z</time></trkpt><trkpt lat="49.9109186" lon="14.6622231"><ele>453.0</ele><time>2026-04-06T13:27:53.033Z</time></trkpt><trkpt lat="49.910996" lon="14.66203"><ele>454.0</ele><time>2026-04-06T13:27:54.032Z</time></trkpt><trkpt lat="49.9110807" lon="14.6618186"><ele>455.0</ele><time>2026-04-06T13:27:55.033Z</time></trkpt><trkpt lat="49.9111809" lon="14.6616149"><ele>456.0</ele><time>2026-04-06T13:27:56.032Z</time></trkpt><trkpt lat="49.9112731" lon="14.6614029"><ele>456.0</ele><time>2026-04-06T13:27:57.032Z</time></trkpt><trkpt lat="49.911362" lon="14.6612112"><ele>456.0</ele><time>2026-04-06T13:27:58.033Z</time></trkpt><trkpt lat="49.9114257" lon="14.6610428"><ele>456.0</ele><time>2026-04-06T13:27:59.033Z</time></trkpt><trkpt lat="49.9114637" lon="14.6608899"><ele>456.0</ele><time>2026-04-06T13:28:00.032Z</time></trkpt><trkpt lat="49.9114792" lon="14.6607067"><ele>457.0</ele><time>2026-04-06T13:28:01.032Z</time></trkpt><trkpt lat="49.9114793" lon="14.6604838"><ele>458.0</ele><time>2026-04-06T13:28:02.033Z</time></trkpt><trkpt lat="49.9114674" lon="14.6602059"><ele>459.0</ele><time>2026-04-06T13:28:03.033Z</time></trkpt><trkpt lat="49.9114501" lon="14.6599238"><ele>459.66666666666663</ele><time>2026-04-06T13:28:04.032Z</time></trkpt><trkpt lat="49.9114363" lon="14.6596017"><ele>460.3333333333333</ele><time>2026-04-06T13:28:05.033Z</time></trkpt><trkpt lat="49.9114229" lon="14.659279"><ele>461.0</ele><time>2026-04-06T13:28:06.033Z</time></trkpt><trkpt lat="49.9113958" lon="14.6589591"><ele>458.3333333333333</ele><time>2026-04-06T13:28:07.033Z</time></trkpt><trkpt lat="49.911369" lon="14.6586363"><ele>455.66666666666663</ele><time>2026-04-06T13:28:08.033Z</time></trkpt><trkpt lat="49.9113432" lon="14.6583134"><ele>453.0</ele><time>2026-04-06T13:28:09.033Z</time></trkpt><trkpt lat="49.9113213" lon="14.6580044"><ele>453.0</ele><time>2026-04-06T13:28:10.032Z</time></trkpt><trkpt lat="49.9113023" lon="14.6577123"><ele>453.0</ele><time>2026-04-06T13:28:11.033Z</time></trkpt><trkpt lat="49.911284" lon="14.6574352"><ele>453.0</ele><time>2026-04-06T13:28:12.032Z</time></trkpt><trkpt lat="49.9112624" lon="14.6571843"><ele>454.66666666666663</ele><time>2026-04-06T13:28:13.033Z</time></trkpt><trkpt lat="49.9112488" lon="14.6569491"><ele>456.3333333333333</ele><time>2026-04-06T13:28:14.032Z</time></trkpt><trkpt lat="49.9112399" lon="14.6567158"><ele>458.0</ele><time>2026-04-06T13:28:15.032Z</time></trkpt><trkpt lat="49.9112467" lon="14.6564863"><ele>458.0</ele><time>2026-04-06T13:28:16.033Z</time></trkpt><trkpt lat="49.9112559" lon="14.6562547"><ele>458.0</ele><time>2026-04-06T13:28:17.032Z</time></trkpt><trkpt lat="49.9112439" lon="14.6560143"><ele>458.0</ele><time>2026-04-06T13:28:18.033Z</time></trkpt><trkpt lat="49.9112239" lon="14.6557688"><ele>458.0</ele><time>2026-04-06T13:28:19.032Z</time></trkpt><trkpt lat="49.911181" lon="14.6555258"><ele>458.0</ele><time>2026-04-06T13:28:20.033Z</time></trkpt><trkpt lat="49.9111428" lon="14.6552847"><ele>458.0</ele><time>2026-04-06T13:28:21.032Z</time></trkpt><trkpt lat="49.9111261" lon="14.6550731"><ele>457.79999999999995</ele><time>2026-04-06T13:28:22.033Z</time></trkpt><trkpt lat="49.9111272" lon="14.6548849"><ele>457.59999999999997</ele><time>2026-04-06T13:28:23.033Z</time></trkpt><trkpt lat="49.9111206" lon="14.6547188"><ele>457.40000000000003</ele><time>2026-04-06T13:28:24.033Z</time></trkpt><trkpt lat="49.9111208" lon="14.6545583"><ele>457.20000000000005</ele><time>2026-04-06T13:28:25.033Z</time></trkpt><trkpt lat="49.9111174" lon="14.6543907"><ele>457.0</ele><time>2026-04-06T13:28:26.033Z</time></trkpt><trkpt lat="49.9111102" lon="14.6542049"><ele>456.33333333333337</ele><time>2026-04-06T13:28:27.032Z</time></trkpt><trkpt lat="49.911102" lon="14.6539997"><ele>455.66666666666663</ele><time>2026-04-06T13:28:28.033Z</time></trkpt><trkpt lat="49.9110886" lon="14.6537829"><ele>455.0</ele><time>2026-04-06T13:28:29.033Z</time></trkpt><trkpt lat="49.9110697" lon="14.6535097"><ele>453.66666666666663</ele><time>2026-04-06T13:28:30.032Z</time></trkpt><trkpt lat="49.9110647" lon="14.653192"><ele>452.33333333333337</ele><time>2026-04-06T13:28:31.032Z</time></trkpt><trkpt lat="49.9110527" lon="14.6528277"><ele>451.0</ele><time>2026-04-06T13:28:32.033Z</time></trkpt><trkpt lat="49.9110254" lon="14.6524491"><ele>449.0</ele><time>2026-04-06T13:28:33.033Z</time></trkpt><trkpt lat="49.9110095" lon="14.6520808"><ele>447.0</ele><time>2026-04-06T13:28:34.032Z</time></trkpt><trkpt lat="49.9109859" lon="14.6517157"><ele>444.0</ele><time>2026-04-06T13:28:35.033Z</time></trkpt><trkpt lat="49.9109512" lon="14.6513422"><ele>441.0</ele><time>2026-04-06T13:28:36.033Z</time></trkpt><trkpt lat="49.9109186" lon="14.6509635"><ele>441.0</ele><time>2026-04-06T13:28:37.033Z</time></trkpt><trkpt lat="49.9108971" lon="14.6505799"><ele>441.0</ele><time>2026-04-06T13:28:38.032Z</time></trkpt><trkpt lat="49.9108815" lon="14.6501971"><ele>439.0</ele><time>2026-04-06T13:28:39.032Z</time></trkpt><trkpt lat="49.9108616" lon="14.6498059"><ele>437.0</ele><time>2026-04-06T13:28:40.032Z</time></trkpt><trkpt lat="49.9108411" lon="14.6494272"><ele>435.66666666666663</ele><time>2026-04-06T13:28:41.033Z</time></trkpt><trkpt lat="49.910823" lon="14.6490765"><ele>434.33333333333337</ele><time>2026-04-06T13:28:42.032Z</time></trkpt><trkpt lat="49.9108043" lon="14.6487529"><ele>433.0</ele><time>2026-04-06T13:28:43.033Z</time></trkpt><trkpt lat="49.910785" lon="14.6484537"><ele>432.33333333333337</ele><time>2026-04-06T13:28:44.032Z</time></trkpt><trkpt lat="49.9107652" lon="14.6481788"><ele>431.66666666666663</ele><time>2026-04-06T13:28:45.033Z</time></trkpt><trkpt lat="49.9107539" lon="14.6479032"><ele>431.0</ele><time>2026-04-06T13:28:46.033Z</time></trkpt><trkpt lat="49.9107373" lon="14.6476252"><ele>428.3333333333333</ele><time>2026-04-06T13:28:47.032Z</time></trkpt><trkpt lat="49.9107034" lon="14.6473532"><ele>425.66666666666663</ele><time>2026-04-06T13:28:48.033Z</time></trkpt><trkpt lat="49.9106609" lon="14.6470739"><ele>423.0</ele><time>2026-04-06T13:28:49.032Z</time></trkpt><trkpt lat="49.9105995" lon="14.6467699"><ele>422.0</ele><time>2026-04-06T13:28:50.032Z</time></trkpt><trkpt lat="49.910532" lon="14.646437"><ele>421.0</ele><time>2026-04-06T13:28:51.032Z</time></trkpt><trkpt lat="49.9104633" lon="14.6460961"><ele>420.6666666666667</ele><time>2026-04-06T13:28:52.033Z</time></trkpt><trkpt lat="49.9104024" lon="14.6457561"><ele>420.33333333333337</ele><time>2026-04-06T13:28:53.032Z</time></trkpt><trkpt lat="49.9103459" lon="14.6454396"><ele>420.0</ele><time>2026-04-06T13:28:54.032Z</time></trkpt><trkpt lat="49.9102879" lon="14.6451526"><ele>420.33333333333337</ele><time>2026-04-06T13:28:55.032Z</time></trkpt><trkpt lat="49.9102381" lon="14.6448839"><ele>420.6666666666667</ele><time>2026-04-06T13:28:56.033Z</time></trkpt><trkpt lat="49.9101947" lon="14.6446285"><ele>421.0</ele><time>2026-04-06T13:28:57.032Z</time></trkpt><trkpt lat="49.9101529" lon="14.6443945"><ele>421.0</ele><time>2026-04-06T13:28:58.032Z</time></trkpt><trkpt lat="49.91011" lon="14.6441762"><ele>421.0</ele><time>2026-04-06T13:28:59.033Z</time></trkpt><trkpt lat="49.9100657" lon="14.643978"><ele>421.0</ele><time>2026-04-06T13:29:00.033Z</time></trkpt><trkpt lat="49.9100348" lon="14.6438143"><ele>421.0</ele><time>2026-04-06T13:29:01.032Z</time></trkpt><trkpt lat="49.910016" lon="14.643692"><ele>421.1666666666667</ele><time>2026-04-06T13:29:02.033Z</time></trkpt><trkpt lat="49.9099955" lon="14.6435963"><ele>421.33333333333337</ele><time>2026-04-06T13:29:03.033Z</time></trkpt><trkpt lat="49.9099679" lon="14.643496"><ele>421.5</ele><time>2026-04-06T13:29:05.032Z</time></trkpt><trkpt lat="49.9098789" lon="14.643474"><ele>421.66666666666663</ele><time>2026-04-06T13:29:07.032Z</time></trkpt><trkpt lat="49.9097923" lon="14.6435127"><ele>421.8333333333333</ele><time>2026-04-06T13:29:08.032Z</time></trkpt><trkpt lat="49.9096923" lon="14.6435691"><ele>422.0</ele><time>2026-04-06T13:29:09.032Z</time></trkpt><trkpt lat="49.9095705" lon="14.6436015"><ele>422.3333333333333</ele><time>2026-04-06T13:29:10.033Z</time></trkpt><trkpt lat="49.9094134" lon="14.6436662"><ele>422.66666666666663</ele><time>2026-04-06T13:29:11.032Z</time></trkpt><trkpt lat="49.9092487" lon="14.6437051"><ele>423.0</ele><time>2026-04-06T13:29:12.033Z</time></trkpt><trkpt lat="49.9090688" lon="14.643724"><ele>421.66666666666663</ele><time>2026-04-06T13:29:13.033Z</time></trkpt><trkpt lat="49.9088616" lon="14.6437418"><ele>420.3333333333333</ele><time>2026-04-06T13:29:14.033Z</time></trkpt><trkpt lat="49.9086455" lon="14.6437668"><ele>419.0</ele><time>2026-04-06T13:29:15.033Z</time></trkpt><trkpt lat="49.9084155" lon="14.6437905"><ele>419.5</ele><time>2026-04-06T13:29:16.033Z</time></trkpt><trkpt lat="49.9081716" lon="14.6438195"><ele>420.0</ele><time>2026-04-06T13:29:17.032Z</time></trkpt><trkpt lat="49.9079081" lon="14.6438496"><ele>420.0</ele><time>2026-04-06T13:29:18.039Z</time></trkpt><trkpt lat="49.9076611" lon="14.6438655"><ele>420.0</ele><time>2026-04-06T13:29:19.04Z</time></trkpt><trkpt lat="49.9074227" lon="14.6438898"><ele>423.33333333333337</ele><time>2026-04-06T13:29:20.039Z</time></trkpt><trkpt lat="49.9071924" lon="14.64392"><ele>426.6666666666667</ele><time>2026-04-06T13:29:21.04Z</time></trkpt><trkpt lat="49.9069797" lon="14.6439513"><ele>430.0</ele><time>2026-04-06T13:29:22.039Z</time></trkpt><trkpt lat="49.9068023" lon="14.643996"><ele>430.6666666666667</ele><time>2026-04-06T13:29:23.04Z</time></trkpt><trkpt lat="49.9066243" lon="14.6440132"><ele>431.33333333333337</ele><time>2026-04-06T13:29:24.04Z</time></trkpt><trkpt lat="49.9064592" lon="14.6440373"><ele>432.0</ele><time>2026-04-06T13:29:25.039Z</time></trkpt><trkpt lat="49.9063189" lon="14.644067"><ele>432.0</ele><time>2026-04-06T13:29:26.04Z</time></trkpt><trkpt lat="49.9061876" lon="14.6441009"><ele>432.0</ele><time>2026-04-06T13:29:27.04Z</time></trkpt><trkpt lat="49.9060602" lon="14.6441648"><ele>432.0</ele><time>2026-04-06T13:29:28.04Z</time></trkpt><trkpt lat="49.9059284" lon="14.6442645"><ele>432.0</ele><time>2026-04-06T13:29:29.04Z</time></trkpt><trkpt lat="49.9057994" lon="14.644369"><ele>432.0</ele><time>2026-04-06T13:29:30.039Z</time></trkpt><trkpt lat="49.9056569" lon="14.6444618"><ele>432.0</ele><time>2026-04-06T13:29:31.04Z</time></trkpt><trkpt lat="49.9055102" lon="14.6445411"><ele>432.0</ele><time>2026-04-06T13:29:32.039Z</time></trkpt><trkpt lat="49.9053637" lon="14.6446197"><ele>432.0</ele><time>2026-04-06T13:29:33.04Z</time></trkpt><trkpt lat="49.9051967" lon="14.6446981"><ele>432.0</ele><time>2026-04-06T13:29:34.039Z</time></trkpt><trkpt lat="49.9050188" lon="14.6447568"><ele>432.0</ele><time>2026-04-06T13:29:35.04Z</time></trkpt><trkpt lat="49.9048345" lon="14.6448175"><ele>435.33333333333337</ele><time>2026-04-06T13:29:36.039Z</time></trkpt><trkpt lat="49.9046581" lon="14.6448901"><ele>438.6666666666667</ele><time>2026-04-06T13:29:37.039Z</time></trkpt><trkpt lat="49.9044971" lon="14.6449615"><ele>442.0</ele><time>2026-04-06T13:29:38.04Z</time></trkpt><trkpt lat="49.9043577" lon="14.6450136"><ele>442.5</ele><time>2026-04-06T13:29:39.039Z</time></trkpt><trkpt lat="49.9042192" lon="14.6450165"><ele>443.0</ele><time>2026-04-06T13:29:40.04Z</time></trkpt><trkpt lat="49.9040954" lon="14.6449931"><ele>443.5</ele><time>2026-04-06T13:29:41.039Z</time></trkpt><trkpt lat="49.9039711" lon="14.644894"><ele>444.0</ele><time>2026-04-06T13:29:42.039Z</time></trkpt><trkpt lat="49.9038421" lon="14.6447651"><ele>444.0</ele><time>2026-04-06T13:29:43.039Z</time></trkpt><trkpt lat="49.9037014" lon="14.6446115"><ele>444.0</ele><time>2026-04-06T13:29:44.04Z</time></trkpt><trkpt lat="49.9035543" lon="14.6444224"><ele>444.0</ele><time>2026-04-06T13:29:45.039Z</time></trkpt><trkpt lat="49.9034169" lon="14.6442171"><ele>444.66666666666663</ele><time>2026-04-06T13:29:46.039Z</time></trkpt><trkpt lat="49.9033009" lon="14.6439956"><ele>445.3333333333333</ele><time>2026-04-06T13:29:47.04Z</time></trkpt><trkpt lat="49.903202" lon="14.6437598"><ele>446.0</ele><time>2026-04-06T13:29:48.039Z</time></trkpt><trkpt lat="49.9031004" lon="14.6435096"><ele>446.66666666666663</ele><time>2026-04-06T13:29:49.04Z</time></trkpt><trkpt lat="49.9029876" lon="14.6432565"><ele>447.33333333333337</ele><time>2026-04-06T13:29:50.039Z</time></trkpt><trkpt lat="49.9028735" lon="14.6430032"><ele>448.0</ele><time>2026-04-06T13:29:51.039Z</time></trkpt><trkpt lat="49.9027631" lon="14.6427566"><ele>448.6666666666667</ele><time>2026-04-06T13:29:52.039Z</time></trkpt><trkpt lat="49.9026597" lon="14.6425123"><ele>449.33333333333337</ele><time>2026-04-06T13:29:53.039Z</time></trkpt><trkpt lat="49.9025436" lon="14.6422916"><ele>450.0</ele><time>2026-04-06T13:29:54.04Z</time></trkpt><trkpt lat="49.9024141" lon="14.6421235"><ele>453.0</ele><time>2026-04-06T13:29:55.039Z</time></trkpt><trkpt lat="49.9022828" lon="14.6420175"><ele>456.0</ele><time>2026-04-06T13:29:56.039Z</time></trkpt><trkpt lat="49.902139" lon="14.641974"><ele>459.0</ele><time>2026-04-06T13:29:57.04Z</time></trkpt><trkpt lat="49.9019755" lon="14.6419782"><ele>459.0</ele><time>2026-04-06T13:29:58.04Z</time></trkpt><trkpt lat="49.9018032" lon="14.6420046"><ele>459.0</ele><time>2026-04-06T13:29:59.04Z</time></trkpt><trkpt lat="49.9016118" lon="14.6420525"><ele>459.0</ele><time>2026-04-06T13:30:00.039Z</time></trkpt><trkpt lat="49.9014136" lon="14.6421118"><ele>457.66666666666663</ele><time>2026-04-06T13:30:01.04Z</time></trkpt><trkpt lat="49.9012483" lon="14.6421808"><ele>456.3333333333333</ele><time>2026-04-06T13:30:02.039Z</time></trkpt><trkpt lat="49.901056" lon="14.6422669"><ele>455.0</ele><time>2026-04-06T13:30:03.039Z</time></trkpt><trkpt lat="49.9008505" lon="14.6423888"><ele>453.0</ele><time>2026-04-06T13:30:04.039Z</time></trkpt><trkpt lat="49.9006656" lon="14.6424895"><ele>451.0</ele><time>2026-04-06T13:30:05.04Z</time></trkpt><trkpt lat="49.90049" lon="14.6425848"><ele>449.0</ele><time>2026-04-06T13:30:06.039Z</time></trkpt><trkpt lat="49.9003271" lon="14.6427042"><ele>450.3333333333333</ele><time>2026-04-06T13:30:07.04Z</time></trkpt><trkpt lat="49.9001755" lon="14.6428784"><ele>451.66666666666663</ele><time>2026-04-06T13:30:08.039Z</time></trkpt><trkpt lat="49.9000525" lon="14.6431133"><ele>453.0</ele><time>2026-04-06T13:30:09.04Z</time></trkpt><trkpt lat="49.8999616" lon="14.6433834"><ele>450.66666666666663</ele><time>2026-04-06T13:30:10.039Z</time></trkpt><trkpt lat="49.8998899" lon="14.6436618"><ele>448.3333333333333</ele><time>2026-04-06T13:30:11.039Z</time></trkpt><trkpt lat="49.8998138" lon="14.643951"><ele>446.0</ele><time>2026-04-06T13:30:12.04Z</time></trkpt><trkpt lat="49.8997298" lon="14.6442307"><ele>449.0</ele><time>2026-04-06T13:30:13.04Z</time></trkpt><trkpt lat="49.8996366" lon="14.6444998"><ele>452.0</ele><time>2026-04-06T13:30:14.04Z</time></trkpt><trkpt lat="49.8995213" lon="14.6447518"><ele>455.0</ele><time>2026-04-06T13:30:15.039Z</time></trkpt><trkpt lat="49.8994076" lon="14.644983"><ele>455.0</ele><time>2026-04-06T13:30:16.04Z</time></trkpt><trkpt lat="49.8993013" lon="14.6452149"><ele>455.0</ele><time>2026-04-06T13:30:17.04Z</time></trkpt><trkpt lat="49.8991947" lon="14.6454324"><ele>455.0</ele><time>2026-04-06T13:30:18.039Z</time></trkpt><trkpt lat="49.8990958" lon="14.645646"><ele>450.66666666666663</ele><time>2026-04-06T13:30:19.039Z</time></trkpt><trkpt lat="49.8989916" lon="14.6458701"><ele>446.33333333333337</ele><time>2026-04-06T13:30:20.04Z</time></trkpt><trkpt lat="49.8988886" lon="14.6461078"><ele>442.0</ele><time>2026-04-06T13:30:21.039Z</time></trkpt><trkpt lat="49.8988057" lon="14.646341"><ele>442.0</ele><time>2026-04-06T13:30:22.04Z</time></trkpt><trkpt lat="49.8987339" lon="14.6465718"><ele>442.0</ele><time>2026-04-06T13:30:23.039Z</time></trkpt><trkpt lat="49.8986589" lon="14.6467966"><ele>442.0</ele><time>2026-04-06T13:30:24.04Z</time></trkpt><trkpt lat="49.8985858" lon="14.6470164"><ele>443.6666666666667</ele><time>2026-04-06T13:30:25.039Z</time></trkpt><trkpt lat="49.898514" lon="14.6472402"><ele>445.33333333333337</ele><time>2026-04-06T13:30:26.04Z</time></trkpt><trkpt lat="49.8984529" lon="14.6474558"><ele>447.0</ele><time>2026-04-06T13:30:27.039Z</time></trkpt><trkpt lat="49.8983999" lon="14.6476642"><ele>443.0</ele><time>2026-04-06T13:30:28.04Z</time></trkpt><trkpt lat="49.8983422" lon="14.6478777"><ele>439.0</ele><time>2026-04-06T13:30:29.039Z</time></trkpt><trkpt lat="49.8982872" lon="14.6480851"><ele>435.0</ele><time>2026-04-06T13:30:30.039Z</time></trkpt><trkpt lat="49.8982354" lon="14.6482823"><ele>431.0</ele><time>2026-04-06T13:30:31.039Z</time></trkpt><trkpt lat="49.8981874" lon="14.6484512"><ele>431.0</ele><time>2026-04-06T13:30:32.039Z</time></trkpt><trkpt lat="49.8981323" lon="14.6485856"><ele>431.0</ele><time>2026-04-06T13:30:33.04Z</time></trkpt><trkpt lat="49.8980578" lon="14.6487044"><ele>431.0</ele><time>2026-04-06T13:30:34.039Z</time></trkpt><trkpt lat="49.8979691" lon="14.6487866"><ele>431.0</ele><time>2026-04-06T13:30:35.04Z</time></trkpt><trkpt lat="49.8978645" lon="14.6488565"><ele>431.0</ele><time>2026-04-06T13:30:36.04Z</time></trkpt><trkpt lat="49.8977557" lon="14.6489149"><ele>431.0</ele><time>2026-04-06T13:30:37.04Z</time></trkpt><trkpt lat="49.8976386" lon="14.6489859"><ele>431.0</ele><time>2026-04-06T13:30:38.04Z</time></trkpt><trkpt lat="49.8975258" lon="14.649038"><ele>431.0</ele><time>2026-04-06T13:30:39.039Z</time></trkpt><trkpt lat="49.8974234" lon="14.6490538"><ele>431.0</ele><time>2026-04-06T13:30:40.039Z</time></trkpt><trkpt lat="49.8973479" lon="14.6490591"><ele>431.0</ele><time>2026-04-06T13:30:41.039Z</time></trkpt><trkpt lat="49.8972511" lon="14.6490205"><ele>430.0</ele><time>2026-04-06T13:30:43.04Z</time></trkpt><trkpt lat="49.8971617" lon="14.6488905"><ele>429.0</ele><time>2026-04-06T13:30:45.04Z</time></trkpt><trkpt lat="49.8970921" lon="14.6488014"><ele>428.0</ele><time>2026-04-06T13:30:46.039Z</time></trkpt><trkpt lat="49.896997" lon="14.64871"><ele>427.0</ele><time>2026-04-06T13:30:47.04Z</time></trkpt><trkpt lat="49.8969189" lon="14.6485876"><ele>426.0</ele><time>2026-04-06T13:30:48.04Z</time></trkpt><trkpt lat="49.8968322" lon="14.6484768"><ele>425.0</ele><time>2026-04-06T13:30:49.039Z</time></trkpt><trkpt lat="49.8967376" lon="14.648356"><ele>424.0</ele><time>2026-04-06T13:30:50.04Z</time></trkpt><trkpt lat="49.8966249" lon="14.6482544"><ele>423.0</ele><time>2026-04-06T13:30:51.04Z</time></trkpt><trkpt lat="49.896514" lon="14.6481571"><ele>422.0</ele><time>2026-04-06T13:30:52.04Z</time></trkpt><trkpt lat="49.8964005" lon="14.6480827"><ele>422.0</ele><time>2026-04-06T13:30:53.04Z</time></trkpt><trkpt lat="49.8962925" lon="14.6480081"><ele>422.0</ele><time>2026-04-06T13:30:54.04Z</time></trkpt><trkpt lat="49.8961812" lon="14.6479507"><ele>422.0</ele><time>2026-04-06T13:30:55.04Z</time></trkpt><trkpt lat="49.8960825" lon="14.64791"><ele>422.0</ele><time>2026-04-06T13:30:56.039Z</time></trkpt><trkpt lat="49.8959902" lon="14.6478767"><ele>422.0</ele><time>2026-04-06T13:30:57.039Z</time></trkpt><trkpt lat="49.895903" lon="14.6478676"><ele>421.40000000000003</ele><time>2026-04-06T13:30:58.039Z</time></trkpt><trkpt lat="49.8958233" lon="14.6478692"><ele>420.8</ele><time>2026-04-06T13:30:59.04Z</time></trkpt><trkpt lat="49.8957384" lon="14.647906"><ele>420.2</ele><time>2026-04-06T13:31:00.04Z</time></trkpt><trkpt lat="49.8956546" lon="14.6479686"><ele>419.6</ele><time>2026-04-06T13:31:01.039Z</time></trkpt><trkpt lat="49.8955726" lon="14.648048"><ele>419.0</ele><time>2026-04-06T13:31:02.04Z</time></trkpt><trkpt lat="49.8954941" lon="14.6481321"><ele>419.0</ele><time>2026-04-06T13:31:03.039Z</time></trkpt><trkpt lat="49.895417" lon="14.6482102"><ele>419.0</ele><time>2026-04-06T13:31:04.04Z</time></trkpt><trkpt lat="49.895331" lon="14.6483006"><ele>419.0</ele><time>2026-04-06T13:31:05.04Z</time></trkpt><trkpt lat="49.8952433" lon="14.648404"><ele>419.0</ele><time>2026-04-06T13:31:06.039Z</time></trkpt><trkpt lat="49.8951536" lon="14.6485198"><ele>419.0</ele><time>2026-04-06T13:31:07.04Z</time></trkpt><trkpt lat="49.8950581" lon="14.6486524"><ele>419.5</ele><time>2026-04-06T13:31:08.04Z</time></trkpt><trkpt lat="49.8949715" lon="14.6488016"><ele>420.0</ele><time>2026-04-06T13:31:09.04Z</time></trkpt><trkpt lat="49.8948882" lon="14.6489738"><ele>420.5</ele><time>2026-04-06T13:31:10.04Z</time></trkpt><trkpt lat="49.8948136" lon="14.6491436"><ele>421.0</ele><time>2026-04-06T13:31:11.039Z</time></trkpt><trkpt lat="49.8947411" lon="14.6493078"><ele>420.5</ele><time>2026-04-06T13:31:12.039Z</time></trkpt><trkpt lat="49.8946624" lon="14.6494755"><ele>420.0</ele><time>2026-04-06T13:31:13.039Z</time></trkpt><trkpt lat="49.8945865" lon="14.6496527"><ele>419.5</ele><time>2026-04-06T13:31:14.04Z</time></trkpt><trkpt lat="49.8944855" lon="14.6497913"><ele>419.0</ele><time>2026-04-06T13:31:15.04Z</time></trkpt><trkpt lat="49.8943762" lon="14.6499469"><ele>419.0</ele><time>2026-04-06T13:31:16.04Z</time></trkpt><trkpt lat="49.8942621" lon="14.6500991"><ele>419.0</ele><time>2026-04-06T13:31:17.039Z</time></trkpt><trkpt lat="49.8941423" lon="14.6502622"><ele>419.0</ele><time>2026-04-06T13:31:18.04Z</time></trkpt><trkpt lat="49.8940088" lon="14.6504374"><ele>418.0</ele><time>2026-04-06T13:31:19.04Z</time></trkpt><trkpt lat="49.8938805" lon="14.6506135"><ele>417.0</ele><time>2026-04-06T13:31:20.04Z</time></trkpt><trkpt lat="49.8937532" lon="14.6507885"><ele>416.0</ele><time>2026-04-06T13:31:21.04Z</time></trkpt><trkpt lat="49.8936239" lon="14.6509652"><ele>417.0</ele><time>2026-04-06T13:31:22.04Z</time></trkpt><trkpt lat="49.8934974" lon="14.6511467"><ele>418.0</ele><time>2026-04-06T13:31:23.04Z</time></trkpt><trkpt lat="49.8933721" lon="14.6513072"><ele>419.0</ele><time>2026-04-06T13:31:24.039Z</time></trkpt><trkpt lat="49.8932342" lon="14.651463"><ele>416.3333333333333</ele><time>2026-04-06T13:31:25.039Z</time></trkpt><trkpt lat="49.8930848" lon="14.6515865"><ele>413.66666666666663</ele><time>2026-04-06T13:31:26.04Z</time></trkpt><trkpt lat="49.8929179" lon="14.6516904"><ele>411.0</ele><time>2026-04-06T13:31:27.04Z</time></trkpt><trkpt lat="49.8927635" lon="14.6517656"><ele>411.0</ele><time>2026-04-06T13:31:28.039Z</time></trkpt><trkpt lat="49.8926069" lon="14.6518358"><ele>411.0</ele><time>2026-04-06T13:31:29.04Z</time></trkpt><trkpt lat="49.8924518" lon="14.6519064"><ele>411.0</ele><time>2026-04-06T13:31:30.039Z</time></trkpt><trkpt lat="49.8923008" lon="14.6519788"><ele>409.66666666666663</ele><time>2026-04-06T13:31:31.039Z</time></trkpt><trkpt lat="49.8921428" lon="14.652053"><ele>408.3333333333333</ele><time>2026-04-06T13:31:32.04Z</time></trkpt><trkpt lat="49.8919758" lon="14.6521251"><ele>407.0</ele><time>2026-04-06T13:31:33.04Z</time></trkpt><trkpt lat="49.8917956" lon="14.6521947"><ele>403.66666666666663</ele><time>2026-04-06T13:31:34.04Z</time></trkpt><trkpt lat="49.8916251" lon="14.6522482"><ele>400.33333333333337</ele><time>2026-04-06T13:31:35.04Z</time></trkpt><trkpt lat="49.8914563" lon="14.6522993"><ele>397.0</ele><time>2026-04-06T13:31:36.039Z</time></trkpt><trkpt lat="49.8912891" lon="14.6523671"><ele>397.0</ele><time>2026-04-06T13:31:37.04Z</time></trkpt><trkpt lat="49.8911431" lon="14.6524135"><ele>397.0</ele><time>2026-04-06T13:31:38.04Z</time></trkpt><trkpt lat="49.8909932" lon="14.6524943"><ele>397.0</ele><time>2026-04-06T13:31:39.039Z</time></trkpt><trkpt lat="49.8908492" lon="14.6525761"><ele>396.5</ele><time>2026-04-06T13:31:40.039Z</time></trkpt><trkpt lat="49.8907195" lon="14.6526719"><ele>396.0</ele><time>2026-04-06T13:31:41.039Z</time></trkpt><trkpt lat="49.8905876" lon="14.6527741"><ele>395.5</ele><time>2026-04-06T13:31:42.04Z</time></trkpt><trkpt lat="49.8904585" lon="14.6528787"><ele>395.0</ele><time>2026-04-06T13:31:43.039Z</time></trkpt><trkpt lat="49.8903336" lon="14.6529848"><ele>395.0</ele><time>2026-04-06T13:31:44.04Z</time></trkpt><trkpt lat="49.8902189" lon="14.6531008"><ele>395.0</ele><time>2026-04-06T13:31:45.039Z</time></trkpt><trkpt lat="49.8901127" lon="14.6532089"><ele>395.0</ele><time>2026-04-06T13:31:46.04Z</time></trkpt><trkpt lat="49.8900087" lon="14.6533124"><ele>395.0</ele><time>2026-04-06T13:31:47.04Z</time></trkpt><trkpt lat="49.8899088" lon="14.6534138"><ele>393.6</ele><time>2026-04-06T13:31:48.04Z</time></trkpt><trkpt lat="49.8898097" lon="14.6534947"><ele>392.2</ele><time>2026-04-06T13:31:49.04Z</time></trkpt><trkpt lat="49.8897075" lon="14.6535687"><ele>390.79999999999995</ele><time>2026-04-06T13:31:50.039Z</time></trkpt><trkpt lat="49.8896012" lon="14.6536443"><ele>389.4</ele><time>2026-04-06T13:31:51.039Z</time></trkpt><trkpt lat="49.8895123" lon="14.6537053"><ele>388.0</ele><time>2026-04-06T13:31:52.039Z</time></trkpt><trkpt lat="49.8894286" lon="14.6537646"><ele>388.00000000000006</ele><time>2026-04-06T13:31:53.04Z</time></trkpt><trkpt lat="49.8893414" lon="14.6538195"><ele>388.0</ele><time>2026-04-06T13:31:54.039Z</time></trkpt><trkpt lat="49.8892526" lon="14.6538732"><ele>388.0</ele><time>2026-04-06T13:31:55.04Z</time></trkpt><trkpt lat="49.8891698" lon="14.6539178"><ele>388.0</ele><time>2026-04-06T13:31:56.04Z</time></trkpt><trkpt lat="49.8890861" lon="14.6539574"><ele>388.00000000000006</ele><time>2026-04-06T13:31:57.04Z</time></trkpt><trkpt lat="49.8890165" lon="14.6539788"><ele>388.0</ele><time>2026-04-06T13:31:58.039Z</time></trkpt><trkpt lat="49.8889287" lon="14.6540306"><ele>386.83333333333337</ele><time>2026-04-06T13:32:00.039Z</time></trkpt><trkpt lat="49.8888446" lon="14.654024"><ele>385.6666666666667</ele><time>2026-04-06T13:32:03.039Z</time></trkpt><trkpt lat="49.8887716" lon="14.6540091"><ele>384.5</ele><time>2026-04-06T13:32:05.04Z</time></trkpt><trkpt lat="49.8886799" lon="14.6540305"><ele>383.33333333333337</ele><time>2026-04-06T13:32:07.04Z</time></trkpt><trkpt lat="49.8885881" lon="14.6540799"><ele>382.1666666666667</ele><time>2026-04-06T13:32:09.04Z</time></trkpt><trkpt lat="49.8884936" lon="14.6541213"><ele>381.0</ele><time>2026-04-06T13:32:11.039Z</time></trkpt><trkpt lat="49.8883911" lon="14.6541419"><ele>378.0</ele><time>2026-04-06T13:32:13.04Z</time></trkpt><trkpt lat="49.8882896" lon="14.6541443"><ele>375.0</ele><time>2026-04-06T13:32:15.04Z</time></trkpt><trkpt lat="49.8881916" lon="14.6541547"><ele>372.0</ele><time>2026-04-06T13:32:17.04Z</time></trkpt><trkpt lat="49.8881105" lon="14.6541682"><ele>369.0</ele><time>2026-04-06T13:32:19.04Z</time></trkpt><trkpt lat="49.8880707" lon="14.6540516"><ele>366.0</ele><time>2026-04-06T13:32:22.039Z</time></trkpt><trkpt lat="49.8880775" lon="14.6539213"><ele>366.0</ele><time>2026-04-06T13:32:24.04Z</time></trkpt><trkpt lat="49.8880596" lon="14.6537913"><ele>366.0</ele><time>2026-04-06T13:32:26.039Z</time></trkpt><trkpt lat="49.8879899" lon="14.6537389"><ele>366.0</ele><time>2026-04-06T13:32:28.039Z</time></trkpt><trkpt lat="49.8879083" lon="14.6537364"><ele>366.0</ele><time>2026-04-06T13:32:30.039Z</time></trkpt><trkpt lat="49.8878263" lon="14.653725"><ele>366.0</ele><time>2026-04-06T13:32:32.04Z</time></trkpt><trkpt lat="49.887748" lon="14.6537186"><ele>366.0</ele><time>2026-04-06T13:32:34.039Z</time></trkpt><trkpt lat="49.8876874" lon="14.6536891"><ele>365.8333333333333</ele><time>2026-04-06T13:32:36.04Z</time></trkpt><trkpt lat="49.8876519" lon="14.6536062"><ele>365.6666666666667</ele><time>2026-04-06T13:32:38.04Z</time></trkpt><trkpt lat="49.8876366" lon="14.6534739"><ele>365.5</ele><time>2026-04-06T13:32:40.039Z</time></trkpt><trkpt lat="49.8876282" lon="14.6533227"><ele>365.33333333333337</ele><time>2026-04-06T13:32:42.039Z</time></trkpt><trkpt lat="49.8876211" lon="14.6531723"><ele>365.1666666666667</ele><time>2026-04-06T13:32:44.039Z</time></trkpt><trkpt lat="49.8876071" lon="14.6530329"><ele>365.0</ele><time>2026-04-06T13:32:46.039Z</time></trkpt><trkpt lat="49.8875819" lon="14.6528778"><ele>366.8</ele><time>2026-04-06T13:32:48.04Z</time></trkpt><trkpt lat="49.8875628" lon="14.6527299"><ele>368.6</ele><time>2026-04-06T13:32:50.04Z</time></trkpt><trkpt lat="49.8875683" lon="14.6525574"><ele>370.4</ele><time>2026-04-06T13:32:52.04Z</time></trkpt><trkpt lat="49.8875829" lon="14.6523877"><ele>372.2</ele><time>2026-04-06T13:32:54.039Z</time></trkpt><trkpt lat="49.8875892" lon="14.6522365"><ele>374.0</ele><time>2026-04-06T13:32:56.039Z</time></trkpt><trkpt lat="49.8875694" lon="14.6520764"><ele>374.0</ele><time>2026-04-06T13:32:58.039Z</time></trkpt><trkpt lat="49.8875379" lon="14.6519839"><ele>374.0</ele><time>2026-04-06T13:32:59.039Z</time></trkpt><trkpt lat="49.8874928" lon="14.6518975"><ele>374.0</ele><time>2026-04-06T13:33:00.039Z</time></trkpt><trkpt lat="49.8874392" lon="14.6518161"><ele>374.0</ele><time>2026-04-06T13:33:01.039Z</time></trkpt><trkpt lat="49.8873816" lon="14.6517359"><ele>374.0</ele><time>2026-04-06T13:33:02.04Z</time></trkpt><trkpt lat="49.8873296" lon="14.6516684"><ele>374.0</ele><time>2026-04-06T13:33:03.04Z</time></trkpt><trkpt lat="49.8872797" lon="14.6516017"><ele>374.0</ele><time>2026-04-06T13:33:04.039Z</time></trkpt><trkpt lat="49.8872015" lon="14.651461"><ele>375.4</ele><time>2026-04-06T13:33:06.04Z</time></trkpt><trkpt lat="49.8871256" lon="14.6513001"><ele>376.79999999999995</ele><time>2026-04-06T13:33:08.039Z</time></trkpt><trkpt lat="49.8870794" lon="14.6511152"><ele>378.20000000000005</ele><time>2026-04-06T13:33:10.039Z</time></trkpt><trkpt lat="49.8870603" lon="14.6510034"><ele>379.6</ele><time>2026-04-06T13:33:11.039Z</time></trkpt><trkpt lat="49.8870427" lon="14.6508844"><ele>381.0</ele><time>2026-04-06T13:33:12.039Z</time></trkpt><trkpt lat="49.8870326" lon="14.6507612"><ele>382.0</ele><time>2026-04-06T13:33:13.04Z</time></trkpt><trkpt lat="49.8870281" lon="14.6506343"><ele>383.0</ele><time>2026-04-06T13:33:14.039Z</time></trkpt><trkpt lat="49.8870223" lon="14.6505157"><ele>384.0</ele><time>2026-04-06T13:33:15.04Z</time></trkpt><trkpt lat="49.8870077" lon="14.6503992"><ele>385.0</ele><time>2026-04-06T13:33:16.04Z</time></trkpt><trkpt lat="49.8869923" lon="14.6502784"><ele>386.0</ele><time>2026-04-06T13:33:17.039Z</time></trkpt><trkpt lat="49.8869786" lon="14.6501489"><ele>387.0</ele><time>2026-04-06T13:33:18.039Z</time></trkpt><trkpt lat="49.8869737" lon="14.6499946"><ele>388.40000000000003</ele><time>2026-04-06T13:33:19.039Z</time></trkpt><trkpt lat="49.8869658" lon="14.6498197"><ele>389.8</ele><time>2026-04-06T13:33:20.039Z</time></trkpt><trkpt lat="49.8869614" lon="14.6496462"><ele>391.2</ele><time>2026-04-06T13:33:21.04Z</time></trkpt><trkpt lat="49.886959" lon="14.6495081"><ele>392.6</ele><time>2026-04-06T13:33:22.04Z</time></trkpt><trkpt lat="49.8869575" lon="14.6493843"><ele>394.0</ele><time>2026-04-06T13:33:23.039Z</time></trkpt><trkpt lat="49.8870002" lon="14.6492708"><ele>394.6666666666667</ele><time>2026-04-06T13:33:25.04Z</time></trkpt><trkpt lat="49.8870739" lon="14.6493191"><ele>395.33333333333337</ele><time>2026-04-06T13:33:27.039Z</time></trkpt><trkpt lat="49.8871281" lon="14.6493731"><ele>396.0</ele><time>2026-04-06T13:33:28.039Z</time></trkpt><trkpt lat="49.8872192" lon="14.6494133"><ele>396.66666666666663</ele><time>2026-04-06T13:33:29.039Z</time></trkpt><trkpt lat="49.887309" lon="14.6494323"><ele>397.3333333333333</ele><time>2026-04-06T13:33:30.04Z</time></trkpt><trkpt lat="49.8873931" lon="14.6494168"><ele>398.0</ele><time>2026-04-06T13:33:31.039Z</time></trkpt><trkpt lat="49.8875062" lon="14.6492977"><ele>398.0</ele><time>2026-04-06T13:33:33.04Z</time></trkpt><trkpt lat="49.8875911" lon="14.6492065"><ele>398.0</ele><time>2026-04-06T13:33:34.039Z</time></trkpt><trkpt lat="49.8876603" lon="14.6490898"><ele>398.0</ele><time>2026-04-06T13:33:35.04Z</time></trkpt><trkpt lat="49.8877118" lon="14.6489081"><ele>398.0</ele><time>2026-04-06T13:33:36.04Z</time></trkpt><trkpt lat="49.8877708" lon="14.6487097"><ele>401.2</ele><time>2026-04-06T13:33:37.039Z</time></trkpt><trkpt lat="49.8878083" lon="14.6485384"><ele>404.4</ele><time>2026-04-06T13:33:38.04Z</time></trkpt><trkpt lat="49.8878488" lon="14.6484035"><ele>407.59999999999997</ele><time>2026-04-06T13:33:39.04Z</time></trkpt><trkpt lat="49.8878941" lon="14.6482674"><ele>410.79999999999995</ele><time>2026-04-06T13:33:40.039Z</time></trkpt><trkpt lat="49.8879256" lon="14.6481472"><ele>414.0</ele><time>2026-04-06T13:33:41.039Z</time></trkpt><trkpt lat="49.8879668" lon="14.6480261"><ele>414.0</ele><time>2026-04-06T13:33:42.04Z</time></trkpt><trkpt lat="49.8880224" lon="14.6478781"><ele>414.0</ele><time>2026-04-06T13:33:43.039Z</time></trkpt><trkpt lat="49.8880864" lon="14.6476976"><ele>414.0</ele><time>2026-04-06T13:33:44.039Z</time></trkpt><trkpt lat="49.8881461" lon="14.6474946"><ele>414.0</ele><time>2026-04-06T13:33:45.04Z</time></trkpt><trkpt lat="49.8882016" lon="14.6472812"><ele>414.0</ele><time>2026-04-06T13:33:46.04Z</time></trkpt><trkpt lat="49.8882694" lon="14.6470713"><ele>414.0</ele><time>2026-04-06T13:33:47.039Z</time></trkpt><trkpt lat="49.8883366" lon="14.6468574"><ele>414.0</ele><time>2026-04-06T13:33:48.04Z</time></trkpt><trkpt lat="49.8884073" lon="14.6466337"><ele>416.0</ele><time>2026-04-06T13:33:49.039Z</time></trkpt><trkpt lat="49.8884775" lon="14.6463781"><ele>418.0</ele><time>2026-04-06T13:33:50.04Z</time></trkpt><trkpt lat="49.8885494" lon="14.6461575"><ele>420.0</ele><time>2026-04-06T13:33:51.039Z</time></trkpt><trkpt lat="49.8886071" lon="14.6459501"><ele>421.33333333333337</ele><time>2026-04-06T13:33:52.039Z</time></trkpt><trkpt lat="49.8886691" lon="14.6457397"><ele>422.6666666666667</ele><time>2026-04-06T13:33:53.04Z</time></trkpt><trkpt lat="49.8887335" lon="14.6455283"><ele>424.0</ele><time>2026-04-06T13:33:54.039Z</time></trkpt><trkpt lat="49.8888206" lon="14.645304"><ele>424.6666666666667</ele><time>2026-04-06T13:33:55.04Z</time></trkpt><trkpt lat="49.8889157" lon="14.6450579"><ele>425.33333333333337</ele><time>2026-04-06T13:33:56.039Z</time></trkpt><trkpt lat="49.8889744" lon="14.6448368"><ele>426.0</ele><time>2026-04-06T13:33:57.039Z</time></trkpt><trkpt lat="49.8890459" lon="14.644622"><ele>424.66666666666663</ele><time>2026-04-06T13:33:58.04Z</time></trkpt><trkpt lat="49.8891001" lon="14.6443835"><ele>423.3333333333333</ele><time>2026-04-06T13:33:59.039Z</time></trkpt><trkpt lat="49.8891596" lon="14.6441412"><ele>422.0</ele><time>2026-04-06T13:34:00.04Z</time></trkpt><trkpt lat="49.8892243" lon="14.6439157"><ele>424.25</ele><time>2026-04-06T13:34:01.04Z</time></trkpt><trkpt lat="49.8892783" lon="14.6437175"><ele>426.5</ele><time>2026-04-06T13:34:02.04Z</time></trkpt><trkpt lat="49.8893469" lon="14.6435386"><ele>428.75</ele><time>2026-04-06T13:34:03.04Z</time></trkpt><trkpt lat="49.8894058" lon="14.6433352"><ele>431.0</ele><time>2026-04-06T13:34:04.04Z</time></trkpt><trkpt lat="49.8894691" lon="14.6431408"><ele>431.0</ele><time>2026-04-06T13:34:05.04Z</time></trkpt><trkpt lat="49.8895594" lon="14.6430009"><ele>431.0</ele><time>2026-04-06T13:34:06.04Z</time></trkpt><trkpt lat="49.8896693" lon="14.6428564"><ele>431.0</ele><time>2026-04-06T13:34:07.039Z</time></trkpt><trkpt lat="49.8897756" lon="14.6427387"><ele>431.0</ele><time>2026-04-06T13:34:08.04Z</time></trkpt><trkpt lat="49.8898775" lon="14.6426445"><ele>426.75</ele><time>2026-04-06T13:34:09.039Z</time></trkpt><trkpt lat="49.8900108" lon="14.6425728"><ele>422.5</ele><time>2026-04-06T13:34:10.039Z</time></trkpt><trkpt lat="49.8901264" lon="14.6425264"><ele>418.25</ele><time>2026-04-06T13:34:11.039Z</time></trkpt><trkpt lat="49.8902356" lon="14.6425037"><ele>414.0</ele><time>2026-04-06T13:34:12.039Z</time></trkpt><trkpt lat="49.8903531" lon="14.6424948"><ele>413.2</ele><time>2026-04-06T13:34:13.039Z</time></trkpt><trkpt lat="49.8904731" lon="14.6424936"><ele>412.4</ele><time>2026-04-06T13:34:14.04Z</time></trkpt><trkpt lat="49.8905772" lon="14.6424984"><ele>411.6</ele><time>2026-04-06T13:34:15.04Z</time></trkpt><trkpt lat="49.8906778" lon="14.6425388"><ele>410.8</ele><time>2026-04-06T13:34:16.04Z</time></trkpt><trkpt lat="49.8907858" lon="14.6426005"><ele>410.0</ele><time>2026-04-06T13:34:17.04Z</time></trkpt><trkpt lat="49.8909095" lon="14.6426906"><ele>412.66666666666663</ele><time>2026-04-06T13:34:18.039Z</time></trkpt><trkpt lat="49.8910601" lon="14.6428134"><ele>415.33333333333337</ele><time>2026-04-06T13:34:19.039Z</time></trkpt><trkpt lat="49.8912113" lon="14.6429312"><ele>418.0</ele><time>2026-04-06T13:34:20.04Z</time></trkpt><trkpt lat="49.8913481" lon="14.6430363"><ele>418.0</ele><time>2026-04-06T13:34:21.04Z</time></trkpt><trkpt lat="49.8914552" lon="14.6431305"><ele>418.0</ele><time>2026-04-06T13:34:22.039Z</time></trkpt><trkpt lat="49.8915559" lon="14.6432062"><ele>418.0</ele><time>2026-04-06T13:34:23.04Z</time></trkpt><trkpt lat="49.8916473" lon="14.6432884"><ele>418.0</ele><time>2026-04-06T13:34:24.04Z</time></trkpt><trkpt lat="49.891725" lon="14.6433806"><ele>418.0</ele><time>2026-04-06T13:34:25.039Z</time></trkpt><trkpt lat="49.8918059" lon="14.6434858"><ele>416.25</ele><time>2026-04-06T13:34:26.04Z</time></trkpt><trkpt lat="49.8918978" lon="14.6435943"><ele>414.5</ele><time>2026-04-06T13:34:27.04Z</time></trkpt><trkpt lat="49.891991" lon="14.6436968"><ele>412.75</ele><time>2026-04-06T13:34:28.04Z</time></trkpt><trkpt lat="49.89207" lon="14.6438079"><ele>411.0</ele><time>2026-04-06T13:34:29.04Z</time></trkpt><trkpt lat="49.8921626" lon="14.6439238"><ele>411.0</ele><time>2026-04-06T13:34:30.039Z</time></trkpt><trkpt lat="49.8922412" lon="14.6440338"><ele>411.0</ele><time>2026-04-06T13:34:31.04Z</time></trkpt><trkpt lat="49.8923246" lon="14.6441288"><ele>411.0</ele><time>2026-04-06T13:34:32.04Z</time></trkpt><trkpt lat="49.8924094" lon="14.6442317"><ele>411.0</ele><time>2026-04-06T13:34:33.039Z</time></trkpt><trkpt lat="49.8924899" lon="14.6443314"><ele>411.0</ele><time>2026-04-06T13:34:34.04Z</time></trkpt><trkpt lat="49.8925733" lon="14.6444288"><ele>409.4</ele><time>2026-04-06T13:34:35.04Z</time></trkpt><trkpt lat="49.8926527" lon="14.6445206"><ele>407.8</ele><time>2026-04-06T13:34:36.04Z</time></trkpt><trkpt lat="49.8927323" lon="14.6446125"><ele>406.2</ele><time>2026-04-06T13:34:37.04Z</time></trkpt><trkpt lat="49.8928338" lon="14.6446812"><ele>404.59999999999997</ele><time>2026-04-06T13:34:38.04Z</time></trkpt><trkpt lat="49.8928884" lon="14.6447777"><ele>403.0</ele><time>2026-04-06T13:34:39.04Z</time></trkpt><trkpt lat="49.8929429" lon="14.644864"><ele>403.00000000000006</ele><time>2026-04-06T13:34:40.039Z</time></trkpt><trkpt lat="49.8929922" lon="14.6449317"><ele>403.0</ele><time>2026-04-06T13:34:41.04Z</time></trkpt><trkpt lat="49.8930429" lon="14.6449903"><ele>403.0</ele><time>2026-04-06T13:34:42.04Z</time></trkpt><trkpt lat="49.8931158" lon="14.6450147"><ele>403.0</ele><time>2026-04-06T13:34:44.04Z</time></trkpt><trkpt lat="49.8931605" lon="14.6449224"><ele>403.00000000000006</ele><time>2026-04-06T13:34:46.039Z</time></trkpt><trkpt lat="49.8931586" lon="14.6447641"><ele>403.0</ele><time>2026-04-06T13:34:48.039Z</time></trkpt><trkpt lat="49.8931645" lon="14.6445691"><ele>402.79999999999995</ele><time>2026-04-06T13:34:50.04Z</time></trkpt><trkpt lat="49.8931811" lon="14.6444433"><ele>402.6</ele><time>2026-04-06T13:34:51.04Z</time></trkpt><trkpt lat="49.8931695" lon="14.6443107"><ele>402.4</ele><time>2026-04-06T13:34:52.039Z</time></trkpt><trkpt lat="49.8931551" lon="14.6441582"><ele>402.20000000000005</ele><time>2026-04-06T13:34:53.04Z</time></trkpt><trkpt lat="49.8931481" lon="14.6439822"><ele>402.0</ele><time>2026-04-06T13:34:54.039Z</time></trkpt><trkpt lat="49.8931424" lon="14.6438054"><ele>402.0</ele><time>2026-04-06T13:34:55.04Z</time></trkpt><trkpt lat="49.8931314" lon="14.6436289"><ele>402.0</ele><time>2026-04-06T13:34:56.039Z</time></trkpt><trkpt lat="49.8931306" lon="14.6434343"><ele>402.0</ele><time>2026-04-06T13:34:57.04Z</time></trkpt><trkpt lat="49.8931416" lon="14.6432356"><ele>402.0</ele><time>2026-04-06T13:34:58.039Z</time></trkpt><trkpt lat="49.8931337" lon="14.6430463"><ele>402.0</ele><time>2026-04-06T13:34:59.04Z</time></trkpt><trkpt lat="49.8931378" lon="14.6428465"><ele>402.0</ele><time>2026-04-06T13:35:00.039Z</time></trkpt><trkpt lat="49.8931331" lon="14.6426408"><ele>402.0</ele><time>2026-04-06T13:35:01.04Z</time></trkpt><trkpt lat="49.8931345" lon="14.6424303"><ele>402.0</ele><time>2026-04-06T13:35:02.039Z</time></trkpt><trkpt lat="49.893111" lon="14.6422136"><ele>401.5</ele><time>2026-04-06T13:35:03.039Z</time></trkpt><trkpt lat="49.8930856" lon="14.642"><ele>401.0</ele><time>2026-04-06T13:35:04.039Z</time></trkpt><trkpt lat="49.8930729" lon="14.6417743"><ele>400.5</ele><time>2026-04-06T13:35:05.04Z</time></trkpt><trkpt lat="49.8930675" lon="14.6415497"><ele>400.0</ele><time>2026-04-06T13:35:06.039Z</time></trkpt><trkpt lat="49.8930456" lon="14.6413282"><ele>398.0</ele><time>2026-04-06T13:35:07.04Z</time></trkpt><trkpt lat="49.8930166" lon="14.6411207"><ele>396.0</ele><time>2026-04-06T13:35:08.04Z</time></trkpt><trkpt lat="49.8930066" lon="14.6408942"><ele>394.0</ele><time>2026-04-06T13:35:09.039Z</time></trkpt><trkpt lat="49.8929936" lon="14.6406624"><ele>392.0</ele><time>2026-04-06T13:35:10.04Z</time></trkpt><trkpt lat="49.8929988" lon="14.640457"><ele>390.0</ele><time>2026-04-06T13:35:11.04Z</time></trkpt><trkpt lat="49.8930154" lon="14.6402426"><ele>388.0</ele><time>2026-04-06T13:35:12.039Z</time></trkpt><trkpt lat="49.893019" lon="14.6400149"><ele>386.0</ele><time>2026-04-06T13:35:13.039Z</time></trkpt><trkpt lat="49.8930288" lon="14.6398068"><ele>384.0</ele><time>2026-04-06T13:35:14.04Z</time></trkpt><trkpt lat="49.89304" lon="14.6396444"><ele>384.0</ele><time>2026-04-06T13:35:15.039Z</time></trkpt><trkpt lat="49.8930633" lon="14.6395022"><ele>384.0</ele><time>2026-04-06T13:35:16.04Z</time></trkpt><trkpt lat="49.8930895" lon="14.639364"><ele>384.0</ele><time>2026-04-06T13:35:17.039Z</time></trkpt><trkpt lat="49.8931174" lon="14.6392276"><ele>384.0</ele><time>2026-04-06T13:35:18.04Z</time></trkpt><trkpt lat="49.8931602" lon="14.63908"><ele>384.0</ele><time>2026-04-06T13:35:19.04Z</time></trkpt><trkpt lat="49.8932054" lon="14.6389376"><ele>382.4</ele><time>2026-04-06T13:35:20.04Z</time></trkpt><trkpt lat="49.8932358" lon="14.6387908"><ele>380.79999999999995</ele><time>2026-04-06T13:35:21.039Z</time></trkpt><trkpt lat="49.8932671" lon="14.6386276"><ele>379.20000000000005</ele><time>2026-04-06T13:35:22.04Z</time></trkpt><trkpt lat="49.893308" lon="14.6384489"><ele>377.6</ele><time>2026-04-06T13:35:23.039Z</time></trkpt><trkpt lat="49.8933482" lon="14.6382931"><ele>376.0</ele><time>2026-04-06T13:35:24.039Z</time></trkpt><trkpt lat="49.893381" lon="14.6381414"><ele>375.16666666666663</ele><time>2026-04-06T13:35:25.04Z</time></trkpt><trkpt lat="49.8934012" lon="14.6380031"><ele>374.3333333333333</ele><time>2026-04-06T13:35:26.04Z</time></trkpt><trkpt lat="49.8934098" lon="14.6378731"><ele>373.5</ele><time>2026-04-06T13:35:27.04Z</time></trkpt><trkpt lat="49.8934079" lon="14.63774"><ele>372.6666666666667</ele><time>2026-04-06T13:35:28.04Z</time></trkpt><trkpt lat="49.8934118" lon="14.6376221"><ele>371.83333333333337</ele><time>2026-04-06T13:35:29.04Z</time></trkpt><trkpt lat="49.8934222" lon="14.6375036"><ele>371.0</ele><time>2026-04-06T13:35:30.039Z</time></trkpt><trkpt lat="49.8934223" lon="14.637377"><ele>371.2857142857143</ele><time>2026-04-06T13:35:31.039Z</time></trkpt><trkpt lat="49.8934256" lon="14.6372685"><ele>371.57142857142856</ele><time>2026-04-06T13:35:32.039Z</time></trkpt><trkpt lat="49.8934369" lon="14.6371463"><ele>371.8571428571429</ele><time>2026-04-06T13:35:33.039Z</time></trkpt><trkpt lat="49.893458" lon="14.6370163"><ele>372.1428571428571</ele><time>2026-04-06T13:35:34.039Z</time></trkpt><trkpt lat="49.8934764" lon="14.6369055"><ele>372.42857142857144</ele><time>2026-04-06T13:35:35.04Z</time></trkpt><trkpt lat="49.8935093" lon="14.6368055"><ele>372.7142857142857</ele><time>2026-04-06T13:35:36.039Z</time></trkpt><trkpt lat="49.8935366" lon="14.6367117"><ele>373.0</ele><time>2026-04-06T13:35:37.04Z</time></trkpt><trkpt lat="49.893591" lon="14.6365576"><ele>373.0</ele><time>2026-04-06T13:35:39.04Z</time></trkpt><trkpt lat="49.8936815" lon="14.636428"><ele>373.0</ele><time>2026-04-06T13:35:41.04Z</time></trkpt><trkpt lat="49.893728" lon="14.6363553"><ele>373.0</ele><time>2026-04-06T13:35:42.04Z</time></trkpt><trkpt lat="49.8938212" lon="14.636217"><ele>373.0</ele><time>2026-04-06T13:35:44.04Z</time></trkpt><trkpt lat="49.8938749" lon="14.6361492"><ele>373.0</ele><time>2026-04-06T13:35:45.039Z</time></trkpt><trkpt lat="49.8939216" lon="14.6360658"><ele>370.5</ele><time>2026-04-06T13:35:46.04Z</time></trkpt><trkpt lat="49.8939671" lon="14.6359699"><ele>368.0</ele><time>2026-04-06T13:35:47.039Z</time></trkpt><trkpt lat="49.8940063" lon="14.6358715"><ele>365.5</ele><time>2026-04-06T13:35:48.04Z</time></trkpt><trkpt lat="49.8940622" lon="14.6356975"><ele>363.0</ele><time>2026-04-06T13:35:50.04Z</time></trkpt><trkpt lat="49.8940711" lon="14.6355909"><ele>360.5</ele><time>2026-04-06T13:35:51.04Z</time></trkpt><trkpt lat="49.8940947" lon="14.6354848"><ele>358.0</ele><time>2026-04-06T13:35:52.039Z</time></trkpt><trkpt lat="49.8940579" lon="14.6353199"><ele>356.4</ele><time>2026-04-06T13:35:54.039Z</time></trkpt><trkpt lat="49.8939556" lon="14.6352326"><ele>354.79999999999995</ele><time>2026-04-06T13:35:56.039Z</time></trkpt><trkpt lat="49.8938833" lon="14.6352201"><ele>353.2</ele><time>2026-04-06T13:35:57.039Z</time></trkpt><trkpt lat="49.8938012" lon="14.6352169"><ele>351.6</ele><time>2026-04-06T13:35:58.041Z</time></trkpt><trkpt lat="49.8937084" lon="14.6352253"><ele>350.0</ele><time>2026-04-06T13:35:59.042Z</time></trkpt><trkpt lat="49.8936228" lon="14.6352303"><ele>350.0</ele><time>2026-04-06T13:36:00.042Z</time></trkpt><trkpt lat="49.8935467" lon="14.635223"><ele>350.0</ele><time>2026-04-06T13:36:01.042Z</time></trkpt><trkpt lat="49.8934456" lon="14.6351742"><ele>350.0</ele><time>2026-04-06T13:36:03.042Z</time></trkpt><trkpt lat="49.893451" lon="14.6350683"><ele>350.0</ele><time>2026-04-06T13:36:05.041Z</time></trkpt><trkpt lat="49.8934869" lon="14.6349337"><ele>350.0</ele><time>2026-04-06T13:36:07.042Z</time></trkpt><trkpt lat="49.8935393" lon="14.6347443"><ele>350.0</ele><time>2026-04-06T13:36:09.042Z</time></trkpt><trkpt lat="49.8935636" lon="14.6346245"><ele>350.0</ele><time>2026-04-06T13:36:10.042Z</time></trkpt><trkpt lat="49.8935952" lon="14.6345049"><ele>350.0</ele><time>2026-04-06T13:36:11.042Z</time></trkpt><trkpt lat="49.8936495" lon="14.634382"><ele>350.0</ele><time>2026-04-06T13:36:12.041Z</time></trkpt><trkpt lat="49.8937294" lon="14.6342714"><ele>350.0</ele><time>2026-04-06T13:36:13.041Z</time></trkpt><trkpt lat="49.8938226" lon="14.6341699"><ele>350.0</ele><time>2026-04-06T13:36:14.042Z</time></trkpt><trkpt lat="49.8939079" lon="14.6340922"><ele>350.0</ele><time>2026-04-06T13:36:15.041Z</time></trkpt><trkpt lat="49.8939806" lon="14.6340666"><ele>350.0</ele><time>2026-04-06T13:36:16.042Z</time></trkpt><trkpt lat="49.8940654" lon="14.6340615"><ele>350.0</ele><time>2026-04-06T13:36:17.042Z</time></trkpt><trkpt lat="49.89416" lon="14.6340789"><ele>350.0</ele><time>2026-04-06T13:36:18.042Z</time></trkpt><trkpt lat="49.8942702" lon="14.6341238"><ele>350.0</ele><time>2026-04-06T13:36:19.041Z</time></trkpt><trkpt lat="49.8943863" lon="14.6341603"><ele>350.0</ele><time>2026-04-06T13:36:20.041Z</time></trkpt><trkpt lat="49.8945008" lon="14.6341807"><ele>350.0</ele><time>2026-04-06T13:36:21.041Z</time></trkpt><trkpt lat="49.8945998" lon="14.6341878"><ele>350.0</ele><time>2026-04-06T13:36:22.041Z</time></trkpt><trkpt lat="49.8946916" lon="14.6341673"><ele>350.0</ele><time>2026-04-06T13:36:23.042Z</time></trkpt><trkpt lat="49.8947958" lon="14.634132"><ele>350.0</ele><time>2026-04-06T13:36:24.042Z</time></trkpt><trkpt lat="49.8949099" lon="14.6340734"><ele>350.0</ele><time>2026-04-06T13:36:25.042Z</time></trkpt><trkpt lat="49.8950254" lon="14.6339937"><ele>350.0</ele><time>2026-04-06T13:36:26.041Z</time></trkpt><trkpt lat="49.8951322" lon="14.6339141"><ele>350.0</ele><time>2026-04-06T13:36:27.042Z</time></trkpt><trkpt lat="49.8952465" lon="14.6338084"><ele>350.6666666666667</ele><time>2026-04-06T13:36:28.042Z</time></trkpt><trkpt lat="49.8953661" lon="14.6337007"><ele>351.3333333333333</ele><time>2026-04-06T13:36:29.042Z</time></trkpt><trkpt lat="49.8954925" lon="14.6335603"><ele>352.0</ele><time>2026-04-06T13:36:30.042Z</time></trkpt><trkpt lat="49.8956226" lon="14.6333924"><ele>352.3333333333333</ele><time>2026-04-06T13:36:31.042Z</time></trkpt><trkpt lat="49.8957685" lon="14.6332214"><ele>352.6666666666667</ele><time>2026-04-06T13:36:32.042Z</time></trkpt><trkpt lat="49.8959234" lon="14.6330673"><ele>353.0</ele><time>2026-04-06T13:36:33.042Z</time></trkpt><trkpt lat="49.8960804" lon="14.6329087"><ele>353.33333333333337</ele><time>2026-04-06T13:36:34.041Z</time></trkpt><trkpt lat="49.8962259" lon="14.6327423"><ele>353.6666666666667</ele><time>2026-04-06T13:36:35.041Z</time></trkpt><trkpt lat="49.8963609" lon="14.6325859"><ele>354.0</ele><time>2026-04-06T13:36:36.042Z</time></trkpt><trkpt lat="49.8964709" lon="14.6324416"><ele>354.0</ele><time>2026-04-06T13:36:37.041Z</time></trkpt><trkpt lat="49.8965552" lon="14.6322682"><ele>354.0</ele><time>2026-04-06T13:36:38.041Z</time></trkpt><trkpt lat="49.8966364" lon="14.6320809"><ele>354.0</ele><time>2026-04-06T13:36:39.042Z</time></trkpt><trkpt lat="49.8967383" lon="14.6319323"><ele>354.0</ele><time>2026-04-06T13:36:40.042Z</time></trkpt><trkpt lat="49.8968639" lon="14.631827"><ele>354.0</ele><time>2026-04-06T13:36:41.041Z</time></trkpt><trkpt lat="49.897014" lon="14.6317839"><ele>354.0</ele><time>2026-04-06T13:36:42.041Z</time></trkpt><trkpt lat="49.8971763" lon="14.6317449"><ele>354.0</ele><time>2026-04-06T13:36:43.042Z</time></trkpt><trkpt lat="49.8973231" lon="14.6316696"><ele>354.0</ele><time>2026-04-06T13:36:44.041Z</time></trkpt><trkpt lat="49.8974781" lon="14.6315629"><ele>354.0</ele><time>2026-04-06T13:36:45.042Z</time></trkpt><trkpt lat="49.897634" lon="14.6314255"><ele>354.0</ele><time>2026-04-06T13:36:46.042Z</time></trkpt><trkpt lat="49.8977886" lon="14.6312878"><ele>354.0</ele><time>2026-04-06T13:36:47.042Z</time></trkpt><trkpt lat="49.8979325" lon="14.6311567"><ele>354.0</ele><time>2026-04-06T13:36:48.042Z</time></trkpt><trkpt lat="49.8980608" lon="14.6310196"><ele>354.0</ele><time>2026-04-06T13:36:49.042Z</time></trkpt><trkpt lat="49.8981852" lon="14.6308445"><ele>354.0</ele><time>2026-04-06T13:36:50.042Z</time></trkpt><trkpt lat="49.8983058" lon="14.6306426"><ele>354.0</ele><time>2026-04-06T13:36:51.041Z</time></trkpt><trkpt lat="49.8984145" lon="14.630401"><ele>354.0</ele><time>2026-04-06T13:36:52.041Z</time></trkpt><trkpt lat="49.8985042" lon="14.6301848"><ele>355.3333333333333</ele><time>2026-04-06T13:36:53.042Z</time></trkpt><trkpt lat="49.8986056" lon="14.6299787"><ele>356.66666666666663</ele><time>2026-04-06T13:36:54.042Z</time></trkpt><trkpt lat="49.8986881" lon="14.6297605"><ele>358.0</ele><time>2026-04-06T13:36:55.041Z</time></trkpt><trkpt lat="49.8987722" lon="14.6295278"><ele>358.0</ele><time>2026-04-06T13:36:56.041Z</time></trkpt><trkpt lat="49.8988714" lon="14.6292528"><ele>358.0</ele><time>2026-04-06T13:36:57.042Z</time></trkpt><trkpt lat="49.8989613" lon="14.6289525"><ele>358.0</ele><time>2026-04-06T13:36:58.042Z</time></trkpt><trkpt lat="49.8990379" lon="14.6286795"><ele>358.66666666666663</ele><time>2026-04-06T13:36:59.042Z</time></trkpt><trkpt lat="49.8991129" lon="14.6284407"><ele>359.3333333333333</ele><time>2026-04-06T13:37:00.041Z</time></trkpt><trkpt lat="49.8992077" lon="14.6282156"><ele>360.0</ele><time>2026-04-06T13:37:01.041Z</time></trkpt><trkpt lat="49.8993206" lon="14.6280236"><ele>362.0</ele><time>2026-04-06T13:37:02.042Z</time></trkpt><trkpt lat="49.8994457" lon="14.627865"><ele>364.0</ele><time>2026-04-06T13:37:03.042Z</time></trkpt><trkpt lat="49.8995509" lon="14.6277046"><ele>366.0</ele><time>2026-04-06T13:37:04.042Z</time></trkpt><trkpt lat="49.89965" lon="14.6274922"><ele>366.0</ele><time>2026-04-06T13:37:05.042Z</time></trkpt><trkpt lat="49.8997578" lon="14.6272437"><ele>366.0</ele><time>2026-04-06T13:37:06.041Z</time></trkpt><trkpt lat="49.8998866" lon="14.6270214"><ele>366.0</ele><time>2026-04-06T13:37:07.041Z</time></trkpt><trkpt lat="49.9000185" lon="14.6268143"><ele>367.0</ele><time>2026-04-06T13:37:08.042Z</time></trkpt><trkpt lat="49.9001398" lon="14.6265903"><ele>368.0</ele><time>2026-04-06T13:37:09.041Z</time></trkpt><trkpt lat="49.9002443" lon="14.6263917"><ele>369.0</ele><time>2026-04-06T13:37:10.042Z</time></trkpt><trkpt lat="49.9003514" lon="14.6262131"><ele>369.6666666666667</ele><time>2026-04-06T13:37:11.042Z</time></trkpt><trkpt lat="49.9004635" lon="14.6260593"><ele>370.33333333333337</ele><time>2026-04-06T13:37:12.042Z</time></trkpt><trkpt lat="49.9005776" lon="14.6259162"><ele>371.0</ele><time>2026-04-06T13:37:13.042Z</time></trkpt><trkpt lat="49.9006964" lon="14.62576"><ele>371.0</ele><time>2026-04-06T13:37:14.041Z</time></trkpt><trkpt lat="49.9008211" lon="14.6255775"><ele>371.0</ele><time>2026-04-06T13:37:15.041Z</time></trkpt><trkpt lat="49.9009567" lon="14.6253635"><ele>371.0</ele><time>2026-04-06T13:37:16.042Z</time></trkpt><trkpt lat="49.9010897" lon="14.6251384"><ele>370.6666666666667</ele><time>2026-04-06T13:37:17.041Z</time></trkpt><trkpt lat="49.9012276" lon="14.6249173"><ele>370.3333333333333</ele><time>2026-04-06T13:37:18.041Z</time></trkpt><trkpt lat="49.9013553" lon="14.6246859"><ele>370.0</ele><time>2026-04-06T13:37:19.041Z</time></trkpt><trkpt lat="49.9014742" lon="14.6244488"><ele>370.0</ele><time>2026-04-06T13:37:20.042Z</time></trkpt><trkpt lat="49.9015754" lon="14.6241899"><ele>370.0</ele><time>2026-04-06T13:37:21.041Z</time></trkpt><trkpt lat="49.9016667" lon="14.6239376"><ele>370.0</ele><time>2026-04-06T13:37:22.041Z</time></trkpt><trkpt lat="49.9017548" lon="14.6237136"><ele>370.0</ele><time>2026-04-06T13:37:23.041Z</time></trkpt><trkpt lat="49.9018336" lon="14.6235157"><ele>370.0</ele><time>2026-04-06T13:37:24.041Z</time></trkpt><trkpt lat="49.9019011" lon="14.6233405"><ele>370.0</ele><time>2026-04-06T13:37:25.042Z</time></trkpt><trkpt lat="49.9019611" lon="14.6231819"><ele>370.0</ele><time>2026-04-06T13:37:26.042Z</time></trkpt><trkpt lat="49.9020105" lon="14.6230437"><ele>370.0</ele><time>2026-04-06T13:37:27.041Z</time></trkpt><trkpt lat="49.9020562" lon="14.6229094"><ele>370.0</ele><time>2026-04-06T13:37:28.042Z</time></trkpt><trkpt lat="49.9021048" lon="14.622783"><ele>370.0</ele><time>2026-04-06T13:37:29.042Z</time></trkpt><trkpt lat="49.9021592" lon="14.6226732"><ele>370.0</ele><time>2026-04-06T13:37:30.041Z</time></trkpt><trkpt lat="49.9022158" lon="14.6225663"><ele>370.0</ele><time>2026-04-06T13:37:31.042Z</time></trkpt><trkpt lat="49.9022761" lon="14.6224657"><ele>370.2</ele><time>2026-04-06T13:37:32.041Z</time></trkpt><trkpt lat="49.9023319" lon="14.6223438"><ele>370.4</ele><time>2026-04-06T13:37:33.042Z</time></trkpt><trkpt lat="49.9023925" lon="14.6222333"><ele>370.6</ele><time>2026-04-06T13:37:34.041Z</time></trkpt><trkpt lat="49.9024599" lon="14.6221304"><ele>370.8</ele><time>2026-04-06T13:37:35.041Z</time></trkpt><trkpt lat="49.9025424" lon="14.6220433"><ele>371.0</ele><time>2026-04-06T13:37:36.041Z</time></trkpt><trkpt lat="49.9026147" lon="14.6219645"><ele>371.6</ele><time>2026-04-06T13:37:37.042Z</time></trkpt><trkpt lat="49.9026556" lon="14.6218776"><ele>372.20000000000005</ele><time>2026-04-06T13:37:38.042Z</time></trkpt><trkpt lat="49.902653" lon="14.6217699"><ele>372.79999999999995</ele><time>2026-04-06T13:37:39.042Z</time></trkpt><trkpt lat="49.9026096" lon="14.6216516"><ele>373.4</ele><time>2026-04-06T13:37:40.042Z</time></trkpt><trkpt lat="49.902533" lon="14.6215244"><ele>374.0</ele><time>2026-04-06T13:37:41.042Z</time></trkpt><trkpt lat="49.9024431" lon="14.6213656"><ele>374.0</ele><time>2026-04-06T13:37:42.042Z</time></trkpt><trkpt lat="49.9023641" lon="14.6211866"><ele>374.0</ele><time>2026-04-06T13:37:43.041Z</time></trkpt><trkpt lat="49.9023111" lon="14.6210166"><ele>374.0</ele><time>2026-04-06T13:37:44.041Z</time></trkpt><trkpt lat="49.9022714" lon="14.6208679"><ele>374.0</ele><time>2026-04-06T13:37:45.042Z</time></trkpt><trkpt lat="49.902228" lon="14.6207512"><ele>374.79999999999995</ele><time>2026-04-06T13:37:46.042Z</time></trkpt><trkpt lat="49.9021844" lon="14.6206511"><ele>375.59999999999997</ele><time>2026-04-06T13:37:47.042Z</time></trkpt><trkpt lat="49.9021376" lon="14.6205803"><ele>376.4</ele><time>2026-04-06T13:37:48.041Z</time></trkpt><trkpt lat="49.9020515" lon="14.620469"><ele>377.2</ele><time>2026-04-06T13:37:50.042Z</time></trkpt><trkpt lat="49.9019608" lon="14.6203572"><ele>378.0</ele><time>2026-04-06T13:37:52.042Z</time></trkpt><trkpt lat="49.9018839" lon="14.6202415"><ele>378.3333333333333</ele><time>2026-04-06T13:37:54.042Z</time></trkpt><trkpt lat="49.9018003" lon="14.6201555"><ele>378.6666666666667</ele><time>2026-04-06T13:37:56.041Z</time></trkpt><trkpt lat="49.9017135" lon="14.6200969"><ele>379.0</ele><time>2026-04-06T13:37:58.042Z</time></trkpt><trkpt lat="49.9016426" lon="14.6200541"><ele>379.33333333333337</ele><time>2026-04-06T13:38:01.042Z</time></trkpt><trkpt lat="49.9017074" lon="14.6200369"><ele>379.6666666666667</ele><time>2026-04-06T13:38:09.041Z</time></trkpt><trkpt lat="49.9017772" lon="14.6201272"><ele>380.0</ele><time>2026-04-06T13:38:11.042Z</time></trkpt><trkpt lat="49.9018677" lon="14.6202365"><ele>379.6</ele><time>2026-04-06T13:38:13.042Z</time></trkpt><trkpt lat="49.9019564" lon="14.6203587"><ele>379.2</ele><time>2026-04-06T13:38:15.041Z</time></trkpt><trkpt lat="49.9020546" lon="14.6204871"><ele>378.79999999999995</ele><time>2026-04-06T13:38:17.042Z</time></trkpt><trkpt lat="49.9021372" lon="14.6206027"><ele>378.4</ele><time>2026-04-06T13:38:19.041Z</time></trkpt><trkpt lat="49.9021845" lon="14.6207068"><ele>378.0</ele><time>2026-04-06T13:38:21.041Z</time></trkpt><trkpt lat="49.9022521" lon="14.6206866"><ele>378.0</ele><time>2026-04-06T13:38:26.041Z</time></trkpt><trkpt lat="49.9022427" lon="14.6205823"><ele>378.0</ele><time>2026-04-06T13:38:28.042Z</time></trkpt><trkpt lat="49.9021694" lon="14.6205063"><ele>378.0</ele><time>2026-04-06T13:38:29.041Z</time></trkpt><trkpt lat="49.9021085" lon="14.6204102"><ele>378.0</ele><time>2026-04-06T13:38:30.041Z</time></trkpt><trkpt lat="49.9020332" lon="14.6202798"><ele>378.0</ele><time>2026-04-06T13:38:31.042Z</time></trkpt><trkpt lat="49.9019453" lon="14.6201247"><ele>378.5</ele><time>2026-04-06T13:38:32.042Z</time></trkpt><trkpt lat="49.9018353" lon="14.6199383"><ele>379.0</ele><time>2026-04-06T13:38:33.041Z</time></trkpt><trkpt lat="49.901735" lon="14.6197564"><ele>379.5</ele><time>2026-04-06T13:38:34.041Z</time></trkpt><trkpt lat="49.9016612" lon="14.6195889"><ele>380.0</ele><time>2026-04-06T13:38:35.041Z</time></trkpt><trkpt lat="49.9015986" lon="14.619433"><ele>380.8</ele><time>2026-04-06T13:38:36.042Z</time></trkpt><trkpt lat="49.9015557" lon="14.6193196"><ele>381.6</ele><time>2026-04-06T13:38:37.041Z</time></trkpt><trkpt lat="49.90153" lon="14.6191336"><ele>382.4</ele><time>2026-04-06T13:38:39.041Z</time></trkpt><trkpt lat="49.9015097" lon="14.6190213"><ele>383.2</ele><time>2026-04-06T13:38:40.041Z</time></trkpt><trkpt lat="49.9014886" lon="14.618892"><ele>384.0</ele><time>2026-04-06T13:38:41.041Z</time></trkpt><trkpt lat="49.9014776" lon="14.6187553"><ele>384.79999999999995</ele><time>2026-04-06T13:38:42.042Z</time></trkpt><trkpt lat="49.9014687" lon="14.6186073"><ele>385.59999999999997</ele><time>2026-04-06T13:38:43.041Z</time></trkpt><trkpt lat="49.9014579" lon="14.6184552"><ele>386.4</ele><time>2026-04-06T13:38:44.042Z</time></trkpt><trkpt lat="49.9014555" lon="14.6183137"><ele>387.2</ele><time>2026-04-06T13:38:45.042Z</time></trkpt><trkpt lat="49.9014621" lon="14.6181662"><ele>388.0</ele><time>2026-04-06T13:38:46.041Z</time></trkpt><trkpt lat="49.901479" lon="14.6179954"><ele>388.5</ele><time>2026-04-06T13:38:47.041Z</time></trkpt><trkpt lat="49.9014998" lon="14.617809"><ele>389.0</ele><time>2026-04-06T13:38:48.041Z</time></trkpt><trkpt lat="49.9015223" lon="14.6176158"><ele>389.5</ele><time>2026-04-06T13:38:49.042Z</time></trkpt><trkpt lat="49.9015502" lon="14.6174097"><ele>390.0</ele><time>2026-04-06T13:38:50.042Z</time></trkpt><trkpt lat="49.9015749" lon="14.6171947"><ele>390.5</ele><time>2026-04-06T13:38:51.042Z</time></trkpt><trkpt lat="49.901594" lon="14.6169811"><ele>391.0</ele><time>2026-04-06T13:38:52.042Z</time></trkpt><trkpt lat="49.9016028" lon="14.6167917"><ele>391.5</ele><time>2026-04-06T13:38:53.042Z</time></trkpt><trkpt lat="49.901608" lon="14.6166074"><ele>392.0</ele><time>2026-04-06T13:38:54.042Z</time></trkpt><trkpt lat="49.9016127" lon="14.616415"><ele>392.0</ele><time>2026-04-06T13:38:55.041Z</time></trkpt><trkpt lat="49.9016178" lon="14.6162221"><ele>392.0</ele><time>2026-04-06T13:38:56.041Z</time></trkpt><trkpt lat="49.9016218" lon="14.6160322"><ele>392.0</ele><time>2026-04-06T13:38:57.042Z</time></trkpt><trkpt lat="49.9016329" lon="14.6158381"><ele>392.0</ele><time>2026-04-06T13:38:58.042Z</time></trkpt><trkpt lat="49.9016458" lon="14.615645"><ele>392.20000000000005</ele><time>2026-04-06T13:38:59.042Z</time></trkpt><trkpt lat="49.9016637" lon="14.6154656"><ele>392.4</ele><time>2026-04-06T13:39:00.041Z</time></trkpt><trkpt lat="49.9016814" lon="14.6153065"><ele>392.6</ele><time>2026-04-06T13:39:01.042Z</time></trkpt><trkpt lat="49.9017052" lon="14.6151645"><ele>392.79999999999995</ele><time>2026-04-06T13:39:02.042Z</time></trkpt><trkpt lat="49.9017474" lon="14.6150504"><ele>393.0</ele><time>2026-04-06T13:39:03.042Z</time></trkpt><trkpt lat="49.9018104" lon="14.614933"><ele>394.4</ele><time>2026-04-06T13:39:04.042Z</time></trkpt><trkpt lat="49.9018819" lon="14.6148143"><ele>395.79999999999995</ele><time>2026-04-06T13:39:05.042Z</time></trkpt><trkpt lat="49.9019458" lon="14.6146836"><ele>397.2</ele><time>2026-04-06T13:39:06.041Z</time></trkpt><trkpt lat="49.9019954" lon="14.6145476"><ele>398.6</ele><time>2026-04-06T13:39:07.042Z</time></trkpt><trkpt lat="49.902042" lon="14.614413"><ele>400.0</ele><time>2026-04-06T13:39:08.041Z</time></trkpt><trkpt lat="49.9020837" lon="14.6142804"><ele>400.75</ele><time>2026-04-06T13:39:09.042Z</time></trkpt><trkpt lat="49.9021401" lon="14.614146"><ele>401.5</ele><time>2026-04-06T13:39:10.042Z</time></trkpt><trkpt lat="49.9021772" lon="14.6140104"><ele>402.25</ele><time>2026-04-06T13:39:11.041Z</time></trkpt><trkpt lat="49.9022461" lon="14.6138368"><ele>403.0</ele><time>2026-04-06T13:39:12.042Z</time></trkpt><trkpt lat="49.9023481" lon="14.6136643"><ele>403.59999999999997</ele><time>2026-04-06T13:39:13.041Z</time></trkpt><trkpt lat="49.9024478" lon="14.6135002"><ele>404.2</ele><time>2026-04-06T13:39:14.041Z</time></trkpt><trkpt lat="49.9025066" lon="14.613383"><ele>404.8</ele><time>2026-04-06T13:39:15.041Z</time></trkpt><trkpt lat="49.9025337" lon="14.6132748"><ele>405.4</ele><time>2026-04-06T13:39:16.042Z</time></trkpt><trkpt lat="49.9025471" lon="14.6131498"><ele>406.0</ele><time>2026-04-06T13:39:17.041Z</time></trkpt><trkpt lat="49.9025802" lon="14.6130176"><ele>407.8</ele><time>2026-04-06T13:39:18.042Z</time></trkpt><trkpt lat="49.9026217" lon="14.6129062"><ele>409.6</ele><time>2026-04-06T13:39:19.041Z</time></trkpt><trkpt lat="49.9026807" lon="14.6128007"><ele>411.4</ele><time>2026-04-06T13:39:20.041Z</time></trkpt><trkpt lat="49.9027448" lon="14.6126968"><ele>413.2</ele><time>2026-04-06T13:39:21.041Z</time></trkpt><trkpt lat="49.9028043" lon="14.612571"><ele>415.0</ele><time>2026-04-06T13:39:22.042Z</time></trkpt><trkpt lat="49.9028572" lon="14.6124202"><ele>415.0</ele><time>2026-04-06T13:39:23.041Z</time></trkpt><trkpt lat="49.9029117" lon="14.6122584"><ele>415.0</ele><time>2026-04-06T13:39:24.041Z</time></trkpt><trkpt lat="49.9029818" lon="14.6120472"><ele>415.0</ele><time>2026-04-06T13:39:25.042Z</time></trkpt><trkpt lat="49.9030624" lon="14.6118076"><ele>415.0</ele><time>2026-04-06T13:39:26.042Z</time></trkpt><trkpt lat="49.903152" lon="14.6115675"><ele>414.6666666666667</ele><time>2026-04-06T13:39:27.042Z</time></trkpt><trkpt lat="49.9032414" lon="14.6113488"><ele>414.33333333333337</ele><time>2026-04-06T13:39:28.042Z</time></trkpt><trkpt lat="49.9033301" lon="14.611151"><ele>414.0</ele><time>2026-04-06T13:39:29.041Z</time></trkpt><trkpt lat="49.9034146" lon="14.6109794"><ele>417.75</ele><time>2026-04-06T13:39:30.041Z</time></trkpt><trkpt lat="49.9035057" lon="14.6108105"><ele>421.5</ele><time>2026-04-06T13:39:31.042Z</time></trkpt><trkpt lat="49.9035981" lon="14.6106372"><ele>425.25</ele><time>2026-04-06T13:39:32.042Z</time></trkpt><trkpt lat="49.9036856" lon="14.6104583"><ele>429.0</ele><time>2026-04-06T13:39:33.042Z</time></trkpt><trkpt lat="49.9037745" lon="14.6102799"><ele>429.0</ele><time>2026-04-06T13:39:34.042Z</time></trkpt><trkpt lat="49.903863" lon="14.6101088"><ele>429.0</ele><time>2026-04-06T13:39:35.041Z</time></trkpt><trkpt lat="49.903943" lon="14.6099634"><ele>429.0</ele><time>2026-04-06T13:39:36.041Z</time></trkpt><trkpt lat="49.904013" lon="14.6098468"><ele>429.0</ele><time>2026-04-06T13:39:37.042Z</time></trkpt><trkpt lat="49.9040671" lon="14.6097488"><ele>429.0</ele><time>2026-04-06T13:39:38.042Z</time></trkpt><trkpt lat="49.9041241" lon="14.6095938"><ele>429.0</ele><time>2026-04-06T13:39:40.042Z</time></trkpt><trkpt lat="49.9041097" lon="14.6094912"><ele>429.0</ele><time>2026-04-06T13:39:41.042Z</time></trkpt><trkpt lat="49.9040609" lon="14.6093751"><ele>429.0</ele><time>2026-04-06T13:39:42.042Z</time></trkpt><trkpt lat="49.9039962" lon="14.609243"><ele>429.0</ele><time>2026-04-06T13:39:43.042Z</time></trkpt><trkpt lat="49.9039269" lon="14.6091158"><ele>428.6</ele><time>2026-04-06T13:39:44.042Z</time></trkpt><trkpt lat="49.9038557" lon="14.609002"><ele>428.2</ele><time>2026-04-06T13:39:45.042Z</time></trkpt><trkpt lat="49.9037815" lon="14.6088824"><ele>427.80000000000007</ele><time>2026-04-06T13:39:46.041Z</time></trkpt><trkpt lat="49.903705" lon="14.6087558"><ele>427.40000000000003</ele><time>2026-04-06T13:39:47.042Z</time></trkpt><trkpt lat="49.9036257" lon="14.6086131"><ele>427.0</ele><time>2026-04-06T13:39:48.041Z</time></trkpt><trkpt lat="49.9035146" lon="14.6084656"><ele>426.0</ele><time>2026-04-06T13:39:49.041Z</time></trkpt><trkpt lat="49.9033932" lon="14.6083113"><ele>425.0</ele><time>2026-04-06T13:39:50.042Z</time></trkpt><trkpt lat="49.9032549" lon="14.6082237"><ele>424.0</ele><time>2026-04-06T13:39:51.042Z</time></trkpt><trkpt lat="49.9031326" lon="14.608148"><ele>423.0</ele><time>2026-04-06T13:39:52.041Z</time></trkpt><trkpt lat="49.9030222" lon="14.6080575"><ele>423.0</ele><time>2026-04-06T13:39:53.042Z</time></trkpt><trkpt lat="49.9029171" lon="14.6079958"><ele>423.0</ele><time>2026-04-06T13:39:54.041Z</time></trkpt><trkpt lat="49.9028319" lon="14.6079345"><ele>423.0</ele><time>2026-04-06T13:39:55.041Z</time></trkpt><trkpt lat="49.9027523" lon="14.6078574"><ele>423.0</ele><time>2026-04-06T13:39:56.041Z</time></trkpt><trkpt lat="49.902672" lon="14.6077752"><ele>423.0</ele><time>2026-04-06T13:39:57.041Z</time></trkpt><trkpt lat="49.9026164" lon="14.6076822"><ele>425.75</ele><time>2026-04-06T13:39:58.041Z</time></trkpt><trkpt lat="49.9025374" lon="14.607576"><ele>428.5</ele><time>2026-04-06T13:39:59.042Z</time></trkpt><trkpt lat="49.9024564" lon="14.607435"><ele>431.25</ele><time>2026-04-06T13:40:00.041Z</time></trkpt><trkpt lat="49.9023542" lon="14.6072938"><ele>434.0</ele><time>2026-04-06T13:40:01.042Z</time></trkpt><trkpt lat="49.9022455" lon="14.6071782"><ele>434.0</ele><time>2026-04-06T13:40:02.041Z</time></trkpt><trkpt lat="49.9021462" lon="14.6070784"><ele>434.0</ele><time>2026-04-06T13:40:03.041Z</time></trkpt><trkpt lat="49.9020684" lon="14.6069829"><ele>434.0</ele><time>2026-04-06T13:40:04.041Z</time></trkpt><trkpt lat="49.9019956" lon="14.6068913"><ele>434.0</ele><time>2026-04-06T13:40:05.042Z</time></trkpt><trkpt lat="49.9019199" lon="14.6068372"><ele>434.0</ele><time>2026-04-06T13:40:06.041Z</time></trkpt><trkpt lat="49.9018109" lon="14.6067878"><ele>436.25</ele><time>2026-04-06T13:40:07.041Z</time></trkpt><trkpt lat="49.9016615" lon="14.6067674"><ele>438.5</ele><time>2026-04-06T13:40:08.041Z</time></trkpt><trkpt lat="49.9015527" lon="14.6067119"><ele>440.75</ele><time>2026-04-06T13:40:09.041Z</time></trkpt><trkpt lat="49.9014523" lon="14.6066798"><ele>443.0</ele><time>2026-04-06T13:40:10.041Z</time></trkpt><trkpt lat="49.9013473" lon="14.606657"><ele>443.0</ele><time>2026-04-06T13:40:11.041Z</time></trkpt><trkpt lat="49.901229" lon="14.6066736"><ele>442.99999999999994</ele><time>2026-04-06T13:40:12.041Z</time></trkpt><trkpt lat="49.90112" lon="14.6066884"><ele>442.99999999999994</ele><time>2026-04-06T13:40:13.041Z</time></trkpt><trkpt lat="49.901025" lon="14.6066718"><ele>443.0</ele><time>2026-04-06T13:40:14.041Z</time></trkpt><trkpt lat="49.9009169" lon="14.60664"><ele>443.0</ele><time>2026-04-06T13:40:15.042Z</time></trkpt><trkpt lat="49.9007944" lon="14.6066385"><ele>443.4</ele><time>2026-04-06T13:40:16.042Z</time></trkpt><trkpt lat="49.9006984" lon="14.6065977"><ele>443.79999999999995</ele><time>2026-04-06T13:40:17.041Z</time></trkpt><trkpt lat="49.9005951" lon="14.6065881"><ele>444.2</ele><time>2026-04-06T13:40:18.042Z</time></trkpt><trkpt lat="49.9005278" lon="14.6065897"><ele>444.6</ele><time>2026-04-06T13:40:19.042Z</time></trkpt><trkpt lat="49.9004629" lon="14.6065333"><ele>445.0</ele><time>2026-04-06T13:40:21.041Z</time></trkpt><trkpt lat="49.9003496" lon="14.606445"><ele>445.00000000000006</ele><time>2026-04-06T13:40:23.041Z</time></trkpt><trkpt lat="49.9003132" lon="14.6063615"><ele>445.0</ele><time>2026-04-06T13:40:24.042Z</time></trkpt><trkpt lat="49.9002715" lon="14.6062826"><ele>445.0</ele><time>2026-04-06T13:40:25.041Z</time></trkpt><trkpt lat="49.9002106" lon="14.6061118"><ele>445.0</ele><time>2026-04-06T13:40:27.041Z</time></trkpt><trkpt lat="49.9001679" lon="14.6060196"><ele>445.00000000000006</ele><time>2026-04-06T13:40:28.042Z</time></trkpt><trkpt lat="49.9001232" lon="14.6059136"><ele>445.0</ele><time>2026-04-06T13:40:29.041Z</time></trkpt><trkpt lat="49.9000843" lon="14.6058093"><ele>443.7142857142857</ele><time>2026-04-06T13:40:30.042Z</time></trkpt><trkpt lat="49.9000481" lon="14.6057214"><ele>442.4285714285714</ele><time>2026-04-06T13:40:31.042Z</time></trkpt><trkpt lat="49.9000202" lon="14.6056161"><ele>441.1428571428571</ele><time>2026-04-06T13:40:32.042Z</time></trkpt><trkpt lat="49.8999941" lon="14.605517"><ele>439.8571428571429</ele><time>2026-04-06T13:40:33.041Z</time></trkpt><trkpt lat="49.8999686" lon="14.6054106"><ele>438.57142857142856</ele><time>2026-04-06T13:40:34.042Z</time></trkpt><trkpt lat="49.8999515" lon="14.6053095"><ele>437.2857142857143</ele><time>2026-04-06T13:40:35.042Z</time></trkpt><trkpt lat="49.8999347" lon="14.6052126"><ele>436.0</ele><time>2026-04-06T13:40:36.041Z</time></trkpt><trkpt lat="49.899907" lon="14.605023"><ele>435.8</ele><time>2026-04-06T13:40:38.041Z</time></trkpt><trkpt lat="49.8998829" lon="14.6048504"><ele>435.6</ele><time>2026-04-06T13:40:40.041Z</time></trkpt><trkpt lat="49.8998635" lon="14.6046741"><ele>435.4</ele><time>2026-04-06T13:40:42.042Z</time></trkpt><trkpt lat="49.8998337" lon="14.6045218"><ele>435.2</ele><time>2026-04-06T13:40:44.041Z</time></trkpt><trkpt lat="49.8998067" lon="14.6043688"><ele>435.0</ele><time>2026-04-06T13:40:46.041Z</time></trkpt><trkpt lat="49.8997675" lon="14.6042294"><ele>435.0</ele><time>2026-04-06T13:40:48.041Z</time></trkpt><trkpt lat="49.8997464" lon="14.6040912"><ele>435.0</ele><time>2026-04-06T13:40:50.042Z</time></trkpt><trkpt lat="49.8997382" lon="14.6039362"><ele>435.0</ele><time>2026-04-06T13:40:52.041Z</time></trkpt><trkpt lat="49.8997298" lon="14.6038085"><ele>435.0</ele><time>2026-04-06T13:40:54.041Z</time></trkpt><trkpt lat="49.8997578" lon="14.6036715"><ele>435.0</ele><time>2026-04-06T13:40:56.041Z</time></trkpt><trkpt lat="49.8998225" lon="14.6035416"><ele>435.8</ele><time>2026-04-06T13:40:58.042Z</time></trkpt><trkpt lat="49.8998785" lon="14.6033911"><ele>436.6</ele><time>2026-04-06T13:41:00.042Z</time></trkpt><trkpt lat="49.8999038" lon="14.6032153"><ele>437.4</ele><time>2026-04-06T13:41:02.042Z</time></trkpt><trkpt lat="49.8998576" lon="14.6030881"><ele>438.2</ele><time>2026-04-06T13:41:04.042Z</time></trkpt><trkpt lat="49.8998076" lon="14.6030256"><ele>439.0</ele><time>2026-04-06T13:41:05.042Z</time></trkpt><trkpt lat="49.899755" lon="14.6029438"><ele>439.00000000000006</ele><time>2026-04-06T13:41:06.042Z</time></trkpt><trkpt lat="49.8996969" lon="14.6028722"><ele>439.0</ele><time>2026-04-06T13:41:07.041Z</time></trkpt><trkpt lat="49.8996515" lon="14.6027835"><ele>439.0</ele><time>2026-04-06T13:41:08.041Z</time></trkpt><trkpt lat="49.8995998" lon="14.6027162"><ele>439.0</ele><time>2026-04-06T13:41:09.042Z</time></trkpt><trkpt lat="49.89955" lon="14.6026509"><ele>439.00000000000006</ele><time>2026-04-06T13:41:10.042Z</time></trkpt><trkpt lat="49.8994788" lon="14.6025287"><ele>439.0</ele><time>2026-04-06T13:41:12.042Z</time></trkpt><trkpt lat="49.8994076" lon="14.6024486"><ele>440.0</ele><time>2026-04-06T13:41:14.042Z</time></trkpt><trkpt lat="49.8993446" lon="14.602315"><ele>441.0</ele><time>2026-04-06T13:41:16.042Z</time></trkpt><trkpt lat="49.8993462" lon="14.602105"><ele>442.0</ele><time>2026-04-06T13:41:18.042Z</time></trkpt><trkpt lat="49.8993735" lon="14.6019525"><ele>443.0</ele><time>2026-04-06T13:41:19.042Z</time></trkpt><trkpt lat="49.8994099" lon="14.6017731"><ele>443.0</ele><time>2026-04-06T13:41:20.041Z</time></trkpt><trkpt lat="49.89944" lon="14.6016049"><ele>442.99999999999994</ele><time>2026-04-06T13:41:21.041Z</time></trkpt><trkpt lat="49.89947" lon="14.601464"><ele>442.99999999999994</ele><time>2026-04-06T13:41:22.041Z</time></trkpt><trkpt lat="49.8994979" lon="14.601311"><ele>443.0</ele><time>2026-04-06T13:41:23.042Z</time></trkpt><trkpt lat="49.8995146" lon="14.6011582"><ele>443.0</ele><time>2026-04-06T13:41:24.041Z</time></trkpt><trkpt lat="49.899537" lon="14.6010042"><ele>442.2</ele><time>2026-04-06T13:41:25.041Z</time></trkpt><trkpt lat="49.8995652" lon="14.6008817"><ele>441.4</ele><time>2026-04-06T13:41:26.041Z</time></trkpt><trkpt lat="49.8996063" lon="14.600766"><ele>440.59999999999997</ele><time>2026-04-06T13:41:27.041Z</time></trkpt><trkpt lat="49.8996662" lon="14.6006384"><ele>439.79999999999995</ele><time>2026-04-06T13:41:28.042Z</time></trkpt><trkpt lat="49.8997368" lon="14.600516"><ele>439.0</ele><time>2026-04-06T13:41:29.041Z</time></trkpt><trkpt lat="49.899829" lon="14.6003874"><ele>437.4</ele><time>2026-04-06T13:41:30.041Z</time></trkpt><trkpt lat="49.899928" lon="14.6002651"><ele>435.79999999999995</ele><time>2026-04-06T13:41:31.042Z</time></trkpt><trkpt lat="49.9000128" lon="14.6001607"><ele>434.20000000000005</ele><time>2026-04-06T13:41:32.041Z</time></trkpt><trkpt lat="49.9000862" lon="14.600076"><ele>432.6</ele><time>2026-04-06T13:41:33.041Z</time></trkpt><trkpt lat="49.9001622" lon="14.5999927"><ele>431.0</ele><time>2026-04-06T13:41:34.042Z</time></trkpt><trkpt lat="49.9002283" lon="14.5999295"><ele>430.8333333333333</ele><time>2026-04-06T13:41:35.041Z</time></trkpt><trkpt lat="49.900304" lon="14.5998488"><ele>430.66666666666663</ele><time>2026-04-06T13:41:36.042Z</time></trkpt><trkpt lat="49.9003864" lon="14.5997572"><ele>430.5</ele><time>2026-04-06T13:41:37.041Z</time></trkpt><trkpt lat="49.9004469" lon="14.5996595"><ele>430.33333333333337</ele><time>2026-04-06T13:41:38.041Z</time></trkpt><trkpt lat="49.9004829" lon="14.5995554"><ele>430.1666666666667</ele><time>2026-04-06T13:41:39.042Z</time></trkpt><trkpt lat="49.9004994" lon="14.5994239"><ele>430.0</ele><time>2026-04-06T13:41:40.041Z</time></trkpt><trkpt lat="49.9005254" lon="14.5992966"><ele>428.4</ele><time>2026-04-06T13:41:41.042Z</time></trkpt><trkpt lat="49.9005695" lon="14.5991585"><ele>426.8</ele><time>2026-04-06T13:41:42.041Z</time></trkpt><trkpt lat="49.900619" lon="14.5990214"><ele>425.20000000000005</ele><time>2026-04-06T13:41:43.042Z</time></trkpt><trkpt lat="49.9006858" lon="14.598881"><ele>423.6</ele><time>2026-04-06T13:41:44.041Z</time></trkpt><trkpt lat="49.9007538" lon="14.5987512"><ele>422.0</ele><time>2026-04-06T13:41:45.041Z</time></trkpt><trkpt lat="49.9008191" lon="14.5986333"><ele>421.3333333333333</ele><time>2026-04-06T13:41:46.041Z</time></trkpt><trkpt lat="49.900883" lon="14.5985089"><ele>420.66666666666663</ele><time>2026-04-06T13:41:47.041Z</time></trkpt><trkpt lat="49.9009477" lon="14.5984044"><ele>420.0</ele><time>2026-04-06T13:41:48.041Z</time></trkpt><trkpt lat="49.9010014" lon="14.598307"><ele>419.33333333333337</ele><time>2026-04-06T13:41:49.041Z</time></trkpt><trkpt lat="49.9010495" lon="14.5981977"><ele>418.6666666666667</ele><time>2026-04-06T13:41:50.041Z</time></trkpt><trkpt lat="49.9010813" lon="14.5980932"><ele>418.0</ele><time>2026-04-06T13:41:51.041Z</time></trkpt><trkpt lat="49.9011142" lon="14.5979971"><ele>417.0</ele><time>2026-04-06T13:41:52.042Z</time></trkpt><trkpt lat="49.9011465" lon="14.5978925"><ele>416.0</ele><time>2026-04-06T13:41:53.042Z</time></trkpt><trkpt lat="49.9011964" lon="14.5977761"><ele>415.0</ele><time>2026-04-06T13:41:54.042Z</time></trkpt><trkpt lat="49.9012634" lon="14.5976644"><ele>414.0</ele><time>2026-04-06T13:41:55.041Z</time></trkpt><trkpt lat="49.9013271" lon="14.5975512"><ele>413.0</ele><time>2026-04-06T13:41:56.041Z</time></trkpt><trkpt lat="49.9013913" lon="14.5974478"><ele>412.0</ele><time>2026-04-06T13:41:57.041Z</time></trkpt><trkpt lat="49.9014545" lon="14.5973572"><ele>411.0</ele><time>2026-04-06T13:41:58.041Z</time></trkpt><trkpt lat="49.9015223" lon="14.5972907"><ele>410.0</ele><time>2026-04-06T13:41:59.041Z</time></trkpt><trkpt lat="49.9016022" lon="14.5972003"><ele>409.0</ele><time>2026-04-06T13:42:01.042Z</time></trkpt><trkpt lat="49.9016475" lon="14.5972748"><ele>408.0</ele><time>2026-04-06T13:42:05.042Z</time></trkpt><trkpt lat="49.9016161" lon="14.5974581"><ele>408.0</ele><time>2026-04-06T13:42:07.042Z</time></trkpt><trkpt lat="49.9015861" lon="14.5976019"><ele>408.0</ele><time>2026-04-06T13:42:08.041Z</time></trkpt><trkpt lat="49.9015527" lon="14.5977996"><ele>408.0</ele><time>2026-04-06T13:42:09.041Z</time></trkpt><trkpt lat="49.9015294" lon="14.5979962"><ele>408.0</ele><time>2026-04-06T13:42:10.042Z</time></trkpt><trkpt lat="49.9015075" lon="14.5981688"><ele>408.8333333333333</ele><time>2026-04-06T13:42:11.041Z</time></trkpt><trkpt lat="49.9014892" lon="14.5983073"><ele>409.66666666666663</ele><time>2026-04-06T13:42:12.042Z</time></trkpt><trkpt lat="49.9014856" lon="14.5984315"><ele>410.5</ele><time>2026-04-06T13:42:13.042Z</time></trkpt><trkpt lat="49.901497" lon="14.5985484"><ele>411.3333333333333</ele><time>2026-04-06T13:42:14.041Z</time></trkpt><trkpt lat="49.9015457" lon="14.5986565"><ele>412.16666666666663</ele><time>2026-04-06T13:42:15.041Z</time></trkpt><trkpt lat="49.9016376" lon="14.5987404"><ele>413.0</ele><time>2026-04-06T13:42:16.042Z</time></trkpt><trkpt lat="49.901742" lon="14.5988004"><ele>413.3333333333333</ele><time>2026-04-06T13:42:17.041Z</time></trkpt><trkpt lat="49.9018423" lon="14.5988548"><ele>413.66666666666663</ele><time>2026-04-06T13:42:18.042Z</time></trkpt><trkpt lat="49.9019196" lon="14.5989452"><ele>414.0</ele><time>2026-04-06T13:42:19.041Z</time></trkpt><trkpt lat="49.9019725" lon="14.5990294"><ele>414.33333333333337</ele><time>2026-04-06T13:42:20.041Z</time></trkpt><trkpt lat="49.9020209" lon="14.5991079"><ele>414.6666666666667</ele><time>2026-04-06T13:42:21.042Z</time></trkpt><trkpt lat="49.90207" lon="14.5991918"><ele>415.0</ele><time>2026-04-06T13:42:22.042Z</time></trkpt><trkpt lat="49.9021186" lon="14.5992873"><ele>415.00000000000006</ele><time>2026-04-06T13:42:23.042Z</time></trkpt><trkpt lat="49.9021697" lon="14.5993806"><ele>415.0</ele><time>2026-04-06T13:42:24.041Z</time></trkpt><trkpt lat="49.9022221" lon="14.5994715"><ele>415.0</ele><time>2026-04-06T13:42:25.042Z</time></trkpt><trkpt lat="49.9022799" lon="14.5995683"><ele>415.0</ele><time>2026-04-06T13:42:26.041Z</time></trkpt><trkpt lat="49.9023377" lon="14.5996873"><ele>415.00000000000006</ele><time>2026-04-06T13:42:27.041Z</time></trkpt><trkpt lat="49.9023901" lon="14.5998318"><ele>415.0</ele><time>2026-04-06T13:42:28.042Z</time></trkpt><trkpt lat="49.9024289" lon="14.5999984"><ele>417.0</ele><time>2026-04-06T13:42:29.042Z</time></trkpt><trkpt lat="49.9024545" lon="14.6001866"><ele>419.0</ele><time>2026-04-06T13:42:30.041Z</time></trkpt><trkpt lat="49.9024728" lon="14.6003739"><ele>421.0</ele><time>2026-04-06T13:42:31.041Z</time></trkpt><trkpt lat="49.9025016" lon="14.6005505"><ele>423.0</ele><time>2026-04-06T13:42:32.042Z</time></trkpt><trkpt lat="49.9025455" lon="14.60071"><ele>421.79999999999995</ele><time>2026-04-06T13:42:33.041Z</time></trkpt><trkpt lat="49.9026063" lon="14.6008453"><ele>420.6</ele><time>2026-04-06T13:42:34.042Z</time></trkpt><trkpt lat="49.9026808" lon="14.6009473"><ele>419.4</ele><time>2026-04-06T13:42:35.042Z</time></trkpt><trkpt lat="49.9027625" lon="14.6010234"><ele>418.20000000000005</ele><time>2026-04-06T13:42:36.042Z</time></trkpt><trkpt lat="49.9028434" lon="14.6010882"><ele>417.0</ele><time>2026-04-06T13:42:37.042Z</time></trkpt><trkpt lat="49.9029124" lon="14.6011542"><ele>417.0</ele><time>2026-04-06T13:42:38.041Z</time></trkpt><trkpt lat="49.9029697" lon="14.6012399"><ele>417.0</ele><time>2026-04-06T13:42:39.052Z</time></trkpt><trkpt lat="49.9030194" lon="14.6013523"><ele>417.0</ele><time>2026-04-06T13:42:40.052Z</time></trkpt><trkpt lat="49.9030597" lon="14.6014774"><ele>417.0</ele><time>2026-04-06T13:42:41.051Z</time></trkpt><trkpt lat="49.9030889" lon="14.6016227"><ele>417.0</ele><time>2026-04-06T13:42:42.051Z</time></trkpt><trkpt lat="49.9031038" lon="14.6017713"><ele>417.0</ele><time>2026-04-06T13:42:43.052Z</time></trkpt><trkpt lat="49.9031052" lon="14.6019375"><ele>417.0</ele><time>2026-04-06T13:42:44.051Z</time></trkpt><trkpt lat="49.9030984" lon="14.6021289"><ele>417.0</ele><time>2026-04-06T13:42:45.052Z</time></trkpt><trkpt lat="49.9030884" lon="14.602343"><ele>417.0</ele><time>2026-04-06T13:42:46.052Z</time></trkpt><trkpt lat="49.903081" lon="14.6025324"><ele>417.0</ele><time>2026-04-06T13:42:47.052Z</time></trkpt><trkpt lat="49.9030818" lon="14.6027013"><ele>417.0</ele><time>2026-04-06T13:42:48.052Z</time></trkpt><trkpt lat="49.9030971" lon="14.6028523"><ele>417.0</ele><time>2026-04-06T13:42:49.052Z</time></trkpt><trkpt lat="49.9031334" lon="14.602985"><ele>417.0</ele><time>2026-04-06T13:42:50.051Z</time></trkpt><trkpt lat="49.9031991" lon="14.6030871"><ele>417.0</ele><time>2026-04-06T13:42:51.052Z</time></trkpt><trkpt lat="49.9032954" lon="14.6031576"><ele>417.5</ele><time>2026-04-06T13:42:52.052Z</time></trkpt><trkpt lat="49.9034062" lon="14.6032057"><ele>418.0</ele><time>2026-04-06T13:42:53.051Z</time></trkpt><trkpt lat="49.9035252" lon="14.6032107"><ele>418.5</ele><time>2026-04-06T13:42:54.052Z</time></trkpt><trkpt lat="49.9036423" lon="14.6031696"><ele>419.0</ele><time>2026-04-06T13:42:55.051Z</time></trkpt><trkpt lat="49.9037404" lon="14.6031011"><ele>419.2</ele><time>2026-04-06T13:42:56.051Z</time></trkpt><trkpt lat="49.9038191" lon="14.6030128"><ele>419.4</ele><time>2026-04-06T13:42:57.051Z</time></trkpt><trkpt lat="49.9038985" lon="14.6029068"><ele>419.6</ele><time>2026-04-06T13:42:58.051Z</time></trkpt><trkpt lat="49.903968" lon="14.602788"><ele>419.8</ele><time>2026-04-06T13:42:59.052Z</time></trkpt><trkpt lat="49.9040282" lon="14.6026479"><ele>420.0</ele><time>2026-04-06T13:43:00.051Z</time></trkpt><trkpt lat="49.9040837" lon="14.6024708"><ele>420.0</ele><time>2026-04-06T13:43:01.051Z</time></trkpt><trkpt lat="49.9041386" lon="14.6022779"><ele>420.0</ele><time>2026-04-06T13:43:02.052Z</time></trkpt><trkpt lat="49.9041942" lon="14.6021157"><ele>420.0</ele><time>2026-04-06T13:43:03.051Z</time></trkpt><trkpt lat="49.9042538" lon="14.6019582"><ele>420.0</ele><time>2026-04-06T13:43:04.052Z</time></trkpt><trkpt lat="49.9043128" lon="14.6017814"><ele>422.0</ele><time>2026-04-06T13:43:05.051Z</time></trkpt><trkpt lat="49.9043844" lon="14.6016171"><ele>424.0</ele><time>2026-04-06T13:43:06.051Z</time></trkpt><trkpt lat="49.9044513" lon="14.6014671"><ele>426.0</ele><time>2026-04-06T13:43:07.052Z</time></trkpt><trkpt lat="49.9045048" lon="14.6013185"><ele>428.0</ele><time>2026-04-06T13:43:08.051Z</time></trkpt><trkpt lat="49.9045463" lon="14.6011746"><ele>427.4</ele><time>2026-04-06T13:43:09.052Z</time></trkpt><trkpt lat="49.904597" lon="14.6010348"><ele>426.79999999999995</ele><time>2026-04-06T13:43:10.051Z</time></trkpt><trkpt lat="49.9046592" lon="14.6009123"><ele>426.2</ele><time>2026-04-06T13:43:11.052Z</time></trkpt><trkpt lat="49.9047294" lon="14.600808"><ele>425.6</ele><time>2026-04-06T13:43:12.052Z</time></trkpt><trkpt lat="49.9047894" lon="14.600731"><ele>425.0</ele><time>2026-04-06T13:43:13.052Z</time></trkpt><trkpt lat="49.9048707" lon="14.6006948"><ele>425.0</ele><time>2026-04-06T13:43:15.051Z</time></trkpt><trkpt lat="49.9049062" lon="14.6007936"><ele>425.0</ele><time>2026-04-06T13:43:18.052Z</time></trkpt><trkpt lat="49.9049225" lon="14.6010075"><ele>425.0</ele><time>2026-04-06T13:43:20.052Z</time></trkpt><trkpt lat="49.9049418" lon="14.60113"><ele>425.0</ele><time>2026-04-06T13:43:21.052Z</time></trkpt><trkpt lat="49.9049751" lon="14.6012589"><ele>425.0</ele><time>2026-04-06T13:43:22.051Z</time></trkpt><trkpt lat="49.9050117" lon="14.6013926"><ele>425.6</ele><time>2026-04-06T13:43:23.052Z</time></trkpt><trkpt lat="49.9050566" lon="14.6015289"><ele>426.2</ele><time>2026-04-06T13:43:24.051Z</time></trkpt><trkpt lat="49.9050867" lon="14.6016849"><ele>426.79999999999995</ele><time>2026-04-06T13:43:25.052Z</time></trkpt><trkpt lat="49.9051337" lon="14.6018338"><ele>427.4</ele><time>2026-04-06T13:43:26.051Z</time></trkpt><trkpt lat="49.9051742" lon="14.601978"><ele>428.0</ele><time>2026-04-06T13:43:27.051Z</time></trkpt><trkpt lat="49.9051705" lon="14.6021474"><ele>428.79999999999995</ele><time>2026-04-06T13:43:28.051Z</time></trkpt><trkpt lat="49.9051683" lon="14.6023233"><ele>429.59999999999997</ele><time>2026-04-06T13:43:29.052Z</time></trkpt><trkpt lat="49.9051566" lon="14.6025042"><ele>430.40000000000003</ele><time>2026-04-06T13:43:30.051Z</time></trkpt><trkpt lat="49.9051303" lon="14.6026687"><ele>431.20000000000005</ele><time>2026-04-06T13:43:31.051Z</time></trkpt><trkpt lat="49.9050965" lon="14.6028173"><ele>432.0</ele><time>2026-04-06T13:43:32.052Z</time></trkpt><trkpt lat="49.9050512" lon="14.6029446"><ele>432.0</ele><time>2026-04-06T13:43:33.051Z</time></trkpt><trkpt lat="49.9049921" lon="14.6030659"><ele>432.00000000000006</ele><time>2026-04-06T13:43:34.051Z</time></trkpt><trkpt lat="49.9049128" lon="14.6031835"><ele>432.00000000000006</ele><time>2026-04-06T13:43:35.052Z</time></trkpt><trkpt lat="49.90483" lon="14.6032923"><ele>432.0</ele><time>2026-04-06T13:43:36.052Z</time></trkpt><trkpt lat="49.9047473" lon="14.6034077"><ele>432.0</ele><time>2026-04-06T13:43:37.052Z</time></trkpt><trkpt lat="49.9046717" lon="14.6035181"><ele>432.0</ele><time>2026-04-06T13:43:38.051Z</time></trkpt><trkpt lat="49.9046007" lon="14.6036388"><ele>432.00000000000006</ele><time>2026-04-06T13:43:39.051Z</time></trkpt><trkpt lat="49.9045234" lon="14.6037666"><ele>432.00000000000006</ele><time>2026-04-06T13:43:40.051Z</time></trkpt><trkpt lat="49.9044705" lon="14.603887"><ele>432.0</ele><time>2026-04-06T13:43:41.052Z</time></trkpt><trkpt lat="49.9044298" lon="14.6040306"><ele>432.0</ele><time>2026-04-06T13:43:42.052Z</time></trkpt><trkpt lat="49.9044133" lon="14.6041844"><ele>431.8</ele><time>2026-04-06T13:43:43.051Z</time></trkpt><trkpt lat="49.9043874" lon="14.6043275"><ele>431.6</ele><time>2026-04-06T13:43:44.052Z</time></trkpt><trkpt lat="49.9043649" lon="14.6044679"><ele>431.40000000000003</ele><time>2026-04-06T13:43:45.051Z</time></trkpt><trkpt lat="49.9043261" lon="14.6046044"><ele>431.20000000000005</ele><time>2026-04-06T13:43:46.051Z</time></trkpt><trkpt lat="49.9042777" lon="14.6047445"><ele>431.0</ele><time>2026-04-06T13:43:47.051Z</time></trkpt><trkpt lat="49.9042309" lon="14.6048971"><ele>430.99999999999994</ele><time>2026-04-06T13:43:48.052Z</time></trkpt><trkpt lat="49.90418" lon="14.6050575"><ele>431.0</ele><time>2026-04-06T13:43:49.052Z</time></trkpt><trkpt lat="49.9041299" lon="14.605196"><ele>431.0</ele><time>2026-04-06T13:43:50.052Z</time></trkpt><trkpt lat="49.9040832" lon="14.6053081"><ele>431.0</ele><time>2026-04-06T13:43:51.052Z</time></trkpt><trkpt lat="49.9040395" lon="14.6054022"><ele>430.99999999999994</ele><time>2026-04-06T13:43:52.051Z</time></trkpt><trkpt lat="49.9039941" lon="14.6054788"><ele>431.0</ele><time>2026-04-06T13:43:53.051Z</time></trkpt><trkpt lat="49.9039333" lon="14.6055452"><ele>432.0</ele><time>2026-04-06T13:43:54.052Z</time></trkpt><trkpt lat="49.9038697" lon="14.6056269"><ele>433.0</ele><time>2026-04-06T13:43:55.052Z</time></trkpt><trkpt lat="49.9038196" lon="14.6057405"><ele>434.0</ele><time>2026-04-06T13:43:56.051Z</time></trkpt><trkpt lat="49.9037784" lon="14.6058504"><ele>435.0</ele><time>2026-04-06T13:43:57.051Z</time></trkpt><trkpt lat="49.903744" lon="14.6059886"><ele>436.0</ele><time>2026-04-06T13:43:58.052Z</time></trkpt><trkpt lat="49.9037062" lon="14.606139"><ele>435.8</ele><time>2026-04-06T13:43:59.051Z</time></trkpt><trkpt lat="49.9036609" lon="14.6062792"><ele>435.6</ele><time>2026-04-06T13:44:00.052Z</time></trkpt><trkpt lat="49.9036154" lon="14.6064036"><ele>435.4</ele><time>2026-04-06T13:44:01.051Z</time></trkpt><trkpt lat="49.9035745" lon="14.6065371"><ele>435.2</ele><time>2026-04-06T13:44:02.052Z</time></trkpt><trkpt lat="49.9035394" lon="14.6066795"><ele>435.0</ele><time>2026-04-06T13:44:03.051Z</time></trkpt><trkpt lat="49.9035112" lon="14.6068141"><ele>435.0</ele><time>2026-04-06T13:44:04.051Z</time></trkpt><trkpt lat="49.903482" lon="14.6069497"><ele>435.0</ele><time>2026-04-06T13:44:05.052Z</time></trkpt><trkpt lat="49.9034639" lon="14.6070906"><ele>435.0</ele><time>2026-04-06T13:44:06.052Z</time></trkpt><trkpt lat="49.9034354" lon="14.6072451"><ele>435.0</ele><time>2026-04-06T13:44:07.052Z</time></trkpt><trkpt lat="49.9034002" lon="14.6073903"><ele>435.0</ele><time>2026-04-06T13:44:08.051Z</time></trkpt><trkpt lat="49.9033629" lon="14.6075285"><ele>433.6</ele><time>2026-04-06T13:44:09.052Z</time></trkpt><trkpt lat="49.9033331" lon="14.6076697"><ele>432.2</ele><time>2026-04-06T13:44:10.051Z</time></trkpt><trkpt lat="49.9033219" lon="14.6078001"><ele>430.79999999999995</ele><time>2026-04-06T13:44:11.052Z</time></trkpt><trkpt lat="49.9032939" lon="14.6079685"><ele>429.4</ele><time>2026-04-06T13:44:13.052Z</time></trkpt><trkpt lat="49.903267" lon="14.6081041"><ele>428.0</ele><time>2026-04-06T13:44:15.051Z</time></trkpt><trkpt lat="49.9032437" lon="14.6082005"><ele>427.16666666666663</ele><time>2026-04-06T13:44:17.052Z</time></trkpt><trkpt lat="49.9031971" lon="14.6082933"><ele>426.3333333333333</ele><time>2026-04-06T13:44:20.051Z</time></trkpt><trkpt lat="49.9031346" lon="14.6083239"><ele>425.5</ele><time>2026-04-06T13:44:22.052Z</time></trkpt><trkpt lat="49.9030549" lon="14.6082797"><ele>424.66666666666663</ele><time>2026-04-06T13:44:24.051Z</time></trkpt><trkpt lat="49.9029723" lon="14.6082207"><ele>423.8333333333333</ele><time>2026-04-06T13:44:26.052Z</time></trkpt><trkpt lat="49.9030647" lon="14.6081562"><ele>423.0</ele><time>2026-04-06T13:44:31.052Z</time></trkpt><trkpt lat="49.903146" lon="14.6081987"><ele>423.0</ele><time>2026-04-06T13:44:32.051Z</time></trkpt><trkpt lat="49.9032238" lon="14.6082582"><ele>423.0</ele><time>2026-04-06T13:44:33.051Z</time></trkpt><trkpt lat="49.903306" lon="14.6083188"><ele>423.0</ele><time>2026-04-06T13:44:34.052Z</time></trkpt><trkpt lat="49.9033896" lon="14.6083745"><ele>423.0</ele><time>2026-04-06T13:44:35.051Z</time></trkpt><trkpt lat="49.9034758" lon="14.608425"><ele>423.0</ele><time>2026-04-06T13:44:36.052Z</time></trkpt><trkpt lat="49.9035645" lon="14.6084854"><ele>423.79999999999995</ele><time>2026-04-06T13:44:37.052Z</time></trkpt><trkpt lat="49.9036581" lon="14.6085623"><ele>424.6</ele><time>2026-04-06T13:44:38.051Z</time></trkpt><trkpt lat="49.9037527" lon="14.6086388"><ele>425.40000000000003</ele><time>2026-04-06T13:44:39.051Z</time></trkpt><trkpt lat="49.9038491" lon="14.6087261"><ele>426.20000000000005</ele><time>2026-04-06T13:44:40.051Z</time></trkpt><trkpt lat="49.9039445" lon="14.6088422"><ele>427.0</ele><time>2026-04-06T13:44:41.051Z</time></trkpt><trkpt lat="49.9040356" lon="14.6089661"><ele>427.0</ele><time>2026-04-06T13:44:42.051Z</time></trkpt><trkpt lat="49.9041025" lon="14.6091147"><ele>427.00000000000006</ele><time>2026-04-06T13:44:43.051Z</time></trkpt><trkpt lat="49.9041625" lon="14.6092703"><ele>427.00000000000006</ele><time>2026-04-06T13:44:44.051Z</time></trkpt><trkpt lat="49.9042261" lon="14.6094147"><ele>427.0</ele><time>2026-04-06T13:44:45.051Z</time></trkpt><trkpt lat="49.9042895" lon="14.6095374"><ele>427.0</ele><time>2026-04-06T13:44:46.051Z</time></trkpt><trkpt lat="49.9043505" lon="14.6096499"><ele>428.33333333333337</ele><time>2026-04-06T13:44:47.051Z</time></trkpt><trkpt lat="49.9044362" lon="14.6097498"><ele>429.6666666666667</ele><time>2026-04-06T13:44:49.051Z</time></trkpt><trkpt lat="49.9045449" lon="14.6097316"><ele>431.0</ele><time>2026-04-06T13:44:51.051Z</time></trkpt><trkpt lat="49.9046149" lon="14.6096851"><ele>432.33333333333337</ele><time>2026-04-06T13:44:52.052Z</time></trkpt><trkpt lat="49.9046745" lon="14.6096126"><ele>433.6666666666667</ele><time>2026-04-06T13:44:53.052Z</time></trkpt><trkpt lat="49.9047134" lon="14.6095059"><ele>435.0</ele><time>2026-04-06T13:44:55.051Z</time></trkpt><trkpt lat="49.9047544" lon="14.6093147"><ele>435.3333333333333</ele><time>2026-04-06T13:44:57.051Z</time></trkpt><trkpt lat="49.9047781" lon="14.6091994"><ele>435.66666666666663</ele><time>2026-04-06T13:44:58.052Z</time></trkpt><trkpt lat="49.9048045" lon="14.6090871"><ele>436.0</ele><time>2026-04-06T13:44:59.051Z</time></trkpt><trkpt lat="49.9048275" lon="14.6089833"><ele>436.3333333333333</ele><time>2026-04-06T13:45:00.051Z</time></trkpt><trkpt lat="49.9048529" lon="14.6088744"><ele>436.66666666666663</ele><time>2026-04-06T13:45:01.051Z</time></trkpt><trkpt lat="49.9048947" lon="14.6087087"><ele>437.0</ele><time>2026-04-06T13:45:03.052Z</time></trkpt><trkpt lat="49.9049319" lon="14.6085575"><ele>437.49999999999994</ele><time>2026-04-06T13:45:05.051Z</time></trkpt><trkpt lat="49.9049634" lon="14.6084074"><ele>438.0</ele><time>2026-04-06T13:45:07.052Z</time></trkpt><trkpt lat="49.9049963" lon="14.6082562"><ele>438.5</ele><time>2026-04-06T13:45:09.051Z</time></trkpt><trkpt lat="49.9050168" lon="14.6081134"><ele>439.0</ele><time>2026-04-06T13:45:11.052Z</time></trkpt><trkpt lat="49.9050298" lon="14.6079924"><ele>439.49999999999994</ele><time>2026-04-06T13:45:13.051Z</time></trkpt><trkpt lat="49.905027" lon="14.6078876"><ele>440.0</ele><time>2026-04-06T13:45:22.052Z</time></trkpt><trkpt lat="49.9050734" lon="14.6077309"><ele>440.99999999999994</ele><time>2026-04-06T13:45:25.051Z</time></trkpt><trkpt lat="49.9050917" lon="14.607637"><ele>442.0</ele><time>2026-04-06T13:45:26.051Z</time></trkpt><trkpt lat="49.9051265" lon="14.6074736"><ele>443.0</ele><time>2026-04-06T13:45:28.052Z</time></trkpt><trkpt lat="49.905146" lon="14.6073683"><ele>444.0</ele><time>2026-04-06T13:45:29.052Z</time></trkpt><trkpt lat="49.905165" lon="14.6072562"><ele>444.99999999999994</ele><time>2026-04-06T13:45:30.052Z</time></trkpt><trkpt lat="49.9051872" lon="14.6071355"><ele>446.0</ele><time>2026-04-06T13:45:31.052Z</time></trkpt><trkpt lat="49.9052183" lon="14.607018"><ele>446.0</ele><time>2026-04-06T13:45:32.052Z</time></trkpt><trkpt lat="49.9052433" lon="14.6068894"><ele>446.0</ele><time>2026-04-06T13:45:33.051Z</time></trkpt><trkpt lat="49.9052716" lon="14.6067395"><ele>446.0</ele><time>2026-04-06T13:45:34.052Z</time></trkpt><trkpt lat="49.905303" lon="14.6065815"><ele>446.0</ele><time>2026-04-06T13:45:35.051Z</time></trkpt><trkpt lat="49.9053388" lon="14.6064135"><ele>446.0</ele><time>2026-04-06T13:45:36.052Z</time></trkpt><trkpt lat="49.905372" lon="14.606245"><ele>445.5</ele><time>2026-04-06T13:45:37.052Z</time></trkpt><trkpt lat="49.9054019" lon="14.6060696"><ele>445.0</ele><time>2026-04-06T13:45:38.052Z</time></trkpt><trkpt lat="49.9054381" lon="14.6059021"><ele>444.5</ele><time>2026-04-06T13:45:39.051Z</time></trkpt><trkpt lat="49.9054677" lon="14.6057347"><ele>444.0</ele><time>2026-04-06T13:45:40.051Z</time></trkpt><trkpt lat="49.9055005" lon="14.6055476"><ele>444.0</ele><time>2026-04-06T13:45:41.051Z</time></trkpt><trkpt lat="49.9055406" lon="14.6053758"><ele>444.0</ele><time>2026-04-06T13:45:42.051Z</time></trkpt><trkpt lat="49.9055834" lon="14.60521"><ele>444.0</ele><time>2026-04-06T13:45:43.051Z</time></trkpt><trkpt lat="49.9056246" lon="14.6050261"><ele>444.0</ele><time>2026-04-06T13:45:44.051Z</time></trkpt><trkpt lat="49.9056526" lon="14.6048502"><ele>443.25</ele><time>2026-04-06T13:45:45.051Z</time></trkpt><trkpt lat="49.9056834" lon="14.6046676"><ele>442.5</ele><time>2026-04-06T13:45:46.051Z</time></trkpt><trkpt lat="49.9057259" lon="14.604477"><ele>441.75</ele><time>2026-04-06T13:45:47.051Z</time></trkpt><trkpt lat="49.9057709" lon="14.6042804"><ele>441.0</ele><time>2026-04-06T13:45:48.052Z</time></trkpt><trkpt lat="49.9058131" lon="14.6040842"><ele>440.5</ele><time>2026-04-06T13:45:49.051Z</time></trkpt><trkpt lat="49.9058524" lon="14.6038907"><ele>440.0</ele><time>2026-04-06T13:45:50.051Z</time></trkpt><trkpt lat="49.9058924" lon="14.6036956"><ele>439.5</ele><time>2026-04-06T13:45:51.051Z</time></trkpt><trkpt lat="49.905935" lon="14.6034759"><ele>439.0</ele><time>2026-04-06T13:45:52.052Z</time></trkpt><trkpt lat="49.905973" lon="14.6032658"><ele>438.5</ele><time>2026-04-06T13:45:53.052Z</time></trkpt><trkpt lat="49.9060094" lon="14.6030567"><ele>438.0</ele><time>2026-04-06T13:45:54.051Z</time></trkpt><trkpt lat="49.9060465" lon="14.6028549"><ele>437.5</ele><time>2026-04-06T13:45:55.052Z</time></trkpt><trkpt lat="49.906075" lon="14.6026621"><ele>437.0</ele><time>2026-04-06T13:45:56.051Z</time></trkpt><trkpt lat="49.9061068" lon="14.6024722"><ele>436.25</ele><time>2026-04-06T13:45:57.051Z</time></trkpt><trkpt lat="49.9061298" lon="14.6022996"><ele>435.5</ele><time>2026-04-06T13:45:58.052Z</time></trkpt><trkpt lat="49.9061713" lon="14.6021109"><ele>434.75</ele><time>2026-04-06T13:45:59.051Z</time></trkpt><trkpt lat="49.906221" lon="14.6019356"><ele>434.0</ele><time>2026-04-06T13:46:00.052Z</time></trkpt><trkpt lat="49.9062616" lon="14.6017721"><ele>432.6</ele><time>2026-04-06T13:46:01.052Z</time></trkpt><trkpt lat="49.9063015" lon="14.6016191"><ele>431.2</ele><time>2026-04-06T13:46:02.052Z</time></trkpt><trkpt lat="49.9063368" lon="14.6014768"><ele>429.80000000000007</ele><time>2026-04-06T13:46:03.051Z</time></trkpt><trkpt lat="49.9063651" lon="14.6013394"><ele>428.40000000000003</ele><time>2026-04-06T13:46:04.052Z</time></trkpt><trkpt lat="49.9063926" lon="14.6012428"><ele>427.0</ele><time>2026-04-06T13:46:05.052Z</time></trkpt><trkpt lat="49.9064577" lon="14.6011469"><ele>427.0</ele><time>2026-04-06T13:46:07.051Z</time></trkpt><trkpt lat="49.9065294" lon="14.6011399"><ele>427.0</ele><time>2026-04-06T13:46:09.051Z</time></trkpt><trkpt lat="49.9065895" lon="14.6011769"><ele>427.0</ele><time>2026-04-06T13:46:11.051Z</time></trkpt><trkpt lat="49.9066546" lon="14.6012197"><ele>427.0</ele><time>2026-04-06T13:46:15.051Z</time></trkpt><trkpt lat="49.9067219" lon="14.6012457"><ele>427.0</ele><time>2026-04-06T13:46:18.052Z</time></trkpt><trkpt lat="49.9067796" lon="14.6012949"><ele>427.0</ele><time>2026-04-06T13:46:20.051Z</time></trkpt><trkpt lat="49.9068495" lon="14.6013378"><ele>427.0</ele><time>2026-04-06T13:46:22.052Z</time></trkpt><trkpt lat="49.9069335" lon="14.6013797"><ele>425.6</ele><time>2026-04-06T13:46:24.051Z</time></trkpt><trkpt lat="49.9070249" lon="14.6014421"><ele>424.20000000000005</ele><time>2026-04-06T13:46:26.051Z</time></trkpt><trkpt lat="49.9071146" lon="14.6014892"><ele>422.8</ele><time>2026-04-06T13:46:28.052Z</time></trkpt><trkpt lat="49.9072167" lon="14.6015343"><ele>421.4</ele><time>2026-04-06T13:46:30.052Z</time></trkpt><trkpt lat="49.9072838" lon="14.6015762"><ele>420.0</ele><time>2026-04-06T13:46:31.051Z</time></trkpt><trkpt lat="49.9073712" lon="14.6016192"><ele>420.0</ele><time>2026-04-06T13:46:32.052Z</time></trkpt><trkpt lat="49.9074803" lon="14.601691"><ele>420.0</ele><time>2026-04-06T13:46:33.051Z</time></trkpt><trkpt lat="49.9075901" lon="14.601751"><ele>420.0</ele><time>2026-04-06T13:46:34.052Z</time></trkpt><trkpt lat="49.9076837" lon="14.6017982"><ele>420.0</ele><time>2026-04-06T13:46:35.052Z</time></trkpt><trkpt lat="49.9077748" lon="14.6018285"><ele>420.0</ele><time>2026-04-06T13:46:36.051Z</time></trkpt><trkpt lat="49.9078594" lon="14.601875"><ele>418.6</ele><time>2026-04-06T13:46:37.051Z</time></trkpt><trkpt lat="49.9079532" lon="14.6019159"><ele>417.2</ele><time>2026-04-06T13:46:38.051Z</time></trkpt><trkpt lat="49.9080452" lon="14.6019663"><ele>415.79999999999995</ele><time>2026-04-06T13:46:39.051Z</time></trkpt><trkpt lat="49.9081475" lon="14.6020242"><ele>414.4</ele><time>2026-04-06T13:46:40.052Z</time></trkpt><trkpt lat="49.9082475" lon="14.602081"><ele>413.0</ele><time>2026-04-06T13:46:41.052Z</time></trkpt><trkpt lat="49.9083417" lon="14.602133"><ele>411.99999999999994</ele><time>2026-04-06T13:46:42.051Z</time></trkpt><trkpt lat="49.9084212" lon="14.6021876"><ele>411.0</ele><time>2026-04-06T13:46:43.052Z</time></trkpt><trkpt lat="49.9084966" lon="14.602248"><ele>410.0</ele><time>2026-04-06T13:46:44.052Z</time></trkpt><trkpt lat="49.9085774" lon="14.6022589"><ele>409.0</ele><time>2026-04-06T13:46:45.051Z</time></trkpt><trkpt lat="49.9086451" lon="14.6022503"><ele>407.99999999999994</ele><time>2026-04-06T13:46:46.051Z</time></trkpt><trkpt lat="49.9087083" lon="14.6022123"><ele>407.0</ele><time>2026-04-06T13:46:47.051Z</time></trkpt><trkpt lat="49.9087619" lon="14.6021463"><ele>407.0</ele><time>2026-04-06T13:46:48.051Z</time></trkpt><trkpt lat="49.9087997" lon="14.6020657"><ele>407.0</ele><time>2026-04-06T13:46:49.052Z</time></trkpt><trkpt lat="49.9088478" lon="14.6019072"><ele>407.0</ele><time>2026-04-06T13:46:51.052Z</time></trkpt><trkpt lat="49.9088852" lon="14.6017643"><ele>407.0</ele><time>2026-04-06T13:46:53.051Z</time></trkpt><trkpt lat="49.9089145" lon="14.6016013"><ele>407.0</ele><time>2026-04-06T13:46:55.052Z</time></trkpt><trkpt lat="49.9089351" lon="14.6014257"><ele>406.0</ele><time>2026-04-06T13:46:57.052Z</time></trkpt><trkpt lat="49.9089601" lon="14.6012578"><ele>405.0</ele><time>2026-04-06T13:46:59.051Z</time></trkpt><trkpt lat="49.9089972" lon="14.6011115"><ele>404.0</ele><time>2026-04-06T13:47:01.052Z</time></trkpt><trkpt lat="49.9090268" lon="14.6009582"><ele>403.0</ele><time>2026-04-06T13:47:03.052Z</time></trkpt><trkpt lat="49.9090694" lon="14.6008224"><ele>402.0</ele><time>2026-04-06T13:47:05.051Z</time></trkpt><trkpt lat="49.9091211" lon="14.6006806"><ele>401.40000000000003</ele><time>2026-04-06T13:47:07.052Z</time></trkpt><trkpt lat="49.9091856" lon="14.6005263"><ele>400.8</ele><time>2026-04-06T13:47:09.052Z</time></trkpt><trkpt lat="49.9092294" lon="14.6003673"><ele>400.2</ele><time>2026-04-06T13:47:11.051Z</time></trkpt><trkpt lat="49.9092488" lon="14.600204"><ele>399.6</ele><time>2026-04-06T13:47:13.052Z</time></trkpt><trkpt lat="49.9092445" lon="14.6000526"><ele>399.0</ele><time>2026-04-06T13:47:15.051Z</time></trkpt><trkpt lat="49.909263" lon="14.5998783"><ele>399.0</ele><time>2026-04-06T13:47:17.051Z</time></trkpt><trkpt lat="49.9092524" lon="14.5997305"><ele>399.0</ele><time>2026-04-06T13:47:19.051Z</time></trkpt><trkpt lat="49.9092521" lon="14.5995772"><ele>399.0</ele><time>2026-04-06T13:47:21.051Z</time></trkpt><trkpt lat="49.9092812" lon="14.5994218"><ele>399.0</ele><time>2026-04-06T13:47:23.052Z</time></trkpt><trkpt lat="49.9092837" lon="14.5992937"><ele>399.0</ele><time>2026-04-06T13:47:25.052Z</time></trkpt><trkpt lat="49.9092802" lon="14.5991629"><ele>398.79999999999995</ele><time>2026-04-06T13:47:27.052Z</time></trkpt><trkpt lat="49.909304" lon="14.5990178"><ele>398.59999999999997</ele><time>2026-04-06T13:47:29.052Z</time></trkpt><trkpt lat="49.9093412" lon="14.598889"><ele>398.4</ele><time>2026-04-06T13:47:31.052Z</time></trkpt><trkpt lat="49.9094149" lon="14.5987851"><ele>398.2</ele><time>2026-04-06T13:47:33.051Z</time></trkpt><trkpt lat="49.9094979" lon="14.5986872"><ele>398.0</ele><time>2026-04-06T13:47:35.052Z</time></trkpt><trkpt lat="49.909541" lon="14.5985472"><ele>398.0</ele><time>2026-04-06T13:47:37.052Z</time></trkpt><trkpt lat="49.9095319" lon="14.5983609"><ele>398.0</ele><time>2026-04-06T13:47:39.052Z</time></trkpt><trkpt lat="49.9095184" lon="14.5981686"><ele>398.0</ele><time>2026-04-06T13:47:41.052Z</time></trkpt><trkpt lat="49.9094708" lon="14.5979957"><ele>398.0</ele><time>2026-04-06T13:47:43.051Z</time></trkpt><trkpt lat="49.9094034" lon="14.5978211"><ele>397.99999999999994</ele><time>2026-04-06T13:47:45.051Z</time></trkpt><trkpt lat="49.909371" lon="14.5976303"><ele>398.0</ele><time>2026-04-06T13:47:47.052Z</time></trkpt><trkpt lat="49.9093546" lon="14.5975243"><ele>398.0</ele><time>2026-04-06T13:47:48.051Z</time></trkpt><trkpt lat="49.9093426" lon="14.5974099"><ele>398.0</ele><time>2026-04-06T13:47:49.052Z</time></trkpt><trkpt lat="49.909342" lon="14.5972975"><ele>397.99999999999994</ele><time>2026-04-06T13:47:50.052Z</time></trkpt><trkpt lat="49.9093436" lon="14.5971788"><ele>398.0</ele><time>2026-04-06T13:47:51.052Z</time></trkpt><trkpt lat="49.9093526" lon="14.5970561"><ele>398.79999999999995</ele><time>2026-04-06T13:47:52.051Z</time></trkpt><trkpt lat="49.9093683" lon="14.5969266"><ele>399.6</ele><time>2026-04-06T13:47:53.052Z</time></trkpt><trkpt lat="49.9093759" lon="14.5967927"><ele>400.4</ele><time>2026-04-06T13:47:54.051Z</time></trkpt><trkpt lat="49.9093871" lon="14.5966615"><ele>401.20000000000005</ele><time>2026-04-06T13:47:55.052Z</time></trkpt><trkpt lat="49.9094093" lon="14.5965366"><ele>402.0</ele><time>2026-04-06T13:47:56.051Z</time></trkpt><trkpt lat="49.9094424" lon="14.5963593"><ele>402.0</ele><time>2026-04-06T13:47:58.051Z</time></trkpt><trkpt lat="49.9094684" lon="14.5962403"><ele>402.0</ele><time>2026-04-06T13:48:00.051Z</time></trkpt><trkpt lat="49.9094993" lon="14.5961327"><ele>402.0</ele><time>2026-04-06T13:48:06.052Z</time></trkpt><trkpt lat="49.9095073" lon="14.5960357"><ele>402.0</ele><time>2026-04-06T13:48:07.052Z</time></trkpt><trkpt lat="49.9095256" lon="14.5959045"><ele>402.0</ele><time>2026-04-06T13:48:08.051Z</time></trkpt><trkpt lat="49.9095384" lon="14.5957473"><ele>402.0</ele><time>2026-04-06T13:48:09.051Z</time></trkpt><trkpt lat="49.9095574" lon="14.5955788"><ele>402.25</ele><time>2026-04-06T13:48:10.052Z</time></trkpt><trkpt lat="49.9095765" lon="14.5953924"><ele>402.5</ele><time>2026-04-06T13:48:11.051Z</time></trkpt><trkpt lat="49.9095988" lon="14.5952072"><ele>402.75</ele><time>2026-04-06T13:48:12.052Z</time></trkpt><trkpt lat="49.9096248" lon="14.5950217"><ele>403.0</ele><time>2026-04-06T13:48:13.051Z</time></trkpt><trkpt lat="49.9096474" lon="14.5948396"><ele>403.25</ele><time>2026-04-06T13:48:14.051Z</time></trkpt><trkpt lat="49.9096624" lon="14.594655"><ele>403.5</ele><time>2026-04-06T13:48:15.051Z</time></trkpt><trkpt lat="49.9096793" lon="14.5944733"><ele>403.75</ele><time>2026-04-06T13:48:16.051Z</time></trkpt><trkpt lat="49.9097034" lon="14.5942953"><ele>404.0</ele><time>2026-04-06T13:48:17.051Z</time></trkpt><trkpt lat="49.909731" lon="14.5941168"><ele>404.5</ele><time>2026-04-06T13:48:18.052Z</time></trkpt><trkpt lat="49.9097549" lon="14.5939308"><ele>405.0</ele><time>2026-04-06T13:48:19.051Z</time></trkpt><trkpt lat="49.9097761" lon="14.593747"><ele>405.5</ele><time>2026-04-06T13:48:20.052Z</time></trkpt><trkpt lat="49.9097992" lon="14.5935594"><ele>406.0</ele><time>2026-04-06T13:48:21.051Z</time></trkpt><trkpt lat="49.9098251" lon="14.5933704"><ele>406.0</ele><time>2026-04-06T13:48:22.052Z</time></trkpt><trkpt lat="49.9098569" lon="14.5931762"><ele>406.0</ele><time>2026-04-06T13:48:23.052Z</time></trkpt><trkpt lat="49.9098842" lon="14.5929747"><ele>406.0</ele><time>2026-04-06T13:48:24.051Z</time></trkpt><trkpt lat="49.9099011" lon="14.5927659"><ele>406.0</ele><time>2026-04-06T13:48:25.051Z</time></trkpt><trkpt lat="49.9099245" lon="14.5925384"><ele>407.0</ele><time>2026-04-06T13:48:26.051Z</time></trkpt><trkpt lat="49.9099473" lon="14.5923224"><ele>408.0</ele><time>2026-04-06T13:48:27.052Z</time></trkpt><trkpt lat="49.9099693" lon="14.5921092"><ele>409.0</ele><time>2026-04-06T13:48:28.052Z</time></trkpt><trkpt lat="49.9099916" lon="14.5919249"><ele>410.0</ele><time>2026-04-06T13:48:29.051Z</time></trkpt><trkpt lat="49.9100102" lon="14.5917464"><ele>410.5</ele><time>2026-04-06T13:48:30.051Z</time></trkpt><trkpt lat="49.9100344" lon="14.5915594"><ele>411.0</ele><time>2026-04-06T13:48:31.051Z</time></trkpt><trkpt lat="49.9100632" lon="14.5913616"><ele>411.5</ele><time>2026-04-06T13:48:32.052Z</time></trkpt><trkpt lat="49.9100913" lon="14.591146"><ele>412.0</ele><time>2026-04-06T13:48:33.051Z</time></trkpt><trkpt lat="49.9101143" lon="14.5909149"><ele>414.33333333333337</ele><time>2026-04-06T13:48:34.052Z</time></trkpt><trkpt lat="49.9101324" lon="14.5906842"><ele>416.66666666666663</ele><time>2026-04-06T13:48:35.051Z</time></trkpt><trkpt lat="49.9101568" lon="14.5904534"><ele>419.0</ele><time>2026-04-06T13:48:36.052Z</time></trkpt><trkpt lat="49.910185" lon="14.5902224"><ele>419.3333333333333</ele><time>2026-04-06T13:48:37.051Z</time></trkpt><trkpt lat="49.9102163" lon="14.5899927"><ele>419.66666666666663</ele><time>2026-04-06T13:48:38.052Z</time></trkpt><trkpt lat="49.9102452" lon="14.5897624"><ele>420.0</ele><time>2026-04-06T13:48:39.052Z</time></trkpt><trkpt lat="49.9102755" lon="14.5895386"><ele>419.5</ele><time>2026-04-06T13:48:40.051Z</time></trkpt><trkpt lat="49.9103027" lon="14.5893178"><ele>419.0</ele><time>2026-04-06T13:48:41.051Z</time></trkpt><trkpt lat="49.9103262" lon="14.5891052"><ele>418.5</ele><time>2026-04-06T13:48:42.051Z</time></trkpt><trkpt lat="49.9103545" lon="14.5889001"><ele>418.0</ele><time>2026-04-06T13:48:43.052Z</time></trkpt><trkpt lat="49.9103797" lon="14.5887135"><ele>418.0</ele><time>2026-04-06T13:48:44.052Z</time></trkpt><trkpt lat="49.9103972" lon="14.5885388"><ele>418.0</ele><time>2026-04-06T13:48:45.052Z</time></trkpt><trkpt lat="49.9104164" lon="14.5883554"><ele>418.0</ele><time>2026-04-06T13:48:46.052Z</time></trkpt><trkpt lat="49.9104403" lon="14.5881666"><ele>418.0</ele><time>2026-04-06T13:48:47.052Z</time></trkpt><trkpt lat="49.9104725" lon="14.5879664"><ele>418.0</ele><time>2026-04-06T13:48:48.052Z</time></trkpt><trkpt lat="49.9104899" lon="14.5877514"><ele>418.0</ele><time>2026-04-06T13:48:49.052Z</time></trkpt><trkpt lat="49.9105194" lon="14.587528"><ele>418.0</ele><time>2026-04-06T13:48:50.051Z</time></trkpt><trkpt lat="49.9105422" lon="14.5872961"><ele>418.0</ele><time>2026-04-06T13:48:51.051Z</time></trkpt><trkpt lat="49.9105674" lon="14.5870558"><ele>418.5</ele><time>2026-04-06T13:48:52.051Z</time></trkpt><trkpt lat="49.9106032" lon="14.5868111"><ele>419.0</ele><time>2026-04-06T13:48:53.051Z</time></trkpt><trkpt lat="49.9106379" lon="14.58658"><ele>419.5</ele><time>2026-04-06T13:48:54.051Z</time></trkpt><trkpt lat="49.9106696" lon="14.5863842"><ele>420.0</ele><time>2026-04-06T13:48:55.052Z</time></trkpt><trkpt lat="49.9106893" lon="14.5862044"><ele>420.6</ele><time>2026-04-06T13:48:56.052Z</time></trkpt><trkpt lat="49.9107109" lon="14.5860461"><ele>421.2</ele><time>2026-04-06T13:48:57.052Z</time></trkpt><trkpt lat="49.9107326" lon="14.5858989"><ele>421.79999999999995</ele><time>2026-04-06T13:48:58.051Z</time></trkpt><trkpt lat="49.9107558" lon="14.5857576"><ele>422.4</ele><time>2026-04-06T13:48:59.051Z</time></trkpt><trkpt lat="49.9107819" lon="14.5856183"><ele>423.0</ele><time>2026-04-06T13:49:00.052Z</time></trkpt><trkpt lat="49.9108061" lon="14.5854907"><ele>423.0</ele><time>2026-04-06T13:49:01.052Z</time></trkpt><trkpt lat="49.9108299" lon="14.5853789"><ele>423.0</ele><time>2026-04-06T13:49:02.052Z</time></trkpt><trkpt lat="49.9108549" lon="14.5852829"><ele>423.0</ele><time>2026-04-06T13:49:03.052Z</time></trkpt><trkpt lat="49.9108929" lon="14.5851222"><ele>423.0</ele><time>2026-04-06T13:49:05.052Z</time></trkpt><trkpt lat="49.9108822" lon="14.5849667"><ele>423.0</ele><time>2026-04-06T13:49:08.051Z</time></trkpt><trkpt lat="49.9108198" lon="14.5848994"><ele>423.0</ele><time>2026-04-06T13:49:09.052Z</time></trkpt><trkpt lat="49.9107544" lon="14.5848346"><ele>423.1666666666667</ele><time>2026-04-06T13:49:10.051Z</time></trkpt><trkpt lat="49.9106811" lon="14.584772"><ele>423.33333333333337</ele><time>2026-04-06T13:49:11.051Z</time></trkpt><trkpt lat="49.9106109" lon="14.5847062"><ele>423.5</ele><time>2026-04-06T13:49:12.052Z</time></trkpt><trkpt lat="49.9105499" lon="14.5846332"><ele>423.6666666666667</ele><time>2026-04-06T13:49:13.051Z</time></trkpt><trkpt lat="49.9104928" lon="14.5845642"><ele>423.83333333333337</ele><time>2026-04-06T13:49:14.052Z</time></trkpt><trkpt lat="49.9104083" lon="14.5844689"><ele>424.0</ele><time>2026-04-06T13:49:16.052Z</time></trkpt><trkpt lat="49.9104202" lon="14.5842981"><ele>424.0</ele><time>2026-04-06T13:49:20.061Z</time></trkpt><trkpt lat="49.9104643" lon="14.5841757"><ele>424.0</ele><time>2026-04-06T13:49:21.06Z</time></trkpt><trkpt lat="49.9105373" lon="14.584051"><ele>424.0</ele><time>2026-04-06T13:49:22.06Z</time></trkpt><trkpt lat="49.9106253" lon="14.5839384"><ele>424.0</ele><time>2026-04-06T13:49:23.06Z</time></trkpt><trkpt lat="49.9107063" lon="14.5837795"><ele>424.0</ele><time>2026-04-06T13:49:24.06Z</time></trkpt><trkpt lat="49.9107966" lon="14.5836376"><ele>424.0</ele><time>2026-04-06T13:49:25.06Z</time></trkpt><trkpt lat="49.9108931" lon="14.5834909"><ele>424.0</ele><time>2026-04-06T13:49:26.061Z</time></trkpt><trkpt lat="49.9109912" lon="14.5833575"><ele>424.0</ele><time>2026-04-06T13:49:27.061Z</time></trkpt><trkpt lat="49.911093" lon="14.5832427"><ele>424.0</ele><time>2026-04-06T13:49:28.061Z</time></trkpt><trkpt lat="49.9111907" lon="14.5831383"><ele>424.2</ele><time>2026-04-06T13:49:29.061Z</time></trkpt><trkpt lat="49.9112913" lon="14.5830589"><ele>424.4</ele><time>2026-04-06T13:49:30.061Z</time></trkpt><trkpt lat="49.9113869" lon="14.5829969"><ele>424.6</ele><time>2026-04-06T13:49:31.061Z</time></trkpt><trkpt lat="49.9114703" lon="14.5829589"><ele>424.8</ele><time>2026-04-06T13:49:32.06Z</time></trkpt><trkpt lat="49.9115469" lon="14.5829181"><ele>425.0</ele><time>2026-04-06T13:49:34.061Z</time></trkpt><trkpt lat="49.9116058" lon="14.5828265"><ele>424.99999999999994</ele><time>2026-04-06T13:49:37.061Z</time></trkpt><trkpt lat="49.9116045" lon="14.5827263"><ele>425.0</ele><time>2026-04-06T13:50:09.061Z</time></trkpt><trkpt lat="49.9115996" lon="14.5826278"><ele>425.0</ele><time>2026-04-06T13:50:11.061Z</time></trkpt><trkpt lat="49.9115778" lon="14.5824934"><ele>425.0</ele><time>2026-04-06T13:50:13.061Z</time></trkpt><trkpt lat="49.9115533" lon="14.5823816"><ele>424.99999999999994</ele><time>2026-04-06T13:50:15.06Z</time></trkpt><trkpt lat="49.9115449" lon="14.5822787"><ele>425.0</ele><time>2026-04-06T13:50:17.06Z</time></trkpt><trkpt lat="49.9115842" lon="14.5821461"><ele>425.0</ele><time>2026-04-06T13:57:31.065Z</time></trkpt></trkseg></trk></gpx>